﻿<?xml version="1.0" encoding="utf-8"?><gpx creator="Garmin Desktop App" version="1.1" xsi:schemaLocation="http://www.topografix.com/GPX/1/1 http://www.topografix.com/GPX/1/1/gpx.xsd http://www.garmin.com/xmlschemas/WaypointExtension/v1 http://www8.garmin.com/xmlschemas/WaypointExtensionv1.xsd http://www.garmin.com/xmlschemas/TrackPointExtension/v1 http://www.garmin.com/xmlschemas/TrackPointExtensionv1.xsd http://www.garmin.com/xmlschemas/GpxExtensions/v3 http://www8.garmin.com/xmlschemas/GpxExtensionsv3.xsd http://www.garmin.com/xmlschemas/ActivityExtension/v1 http://www8.garmin.com/xmlschemas/ActivityExtensionv1.xsd http://www.garmin.com/xmlschemas/AdventuresExtensions/v1 http://www8.garmin.com/xmlschemas/AdventuresExtensionv1.xsd http://www.garmin.com/xmlschemas/PressureExtension/v1 http://www.garmin.com/xmlschemas/PressureExtensionv1.xsd http://www.garmin.com/xmlschemas/TripExtensions/v1 http://www.garmin.com/xmlschemas/TripExtensionsv1.xsd http://www.garmin.com/xmlschemas/TripMetaDataExtensions/v1 http://www.garmin.com/xmlschemas/TripMetaDataExtensionsv1.xsd http://www.garmin.com/xmlschemas/ViaPointTransportationModeExtensions/v1 http://www.garmin.com/xmlschemas/ViaPointTransportationModeExtensionsv1.xsd http://www.garmin.com/xmlschemas/CreationTimeExtension/v1 http://www.garmin.com/xmlschemas/CreationTimeExtensionsv1.xsd http://www.garmin.com/xmlschemas/AccelerationExtension/v1 http://www.garmin.com/xmlschemas/AccelerationExtensionv1.xsd http://www.garmin.com/xmlschemas/PowerExtension/v1 http://www.garmin.com/xmlschemas/PowerExtensionv1.xsd http://www.garmin.com/xmlschemas/VideoExtension/v1 http://www.garmin.com/xmlschemas/VideoExtensionv1.xsd" xmlns="http://www.topografix.com/GPX/1/1" xmlns:xsi="http://www.w3.org/2001/XMLSchema-instance" xmlns:wptx1="http://www.garmin.com/xmlschemas/WaypointExtension/v1" xmlns:gpxtrx="http://www.garmin.com/xmlschemas/GpxExtensions/v3" xmlns:gpxtpx="http://www.garmin.com/xmlschemas/TrackPointExtension/v1" xmlns:gpxx="http://www.garmin.com/xmlschemas/GpxExtensions/v3" xmlns:trp="http://www.garmin.com/xmlschemas/TripExtensions/v1" xmlns:adv="http://www.garmin.com/xmlschemas/AdventuresExtensions/v1" xmlns:prs="http://www.garmin.com/xmlschemas/PressureExtension/v1" xmlns:tmd="http://www.garmin.com/xmlschemas/TripMetaDataExtensions/v1" xmlns:vptm="http://www.garmin.com/xmlschemas/ViaPointTransportationModeExtensions/v1" xmlns:ctx="http://www.garmin.com/xmlschemas/CreationTimeExtension/v1" xmlns:gpxacc="http://www.garmin.com/xmlschemas/AccelerationExtension/v1" xmlns:gpxpx="http://www.garmin.com/xmlschemas/PowerExtension/v1" xmlns:vidx1="http://www.garmin.com/xmlschemas/VideoExtension/v1">

  <metadata>
    <link href="http://www.garmin.com">
      <text>Garmin International</text>
    </link>
    <time>2019-05-05T18:40:26Z</time>
    <bounds maxlat="54.795498987659812" maxlon="10.193910961970687" minlat="50.065462030470371" minlon="8.469269005581737" />
  </metadata>

  <trk>
    <name>Track vom: 2019-05-05 08:05</name>
    <extensions>
      <gpxx:TrackExtension>
        <gpxx:DisplayColor>DarkGray</gpxx:DisplayColor>
      </gpxx:TrackExtension>
    </extensions>
    <trkseg>
      <trkpt lat="50.068500973284245" lon="8.478210987523198">
        <ele>118.38</ele>
        <time>2019-05-05T06:05:08Z</time>
      </trkpt>
      <trkpt lat="50.068508014082909" lon="8.478212999179959">
        <ele>118.38</ele>
        <time>2019-05-05T06:06:00Z</time>
      </trkpt>
      <trkpt lat="50.06851002573967" lon="8.478206964209676">
        <ele>118.86</ele>
        <time>2019-05-05T06:06:43Z</time>
      </trkpt>
      <trkpt lat="50.068527963012457" lon="8.478228002786636">
        <ele>118.38</ele>
        <time>2019-05-05T06:07:07Z</time>
      </trkpt>
      <trkpt lat="50.068458979949355" lon="8.478348031640053">
        <ele>114.05</ele>
        <time>2019-05-05T06:07:19Z</time>
      </trkpt>
      <trkpt lat="50.068458979949355" lon="8.478348031640053">
        <ele>114.05</ele>
        <time>2019-05-05T06:07:46Z</time>
      </trkpt>
      <trkpt lat="50.06838496774435" lon="8.478305032476783">
        <ele>112.61</ele>
        <time>2019-05-05T06:07:48Z</time>
      </trkpt>
      <trkpt lat="50.068315984681249" lon="8.478416008874774">
        <ele>111.17</ele>
        <time>2019-05-05T06:07:50Z</time>
      </trkpt>
      <trkpt lat="50.068271979689598" lon="8.478487003594637">
        <ele>110.69</ele>
        <time>2019-05-05T06:07:51Z</time>
      </trkpt>
      <trkpt lat="50.068234009668231" lon="8.478547018021345">
        <ele>109.73</ele>
        <time>2019-05-05T06:07:52Z</time>
      </trkpt>
      <trkpt lat="50.06821297109127" lon="8.47858096472919">
        <ele>108.77</ele>
        <time>2019-05-05T06:07:53Z</time>
      </trkpt>
      <trkpt lat="50.06812403909862" lon="8.478607032448053">
        <ele>107.81</ele>
        <time>2019-05-05T06:07:54Z</time>
      </trkpt>
      <trkpt lat="50.068100988864899" lon="8.478550035506487">
        <ele>107.31999999999999</ele>
        <time>2019-05-05T06:07:55Z</time>
      </trkpt>
      <trkpt lat="50.068067964166403" lon="8.478469988331199">
        <ele>106.36</ele>
        <time>2019-05-05T06:07:56Z</time>
      </trkpt>
      <trkpt lat="50.067683989182115" lon="8.477524006739259">
        <ele>102.52</ele>
        <time>2019-05-05T06:08:04Z</time>
      </trkpt>
      <trkpt lat="50.066988961771131" lon="8.47593798302114">
        <ele>101.56</ele>
        <time>2019-05-05T06:08:15Z</time>
      </trkpt>
      <trkpt lat="50.066608004271984" lon="8.475267011672258">
        <ele>101.08</ele>
        <time>2019-05-05T06:08:21Z</time>
      </trkpt>
      <trkpt lat="50.066582020372152" lon="8.475220995023847">
        <ele>101.08</ele>
        <time>2019-05-05T06:08:22Z</time>
      </trkpt>
      <trkpt lat="50.066561987623572" lon="8.474955037236214">
        <ele>100.59999999999999</ele>
        <time>2019-05-05T06:08:25Z</time>
      </trkpt>
      <trkpt lat="50.066542960703373" lon="8.474879013374448">
        <ele>100.59999999999999</ele>
        <time>2019-05-05T06:08:26Z</time>
      </trkpt>
      <trkpt lat="50.066350009292364" lon="8.474665023386478">
        <ele>100.59999999999999</ele>
        <time>2019-05-05T06:08:28Z</time>
      </trkpt>
      <trkpt lat="50.066326037049294" lon="8.47458497621119">
        <ele>101.08</ele>
        <time>2019-05-05T06:08:29Z</time>
      </trkpt>
      <trkpt lat="50.066283037886024" lon="8.474441980943084">
        <ele>101.56</ele>
        <time>2019-05-05T06:08:30Z</time>
      </trkpt>
      <trkpt lat="50.065821027383208" lon="8.472913037985563">
        <ele>103</ele>
        <time>2019-05-05T06:08:38Z</time>
      </trkpt>
      <trkpt lat="50.065496983006597" lon="8.471816014498472">
        <ele>104.44</ele>
        <time>2019-05-05T06:08:45Z</time>
      </trkpt>
      <trkpt lat="50.065462030470371" lon="8.471363978460431">
        <ele>104.92</ele>
        <time>2019-05-05T06:08:48Z</time>
      </trkpt>
      <trkpt lat="50.065469993278384" lon="8.471231963485479">
        <ele>105.40000000000001</ele>
        <time>2019-05-05T06:08:49Z</time>
      </trkpt>
      <trkpt lat="50.065505029633641" lon="8.471114030107856">
        <ele>105.40000000000001</ele>
        <time>2019-05-05T06:08:50Z</time>
      </trkpt>
      <trkpt lat="50.065539982169867" lon="8.470994001254439">
        <ele>105.40000000000001</ele>
        <time>2019-05-05T06:08:51Z</time>
      </trkpt>
      <trkpt lat="50.065595973283052" lon="8.470850000157952">
        <ele>105.40000000000001</ele>
        <time>2019-05-05T06:08:52Z</time>
      </trkpt>
      <trkpt lat="50.065684989094734" lon="8.470770036801696">
        <ele>105.88</ele>
        <time>2019-05-05T06:08:53Z</time>
      </trkpt>
      <trkpt lat="50.065779034048319" lon="8.470684960484505">
        <ele>105.88</ele>
        <time>2019-05-05T06:08:54Z</time>
      </trkpt>
      <trkpt lat="50.066873962059617" lon="8.46983402967453">
        <ele>109.25</ele>
        <time>2019-05-05T06:09:03Z</time>
      </trkpt>
      <trkpt lat="50.067601008340716" lon="8.469269005581737">
        <ele>113.56999999999999</ele>
        <time>2019-05-05T06:09:09Z</time>
      </trkpt>
      <trkpt lat="50.06773897446692" lon="8.469310998916626">
        <ele>114.05</ele>
        <time>2019-05-05T06:09:10Z</time>
      </trkpt>
      <trkpt lat="50.067832013592124" lon="8.469351986423135">
        <ele>115.01000000000001</ele>
        <time>2019-05-05T06:09:11Z</time>
      </trkpt>
      <trkpt lat="50.067920023575425" lon="8.469390040263534">
        <ele>115.5</ele>
        <time>2019-05-05T06:09:12Z</time>
      </trkpt>
      <trkpt lat="50.068003004416823" lon="8.469531023874879">
        <ele>115.5</ele>
        <time>2019-05-05T06:09:13Z</time>
      </trkpt>
      <trkpt lat="50.068058995530009" lon="8.469691034406424">
        <ele>115.98</ele>
        <time>2019-05-05T06:09:14Z</time>
      </trkpt>
      <trkpt lat="50.068122027441859" lon="8.469868982210755">
        <ele>115.98</ele>
        <time>2019-05-05T06:09:15Z</time>
      </trkpt>
      <trkpt lat="50.068186987191439" lon="8.470052964985371">
        <ele>115.5</ele>
        <time>2019-05-05T06:09:16Z</time>
      </trkpt>
      <trkpt lat="50.068281032145023" lon="8.470209036022425">
        <ele>115.5</ele>
        <time>2019-05-05T06:09:17Z</time>
      </trkpt>
      <trkpt lat="50.068387985229492" lon="8.470326969400048">
        <ele>115.01000000000001</ele>
        <time>2019-05-05T06:09:18Z</time>
      </trkpt>
      <trkpt lat="50.068521006032825" lon="8.470369968563318">
        <ele>114.53</ele>
        <time>2019-05-05T06:09:19Z</time>
      </trkpt>
      <trkpt lat="50.068668024614453" lon="8.470395030453801">
        <ele>114.05</ele>
        <time>2019-05-05T06:09:20Z</time>
      </trkpt>
      <trkpt lat="50.068786041811109" lon="8.470345996320248">
        <ele>113.56999999999999</ele>
        <time>2019-05-05T06:09:21Z</time>
      </trkpt>
      <trkpt lat="50.068921996280551" lon="8.470291011035442">
        <ele>112.61</ele>
        <time>2019-05-05T06:09:22Z</time>
      </trkpt>
      <trkpt lat="50.069060968235135" lon="8.470235019922257">
        <ele>112.13</ele>
        <time>2019-05-05T06:09:23Z</time>
      </trkpt>
      <trkpt lat="50.06919901818037" lon="8.47017802298069">
        <ele>111.17</ele>
        <time>2019-05-05T06:09:24Z</time>
      </trkpt>
      <trkpt lat="50.069343019276857" lon="8.470186991617084">
        <ele>110.69</ele>
        <time>2019-05-05T06:09:25Z</time>
      </trkpt>
      <trkpt lat="50.069492971524596" lon="8.470229990780354">
        <ele>110.20999999999999</ele>
        <time>2019-05-05T06:09:26Z</time>
      </trkpt>
      <trkpt lat="50.069642001762986" lon="8.470273995772004">
        <ele>109.73</ele>
        <time>2019-05-05T06:09:27Z</time>
      </trkpt>
      <trkpt lat="50.069819027557969" lon="8.470396958291531">
        <ele>108.77</ele>
        <time>2019-05-05T06:09:28Z</time>
      </trkpt>
      <trkpt lat="50.069945007562637" lon="8.470589993521571">
        <ele>108.29000000000001</ele>
        <time>2019-05-05T06:09:29Z</time>
      </trkpt>
      <trkpt lat="50.07007903419435" lon="8.470796020701528">
        <ele>107.81</ele>
        <time>2019-05-05T06:09:30Z</time>
      </trkpt>
      <trkpt lat="50.071358028799295" lon="8.472750009968877">
        <ele>106.84</ele>
        <time>2019-05-05T06:09:38Z</time>
      </trkpt>
      <trkpt lat="50.073628015816212" lon="8.476018030196428">
        <ele>106.36</ele>
        <time>2019-05-05T06:09:51Z</time>
      </trkpt>
      <trkpt lat="50.076165972277522" lon="8.479384034872055">
        <ele>106.84</ele>
        <time>2019-05-05T06:10:05Z</time>
      </trkpt>
      <trkpt lat="50.078532015904784" lon="8.482526997104287">
        <ele>109.25</ele>
        <time>2019-05-05T06:10:18Z</time>
      </trkpt>
      <trkpt lat="50.080364970490336" lon="8.484938973560929">
        <ele>111.17</ele>
        <time>2019-05-05T06:10:28Z</time>
      </trkpt>
      <trkpt lat="50.081844041123986" lon="8.48616499453783">
        <ele>114.05</ele>
        <time>2019-05-05T06:10:35Z</time>
      </trkpt>
      <trkpt lat="50.083504999056458" lon="8.486609989777207">
        <ele>116.94</ele>
        <time>2019-05-05T06:10:42Z</time>
      </trkpt>
      <trkpt lat="50.08542001247406" lon="8.486224003136158">
        <ele>116.45999999999999</ele>
        <time>2019-05-05T06:10:50Z</time>
      </trkpt>
      <trkpt lat="50.088468007743359" lon="8.485148018226028">
        <ele>115.98</ele>
        <time>2019-05-05T06:11:03Z</time>
      </trkpt>
      <trkpt lat="50.091037983074784" lon="8.484211005270481">
        <ele>114.05</ele>
        <time>2019-05-05T06:11:14Z</time>
      </trkpt>
      <trkpt lat="50.093162041157484" lon="8.483571968972683">
        <ele>113.09</ele>
        <time>2019-05-05T06:11:23Z</time>
      </trkpt>
      <trkpt lat="50.095097003504634" lon="8.4836729709059">
        <ele>113.09</ele>
        <time>2019-05-05T06:11:31Z</time>
      </trkpt>
      <trkpt lat="50.096434000879526" lon="8.484471011906862">
        <ele>111.65000000000001</ele>
        <time>2019-05-05T06:11:37Z</time>
      </trkpt>
      <trkpt lat="50.097764041274786" lon="8.486047983169556">
        <ele>111.65000000000001</ele>
        <time>2019-05-05T06:11:44Z</time>
      </trkpt>
      <trkpt lat="50.098884031176567" lon="8.488467000424862">
        <ele>117.42</ele>
        <time>2019-05-05T06:11:52Z</time>
      </trkpt>
      <trkpt lat="50.100556975230575" lon="8.493018038570881">
        <ele>120.78</ele>
        <time>2019-05-05T06:12:06Z</time>
      </trkpt>
      <trkpt lat="50.102356988936663" lon="8.497910974547267">
        <ele>120.3</ele>
        <time>2019-05-05T06:12:21Z</time>
      </trkpt>
      <trkpt lat="50.103546967729926" lon="8.501148987561464">
        <ele>119.81999999999999</ele>
        <time>2019-05-05T06:12:31Z</time>
      </trkpt>
      <trkpt lat="50.105084041133523" lon="8.505388973280788">
        <ele>118.38</ele>
        <time>2019-05-05T06:12:44Z</time>
      </trkpt>
      <trkpt lat="50.106839966028929" lon="8.510272018611431">
        <ele>115.98</ele>
        <time>2019-05-05T06:12:59Z</time>
      </trkpt>
      <trkpt lat="50.108506036922336" lon="8.514805035665631">
        <ele>117.42</ele>
        <time>2019-05-05T06:13:13Z</time>
      </trkpt>
      <trkpt lat="50.110044032335281" lon="8.518988024443388">
        <ele>120.78</ele>
        <time>2019-05-05T06:13:26Z</time>
      </trkpt>
      <trkpt lat="50.111838011071086" lon="8.523869980126619">
        <ele>124.15000000000001</ele>
        <time>2019-05-05T06:13:41Z</time>
      </trkpt>
      <trkpt lat="50.113119017332792" lon="8.52745802141726">
        <ele>120.3</ele>
        <time>2019-05-05T06:13:51Z</time>
      </trkpt>
      <trkpt lat="50.114885000512004" lon="8.532266970723867">
        <ele>120.3</ele>
        <time>2019-05-05T06:14:03Z</time>
      </trkpt>
      <trkpt lat="50.116798002272844" lon="8.537536002695561">
        <ele>119.81999999999999</ele>
        <time>2019-05-05T06:14:16Z</time>
      </trkpt>
      <trkpt lat="50.118557028472424" lon="8.54236900806427">
        <ele>122.22</ele>
        <time>2019-05-05T06:14:28Z</time>
      </trkpt>
      <trkpt lat="50.120595004409552" lon="8.548098960891366">
        <ele>119.81999999999999</ele>
        <time>2019-05-05T06:14:42Z</time>
      </trkpt>
      <trkpt lat="50.122255040332675" lon="8.552523013204336">
        <ele>112.61</ele>
        <time>2019-05-05T06:14:53Z</time>
      </trkpt>
      <trkpt lat="50.124164018779993" lon="8.556963996961713">
        <ele>115.5</ele>
        <time>2019-05-05T06:15:05Z</time>
      </trkpt>
      <trkpt lat="50.125772003084421" lon="8.560627978295088">
        <ele>119.81999999999999</ele>
        <time>2019-05-05T06:15:17Z</time>
      </trkpt>
      <trkpt lat="50.127908969298005" lon="8.565477998927236">
        <ele>124.15000000000001</ele>
        <time>2019-05-05T06:15:32Z</time>
      </trkpt>
      <trkpt lat="50.128751015290618" lon="8.568445025011897">
        <ele>124.15000000000001</ele>
        <time>2019-05-05T06:15:40Z</time>
      </trkpt>
      <trkpt lat="50.129057038575411" lon="8.571190014481545">
        <ele>122.70999999999999</ele>
        <time>2019-05-05T06:15:46Z</time>
      </trkpt>
      <trkpt lat="50.129446964710951" lon="8.574389973655343">
        <ele>119.34</ele>
        <time>2019-05-05T06:15:53Z</time>
      </trkpt>
      <trkpt lat="50.130297979339957" lon="8.577263038605452">
        <ele>119.81999999999999</ele>
        <time>2019-05-05T06:16:00Z</time>
      </trkpt>
      <trkpt lat="50.131294000893831" lon="8.579620029777288">
        <ele>120.3</ele>
        <time>2019-05-05T06:16:07Z</time>
      </trkpt>
      <trkpt lat="50.133326025679708" lon="8.58417802490294">
        <ele>119.81999999999999</ele>
        <time>2019-05-05T06:16:22Z</time>
      </trkpt>
      <trkpt lat="50.134075032547116" lon="8.586355978623033">
        <ele>119.34</ele>
        <time>2019-05-05T06:16:30Z</time>
      </trkpt>
      <trkpt lat="50.13442900031805" lon="8.587591974064708">
        <ele>119.34</ele>
        <time>2019-05-05T06:16:35Z</time>
      </trkpt>
      <trkpt lat="50.134489014744759" lon="8.587851980701089">
        <ele>119.34</ele>
        <time>2019-05-05T06:16:36Z</time>
      </trkpt>
      <trkpt lat="50.134521033614874" lon="8.588118022307754">
        <ele>119.34</ele>
        <time>2019-05-05T06:16:37Z</time>
      </trkpt>
      <trkpt lat="50.134627986699343" lon="8.590495968237519">
        <ele>116.94</ele>
        <time>2019-05-05T06:16:46Z</time>
      </trkpt>
      <trkpt lat="50.134592028334737" lon="8.591708997264504">
        <ele>115.5</ele>
        <time>2019-05-05T06:16:51Z</time>
      </trkpt>
      <trkpt lat="50.13455699197948" lon="8.591894991695881">
        <ele>115.01000000000001</ele>
        <time>2019-05-05T06:16:52Z</time>
      </trkpt>
      <trkpt lat="50.134499995037913" lon="8.592077968642116">
        <ele>115.01000000000001</ele>
        <time>2019-05-05T06:16:53Z</time>
      </trkpt>
      <trkpt lat="50.134446015581489" lon="8.592252982780337">
        <ele>114.53</ele>
        <time>2019-05-05T06:16:54Z</time>
      </trkpt>
      <trkpt lat="50.134392036125064" lon="8.592423973605037">
        <ele>114.53</ele>
        <time>2019-05-05T06:16:55Z</time>
      </trkpt>
      <trkpt lat="50.134307965636253" lon="8.592539979144931">
        <ele>114.05</ele>
        <time>2019-05-05T06:16:56Z</time>
      </trkpt>
      <trkpt lat="50.134220961481333" lon="8.592661013826728">
        <ele>113.56999999999999</ele>
        <time>2019-05-05T06:16:57Z</time>
      </trkpt>
      <trkpt lat="50.134093975648284" lon="8.592683980241418">
        <ele>113.09</ele>
        <time>2019-05-05T06:16:58Z</time>
      </trkpt>
      <trkpt lat="50.133972018957138" lon="8.59270703047514">
        <ele>112.61</ele>
        <time>2019-05-05T06:16:59Z</time>
      </trkpt>
      <trkpt lat="50.133857019245625" lon="8.592703007161617">
        <ele>111.65000000000001</ele>
        <time>2019-05-05T06:17:00Z</time>
      </trkpt>
      <trkpt lat="50.13376297429204" lon="8.5926020052284">
        <ele>111.17</ele>
        <time>2019-05-05T06:17:01Z</time>
      </trkpt>
      <trkpt lat="50.133669013157487" lon="8.592502009123564">
        <ele>110.20999999999999</ele>
        <time>2019-05-05T06:17:02Z</time>
      </trkpt>
      <trkpt lat="50.133571028709412" lon="8.592379968613386">
        <ele>109.73</ele>
        <time>2019-05-05T06:17:03Z</time>
      </trkpt>
      <trkpt lat="50.133527023717761" lon="8.592201014980674">
        <ele>109.25</ele>
        <time>2019-05-05T06:17:04Z</time>
      </trkpt>
      <trkpt lat="50.133490981534123" lon="8.592060031369329">
        <ele>108.77</ele>
        <time>2019-05-05T06:17:05Z</time>
      </trkpt>
      <trkpt lat="50.133536998182535" lon="8.591819973662496">
        <ele>108.29000000000001</ele>
        <time>2019-05-05T06:17:06Z</time>
      </trkpt>
      <trkpt lat="50.133573962375522" lon="8.591627022251487">
        <ele>107.81</ele>
        <time>2019-05-05T06:17:07Z</time>
      </trkpt>
      <trkpt lat="50.133640011772513" lon="8.591451002284885">
        <ele>107.31999999999999</ele>
        <time>2019-05-05T06:17:08Z</time>
      </trkpt>
      <trkpt lat="50.133744031190872" lon="8.591325022280216">
        <ele>106.84</ele>
        <time>2019-05-05T06:17:09Z</time>
      </trkpt>
      <trkpt lat="50.133846960961819" lon="8.591199964284897">
        <ele>106.36</ele>
        <time>2019-05-05T06:17:10Z</time>
      </trkpt>
      <trkpt lat="50.133970007300377" lon="8.591123018413782">
        <ele>106.36</ele>
        <time>2019-05-05T06:17:11Z</time>
      </trkpt>
      <trkpt lat="50.134115014225245" lon="8.591094017028809">
        <ele>106.36</ele>
        <time>2019-05-05T06:17:12Z</time>
      </trkpt>
      <trkpt lat="50.13427703641355" lon="8.591089993715286">
        <ele>105.88</ele>
        <time>2019-05-05T06:17:13Z</time>
      </trkpt>
      <trkpt lat="50.13445196673274" lon="8.591145984828472">
        <ele>106.36</ele>
        <time>2019-05-05T06:17:14Z</time>
      </trkpt>
      <trkpt lat="50.134627986699343" lon="8.591200970113277">
        <ele>106.36</ele>
        <time>2019-05-05T06:17:15Z</time>
      </trkpt>
      <trkpt lat="50.136219961568713" lon="8.591712014749646">
        <ele>109.25</ele>
        <time>2019-05-05T06:17:22Z</time>
      </trkpt>
      <trkpt lat="50.138552980497479" lon="8.593043982982636">
        <ele>111.17</ele>
        <time>2019-05-05T06:17:31Z</time>
      </trkpt>
      <trkpt lat="50.140522979199886" lon="8.594140000641346">
        <ele>113.09</ele>
        <time>2019-05-05T06:17:38Z</time>
      </trkpt>
      <trkpt lat="50.143371988087893" lon="8.59569501131773">
        <ele>113.56999999999999</ele>
        <time>2019-05-05T06:17:48Z</time>
      </trkpt>
      <trkpt lat="50.148745039477944" lon="8.59866002574563">
        <ele>125.11</ele>
        <time>2019-05-05T06:18:06Z</time>
      </trkpt>
      <trkpt lat="50.153257017955184" lon="8.601135034114122">
        <ele>136.16</ele>
        <time>2019-05-05T06:18:21Z</time>
      </trkpt>
      <trkpt lat="50.158088011667132" lon="8.603796036913991">
        <ele>132.31999999999999</ele>
        <time>2019-05-05T06:18:37Z</time>
      </trkpt>
      <trkpt lat="50.16229203902185" lon="8.606123020872474">
        <ele>134.72</ele>
        <time>2019-05-05T06:18:51Z</time>
      </trkpt>
      <trkpt lat="50.166787002235651" lon="8.608598029240966">
        <ele>140.49000000000001</ele>
        <time>2019-05-05T06:19:06Z</time>
      </trkpt>
      <trkpt lat="50.170988012105227" lon="8.610919984057546">
        <ele>148.18000000000001</ele>
        <time>2019-05-05T06:19:20Z</time>
      </trkpt>
      <trkpt lat="50.175491021946073" lon="8.613400021567941">
        <ele>152.03</ele>
        <time>2019-05-05T06:19:35Z</time>
      </trkpt>
      <trkpt lat="50.181219968944788" lon="8.616576008498669">
        <ele>153.94999999999999</ele>
        <time>2019-05-05T06:19:54Z</time>
      </trkpt>
      <trkpt lat="50.184120023623109" lon="8.618575008586049">
        <ele>155.38999999999999</ele>
        <time>2019-05-05T06:20:04Z</time>
      </trkpt>
      <trkpt lat="50.186269981786609" lon="8.620748016983271">
        <ele>155.38999999999999</ele>
        <time>2019-05-05T06:20:12Z</time>
      </trkpt>
      <trkpt lat="50.188457993790507" lon="8.623792994767427">
        <ele>149.13999999999999</ele>
        <time>2019-05-05T06:20:21Z</time>
      </trkpt>
      <trkpt lat="50.190841974690557" lon="8.627889985218644">
        <ele>140.49000000000001</ele>
        <time>2019-05-05T06:20:32Z</time>
      </trkpt>
      <trkpt lat="50.193844959139824" lon="8.633090034127235">
        <ele>149.13999999999999</ele>
        <time>2019-05-05T06:20:46Z</time>
      </trkpt>
      <trkpt lat="50.196222988888621" lon="8.637189958244562">
        <ele>154.91</ele>
        <time>2019-05-05T06:20:57Z</time>
      </trkpt>
      <trkpt lat="50.198636977002025" lon="8.641327014192939">
        <ele>153.94999999999999</ele>
        <time>2019-05-05T06:21:08Z</time>
      </trkpt>
      <trkpt lat="50.201244000345469" lon="8.645809991285205">
        <ele>157.78999999999999</ele>
        <time>2019-05-05T06:21:20Z</time>
      </trkpt>
      <trkpt lat="50.203626975417137" lon="8.64994796924293">
        <ele>154.91</ele>
        <time>2019-05-05T06:21:31Z</time>
      </trkpt>
      <trkpt lat="50.20694000646472" lon="8.655525036156178">
        <ele>140.49000000000001</ele>
        <time>2019-05-05T06:21:46Z</time>
      </trkpt>
      <trkpt lat="50.20917596295476" lon="8.658388964831829">
        <ele>141.93000000000001</ele>
        <time>2019-05-05T06:21:55Z</time>
      </trkpt>
      <trkpt lat="50.211429018527269" lon="8.660434987396002">
        <ele>141.93000000000001</ele>
        <time>2019-05-05T06:22:03Z</time>
      </trkpt>
      <trkpt lat="50.214433008804917" lon="8.662266014143825">
        <ele>136.63999999999999</ele>
        <time>2019-05-05T06:22:13Z</time>
      </trkpt>
      <trkpt lat="50.217584017664194" lon="8.663209984079003">
        <ele>144.34</ele>
        <time>2019-05-05T06:22:23Z</time>
      </trkpt>
      <trkpt lat="50.220501003786922" lon="8.663384998217225">
        <ele>152.03</ele>
        <time>2019-05-05T06:22:32Z</time>
      </trkpt>
      <trkpt lat="50.225380025804043" lon="8.66331098601222">
        <ele>153.94999999999999</ele>
        <time>2019-05-05T06:22:47Z</time>
      </trkpt>
      <trkpt lat="50.230134995654225" lon="8.663242002949119">
        <ele>156.83000000000001</ele>
        <time>2019-05-05T06:23:02Z</time>
      </trkpt>
      <trkpt lat="50.232669012621045" lon="8.663206966593862">
        <ele>160.68000000000001</ele>
        <time>2019-05-05T06:23:12Z</time>
      </trkpt>
      <trkpt lat="50.235532019287348" lon="8.663163967430592">
        <ele>158.75</ele>
        <time>2019-05-05T06:23:23Z</time>
      </trkpt>
      <trkpt lat="50.238974969834089" lon="8.663118034601212">
        <ele>163.56</ele>
        <time>2019-05-05T06:23:37Z</time>
      </trkpt>
      <trkpt lat="50.241416031494737" lon="8.663085009902716">
        <ele>167.41</ele>
        <time>2019-05-05T06:23:46Z</time>
      </trkpt>
      <trkpt lat="50.243997992947698" lon="8.6630529910326">
        <ele>172.21000000000001</ele>
        <time>2019-05-05T06:23:55Z</time>
      </trkpt>
      <trkpt lat="50.248754974454641" lon="8.662992976605892">
        <ele>181.34999999999999</ele>
        <time>2019-05-05T06:24:11Z</time>
      </trkpt>
      <trkpt lat="50.253555960953236" lon="8.6629010271281">
        <ele>183.27000000000001</ele>
        <time>2019-05-05T06:24:27Z</time>
      </trkpt>
      <trkpt lat="50.256536984816194" lon="8.662870014086366">
        <ele>183.27000000000001</ele>
        <time>2019-05-05T06:24:37Z</time>
      </trkpt>
      <trkpt lat="50.25882801041007" lon="8.66283698938787">
        <ele>183.75</ele>
        <time>2019-05-05T06:24:45Z</time>
      </trkpt>
      <trkpt lat="50.260806977748871" lon="8.662802036851645">
        <ele>183.75</ele>
        <time>2019-05-05T06:24:54Z</time>
      </trkpt>
      <trkpt lat="50.264212964102626" lon="8.662894992157817">
        <ele>189.03999999999999</ele>
        <time>2019-05-05T06:25:10Z</time>
      </trkpt>
      <trkpt lat="50.266423020511866" lon="8.663377035409212">
        <ele>190.47999999999999</ele>
        <time>2019-05-05T06:25:21Z</time>
      </trkpt>
      <trkpt lat="50.268455967307091" lon="8.664065022021532">
        <ele>194.31999999999999</ele>
        <time>2019-05-05T06:25:30Z</time>
      </trkpt>
      <trkpt lat="50.270166965201497" lon="8.664648989215493">
        <ele>203.46000000000001</ele>
        <time>2019-05-05T06:25:37Z</time>
      </trkpt>
      <trkpt lat="50.272351959720254" lon="8.665403025224805">
        <ele>212.59</ele>
        <time>2019-05-05T06:25:45Z</time>
      </trkpt>
      <trkpt lat="50.275807986035943" lon="8.666557967662811">
        <ele>226.05000000000001</ele>
        <time>2019-05-05T06:25:57Z</time>
      </trkpt>
      <trkpt lat="50.279895002022386" lon="8.667960008606315">
        <ele>226.05000000000001</ele>
        <time>2019-05-05T06:26:11Z</time>
      </trkpt>
      <trkpt lat="50.282444022595882" lon="8.668824015185237">
        <ele>215.47</ele>
        <time>2019-05-05T06:26:21Z</time>
      </trkpt>
      <trkpt lat="50.285581033676863" lon="8.669910980388522">
        <ele>211.63</ele>
        <time>2019-05-05T06:26:34Z</time>
      </trkpt>
      <trkpt lat="50.28856297954917" lon="8.670924017205834">
        <ele>217.88</ele>
        <time>2019-05-05T06:26:48Z</time>
      </trkpt>
      <trkpt lat="50.292024035006762" lon="8.672099998220801">
        <ele>226.05000000000001</ele>
        <time>2019-05-05T06:27:05Z</time>
      </trkpt>
      <trkpt lat="50.294360993430018" lon="8.672878006473184">
        <ele>229.41</ele>
        <time>2019-05-05T06:27:17Z</time>
      </trkpt>
      <trkpt lat="50.297249983996153" lon="8.673905963078141">
        <ele>242.87</ele>
        <time>2019-05-05T06:27:31Z</time>
      </trkpt>
      <trkpt lat="50.299808979034424" lon="8.674950012937188">
        <ele>252.47999999999999</ele>
        <time>2019-05-05T06:27:43Z</time>
      </trkpt>
      <trkpt lat="50.302106039598584" lon="8.676506029441953">
        <ele>256.32999999999998</ele>
        <time>2019-05-05T06:27:54Z</time>
      </trkpt>
      <trkpt lat="50.304435035213828" lon="8.67873402312398">
        <ele>259.20999999999998</ele>
        <time>2019-05-05T06:28:06Z</time>
      </trkpt>
      <trkpt lat="50.306099010631442" lon="8.680651970207691">
        <ele>258.25</ele>
        <time>2019-05-05T06:28:15Z</time>
      </trkpt>
      <trkpt lat="50.307946968823671" lon="8.682782985270023">
        <ele>251.03999999999999</ele>
        <time>2019-05-05T06:28:25Z</time>
      </trkpt>
      <trkpt lat="50.310318963602185" lon="8.685519006103277">
        <ele>242.87</ele>
        <time>2019-05-05T06:28:38Z</time>
      </trkpt>
      <trkpt lat="50.312507981434464" lon="8.688008012250066">
        <ele>239.99000000000001</ele>
        <time>2019-05-05T06:28:50Z</time>
      </trkpt>
      <trkpt lat="50.314478985965252" lon="8.689816994592547">
        <ele>237.09999999999999</ele>
        <time>2019-05-05T06:29:00Z</time>
      </trkpt>
      <trkpt lat="50.316798007115722" lon="8.691334035247564">
        <ele>231.33000000000001</ele>
        <time>2019-05-05T06:29:11Z</time>
      </trkpt>
      <trkpt lat="50.318760965019464" lon="8.692222014069557">
        <ele>226.05000000000001</ele>
        <time>2019-05-05T06:29:20Z</time>
      </trkpt>
      <trkpt lat="50.320761976763606" lon="8.692761976271868">
        <ele>224.12</ele>
        <time>2019-05-05T06:29:29Z</time>
      </trkpt>
      <trkpt lat="50.323206977918744" lon="8.693348038941622">
        <ele>226.53</ele>
        <time>2019-05-05T06:29:40Z</time>
      </trkpt>
      <trkpt lat="50.325906034559011" lon="8.693987997248769">
        <ele>231.81</ele>
        <time>2019-05-05T06:29:52Z</time>
      </trkpt>
      <trkpt lat="50.328401997685432" lon="8.694579005241394">
        <ele>231.33000000000001</ele>
        <time>2019-05-05T06:30:03Z</time>
      </trkpt>
      <trkpt lat="50.331322001293302" lon="8.695271015167236">
        <ele>227.97</ele>
        <time>2019-05-05T06:30:16Z</time>
      </trkpt>
      <trkpt lat="50.333785023540258" lon="8.695845007896423">
        <ele>227.00999999999999</ele>
        <time>2019-05-05T06:30:27Z</time>
      </trkpt>
      <trkpt lat="50.337156979367137" lon="8.696382958441973">
        <ele>238.06</ele>
        <time>2019-05-05T06:30:42Z</time>
      </trkpt>
      <trkpt lat="50.339854024350643" lon="8.696138961240649">
        <ele>250.56</ele>
        <time>2019-05-05T06:30:54Z</time>
      </trkpt>
      <trkpt lat="50.342308999970555" lon="8.695363970473409">
        <ele>259.69</ele>
        <time>2019-05-05T06:31:05Z</time>
      </trkpt>
      <trkpt lat="50.344991963356733" lon="8.694344982504845">
        <ele>267.38</ele>
        <time>2019-05-05T06:31:17Z</time>
      </trkpt>
      <trkpt lat="50.346560971811414" lon="8.693750035017729">
        <ele>269.31</ele>
        <time>2019-05-05T06:31:24Z</time>
      </trkpt>
      <trkpt lat="50.349034974351525" lon="8.693124996498227">
        <ele>266.89999999999998</ele>
        <time>2019-05-05T06:31:35Z</time>
      </trkpt>
      <trkpt lat="50.351764038205147" lon="8.6930469609797">
        <ele>257.29000000000002</ele>
        <time>2019-05-05T06:31:47Z</time>
      </trkpt>
      <trkpt lat="50.354425041005015" lon="8.69358298368752">
        <ele>254.88999999999999</ele>
        <time>2019-05-05T06:31:59Z</time>
      </trkpt>
      <trkpt lat="50.354613969102502" lon="8.693650038912892">
        <ele>254.41</ele>
        <time>2019-05-05T06:32:00Z</time>
      </trkpt>
      <trkpt lat="50.355201959609985" lon="8.69418203830719">
        <ele>253.44</ele>
        <time>2019-05-05T06:32:05Z</time>
      </trkpt>
      <trkpt lat="50.355286030098796" lon="8.694216990843415">
        <ele>253.44</ele>
        <time>2019-05-05T06:32:06Z</time>
      </trkpt>
      <trkpt lat="50.356022967025638" lon="8.694521002471447">
        <ele>252</ele>
        <time>2019-05-05T06:32:15Z</time>
      </trkpt>
      <trkpt lat="50.356095973402262" lon="8.694555032998323">
        <ele>251.52000000000001</ele>
        <time>2019-05-05T06:32:16Z</time>
      </trkpt>
      <trkpt lat="50.356120029464364" lon="8.694782014936209">
        <ele>251.52000000000001</ele>
        <time>2019-05-05T06:32:17Z</time>
      </trkpt>
      <trkpt lat="50.35621901974082" lon="8.695004973560572">
        <ele>250.56</ele>
        <time>2019-05-05T06:32:19Z</time>
      </trkpt>
      <trkpt lat="50.356297977268696" lon="8.695049984380603">
        <ele>250.08000000000001</ele>
        <time>2019-05-05T06:32:20Z</time>
      </trkpt>
      <trkpt lat="50.356389004737139" lon="8.695102035999298">
        <ele>250.08000000000001</ele>
        <time>2019-05-05T06:32:21Z</time>
      </trkpt>
      <trkpt lat="50.357226021587849" lon="8.695575026795268">
        <ele>244.78999999999999</ele>
        <time>2019-05-05T06:32:30Z</time>
      </trkpt>
      <trkpt lat="50.357536990195513" lon="8.695750962942839">
        <ele>243.34999999999999</ele>
        <time>2019-05-05T06:32:35Z</time>
      </trkpt>
      <trkpt lat="50.357574038207531" lon="8.695772001519799">
        <ele>243.34999999999999</ele>
        <time>2019-05-05T06:32:36Z</time>
      </trkpt>
      <trkpt lat="50.357617037370801" lon="8.69579697959125">
        <ele>242.87</ele>
        <time>2019-05-05T06:32:44Z</time>
      </trkpt>
      <trkpt lat="50.357617037370801" lon="8.69579697959125">
        <ele>243.34999999999999</ele>
        <time>2019-05-05T06:33:36Z</time>
      </trkpt>
      <trkpt lat="50.357693983241916" lon="8.69583997875452">
        <ele>242.87</ele>
        <time>2019-05-05T06:33:56Z</time>
      </trkpt>
      <trkpt lat="50.357791967689991" lon="8.695892030373216">
        <ele>242.38999999999999</ele>
        <time>2019-05-05T06:33:57Z</time>
      </trkpt>
      <trkpt lat="50.35787302069366" lon="8.695854982361198">
        <ele>242.38999999999999</ele>
        <time>2019-05-05T06:33:58Z</time>
      </trkpt>
      <trkpt lat="50.358057003468275" lon="8.69577300734818">
        <ele>241.43000000000001</ele>
        <time>2019-05-05T06:34:00Z</time>
      </trkpt>
      <trkpt lat="50.358152976259589" lon="8.695729002356529">
        <ele>240.94999999999999</ele>
        <time>2019-05-05T06:34:01Z</time>
      </trkpt>
      <trkpt lat="50.358253978192806" lon="8.695721039548516">
        <ele>240.47</ele>
        <time>2019-05-05T06:34:02Z</time>
      </trkpt>
      <trkpt lat="50.358384987339377" lon="8.69579697959125">
        <ele>239.50999999999999</ele>
        <time>2019-05-05T06:34:03Z</time>
      </trkpt>
      <trkpt lat="50.358539968729019" lon="8.695884989574552">
        <ele>239.02000000000001</ele>
        <time>2019-05-05T06:34:04Z</time>
      </trkpt>
      <trkpt lat="50.358711965382099" lon="8.695983979851008">
        <ele>238.53999999999999</ele>
        <time>2019-05-05T06:34:05Z</time>
      </trkpt>
      <trkpt lat="50.36015197634697" lon="8.697035992518067">
        <ele>231.33000000000001</ele>
        <time>2019-05-05T06:34:12Z</time>
      </trkpt>
      <trkpt lat="50.363002996891737" lon="8.699370017275214">
        <ele>215.94999999999999</ele>
        <time>2019-05-05T06:34:25Z</time>
      </trkpt>
      <trkpt lat="50.364717012271285" lon="8.700783038511872">
        <ele>211.15000000000001</ele>
        <time>2019-05-05T06:34:34Z</time>
      </trkpt>
      <trkpt lat="50.368082011118531" lon="8.703499026596546">
        <ele>204.90000000000001</ele>
        <time>2019-05-05T06:34:51Z</time>
      </trkpt>
      <trkpt lat="50.370602030307055" lon="8.70490400120616">
        <ele>200.09</ele>
        <time>2019-05-05T06:35:03Z</time>
      </trkpt>
      <trkpt lat="50.372789958491921" lon="8.705653008073568">
        <ele>190.47999999999999</ele>
        <time>2019-05-05T06:35:13Z</time>
      </trkpt>
      <trkpt lat="50.375463031232357" lon="8.705951990559697">
        <ele>175.09999999999999</ele>
        <time>2019-05-05T06:35:25Z</time>
      </trkpt>
      <trkpt lat="50.37744996137917" lon="8.705801032483578">
        <ele>164.52000000000001</ele>
        <time>2019-05-05T06:35:34Z</time>
      </trkpt>
      <trkpt lat="50.380067965015769" lon="8.705350002273917">
        <ele>160.68000000000001</ele>
        <time>2019-05-05T06:35:46Z</time>
      </trkpt>
      <trkpt lat="50.38378500379622" lon="8.704707026481628">
        <ele>169.81</ele>
        <time>2019-05-05T06:36:03Z</time>
      </trkpt>
      <trkpt lat="50.386168984696269" lon="8.704276029020548">
        <ele>176.06</ele>
        <time>2019-05-05T06:36:13Z</time>
      </trkpt>
      <trkpt lat="50.388543996959925" lon="8.703861963003874">
        <ele>180.38</ele>
        <time>2019-05-05T06:36:21Z</time>
      </trkpt>
      <trkpt lat="50.392425991594791" lon="8.70318696834147">
        <ele>186.15000000000001</ele>
        <time>2019-05-05T06:36:33Z</time>
      </trkpt>
      <trkpt lat="50.397539036348462" lon="8.702296977862716">
        <ele>191.44</ele>
        <time>2019-05-05T06:36:48Z</time>
      </trkpt>
      <trkpt lat="50.403349036350846" lon="8.701289976015687">
        <ele>176.06</ele>
        <time>2019-05-05T06:37:05Z</time>
      </trkpt>
      <trkpt lat="50.408459985628724" lon="8.700394034385681">
        <ele>168.84999999999999</ele>
        <time>2019-05-05T06:37:20Z</time>
      </trkpt>
      <trkpt lat="50.410285983234644" lon="8.700075019150972">
        <ele>165.96000000000001</ele>
        <time>2019-05-05T06:37:26Z</time>
      </trkpt>
      <trkpt lat="50.412601986899972" lon="8.699672017246485">
        <ele>161.63999999999999</ele>
        <time>2019-05-05T06:37:34Z</time>
      </trkpt>
      <trkpt lat="50.417986018583179" lon="8.698735004290938">
        <ele>165.47999999999999</ele>
        <time>2019-05-05T06:37:50Z</time>
      </trkpt>
      <trkpt lat="50.421387981623411" lon="8.698143996298313">
        <ele>169.33000000000001</ele>
        <time>2019-05-05T06:38:00Z</time>
      </trkpt>
      <trkpt lat="50.426848959177732" lon="8.697193991392851">
        <ele>173.16999999999999</ele>
        <time>2019-05-05T06:38:16Z</time>
      </trkpt>
      <trkpt lat="50.43098802678287" lon="8.696472980082035">
        <ele>164.03999999999999</ele>
        <time>2019-05-05T06:38:28Z</time>
      </trkpt>
      <trkpt lat="50.435108989477158" lon="8.695747023448348">
        <ele>167.88999999999999</ele>
        <time>2019-05-05T06:38:40Z</time>
      </trkpt>
      <trkpt lat="50.440654959529638" lon="8.694775979965925">
        <ele>168.37</ele>
        <time>2019-05-05T06:38:56Z</time>
      </trkpt>
      <trkpt lat="50.443070037290454" lon="8.694817973300815">
        <ele>171.25</ele>
        <time>2019-05-05T06:39:03Z</time>
      </trkpt>
      <trkpt lat="50.445080017670989" lon="8.695614002645016">
        <ele>175.09999999999999</ele>
        <time>2019-05-05T06:39:09Z</time>
      </trkpt>
      <trkpt lat="50.446919007226825" lon="8.697143029421568">
        <ele>176.06</ele>
        <time>2019-05-05T06:39:15Z</time>
      </trkpt>
      <trkpt lat="50.448482986539602" lon="8.699285024777055">
        <ele>174.13999999999999</ele>
        <time>2019-05-05T06:39:21Z</time>
      </trkpt>
      <trkpt lat="50.449930960312486" lon="8.702338971197605">
        <ele>171.72999999999999</ele>
        <time>2019-05-05T06:39:28Z</time>
      </trkpt>
      <trkpt lat="50.452868985012174" lon="8.709067963063717">
        <ele>181.34999999999999</ele>
        <time>2019-05-05T06:39:43Z</time>
      </trkpt>
      <trkpt lat="50.454819034785032" lon="8.712964039295912">
        <ele>176.53999999999999</ele>
        <time>2019-05-05T06:39:52Z</time>
      </trkpt>
      <trkpt lat="50.456851981580257" lon="8.715926958248019">
        <ele>166.93000000000001</ele>
        <time>2019-05-05T06:40:00Z</time>
      </trkpt>
      <trkpt lat="50.459107970818877" lon="8.718357961624861">
        <ele>171.72999999999999</ele>
        <time>2019-05-05T06:40:08Z</time>
      </trkpt>
      <trkpt lat="50.461189029738307" lon="8.719963012263179">
        <ele>181.34999999999999</ele>
        <time>2019-05-05T06:40:15Z</time>
      </trkpt>
      <trkpt lat="50.463293977081776" lon="8.721104962751269">
        <ele>185.66999999999999</ele>
        <time>2019-05-05T06:40:22Z</time>
      </trkpt>
      <trkpt lat="50.466197971254587" lon="8.722643963992596">
        <ele>187.11000000000001</ele>
        <time>2019-05-05T06:40:31Z</time>
      </trkpt>
      <trkpt lat="50.47013302333653" lon="8.724699039012194">
        <ele>205.86000000000001</ele>
        <time>2019-05-05T06:40:43Z</time>
      </trkpt>
      <trkpt lat="50.474429000169039" lon="8.726962991058826">
        <ele>211.15000000000001</ele>
        <time>2019-05-05T06:40:56Z</time>
      </trkpt>
      <trkpt lat="50.480032972991467" lon="8.72993404045701">
        <ele>215.94999999999999</ele>
        <time>2019-05-05T06:41:13Z</time>
      </trkpt>
      <trkpt lat="50.484990030527115" lon="8.732545003294945">
        <ele>219.31999999999999</ele>
        <time>2019-05-05T06:41:28Z</time>
      </trkpt>
      <trkpt lat="50.491265980526805" lon="8.73584202490747">
        <ele>230.37</ele>
        <time>2019-05-05T06:41:47Z</time>
      </trkpt>
      <trkpt lat="50.496255978941917" lon="8.738488024100661">
        <ele>221.72</ele>
        <time>2019-05-05T06:42:02Z</time>
      </trkpt>
      <trkpt lat="50.501183029264212" lon="8.741080965846777">
        <ele>195.77000000000001</ele>
        <time>2019-05-05T06:42:17Z</time>
      </trkpt>
      <trkpt lat="50.505398958921432" lon="8.743542982265353">
        <ele>199.13</ele>
        <time>2019-05-05T06:42:30Z</time>
      </trkpt>
      <trkpt lat="50.509813958778977" lon="8.746749982237816">
        <ele>212.11000000000001</ele>
        <time>2019-05-05T06:42:44Z</time>
      </trkpt>
      <trkpt lat="50.512527013197541" lon="8.749213004484773">
        <ele>223.16</ele>
        <time>2019-05-05T06:42:53Z</time>
      </trkpt>
      <trkpt lat="50.515824034810066" lon="8.752349009737372">
        <ele>224.61000000000001</ele>
        <time>2019-05-05T06:43:04Z</time>
      </trkpt>
      <trkpt lat="50.519746011123061" lon="8.755836971104145">
        <ele>233.25999999999999</ele>
        <time>2019-05-05T06:43:17Z</time>
      </trkpt>
      <trkpt lat="50.522430986166" lon="8.75844600610435">
        <ele>232.78</ele>
        <time>2019-05-05T06:43:26Z</time>
      </trkpt>
      <trkpt lat="50.525892963632941" lon="8.762090038508177">
        <ele>231.81</ele>
        <time>2019-05-05T06:43:38Z</time>
      </trkpt>
      <trkpt lat="50.530218025669456" lon="8.766652978956699">
        <ele>237.09999999999999</ele>
        <time>2019-05-05T06:43:53Z</time>
      </trkpt>
      <trkpt lat="50.532824965193868" lon="8.769410960376263">
        <ele>240.94999999999999</ele>
        <time>2019-05-05T06:44:02Z</time>
      </trkpt>
      <trkpt lat="50.534852966666222" lon="8.771495958790183">
        <ele>243.83000000000001</ele>
        <time>2019-05-05T06:44:09Z</time>
      </trkpt>
      <trkpt lat="50.539179034531116" lon="8.776118997484446">
        <ele>251.52000000000001</ele>
        <time>2019-05-05T06:44:24Z</time>
      </trkpt>
      <trkpt lat="50.543231014162302" lon="8.7804039940238">
        <ele>244.78999999999999</ele>
        <time>2019-05-05T06:44:38Z</time>
      </trkpt>
      <trkpt lat="50.546258976683021" lon="8.783084023743868">
        <ele>230.84999999999999</ele>
        <time>2019-05-05T06:44:48Z</time>
      </trkpt>
      <trkpt lat="50.550976982340217" lon="8.786453967913985">
        <ele>234.22</ele>
        <time>2019-05-05T06:45:03Z</time>
      </trkpt>
      <trkpt lat="50.556809026747942" lon="8.790047038346529">
        <ele>232.78</ele>
        <time>2019-05-05T06:45:21Z</time>
      </trkpt>
      <trkpt lat="50.562653979286551" lon="8.793609011918306">
        <ele>239.50999999999999</ele>
        <time>2019-05-05T06:45:39Z</time>
      </trkpt>
      <trkpt lat="50.567110972478986" lon="8.796658013015986">
        <ele>252.47999999999999</ele>
        <time>2019-05-05T06:45:53Z</time>
      </trkpt>
      <trkpt lat="50.570847960188985" lon="8.799713971093297">
        <ele>256.32999999999998</ele>
        <time>2019-05-05T06:46:05Z</time>
      </trkpt>
      <trkpt lat="50.573749020695686" lon="8.801627978682518">
        <ele>243.83000000000001</ele>
        <time>2019-05-05T06:46:14Z</time>
      </trkpt>
      <trkpt lat="50.57708702981472" lon="8.802945027127862">
        <ele>239.99000000000001</ele>
        <time>2019-05-05T06:46:24Z</time>
      </trkpt>
      <trkpt lat="50.580090014263988" lon="8.804300967603922">
        <ele>238.06</ele>
        <time>2019-05-05T06:46:33Z</time>
      </trkpt>
      <trkpt lat="50.582578014582396" lon="8.806316982954741">
        <ele>231.33000000000001</ele>
        <time>2019-05-05T06:46:41Z</time>
      </trkpt>
      <trkpt lat="50.586334029212594" lon="8.809123998507857">
        <ele>217.88</ele>
        <time>2019-05-05T06:46:53Z</time>
      </trkpt>
      <trkpt lat="50.589988036081195" lon="8.810972962528467">
        <ele>214.03</ele>
        <time>2019-05-05T06:47:04Z</time>
      </trkpt>
      <trkpt lat="50.596282007172704" lon="8.814035039395094">
        <ele>221.24000000000001</ele>
        <time>2019-05-05T06:47:23Z</time>
      </trkpt>
      <trkpt lat="50.599827971309423" lon="8.816166976466775">
        <ele>235.66</ele>
        <time>2019-05-05T06:47:34Z</time>
      </trkpt>
      <trkpt lat="50.60317100957036" lon="8.819092009216547">
        <ele>253.93000000000001</ele>
        <time>2019-05-05T06:47:45Z</time>
      </trkpt>
      <trkpt lat="50.608258992433548" lon="8.823827030137181">
        <ele>271.23000000000002</ele>
        <time>2019-05-05T06:48:02Z</time>
      </trkpt>
      <trkpt lat="50.609822971746325" lon="8.825987968593836">
        <ele>274.58999999999997</ele>
        <time>2019-05-05T06:48:08Z</time>
      </trkpt>
      <trkpt lat="50.611031977459788" lon="8.828651988878846">
        <ele>280.36000000000001</ele>
        <time>2019-05-05T06:48:14Z</time>
      </trkpt>
      <trkpt lat="50.611815014854074" lon="8.831728985533118">
        <ele>282.76999999999998</ele>
        <time>2019-05-05T06:48:20Z</time>
      </trkpt>
      <trkpt lat="50.612077033147216" lon="8.834980996325612">
        <ele>280.83999999999997</ele>
        <time>2019-05-05T06:48:26Z</time>
      </trkpt>
      <trkpt lat="50.612082984298468" lon="8.840447003021836">
        <ele>280.36000000000001</ele>
        <time>2019-05-05T06:48:36Z</time>
      </trkpt>
      <trkpt lat="50.612076027318835" lon="8.846976002678275">
        <ele>285.17000000000002</ele>
        <time>2019-05-05T06:48:48Z</time>
      </trkpt>
      <trkpt lat="50.612063035368919" lon="8.854136997833848">
        <ele>289.00999999999999</ele>
        <time>2019-05-05T06:49:01Z</time>
      </trkpt>
      <trkpt lat="50.61204400844872" lon="8.860122011974454">
        <ele>286.13</ele>
        <time>2019-05-05T06:49:12Z</time>
      </trkpt>
      <trkpt lat="50.612255986779928" lon="8.864415977150202">
        <ele>299.11000000000001</ele>
        <time>2019-05-05T06:49:20Z</time>
      </trkpt>
      <trkpt lat="50.613005999475718" lon="8.868657974526286">
        <ele>307.75999999999999</ele>
        <time>2019-05-05T06:49:28Z</time>
      </trkpt>
      <trkpt lat="50.614067986607552" lon="8.872094973921776">
        <ele>312.08999999999997</ele>
        <time>2019-05-05T06:49:35Z</time>
      </trkpt>
      <trkpt lat="50.616016024723649" lon="8.87725898064673">
        <ele>326.5</ele>
        <time>2019-05-05T06:49:46Z</time>
      </trkpt>
      <trkpt lat="50.618333034217358" lon="8.883477011695504">
        <ele>336.60000000000002</ele>
        <time>2019-05-05T06:49:59Z</time>
      </trkpt>
      <trkpt lat="50.620099017396569" lon="8.888232987374067">
        <ele>333.23000000000002</ele>
        <time>2019-05-05T06:50:09Z</time>
      </trkpt>
      <trkpt lat="50.621633995324373" lon="8.8924690335989">
        <ele>331.31</ele>
        <time>2019-05-05T06:50:18Z</time>
      </trkpt>
      <trkpt lat="50.623960979282856" lon="8.898623026907444">
        <ele>320.25999999999999</ele>
        <time>2019-05-05T06:50:31Z</time>
      </trkpt>
      <trkpt lat="50.625803992152214" lon="8.903874037787318">
        <ele>301.02999999999997</ele>
        <time>2019-05-05T06:50:42Z</time>
      </trkpt>
      <trkpt lat="50.627820007503033" lon="8.910159962251782">
        <ele>305.36000000000001</ele>
        <time>2019-05-05T06:50:55Z</time>
      </trkpt>
      <trkpt lat="50.629709959030151" lon="8.91599602997303">
        <ele>309.68000000000001</ele>
        <time>2019-05-05T06:51:07Z</time>
      </trkpt>
      <trkpt lat="50.631450964137912" lon="8.921438986435533">
        <ele>306.31999999999999</ele>
        <time>2019-05-05T06:51:18Z</time>
      </trkpt>
      <trkpt lat="50.633032964542508" lon="8.926341980695725">
        <ele>289.00999999999999</ele>
        <time>2019-05-05T06:51:28Z</time>
      </trkpt>
      <trkpt lat="50.635050991550088" lon="8.932656990364194">
        <ele>278.92000000000002</ele>
        <time>2019-05-05T06:51:41Z</time>
      </trkpt>
      <trkpt lat="50.637083016335964" lon="8.939022039994597">
        <ele>270.75</ele>
        <time>2019-05-05T06:51:54Z</time>
      </trkpt>
      <trkpt lat="50.638396963477135" lon="8.943980019539595">
        <ele>281.80000000000001</ele>
        <time>2019-05-05T06:52:04Z</time>
      </trkpt>
      <trkpt lat="50.638991994783282" lon="8.948194021359086">
        <ele>296.69999999999999</ele>
        <time>2019-05-05T06:52:12Z</time>
      </trkpt>
      <trkpt lat="50.639398014172912" lon="8.954785969108343">
        <ele>310.63999999999999</ele>
        <time>2019-05-05T06:52:24Z</time>
      </trkpt>
      <trkpt lat="50.639742007479072" lon="8.960830997675657">
        <ele>308.72000000000003</ele>
        <time>2019-05-05T06:52:35Z</time>
      </trkpt>
      <trkpt lat="50.640080971643329" lon="8.966297004371882">
        <ele>308.24000000000001</ele>
        <time>2019-05-05T06:52:45Z</time>
      </trkpt>
      <trkpt lat="50.64061900600791" lon="8.971168985590339">
        <ele>296.22000000000003</ele>
        <time>2019-05-05T06:52:54Z</time>
      </trkpt>
      <trkpt lat="50.641834968701005" lon="8.979649962857366">
        <ele>284.20999999999998</ele>
        <time>2019-05-05T06:53:10Z</time>
      </trkpt>
      <trkpt lat="50.642911037430167" lon="8.986495966091752">
        <ele>304.88</ele>
        <time>2019-05-05T06:53:23Z</time>
      </trkpt>
      <trkpt lat="50.644378960132599" lon="8.993791993707418">
        <ele>326.01999999999998</ele>
        <time>2019-05-05T06:53:37Z</time>
      </trkpt>
      <trkpt lat="50.645379004999995" lon="8.996666986495256">
        <ele>332.75</ele>
        <time>2019-05-05T06:53:43Z</time>
      </trkpt>
      <trkpt lat="50.646984977647662" lon="8.999579027295113">
        <ele>333.70999999999998</ele>
        <time>2019-05-05T06:53:50Z</time>
      </trkpt>
      <trkpt lat="50.649661989882588" lon="9.003970976918936">
        <ele>323.13999999999999</ele>
        <time>2019-05-05T06:54:01Z</time>
      </trkpt>
      <trkpt lat="50.652060974389315" lon="9.007877027615905">
        <ele>317.85000000000002</ele>
        <time>2019-05-05T06:54:11Z</time>
      </trkpt>
      <trkpt lat="50.655438965186477" lon="9.013401959091425">
        <ele>304.88</ele>
        <time>2019-05-05T06:54:25Z</time>
      </trkpt>
      <trkpt lat="50.657607028260827" lon="9.016123982146382">
        <ele>295.25999999999999</ele>
        <time>2019-05-05T06:54:33Z</time>
      </trkpt>
      <trkpt lat="50.660336008295417" lon="9.018564037978649">
        <ele>284.69</ele>
        <time>2019-05-05T06:54:42Z</time>
      </trkpt>
      <trkpt lat="50.663299011066556" lon="9.020226001739502">
        <ele>267.86000000000001</ele>
        <time>2019-05-05T06:54:51Z</time>
      </trkpt>
      <trkpt lat="50.667914003133774" lon="9.022583998739719">
        <ele>255.37</ele>
        <time>2019-05-05T06:55:05Z</time>
      </trkpt>
      <trkpt lat="50.671151010319591" lon="9.024587022140622">
        <ele>252.47999999999999</ele>
        <time>2019-05-05T06:55:15Z</time>
      </trkpt>
      <trkpt lat="50.675893994048238" lon="9.027972975745797">
        <ele>264.98000000000002</ele>
        <time>2019-05-05T06:55:30Z</time>
      </trkpt>
      <trkpt lat="50.680320980027318" lon="9.031290030106902">
        <ele>252</ele>
        <time>2019-05-05T06:55:44Z</time>
      </trkpt>
      <trkpt lat="50.682233981788158" lon="9.033604022115469">
        <ele>246.72</ele>
        <time>2019-05-05T06:55:51Z</time>
      </trkpt>
      <trkpt lat="50.685224980115891" lon="9.037308990955353">
        <ele>243.83000000000001</ele>
        <time>2019-05-05T06:56:02Z</time>
      </trkpt>
      <trkpt lat="50.68683598190546" lon="9.03829000890255">
        <ele>241.91</ele>
        <time>2019-05-05T06:56:07Z</time>
      </trkpt>
      <trkpt lat="50.691246958449483" lon="9.039953984320164">
        <ele>228.93000000000001</ele>
        <time>2019-05-05T06:56:20Z</time>
      </trkpt>
      <trkpt lat="50.694224964827299" lon="9.041418973356485">
        <ele>229.88999999999999</ele>
        <time>2019-05-05T06:56:29Z</time>
      </trkpt>
      <trkpt lat="50.697670010849833" lon="9.044085005298257">
        <ele>230.37</ele>
        <time>2019-05-05T06:56:40Z</time>
      </trkpt>
      <trkpt lat="50.700363032519817" lon="9.0465849917382">
        <ele>226.05000000000001</ele>
        <time>2019-05-05T06:56:49Z</time>
      </trkpt>
      <trkpt lat="50.702723963186145" lon="9.049783023074269">
        <ele>225.56999999999999</ele>
        <time>2019-05-05T06:56:58Z</time>
      </trkpt>
      <trkpt lat="50.704705026000738" lon="9.053560998290777">
        <ele>230.37</ele>
        <time>2019-05-05T06:57:07Z</time>
      </trkpt>
      <trkpt lat="50.706736966967583" lon="9.058604976162314">
        <ele>244.78999999999999</ele>
        <time>2019-05-05T06:57:18Z</time>
      </trkpt>
      <trkpt lat="50.708853984251618" lon="9.063624981790781">
        <ele>263.54000000000002</ele>
        <time>2019-05-05T06:57:29Z</time>
      </trkpt>
      <trkpt lat="50.710704037919641" lon="9.06686601229012">
        <ele>272.19</ele>
        <time>2019-05-05T06:57:37Z</time>
      </trkpt>
      <trkpt lat="50.714127039536834" lon="9.072333024814725">
        <ele>290.94</ele>
        <time>2019-05-05T06:57:51Z</time>
      </trkpt>
      <trkpt lat="50.715401004999876" lon="9.074940970167518">
        <ele>293.33999999999997</ele>
        <time>2019-05-05T06:57:57Z</time>
      </trkpt>
      <trkpt lat="50.716437008231878" lon="9.078364977613092">
        <ele>297.67000000000002</ele>
        <time>2019-05-05T06:58:04Z</time>
      </trkpt>
      <trkpt lat="50.716995997354388" lon="9.082095008343458">
        <ele>299.58999999999997</ele>
        <time>2019-05-05T06:58:11Z</time>
      </trkpt>
      <trkpt lat="50.717031033709645" lon="9.085391024127603">
        <ele>301.99000000000001</ele>
        <time>2019-05-05T06:58:17Z</time>
      </trkpt>
      <trkpt lat="50.716466009616852" lon="9.089657999575138">
        <ele>309.68000000000001</ele>
        <time>2019-05-05T06:58:25Z</time>
      </trkpt>
      <trkpt lat="50.715809036046267" lon="9.094498967751861">
        <ele>319.30000000000001</ele>
        <time>2019-05-05T06:58:34Z</time>
      </trkpt>
      <trkpt lat="50.714832963421941" lon="9.101454019546509">
        <ele>326.99000000000001</ele>
        <time>2019-05-05T06:58:47Z</time>
      </trkpt>
      <trkpt lat="50.714501040056348" lon="9.105770029127598">
        <ele>337.56</ele>
        <time>2019-05-05T06:58:55Z</time>
      </trkpt>
      <trkpt lat="50.714739002287388" lon="9.109629979357123">
        <ele>338.51999999999998</ele>
        <time>2019-05-05T06:59:02Z</time>
      </trkpt>
      <trkpt lat="50.715484991669655" lon="9.116179011762142">
        <ele>319.77999999999997</ele>
        <time>2019-05-05T06:59:14Z</time>
      </trkpt>
      <trkpt lat="50.715509969741106" lon="9.121069014072418">
        <ele>308.72000000000003</ele>
        <time>2019-05-05T06:59:23Z</time>
      </trkpt>
      <trkpt lat="50.715276030823588" lon="9.128625970333815">
        <ele>321.69999999999999</ele>
        <time>2019-05-05T06:59:37Z</time>
      </trkpt>
      <trkpt lat="50.715003032237291" lon="9.135793000459671">
        <ele>330.35000000000002</ele>
        <time>2019-05-05T06:59:50Z</time>
      </trkpt>
      <trkpt lat="50.714556025341153" lon="9.139516996219754">
        <ele>335.16000000000003</ele>
        <time>2019-05-05T06:59:57Z</time>
      </trkpt>
      <trkpt lat="50.713448021560907" lon="9.144117990508676">
        <ele>347.64999999999998</ele>
        <time>2019-05-05T07:00:06Z</time>
      </trkpt>
      <trkpt lat="50.712171038612723" lon="9.149237992241979">
        <ele>354.86000000000001</ele>
        <time>2019-05-05T07:00:16Z</time>
      </trkpt>
      <trkpt lat="50.711533008143306" lon="9.15351502597332">
        <ele>355.82999999999998</ele>
        <time>2019-05-05T07:00:24Z</time>
      </trkpt>
      <trkpt lat="50.711357994005084" lon="9.157926002517343">
        <ele>347.64999999999998</ele>
        <time>2019-05-05T07:00:32Z</time>
      </trkpt>
      <trkpt lat="50.711596962064505" lon="9.162820028141141">
        <ele>340.44</ele>
        <time>2019-05-05T07:00:41Z</time>
      </trkpt>
      <trkpt lat="50.712098032236099" lon="9.169869041070342">
        <ele>340.44</ele>
        <time>2019-05-05T07:00:54Z</time>
      </trkpt>
      <trkpt lat="50.712430961430073" lon="9.176994999870658">
        <ele>341.41000000000003</ele>
        <time>2019-05-05T07:01:07Z</time>
      </trkpt>
      <trkpt lat="50.712086968123913" lon="9.180246004834771">
        <ele>338.51999999999998</ele>
        <time>2019-05-05T07:01:13Z</time>
      </trkpt>
      <trkpt lat="50.711561003699899" lon="9.185159979388118">
        <ele>326.01999999999998</ele>
        <time>2019-05-05T07:01:22Z</time>
      </trkpt>
      <trkpt lat="50.711793014779687" lon="9.188357004895806">
        <ele>319.77999999999997</ele>
        <time>2019-05-05T07:01:28Z</time>
      </trkpt>
      <trkpt lat="50.712517965584993" lon="9.191363006830216">
        <ele>321.22000000000003</ele>
        <time>2019-05-05T07:01:34Z</time>
      </trkpt>
      <trkpt lat="50.713714985176921" lon="9.194019986316562">
        <ele>325.54000000000002</ele>
        <time>2019-05-05T07:01:40Z</time>
      </trkpt>
      <trkpt lat="50.716568017378449" lon="9.198855003342032">
        <ele>332.75</ele>
        <time>2019-05-05T07:01:52Z</time>
      </trkpt>
      <trkpt lat="50.720154969021678" lon="9.204896008595824">
        <ele>317.37</ele>
        <time>2019-05-05T07:02:07Z</time>
      </trkpt>
      <trkpt lat="50.722869029268622" lon="9.209877038374543">
        <ele>314.00999999999999</ele>
        <time>2019-05-05T07:02:19Z</time>
      </trkpt>
      <trkpt lat="50.724102007225156" lon="9.213207000866532">
        <ele>311.60000000000002</ele>
        <time>2019-05-05T07:02:26Z</time>
      </trkpt>
      <trkpt lat="50.726364031434059" lon="9.219924006611109">
        <ele>318.81</ele>
        <time>2019-05-05T07:02:40Z</time>
      </trkpt>
      <trkpt lat="50.728339981287718" lon="9.22577097080648">
        <ele>335.16000000000003</ele>
        <time>2019-05-05T07:02:52Z</time>
      </trkpt>
      <trkpt lat="50.729903960600495" lon="9.229439981281757">
        <ele>333.23000000000002</ele>
        <time>2019-05-05T07:03:00Z</time>
      </trkpt>
      <trkpt lat="50.731949983164668" lon="9.23311997205019">
        <ele>335.16000000000003</ele>
        <time>2019-05-05T07:03:09Z</time>
      </trkpt>
      <trkpt lat="50.733830966055393" lon="9.23707103356719">
        <ele>340.44</ele>
        <time>2019-05-05T07:03:18Z</time>
      </trkpt>
      <trkpt lat="50.735106021165848" lon="9.240989992395043">
        <ele>339.95999999999998</ele>
        <time>2019-05-05T07:03:26Z</time>
      </trkpt>
      <trkpt lat="50.73579995892942" lon="9.244133038446307">
        <ele>335.63999999999999</ele>
        <time>2019-05-05T07:03:32Z</time>
      </trkpt>
      <trkpt lat="50.736588025465608" lon="9.249514974653721">
        <ele>314.49000000000001</ele>
        <time>2019-05-05T07:03:42Z</time>
      </trkpt>
      <trkpt lat="50.737578012049198" lon="9.256368018686771">
        <ele>295.25999999999999</ele>
        <time>2019-05-05T07:03:55Z</time>
      </trkpt>
      <trkpt lat="50.738619966432452" lon="9.261505035683513">
        <ele>292.38</ele>
        <time>2019-05-05T07:04:06Z</time>
      </trkpt>
      <trkpt lat="50.739861996844411" lon="9.266504002735019">
        <ele>289.49000000000001</ele>
        <time>2019-05-05T07:04:17Z</time>
      </trkpt>
      <trkpt lat="50.741323968395591" lon="9.271927010267973">
        <ele>270.75</ele>
        <time>2019-05-05T07:04:29Z</time>
      </trkpt>
      <trkpt lat="50.742455022409558" lon="9.276892030611634">
        <ele>254.41</ele>
        <time>2019-05-05T07:04:40Z</time>
      </trkpt>
      <trkpt lat="50.74278200045228" lon="9.280003979802132">
        <ele>256.32999999999998</ele>
        <time>2019-05-05T07:04:46Z</time>
      </trkpt>
      <trkpt lat="50.742846038192511" lon="9.283800981938839">
        <ele>265.45999999999998</ele>
        <time>2019-05-05T07:04:53Z</time>
      </trkpt>
      <trkpt lat="50.743114007636905" lon="9.289263971149921">
        <ele>273.63</ele>
        <time>2019-05-05T07:05:03Z</time>
      </trkpt>
      <trkpt lat="50.743867959827185" lon="9.292368963360786">
        <ele>270.26999999999998</ele>
        <time>2019-05-05T07:05:09Z</time>
      </trkpt>
      <trkpt lat="50.745122982189059" lon="9.295008005574346">
        <ele>263.06</ele>
        <time>2019-05-05T07:05:15Z</time>
      </trkpt>
      <trkpt lat="50.746718980371952" lon="9.297053022310138">
        <ele>263.06</ele>
        <time>2019-05-05T07:05:21Z</time>
      </trkpt>
      <trkpt lat="50.749433962628245" lon="9.2994449660182">
        <ele>270.26999999999998</ele>
        <time>2019-05-05T07:05:30Z</time>
      </trkpt>
      <trkpt lat="50.751411002129316" lon="9.301216984167695">
        <ele>277.95999999999998</ele>
        <time>2019-05-05T07:05:37Z</time>
      </trkpt>
      <trkpt lat="50.752864005044103" lon="9.303001994267106">
        <ele>279.39999999999998</ele>
        <time>2019-05-05T07:05:44Z</time>
      </trkpt>
      <trkpt lat="50.754152974113822" lon="9.305138038471341">
        <ele>275.56</ele>
        <time>2019-05-05T07:05:50Z</time>
      </trkpt>
      <trkpt lat="50.755325015634298" lon="9.307868024334312">
        <ele>270.26999999999998</ele>
        <time>2019-05-05T07:05:56Z</time>
      </trkpt>
      <trkpt lat="50.756345009431243" lon="9.311945987865329">
        <ele>264.98000000000002</ele>
        <time>2019-05-05T07:06:04Z</time>
      </trkpt>
      <trkpt lat="50.756697971373796" lon="9.315721029415727">
        <ele>262.57999999999998</ele>
        <time>2019-05-05T07:06:11Z</time>
      </trkpt>
      <trkpt lat="50.756591018289328" lon="9.319501016288996">
        <ele>267.38</ele>
        <time>2019-05-05T07:06:18Z</time>
      </trkpt>
      <trkpt lat="50.755990035831928" lon="9.323204979300499">
        <ele>278.92000000000002</ele>
        <time>2019-05-05T07:06:25Z</time>
      </trkpt>
      <trkpt lat="50.75511203147471" lon="9.327928014099598">
        <ele>300.06999999999999</ele>
        <time>2019-05-05T07:06:34Z</time>
      </trkpt>
      <trkpt lat="50.75429798103869" lon="9.333293018862605">
        <ele>314.49000000000001</ele>
        <time>2019-05-05T07:06:44Z</time>
      </trkpt>
      <trkpt lat="50.754332011565566" lon="9.336590962484479">
        <ele>316.88999999999999</ele>
        <time>2019-05-05T07:06:50Z</time>
      </trkpt>
      <trkpt lat="50.754795027896762" lon="9.339828975498676">
        <ele>316.88999999999999</ele>
        <time>2019-05-05T07:06:56Z</time>
      </trkpt>
      <trkpt lat="50.755874030292034" lon="9.344663992524147">
        <ele>320.25999999999999</ele>
        <time>2019-05-05T07:07:05Z</time>
      </trkpt>
      <trkpt lat="50.757125029340386" lon="9.350151037797332">
        <ele>336.60000000000002</ele>
        <time>2019-05-05T07:07:15Z</time>
      </trkpt>
      <trkpt lat="50.758430007845163" lon="9.355789963155985">
        <ele>343.81</ele>
        <time>2019-05-05T07:07:25Z</time>
      </trkpt>
      <trkpt lat="50.759528037160635" lon="9.359480012208223">
        <ele>337.56</ele>
        <time>2019-05-05T07:07:32Z</time>
      </trkpt>
      <trkpt lat="50.760568985715508" lon="9.363474994897842">
        <ele>341.41000000000003</ele>
        <time>2019-05-05T07:07:40Z</time>
      </trkpt>
      <trkpt lat="50.761450007557869" lon="9.367677010595799">
        <ele>342.85000000000002</ele>
        <time>2019-05-05T07:07:48Z</time>
      </trkpt>
      <trkpt lat="50.762563040480018" lon="9.370472962036729">
        <ele>336.60000000000002</ele>
        <time>2019-05-05T07:07:54Z</time>
      </trkpt>
      <trkpt lat="50.764042027294636" lon="9.372767005115748">
        <ele>334.19999999999999</ele>
        <time>2019-05-05T07:08:00Z</time>
      </trkpt>
      <trkpt lat="50.766043039038777" lon="9.374924004077911">
        <ele>333.23000000000002</ele>
        <time>2019-05-05T07:08:07Z</time>
      </trkpt>
      <trkpt lat="50.767935002222657" lon="9.377314019948244">
        <ele>335.16000000000003</ele>
        <time>2019-05-05T07:08:14Z</time>
      </trkpt>
      <trkpt lat="50.769363027065992" lon="9.380403002724052">
        <ele>343.32999999999998</ele>
        <time>2019-05-05T07:08:21Z</time>
      </trkpt>
      <trkpt lat="50.771696968004107" lon="9.385949978604913">
        <ele>348.13</ele>
        <time>2019-05-05T07:08:33Z</time>
      </trkpt>
      <trkpt lat="50.77434497885406" lon="9.392386022955179">
        <ele>351.5</ele>
        <time>2019-05-05T07:08:47Z</time>
      </trkpt>
      <trkpt lat="50.775913987308741" lon="9.395265961065888">
        <ele>356.79000000000002</ele>
        <time>2019-05-05T07:08:54Z</time>
      </trkpt>
      <trkpt lat="50.777930002659559" lon="9.398354021832347">
        <ele>358.70999999999998</ele>
        <time>2019-05-05T07:09:02Z</time>
      </trkpt>
      <trkpt lat="50.77907002530992" lon="9.40108903683722">
        <ele>358.70999999999998</ele>
        <time>2019-05-05T07:09:08Z</time>
      </trkpt>
      <trkpt lat="50.780108040198684" lon="9.405170017853379">
        <ele>364.48000000000002</ele>
        <time>2019-05-05T07:09:16Z</time>
      </trkpt>
      <trkpt lat="50.781570011749864" lon="9.411343038082123">
        <ele>373.61000000000001</ele>
        <time>2019-05-05T07:09:28Z</time>
      </trkpt>
      <trkpt lat="50.783204985782504" lon="9.418646022677422">
        <ele>393.80000000000001</ele>
        <time>2019-05-05T07:09:42Z</time>
      </trkpt>
      <trkpt lat="50.784451039507985" lon="9.423837019130588">
        <ele>405.32999999999998</ele>
        <time>2019-05-05T07:09:52Z</time>
      </trkpt>
      <trkpt lat="50.786078972741961" lon="9.430510019883514">
        <ele>405.81</ele>
        <time>2019-05-05T07:10:05Z</time>
      </trkpt>
      <trkpt lat="50.787387974560261" lon="9.437258038669825">
        <ele>428.88999999999999</ele>
        <time>2019-05-05T07:10:18Z</time>
      </trkpt>
      <trkpt lat="50.78852497972548" lon="9.441774962469935">
        <ele>443.79000000000002</ele>
        <time>2019-05-05T07:10:27Z</time>
      </trkpt>
      <trkpt lat="50.789637006819248" lon="9.444089038297534">
        <ele>446.67000000000002</ele>
        <time>2019-05-05T07:10:33Z</time>
      </trkpt>
      <trkpt lat="50.791696021333337" lon="9.447359992191196">
        <ele>437.06</ele>
        <time>2019-05-05T07:10:43Z</time>
      </trkpt>
      <trkpt lat="50.792552987113595" lon="9.449575999751687">
        <ele>435.13</ele>
        <time>2019-05-05T07:10:49Z</time>
      </trkpt>
      <trkpt lat="50.79292799346149" lon="9.452114040032029">
        <ele>438.5</ele>
        <time>2019-05-05T07:10:55Z</time>
      </trkpt>
      <trkpt lat="50.79279899597168" lon="9.454659037292004">
        <ele>444.26999999999998</ele>
        <time>2019-05-05T07:11:01Z</time>
      </trkpt>
      <trkpt lat="50.792145039886236" lon="9.457318028435111">
        <ele>448.11000000000001</ele>
        <time>2019-05-05T07:11:08Z</time>
      </trkpt>
      <trkpt lat="50.790678961202502" lon="9.462131001055241">
        <ele>453.88</ele>
        <time>2019-05-05T07:11:21Z</time>
      </trkpt>
      <trkpt lat="50.789983011782169" lon="9.464955031871796">
        <ele>467.33999999999997</ele>
        <time>2019-05-05T07:11:29Z</time>
      </trkpt>
      <trkpt lat="50.789927020668983" lon="9.467751989141107">
        <ele>481.27999999999997</ele>
        <time>2019-05-05T07:11:36Z</time>
      </trkpt>
      <trkpt lat="50.790470000356436" lon="9.470503013581038">
        <ele>492.32999999999998</ele>
        <time>2019-05-05T07:11:43Z</time>
      </trkpt>
      <trkpt lat="50.791526958346367" lon="9.472718015313149">
        <ele>497.13999999999999</ele>
        <time>2019-05-05T07:11:49Z</time>
      </trkpt>
      <trkpt lat="50.793885961174965" lon="9.476381996646524">
        <ele>496.66000000000003</ele>
        <time>2019-05-05T07:12:00Z</time>
      </trkpt>
      <trkpt lat="50.794877037405968" lon="9.478820962831378">
        <ele>493.29000000000002</ele>
        <time>2019-05-05T07:12:06Z</time>
      </trkpt>
      <trkpt lat="50.796750979498029" lon="9.484305996447802">
        <ele>467.81999999999999</ele>
        <time>2019-05-05T07:12:19Z</time>
      </trkpt>
      <trkpt lat="50.797324972227216" lon="9.487461028620601">
        <ele>453.39999999999998</ele>
        <time>2019-05-05T07:12:26Z</time>
      </trkpt>
      <trkpt lat="50.79784800298512" lon="9.491572016850114">
        <ele>447.14999999999998</ele>
        <time>2019-05-05T07:12:35Z</time>
      </trkpt>
      <trkpt lat="50.798661969602108" lon="9.49412296526134">
        <ele>442.81999999999999</ele>
        <time>2019-05-05T07:12:41Z</time>
      </trkpt>
      <trkpt lat="50.800516968593001" lon="9.49790102429688">
        <ele>436.10000000000002</ele>
        <time>2019-05-05T07:12:51Z</time>
      </trkpt>
      <trkpt lat="50.801968965679407" lon="9.499612022191286">
        <ele>431.29000000000002</ele>
        <time>2019-05-05T07:12:57Z</time>
      </trkpt>
      <trkpt lat="50.803970983251929" lon="9.501883015036583">
        <ele>421.68000000000001</ele>
        <time>2019-05-05T07:13:05Z</time>
      </trkpt>
      <trkpt lat="50.805301023647189" lon="9.504547035321593">
        <ele>408.69999999999999</ele>
        <time>2019-05-05T07:13:12Z</time>
      </trkpt>
      <trkpt lat="50.80730102956295" lon="9.509371994063258">
        <ele>383.22000000000003</ele>
        <time>2019-05-05T07:13:24Z</time>
      </trkpt>
      <trkpt lat="50.807864964008331" lon="9.512563990429044">
        <ele>376.00999999999999</ele>
        <time>2019-05-05T07:13:31Z</time>
      </trkpt>
      <trkpt lat="50.807888014242053" lon="9.515414005145431">
        <ele>369.75999999999999</ele>
        <time>2019-05-05T07:13:37Z</time>
      </trkpt>
      <trkpt lat="50.80734302289784" lon="9.51913196593523">
        <ele>370.73000000000002</ele>
        <time>2019-05-05T07:13:45Z</time>
      </trkpt>
      <trkpt lat="50.807134984061122" lon="9.521949039772153">
        <ele>375.52999999999997</ele>
        <time>2019-05-05T07:13:51Z</time>
      </trkpt>
      <trkpt lat="50.807392979040742" lon="9.525786023586988">
        <ele>376.49000000000001</ele>
        <time>2019-05-05T07:13:59Z</time>
      </trkpt>
      <trkpt lat="50.80779598094523" lon="9.531041979789734">
        <ele>374.56999999999999</ele>
        <time>2019-05-05T07:14:10Z</time>
      </trkpt>
      <trkpt lat="50.808332003653049" lon="9.534775028005242">
        <ele>374.56999999999999</ele>
        <time>2019-05-05T07:14:18Z</time>
      </trkpt>
      <trkpt lat="50.809268010780215" lon="9.53726596198976">
        <ele>371.69</ele>
        <time>2019-05-05T07:14:24Z</time>
      </trkpt>
      <trkpt lat="50.810473999008536" lon="9.539293963462114">
        <ele>364.95999999999998</ele>
        <time>2019-05-05T07:14:30Z</time>
      </trkpt>
      <trkpt lat="50.813229968771338" lon="9.542931038886309">
        <ele>359.19</ele>
        <time>2019-05-05T07:14:43Z</time>
      </trkpt>
      <trkpt lat="50.815241038799286" lon="9.546039970591664">
        <ele>364.48000000000002</ele>
        <time>2019-05-05T07:14:53Z</time>
      </trkpt>
      <trkpt lat="50.817501973360777" lon="9.550268976017833">
        <ele>359.67000000000002</ele>
        <time>2019-05-05T07:15:05Z</time>
      </trkpt>
      <trkpt lat="50.818314012140036" lon="9.552621021866798">
        <ele>351.5</ele>
        <time>2019-05-05T07:15:11Z</time>
      </trkpt>
      <trkpt lat="50.81858198158443" lon="9.555241037160158">
        <ele>341.88999999999999</ele>
        <time>2019-05-05T07:15:17Z</time>
      </trkpt>
      <trkpt lat="50.818275958299637" lon="9.558234969154">
        <ele>329.87</ele>
        <time>2019-05-05T07:15:24Z</time>
      </trkpt>
      <trkpt lat="50.818204041570425" lon="9.561124965548515">
        <ele>317.85000000000002</ele>
        <time>2019-05-05T07:15:31Z</time>
      </trkpt>
      <trkpt lat="50.818566977977753" lon="9.563522022217512">
        <ele>307.27999999999997</ele>
        <time>2019-05-05T07:15:37Z</time>
      </trkpt>
      <trkpt lat="50.819598035886884" lon="9.566326020285487">
        <ele>291.42000000000002</ele>
        <time>2019-05-05T07:15:45Z</time>
      </trkpt>
      <trkpt lat="50.821102000772953" lon="9.569144016131759">
        <ele>274.11000000000001</ele>
        <time>2019-05-05T07:15:54Z</time>
      </trkpt>
      <trkpt lat="50.822658017277718" lon="9.570839004591107">
        <ele>262.10000000000002</ele>
        <time>2019-05-05T07:16:01Z</time>
      </trkpt>
      <trkpt lat="50.824431041255593" lon="9.5718979742378">
        <ele>254.41</ele>
        <time>2019-05-05T07:16:08Z</time>
      </trkpt>
      <trkpt lat="50.827652039006352" lon="9.573590029031038">
        <ele>252.96000000000001</ele>
        <time>2019-05-05T07:16:21Z</time>
      </trkpt>
      <trkpt lat="50.830157976597548" lon="9.57542197778821">
        <ele>256.32999999999998</ele>
        <time>2019-05-05T07:16:32Z</time>
      </trkpt>
      <trkpt lat="50.832886034622788" lon="9.5775499753654">
        <ele>260.17000000000002</ele>
        <time>2019-05-05T07:16:45Z</time>
      </trkpt>
      <trkpt lat="50.835126014426351" lon="9.579089982435107">
        <ele>269.79000000000002</ele>
        <time>2019-05-05T07:16:55Z</time>
      </trkpt>
      <trkpt lat="50.83660801872611" lon="9.579849969595671">
        <ele>275.06999999999999</ele>
        <time>2019-05-05T07:17:02Z</time>
      </trkpt>
      <trkpt lat="50.838775997981429" lon="9.58098697476089">
        <ele>277.95999999999998</ele>
        <time>2019-05-05T07:17:13Z</time>
      </trkpt>
      <trkpt lat="50.840016016736627" lon="9.581618970260024">
        <ele>277.95999999999998</ele>
        <time>2019-05-05T07:17:21Z</time>
      </trkpt>
      <trkpt lat="50.841462984681129" lon="9.582356996834278">
        <ele>277.95999999999998</ele>
        <time>2019-05-05T07:17:30Z</time>
      </trkpt>
      <trkpt lat="50.84395500831306" lon="9.583618976175785">
        <ele>277</ele>
        <time>2019-05-05T07:17:44Z</time>
      </trkpt>
      <trkpt lat="50.84558897651732" lon="9.584413999691606">
        <ele>272.19</ele>
        <time>2019-05-05T07:17:53Z</time>
      </trkpt>
      <trkpt lat="50.847159996628761" lon="9.585111038759351">
        <ele>271.23000000000002</ele>
        <time>2019-05-05T07:17:59Z</time>
      </trkpt>
      <trkpt lat="50.849684961140156" lon="9.585791984573007">
        <ele>269.79000000000002</ele>
        <time>2019-05-05T07:18:07Z</time>
      </trkpt>
      <trkpt lat="50.85405302233994" lon="9.586798986420035">
        <ele>294.77999999999997</ele>
        <time>2019-05-05T07:18:20Z</time>
      </trkpt>
      <trkpt lat="50.857789004221559" lon="9.588132966309786">
        <ele>326.5</ele>
        <time>2019-05-05T07:18:31Z</time>
      </trkpt>
      <trkpt lat="50.862788977101445" lon="9.590436983853579">
        <ele>366.39999999999998</ele>
        <time>2019-05-05T07:18:46Z</time>
      </trkpt>
      <trkpt lat="50.866095973178744" lon="9.592272033914924">
        <ele>385.14999999999998</ele>
        <time>2019-05-05T07:18:56Z</time>
      </trkpt>
      <trkpt lat="50.870585991069674" lon="9.595264038071036">
        <ele>405.32999999999998</ele>
        <time>2019-05-05T07:19:10Z</time>
      </trkpt>
      <trkpt lat="50.872362032532692" lon="9.597066985443234">
        <ele>407.25999999999999</ele>
        <time>2019-05-05T07:19:16Z</time>
      </trkpt>
      <trkpt lat="50.874538980424404" lon="9.599796971306205">
        <ele>413.01999999999998</ele>
        <time>2019-05-05T07:19:24Z</time>
      </trkpt>
      <trkpt lat="50.874838968738914" lon="9.600058989599347">
        <ele>413.98000000000002</ele>
        <time>2019-05-05T07:19:25Z</time>
      </trkpt>
      <trkpt lat="50.875155972316861" lon="9.600283037871122">
        <ele>413.98000000000002</ele>
        <time>2019-05-05T07:19:26Z</time>
      </trkpt>
      <trkpt lat="50.875808000564575" lon="9.600670030340552">
        <ele>414.47000000000003</ele>
        <time>2019-05-05T07:19:28Z</time>
      </trkpt>
      <trkpt lat="50.876150988042355" lon="9.600785030052066">
        <ele>413.98000000000002</ele>
        <time>2019-05-05T07:19:29Z</time>
      </trkpt>
      <trkpt lat="50.876500010490417" lon="9.600876979529858">
        <ele>413.5</ele>
        <time>2019-05-05T07:19:30Z</time>
      </trkpt>
      <trkpt lat="50.876850038766861" lon="9.600945040583611">
        <ele>413.01999999999998</ele>
        <time>2019-05-05T07:19:31Z</time>
      </trkpt>
      <trkpt lat="50.877200989052653" lon="9.600971024483442">
        <ele>412.06</ele>
        <time>2019-05-05T07:19:32Z</time>
      </trkpt>
      <trkpt lat="50.880314027890563" lon="9.600783018395305">
        <ele>409.18000000000001</ele>
        <time>2019-05-05T07:19:41Z</time>
      </trkpt>
      <trkpt lat="50.881921006366611" lon="9.599834019318223">
        <ele>406.76999999999998</ele>
        <time>2019-05-05T07:19:46Z</time>
      </trkpt>
      <trkpt lat="50.884287972003222" lon="9.597525978460908">
        <ele>407.74000000000001</ele>
        <time>2019-05-05T07:19:54Z</time>
      </trkpt>
      <trkpt lat="50.885781962424517" lon="9.595220033079386">
        <ele>411.57999999999998</ele>
        <time>2019-05-05T07:20:00Z</time>
      </trkpt>
      <trkpt lat="50.886553013697267" lon="9.592763967812061">
        <ele>408.22000000000003</ele>
        <time>2019-05-05T07:20:05Z</time>
      </trkpt>
      <trkpt lat="50.886784018948674" lon="9.590063989162445">
        <ele>403.41000000000003</ele>
        <time>2019-05-05T07:20:10Z</time>
      </trkpt>
      <trkpt lat="50.887005971744657" lon="9.585689976811409">
        <ele>398.12</ele>
        <time>2019-05-05T07:20:18Z</time>
      </trkpt>
      <trkpt lat="50.887741986662149" lon="9.583170041441917">
        <ele>392.36000000000001</ele>
        <time>2019-05-05T07:20:23Z</time>
      </trkpt>
      <trkpt lat="50.888918973505497" lon="9.581174980849028">
        <ele>382.74000000000001</ele>
        <time>2019-05-05T07:20:28Z</time>
      </trkpt>
      <trkpt lat="50.889198007062078" lon="9.580845991149545">
        <ele>380.81999999999999</ele>
        <time>2019-05-05T07:20:29Z</time>
      </trkpt>
      <trkpt lat="50.89075000025332" lon="9.579651989042759">
        <ele>370.24000000000001</ele>
        <time>2019-05-05T07:20:34Z</time>
      </trkpt>
      <trkpt lat="50.891433963552117" lon="9.579359041526914">
        <ele>366.88</ele>
        <time>2019-05-05T07:20:36Z</time>
      </trkpt>
      <trkpt lat="50.891777034848928" lon="9.579295003786683">
        <ele>364.95999999999998</ele>
        <time>2019-05-05T07:20:37Z</time>
      </trkpt>
      <trkpt lat="50.892122033983469" lon="9.579250998795033">
        <ele>363.04000000000002</ele>
        <time>2019-05-05T07:20:38Z</time>
      </trkpt>
      <trkpt lat="50.8924709726125" lon="9.57922400906682">
        <ele>360.63</ele>
        <time>2019-05-05T07:20:39Z</time>
      </trkpt>
      <trkpt lat="50.892825024202466" lon="9.579237001016736">
        <ele>358.70999999999998</ele>
        <time>2019-05-05T07:20:40Z</time>
      </trkpt>
      <trkpt lat="50.893175974488258" lon="9.579292992129922">
        <ele>356.79000000000002</ele>
        <time>2019-05-05T07:20:41Z</time>
      </trkpt>
      <trkpt lat="50.893524996936321" lon="9.579371027648449">
        <ele>354.86000000000001</ele>
        <time>2019-05-05T07:20:42Z</time>
      </trkpt>
      <trkpt lat="50.89386697858572" lon="9.579489966854453">
        <ele>352.94</ele>
        <time>2019-05-05T07:20:43Z</time>
      </trkpt>
      <trkpt lat="50.894206026569009" lon="9.579647965729237">
        <ele>351.5</ele>
        <time>2019-05-05T07:20:44Z</time>
      </trkpt>
      <trkpt lat="50.894534010440111" lon="9.579830020666122">
        <ele>350.06</ele>
        <time>2019-05-05T07:20:45Z</time>
      </trkpt>
      <trkpt lat="50.894850008189678" lon="9.58006102591753">
        <ele>349.10000000000002</ele>
        <time>2019-05-05T07:20:46Z</time>
      </trkpt>
      <trkpt lat="50.897319987416267" lon="9.582150969654322">
        <ele>339.95999999999998</ele>
        <time>2019-05-05T07:20:54Z</time>
      </trkpt>
      <trkpt lat="50.901017999276519" lon="9.585267025977373">
        <ele>329.38999999999999</ele>
        <time>2019-05-05T07:21:06Z</time>
      </trkpt>
      <trkpt lat="50.902666971087456" lon="9.586080992594361">
        <ele>327.94999999999999</ele>
        <time>2019-05-05T07:21:11Z</time>
      </trkpt>
      <trkpt lat="50.904435971751809" lon="9.586122985929251">
        <ele>321.69999999999999</ele>
        <time>2019-05-05T07:21:16Z</time>
      </trkpt>
      <trkpt lat="50.9061339776963" lon="9.585331985726953">
        <ele>314.00999999999999</ele>
        <time>2019-05-05T07:21:21Z</time>
      </trkpt>
      <trkpt lat="50.907620005309582" lon="9.583918964490295">
        <ele>310.16000000000003</ele>
        <time>2019-05-05T07:21:26Z</time>
      </trkpt>
      <trkpt lat="50.907856961712241" lon="9.583548987284303">
        <ele>309.68000000000001</ele>
        <time>2019-05-05T07:21:27Z</time>
      </trkpt>
      <trkpt lat="50.909103015437722" lon="9.580995021387935">
        <ele>306.31999999999999</ele>
        <time>2019-05-05T07:21:33Z</time>
      </trkpt>
      <trkpt lat="50.910953991115093" lon="9.575724983587861">
        <ele>301.50999999999999</ele>
        <time>2019-05-05T07:21:44Z</time>
      </trkpt>
      <trkpt lat="50.912544960156083" lon="9.572139037773013">
        <ele>304.38999999999999</ele>
        <time>2019-05-05T07:21:52Z</time>
      </trkpt>
      <trkpt lat="50.915420036762953" lon="9.566553002223373">
        <ele>307.75999999999999</ele>
        <time>2019-05-05T07:22:05Z</time>
      </trkpt>
      <trkpt lat="50.918325036764145" lon="9.561105016618967">
        <ele>305.36000000000001</ele>
        <time>2019-05-05T07:22:18Z</time>
      </trkpt>
      <trkpt lat="50.920119015499949" lon="9.558603018522263">
        <ele>317.85000000000002</ele>
        <time>2019-05-05T07:22:25Z</time>
      </trkpt>
      <trkpt lat="50.92241900973022" lon="9.555225027725101">
        <ele>339.48000000000002</ele>
        <time>2019-05-05T07:22:34Z</time>
      </trkpt>
      <trkpt lat="50.922775994986296" lon="9.554292038083077">
        <ele>344.76999999999998</ele>
        <time>2019-05-05T07:22:36Z</time>
      </trkpt>
      <trkpt lat="50.923758018761873" lon="9.55082000233233">
        <ele>365.44</ele>
        <time>2019-05-05T07:22:43Z</time>
      </trkpt>
      <trkpt lat="50.924754040315747" lon="9.548594020307064">
        <ele>378.42000000000002</ele>
        <time>2019-05-05T07:22:48Z</time>
      </trkpt>
      <trkpt lat="50.926744993776083" lon="9.545585000887513">
        <ele>400.05000000000001</ele>
        <time>2019-05-05T07:22:56Z</time>
      </trkpt>
      <trkpt lat="50.928018959239125" lon="9.544734992086887">
        <ele>411.10000000000002</ele>
        <time>2019-05-05T07:23:00Z</time>
      </trkpt>
      <trkpt lat="50.928354989737272" lon="9.544603982940316">
        <ele>413.5</ele>
        <time>2019-05-05T07:23:01Z</time>
      </trkpt>
      <trkpt lat="50.928704012185335" lon="9.544534999877214">
        <ele>415.91000000000003</ele>
        <time>2019-05-05T07:23:02Z</time>
      </trkpt>
      <trkpt lat="50.932178981602192" lon="9.543851036578417">
        <ele>436.10000000000002</ele>
        <time>2019-05-05T07:23:12Z</time>
      </trkpt>
      <trkpt lat="50.935640037059784" lon="9.543022988364101">
        <ele>459.17000000000002</ele>
        <time>2019-05-05T07:23:22Z</time>
      </trkpt>
      <trkpt lat="50.939795030280948" lon="9.541474012658">
        <ele>464.44999999999999</ele>
        <time>2019-05-05T07:23:34Z</time>
      </trkpt>
      <trkpt lat="50.941349035128951" lon="9.540327033028007">
        <ele>463.00999999999999</ele>
        <time>2019-05-05T07:23:39Z</time>
      </trkpt>
      <trkpt lat="50.942928018048406" lon="9.538212027400732">
        <ele>461.08999999999997</ele>
        <time>2019-05-05T07:23:45Z</time>
      </trkpt>
      <trkpt lat="50.943835023790598" lon="9.536188971251249">
        <ele>458.20999999999998</ele>
        <time>2019-05-05T07:23:50Z</time>
      </trkpt>
      <trkpt lat="50.943959997966886" lon="9.535801978781819">
        <ele>458.20999999999998</ele>
        <time>2019-05-05T07:23:51Z</time>
      </trkpt>
      <trkpt lat="50.944084972143173" lon="9.535413980484009">
        <ele>458.20999999999998</ele>
        <time>2019-05-05T07:23:52Z</time>
      </trkpt>
      <trkpt lat="50.944559974595904" lon="9.533207025378943">
        <ele>461.08999999999997</ele>
        <time>2019-05-05T07:23:58Z</time>
      </trkpt>
      <trkpt lat="50.944680003449321" lon="9.53219298273325">
        <ele>463.00999999999999</ele>
        <time>2019-05-05T07:24:02Z</time>
      </trkpt>
      <trkpt lat="50.944761978462338" lon="9.53060301952064">
        <ele>466.38</ele>
        <time>2019-05-05T07:24:10Z</time>
      </trkpt>
      <trkpt lat="50.944758960977197" lon="9.530393974855542">
        <ele>467.33999999999997</ele>
        <time>2019-05-05T07:24:12Z</time>
      </trkpt>
      <trkpt lat="50.944758038967848" lon="9.530335972085595">
        <ele>467.81999999999999</ele>
        <time>2019-05-05T07:24:13Z</time>
      </trkpt>
      <trkpt lat="50.944758038967848" lon="9.530335972085595">
        <ele>468.30000000000001</ele>
        <time>2019-05-05T07:24:22Z</time>
      </trkpt>
      <trkpt lat="50.944753009825945" lon="9.530051993206143">
        <ele>469.25999999999999</ele>
        <time>2019-05-05T07:24:44Z</time>
      </trkpt>
      <trkpt lat="50.94474102370441" lon="9.52926903963089">
        <ele>468.77999999999997</ele>
        <time>2019-05-05T07:24:48Z</time>
      </trkpt>
      <trkpt lat="50.944737000390887" lon="9.529014984145761">
        <ele>468.77999999999997</ele>
        <time>2019-05-05T07:24:49Z</time>
      </trkpt>
      <trkpt lat="50.944700036197901" lon="9.527235003188252">
        <ele>467.81999999999999</ele>
        <time>2019-05-05T07:24:54Z</time>
      </trkpt>
      <trkpt lat="50.944728031754494" lon="9.524863008409739">
        <ele>466.38</ele>
        <time>2019-05-05T07:24:59Z</time>
      </trkpt>
      <trkpt lat="50.945276962593198" lon="9.522274006158114">
        <ele>461.56999999999999</ele>
        <time>2019-05-05T07:25:04Z</time>
      </trkpt>
      <trkpt lat="50.94547200948" lon="9.521805960685015">
        <ele>460.61000000000001</ele>
        <time>2019-05-05T07:25:05Z</time>
      </trkpt>
      <trkpt lat="50.945675019174814" lon="9.521316960453987">
        <ele>460.13</ele>
        <time>2019-05-05T07:25:06Z</time>
      </trkpt>
      <trkpt lat="50.947116035968065" lon="9.51865503564477">
        <ele>461.56999999999999</ele>
        <time>2019-05-05T07:25:12Z</time>
      </trkpt>
      <trkpt lat="50.948226973414421" lon="9.515619026497006">
        <ele>457.72000000000003</ele>
        <time>2019-05-05T07:25:18Z</time>
      </trkpt>
      <trkpt lat="50.949342017993331" lon="9.512558961287141">
        <ele>451.48000000000002</ele>
        <time>2019-05-05T07:25:24Z</time>
      </trkpt>
      <trkpt lat="50.950775993987918" lon="9.510591980069876">
        <ele>452.92000000000002</ele>
        <time>2019-05-05T07:25:29Z</time>
      </trkpt>
      <trkpt lat="50.953573035076261" lon="9.50688298791647">
        <ele>461.56999999999999</ele>
        <time>2019-05-05T07:25:39Z</time>
      </trkpt>
      <trkpt lat="50.954587999731302" lon="9.504660023376346">
        <ele>463.49000000000001</ele>
        <time>2019-05-05T07:25:44Z</time>
      </trkpt>
      <trkpt lat="50.956222973763943" lon="9.501601969823241">
        <ele>456.27999999999997</ele>
        <time>2019-05-05T07:25:52Z</time>
      </trkpt>
      <trkpt lat="50.957385962828994" lon="9.49947296641767">
        <ele>446.67000000000002</ele>
        <time>2019-05-05T07:25:58Z</time>
      </trkpt>
      <trkpt lat="50.958072021603584" lon="9.497142964974046">
        <ele>434.64999999999998</ele>
        <time>2019-05-05T07:26:04Z</time>
      </trkpt>
      <trkpt lat="50.958391036838293" lon="9.494495037943125">
        <ele>418.79000000000002</ele>
        <time>2019-05-05T07:26:11Z</time>
      </trkpt>
      <trkpt lat="50.958607960492373" lon="9.49255496263504">
        <ele>407.74000000000001</ele>
        <time>2019-05-05T07:26:16Z</time>
      </trkpt>
      <trkpt lat="50.959297036752105" lon="9.490123959258199">
        <ele>396.68000000000001</ele>
        <time>2019-05-05T07:26:23Z</time>
      </trkpt>
      <trkpt lat="50.960223991423845" lon="9.4875249825418">
        <ele>386.58999999999997</ele>
        <time>2019-05-05T07:26:31Z</time>
      </trkpt>
      <trkpt lat="50.96130802296102" lon="9.485638970509172">
        <ele>376.49000000000001</ele>
        <time>2019-05-05T07:26:38Z</time>
      </trkpt>
      <trkpt lat="50.963257988914847" lon="9.483065977692604">
        <ele>356.31</ele>
        <time>2019-05-05T07:26:48Z</time>
      </trkpt>
      <trkpt lat="50.964696994051337" lon="9.480992965400219">
        <ele>337.56</ele>
        <time>2019-05-05T07:26:56Z</time>
      </trkpt>
      <trkpt lat="50.966106997802854" lon="9.479831987991929">
        <ele>327.47000000000003</ele>
        <time>2019-05-05T07:27:03Z</time>
      </trkpt>
      <trkpt lat="50.967700984328985" lon="9.479387998580933">
        <ele>314.97000000000003</ele>
        <time>2019-05-05T07:27:10Z</time>
      </trkpt>
      <trkpt lat="50.969626978039742" lon="9.479333013296127">
        <ele>299.11000000000001</ele>
        <time>2019-05-05T07:27:18Z</time>
      </trkpt>
      <trkpt lat="50.971265975385904" lon="9.478657012805343">
        <ele>287.56999999999999</ele>
        <time>2019-05-05T07:27:25Z</time>
      </trkpt>
      <trkpt lat="50.972663993015885" lon="9.477267041802406">
        <ele>281.31999999999999</ele>
        <time>2019-05-05T07:27:32Z</time>
      </trkpt>
      <trkpt lat="50.973925972357392" lon="9.475266030058265">
        <ele>274.58999999999997</ele>
        <time>2019-05-05T07:27:39Z</time>
      </trkpt>
      <trkpt lat="50.974364010617137" lon="9.474665969610214">
        <ele>273.63</ele>
        <time>2019-05-05T07:27:41Z</time>
      </trkpt>
      <trkpt lat="50.974618988111615" lon="9.474365981295705">
        <ele>273.14999999999998</ele>
        <time>2019-05-05T07:27:42Z</time>
      </trkpt>
      <trkpt lat="50.976234013214707" lon="9.473167033866048">
        <ele>272.19</ele>
        <time>2019-05-05T07:27:47Z</time>
      </trkpt>
      <trkpt lat="50.979262981563807" lon="9.472191967070103">
        <ele>272.19</ele>
        <time>2019-05-05T07:27:55Z</time>
      </trkpt>
      <trkpt lat="50.981566999107599" lon="9.471917962655425">
        <ele>270.75</ele>
        <time>2019-05-05T07:28:01Z</time>
      </trkpt>
      <trkpt lat="50.98414602689445" lon="9.472167994827032">
        <ele>266.42000000000002</ele>
        <time>2019-05-05T07:28:08Z</time>
      </trkpt>
      <trkpt lat="50.988031039014459" lon="9.471984012052417">
        <ele>266.89999999999998</ele>
        <time>2019-05-05T07:28:19Z</time>
      </trkpt>
      <trkpt lat="50.990523984655738" lon="9.472840977832675">
        <ele>274.58999999999997</ele>
        <time>2019-05-05T07:28:26Z</time>
      </trkpt>
      <trkpt lat="50.99405100569129" lon="9.473868012428284">
        <ele>280.36000000000001</ele>
        <time>2019-05-05T07:28:36Z</time>
      </trkpt>
      <trkpt lat="50.996827008202672" lon="9.474481986835599">
        <ele>274.58999999999997</ele>
        <time>2019-05-05T07:28:44Z</time>
      </trkpt>
      <trkpt lat="50.999209983274341" lon="9.475758969783783">
        <ele>263.54000000000002</ele>
        <time>2019-05-05T07:28:51Z</time>
      </trkpt>
      <trkpt lat="51.001348961144686" lon="9.477651016786695">
        <ele>264.98000000000002</ele>
        <time>2019-05-05T07:28:58Z</time>
      </trkpt>
      <trkpt lat="51.003192979842424" lon="9.480055030435324">
        <ele>275.06999999999999</ele>
        <time>2019-05-05T07:29:05Z</time>
      </trkpt>
      <trkpt lat="51.005747029557824" lon="9.484213041141629">
        <ele>297.67000000000002</ele>
        <time>2019-05-05T07:29:16Z</time>
      </trkpt>
      <trkpt lat="51.007814006879926" lon="9.48683800175786">
        <ele>309.19999999999999</ele>
        <time>2019-05-05T07:29:24Z</time>
      </trkpt>
      <trkpt lat="51.009894981980324" lon="9.48838303796947">
        <ele>317.85000000000002</ele>
        <time>2019-05-05T07:29:31Z</time>
      </trkpt>
      <trkpt lat="51.012189025059342" lon="9.489077981561422">
        <ele>326.01999999999998</ele>
        <time>2019-05-05T07:29:38Z</time>
      </trkpt>
      <trkpt lat="51.016058027744293" lon="9.489317033439875">
        <ele>328.43000000000001</ele>
        <time>2019-05-05T07:29:49Z</time>
      </trkpt>
      <trkpt lat="51.020210003480315" lon="9.489573016762734">
        <ele>329.38999999999999</ele>
        <time>2019-05-05T07:30:01Z</time>
      </trkpt>
      <trkpt lat="51.02256397716701" lon="9.489317033439875">
        <ele>331.79000000000002</ele>
        <time>2019-05-05T07:30:08Z</time>
      </trkpt>
      <trkpt lat="51.024398021399975" lon="9.488252028822899">
        <ele>328.91000000000003</ele>
        <time>2019-05-05T07:30:14Z</time>
      </trkpt>
      <trkpt lat="51.026689969003201" lon="9.486144986003637">
        <ele>313.05000000000001</ele>
        <time>2019-05-05T07:30:22Z</time>
      </trkpt>
      <trkpt lat="51.028238022699952" lon="9.485082998871803">
        <ele>303.43000000000001</ele>
        <time>2019-05-05T07:30:27Z</time>
      </trkpt>
      <trkpt lat="51.03029795922339" lon="9.484643032774329">
        <ele>300.06999999999999</ele>
        <time>2019-05-05T07:30:33Z</time>
      </trkpt>
      <trkpt lat="51.032327972352505" lon="9.485133038833737">
        <ele>300.55000000000001</ele>
        <time>2019-05-05T07:30:39Z</time>
      </trkpt>
      <trkpt lat="51.033902009949088" lon="9.486270966008306">
        <ele>302.47000000000003</ele>
        <time>2019-05-05T07:30:44Z</time>
      </trkpt>
      <trkpt lat="51.037905961275101" lon="9.489848027005792">
        <ele>310.16000000000003</ele>
        <time>2019-05-05T07:30:57Z</time>
      </trkpt>
      <trkpt lat="51.042532017454505" lon="9.493988016620278">
        <ele>299.58999999999997</ele>
        <time>2019-05-05T07:31:12Z</time>
      </trkpt>
      <trkpt lat="51.045984020456672" lon="9.496738035231829">
        <ele>285.17000000000002</ele>
        <time>2019-05-05T07:31:23Z</time>
      </trkpt>
      <trkpt lat="51.04804303497076" lon="9.497320996597409">
        <ele>280.83999999999997</ele>
        <time>2019-05-05T07:31:29Z</time>
      </trkpt>
      <trkpt lat="51.050103977322578" lon="9.497136007994413">
        <ele>276.04000000000002</ele>
        <time>2019-05-05T07:31:35Z</time>
      </trkpt>
      <trkpt lat="51.055248035117984" lon="9.496042001992464">
        <ele>269.79000000000002</ele>
        <time>2019-05-05T07:31:50Z</time>
      </trkpt>
      <trkpt lat="51.060057990252972" lon="9.494965011253953">
        <ele>296.22000000000003</ele>
        <time>2019-05-05T07:32:04Z</time>
      </trkpt>
      <trkpt lat="51.063474034890532" lon="9.493811996653676">
        <ele>310.63999999999999</ele>
        <time>2019-05-05T07:32:14Z</time>
      </trkpt>
      <trkpt lat="51.067546969279647" lon="9.492354970425367">
        <ele>322.66000000000003</ele>
        <time>2019-05-05T07:32:26Z</time>
      </trkpt>
      <trkpt lat="51.070992015302181" lon="9.491100031882525">
        <ele>324.57999999999998</ele>
        <time>2019-05-05T07:32:36Z</time>
      </trkpt>
      <trkpt lat="51.074054008349776" lon="9.489836040884256">
        <ele>318.81</ele>
        <time>2019-05-05T07:32:45Z</time>
      </trkpt>
      <trkpt lat="51.078339004889131" lon="9.487410988658667">
        <ele>303.43000000000001</ele>
        <time>2019-05-05T07:32:58Z</time>
      </trkpt>
      <trkpt lat="51.081687994301319" lon="9.485705019906163">
        <ele>284.69</ele>
        <time>2019-05-05T07:33:08Z</time>
      </trkpt>
      <trkpt lat="51.084433989599347" lon="9.485061038285494">
        <ele>267.86000000000001</ele>
        <time>2019-05-05T07:33:16Z</time>
      </trkpt>
      <trkpt lat="51.0899399779737" lon="9.48408798314631">
        <ele>263.54000000000002</ele>
        <time>2019-05-05T07:33:32Z</time>
      </trkpt>
      <trkpt lat="51.095085041597486" lon="9.483241997659206">
        <ele>289.97000000000003</ele>
        <time>2019-05-05T07:33:47Z</time>
      </trkpt>
      <trkpt lat="51.097154030576348" lon="9.483641982078552">
        <ele>301.50999999999999</ele>
        <time>2019-05-05T07:33:53Z</time>
      </trkpt>
      <trkpt lat="51.099489983171225" lon="9.484886024147272">
        <ele>311.60000000000002</ele>
        <time>2019-05-05T07:34:00Z</time>
      </trkpt>
      <trkpt lat="51.101214978843927" lon="9.485315009951592">
        <ele>314.49000000000001</ele>
        <time>2019-05-05T07:34:05Z</time>
      </trkpt>
      <trkpt lat="51.103262007236481" lon="9.484847970306873">
        <ele>316.41000000000003</ele>
        <time>2019-05-05T07:34:11Z</time>
      </trkpt>
      <trkpt lat="51.10732396133244" lon="9.483087016269565">
        <ele>315.44999999999999</ele>
        <time>2019-05-05T07:34:23Z</time>
      </trkpt>
      <trkpt lat="51.109388004988432" lon="9.483168991282582">
        <ele>310.63999999999999</ele>
        <time>2019-05-05T07:34:29Z</time>
      </trkpt>
      <trkpt lat="51.112831961363554" lon="9.484285041689873">
        <ele>303.91000000000003</ele>
        <time>2019-05-05T07:34:39Z</time>
      </trkpt>
      <trkpt lat="51.115950029343367" lon="9.48490496724844">
        <ele>302.94999999999999</ele>
        <time>2019-05-05T07:34:48Z</time>
      </trkpt>
      <trkpt lat="51.118047013878822" lon="9.484541025012732">
        <ele>300.55000000000001</ele>
        <time>2019-05-05T07:34:54Z</time>
      </trkpt>
      <trkpt lat="51.120034027844667" lon="9.483547015115619">
        <ele>296.69999999999999</ele>
        <time>2019-05-05T07:35:00Z</time>
      </trkpt>
      <trkpt lat="51.122148027643561" lon="9.481644993647933">
        <ele>297.18000000000001</ele>
        <time>2019-05-05T07:35:07Z</time>
      </trkpt>
      <trkpt lat="51.124477023258805" lon="9.478293992578983">
        <ele>301.50999999999999</ele>
        <time>2019-05-05T07:35:16Z</time>
      </trkpt>
      <trkpt lat="51.126680038869381" lon="9.475526036694646">
        <ele>300.55000000000001</ele>
        <time>2019-05-05T07:35:24Z</time>
      </trkpt>
      <trkpt lat="51.128607960417867" lon="9.474198007956147">
        <ele>298.14999999999998</ele>
        <time>2019-05-05T07:35:30Z</time>
      </trkpt>
      <trkpt lat="51.130683990195394" lon="9.473613034933806">
        <ele>293.33999999999997</ele>
        <time>2019-05-05T07:35:36Z</time>
      </trkpt>
      <trkpt lat="51.13278298638761" lon="9.473862983286381">
        <ele>282.76999999999998</ele>
        <time>2019-05-05T07:35:42Z</time>
      </trkpt>
      <trkpt lat="51.136212022975087" lon="9.474844001233578">
        <ele>257.29000000000002</ele>
        <time>2019-05-05T07:35:52Z</time>
      </trkpt>
      <trkpt lat="51.139971977099776" lon="9.475596025586128">
        <ele>244.31</ele>
        <time>2019-05-05T07:36:03Z</time>
      </trkpt>
      <trkpt lat="51.144509017467499" lon="9.475833987817168">
        <ele>232.78</ele>
        <time>2019-05-05T07:36:16Z</time>
      </trkpt>
      <trkpt lat="51.148648001253605" lon="9.475991986691952">
        <ele>240.47</ele>
        <time>2019-05-05T07:36:28Z</time>
      </trkpt>
      <trkpt lat="51.150672985240817" lon="9.476790027692914">
        <ele>251.52000000000001</ele>
        <time>2019-05-05T07:36:34Z</time>
      </trkpt>
      <trkpt lat="51.152538964524865" lon="9.478316958993673">
        <ele>258.25</ele>
        <time>2019-05-05T07:36:40Z</time>
      </trkpt>
      <trkpt lat="51.155582014471292" lon="9.481086004525423">
        <ele>264.98000000000002</ele>
        <time>2019-05-05T07:36:50Z</time>
      </trkpt>
      <trkpt lat="51.15727499127388" lon="9.481704002246261">
        <ele>263.06</ele>
        <time>2019-05-05T07:36:55Z</time>
      </trkpt>
      <trkpt lat="51.159353032708168" lon="9.481610041111708">
        <ele>258.73000000000002</ele>
        <time>2019-05-05T07:37:01Z</time>
      </trkpt>
      <trkpt lat="51.161328982561827" lon="9.480574959889054">
        <ele>260.64999999999998</ele>
        <time>2019-05-05T07:37:07Z</time>
      </trkpt>
      <trkpt lat="51.16550400853157" lon="9.477786971256137">
        <ele>273.63</ele>
        <time>2019-05-05T07:37:20Z</time>
      </trkpt>
      <trkpt lat="51.170389987528324" lon="9.474515011534095">
        <ele>263.06</ele>
        <time>2019-05-05T07:37:35Z</time>
      </trkpt>
      <trkpt lat="51.173073034733534" lon="9.473197963088751">
        <ele>240.94999999999999</ele>
        <time>2019-05-05T07:37:43Z</time>
      </trkpt>
      <trkpt lat="51.175480987876654" lon="9.472837960347533">
        <ele>227.00999999999999</ele>
        <time>2019-05-05T07:37:50Z</time>
      </trkpt>
      <trkpt lat="51.178228994831443" lon="9.473187988623977">
        <ele>228.44999999999999</ele>
        <time>2019-05-05T07:37:58Z</time>
      </trkpt>
      <trkpt lat="51.182780032977462" lon="9.474022993817926">
        <ele>222.19999999999999</ele>
        <time>2019-05-05T07:38:11Z</time>
      </trkpt>
      <trkpt lat="51.185207013040781" lon="9.473749995231628">
        <ele>209.69999999999999</ele>
        <time>2019-05-05T07:38:18Z</time>
      </trkpt>
      <trkpt lat="51.187884025275707" lon="9.472668981179595">
        <ele>207.78</ele>
        <time>2019-05-05T07:38:26Z</time>
      </trkpt>
      <trkpt lat="51.19255400262773" lon="9.470437970012426">
        <ele>207.30000000000001</ele>
        <time>2019-05-05T07:38:40Z</time>
      </trkpt>
      <trkpt lat="51.196058979257941" lon="9.468776006251574">
        <ele>203.46000000000001</ele>
        <time>2019-05-05T07:38:51Z</time>
      </trkpt>
      <trkpt lat="51.199463959783316" lon="9.467172967270017">
        <ele>184.71000000000001</ele>
        <time>2019-05-05T07:39:03Z</time>
      </trkpt>
      <trkpt lat="51.201499002054334" lon="9.466896029189229">
        <ele>168.37</ele>
        <time>2019-05-05T07:39:10Z</time>
      </trkpt>
      <trkpt lat="51.203593974933028" lon="9.467346975579858">
        <ele>151.53999999999999</ele>
        <time>2019-05-05T07:39:17Z</time>
      </trkpt>
      <trkpt lat="51.205881983041763" lon="9.468699982389808">
        <ele>142.41</ele>
        <time>2019-05-05T07:39:25Z</time>
      </trkpt>
      <trkpt lat="51.209682002663612" lon="9.470995031297207">
        <ele>143.84999999999999</ele>
        <time>2019-05-05T07:39:38Z</time>
      </trkpt>
      <trkpt lat="51.213042978197336" lon="9.473061002790928">
        <ele>153.94999999999999</ele>
        <time>2019-05-05T07:39:49Z</time>
      </trkpt>
      <trkpt lat="51.216698996722698" lon="9.475312968716025">
        <ele>172.69</ele>
        <time>2019-05-05T07:40:01Z</time>
      </trkpt>
      <trkpt lat="51.221465030685067" lon="9.478260967880487">
        <ele>174.62</ele>
        <time>2019-05-05T07:40:16Z</time>
      </trkpt>
      <trkpt lat="51.22497595846653" lon="9.480723990127444">
        <ele>190.96000000000001</ele>
        <time>2019-05-05T07:40:27Z</time>
      </trkpt>
      <trkpt lat="51.227607959881425" lon="9.483557995408773">
        <ele>198.16999999999999</ele>
        <time>2019-05-05T07:40:36Z</time>
      </trkpt>
      <trkpt lat="51.231020987033844" lon="9.488456966355443">
        <ele>199.13</ele>
        <time>2019-05-05T07:40:49Z</time>
      </trkpt>
      <trkpt lat="51.234117010608315" lon="9.492985960096121">
        <ele>198.16999999999999</ele>
        <time>2019-05-05T07:41:01Z</time>
      </trkpt>
      <trkpt lat="51.238478031009436" lon="9.499404989182949">
        <ele>224.12</ele>
        <time>2019-05-05T07:41:18Z</time>
      </trkpt>
      <trkpt lat="51.241241963580251" lon="9.503637012094259">
        <ele>247.19999999999999</ele>
        <time>2019-05-05T07:41:29Z</time>
      </trkpt>
      <trkpt lat="51.243569031357765" lon="9.507800973951817">
        <ele>270.26999999999998</ele>
        <time>2019-05-05T07:41:39Z</time>
      </trkpt>
      <trkpt lat="51.246619960293174" lon="9.513332024216652">
        <ele>281.31999999999999</ele>
        <time>2019-05-05T07:41:52Z</time>
      </trkpt>
      <trkpt lat="51.248185029253364" lon="9.515565969049931">
        <ele>278.44</ele>
        <time>2019-05-05T07:41:58Z</time>
      </trkpt>
      <trkpt lat="51.250066012144089" lon="9.516978990286589">
        <ele>275.56</ele>
        <time>2019-05-05T07:42:04Z</time>
      </trkpt>
      <trkpt lat="51.25213198363781" lon="9.517500009387732">
        <ele>270.75</ele>
        <time>2019-05-05T07:42:10Z</time>
      </trkpt>
      <trkpt lat="51.255326997488737" lon="9.517310997471213">
        <ele>256.32999999999998</ele>
        <time>2019-05-05T07:42:19Z</time>
      </trkpt>
      <trkpt lat="51.258349008858204" lon="9.517093989998102">
        <ele>237.58000000000001</ele>
        <time>2019-05-05T07:42:28Z</time>
      </trkpt>
      <trkpt lat="51.261775027960539" lon="9.516833983361721">
        <ele>209.69999999999999</ele>
        <time>2019-05-05T07:42:39Z</time>
      </trkpt>
      <trkpt lat="51.26566800288856" lon="9.516710015013814">
        <ele>184.22999999999999</ele>
        <time>2019-05-05T07:42:52Z</time>
      </trkpt>
      <trkpt lat="51.267689969390631" lon="9.517418034374714">
        <ele>175.09999999999999</ele>
        <time>2019-05-05T07:42:59Z</time>
      </trkpt>
      <trkpt lat="51.269209021702409" lon="9.518526960164309">
        <ele>171.25</ele>
        <time>2019-05-05T07:43:05Z</time>
      </trkpt>
      <trkpt lat="51.270839972421527" lon="9.520468041300774">
        <ele>162.59999999999999</ele>
        <time>2019-05-05T07:43:13Z</time>
      </trkpt>
      <trkpt lat="51.272222986444831" lon="9.522797958925366">
        <ele>153.47</ele>
        <time>2019-05-05T07:43:22Z</time>
      </trkpt>
      <trkpt lat="51.27325102686882" lon="9.524593027308583">
        <ele>140.97</ele>
        <time>2019-05-05T07:43:29Z</time>
      </trkpt>
      <trkpt lat="51.274637980386615" lon="9.527025036513805">
        <ele>141.93000000000001</ele>
        <time>2019-05-05T07:43:38Z</time>
      </trkpt>
      <trkpt lat="51.276488034054637" lon="9.530269000679255">
        <ele>144.34</ele>
        <time>2019-05-05T07:43:50Z</time>
      </trkpt>
      <trkpt lat="51.278934963047504" lon="9.534531030803919">
        <ele>145.30000000000001</ele>
        <time>2019-05-05T07:44:06Z</time>
      </trkpt>
      <trkpt lat="51.281988993287086" lon="9.539893018081784">
        <ele>148.66</ele>
        <time>2019-05-05T07:44:26Z</time>
      </trkpt>
      <trkpt lat="51.284700036048889" lon="9.544728035107255">
        <ele>162.12</ele>
        <time>2019-05-05T07:44:44Z</time>
      </trkpt>
      <trkpt lat="51.287561031058431" lon="9.549849964678288">
        <ele>178.94</ele>
        <time>2019-05-05T07:45:03Z</time>
      </trkpt>
      <trkpt lat="51.289844010025263" lon="9.553927006199956">
        <ele>184.22999999999999</ele>
        <time>2019-05-05T07:45:18Z</time>
      </trkpt>
      <trkpt lat="51.291675958782434" lon="9.557141968980432">
        <ele>174.13999999999999</ele>
        <time>2019-05-05T07:45:30Z</time>
      </trkpt>
      <trkpt lat="51.293312022462487" lon="9.559683026745915">
        <ele>167.88999999999999</ele>
        <time>2019-05-05T07:45:40Z</time>
      </trkpt>
      <trkpt lat="51.294830990955234" lon="9.561235019937158">
        <ele>160.19999999999999</ele>
        <time>2019-05-05T07:45:48Z</time>
      </trkpt>
      <trkpt lat="51.296718008816242" lon="9.562351992353797">
        <ele>155.38999999999999</ele>
        <time>2019-05-05T07:45:57Z</time>
      </trkpt>
      <trkpt lat="51.298164976760745" lon="9.562768992036581">
        <ele>157.78999999999999</ele>
        <time>2019-05-05T07:46:03Z</time>
      </trkpt>
      <trkpt lat="51.300195995718241" lon="9.562674025073648">
        <ele>161.63999999999999</ele>
        <time>2019-05-05T07:46:12Z</time>
      </trkpt>
      <trkpt lat="51.302893962711096" lon="9.561819992959499">
        <ele>160.68000000000001</ele>
        <time>2019-05-05T07:46:24Z</time>
      </trkpt>
      <trkpt lat="51.305577009916306" lon="9.560883985832334">
        <ele>157.78999999999999</ele>
        <time>2019-05-05T07:46:34Z</time>
      </trkpt>
      <trkpt lat="51.308597009629011" lon="9.55999399535358">
        <ele>148.18000000000001</ele>
        <time>2019-05-05T07:46:44Z</time>
      </trkpt>
      <trkpt lat="51.31076498888433" lon="9.56014302559197">
        <ele>141.93000000000001</ele>
        <time>2019-05-05T07:46:51Z</time>
      </trkpt>
      <trkpt lat="51.313476031646132" lon="9.561226973310113">
        <ele>142.88999999999999</ele>
        <time>2019-05-05T07:47:00Z</time>
      </trkpt>
      <trkpt lat="51.317306980490685" lon="9.56302497535944">
        <ele>160.68000000000001</ele>
        <time>2019-05-05T07:47:13Z</time>
      </trkpt>
      <trkpt lat="51.319316038861871" lon="9.564236998558044">
        <ele>171.25</ele>
        <time>2019-05-05T07:47:20Z</time>
      </trkpt>
      <trkpt lat="51.321089984849095" lon="9.566182019189">
        <ele>175.58000000000001</ele>
        <time>2019-05-05T07:47:27Z</time>
      </trkpt>
      <trkpt lat="51.323156040161848" lon="9.56914602778852">
        <ele>178.46000000000001</ele>
        <time>2019-05-05T07:47:36Z</time>
      </trkpt>
      <trkpt lat="51.325440024957061" lon="9.572470039129257">
        <ele>194.31999999999999</ele>
        <time>2019-05-05T07:47:45Z</time>
      </trkpt>
      <trkpt lat="51.330145038664341" lon="9.579316964372993">
        <ele>233.25999999999999</ele>
        <time>2019-05-05T07:48:03Z</time>
      </trkpt>
      <trkpt lat="51.333811031654477" lon="9.584652967751026">
        <ele>260.17000000000002</ele>
        <time>2019-05-05T07:48:17Z</time>
      </trkpt>
      <trkpt lat="51.337249958887696" lon="9.589616982266307">
        <ele>281.31999999999999</ele>
        <time>2019-05-05T07:48:30Z</time>
      </trkpt>
      <trkpt lat="51.340173985809088" lon="9.593869959935546">
        <ele>288.05000000000001</ele>
        <time>2019-05-05T07:48:41Z</time>
      </trkpt>
      <trkpt lat="51.344142984598875" lon="9.599652970209718">
        <ele>270.75</ele>
        <time>2019-05-05T07:48:56Z</time>
      </trkpt>
      <trkpt lat="51.346390005201101" lon="9.602378010749817">
        <ele>277.95999999999998</ele>
        <time>2019-05-05T07:49:04Z</time>
      </trkpt>
      <trkpt lat="51.34971996769309" lon="9.605684000998735">
        <ele>290.45999999999998</ele>
        <time>2019-05-05T07:49:15Z</time>
      </trkpt>
      <trkpt lat="51.354587003588676" lon="9.610539972782135">
        <ele>284.20999999999998</ele>
        <time>2019-05-05T07:49:31Z</time>
      </trkpt>
      <trkpt lat="51.358766974881291" lon="9.614689014852047">
        <ele>286.13</ele>
        <time>2019-05-05T07:49:45Z</time>
      </trkpt>
      <trkpt lat="51.361668035387993" lon="9.617848992347717">
        <ele>291.42000000000002</ele>
        <time>2019-05-05T07:49:55Z</time>
      </trkpt>
      <trkpt lat="51.363107040524483" lon="9.620330035686493">
        <ele>299.11000000000001</ele>
        <time>2019-05-05T07:50:01Z</time>
      </trkpt>
      <trkpt lat="51.364383017644286" lon="9.623738033697009">
        <ele>311.60000000000002</ele>
        <time>2019-05-05T07:50:08Z</time>
      </trkpt>
      <trkpt lat="51.367179974913597" lon="9.632340967655182">
        <ele>348.62</ele>
        <time>2019-05-05T07:50:25Z</time>
      </trkpt>
      <trkpt lat="51.36980501934886" lon="9.640494966879487">
        <ele>364.48000000000002</ele>
        <time>2019-05-05T07:50:41Z</time>
      </trkpt>
      <trkpt lat="51.372648999094963" lon="9.64907200075686">
        <ele>359.19</ele>
        <time>2019-05-05T07:50:58Z</time>
      </trkpt>
      <trkpt lat="51.374111976474524" lon="9.652290986850858">
        <ele>355.82999999999998</ele>
        <time>2019-05-05T07:51:05Z</time>
      </trkpt>
      <trkpt lat="51.375967981293797" lon="9.654897004365921">
        <ele>356.79000000000002</ele>
        <time>2019-05-05T07:51:12Z</time>
      </trkpt>
      <trkpt lat="51.378139983862638" lon="9.65674202889204">
        <ele>365.92000000000002</ele>
        <time>2019-05-05T07:51:19Z</time>
      </trkpt>
      <trkpt lat="51.381814023479819" lon="9.65895401313901">
        <ele>373.61000000000001</ele>
        <time>2019-05-05T07:51:30Z</time>
      </trkpt>
      <trkpt lat="51.386539991945028" lon="9.66174803674221">
        <ele>357.26999999999998</ele>
        <time>2019-05-05T07:51:44Z</time>
      </trkpt>
      <trkpt lat="51.390563976019621" lon="9.664134029299021">
        <ele>334.19999999999999</ele>
        <time>2019-05-05T07:51:56Z</time>
      </trkpt>
      <trkpt lat="51.393472999334335" lon="9.666248029097915">
        <ele>317.37</ele>
        <time>2019-05-05T07:52:05Z</time>
      </trkpt>
      <trkpt lat="51.395445009693503" lon="9.668605020269752">
        <ele>314.49000000000001</ele>
        <time>2019-05-05T07:52:12Z</time>
      </trkpt>
      <trkpt lat="51.396808996796608" lon="9.671068964526057">
        <ele>314.49000000000001</ele>
        <time>2019-05-05T07:52:18Z</time>
      </trkpt>
      <trkpt lat="51.397632015869021" lon="9.673179024830461">
        <ele>311.12</ele>
        <time>2019-05-05T07:52:24Z</time>
      </trkpt>
      <trkpt lat="51.398320002481341" lon="9.675932982936502">
        <ele>302.94999999999999</ele>
        <time>2019-05-05T07:52:31Z</time>
      </trkpt>
      <trkpt lat="51.398628959432244" lon="9.678959017619491">
        <ele>294.77999999999997</ele>
        <time>2019-05-05T07:52:38Z</time>
      </trkpt>
      <trkpt lat="51.398456040769815" lon="9.682413032278419">
        <ele>289.97000000000003</ele>
        <time>2019-05-05T07:52:46Z</time>
      </trkpt>
      <trkpt lat="51.397813986986876" lon="9.685733020305634">
        <ele>289.00999999999999</ele>
        <time>2019-05-05T07:52:54Z</time>
      </trkpt>
      <trkpt lat="51.397086018696427" lon="9.689523987472057">
        <ele>287.56999999999999</ele>
        <time>2019-05-05T07:53:03Z</time>
      </trkpt>
      <trkpt lat="51.396918967366219" lon="9.693060982972384">
        <ele>277.48000000000002</ele>
        <time>2019-05-05T07:53:11Z</time>
      </trkpt>
      <trkpt lat="51.397234965115786" lon="9.696107972413302">
        <ele>263.54000000000002</ele>
        <time>2019-05-05T07:53:18Z</time>
      </trkpt>
      <trkpt lat="51.397982966154814" lon="9.698933009058237">
        <ele>247.68000000000001</ele>
        <time>2019-05-05T07:53:25Z</time>
      </trkpt>
      <trkpt lat="51.399253997951746" lon="9.701779000461102">
        <ele>227.97</ele>
        <time>2019-05-05T07:53:33Z</time>
      </trkpt>
      <trkpt lat="51.400731978937984" lon="9.704355010762811">
        <ele>209.69999999999999</ele>
        <time>2019-05-05T07:53:41Z</time>
      </trkpt>
      <trkpt lat="51.402235021814704" lon="9.708019997924566">
        <ele>189.52000000000001</ele>
        <time>2019-05-05T07:53:51Z</time>
      </trkpt>
      <trkpt lat="51.403420977294445" lon="9.710965985432267">
        <ele>178.94</ele>
        <time>2019-05-05T07:53:59Z</time>
      </trkpt>
      <trkpt lat="51.405439004302025" lon="9.716081963852048">
        <ele>172.69</ele>
        <time>2019-05-05T07:54:13Z</time>
      </trkpt>
      <trkpt lat="51.406854959204793" lon="9.720320021733642">
        <ele>182.78999999999999</ele>
        <time>2019-05-05T07:54:24Z</time>
      </trkpt>
      <trkpt lat="51.407603966072202" lon="9.724022978916764">
        <ele>192.88</ele>
        <time>2019-05-05T07:54:32Z</time>
      </trkpt>
      <trkpt lat="51.40791904181242" lon="9.727876977995038">
        <ele>199.13</ele>
        <time>2019-05-05T07:54:40Z</time>
      </trkpt>
      <trkpt lat="51.407806975767016" lon="9.732307987287641">
        <ele>204.90000000000001</ele>
        <time>2019-05-05T07:54:49Z</time>
      </trkpt>
      <trkpt lat="51.407237006351352" lon="9.739162959158421">
        <ele>208.74000000000001</ele>
        <time>2019-05-05T07:55:03Z</time>
      </trkpt>
      <trkpt lat="51.406466960906982" lon="9.743571002036333">
        <ele>203.46000000000001</ele>
        <time>2019-05-05T07:55:12Z</time>
      </trkpt>
      <trkpt lat="51.405266001820564" lon="9.747723983600736">
        <ele>200.56999999999999</ele>
        <time>2019-05-05T07:55:21Z</time>
      </trkpt>
      <trkpt lat="51.403492977842689" lon="9.752022977918387">
        <ele>197.21000000000001</ele>
        <time>2019-05-05T07:55:31Z</time>
      </trkpt>
      <trkpt lat="51.400373987853527" lon="9.759262008592486">
        <ele>178.94</ele>
        <time>2019-05-05T07:55:48Z</time>
      </trkpt>
      <trkpt lat="51.39764903113246" lon="9.765614988282323">
        <ele>174.13999999999999</ele>
        <time>2019-05-05T07:56:03Z</time>
      </trkpt>
      <trkpt lat="51.396163003519177" lon="9.769640984013677">
        <ele>170.77000000000001</ele>
        <time>2019-05-05T07:56:12Z</time>
      </trkpt>
      <trkpt lat="51.395283993333578" lon="9.773486014455557">
        <ele>169.81</ele>
        <time>2019-05-05T07:56:20Z</time>
      </trkpt>
      <trkpt lat="51.39505198225379" lon="9.777048993855715">
        <ele>175.58000000000001</ele>
        <time>2019-05-05T07:56:27Z</time>
      </trkpt>
      <trkpt lat="51.395381977781653" lon="9.780620019882917">
        <ele>180.38</ele>
        <time>2019-05-05T07:56:34Z</time>
      </trkpt>
      <trkpt lat="51.396229974925518" lon="9.783954005688429">
        <ele>183.27000000000001</ele>
        <time>2019-05-05T07:56:41Z</time>
      </trkpt>
      <trkpt lat="51.398047003895044" lon="9.789368966594338">
        <ele>188.08000000000001</ele>
        <time>2019-05-05T07:56:53Z</time>
      </trkpt>
      <trkpt lat="51.400604993104935" lon="9.797065984457731">
        <ele>221.24000000000001</ele>
        <time>2019-05-05T07:57:10Z</time>
      </trkpt>
      <trkpt lat="51.402584966272116" lon="9.803565982729197">
        <ele>237.09999999999999</ele>
        <time>2019-05-05T07:57:24Z</time>
      </trkpt>
      <trkpt lat="51.404966013506055" lon="9.811409013345838">
        <ele>262.10000000000002</ele>
        <time>2019-05-05T07:57:41Z</time>
      </trkpt>
      <trkpt lat="51.406829981133342" lon="9.817424034699798">
        <ele>275.06999999999999</ele>
        <time>2019-05-05T07:57:54Z</time>
      </trkpt>
      <trkpt lat="51.40850099734962" lon="9.822339015081525">
        <ele>295.25999999999999</ele>
        <time>2019-05-05T07:58:05Z</time>
      </trkpt>
      <trkpt lat="51.410468984395266" lon="9.826426031067967">
        <ele>311.60000000000002</ele>
        <time>2019-05-05T07:58:15Z</time>
      </trkpt>
      <trkpt lat="51.414017966017127" lon="9.833132978528738">
        <ele>302.47000000000003</ele>
        <time>2019-05-05T07:58:32Z</time>
      </trkpt>
      <trkpt lat="51.416403958573937" lon="9.837297024205327">
        <ele>281.31999999999999</ele>
        <time>2019-05-05T07:58:43Z</time>
      </trkpt>
      <trkpt lat="51.418371023610234" lon="9.839878985658288">
        <ele>267.38</ele>
        <time>2019-05-05T07:58:51Z</time>
      </trkpt>
      <trkpt lat="51.42057403922081" lon="9.841968007385731">
        <ele>264.5</ele>
        <time>2019-05-05T07:58:59Z</time>
      </trkpt>
      <trkpt lat="51.423254990950227" lon="9.843723010271788">
        <ele>268.35000000000002</ele>
        <time>2019-05-05T07:59:08Z</time>
      </trkpt>
      <trkpt lat="51.427043024450541" lon="9.845263017341495">
        <ele>262.57999999999998</ele>
        <time>2019-05-05T07:59:20Z</time>
      </trkpt>
      <trkpt lat="51.433666991069913" lon="9.847711035981774">
        <ele>238.06</ele>
        <time>2019-05-05T07:59:41Z</time>
      </trkpt>
      <trkpt lat="51.437396015971899" lon="9.849470984190702">
        <ele>219.31999999999999</ele>
        <time>2019-05-05T07:59:53Z</time>
      </trkpt>
      <trkpt lat="51.439983006566763" lon="9.85148498788476">
        <ele>207.78</ele>
        <time>2019-05-05T08:00:02Z</time>
      </trkpt>
      <trkpt lat="51.442996971309185" lon="9.854434998705983">
        <ele>202.49000000000001</ele>
        <time>2019-05-05T08:00:13Z</time>
      </trkpt>
      <trkpt lat="51.447625961154699" lon="9.859009003266692">
        <ele>216.91</ele>
        <time>2019-05-05T08:00:30Z</time>
      </trkpt>
      <trkpt lat="51.451210984960198" lon="9.862609030678868">
        <ele>214.03</ele>
        <time>2019-05-05T08:00:43Z</time>
      </trkpt>
      <trkpt lat="51.454239031299949" lon="9.865590976551175">
        <ele>198.16999999999999</ele>
        <time>2019-05-05T08:00:54Z</time>
      </trkpt>
      <trkpt lat="51.45714595913887" lon="9.867742024362087">
        <ele>193.84</ele>
        <time>2019-05-05T08:01:04Z</time>
      </trkpt>
      <trkpt lat="51.459866976365447" lon="9.869065023958683">
        <ele>198.16999999999999</ele>
        <time>2019-05-05T08:01:12Z</time>
      </trkpt>
      <trkpt lat="51.46343800239265" lon="9.870113013312221">
        <ele>193.84</ele>
        <time>2019-05-05T08:01:22Z</time>
      </trkpt>
      <trkpt lat="51.468433029949665" lon="9.871385972946882">
        <ele>176.53999999999999</ele>
        <time>2019-05-05T08:01:36Z</time>
      </trkpt>
      <trkpt lat="51.473440965637565" lon="9.872600007802248">
        <ele>174.13999999999999</ele>
        <time>2019-05-05T08:01:50Z</time>
      </trkpt>
      <trkpt lat="51.478804964572191" lon="9.873902974650264">
        <ele>172.69</ele>
        <time>2019-05-05T08:02:05Z</time>
      </trkpt>
      <trkpt lat="51.483481982722878" lon="9.875038973987103">
        <ele>178.94</ele>
        <time>2019-05-05T08:02:18Z</time>
      </trkpt>
      <trkpt lat="51.488102003931999" lon="9.87617002800107">
        <ele>180.38</ele>
        <time>2019-05-05T08:02:31Z</time>
      </trkpt>
      <trkpt lat="51.49276502430439" lon="9.877261016517878">
        <ele>180.38</ele>
        <time>2019-05-05T08:02:44Z</time>
      </trkpt>
      <trkpt lat="51.497781006619334" lon="9.878012035042048">
        <ele>177.5</ele>
        <time>2019-05-05T08:02:58Z</time>
      </trkpt>
      <trkpt lat="51.503214994445443" lon="9.878227030858398">
        <ele>176.06</ele>
        <time>2019-05-05T08:03:13Z</time>
      </trkpt>
      <trkpt lat="51.508632972836494" lon="9.878455018624663">
        <ele>178.46000000000001</ele>
        <time>2019-05-05T08:03:28Z</time>
      </trkpt>
      <trkpt lat="51.514411959797144" lon="9.878659034147859">
        <ele>178.46000000000001</ele>
        <time>2019-05-05T08:03:44Z</time>
      </trkpt>
      <trkpt lat="51.517316037788987" lon="9.87877101637423">
        <ele>179.41999999999999</ele>
        <time>2019-05-05T08:03:52Z</time>
      </trkpt>
      <trkpt lat="51.520207962021232" lon="9.878886016085744">
        <ele>177.5</ele>
        <time>2019-05-05T08:04:00Z</time>
      </trkpt>
      <trkpt lat="51.525260992348194" lon="9.87909103743732">
        <ele>177.02000000000001</ele>
        <time>2019-05-05T08:04:14Z</time>
      </trkpt>
      <trkpt lat="51.529253041371703" lon="9.879260016605258">
        <ele>173.16999999999999</ele>
        <time>2019-05-05T08:04:25Z</time>
      </trkpt>
      <trkpt lat="51.533956965431571" lon="9.87930997274816">
        <ele>165.96000000000001</ele>
        <time>2019-05-05T08:04:38Z</time>
      </trkpt>
      <trkpt lat="51.539020976051688" lon="9.879326988011599">
        <ele>169.81</ele>
        <time>2019-05-05T08:04:52Z</time>
      </trkpt>
      <trkpt lat="51.544064031913877" lon="9.879326988011599">
        <ele>176.53999999999999</ele>
        <time>2019-05-05T08:05:06Z</time>
      </trkpt>
      <trkpt lat="51.550621027126908" lon="9.879326988011599">
        <ele>177.02000000000001</ele>
        <time>2019-05-05T08:05:24Z</time>
      </trkpt>
      <trkpt lat="51.5549679659307" lon="9.879325982183218">
        <ele>166.93000000000001</ele>
        <time>2019-05-05T08:05:36Z</time>
      </trkpt>
      <trkpt lat="51.56001303344965" lon="9.879347020760179">
        <ele>165.96000000000001</ele>
        <time>2019-05-05T08:05:50Z</time>
      </trkpt>
      <trkpt lat="51.562515031546354" lon="9.879773994907737">
        <ele>162.59999999999999</ele>
        <time>2019-05-05T08:05:57Z</time>
      </trkpt>
      <trkpt lat="51.564523000270128" lon="9.881064975634217">
        <ele>159.72</ele>
        <time>2019-05-05T08:06:03Z</time>
      </trkpt>
      <trkpt lat="51.56626702286303" lon="9.883069004863501">
        <ele>158.27000000000001</ele>
        <time>2019-05-05T08:06:09Z</time>
      </trkpt>
      <trkpt lat="51.567687001079321" lon="9.885658007115126">
        <ele>158.27000000000001</ele>
        <time>2019-05-05T08:06:15Z</time>
      </trkpt>
      <trkpt lat="51.568648992106318" lon="9.888754030689597">
        <ele>160.19999999999999</ele>
        <time>2019-05-05T08:06:21Z</time>
      </trkpt>
      <trkpt lat="51.569521967321634" lon="9.894409971311688">
        <ele>161.16</ele>
        <time>2019-05-05T08:06:31Z</time>
      </trkpt>
      <trkpt lat="51.57043500803411" lon="9.899400975555182">
        <ele>157.78999999999999</ele>
        <time>2019-05-05T08:06:40Z</time>
      </trkpt>
      <trkpt lat="51.571586010977626" lon="9.902321984991431">
        <ele>155.38999999999999</ele>
        <time>2019-05-05T08:06:46Z</time>
      </trkpt>
      <trkpt lat="51.573845017701387" lon="9.906074982136488">
        <ele>152.03</ele>
        <time>2019-05-05T08:06:55Z</time>
      </trkpt>
      <trkpt lat="51.576414993032813" lon="9.909259015694261">
        <ele>144.81999999999999</ele>
        <time>2019-05-05T08:07:04Z</time>
      </trkpt>
      <trkpt lat="51.578933000564575" lon="9.911512993276119">
        <ele>139.05000000000001</ele>
        <time>2019-05-05T08:07:12Z</time>
      </trkpt>
      <trkpt lat="51.581010958179832" lon="9.912404995411634">
        <ele>136.63999999999999</ele>
        <time>2019-05-05T08:07:18Z</time>
      </trkpt>
      <trkpt lat="51.583159994333982" lon="9.912544973194599">
        <ele>137.13</ele>
        <time>2019-05-05T08:07:24Z</time>
      </trkpt>
      <trkpt lat="51.585296960547566" lon="9.911866039037705">
        <ele>138.56999999999999</ele>
        <time>2019-05-05T08:07:30Z</time>
      </trkpt>
      <trkpt lat="51.587599972262979" lon="9.910166021436453">
        <ele>138.09</ele>
        <time>2019-05-05T08:07:37Z</time>
      </trkpt>
      <trkpt lat="51.59271796233952" lon="9.90579997189343">
        <ele>136.63999999999999</ele>
        <time>2019-05-05T08:07:53Z</time>
      </trkpt>
      <trkpt lat="51.595482984557748" lon="9.904459035024047">
        <ele>134.24000000000001</ele>
        <time>2019-05-05T08:08:01Z</time>
      </trkpt>
      <trkpt lat="51.597976014018059" lon="9.904040023684502">
        <ele>134.24000000000001</ele>
        <time>2019-05-05T08:08:08Z</time>
      </trkpt>
      <trkpt lat="51.600487986579537" lon="9.904332971200347">
        <ele>133.75999999999999</ele>
        <time>2019-05-05T08:08:15Z</time>
      </trkpt>
      <trkpt lat="51.603665985167027" lon="9.905511969700456">
        <ele>132.31999999999999</ele>
        <time>2019-05-05T08:08:24Z</time>
      </trkpt>
      <trkpt lat="51.607872024178505" lon="9.907221961766481">
        <ele>132.80000000000001</ele>
        <time>2019-05-05T08:08:36Z</time>
      </trkpt>
      <trkpt lat="51.610369998961687" lon="9.907836019992828">
        <ele>137.13</ele>
        <time>2019-05-05T08:08:43Z</time>
      </trkpt>
      <trkpt lat="51.614702017977834" lon="9.908713018521667">
        <ele>129.91999999999999</ele>
        <time>2019-05-05T08:08:55Z</time>
      </trkpt>
      <trkpt lat="51.617424041032791" lon="9.910237016156316">
        <ele>127.03</ele>
        <time>2019-05-05T08:09:03Z</time>
      </trkpt>
      <trkpt lat="51.622054958716035" lon="9.913520039990544">
        <ele>135.68000000000001</ele>
        <time>2019-05-05T08:09:17Z</time>
      </trkpt>
      <trkpt lat="51.626737006008625" lon="9.916871041059494">
        <ele>138.09</ele>
        <time>2019-05-05T08:09:31Z</time>
      </trkpt>
      <trkpt lat="51.630343990400434" lon="9.919372033327818">
        <ele>153.47</ele>
        <time>2019-05-05T08:09:42Z</time>
      </trkpt>
      <trkpt lat="51.632415996864438" lon="9.920271998271346">
        <ele>158.27000000000001</ele>
        <time>2019-05-05T08:09:48Z</time>
      </trkpt>
      <trkpt lat="51.635647974908352" lon="9.920807015150785">
        <ele>160.68000000000001</ele>
        <time>2019-05-05T08:09:57Z</time>
      </trkpt>
      <trkpt lat="51.640333961695433" lon="9.921660963445902">
        <ele>161.63999999999999</ele>
        <time>2019-05-05T08:10:10Z</time>
      </trkpt>
      <trkpt lat="51.642859010025859" lon="9.921429036185145">
        <ele>157.78999999999999</ele>
        <time>2019-05-05T08:10:17Z</time>
      </trkpt>
      <trkpt lat="51.645657978951931" lon="9.920318014919758">
        <ele>155.38999999999999</ele>
        <time>2019-05-05T08:10:25Z</time>
      </trkpt>
      <trkpt lat="51.650879988446832" lon="9.918056996539235">
        <ele>172.21000000000001</ele>
        <time>2019-05-05T08:10:40Z</time>
      </trkpt>
      <trkpt lat="51.655432032421231" lon="9.916095966473222">
        <ele>187.59</ele>
        <time>2019-05-05T08:10:53Z</time>
      </trkpt>
      <trkpt lat="51.65781601332128" lon="9.915516022592783">
        <ele>190</ele>
        <time>2019-05-05T08:11:00Z</time>
      </trkpt>
      <trkpt lat="51.659713005647063" lon="9.915807964280248">
        <ele>190.47999999999999</ele>
        <time>2019-05-05T08:11:07Z</time>
      </trkpt>
      <trkpt lat="51.66176799684763" lon="9.916741959750652">
        <ele>192.88</ele>
        <time>2019-05-05T08:11:16Z</time>
      </trkpt>
      <trkpt lat="51.663247989490628" lon="9.917549975216389">
        <ele>196.25</ele>
        <time>2019-05-05T08:11:24Z</time>
      </trkpt>
      <trkpt lat="51.664678025990725" lon="9.918381040915847">
        <ele>200.56999999999999</ele>
        <time>2019-05-05T08:11:34Z</time>
      </trkpt>
      <trkpt lat="51.666205041110516" lon="9.919235995039344">
        <ele>206.34</ele>
        <time>2019-05-05T08:11:45Z</time>
      </trkpt>
      <trkpt lat="51.668025003746152" lon="9.920233022421598">
        <ele>213.06999999999999</ele>
        <time>2019-05-05T08:11:58Z</time>
      </trkpt>
      <trkpt lat="51.66965302079916" lon="9.921116977930069">
        <ele>215.94999999999999</ele>
        <time>2019-05-05T08:12:09Z</time>
      </trkpt>
      <trkpt lat="51.671508019790053" lon="9.922154992818832">
        <ele>214.03</ele>
        <time>2019-05-05T08:12:22Z</time>
      </trkpt>
      <trkpt lat="51.673255981877446" lon="9.923123018816114">
        <ele>205.38</ele>
        <time>2019-05-05T08:12:34Z</time>
      </trkpt>
      <trkpt lat="51.674765981733799" lon="9.923934973776341">
        <ele>199.13</ele>
        <time>2019-05-05T08:12:44Z</time>
      </trkpt>
      <trkpt lat="51.676871012896299" lon="9.925082959234715">
        <ele>186.63</ele>
        <time>2019-05-05T08:12:57Z</time>
      </trkpt>
      <trkpt lat="51.679170001298189" lon="9.926243014633656">
        <ele>176.06</ele>
        <time>2019-05-05T08:13:09Z</time>
      </trkpt>
      <trkpt lat="51.681164978072047" lon="9.926927983760834">
        <ele>168.37</ele>
        <time>2019-05-05T08:13:19Z</time>
      </trkpt>
      <trkpt lat="51.684084981679916" lon="9.927509017288685">
        <ele>162.12</ele>
        <time>2019-05-05T08:13:33Z</time>
      </trkpt>
      <trkpt lat="51.686546998098493" lon="9.928375035524368">
        <ele>154.91</ele>
        <time>2019-05-05T08:13:45Z</time>
      </trkpt>
      <trkpt lat="51.68843099847436" lon="9.929847987368703">
        <ele>152.03</ele>
        <time>2019-05-05T08:13:55Z</time>
      </trkpt>
      <trkpt lat="51.69066502712667" lon="9.932412011548877">
        <ele>148.18000000000001</ele>
        <time>2019-05-05T08:14:08Z</time>
      </trkpt>
      <trkpt lat="51.693141963332891" lon="9.934988021850586">
        <ele>140.97</ele>
        <time>2019-05-05T08:14:22Z</time>
      </trkpt>
      <trkpt lat="51.695270966738462" lon="9.93648000061512">
        <ele>133.28</ele>
        <time>2019-05-05T08:14:33Z</time>
      </trkpt>
      <trkpt lat="51.697700964286923" lon="9.937579035758972">
        <ele>127.03</ele>
        <time>2019-05-05T08:14:45Z</time>
      </trkpt>
      <trkpt lat="51.700182007625699" lon="9.938079016283155">
        <ele>127.03</ele>
        <time>2019-05-05T08:14:57Z</time>
      </trkpt>
      <trkpt lat="51.703377021476626" lon="9.938227962702513">
        <ele>131.84</ele>
        <time>2019-05-05T08:15:12Z</time>
      </trkpt>
      <trkpt lat="51.707143010571599" lon="9.938420997932553">
        <ele>136.16</ele>
        <time>2019-05-05T08:15:30Z</time>
      </trkpt>
      <trkpt lat="51.710065025836229" lon="9.938962971791625">
        <ele>143.37</ele>
        <time>2019-05-05T08:15:44Z</time>
      </trkpt>
      <trkpt lat="51.713145961984992" lon="9.940141970291734">
        <ele>149.62</ele>
        <time>2019-05-05T08:15:59Z</time>
      </trkpt>
      <trkpt lat="51.716307029128075" lon="9.942072993144393">
        <ele>144.81999999999999</ele>
        <time>2019-05-05T08:16:15Z</time>
      </trkpt>
      <trkpt lat="51.719311019405723" lon="9.944577002897859">
        <ele>131.84</ele>
        <time>2019-05-05T08:16:31Z</time>
      </trkpt>
      <trkpt lat="51.72141102142632" lon="9.946826035156846">
        <ele>124.63</ele>
        <time>2019-05-05T08:16:43Z</time>
      </trkpt>
      <trkpt lat="51.722749024629593" lon="9.948517000302672">
        <ele>122.70999999999999</ele>
        <time>2019-05-05T08:16:52Z</time>
      </trkpt>
      <trkpt lat="51.724663032218814" lon="9.951387969776988">
        <ele>118.86</ele>
        <time>2019-05-05T08:17:07Z</time>
      </trkpt>
      <trkpt lat="51.72637696377933" lon="9.954486005008221">
        <ele>114.05</ele>
        <time>2019-05-05T08:17:21Z</time>
      </trkpt>
      <trkpt lat="51.728062983602285" lon="9.958272026851773">
        <ele>115.98</ele>
        <time>2019-05-05T08:17:37Z</time>
      </trkpt>
      <trkpt lat="51.729556974023581" lon="9.962206995114684">
        <ele>122.22</ele>
        <time>2019-05-05T08:17:52Z</time>
      </trkpt>
      <trkpt lat="51.730560036376119" lon="9.964974028989673">
        <ele>122.70999999999999</ele>
        <time>2019-05-05T08:18:03Z</time>
      </trkpt>
      <trkpt lat="51.731397975236177" lon="9.967205040156841">
        <ele>124.15000000000001</ele>
        <time>2019-05-05T08:18:11Z</time>
      </trkpt>
      <trkpt lat="51.732956003397703" lon="9.971390962600708">
        <ele>129.91999999999999</ele>
        <time>2019-05-05T08:18:26Z</time>
      </trkpt>
      <trkpt lat="51.734176995232701" lon="9.974649008363485">
        <ele>135.68000000000001</ele>
        <time>2019-05-05T08:18:38Z</time>
      </trkpt>
      <trkpt lat="51.735493959859014" lon="9.978197989985347">
        <ele>146.74000000000001</ele>
        <time>2019-05-05T08:18:50Z</time>
      </trkpt>
      <trkpt lat="51.736627025529742" lon="9.981904970481992">
        <ele>159.72</ele>
        <time>2019-05-05T08:19:01Z</time>
      </trkpt>
      <trkpt lat="51.737363962456584" lon="9.985253037884831">
        <ele>167.88999999999999</ele>
        <time>2019-05-05T08:19:11Z</time>
      </trkpt>
      <trkpt lat="51.737887999042869" lon="9.988536983728409">
        <ele>173.16999999999999</ele>
        <time>2019-05-05T08:19:21Z</time>
      </trkpt>
      <trkpt lat="51.738246995955706" lon="9.992925999686122">
        <ele>175.58000000000001</ele>
        <time>2019-05-05T08:19:33Z</time>
      </trkpt>
      <trkpt lat="51.738714035600424" lon="9.996697017922998">
        <ele>175.58000000000001</ele>
        <time>2019-05-05T08:19:43Z</time>
      </trkpt>
      <trkpt lat="51.739626992493868" lon="10.000080959871411">
        <ele>173.66</ele>
        <time>2019-05-05T08:19:52Z</time>
      </trkpt>
      <trkpt lat="51.740905987098813" lon="10.003038011491299">
        <ele>174.62</ele>
        <time>2019-05-05T08:20:00Z</time>
      </trkpt>
      <trkpt lat="51.742405006662011" lon="10.005311015993357">
        <ele>174.13999999999999</ele>
        <time>2019-05-05T08:20:07Z</time>
      </trkpt>
      <trkpt lat="51.744094965979457" lon="10.007045986130834">
        <ele>174.62</ele>
        <time>2019-05-05T08:20:15Z</time>
      </trkpt>
      <trkpt lat="51.746059013530612" lon="10.008367979899049">
        <ele>175.09999999999999</ele>
        <time>2019-05-05T08:20:24Z</time>
      </trkpt>
      <trkpt lat="51.748690009117126" lon="10.009458968415856">
        <ele>175.58000000000001</ele>
        <time>2019-05-05T08:20:36Z</time>
      </trkpt>
      <trkpt lat="51.751227965578437" lon="10.010469993576407">
        <ele>177.97999999999999</ele>
        <time>2019-05-05T08:20:48Z</time>
      </trkpt>
      <trkpt lat="51.753262002021074" lon="10.011280020698905">
        <ele>177.02000000000001</ele>
        <time>2019-05-05T08:20:58Z</time>
      </trkpt>
      <trkpt lat="51.755181038752198" lon="10.012045037001371">
        <ele>177.02000000000001</ele>
        <time>2019-05-05T08:21:08Z</time>
      </trkpt>
      <trkpt lat="51.75769804045558" lon="10.013386979699135">
        <ele>181.34999999999999</ele>
        <time>2019-05-05T08:21:21Z</time>
      </trkpt>
      <trkpt lat="51.760186040773988" lon="10.015253964811563">
        <ele>184.71000000000001</ele>
        <time>2019-05-05T08:21:34Z</time>
      </trkpt>
      <trkpt lat="51.762762973085046" lon="10.01793097704649">
        <ele>187.59</ele>
        <time>2019-05-05T08:21:49Z</time>
      </trkpt>
      <trkpt lat="51.765107978135347" lon="10.020635984838009">
        <ele>190</ele>
        <time>2019-05-05T08:22:02Z</time>
      </trkpt>
      <trkpt lat="51.767117958515882" lon="10.022820979356766">
        <ele>186.63</ele>
        <time>2019-05-05T08:22:13Z</time>
      </trkpt>
      <trkpt lat="51.769231036305428" lon="10.024799024686217">
        <ele>180.38</ele>
        <time>2019-05-05T08:22:25Z</time>
      </trkpt>
      <trkpt lat="51.771660028025508" lon="10.026757037267089">
        <ele>172.69</ele>
        <time>2019-05-05T08:22:38Z</time>
      </trkpt>
      <trkpt lat="51.773679982870817" lon="10.028195958584547">
        <ele>166.44999999999999</ele>
        <time>2019-05-05T08:22:49Z</time>
      </trkpt>
      <trkpt lat="51.77641399204731" lon="10.029958002269268">
        <ele>163.56</ele>
        <time>2019-05-05T08:23:05Z</time>
      </trkpt>
      <trkpt lat="51.778404023498297" lon="10.031469007954001">
        <ele>160.19999999999999</ele>
        <time>2019-05-05T08:23:16Z</time>
      </trkpt>
      <trkpt lat="51.780510982498527" lon="10.033568004146218">
        <ele>153.94999999999999</ele>
        <time>2019-05-05T08:23:28Z</time>
      </trkpt>
      <trkpt lat="51.782301021739841" lon="10.035958020016551">
        <ele>146.25999999999999</ele>
        <time>2019-05-05T08:23:38Z</time>
      </trkpt>
      <trkpt lat="51.784388031810522" lon="10.039572967216372">
        <ele>137.61000000000001</ele>
        <time>2019-05-05T08:23:51Z</time>
      </trkpt>
      <trkpt lat="51.786370016634464" lon="10.043722009286284">
        <ele>134.24000000000001</ele>
        <time>2019-05-05T08:24:05Z</time>
      </trkpt>
      <trkpt lat="51.787315998226404" lon="10.045980010181665">
        <ele>130.40000000000001</ele>
        <time>2019-05-05T08:24:13Z</time>
      </trkpt>
      <trkpt lat="51.788450991734862" lon="10.04919396713376">
        <ele>127.98999999999999</ele>
        <time>2019-05-05T08:24:26Z</time>
      </trkpt>
      <trkpt lat="51.78932698443532" lon="10.052034007385373">
        <ele>126.55</ele>
        <time>2019-05-05T08:24:37Z</time>
      </trkpt>
      <trkpt lat="51.790158972144127" lon="10.055267997086048">
        <ele>127.51000000000001</ele>
        <time>2019-05-05T08:24:48Z</time>
      </trkpt>
      <trkpt lat="51.791061032563448" lon="10.05963396281004">
        <ele>131.36000000000001</ele>
        <time>2019-05-05T08:25:03Z</time>
      </trkpt>
      <trkpt lat="51.791629996150732" lon="10.063475975766778">
        <ele>136.16</ele>
        <time>2019-05-05T08:25:17Z</time>
      </trkpt>
      <trkpt lat="51.79199100472033" lon="10.066640982404351">
        <ele>148.18000000000001</ele>
        <time>2019-05-05T08:25:29Z</time>
      </trkpt>
      <trkpt lat="51.792168030515313" lon="10.068489024415612">
        <ele>152.03</ele>
        <time>2019-05-05T08:25:35Z</time>
      </trkpt>
      <trkpt lat="51.792411021888256" lon="10.070887003093958">
        <ele>154.91</ele>
        <time>2019-05-05T08:25:43Z</time>
      </trkpt>
      <trkpt lat="51.792801031842828" lon="10.07359704002738">
        <ele>158.75</ele>
        <time>2019-05-05T08:25:53Z</time>
      </trkpt>
      <trkpt lat="51.793499998748302" lon="10.076522994786501">
        <ele>163.08000000000001</ele>
        <time>2019-05-05T08:26:03Z</time>
      </trkpt>
      <trkpt lat="51.794557040557265" lon="10.079462025314569">
        <ele>165</ele>
        <time>2019-05-05T08:26:12Z</time>
      </trkpt>
      <trkpt lat="51.79579303599894" lon="10.082022026181221">
        <ele>166.44999999999999</ele>
        <time>2019-05-05T08:26:19Z</time>
      </trkpt>
      <trkpt lat="51.797649962827563" lon="10.084699038416147">
        <ele>169.33000000000001</ele>
        <time>2019-05-05T08:26:27Z</time>
      </trkpt>
      <trkpt lat="51.799880973994732" lon="10.086936000734568">
        <ele>172.69</ele>
        <time>2019-05-05T08:26:35Z</time>
      </trkpt>
      <trkpt lat="51.802937015891075" lon="10.089287040755153">
        <ele>180.38</ele>
        <time>2019-05-05T08:26:45Z</time>
      </trkpt>
      <trkpt lat="51.806134963408113" lon="10.092414999380708">
        <ele>190</ele>
        <time>2019-05-05T08:26:56Z</time>
      </trkpt>
      <trkpt lat="51.809059996157885" lon="10.09618098847568">
        <ele>193.84</ele>
        <time>2019-05-05T08:27:07Z</time>
      </trkpt>
      <trkpt lat="51.812313012778759" lon="10.101068979129195">
        <ele>193.36000000000001</ele>
        <time>2019-05-05T08:27:20Z</time>
      </trkpt>
      <trkpt lat="51.814925987273455" lon="10.104376981034875">
        <ele>196.25</ele>
        <time>2019-05-05T08:27:30Z</time>
      </trkpt>
      <trkpt lat="51.816659029573202" lon="10.106162996962667">
        <ele>200.56999999999999</ele>
        <time>2019-05-05T08:27:38Z</time>
      </trkpt>
      <trkpt lat="51.81873899884522" lon="10.10799603536725">
        <ele>206.34</ele>
        <time>2019-05-05T08:27:49Z</time>
      </trkpt>
      <trkpt lat="51.821273015812039" lon="10.109772998839617">
        <ele>216.91</ele>
        <time>2019-05-05T08:28:03Z</time>
      </trkpt>
      <trkpt lat="51.822900027036667" lon="10.110711017623544">
        <ele>219.80000000000001</ele>
        <time>2019-05-05T08:28:12Z</time>
      </trkpt>
      <trkpt lat="51.824717978015542" lon="10.111680971458554">
        <ele>222.19999999999999</ele>
        <time>2019-05-05T08:28:22Z</time>
      </trkpt>
      <trkpt lat="51.826836001127958" lon="10.112777994945645">
        <ele>219.31999999999999</ele>
        <time>2019-05-05T08:28:33Z</time>
      </trkpt>
      <trkpt lat="51.830297978594899" lon="10.114565016701818">
        <ele>211.15000000000001</ele>
        <time>2019-05-05T08:28:50Z</time>
      </trkpt>
      <trkpt lat="51.833395007997751" lon="10.116163026541471">
        <ele>202.49000000000001</ele>
        <time>2019-05-05T08:29:05Z</time>
      </trkpt>
      <trkpt lat="51.835814025253057" lon="10.117408996447921">
        <ele>198.16999999999999</ele>
        <time>2019-05-05T08:29:17Z</time>
      </trkpt>
      <trkpt lat="51.838467987254262" lon="10.118691008538008">
        <ele>194.31999999999999</ele>
        <time>2019-05-05T08:29:31Z</time>
      </trkpt>
      <trkpt lat="51.841371981427073" lon="10.119945025071502">
        <ele>191.44</ele>
        <time>2019-05-05T08:29:46Z</time>
      </trkpt>
      <trkpt lat="51.843500984832644" lon="10.12084599584341">
        <ele>188.08000000000001</ele>
        <time>2019-05-05T08:29:58Z</time>
      </trkpt>
      <trkpt lat="51.845873985439539" lon="10.121783008798957">
        <ele>188.56</ele>
        <time>2019-05-05T08:30:11Z</time>
      </trkpt>
      <trkpt lat="51.848558038473129" lon="10.122709963470697">
        <ele>188.56</ele>
        <time>2019-05-05T08:30:26Z</time>
      </trkpt>
      <trkpt lat="51.851029023528099" lon="10.123499035835266">
        <ele>191.91999999999999</ele>
        <time>2019-05-05T08:30:40Z</time>
      </trkpt>
      <trkpt lat="51.853475030511618" lon="10.124219041317701">
        <ele>193.36000000000001</ele>
        <time>2019-05-05T08:30:54Z</time>
      </trkpt>
      <trkpt lat="51.855810983106494" lon="10.124763026833534">
        <ele>195.28</ele>
        <time>2019-05-05T08:31:06Z</time>
      </trkpt>
      <trkpt lat="51.859037009999156" lon="10.125472974032164">
        <ele>195.77000000000001</ele>
        <time>2019-05-05T08:31:21Z</time>
      </trkpt>
      <trkpt lat="51.86164797283709" lon="10.125895002856851">
        <ele>194.80000000000001</ele>
        <time>2019-05-05T08:31:33Z</time>
      </trkpt>
      <trkpt lat="51.864809961989522" lon="10.126314014196396">
        <ele>185.19</ele>
        <time>2019-05-05T08:31:50Z</time>
      </trkpt>
      <trkpt lat="51.867690989747643" lon="10.126578966155648">
        <ele>179.41999999999999</ele>
        <time>2019-05-05T08:32:06Z</time>
      </trkpt>
      <trkpt lat="51.870343023911119" lon="10.126845007762313">
        <ele>176.53999999999999</ele>
        <time>2019-05-05T08:32:21Z</time>
      </trkpt>
      <trkpt lat="51.872930014505982" lon="10.127152958884835">
        <ele>175.58000000000001</ele>
        <time>2019-05-05T08:32:35Z</time>
      </trkpt>
      <trkpt lat="51.875949008390307" lon="10.127640031278133">
        <ele>174.13999999999999</ele>
        <time>2019-05-05T08:32:52Z</time>
      </trkpt>
      <trkpt lat="51.878177002072334" lon="10.128165995702147">
        <ele>172.69</ele>
        <time>2019-05-05T08:33:04Z</time>
      </trkpt>
      <trkpt lat="51.879569990560412" lon="10.128508983179927">
        <ele>171.72999999999999</ele>
        <time>2019-05-05T08:33:10Z</time>
      </trkpt>
      <trkpt lat="51.881934022530913" lon="10.129142990335822">
        <ele>168.84999999999999</ele>
        <time>2019-05-05T08:33:18Z</time>
      </trkpt>
      <trkpt lat="51.885276976972818" lon="10.13008302077651">
        <ele>164.03999999999999</ele>
        <time>2019-05-05T08:33:28Z</time>
      </trkpt>
      <trkpt lat="51.8903290014714" lon="10.131337959319353">
        <ele>160.68000000000001</ele>
        <time>2019-05-05T08:33:43Z</time>
      </trkpt>
      <trkpt lat="51.894373018294573" lon="10.132203977555037">
        <ele>165.96000000000001</ele>
        <time>2019-05-05T08:33:55Z</time>
      </trkpt>
      <trkpt lat="51.900132978335023" lon="10.13315599411726">
        <ele>171.72999999999999</ele>
        <time>2019-05-05T08:34:12Z</time>
      </trkpt>
      <trkpt lat="51.905243005603552" lon="10.133730992674828">
        <ele>172.69</ele>
        <time>2019-05-05T08:34:27Z</time>
      </trkpt>
      <trkpt lat="51.910687973722816" lon="10.13440003618598">
        <ele>165.96000000000001</ele>
        <time>2019-05-05T08:34:43Z</time>
      </trkpt>
      <trkpt lat="51.915075983852148" lon="10.135511979460716">
        <ele>158.27000000000001</ele>
        <time>2019-05-05T08:34:56Z</time>
      </trkpt>
      <trkpt lat="51.919030984863639" lon="10.13725801371038">
        <ele>147.69999999999999</ele>
        <time>2019-05-05T08:35:08Z</time>
      </trkpt>
      <trkpt lat="51.922823963686824" lon="10.139723969623446">
        <ele>150.09999999999999</ele>
        <time>2019-05-05T08:35:20Z</time>
      </trkpt>
      <trkpt lat="51.927212979644537" lon="10.142755033448339">
        <ele>154.43000000000001</ele>
        <time>2019-05-05T08:35:34Z</time>
      </trkpt>
      <trkpt lat="51.930808983743191" lon="10.144455973058939">
        <ele>152.99000000000001</ele>
        <time>2019-05-05T08:35:45Z</time>
      </trkpt>
      <trkpt lat="51.934515964239836" lon="10.145388962700963">
        <ele>151.53999999999999</ele>
        <time>2019-05-05T08:35:56Z</time>
      </trkpt>
      <trkpt lat="51.938254963606596" lon="10.14555299654603">
        <ele>149.62</ele>
        <time>2019-05-05T08:36:07Z</time>
      </trkpt>
      <trkpt lat="51.941983988508582" lon="10.14495100826025">
        <ele>150.58000000000001</ele>
        <time>2019-05-05T08:36:18Z</time>
      </trkpt>
      <trkpt lat="51.946311984211206" lon="10.14340597204864">
        <ele>152.50999999999999</ele>
        <time>2019-05-05T08:36:31Z</time>
      </trkpt>
      <trkpt lat="51.950276959687471" lon="10.141821037977934">
        <ele>154.43000000000001</ele>
        <time>2019-05-05T08:36:43Z</time>
      </trkpt>
      <trkpt lat="51.954973004758358" lon="10.140378009527922">
        <ele>152.50999999999999</ele>
        <time>2019-05-05T08:36:57Z</time>
      </trkpt>
      <trkpt lat="51.958048995584249" lon="10.140068968757987">
        <ele>149.13999999999999</ele>
        <time>2019-05-05T08:37:06Z</time>
      </trkpt>
      <trkpt lat="51.961425980553031" lon="10.14052402228117">
        <ele>149.13999999999999</ele>
        <time>2019-05-05T08:37:16Z</time>
      </trkpt>
      <trkpt lat="51.964723002165556" lon="10.141764041036367">
        <ele>158.75</ele>
        <time>2019-05-05T08:37:26Z</time>
      </trkpt>
      <trkpt lat="51.967595983296633" lon="10.143590038642287">
        <ele>169.81</ele>
        <time>2019-05-05T08:37:35Z</time>
      </trkpt>
      <trkpt lat="51.971557019278407" lon="10.146972974762321">
        <ele>169.33000000000001</ele>
        <time>2019-05-05T08:37:48Z</time>
      </trkpt>
      <trkpt lat="51.974934004247189" lon="10.149587038904428">
        <ele>161.16</ele>
        <time>2019-05-05T08:37:59Z</time>
      </trkpt>
      <trkpt lat="51.978112002834678" lon="10.151485959067941">
        <ele>153.47</ele>
        <time>2019-05-05T08:38:09Z</time>
      </trkpt>
      <trkpt lat="51.982390964403749" lon="10.153312040492892">
        <ele>146.74000000000001</ele>
        <time>2019-05-05T08:38:22Z</time>
      </trkpt>
      <trkpt lat="51.986096017062664" lon="10.1543840020895">
        <ele>141.93000000000001</ele>
        <time>2019-05-05T08:38:33Z</time>
      </trkpt>
      <trkpt lat="51.991191962733865" lon="10.155267035588622">
        <ele>136.16</ele>
        <time>2019-05-05T08:38:48Z</time>
      </trkpt>
      <trkpt lat="51.996967010200024" lon="10.156132970005274">
        <ele>131.36000000000001</ele>
        <time>2019-05-05T08:39:05Z</time>
      </trkpt>
      <trkpt lat="52.001361977308989" lon="10.157121028751135">
        <ele>127.51000000000001</ele>
        <time>2019-05-05T08:39:18Z</time>
      </trkpt>
      <trkpt lat="52.005012966692448" lon="10.158607978373766">
        <ele>129.91999999999999</ele>
        <time>2019-05-05T08:39:29Z</time>
      </trkpt>
      <trkpt lat="52.009159997105598" lon="10.161097990348935">
        <ele>136.63999999999999</ele>
        <time>2019-05-05T08:39:42Z</time>
      </trkpt>
      <trkpt lat="52.011877996847034" lon="10.163059020414948">
        <ele>138.56999999999999</ele>
        <time>2019-05-05T08:39:51Z</time>
      </trkpt>
      <trkpt lat="52.017013002187014" lon="10.166682014241815">
        <ele>139.53</ele>
        <time>2019-05-05T08:40:07Z</time>
      </trkpt>
      <trkpt lat="52.020602971315384" lon="10.16869300045073">
        <ele>145.78</ele>
        <time>2019-05-05T08:40:18Z</time>
      </trkpt>
      <trkpt lat="52.024828959256411" lon="10.170522015541792">
        <ele>148.66</ele>
        <time>2019-05-05T08:40:31Z</time>
      </trkpt>
      <trkpt lat="52.027926994487643" lon="10.171620966866612">
        <ele>152.99000000000001</ele>
        <time>2019-05-05T08:40:40Z</time>
      </trkpt>
      <trkpt lat="52.03133599832654" lon="10.172829972580075">
        <ele>163.08000000000001</ele>
        <time>2019-05-05T08:40:50Z</time>
      </trkpt>
      <trkpt lat="52.034139996394515" lon="10.17397996969521">
        <ele>173.16999999999999</ele>
        <time>2019-05-05T08:40:59Z</time>
      </trkpt>
      <trkpt lat="52.03737398609519" lon="10.175758022814989">
        <ele>178.46000000000001</ele>
        <time>2019-05-05T08:41:09Z</time>
      </trkpt>
      <trkpt lat="52.040184019133449" lon="10.17786699347198">
        <ele>180.87</ele>
        <time>2019-05-05T08:41:18Z</time>
      </trkpt>
      <trkpt lat="52.044367007911205" lon="10.181651003658772">
        <ele>170.28999999999999</ele>
        <time>2019-05-05T08:41:32Z</time>
      </trkpt>
      <trkpt lat="52.048470033332705" lon="10.185566022992134">
        <ele>154.91</ele>
        <time>2019-05-05T08:41:46Z</time>
      </trkpt>
      <trkpt lat="52.050412958487868" lon="10.187207031995058">
        <ele>147.69999999999999</ele>
        <time>2019-05-05T08:41:53Z</time>
      </trkpt>
      <trkpt lat="52.052947981283069" lon="10.189080974087119">
        <ele>144.34</ele>
        <time>2019-05-05T08:42:04Z</time>
      </trkpt>
      <trkpt lat="52.054880009964108" lon="10.190260978415608">
        <ele>146.74000000000001</ele>
        <time>2019-05-05T08:42:13Z</time>
      </trkpt>
      <trkpt lat="52.05739701166749" lon="10.191594958305359">
        <ele>153.47</ele>
        <time>2019-05-05T08:42:25Z</time>
      </trkpt>
      <trkpt lat="52.060209978371859" lon="10.192721989005804">
        <ele>156.34999999999999</ele>
        <time>2019-05-05T08:42:38Z</time>
      </trkpt>
      <trkpt lat="52.063426030799747" lon="10.193581972271204">
        <ele>151.53999999999999</ele>
        <time>2019-05-05T08:42:52Z</time>
      </trkpt>
      <trkpt lat="52.06577799282968" lon="10.193910961970687">
        <ele>146.25999999999999</ele>
        <time>2019-05-05T08:43:01Z</time>
      </trkpt>
      <trkpt lat="52.069097980856895" lon="10.193876009434462">
        <ele>141.93000000000001</ele>
        <time>2019-05-05T08:43:12Z</time>
      </trkpt>
      <trkpt lat="52.072469014674425" lon="10.193123985081911">
        <ele>141.44999999999999</ele>
        <time>2019-05-05T08:43:23Z</time>
      </trkpt>
      <trkpt lat="52.075740974396467" lon="10.191744994372129">
        <ele>139.53</ele>
        <time>2019-05-05T08:43:34Z</time>
      </trkpt>
      <trkpt lat="52.079290961846709" lon="10.189417004585266">
        <ele>140.00999999999999</ele>
        <time>2019-05-05T08:43:46Z</time>
      </trkpt>
      <trkpt lat="52.081683995202184" lon="10.187194040045142">
        <ele>136.16</ele>
        <time>2019-05-05T08:43:55Z</time>
      </trkpt>
      <trkpt lat="52.083273958414793" lon="10.185528974980116">
        <ele>131.84</ele>
        <time>2019-05-05T08:44:03Z</time>
      </trkpt>
      <trkpt lat="52.086006961762905" lon="10.182259026914835">
        <ele>126.55</ele>
        <time>2019-05-05T08:44:18Z</time>
      </trkpt>
      <trkpt lat="52.087549986317754" lon="10.180115019902587">
        <ele>125.11</ele>
        <time>2019-05-05T08:44:27Z</time>
      </trkpt>
      <trkpt lat="52.08902302198112" lon="10.177857019007206">
        <ele>123.67</ele>
        <time>2019-05-05T08:44:36Z</time>
      </trkpt>
      <trkpt lat="52.090739971026778" lon="10.174920000135899">
        <ele>121.73999999999999</ele>
        <time>2019-05-05T08:44:47Z</time>
      </trkpt>
      <trkpt lat="52.092218035832047" lon="10.172057999297976">
        <ele>119.81999999999999</ele>
        <time>2019-05-05T08:44:56Z</time>
      </trkpt>
      <trkpt lat="52.093970021232963" lon="10.168209029361606">
        <ele>116.94</ele>
        <time>2019-05-05T08:45:07Z</time>
      </trkpt>
      <trkpt lat="52.095220014452934" lon="10.164989037439227">
        <ele>107.31999999999999</ele>
        <time>2019-05-05T08:45:16Z</time>
      </trkpt>
      <trkpt lat="52.096208995208144" lon="10.162277994677424">
        <ele>103</ele>
        <time>2019-05-05T08:45:25Z</time>
      </trkpt>
      <trkpt lat="52.096790028735995" lon="10.160680990666151">
        <ele>103</ele>
        <time>2019-05-05T08:45:32Z</time>
      </trkpt>
      <trkpt lat="52.097737016156316" lon="10.158149991184473">
        <ele>102.52</ele>
        <time>2019-05-05T08:45:44Z</time>
      </trkpt>
      <trkpt lat="52.098880978301167" lon="10.1552630122751">
        <ele>104.44</ele>
        <time>2019-05-05T08:45:58Z</time>
      </trkpt>
      <trkpt lat="52.100122002884746" lon="10.152302021160722">
        <ele>108.77</ele>
        <time>2019-05-05T08:46:13Z</time>
      </trkpt>
      <trkpt lat="52.101389011368155" lon="10.149568011984229">
        <ele>113.09</ele>
        <time>2019-05-05T08:46:26Z</time>
      </trkpt>
      <trkpt lat="52.102685021236539" lon="10.146942967548966">
        <ele>119.34</ele>
        <time>2019-05-05T08:46:39Z</time>
      </trkpt>
      <trkpt lat="52.103085005655885" lon="10.146123971790075">
        <ele>121.26000000000001</ele>
        <time>2019-05-05T08:46:43Z</time>
      </trkpt>
      <trkpt lat="52.103187013417482" lon="10.145931020379066">
        <ele>120.78</ele>
        <time>2019-05-05T08:46:44Z</time>
      </trkpt>
      <trkpt lat="52.10473095998168" lon="10.143110007047653">
        <ele>124.15000000000001</ele>
        <time>2019-05-05T08:46:58Z</time>
      </trkpt>
      <trkpt lat="52.106236014515162" lon="10.140496026724577">
        <ele>128.94999999999999</ele>
        <time>2019-05-05T08:47:11Z</time>
      </trkpt>
      <trkpt lat="52.108384966850281" lon="10.137122981250286">
        <ele>133.75999999999999</ele>
        <time>2019-05-05T08:47:28Z</time>
      </trkpt>
      <trkpt lat="52.109778961166739" lon="10.135123981162906">
        <ele>133.28</ele>
        <time>2019-05-05T08:47:40Z</time>
      </trkpt>
      <trkpt lat="52.110704993829131" lon="10.133831994608045">
        <ele>133.75999999999999</ele>
        <time>2019-05-05T08:47:48Z</time>
      </trkpt>
      <trkpt lat="52.112752022221684" lon="10.13105196878314">
        <ele>133.75999999999999</ele>
        <time>2019-05-05T08:48:05Z</time>
      </trkpt>
      <trkpt lat="52.114522028714418" lon="10.128480987623334">
        <ele>136.16</ele>
        <time>2019-05-05T08:48:20Z</time>
      </trkpt>
      <trkpt lat="52.115817032754421" lon="10.126230027526617">
        <ele>139.53</ele>
        <time>2019-05-05T08:48:32Z</time>
      </trkpt>
      <trkpt lat="52.116897040978074" lon="10.124000022187829">
        <ele>140.97</ele>
        <time>2019-05-05T08:48:43Z</time>
      </trkpt>
      <trkpt lat="52.118176035583019" lon="10.120732001960278">
        <ele>137.61000000000001</ele>
        <time>2019-05-05T08:48:58Z</time>
      </trkpt>
      <trkpt lat="52.119211032986641" lon="10.117258038371801">
        <ele>134.72</ele>
        <time>2019-05-05T08:49:13Z</time>
      </trkpt>
      <trkpt lat="52.119846967980266" lon="10.11435798369348">
        <ele>134.24000000000001</ele>
        <time>2019-05-05T08:49:25Z</time>
      </trkpt>
      <trkpt lat="52.120015025138855" lon="10.113375959917903">
        <ele>134.72</ele>
        <time>2019-05-05T08:49:29Z</time>
      </trkpt>
      <trkpt lat="52.12004997767508" lon="10.113128023222089">
        <ele>134.72</ele>
        <time>2019-05-05T08:49:30Z</time>
      </trkpt>
      <trkpt lat="52.120260028168559" lon="10.111631015315652">
        <ele>134.24000000000001</ele>
        <time>2019-05-05T08:49:36Z</time>
      </trkpt>
      <trkpt lat="52.120293974876404" lon="10.111381988972425">
        <ele>134.24000000000001</ele>
        <time>2019-05-05T08:49:37Z</time>
      </trkpt>
      <trkpt lat="52.120642997324467" lon="10.108129978179932">
        <ele>138.56999999999999</ele>
        <time>2019-05-05T08:49:50Z</time>
      </trkpt>
      <trkpt lat="52.120831003412604" lon="10.104788029566407">
        <ele>142.88999999999999</ele>
        <time>2019-05-05T08:50:03Z</time>
      </trkpt>
      <trkpt lat="52.120900992304087" lon="10.101220021024346">
        <ele>147.22</ele>
        <time>2019-05-05T08:50:17Z</time>
      </trkpt>
      <trkpt lat="52.120900992304087" lon="10.097105009481311">
        <ele>153.94999999999999</ele>
        <time>2019-05-05T08:50:33Z</time>
      </trkpt>
      <trkpt lat="52.120900992304087" lon="10.096332030370831">
        <ele>154.91</ele>
        <time>2019-05-05T08:50:36Z</time>
      </trkpt>
      <trkpt lat="52.120900992304087" lon="10.096080992370844">
        <ele>155.38999999999999</ele>
        <time>2019-05-05T08:50:37Z</time>
      </trkpt>
      <trkpt lat="52.120898980647326" lon="10.095827020704746">
        <ele>155.38999999999999</ele>
        <time>2019-05-05T08:50:38Z</time>
      </trkpt>
      <trkpt lat="52.120854975655675" lon="10.093071972951293">
        <ele>159.24000000000001</ele>
        <time>2019-05-05T08:50:48Z</time>
      </trkpt>
      <trkpt lat="52.120823040604591" lon="10.090627977624536">
        <ele>162.12</ele>
        <time>2019-05-05T08:50:54Z</time>
      </trkpt>
      <trkpt lat="52.120775012299418" lon="10.086127985268831">
        <ele>168.84999999999999</ele>
        <time>2019-05-05T08:51:03Z</time>
      </trkpt>
      <trkpt lat="52.120984978973866" lon="10.078296018764377">
        <ele>177.97999999999999</ele>
        <time>2019-05-05T08:51:18Z</time>
      </trkpt>
      <trkpt lat="52.121435003355145" lon="10.072613004595041">
        <ele>184.71000000000001</ele>
        <time>2019-05-05T08:51:29Z</time>
      </trkpt>
      <trkpt lat="52.122276965528727" lon="10.067012971267104">
        <ele>191.44</ele>
        <time>2019-05-05T08:51:40Z</time>
      </trkpt>
      <trkpt lat="52.123273992910981" lon="10.062544997781515">
        <ele>194.80000000000001</ele>
        <time>2019-05-05T08:51:49Z</time>
      </trkpt>
      <trkpt lat="52.124134982004762" lon="10.059497002512217">
        <ele>196.25</ele>
        <time>2019-05-05T08:51:56Z</time>
      </trkpt>
      <trkpt lat="52.125220019370317" lon="10.05619503557682">
        <ele>195.28</ele>
        <time>2019-05-05T08:52:05Z</time>
      </trkpt>
      <trkpt lat="52.126029962673783" lon="10.054097967222333">
        <ele>195.77000000000001</ele>
        <time>2019-05-05T08:52:12Z</time>
      </trkpt>
      <trkpt lat="52.126746028661728" lon="10.052803969010711">
        <ele>194.80000000000001</ele>
        <time>2019-05-05T08:52:19Z</time>
      </trkpt>
      <trkpt lat="52.126973010599613" lon="10.0522830337286">
        <ele>192.88</ele>
        <time>2019-05-05T08:52:23Z</time>
      </trkpt>
      <trkpt lat="52.127008968964219" lon="10.052198963239789">
        <ele>192.40000000000001</ele>
        <time>2019-05-05T08:52:24Z</time>
      </trkpt>
      <trkpt lat="52.127072000876069" lon="10.052055967971683">
        <ele>191.44</ele>
        <time>2019-05-05T08:52:26Z</time>
      </trkpt>
      <trkpt lat="52.127121035009623" lon="10.05194297991693">
        <ele>190</ele>
        <time>2019-05-05T08:52:28Z</time>
      </trkpt>
      <trkpt lat="52.127144001424313" lon="10.051890006288886">
        <ele>189.52000000000001</ele>
        <time>2019-05-05T08:52:29Z</time>
      </trkpt>
      <trkpt lat="52.127219019457698" lon="10.051715997979045">
        <ele>189.03999999999999</ele>
        <time>2019-05-05T08:52:32Z</time>
      </trkpt>
      <trkpt lat="52.127392021939158" lon="10.051306961104274">
        <ele>187.59</ele>
        <time>2019-05-05T08:52:43Z</time>
      </trkpt>
      <trkpt lat="52.127409959211946" lon="10.051264967769384">
        <ele>187.59</ele>
        <time>2019-05-05T08:52:55Z</time>
      </trkpt>
      <trkpt lat="52.127492018043995" lon="10.051072016358376">
        <ele>187.11000000000001</ele>
        <time>2019-05-05T08:52:58Z</time>
      </trkpt>
      <trkpt lat="52.12769603356719" lon="10.05058703944087">
        <ele>186.15000000000001</ele>
        <time>2019-05-05T08:53:03Z</time>
      </trkpt>
      <trkpt lat="52.127815978601575" lon="10.050603970885277">
        <ele>185.66999999999999</ele>
        <time>2019-05-05T08:53:04Z</time>
      </trkpt>
      <trkpt lat="52.127882027998567" lon="10.050595002248883">
        <ele>185.66999999999999</ele>
        <time>2019-05-05T08:53:05Z</time>
      </trkpt>
      <trkpt lat="52.128007002174854" lon="10.050514033064246">
        <ele>185.19</ele>
        <time>2019-05-05T08:53:06Z</time>
      </trkpt>
      <trkpt lat="52.128048995509744" lon="10.050403978675604">
        <ele>185.19</ele>
        <time>2019-05-05T08:53:07Z</time>
      </trkpt>
      <trkpt lat="52.128095012158155" lon="10.050283027812839">
        <ele>185.19</ele>
        <time>2019-05-05T08:53:08Z</time>
      </trkpt>
      <trkpt lat="52.128143962472677" lon="10.050153024494648">
        <ele>185.19</ele>
        <time>2019-05-05T08:53:09Z</time>
      </trkpt>
      <trkpt lat="52.128687025979161" lon="10.048726005479693">
        <ele>185.66999999999999</ele>
        <time>2019-05-05T08:53:18Z</time>
      </trkpt>
      <trkpt lat="52.128722984343767" lon="10.048499023541808">
        <ele>185.19</ele>
        <time>2019-05-05T08:53:19Z</time>
      </trkpt>
      <trkpt lat="52.128694988787174" lon="10.048093004152179">
        <ele>185.19</ele>
        <time>2019-05-05T08:53:21Z</time>
      </trkpt>
      <trkpt lat="52.12874997407198" lon="10.047875996679068">
        <ele>185.19</ele>
        <time>2019-05-05T08:53:22Z</time>
      </trkpt>
      <trkpt lat="52.129252972081304" lon="10.046146977692842">
        <ele>183.27000000000001</ele>
        <time>2019-05-05T08:53:28Z</time>
      </trkpt>
      <trkpt lat="52.130284029990435" lon="10.043204007670283">
        <ele>180.87</ele>
        <time>2019-05-05T08:53:36Z</time>
      </trkpt>
      <trkpt lat="52.131451964378357" lon="10.039424020797014">
        <ele>177.5</ele>
        <time>2019-05-05T08:53:45Z</time>
      </trkpt>
      <trkpt lat="52.132773036137223" lon="10.034321034327149">
        <ele>173.16999999999999</ele>
        <time>2019-05-05T08:53:56Z</time>
      </trkpt>
      <trkpt lat="52.134072985500097" lon="10.027902005240321">
        <ele>169.81</ele>
        <time>2019-05-05T08:54:09Z</time>
      </trkpt>
      <trkpt lat="52.135222982615232" lon="10.020776968449354">
        <ele>166.44999999999999</ele>
        <time>2019-05-05T08:54:23Z</time>
      </trkpt>
      <trkpt lat="52.135674012824893" lon="10.018260972574353">
        <ele>163.56</ele>
        <time>2019-05-05T08:54:28Z</time>
      </trkpt>
      <trkpt lat="52.137034982442856" lon="10.012357011437416">
        <ele>162.12</ele>
        <time>2019-05-05T08:54:40Z</time>
      </trkpt>
      <trkpt lat="52.138464013114572" lon="10.008236970752478">
        <ele>160.68000000000001</ele>
        <time>2019-05-05T08:54:49Z</time>
      </trkpt>
      <trkpt lat="52.140375003218651" lon="10.003978963941336">
        <ele>154.43000000000001</ele>
        <time>2019-05-05T08:54:59Z</time>
      </trkpt>
      <trkpt lat="52.142649013549089" lon="10.000243987888098">
        <ele>144.81999999999999</ele>
        <time>2019-05-05T08:55:09Z</time>
      </trkpt>
      <trkpt lat="52.145502967759967" lon="9.996797014027834">
        <ele>130.88</ele>
        <time>2019-05-05T08:55:20Z</time>
      </trkpt>
      <trkpt lat="52.148377038538456" lon="9.994359975680709">
        <ele>119.81999999999999</ele>
        <time>2019-05-05T08:55:30Z</time>
      </trkpt>
      <trkpt lat="52.152015035971999" lon="9.99221102334559">
        <ele>106.36</ele>
        <time>2019-05-05T08:55:42Z</time>
      </trkpt>
      <trkpt lat="52.155708018690348" lon="9.990358036011457">
        <ele>100.11</ele>
        <time>2019-05-05T08:55:54Z</time>
      </trkpt>
      <trkpt lat="52.159727979451418" lon="9.988417038694024">
        <ele>96.269999999999996</ele>
        <time>2019-05-05T08:56:07Z</time>
      </trkpt>
      <trkpt lat="52.162824003025889" lon="9.986935034394264">
        <ele>99.629999999999995</ele>
        <time>2019-05-05T08:56:17Z</time>
      </trkpt>
      <trkpt lat="52.167449975386262" lon="9.984566979110241">
        <ele>103.48</ele>
        <time>2019-05-05T08:56:32Z</time>
      </trkpt>
      <trkpt lat="52.172670979052782" lon="9.981654016301036">
        <ele>94.349999999999994</ele>
        <time>2019-05-05T08:56:49Z</time>
      </trkpt>
      <trkpt lat="52.175891976803541" lon="9.979243967682123">
        <ele>89.540000000000006</ele>
        <time>2019-05-05T08:57:00Z</time>
      </trkpt>
      <trkpt lat="52.179206013679504" lon="9.976029004901648">
        <ele>89.540000000000006</ele>
        <time>2019-05-05T08:57:12Z</time>
      </trkpt>
      <trkpt lat="52.181758973747492" lon="9.972856035456061">
        <ele>89.540000000000006</ele>
        <time>2019-05-05T08:57:22Z</time>
      </trkpt>
      <trkpt lat="52.184599013999104" lon="9.968551006168127">
        <ele>91.459999999999994</ele>
        <time>2019-05-05T08:57:34Z</time>
      </trkpt>
      <trkpt lat="52.187219029292464" lon="9.963899971917272">
        <ele>95.310000000000002</ele>
        <time>2019-05-05T08:57:46Z</time>
      </trkpt>
      <trkpt lat="52.190719982609153" lon="9.956989008933306">
        <ele>92.900000000000006</ele>
        <time>2019-05-05T08:58:03Z</time>
      </trkpt>
      <trkpt lat="52.193640992045403" lon="9.951314041391015">
        <ele>87.620000000000005</ele>
        <time>2019-05-05T08:58:17Z</time>
      </trkpt>
      <trkpt lat="52.196294032037258" lon="9.946724027395248">
        <ele>86.180000000000007</ele>
        <time>2019-05-05T08:58:29Z</time>
      </trkpt>
      <trkpt lat="52.199447974562645" lon="9.942204002290964">
        <ele>84.730000000000004</ele>
        <time>2019-05-05T08:58:42Z</time>
      </trkpt>
      <trkpt lat="52.202394967898726" lon="9.938984010368586">
        <ele>83.769999999999996</ele>
        <time>2019-05-05T08:58:53Z</time>
      </trkpt>
      <trkpt lat="52.205014983192086" lon="9.936878979206085">
        <ele>82.329999999999998</ele>
        <time>2019-05-05T08:59:02Z</time>
      </trkpt>
      <trkpt lat="52.207774976268411" lon="9.935396974906325">
        <ele>80.409999999999997</ele>
        <time>2019-05-05T08:59:11Z</time>
      </trkpt>
      <trkpt lat="52.210958003997803" lon="9.934413023293018">
        <ele>78.480000000000004</ele>
        <time>2019-05-05T08:59:21Z</time>
      </trkpt>
      <trkpt lat="52.214833963662386" lon="9.933993006125093">
        <ele>77.040000000000006</ele>
        <time>2019-05-05T08:59:33Z</time>
      </trkpt>
      <trkpt lat="52.218714030459523" lon="9.933906001970172">
        <ele>74.640000000000001</ele>
        <time>2019-05-05T08:59:45Z</time>
      </trkpt>
      <trkpt lat="52.222279021516442" lon="9.933860991150141">
        <ele>74.640000000000001</ele>
        <time>2019-05-05T08:59:56Z</time>
      </trkpt>
      <trkpt lat="52.226794017478824" lon="9.933609031140804">
        <ele>75.120000000000005</ele>
        <time>2019-05-05T09:00:10Z</time>
      </trkpt>
      <trkpt lat="52.231312030926347" lon="9.932928001508117">
        <ele>73.200000000000003</ele>
        <time>2019-05-05T09:00:24Z</time>
      </trkpt>
      <trkpt lat="52.235100986436009" lon="9.931726958602667">
        <ele>72.239999999999995</ele>
        <time>2019-05-05T09:00:36Z</time>
      </trkpt>
      <trkpt lat="52.239146009087563" lon="9.929853016510606">
        <ele>72.239999999999995</ele>
        <time>2019-05-05T09:00:49Z</time>
      </trkpt>
      <trkpt lat="52.243105033412576" lon="9.927532989531755">
        <ele>72.719999999999999</ele>
        <time>2019-05-05T09:01:02Z</time>
      </trkpt>
      <trkpt lat="52.246394008398056" lon="9.925388982519507">
        <ele>74.159999999999997</ele>
        <time>2019-05-05T09:01:13Z</time>
      </trkpt>
      <trkpt lat="52.250863993540406" lon="9.922451041638851">
        <ele>79.930000000000007</ele>
        <time>2019-05-05T09:01:28Z</time>
      </trkpt>
      <trkpt lat="52.254512971267104" lon="9.920273004099727">
        <ele>84.730000000000004</ele>
        <time>2019-05-05T09:01:40Z</time>
      </trkpt>
      <trkpt lat="52.259175991639495" lon="9.918036963790655">
        <ele>90.019999999999996</ele>
        <time>2019-05-05T09:01:55Z</time>
      </trkpt>
      <trkpt lat="52.262006979435682" lon="9.916977994143963">
        <ele>95.790000000000006</ele>
        <time>2019-05-05T09:02:04Z</time>
      </trkpt>
      <trkpt lat="52.265511034056544" lon="9.915806958451867">
        <ele>99.629999999999995</ele>
        <time>2019-05-05T09:02:15Z</time>
      </trkpt>
      <trkpt lat="52.268039016053081" lon="9.914956027641892">
        <ele>100.11</ele>
        <time>2019-05-05T09:02:23Z</time>
      </trkpt>
      <trkpt lat="52.271538963541389" lon="9.91364199668169">
        <ele>102.04000000000001</ele>
        <time>2019-05-05T09:02:34Z</time>
      </trkpt>
      <trkpt lat="52.274669017642736" lon="9.912207014858723">
        <ele>102.52</ele>
        <time>2019-05-05T09:02:44Z</time>
      </trkpt>
      <trkpt lat="52.278299974277616" lon="9.910002993419766">
        <ele>99.150000000000006</ele>
        <time>2019-05-05T09:02:56Z</time>
      </trkpt>
      <trkpt lat="52.282076021656394" lon="9.907039990648627">
        <ele>97.230000000000004</ele>
        <time>2019-05-05T09:03:09Z</time>
      </trkpt>
      <trkpt lat="52.285946030169725" lon="9.903225973248482">
        <ele>90.980000000000004</ele>
        <time>2019-05-05T09:03:23Z</time>
      </trkpt>
      <trkpt lat="52.289572963491082" lon="9.898824971169233">
        <ele>78.480000000000004</ele>
        <time>2019-05-05T09:03:37Z</time>
      </trkpt>
      <trkpt lat="52.29270301759243" lon="9.894228000193834">
        <ele>69.349999999999994</ele>
        <time>2019-05-05T09:03:50Z</time>
      </trkpt>
      <trkpt lat="52.295671971514821" lon="9.889428019523621">
        <ele>64.069999999999993</ele>
        <time>2019-05-05T09:04:03Z</time>
      </trkpt>
      <trkpt lat="52.299323966726661" lon="9.883478963747621">
        <ele>65.510000000000005</ele>
        <time>2019-05-05T09:04:19Z</time>
      </trkpt>
      <trkpt lat="52.302176998928189" lon="9.879233026877046">
        <ele>70.790000000000006</ele>
        <time>2019-05-05T09:04:31Z</time>
      </trkpt>
      <trkpt lat="52.304991977289319" lon="9.875666024163365">
        <ele>77.040000000000006</ele>
        <time>2019-05-05T09:04:42Z</time>
      </trkpt>
      <trkpt lat="52.308269971981645" lon="9.872245034202933">
        <ele>77.519999999999996</ele>
        <time>2019-05-05T09:04:54Z</time>
      </trkpt>
      <trkpt lat="52.311428021639585" lon="9.869577996432781">
        <ele>75.599999999999994</ele>
        <time>2019-05-05T09:05:05Z</time>
      </trkpt>
      <trkpt lat="52.315331976860762" lon="9.866986982524395">
        <ele>75.599999999999994</ele>
        <time>2019-05-05T09:05:18Z</time>
      </trkpt>
      <trkpt lat="52.319063013419509" lon="9.865289982408285">
        <ele>73.200000000000003</ele>
        <time>2019-05-05T09:05:30Z</time>
      </trkpt>
      <trkpt lat="52.322557009756565" lon="9.864178039133549">
        <ele>73.200000000000003</ele>
        <time>2019-05-05T09:05:41Z</time>
      </trkpt>
      <trkpt lat="52.325723022222519" lon="9.863645033910871">
        <ele>74.159999999999997</ele>
        <time>2019-05-05T09:05:51Z</time>
      </trkpt>
      <trkpt lat="52.328060986474156" lon="9.863500026986003">
        <ele>75.120000000000005</ele>
        <time>2019-05-05T09:06:00Z</time>
      </trkpt>
      <trkpt lat="52.330777980387211" lon="9.86362399533391">
        <ele>75.599999999999994</ele>
        <time>2019-05-05T09:06:11Z</time>
      </trkpt>
      <trkpt lat="52.33303003013134" lon="9.863918032497168">
        <ele>76.079999999999998</ele>
        <time>2019-05-05T09:06:21Z</time>
      </trkpt>
      <trkpt lat="52.335884990170598" lon="9.864632003009319">
        <ele>75.120000000000005</ele>
        <time>2019-05-05T09:06:32Z</time>
      </trkpt>
      <trkpt lat="52.338454965502024" lon="9.865570021793246">
        <ele>74.640000000000001</ele>
        <time>2019-05-05T09:06:41Z</time>
      </trkpt>
      <trkpt lat="52.341569010168314" lon="9.867159985005856">
        <ele>72.239999999999995</ele>
        <time>2019-05-05T09:06:52Z</time>
      </trkpt>
      <trkpt lat="52.344854967668653" lon="9.869388984516263">
        <ele>71.760000000000005</ele>
        <time>2019-05-05T09:07:04Z</time>
      </trkpt>
      <trkpt lat="52.348304959014058" lon="9.872464975342155">
        <ele>74.159999999999997</ele>
        <time>2019-05-05T09:07:17Z</time>
      </trkpt>
      <trkpt lat="52.351549006998539" lon="9.876119988039136">
        <ele>75.599999999999994</ele>
        <time>2019-05-05T09:07:30Z</time>
      </trkpt>
      <trkpt lat="52.354856003075838" lon="9.880582010373473">
        <ele>70.310000000000002</ele>
        <time>2019-05-05T09:07:44Z</time>
      </trkpt>
      <trkpt lat="52.357938028872013" lon="9.884682018309832">
        <ele>68.390000000000001</ele>
        <time>2019-05-05T09:07:57Z</time>
      </trkpt>
      <trkpt lat="52.360391998663545" lon="9.887581989169121">
        <ele>68.390000000000001</ele>
        <time>2019-05-05T09:08:07Z</time>
      </trkpt>
      <trkpt lat="52.363235978409648" lon="9.890411971136928">
        <ele>65.510000000000005</ele>
        <time>2019-05-05T09:08:18Z</time>
      </trkpt>
      <trkpt lat="52.366424035280943" lon="9.892605012282729">
        <ele>63.100000000000001</ele>
        <time>2019-05-05T09:08:29Z</time>
      </trkpt>
      <trkpt lat="52.370018027722836" lon="9.89426395855844">
        <ele>60.700000000000003</ele>
        <time>2019-05-05T09:08:41Z</time>
      </trkpt>
      <trkpt lat="52.373887030407786" lon="9.895634986460209">
        <ele>66.950000000000003</ele>
        <time>2019-05-05T09:08:54Z</time>
      </trkpt>
      <trkpt lat="52.37810698337853" lon="9.897083966061473">
        <ele>68.390000000000001</ele>
        <time>2019-05-05T09:09:08Z</time>
      </trkpt>
      <trkpt lat="52.382659027352929" lon="9.898487012833357">
        <ele>61.18</ele>
        <time>2019-05-05T09:09:23Z</time>
      </trkpt>
      <trkpt lat="52.386460974812508" lon="9.899317994713783">
        <ele>58.780000000000001</ele>
        <time>2019-05-05T09:09:36Z</time>
      </trkpt>
      <trkpt lat="52.391483997926116" lon="9.899895004928112">
        <ele>62.619999999999997</ele>
        <time>2019-05-05T09:09:53Z</time>
      </trkpt>
      <trkpt lat="52.396016009151936" lon="9.899924006313086">
        <ele>69.349999999999994</ele>
        <time>2019-05-05T09:10:08Z</time>
      </trkpt>
      <trkpt lat="52.400138983502984" lon="9.899569032713771">
        <ele>70.790000000000006</ele>
        <time>2019-05-05T09:10:22Z</time>
      </trkpt>
      <trkpt lat="52.40311598405242" lon="9.899064023047686">
        <ele>69.829999999999998</ele>
        <time>2019-05-05T09:10:32Z</time>
      </trkpt>
      <trkpt lat="52.405653018504381" lon="9.89845298230648">
        <ele>67.909999999999997</ele>
        <time>2019-05-05T09:10:41Z</time>
      </trkpt>
      <trkpt lat="52.408662959933281" lon="9.89752896130085">
        <ele>69.349999999999994</ele>
        <time>2019-05-05T09:10:52Z</time>
      </trkpt>
      <trkpt lat="52.412436995655298" lon="9.89608702249825">
        <ele>69.349999999999994</ele>
        <time>2019-05-05T09:11:06Z</time>
      </trkpt>
      <trkpt lat="52.415665034204721" lon="9.894546009600163">
        <ele>66.469999999999999</ele>
        <time>2019-05-05T09:11:18Z</time>
      </trkpt>
      <trkpt lat="52.418545978143811" lon="9.892971972003579">
        <ele>66.469999999999999</ele>
        <time>2019-05-05T09:11:29Z</time>
      </trkpt>
      <trkpt lat="52.421573018655181" lon="9.891061987727881">
        <ele>66.469999999999999</ele>
        <time>2019-05-05T09:11:41Z</time>
      </trkpt>
      <trkpt lat="52.423543017357588" lon="9.889689031988382">
        <ele>64.549999999999997</ele>
        <time>2019-05-05T09:11:50Z</time>
      </trkpt>
      <trkpt lat="52.425328027456999" lon="9.888511961326003">
        <ele>63.100000000000001</ele>
        <time>2019-05-05T09:11:59Z</time>
      </trkpt>
      <trkpt lat="52.42717900313437" lon="9.887002967298031">
        <ele>60.700000000000003</ele>
        <time>2019-05-05T09:12:08Z</time>
      </trkpt>
      <trkpt lat="52.428700989112258" lon="9.885692037642002">
        <ele>61.18</ele>
        <time>2019-05-05T09:12:15Z</time>
      </trkpt>
      <trkpt lat="52.431944031268358" lon="9.882672959938645">
        <ele>58.299999999999997</ele>
        <time>2019-05-05T09:12:30Z</time>
      </trkpt>
      <trkpt lat="52.433112971484661" lon="9.881567973643541">
        <ele>54.93</ele>
        <time>2019-05-05T09:12:37Z</time>
      </trkpt>
      <trkpt lat="52.433278011158109" lon="9.881484992802143">
        <ele>54.450000000000003</ele>
        <time>2019-05-05T09:12:38Z</time>
      </trkpt>
      <trkpt lat="52.433454031124711" lon="9.881450962275267">
        <ele>53.969999999999999</ele>
        <time>2019-05-05T09:12:39Z</time>
      </trkpt>
      <trkpt lat="52.433803975582123" lon="9.881496978923678">
        <ele>53.969999999999999</ele>
        <time>2019-05-05T09:12:41Z</time>
      </trkpt>
      <trkpt lat="52.433964991942048" lon="9.881550036370754">
        <ele>53.490000000000002</ele>
        <time>2019-05-05T09:12:42Z</time>
      </trkpt>
      <trkpt lat="52.434118967503309" lon="9.881602004170418">
        <ele>53.490000000000002</ele>
        <time>2019-05-05T09:12:43Z</time>
      </trkpt>
      <trkpt lat="52.434275960549712" lon="9.881653971970081">
        <ele>53.490000000000002</ele>
        <time>2019-05-05T09:12:44Z</time>
      </trkpt>
      <trkpt lat="52.434439994394779" lon="9.881641985848546">
        <ele>53.490000000000002</ele>
        <time>2019-05-05T09:12:45Z</time>
      </trkpt>
      <trkpt lat="52.434604028239846" lon="9.881610972806811">
        <ele>53.009999999999998</ele>
        <time>2019-05-05T09:12:46Z</time>
      </trkpt>
      <trkpt lat="52.43476303294301" lon="9.881580965593457">
        <ele>53.009999999999998</ele>
        <time>2019-05-05T09:12:47Z</time>
      </trkpt>
      <trkpt lat="52.435555960983038" lon="9.881411986425519">
        <ele>51.57</ele>
        <time>2019-05-05T09:12:54Z</time>
      </trkpt>
      <trkpt lat="52.435606000944972" lon="9.881395976990461">
        <ele>51.57</ele>
        <time>2019-05-05T09:12:55Z</time>
      </trkpt>
      <trkpt lat="52.435736004263163" lon="9.881464960053563">
        <ele>51.090000000000003</ele>
        <time>2019-05-05T09:12:56Z</time>
      </trkpt>
      <trkpt lat="52.435761988162994" lon="9.881551964208484">
        <ele>50.609999999999999</ele>
        <time>2019-05-05T09:12:57Z</time>
      </trkpt>
      <trkpt lat="52.435796018689871" lon="9.881665036082268">
        <ele>50.609999999999999</ele>
        <time>2019-05-05T09:12:58Z</time>
      </trkpt>
      <trkpt lat="52.435841029509902" lon="9.881815994158387">
        <ele>50.130000000000003</ele>
        <time>2019-05-05T09:12:59Z</time>
      </trkpt>
      <trkpt lat="52.435889979824424" lon="9.881998971104622">
        <ele>49.649999999999999</ele>
        <time>2019-05-05T09:13:00Z</time>
      </trkpt>
      <trkpt lat="52.436253000050783" lon="9.88304796628654">
        <ele>48.68</ele>
        <time>2019-05-05T09:13:05Z</time>
      </trkpt>
      <trkpt lat="52.436326006427407" lon="9.883249970152974">
        <ele>48.200000000000003</ele>
        <time>2019-05-05T09:13:06Z</time>
      </trkpt>
      <trkpt lat="52.437035031616688" lon="9.884967003017664">
        <ele>46.759999999999998</ele>
        <time>2019-05-05T09:13:16Z</time>
      </trkpt>
      <trkpt lat="52.437801975756884" lon="9.886236023157835">
        <ele>47.719999999999999</ele>
        <time>2019-05-05T09:13:24Z</time>
      </trkpt>
      <trkpt lat="52.439070995897055" lon="9.888040982186794">
        <ele>49.649999999999999</ele>
        <time>2019-05-05T09:13:34Z</time>
      </trkpt>
      <trkpt lat="52.440293999388814" lon="9.889593981206417">
        <ele>51.090000000000003</ele>
        <time>2019-05-05T09:13:43Z</time>
      </trkpt>
      <trkpt lat="52.440831027925014" lon="9.89018096588552">
        <ele>52.530000000000001</ele>
        <time>2019-05-05T09:13:49Z</time>
      </trkpt>
      <trkpt lat="52.440834967419505" lon="9.890335025265813">
        <ele>53.009999999999998</ele>
        <time>2019-05-05T09:13:50Z</time>
      </trkpt>
      <trkpt lat="52.440851982682943" lon="9.890410965308547">
        <ele>53.009999999999998</ele>
        <time>2019-05-05T09:13:51Z</time>
      </trkpt>
      <trkpt lat="52.440917026251554" lon="9.890542980283499">
        <ele>53.490000000000002</ele>
        <time>2019-05-05T09:13:52Z</time>
      </trkpt>
      <trkpt lat="52.440979974344373" lon="9.890568964183331">
        <ele>53.969999999999999</ele>
        <time>2019-05-05T09:13:53Z</time>
      </trkpt>
      <trkpt lat="52.441050969064236" lon="9.890530994161964">
        <ele>54.450000000000003</ele>
        <time>2019-05-05T09:13:54Z</time>
      </trkpt>
      <trkpt lat="52.441120035946369" lon="9.890535017475486">
        <ele>54.450000000000003</ele>
        <time>2019-05-05T09:13:55Z</time>
      </trkpt>
      <trkpt lat="52.441170997917652" lon="9.890584973618388">
        <ele>54.450000000000003</ele>
        <time>2019-05-05T09:13:56Z</time>
      </trkpt>
      <trkpt lat="52.441221037879586" lon="9.890635013580322">
        <ele>54.450000000000003</ele>
        <time>2019-05-05T09:13:57Z</time>
      </trkpt>
      <trkpt lat="52.441285997629166" lon="9.890699973329902">
        <ele>54.450000000000003</ele>
        <time>2019-05-05T09:13:58Z</time>
      </trkpt>
      <trkpt lat="52.44144600816071" lon="9.890867024660111">
        <ele>54.93</ele>
        <time>2019-05-05T09:14:01Z</time>
      </trkpt>
      <trkpt lat="52.441484984010458" lon="9.890909017995">
        <ele>54.93</ele>
        <time>2019-05-05T09:14:02Z</time>
      </trkpt>
      <trkpt lat="52.44159797206521" lon="9.891032986342907">
        <ele>54.93</ele>
        <time>2019-05-05T09:14:11Z</time>
      </trkpt>
    </trkseg>
  </trk>

  <trk>
    <name>Track vom: 2019-05-05 11:14</name>
    <extensions>
      <gpxx:TrackExtension>
        <gpxx:DisplayColor>DarkGray</gpxx:DisplayColor>
      </gpxx:TrackExtension>
    </extensions>
    <trkseg>
      <trkpt lat="52.44159797206521" lon="9.891032986342907">
        <ele>54.93</ele>
        <time>2019-05-05T09:14:31Z</time>
      </trkpt>
      <trkpt lat="52.441798970103264" lon="9.891243036836386">
        <ele>54.450000000000003</ele>
        <time>2019-05-05T09:14:45Z</time>
      </trkpt>
      <trkpt lat="52.442131983116269" lon="9.891594992950559">
        <ele>54.450000000000003</ele>
        <time>2019-05-05T09:14:50Z</time>
      </trkpt>
      <trkpt lat="52.442678986117244" lon="9.892299994826317">
        <ele>53.490000000000002</ele>
        <time>2019-05-05T09:14:59Z</time>
      </trkpt>
      <trkpt lat="52.442728020250797" lon="9.892395967617631">
        <ele>53.490000000000002</ele>
        <time>2019-05-05T09:15:00Z</time>
      </trkpt>
      <trkpt lat="52.443042006343603" lon="9.893383020535111">
        <ele>53.969999999999999</ele>
        <time>2019-05-05T09:15:09Z</time>
      </trkpt>
      <trkpt lat="52.443187013268471" lon="9.893872020766139">
        <ele>54.450000000000003</ele>
        <time>2019-05-05T09:15:17Z</time>
      </trkpt>
      <trkpt lat="52.44320503436029" lon="9.893932035192847">
        <ele>55.890000000000001</ele>
        <time>2019-05-05T09:15:20Z</time>
      </trkpt>
    </trkseg>
  </trk>

  <trk>
    <name>Track vom: 2019-05-05 11:22</name>
    <extensions>
      <gpxx:TrackExtension>
        <gpxx:DisplayColor>DarkGray</gpxx:DisplayColor>
      </gpxx:TrackExtension>
    </extensions>
    <trkseg>
      <trkpt lat="52.443137979134917" lon="9.894487001001835">
        <ele>47.719999999999999</ele>
        <time>2019-05-05T09:22:27Z</time>
      </trkpt>
      <trkpt lat="52.443137979134917" lon="9.894488006830216">
        <ele>48.200000000000003</ele>
        <time>2019-05-05T09:22:56Z</time>
      </trkpt>
      <trkpt lat="52.443138984963298" lon="9.894488006830216">
        <ele>49.159999999999997</ele>
        <time>2019-05-05T09:23:33Z</time>
      </trkpt>
      <trkpt lat="52.443138984963298" lon="9.894495969638228">
        <ele>49.159999999999997</ele>
        <time>2019-05-05T09:24:17Z</time>
      </trkpt>
      <trkpt lat="52.443344006314874" lon="9.894397985190153">
        <ele>50.130000000000003</ele>
        <time>2019-05-05T09:24:21Z</time>
      </trkpt>
      <trkpt lat="52.443347023800015" lon="9.894409971311688">
        <ele>49.649999999999999</ele>
        <time>2019-05-05T09:24:22Z</time>
      </trkpt>
      <trkpt lat="52.443321961909533" lon="9.894427992403507">
        <ele>48.200000000000003</ele>
        <time>2019-05-05T09:24:31Z</time>
      </trkpt>
      <trkpt lat="52.443354986608028" lon="9.894435033202171">
        <ele>47.240000000000002</ele>
        <time>2019-05-05T09:24:33Z</time>
      </trkpt>
      <trkpt lat="52.443368984386325" lon="9.894481971859932">
        <ele>46.280000000000001</ele>
        <time>2019-05-05T09:24:34Z</time>
      </trkpt>
      <trkpt lat="52.443387005478144" lon="9.89454198628664">
        <ele>45.32</ele>
        <time>2019-05-05T09:24:35Z</time>
      </trkpt>
      <trkpt lat="52.443408966064453" lon="9.894619015976787">
        <ele>44.840000000000003</ele>
        <time>2019-05-05T09:24:36Z</time>
      </trkpt>
      <trkpt lat="52.443436039611697" lon="9.894709037616849">
        <ele>43.880000000000003</ele>
        <time>2019-05-05T09:24:37Z</time>
      </trkpt>
      <trkpt lat="52.44346403516829" lon="9.894801992923021">
        <ele>43.399999999999999</ele>
        <time>2019-05-05T09:24:38Z</time>
      </trkpt>
      <trkpt lat="52.443493036553264" lon="9.894899977371097">
        <ele>42.439999999999998</ele>
        <time>2019-05-05T09:24:39Z</time>
      </trkpt>
      <trkpt lat="52.443870976567268" lon="9.896171009168029">
        <ele>45.32</ele>
        <time>2019-05-05T09:24:50Z</time>
      </trkpt>
      <trkpt lat="52.444062000140548" lon="9.896860001608729">
        <ele>48.200000000000003</ele>
        <time>2019-05-05T09:24:55Z</time>
      </trkpt>
      <trkpt lat="52.444098964333534" lon="9.897004002705216">
        <ele>48.68</ele>
        <time>2019-05-05T09:24:56Z</time>
      </trkpt>
      <trkpt lat="52.444139029830694" lon="9.897155966609716">
        <ele>49.159999999999997</ele>
        <time>2019-05-05T09:24:57Z</time>
      </trkpt>
      <trkpt lat="52.444180017337203" lon="9.897314971312881">
        <ele>49.159999999999997</ele>
        <time>2019-05-05T09:24:58Z</time>
      </trkpt>
      <trkpt lat="52.444222010672092" lon="9.897479005157948">
        <ele>49.649999999999999</ele>
        <time>2019-05-05T09:24:59Z</time>
      </trkpt>
      <trkpt lat="52.444604979828" lon="9.899209029972553">
        <ele>52.049999999999997</ele>
        <time>2019-05-05T09:25:09Z</time>
      </trkpt>
      <trkpt lat="52.444633981212974" lon="9.89939896389842">
        <ele>52.530000000000001</ele>
        <time>2019-05-05T09:25:10Z</time>
      </trkpt>
      <trkpt lat="52.444742023944855" lon="9.900145037099719">
        <ele>53.969999999999999</ele>
        <time>2019-05-05T09:25:14Z</time>
      </trkpt>
      <trkpt lat="52.444829028099775" lon="9.901324035599828">
        <ele>55.409999999999997</ele>
        <time>2019-05-05T09:25:20Z</time>
      </trkpt>
      <trkpt lat="52.444884013384581" lon="9.90291902795434">
        <ele>56.859999999999999</ele>
        <time>2019-05-05T09:25:30Z</time>
      </trkpt>
      <trkpt lat="52.444850988686085" lon="9.903749004006386">
        <ele>57.82</ele>
        <time>2019-05-05T09:25:35Z</time>
      </trkpt>
      <trkpt lat="52.444848977029324" lon="9.903832990676165">
        <ele>57.82</ele>
        <time>2019-05-05T09:25:36Z</time>
      </trkpt>
      <trkpt lat="52.444935981184244" lon="9.903884958475828">
        <ele>57.82</ele>
        <time>2019-05-05T09:25:37Z</time>
      </trkpt>
      <trkpt lat="52.444995995610952" lon="9.903893005102873">
        <ele>58.299999999999997</ele>
        <time>2019-05-05T09:25:38Z</time>
      </trkpt>
      <trkpt lat="52.445074031129479" lon="9.903902979567647">
        <ele>58.299999999999997</ele>
        <time>2019-05-05T09:25:39Z</time>
      </trkpt>
      <trkpt lat="52.445167992264032" lon="9.903913959860802">
        <ele>58.299999999999997</ele>
        <time>2019-05-05T09:25:40Z</time>
      </trkpt>
      <trkpt lat="52.445276034995914" lon="9.903923012316227">
        <ele>58.299999999999997</ele>
        <time>2019-05-05T09:25:41Z</time>
      </trkpt>
      <trkpt lat="52.446148004382849" lon="9.903961988165975">
        <ele>57.82</ele>
        <time>2019-05-05T09:25:48Z</time>
      </trkpt>
      <trkpt lat="52.448281031101942" lon="9.903939021751285">
        <ele>57.340000000000003</ele>
        <time>2019-05-05T09:25:58Z</time>
      </trkpt>
      <trkpt lat="52.449680976569653" lon="9.903324041515589">
        <ele>57.82</ele>
        <time>2019-05-05T09:26:05Z</time>
      </trkpt>
      <trkpt lat="52.451198017224669" lon="9.901809012517333">
        <ele>58.780000000000001</ele>
        <time>2019-05-05T09:26:13Z</time>
      </trkpt>
      <trkpt lat="52.453519972041249" lon="9.899368034675717">
        <ele>59.259999999999998</ele>
        <time>2019-05-05T09:26:25Z</time>
      </trkpt>
      <trkpt lat="52.455846033990383" lon="9.898080993443728">
        <ele>60.219999999999999</ele>
        <time>2019-05-05T09:26:36Z</time>
      </trkpt>
      <trkpt lat="52.458742987364531" lon="9.896470997482538">
        <ele>63.100000000000001</ele>
        <time>2019-05-05T09:26:50Z</time>
      </trkpt>
      <trkpt lat="52.459956016391516" lon="9.894996033981443">
        <ele>65.030000000000001</ele>
        <time>2019-05-05T09:26:57Z</time>
      </trkpt>
      <trkpt lat="52.460785992443562" lon="9.89361897110939">
        <ele>65.510000000000005</ele>
        <time>2019-05-05T09:27:04Z</time>
      </trkpt>
      <trkpt lat="52.4612139724195" lon="9.89299301058054">
        <ele>65.510000000000005</ele>
        <time>2019-05-05T09:27:08Z</time>
      </trkpt>
      <trkpt lat="52.462370004504919" lon="9.89174704067409">
        <ele>65.989999999999995</ele>
        <time>2019-05-05T09:27:18Z</time>
      </trkpt>
      <trkpt lat="52.462675021961331" lon="9.891455015167594">
        <ele>65.510000000000005</ele>
        <time>2019-05-05T09:27:21Z</time>
      </trkpt>
      <trkpt lat="52.462790021672845" lon="9.891407992690802">
        <ele>65.510000000000005</ele>
        <time>2019-05-05T09:27:22Z</time>
      </trkpt>
      <trkpt lat="52.4629080388695" lon="9.891434982419014">
        <ele>65.510000000000005</ele>
        <time>2019-05-05T09:27:23Z</time>
      </trkpt>
      <trkpt lat="52.463019015267491" lon="9.891500025987625">
        <ele>65.030000000000001</ele>
        <time>2019-05-05T09:27:24Z</time>
      </trkpt>
      <trkpt lat="52.463109036907554" lon="9.891609996557236">
        <ele>64.549999999999997</ele>
        <time>2019-05-05T09:27:25Z</time>
      </trkpt>
      <trkpt lat="52.463195035234094" lon="9.891730025410652">
        <ele>64.069999999999993</ele>
        <time>2019-05-05T09:27:26Z</time>
      </trkpt>
      <trkpt lat="52.463271981105208" lon="9.8918760381639">
        <ele>63.579999999999998</ele>
        <time>2019-05-05T09:27:27Z</time>
      </trkpt>
      <trkpt lat="52.463350016623735" lon="9.892023978754878">
        <ele>63.100000000000001</ele>
        <time>2019-05-05T09:27:28Z</time>
      </trkpt>
      <trkpt lat="52.463427968323231" lon="9.892172003164887">
        <ele>62.619999999999997</ele>
        <time>2019-05-05T09:27:29Z</time>
      </trkpt>
      <trkpt lat="52.463507009670138" lon="9.892321033403277">
        <ele>62.619999999999997</ele>
        <time>2019-05-05T09:27:30Z</time>
      </trkpt>
      <trkpt lat="52.463589990511537" lon="9.892469979822636">
        <ele>62.619999999999997</ele>
        <time>2019-05-05T09:27:31Z</time>
      </trkpt>
      <trkpt lat="52.463772967457771" lon="9.892667038366199">
        <ele>62.140000000000001</ele>
        <time>2019-05-05T09:27:33Z</time>
      </trkpt>
      <trkpt lat="52.463858965784311" lon="9.89275898784399">
        <ele>61.659999999999997</ele>
        <time>2019-05-05T09:27:34Z</time>
      </trkpt>
      <trkpt lat="52.463976982980967" lon="9.892783965915442">
        <ele>61.18</ele>
        <time>2019-05-05T09:27:35Z</time>
      </trkpt>
      <trkpt lat="52.464084019884467" lon="9.892807016149163">
        <ele>60.700000000000003</ele>
        <time>2019-05-05T09:27:36Z</time>
      </trkpt>
      <trkpt lat="52.464188961312175" lon="9.892828976735473">
        <ele>60.700000000000003</ele>
        <time>2019-05-05T09:27:37Z</time>
      </trkpt>
      <trkpt lat="52.464291974902153" lon="9.89284498617053">
        <ele>60.219999999999999</ele>
        <time>2019-05-05T09:27:38Z</time>
      </trkpt>
      <trkpt lat="52.464394988492131" lon="9.89284498617053">
        <ele>60.219999999999999</ele>
        <time>2019-05-05T09:27:39Z</time>
      </trkpt>
      <trkpt lat="52.464491967111826" lon="9.892808021977544">
        <ele>60.219999999999999</ele>
        <time>2019-05-05T09:27:40Z</time>
      </trkpt>
      <trkpt lat="52.464882982894778" lon="9.892675001174212">
        <ele>60.219999999999999</ele>
        <time>2019-05-05T09:27:44Z</time>
      </trkpt>
      <trkpt lat="52.465075012296438" lon="9.892611969262362">
        <ele>60.219999999999999</ele>
        <time>2019-05-05T09:27:46Z</time>
      </trkpt>
      <trkpt lat="52.465163022279739" lon="9.892598977312446">
        <ele>60.219999999999999</ele>
        <time>2019-05-05T09:27:47Z</time>
      </trkpt>
      <trkpt lat="52.465238040313125" lon="9.892587997019291">
        <ele>60.219999999999999</ele>
        <time>2019-05-05T09:27:48Z</time>
      </trkpt>
      <trkpt lat="52.465297970920801" lon="9.892587997019291">
        <ele>60.219999999999999</ele>
        <time>2019-05-05T09:27:49Z</time>
      </trkpt>
      <trkpt lat="52.465344993397593" lon="9.892518008127809">
        <ele>60.219999999999999</ele>
        <time>2019-05-05T09:27:50Z</time>
      </trkpt>
      <trkpt lat="52.465353040024638" lon="9.892426980659366">
        <ele>60.219999999999999</ele>
        <time>2019-05-05T09:27:51Z</time>
      </trkpt>
      <trkpt lat="52.465361002832651" lon="9.892330002039671">
        <ele>60.219999999999999</ele>
        <time>2019-05-05T09:27:52Z</time>
      </trkpt>
      <trkpt lat="52.465386986732483" lon="9.892190024256706">
        <ele>60.219999999999999</ele>
        <time>2019-05-05T09:27:53Z</time>
      </trkpt>
      <trkpt lat="52.465412970632315" lon="9.892054991796613">
        <ele>60.700000000000003</ele>
        <time>2019-05-05T09:27:54Z</time>
      </trkpt>
      <trkpt lat="52.465651016682386" lon="9.890708019956946">
        <ele>63.100000000000001</ele>
        <time>2019-05-05T09:28:03Z</time>
      </trkpt>
      <trkpt lat="52.465721005573869" lon="9.890149030834436">
        <ele>65.510000000000005</ele>
        <time>2019-05-05T09:28:07Z</time>
      </trkpt>
      <trkpt lat="52.465738020837307" lon="9.890010980889201">
        <ele>66.469999999999999</ele>
        <time>2019-05-05T09:28:08Z</time>
      </trkpt>
      <trkpt lat="52.465867018327117" lon="9.888949999585748">
        <ele>69.829999999999998</ele>
        <time>2019-05-05T09:28:15Z</time>
      </trkpt>
      <trkpt lat="52.465893002226949" lon="9.888812033459544">
        <ele>69.829999999999998</ele>
        <time>2019-05-05T09:28:16Z</time>
      </trkpt>
      <trkpt lat="52.465967014431953" lon="9.888543980196118">
        <ele>70.310000000000002</ele>
        <time>2019-05-05T09:28:18Z</time>
      </trkpt>
      <trkpt lat="52.46600397862494" lon="9.888414982706308">
        <ele>70.310000000000002</ele>
        <time>2019-05-05T09:28:19Z</time>
      </trkpt>
      <trkpt lat="52.466041026636958" lon="9.888285985216498">
        <ele>70.310000000000002</ele>
        <time>2019-05-05T09:28:20Z</time>
      </trkpt>
      <trkpt lat="52.466080002486706" lon="9.888151036575437">
        <ele>70.790000000000006</ele>
        <time>2019-05-05T09:28:21Z</time>
      </trkpt>
      <trkpt lat="52.466118978336453" lon="9.888013992458582">
        <ele>70.790000000000006</ele>
        <time>2019-05-05T09:28:22Z</time>
      </trkpt>
      <trkpt lat="52.466650977730751" lon="9.886170979589224">
        <ele>71.760000000000005</ele>
        <time>2019-05-05T09:28:34Z</time>
      </trkpt>
      <trkpt lat="52.467214995995164" lon="9.884259989485145">
        <ele>72.239999999999995</ele>
        <time>2019-05-05T09:28:45Z</time>
      </trkpt>
      <trkpt lat="52.467802986502647" lon="9.882246991619468">
        <ele>72.239999999999995</ele>
        <time>2019-05-05T09:28:55Z</time>
      </trkpt>
      <trkpt lat="52.468656012788415" lon="9.87941600382328">
        <ele>71.269999999999996</ele>
        <time>2019-05-05T09:29:07Z</time>
      </trkpt>
      <trkpt lat="52.469446007162333" lon="9.876702027395368">
        <ele>74.159999999999997</ele>
        <time>2019-05-05T09:29:17Z</time>
      </trkpt>
      <trkpt lat="52.470290986821055" lon="9.873622013255954">
        <ele>75.120000000000005</ele>
        <time>2019-05-05T09:29:28Z</time>
      </trkpt>
      <trkpt lat="52.470745034515858" lon="9.870914993807674">
        <ele>72.239999999999995</ele>
        <time>2019-05-05T09:29:36Z</time>
      </trkpt>
      <trkpt lat="52.471247026696801" lon="9.867889964953065">
        <ele>72.719999999999999</ele>
        <time>2019-05-05T09:29:45Z</time>
      </trkpt>
      <trkpt lat="52.471323972567916" lon="9.867390990257263">
        <ele>73.200000000000003</ele>
        <time>2019-05-05T09:29:47Z</time>
      </trkpt>
      <trkpt lat="52.471415000036359" lon="9.867202984169126">
        <ele>73.680000000000007</ele>
        <time>2019-05-05T09:29:48Z</time>
      </trkpt>
      <trkpt lat="52.471511978656054" lon="9.867013972252607">
        <ele>73.680000000000007</ele>
        <time>2019-05-05T09:29:49Z</time>
      </trkpt>
      <trkpt lat="52.47161197476089" lon="9.866819009184837">
        <ele>73.680000000000007</ele>
        <time>2019-05-05T09:29:50Z</time>
      </trkpt>
      <trkpt lat="52.471714988350868" lon="9.866619016975164">
        <ele>74.159999999999997</ele>
        <time>2019-05-05T09:29:51Z</time>
      </trkpt>
      <trkpt lat="52.472737999632955" lon="9.86493400298059">
        <ele>75.120000000000005</ele>
        <time>2019-05-05T09:30:00Z</time>
      </trkpt>
      <trkpt lat="52.473681969568133" lon="9.863291988149285">
        <ele>73.680000000000007</ele>
        <time>2019-05-05T09:30:10Z</time>
      </trkpt>
      <trkpt lat="52.473723040893674" lon="9.86310800537467">
        <ele>73.200000000000003</ele>
        <time>2019-05-05T09:30:11Z</time>
      </trkpt>
      <trkpt lat="52.473747013136744" lon="9.862902984023094">
        <ele>73.200000000000003</ele>
        <time>2019-05-05T09:30:12Z</time>
      </trkpt>
      <trkpt lat="52.473751036450267" lon="9.862701985985041">
        <ele>73.200000000000003</ele>
        <time>2019-05-05T09:30:13Z</time>
      </trkpt>
      <trkpt lat="52.473751036450267" lon="9.862490007653832">
        <ele>73.200000000000003</ele>
        <time>2019-05-05T09:30:14Z</time>
      </trkpt>
      <trkpt lat="52.473725974559784" lon="9.860362010076642">
        <ele>74.159999999999997</ele>
        <time>2019-05-05T09:30:24Z</time>
      </trkpt>
      <trkpt lat="52.473689010366797" lon="9.858205011114478">
        <ele>71.269999999999996</ele>
        <time>2019-05-05T09:30:35Z</time>
      </trkpt>
      <trkpt lat="52.473665038123727" lon="9.856322016566992">
        <ele>71.760000000000005</ele>
        <time>2019-05-05T09:30:45Z</time>
      </trkpt>
      <trkpt lat="52.473665960133076" lon="9.856216991320252">
        <ele>71.760000000000005</ele>
        <time>2019-05-05T09:30:46Z</time>
      </trkpt>
      <trkpt lat="52.473668977618217" lon="9.856140967458487">
        <ele>72.239999999999995</ele>
        <time>2019-05-05T09:30:47Z</time>
      </trkpt>
      <trkpt lat="52.47367300093174" lon="9.85604097135365">
        <ele>72.719999999999999</ele>
        <time>2019-05-05T09:30:49Z</time>
      </trkpt>
      <trkpt lat="52.47367400676012" lon="9.856010964140296">
        <ele>73.200000000000003</ele>
        <time>2019-05-05T09:30:50Z</time>
      </trkpt>
      <trkpt lat="52.473677024245262" lon="9.855938041582704">
        <ele>73.680000000000007</ele>
        <time>2019-05-05T09:31:00Z</time>
      </trkpt>
      <trkpt lat="52.473679035902023" lon="9.85586796887219">
        <ele>73.680000000000007</ele>
        <time>2019-05-05T09:31:01Z</time>
      </trkpt>
      <trkpt lat="52.47377903200686" lon="9.855730002745986">
        <ele>73.680000000000007</ele>
        <time>2019-05-05T09:31:02Z</time>
      </trkpt>
      <trkpt lat="52.47382597066462" lon="9.855755986645818">
        <ele>73.680000000000007</ele>
        <time>2019-05-05T09:31:03Z</time>
      </trkpt>
      <trkpt lat="52.473892020061612" lon="9.855791023001075">
        <ele>73.200000000000003</ele>
        <time>2019-05-05T09:31:04Z</time>
      </trkpt>
      <trkpt lat="52.473977012559772" lon="9.855833016335964">
        <ele>73.200000000000003</ele>
        <time>2019-05-05T09:31:05Z</time>
      </trkpt>
      <trkpt lat="52.474884018301964" lon="9.856067039072514">
        <ele>70.310000000000002</ele>
        <time>2019-05-05T09:31:12Z</time>
      </trkpt>
      <trkpt lat="52.476371973752975" lon="9.85644799657166">
        <ele>68.390000000000001</ele>
        <time>2019-05-05T09:31:20Z</time>
      </trkpt>
      <trkpt lat="52.478266032412648" lon="9.856926016509533">
        <ele>64.549999999999997</ele>
        <time>2019-05-05T09:31:29Z</time>
      </trkpt>
      <trkpt lat="52.480456978082657" lon="9.85747997649014">
        <ele>61.659999999999997</ele>
        <time>2019-05-05T09:31:40Z</time>
      </trkpt>
      <trkpt lat="52.481379993259907" lon="9.857710981741548">
        <ele>60.219999999999999</ele>
        <time>2019-05-05T09:31:47Z</time>
      </trkpt>
      <trkpt lat="52.481459034606814" lon="9.85773503780365">
        <ele>59.740000000000002</ele>
        <time>2019-05-05T09:31:48Z</time>
      </trkpt>
      <trkpt lat="52.48151795938611" lon="9.857868980616331">
        <ele>59.740000000000002</ele>
        <time>2019-05-05T09:31:49Z</time>
      </trkpt>
      <trkpt lat="52.481549978256226" lon="9.857900999486446">
        <ele>59.259999999999998</ele>
        <time>2019-05-05T09:31:50Z</time>
      </trkpt>
      <trkpt lat="52.481619967147708" lon="9.857852971181274">
        <ele>58.780000000000001</ele>
        <time>2019-05-05T09:31:51Z</time>
      </trkpt>
      <trkpt lat="52.481662966310978" lon="9.857810977846384">
        <ele>58.780000000000001</ele>
        <time>2019-05-05T09:31:52Z</time>
      </trkpt>
      <trkpt lat="52.481679981574416" lon="9.857720034196973">
        <ele>58.780000000000001</ele>
        <time>2019-05-05T09:31:53Z</time>
      </trkpt>
      <trkpt lat="52.481669001281261" lon="9.857654990628362">
        <ele>58.299999999999997</ele>
        <time>2019-05-05T09:31:54Z</time>
      </trkpt>
      <trkpt lat="52.481669001281261" lon="9.857654990628362">
        <ele>58.299999999999997</ele>
        <time>2019-05-05T09:31:55Z</time>
      </trkpt>
      <trkpt lat="52.481619967147708" lon="9.857403030619025">
        <ele>58.299999999999997</ele>
        <time>2019-05-05T09:31:56Z</time>
      </trkpt>
      <trkpt lat="52.481632959097624" lon="9.857254000380635">
        <ele>57.82</ele>
        <time>2019-05-05T09:31:57Z</time>
      </trkpt>
      <trkpt lat="52.481869999319315" lon="9.856012975797057">
        <ele>57.340000000000003</ele>
        <time>2019-05-05T09:32:03Z</time>
      </trkpt>
      <trkpt lat="52.482014000415802" lon="9.855526993051171">
        <ele>56.859999999999999</ele>
        <time>2019-05-05T09:32:05Z</time>
      </trkpt>
      <trkpt lat="52.482125982642174" lon="9.855310991406441">
        <ele>56.369999999999997</ele>
        <time>2019-05-05T09:32:06Z</time>
      </trkpt>
      <trkpt lat="52.483188975602388" lon="9.853562023490667">
        <ele>54.93</ele>
        <time>2019-05-05T09:32:14Z</time>
      </trkpt>
      <trkpt lat="52.48329701833427" lon="9.853291036561132">
        <ele>54.93</ele>
        <time>2019-05-05T09:32:15Z</time>
      </trkpt>
      <trkpt lat="52.483382010832429" lon="9.853003034368157">
        <ele>54.450000000000003</ele>
        <time>2019-05-05T09:32:16Z</time>
      </trkpt>
      <trkpt lat="52.483993973582983" lon="9.850289979949594">
        <ele>54.93</ele>
        <time>2019-05-05T09:32:25Z</time>
      </trkpt>
      <trkpt lat="52.484679026529193" lon="9.847662001848221">
        <ele>55.409999999999997</ele>
        <time>2019-05-05T09:32:34Z</time>
      </trkpt>
      <trkpt lat="52.485228041186929" lon="9.846319975331426">
        <ele>55.890000000000001</ele>
        <time>2019-05-05T09:32:41Z</time>
      </trkpt>
      <trkpt lat="52.485784012824297" lon="9.845392014831305">
        <ele>56.369999999999997</ele>
        <time>2019-05-05T09:32:50Z</time>
      </trkpt>
      <trkpt lat="52.485937988385558" lon="9.845150029286742">
        <ele>56.369999999999997</ele>
        <time>2019-05-05T09:32:54Z</time>
      </trkpt>
      <trkpt lat="52.485962966457009" lon="9.845114992931485">
        <ele>56.369999999999997</ele>
        <time>2019-05-05T09:32:55Z</time>
      </trkpt>
      <trkpt lat="52.485982999205589" lon="9.845085991546512">
        <ele>56.369999999999997</ele>
        <time>2019-05-05T09:32:56Z</time>
      </trkpt>
      <trkpt lat="52.485995991155505" lon="9.845068976283073">
        <ele>56.369999999999997</ele>
        <time>2019-05-05T09:32:57Z</time>
      </trkpt>
      <trkpt lat="52.485993979498744" lon="9.845070987939835">
        <ele>56.859999999999999</ele>
        <time>2019-05-05T09:32:59Z</time>
      </trkpt>
      <trkpt lat="52.486002026125789" lon="9.84506000764668">
        <ele>56.859999999999999</ele>
        <time>2019-05-05T09:33:00Z</time>
      </trkpt>
      <trkpt lat="52.486018035560846" lon="9.84503704123199">
        <ele>56.859999999999999</ele>
        <time>2019-05-05T09:33:01Z</time>
      </trkpt>
      <trkpt lat="52.486037984490395" lon="9.845008961856365">
        <ele>56.859999999999999</ele>
        <time>2019-05-05T09:33:02Z</time>
      </trkpt>
      <trkpt lat="52.485728021711111" lon="9.844444021582604">
        <ele>56.369999999999997</ele>
        <time>2019-05-05T09:33:07Z</time>
      </trkpt>
      <trkpt lat="52.485564993694425" lon="9.844516022130847">
        <ele>56.369999999999997</ele>
        <time>2019-05-05T09:33:13Z</time>
      </trkpt>
      <trkpt lat="52.485528029501438" lon="9.844862027093768">
        <ele>57.340000000000003</ele>
        <time>2019-05-05T09:33:24Z</time>
      </trkpt>
      <trkpt lat="52.485515959560871" lon="9.844887005165219">
        <ele>57.340000000000003</ele>
        <time>2019-05-05T09:33:42Z</time>
      </trkpt>
    </trkseg>
  </trk>

  <trk>
    <name>Track vom: 2019-05-05 12:13</name>
    <extensions>
      <gpxx:TrackExtension>
        <gpxx:DisplayColor>DarkGray</gpxx:DisplayColor>
      </gpxx:TrackExtension>
    </extensions>
    <trkseg>
      <trkpt lat="52.485460974276066" lon="9.844872001558542">
        <ele>65.510000000000005</ele>
        <time>2019-05-05T10:13:25Z</time>
      </trkpt>
      <trkpt lat="52.485464997589588" lon="9.84486797824502">
        <ele>65.510000000000005</ele>
        <time>2019-05-05T10:14:02Z</time>
      </trkpt>
      <trkpt lat="52.485464997589588" lon="9.84486797824502">
        <ele>65.510000000000005</ele>
        <time>2019-05-05T10:14:07Z</time>
      </trkpt>
      <trkpt lat="52.485599024221301" lon="9.84501700848341">
        <ele>63.579999999999998</ele>
        <time>2019-05-05T10:14:11Z</time>
      </trkpt>
      <trkpt lat="52.485910998657346" lon="9.845187999308109">
        <ele>61.18</ele>
        <time>2019-05-05T10:14:20Z</time>
      </trkpt>
      <trkpt lat="52.48591803945601" lon="9.845178024843335">
        <ele>61.18</ele>
        <time>2019-05-05T10:14:34Z</time>
      </trkpt>
      <trkpt lat="52.485995991155505" lon="9.845068976283073">
        <ele>61.18</ele>
        <time>2019-05-05T10:14:43Z</time>
      </trkpt>
      <trkpt lat="52.486039996147156" lon="9.845006028190255">
        <ele>61.18</ele>
        <time>2019-05-05T10:14:44Z</time>
      </trkpt>
      <trkpt lat="52.486604014411569" lon="9.844307983294129">
        <ele>57.340000000000003</ele>
        <time>2019-05-05T10:14:54Z</time>
      </trkpt>
      <trkpt lat="52.487159986048937" lon="9.843752011656761">
        <ele>56.859999999999999</ele>
        <time>2019-05-05T10:15:01Z</time>
      </trkpt>
      <trkpt lat="52.487207008525729" lon="9.843704989179969">
        <ele>56.859999999999999</ele>
        <time>2019-05-05T10:15:02Z</time>
      </trkpt>
      <trkpt lat="52.487238021567464" lon="9.843673976138234">
        <ele>56.859999999999999</ele>
        <time>2019-05-05T10:15:03Z</time>
      </trkpt>
      <trkpt lat="52.487256964668632" lon="9.843656960874796">
        <ele>56.369999999999997</ele>
        <time>2019-05-05T10:15:04Z</time>
      </trkpt>
      <trkpt lat="52.487256964668632" lon="9.843656960874796">
        <ele>56.369999999999997</ele>
        <time>2019-05-05T10:15:15Z</time>
      </trkpt>
      <trkpt lat="52.487526023760438" lon="9.843405000865459">
        <ele>55.409999999999997</ele>
        <time>2019-05-05T10:15:23Z</time>
      </trkpt>
      <trkpt lat="52.488361028954387" lon="9.842623975127935">
        <ele>56.859999999999999</ele>
        <time>2019-05-05T10:15:31Z</time>
      </trkpt>
      <trkpt lat="52.489334000274539" lon="9.84198896214366">
        <ele>52.530000000000001</ele>
        <time>2019-05-05T10:15:39Z</time>
      </trkpt>
      <trkpt lat="52.489558970555663" lon="9.841977981850505">
        <ele>50.609999999999999</ele>
        <time>2019-05-05T10:15:41Z</time>
      </trkpt>
      <trkpt lat="52.490172022953629" lon="9.841930037364364">
        <ele>48.200000000000003</ele>
        <time>2019-05-05T10:15:46Z</time>
      </trkpt>
      <trkpt lat="52.490836037322879" lon="9.84160297550261">
        <ele>46.280000000000001</ele>
        <time>2019-05-05T10:15:53Z</time>
      </trkpt>
      <trkpt lat="52.490948019549251" lon="9.84151697717607">
        <ele>45.799999999999997</ele>
        <time>2019-05-05T10:16:00Z</time>
      </trkpt>
      <trkpt lat="52.49114197678864" lon="9.841367024928331">
        <ele>45.799999999999997</ele>
        <time>2019-05-05T10:16:17Z</time>
      </trkpt>
      <trkpt lat="52.491930965334177" lon="9.840771993622184">
        <ele>47.719999999999999</ele>
        <time>2019-05-05T10:16:24Z</time>
      </trkpt>
      <trkpt lat="52.492904020473361" lon="9.839979987591505">
        <ele>49.159999999999997</ele>
        <time>2019-05-05T10:16:32Z</time>
      </trkpt>
      <trkpt lat="52.494141021743417" lon="9.838496977463365">
        <ele>51.57</ele>
        <time>2019-05-05T10:16:44Z</time>
      </trkpt>
      <trkpt lat="52.494532037526369" lon="9.838018035516143">
        <ele>51.57</ele>
        <time>2019-05-05T10:16:48Z</time>
      </trkpt>
      <trkpt lat="52.494647959247231" lon="9.837941005825996">
        <ele>51.57</ele>
        <time>2019-05-05T10:16:49Z</time>
      </trkpt>
      <trkpt lat="52.494766982272267" lon="9.837888032197952">
        <ele>52.049999999999997</ele>
        <time>2019-05-05T10:16:50Z</time>
      </trkpt>
      <trkpt lat="52.495239973068237" lon="9.837747970595956">
        <ele>53.969999999999999</ele>
        <time>2019-05-05T10:16:54Z</time>
      </trkpt>
      <trkpt lat="52.495324965566397" lon="9.837813014164567">
        <ele>53.969999999999999</ele>
        <time>2019-05-05T10:16:55Z</time>
      </trkpt>
      <trkpt lat="52.495325971394777" lon="9.837814019992948">
        <ele>53.490000000000002</ele>
        <time>2019-05-05T10:16:56Z</time>
      </trkpt>
      <trkpt lat="52.495410041883588" lon="9.838019041344523">
        <ele>53.490000000000002</ele>
        <time>2019-05-05T10:16:57Z</time>
      </trkpt>
      <trkpt lat="52.495423033833504" lon="9.838149966672063">
        <ele>53.009999999999998</ele>
        <time>2019-05-05T10:16:58Z</time>
      </trkpt>
      <trkpt lat="52.495438037440181" lon="9.83829103410244">
        <ele>53.009999999999998</ele>
        <time>2019-05-05T10:16:59Z</time>
      </trkpt>
      <trkpt lat="52.495518000796437" lon="9.839016990736127">
        <ele>53.009999999999998</ele>
        <time>2019-05-05T10:17:04Z</time>
      </trkpt>
      <trkpt lat="52.49554499052465" lon="9.839114975184202">
        <ele>53.009999999999998</ele>
        <time>2019-05-05T10:17:05Z</time>
      </trkpt>
      <trkpt lat="52.495573991909623" lon="9.839142970740795">
        <ele>53.490000000000002</ele>
        <time>2019-05-05T10:17:06Z</time>
      </trkpt>
      <trkpt lat="52.495641969144344" lon="9.839161997660995">
        <ele>53.490000000000002</ele>
        <time>2019-05-05T10:17:07Z</time>
      </trkpt>
      <trkpt lat="52.495701983571053" lon="9.839180018752813">
        <ele>53.490000000000002</ele>
        <time>2019-05-05T10:17:08Z</time>
      </trkpt>
      <trkpt lat="52.495757974684238" lon="9.839155962690711">
        <ele>53.969999999999999</ele>
        <time>2019-05-05T10:17:09Z</time>
      </trkpt>
      <trkpt lat="52.495852019637823" lon="9.839114975184202">
        <ele>53.969999999999999</ele>
        <time>2019-05-05T10:17:10Z</time>
      </trkpt>
      <trkpt lat="52.496717032045126" lon="9.838633015751839">
        <ele>54.450000000000003</ele>
        <time>2019-05-05T10:17:20Z</time>
      </trkpt>
      <trkpt lat="52.497719004750252" lon="9.838128006085753">
        <ele>53.009999999999998</ele>
        <time>2019-05-05T10:17:31Z</time>
      </trkpt>
      <trkpt lat="52.497719004750252" lon="9.838128006085753">
        <ele>52.530000000000001</ele>
        <time>2019-05-05T10:17:32Z</time>
      </trkpt>
      <trkpt lat="52.497808020561934" lon="9.838146027177572">
        <ele>52.530000000000001</ele>
        <time>2019-05-05T10:17:33Z</time>
      </trkpt>
      <trkpt lat="52.498054029420018" lon="9.83825096860528">
        <ele>52.530000000000001</ele>
        <time>2019-05-05T10:17:35Z</time>
      </trkpt>
      <trkpt lat="52.498190989717841" lon="9.838343001902103">
        <ele>52.049999999999997</ele>
        <time>2019-05-05T10:17:38Z</time>
      </trkpt>
      <trkpt lat="52.498224014416337" lon="9.838318023830652">
        <ele>51.57</ele>
        <time>2019-05-05T10:17:39Z</time>
      </trkpt>
      <trkpt lat="52.498273970559239" lon="9.838280975818634">
        <ele>51.57</ele>
        <time>2019-05-05T10:17:40Z</time>
      </trkpt>
      <trkpt lat="52.498333984985948" lon="9.838234959170222">
        <ele>51.57</ele>
        <time>2019-05-05T10:17:41Z</time>
      </trkpt>
      <trkpt lat="52.498362986370921" lon="9.838214004412293">
        <ele>51.090000000000003</ele>
        <time>2019-05-05T10:17:42Z</time>
      </trkpt>
      <trkpt lat="52.498398022726178" lon="9.838139992207289">
        <ele>51.090000000000003</ele>
        <time>2019-05-05T10:17:43Z</time>
      </trkpt>
      <trkpt lat="52.498430963605642" lon="9.838071009144187">
        <ele>50.609999999999999</ele>
        <time>2019-05-05T10:17:44Z</time>
      </trkpt>
      <trkpt lat="52.498468011617661" lon="9.837993979454041">
        <ele>50.609999999999999</ele>
        <time>2019-05-05T10:17:45Z</time>
      </trkpt>
      <trkpt lat="52.49851000495255" lon="9.83790697529912">
        <ele>50.609999999999999</ele>
        <time>2019-05-05T10:17:46Z</time>
      </trkpt>
      <trkpt lat="52.498904038220644" lon="9.837086973711848">
        <ele>49.649999999999999</ele>
        <time>2019-05-05T10:17:55Z</time>
      </trkpt>
      <trkpt lat="52.499042004346848" lon="9.836759995669127">
        <ele>49.649999999999999</ele>
        <time>2019-05-05T10:17:59Z</time>
      </trkpt>
      <trkpt lat="52.49917795881629" lon="9.836754966527224">
        <ele>49.649999999999999</ele>
        <time>2019-05-05T10:18:00Z</time>
      </trkpt>
      <trkpt lat="52.49917795881629" lon="9.836754966527224">
        <ele>49.649999999999999</ele>
        <time>2019-05-05T10:18:01Z</time>
      </trkpt>
      <trkpt lat="52.49917795881629" lon="9.836754966527224">
        <ele>49.159999999999997</ele>
        <time>2019-05-05T10:18:02Z</time>
      </trkpt>
      <trkpt lat="52.499342998489738" lon="9.836724037304521">
        <ele>48.68</ele>
        <time>2019-05-05T10:18:03Z</time>
      </trkpt>
      <trkpt lat="52.499423967674375" lon="9.836844988167286">
        <ele>48.68</ele>
        <time>2019-05-05T10:18:04Z</time>
      </trkpt>
      <trkpt lat="52.499516000971198" lon="9.836983038112521">
        <ele>48.200000000000003</ele>
        <time>2019-05-05T10:18:05Z</time>
      </trkpt>
      <trkpt lat="52.499617002904415" lon="9.837133996188641">
        <ele>48.200000000000003</ele>
        <time>2019-05-05T10:18:06Z</time>
      </trkpt>
      <trkpt lat="52.499724039807916" lon="9.837295012548566">
        <ele>47.719999999999999</ele>
        <time>2019-05-05T10:18:07Z</time>
      </trkpt>
      <trkpt lat="52.500104997307062" lon="9.83822800219059">
        <ele>45.799999999999997</ele>
        <time>2019-05-05T10:18:11Z</time>
      </trkpt>
      <trkpt lat="52.500185966491699" lon="9.838519021868706">
        <ele>45.799999999999997</ele>
        <time>2019-05-05T10:18:12Z</time>
      </trkpt>
      <trkpt lat="52.500235000625253" lon="9.838838037103415">
        <ele>45.799999999999997</ele>
        <time>2019-05-05T10:18:13Z</time>
      </trkpt>
      <trkpt lat="52.50027297064662" lon="9.83917498961091">
        <ele>45.799999999999997</ele>
        <time>2019-05-05T10:18:14Z</time>
      </trkpt>
      <trkpt lat="52.500312030315399" lon="9.839522000402212">
        <ele>45.799999999999997</ele>
        <time>2019-05-05T10:18:15Z</time>
      </trkpt>
      <trkpt lat="52.500352011993527" lon="9.839872028678656">
        <ele>46.280000000000001</ele>
        <time>2019-05-05T10:18:16Z</time>
      </trkpt>
      <trkpt lat="52.500604977831244" lon="9.842443009838462">
        <ele>47.719999999999999</ele>
        <time>2019-05-05T10:18:23Z</time>
      </trkpt>
      <trkpt lat="52.50121601857245" lon="9.844453996047378">
        <ele>48.68</ele>
        <time>2019-05-05T10:18:29Z</time>
      </trkpt>
      <trkpt lat="52.502180021256208" lon="9.84733896329999">
        <ele>49.649999999999999</ele>
        <time>2019-05-05T10:18:39Z</time>
      </trkpt>
      <trkpt lat="52.503315014764667" lon="9.850419983267784">
        <ele>48.68</ele>
        <time>2019-05-05T10:18:48Z</time>
      </trkpt>
      <trkpt lat="52.504514968022704" lon="9.852980989962816">
        <ele>51.090000000000003</ele>
        <time>2019-05-05T10:18:56Z</time>
      </trkpt>
      <trkpt lat="52.505750963464379" lon="9.854934979230166">
        <ele>50.130000000000003</ele>
        <time>2019-05-05T10:19:04Z</time>
      </trkpt>
      <trkpt lat="52.506219008937478" lon="9.855894958600402">
        <ele>48.200000000000003</ele>
        <time>2019-05-05T10:19:09Z</time>
      </trkpt>
      <trkpt lat="52.506276005879045" lon="9.856014987453818">
        <ele>48.200000000000003</ele>
        <time>2019-05-05T10:19:10Z</time>
      </trkpt>
      <trkpt lat="52.506238035857677" lon="9.856281029060483">
        <ele>48.200000000000003</ele>
        <time>2019-05-05T10:19:11Z</time>
      </trkpt>
      <trkpt lat="52.506276005879045" lon="9.856357974931598">
        <ele>48.200000000000003</ele>
        <time>2019-05-05T10:19:12Z</time>
      </trkpt>
      <trkpt lat="52.506452025845647" lon="9.856367027387023">
        <ele>48.68</ele>
        <time>2019-05-05T10:19:13Z</time>
      </trkpt>
      <trkpt lat="52.506497958675027" lon="9.856461994349957">
        <ele>48.68</ele>
        <time>2019-05-05T10:19:14Z</time>
      </trkpt>
      <trkpt lat="52.506573982536793" lon="9.856615969911218">
        <ele>48.68</ele>
        <time>2019-05-05T10:19:15Z</time>
      </trkpt>
      <trkpt lat="52.506660986691713" lon="9.856794001534581">
        <ele>49.159999999999997</ele>
        <time>2019-05-05T10:19:16Z</time>
      </trkpt>
      <trkpt lat="52.506757965311408" lon="9.856990976259112">
        <ele>49.649999999999999</ele>
        <time>2019-05-05T10:19:17Z</time>
      </trkpt>
      <trkpt lat="52.507086033001542" lon="9.857640992850065">
        <ele>51.090000000000003</ele>
        <time>2019-05-05T10:19:20Z</time>
      </trkpt>
      <trkpt lat="52.507225004956126" lon="9.857825981453061">
        <ele>51.090000000000003</ele>
        <time>2019-05-05T10:19:21Z</time>
      </trkpt>
      <trkpt lat="52.507375041022897" lon="9.857977023348212">
        <ele>51.57</ele>
        <time>2019-05-05T10:19:22Z</time>
      </trkpt>
      <trkpt lat="52.507568998262286" lon="9.858032008633018">
        <ele>51.57</ele>
        <time>2019-05-05T10:19:23Z</time>
      </trkpt>
      <trkpt lat="52.507763039320707" lon="9.858086993917823">
        <ele>51.57</ele>
        <time>2019-05-05T10:19:24Z</time>
      </trkpt>
      <trkpt lat="52.507960014045238" lon="9.858143990859389">
        <ele>51.57</ele>
        <time>2019-05-05T10:19:25Z</time>
      </trkpt>
      <trkpt lat="52.51000402495265" lon="9.858687976375222">
        <ele>53.009999999999998</ele>
        <time>2019-05-05T10:19:34Z</time>
      </trkpt>
      <trkpt lat="52.51273300498724" lon="9.859374035149813">
        <ele>53.490000000000002</ele>
        <time>2019-05-05T10:19:45Z</time>
      </trkpt>
      <trkpt lat="52.515596011653543" lon="9.860068978741765">
        <ele>51.090000000000003</ele>
        <time>2019-05-05T10:19:57Z</time>
      </trkpt>
      <trkpt lat="52.5160420127213" lon="9.860176015645266">
        <ele>49.649999999999999</ele>
        <time>2019-05-05T10:20:00Z</time>
      </trkpt>
      <trkpt lat="52.517451010644436" lon="9.86042202450335">
        <ele>46.759999999999998</ele>
        <time>2019-05-05T10:20:10Z</time>
      </trkpt>
      <trkpt lat="52.517608003690839" lon="9.860411966219544">
        <ele>46.759999999999998</ele>
        <time>2019-05-05T10:20:11Z</time>
      </trkpt>
      <trkpt lat="52.51778201200068" lon="9.86040098592639">
        <ele>46.759999999999998</ele>
        <time>2019-05-05T10:20:12Z</time>
      </trkpt>
      <trkpt lat="52.519167959690094" lon="9.859998989850283">
        <ele>46.280000000000001</ele>
        <time>2019-05-05T10:20:19Z</time>
      </trkpt>
      <trkpt lat="52.521824017167091" lon="9.859233973547816">
        <ele>46.280000000000001</ele>
        <time>2019-05-05T10:20:30Z</time>
      </trkpt>
      <trkpt lat="52.525309966877103" lon="9.858249016106129">
        <ele>47.240000000000002</ele>
        <time>2019-05-05T10:20:44Z</time>
      </trkpt>
      <trkpt lat="52.528515961021185" lon="9.857322983443737">
        <ele>46.759999999999998</ele>
        <time>2019-05-05T10:20:57Z</time>
      </trkpt>
      <trkpt lat="52.531175035983324" lon="9.856565007939935">
        <ele>46.280000000000001</ele>
        <time>2019-05-05T10:21:08Z</time>
      </trkpt>
      <trkpt lat="52.534113982692361" lon="9.855710975825787">
        <ele>48.200000000000003</ele>
        <time>2019-05-05T10:21:20Z</time>
      </trkpt>
      <trkpt lat="52.536084987223148" lon="9.855425991117954">
        <ele>47.719999999999999</ele>
        <time>2019-05-05T10:21:28Z</time>
      </trkpt>
      <trkpt lat="52.538570975884795" lon="9.855237985029817">
        <ele>45.799999999999997</ele>
        <time>2019-05-05T10:21:38Z</time>
      </trkpt>
      <trkpt lat="52.541327029466629" lon="9.855026006698608">
        <ele>44.840000000000003</ele>
        <time>2019-05-05T10:21:49Z</time>
      </trkpt>
      <trkpt lat="52.54534799605608" lon="9.854732975363731">
        <ele>45.32</ele>
        <time>2019-05-05T10:22:05Z</time>
      </trkpt>
      <trkpt lat="52.54947398789227" lon="9.854430975392461">
        <ele>44.840000000000003</ele>
        <time>2019-05-05T10:22:21Z</time>
      </trkpt>
      <trkpt lat="52.553629986941814" lon="9.854101985692978">
        <ele>43.399999999999999</ele>
        <time>2019-05-05T10:22:37Z</time>
      </trkpt>
      <trkpt lat="52.558482019230723" lon="9.853711975738406">
        <ele>41.950000000000003</ele>
        <time>2019-05-05T10:22:56Z</time>
      </trkpt>
      <trkpt lat="52.561558010056615" lon="9.853499997407198">
        <ele>40.030000000000001</ele>
        <time>2019-05-05T10:23:09Z</time>
      </trkpt>
      <trkpt lat="52.562695015221834" lon="9.853408969938755">
        <ele>39.07</ele>
        <time>2019-05-05T10:23:18Z</time>
      </trkpt>
      <trkpt lat="52.563908966258168" lon="9.853322971612215">
        <ele>36.670000000000002</ele>
        <time>2019-05-05T10:23:28Z</time>
      </trkpt>
      <trkpt lat="52.564659984782338" lon="9.853252982720733">
        <ele>33.780000000000001</ele>
        <time>2019-05-05T10:23:35Z</time>
      </trkpt>
      <trkpt lat="52.564876992255449" lon="9.853215012699366">
        <ele>34.740000000000002</ele>
        <time>2019-05-05T10:23:41Z</time>
      </trkpt>
      <trkpt lat="52.564949998632073" lon="9.85320202074945">
        <ele>34.740000000000002</ele>
        <time>2019-05-05T10:23:43Z</time>
      </trkpt>
      <trkpt lat="52.564997021108866" lon="9.853194979950786">
        <ele>35.229999999999997</ele>
        <time>2019-05-05T10:23:44Z</time>
      </trkpt>
      <trkpt lat="52.565040020272136" lon="9.853187017142773">
        <ele>35.229999999999997</ele>
        <time>2019-05-05T10:23:45Z</time>
      </trkpt>
      <trkpt lat="52.565173041075468" lon="9.85328902490437">
        <ele>35.229999999999997</ele>
        <time>2019-05-05T10:23:46Z</time>
      </trkpt>
      <trkpt lat="52.565195001661777" lon="9.853367982432246">
        <ele>35.229999999999997</ele>
        <time>2019-05-05T10:23:47Z</time>
      </trkpt>
      <trkpt lat="52.56522199138999" lon="9.85346001572907">
        <ele>35.229999999999997</ele>
        <time>2019-05-05T10:23:48Z</time>
      </trkpt>
      <trkpt lat="52.565253004431725" lon="9.85356998629868">
        <ele>35.229999999999997</ele>
        <time>2019-05-05T10:23:49Z</time>
      </trkpt>
      <trkpt lat="52.565298015251756" lon="9.853681968525052">
        <ele>35.710000000000001</ele>
        <time>2019-05-05T10:23:50Z</time>
      </trkpt>
      <trkpt lat="52.565423995256424" lon="9.85393300652504">
        <ele>36.189999999999998</ele>
        <time>2019-05-05T10:23:53Z</time>
      </trkpt>
      <trkpt lat="52.566225975751877" lon="9.854887034744024">
        <ele>37.149999999999999</ele>
        <time>2019-05-05T10:24:01Z</time>
      </trkpt>
      <trkpt lat="52.566343992948532" lon="9.854959035292268">
        <ele>37.149999999999999</ele>
        <time>2019-05-05T10:24:02Z</time>
      </trkpt>
      <trkpt lat="52.566462010145187" lon="9.855031035840511">
        <ele>36.670000000000002</ele>
        <time>2019-05-05T10:24:03Z</time>
      </trkpt>
      <trkpt lat="52.566580027341843" lon="9.855101024731994">
        <ele>36.670000000000002</ele>
        <time>2019-05-05T10:24:04Z</time>
      </trkpt>
      <trkpt lat="52.56670399568975" lon="9.855105970054865">
        <ele>36.670000000000002</ele>
        <time>2019-05-05T10:24:05Z</time>
      </trkpt>
      <trkpt lat="52.566826958209276" lon="9.855112005025148">
        <ele>37.149999999999999</ele>
        <time>2019-05-05T10:24:06Z</time>
      </trkpt>
      <trkpt lat="52.566945981234312" lon="9.855116028338671">
        <ele>37.149999999999999</ele>
        <time>2019-05-05T10:24:07Z</time>
      </trkpt>
      <trkpt lat="52.567063998430967" lon="9.855120973661542">
        <ele>37.149999999999999</ele>
        <time>2019-05-05T10:24:08Z</time>
      </trkpt>
      <trkpt lat="52.567433975636959" lon="9.855131031945348">
        <ele>37.630000000000003</ele>
        <time>2019-05-05T10:24:11Z</time>
      </trkpt>
      <trkpt lat="52.567554004490376" lon="9.855173025280237">
        <ele>37.630000000000003</ele>
        <time>2019-05-05T10:24:12Z</time>
      </trkpt>
      <trkpt lat="52.567674033343792" lon="9.855216024443507">
        <ele>37.630000000000003</ele>
        <time>2019-05-05T10:24:13Z</time>
      </trkpt>
      <trkpt lat="52.567791966721416" lon="9.855285007506609">
        <ele>37.630000000000003</ele>
        <time>2019-05-05T10:24:14Z</time>
      </trkpt>
      <trkpt lat="52.567906966432929" lon="9.855364970862865">
        <ele>37.630000000000003</ele>
        <time>2019-05-05T10:24:15Z</time>
      </trkpt>
      <trkpt lat="52.56801400333643" lon="9.855479970574379">
        <ele>37.630000000000003</ele>
        <time>2019-05-05T10:24:16Z</time>
      </trkpt>
      <trkpt lat="52.568115005269647" lon="9.855597987771034">
        <ele>37.149999999999999</ele>
        <time>2019-05-05T10:24:17Z</time>
      </trkpt>
      <trkpt lat="52.568217013031244" lon="9.85571701079607">
        <ele>36.670000000000002</ele>
        <time>2019-05-05T10:24:18Z</time>
      </trkpt>
      <trkpt lat="52.569651994854212" lon="9.857416022568941">
        <ele>37.149999999999999</ele>
        <time>2019-05-05T10:24:32Z</time>
      </trkpt>
      <trkpt lat="52.570624966174364" lon="9.858590997755528">
        <ele>37.630000000000003</ele>
        <time>2019-05-05T10:24:39Z</time>
      </trkpt>
      <trkpt lat="52.572382986545563" lon="9.860655963420868">
        <ele>39.549999999999997</ele>
        <time>2019-05-05T10:24:49Z</time>
      </trkpt>
      <trkpt lat="52.574383998289704" lon="9.863012032583356">
        <ele>40.030000000000001</ele>
        <time>2019-05-05T10:25:00Z</time>
      </trkpt>
      <trkpt lat="52.57639498449862" lon="9.865381009876728">
        <ele>39.07</ele>
        <time>2019-05-05T10:25:11Z</time>
      </trkpt>
      <trkpt lat="52.577859973534942" lon="9.867101982235909">
        <ele>38.590000000000003</ele>
        <time>2019-05-05T10:25:19Z</time>
      </trkpt>
      <trkpt lat="52.579979002475739" lon="9.869589982554317">
        <ele>40.990000000000002</ele>
        <time>2019-05-05T10:25:31Z</time>
      </trkpt>
      <trkpt lat="52.581050964072347" lon="9.870883980765939">
        <ele>40.509999999999998</ele>
        <time>2019-05-05T10:25:38Z</time>
      </trkpt>
      <trkpt lat="52.581748003140092" lon="9.871769025921822">
        <ele>40.030000000000001</ele>
        <time>2019-05-05T10:25:43Z</time>
      </trkpt>
      <trkpt lat="52.582530034705997" lon="9.873575996607542">
        <ele>41.469999999999999</ele>
        <time>2019-05-05T10:25:51Z</time>
      </trkpt>
      <trkpt lat="52.582803033292294" lon="9.874921040609479">
        <ele>40.990000000000002</ele>
        <time>2019-05-05T10:25:56Z</time>
      </trkpt>
      <trkpt lat="52.582827005535364" lon="9.875213988125324">
        <ele>40.509999999999998</ele>
        <time>2019-05-05T10:25:57Z</time>
      </trkpt>
      <trkpt lat="52.582909986376762" lon="9.877661000937223">
        <ele>41.469999999999999</ele>
        <time>2019-05-05T10:26:05Z</time>
      </trkpt>
      <trkpt lat="52.583206035196781" lon="9.880098961293697">
        <ele>41.469999999999999</ele>
        <time>2019-05-05T10:26:13Z</time>
      </trkpt>
      <trkpt lat="52.583770975470543" lon="9.883397994562984">
        <ele>41.950000000000003</ele>
        <time>2019-05-05T10:26:24Z</time>
      </trkpt>
      <trkpt lat="52.58427900262177" lon="9.886370971798897">
        <ele>41.469999999999999</ele>
        <time>2019-05-05T10:26:34Z</time>
      </trkpt>
      <trkpt lat="52.584381010383368" lon="9.886963991448283">
        <ele>41.469999999999999</ele>
        <time>2019-05-05T10:26:36Z</time>
      </trkpt>
      <trkpt lat="52.584780994802713" lon="9.889285024255514">
        <ele>40.990000000000002</ele>
        <time>2019-05-05T10:26:43Z</time>
      </trkpt>
      <trkpt lat="52.58528902195394" lon="9.892208967357874">
        <ele>39.549999999999997</ele>
        <time>2019-05-05T10:26:51Z</time>
      </trkpt>
      <trkpt lat="52.585685988888144" lon="9.894488006830216">
        <ele>39.07</ele>
        <time>2019-05-05T10:26:59Z</time>
      </trkpt>
      <trkpt lat="52.586024031043053" lon="9.896432021632791">
        <ele>38.590000000000003</ele>
        <time>2019-05-05T10:27:07Z</time>
      </trkpt>
      <trkpt lat="52.586255958303809" lon="9.897767007350922">
        <ele>38.109999999999999</ele>
        <time>2019-05-05T10:27:11Z</time>
      </trkpt>
      <trkpt lat="52.586360983550549" lon="9.89836698397994">
        <ele>38.109999999999999</ele>
        <time>2019-05-05T10:27:13Z</time>
      </trkpt>
      <trkpt lat="52.586661977693439" lon="9.900101032108069">
        <ele>37.149999999999999</ele>
        <time>2019-05-05T10:27:20Z</time>
      </trkpt>
      <trkpt lat="52.586944028735161" lon="9.901719996705651">
        <ele>37.149999999999999</ele>
        <time>2019-05-05T10:27:25Z</time>
      </trkpt>
      <trkpt lat="52.587349964305758" lon="9.904048992320895">
        <ele>38.590000000000003</ele>
        <time>2019-05-05T10:27:30Z</time>
      </trkpt>
      <trkpt lat="52.58775900118053" lon="9.906384022906423">
        <ele>40.030000000000001</ele>
        <time>2019-05-05T10:27:36Z</time>
      </trkpt>
      <trkpt lat="52.588198967278004" lon="9.908889960497618">
        <ele>40.990000000000002</ele>
        <time>2019-05-05T10:27:44Z</time>
      </trkpt>
      <trkpt lat="52.588249007239938" lon="9.909177962690592">
        <ele>41.469999999999999</ele>
        <time>2019-05-05T10:27:45Z</time>
      </trkpt>
      <trkpt lat="52.588299969211221" lon="9.909464959055185">
        <ele>41.469999999999999</ele>
        <time>2019-05-05T10:27:46Z</time>
      </trkpt>
      <trkpt lat="52.588350009173155" lon="9.909752039238811">
        <ele>41.469999999999999</ele>
        <time>2019-05-05T10:27:47Z</time>
      </trkpt>
      <trkpt lat="52.588400971144438" lon="9.910040041431785">
        <ele>41.469999999999999</ele>
        <time>2019-05-05T10:27:48Z</time>
      </trkpt>
      <trkpt lat="52.588452016934752" lon="9.910329971462488">
        <ele>41.469999999999999</ele>
        <time>2019-05-05T10:27:49Z</time>
      </trkpt>
      <trkpt lat="52.588890977203846" lon="9.912870023399591">
        <ele>39.549999999999997</ele>
        <time>2019-05-05T10:27:58Z</time>
      </trkpt>
      <trkpt lat="52.589433034881949" lon="9.91512400098145">
        <ele>40.509999999999998</ele>
        <time>2019-05-05T10:28:06Z</time>
      </trkpt>
      <trkpt lat="52.590354038402438" lon="9.917247975245118">
        <ele>42.439999999999998</ele>
        <time>2019-05-05T10:28:14Z</time>
      </trkpt>
      <trkpt lat="52.591482996940613" lon="9.919548975303769">
        <ele>44.840000000000003</ele>
        <time>2019-05-05T10:28:23Z</time>
      </trkpt>
      <trkpt lat="52.592463009059429" lon="9.92167403921485">
        <ele>45.799999999999997</ele>
        <time>2019-05-05T10:28:32Z</time>
      </trkpt>
      <trkpt lat="52.592930970713496" lon="9.923773035407066">
        <ele>45.799999999999997</ele>
        <time>2019-05-05T10:28:39Z</time>
      </trkpt>
      <trkpt lat="52.592887971550226" lon="9.92592902854085">
        <ele>45.32</ele>
        <time>2019-05-05T10:28:46Z</time>
      </trkpt>
      <trkpt lat="52.592630982398987" lon="9.928566981106997">
        <ele>43.399999999999999</ele>
        <time>2019-05-05T10:28:55Z</time>
      </trkpt>
      <trkpt lat="52.592620002105832" lon="9.929029997438192">
        <ele>42.920000000000002</ele>
        <time>2019-05-05T10:28:57Z</time>
      </trkpt>
      <trkpt lat="52.592620002105832" lon="9.929029997438192">
        <ele>42.439999999999998</ele>
        <time>2019-05-05T10:28:58Z</time>
      </trkpt>
      <trkpt lat="52.592612961307168" lon="9.929434005171061">
        <ele>41.950000000000003</ele>
        <time>2019-05-05T10:28:59Z</time>
      </trkpt>
      <trkpt lat="52.592610027641058" lon="9.929609019309282">
        <ele>41.469999999999999</ele>
        <time>2019-05-05T10:29:00Z</time>
      </trkpt>
      <trkpt lat="52.592607010155916" lon="9.929740028455854">
        <ele>40.990000000000002</ele>
        <time>2019-05-05T10:29:01Z</time>
      </trkpt>
      <trkpt lat="52.592674987390637" lon="9.92986299097538">
        <ele>40.509999999999998</ele>
        <time>2019-05-05T10:29:02Z</time>
      </trkpt>
      <trkpt lat="52.592726033180952" lon="9.929849999025464">
        <ele>40.509999999999998</ele>
        <time>2019-05-05T10:29:03Z</time>
      </trkpt>
      <trkpt lat="52.592804990708828" lon="9.929828960448504">
        <ele>40.509999999999998</ele>
        <time>2019-05-05T10:29:04Z</time>
      </trkpt>
      <trkpt lat="52.592904986813664" lon="9.929802976548672">
        <ele>40.990000000000002</ele>
        <time>2019-05-05T10:29:05Z</time>
      </trkpt>
      <trkpt lat="52.593027027323842" lon="9.929771963506937">
        <ele>40.990000000000002</ele>
        <time>2019-05-05T10:29:06Z</time>
      </trkpt>
      <trkpt lat="52.593171028420329" lon="9.92973399348557">
        <ele>41.469999999999999</ele>
        <time>2019-05-05T10:29:07Z</time>
      </trkpt>
      <trkpt lat="52.594533003866673" lon="9.929397040978074">
        <ele>42.439999999999998</ele>
        <time>2019-05-05T10:29:14Z</time>
      </trkpt>
      <trkpt lat="52.596242995932698" lon="9.928953973576427">
        <ele>42.920000000000002</ele>
        <time>2019-05-05T10:29:22Z</time>
      </trkpt>
      <trkpt lat="52.598225986585021" lon="9.928447036072612">
        <ele>42.439999999999998</ele>
        <time>2019-05-05T10:29:31Z</time>
      </trkpt>
      <trkpt lat="52.60060896165669" lon="9.927934985607863">
        <ele>40.990000000000002</ele>
        <time>2019-05-05T10:29:41Z</time>
      </trkpt>
      <trkpt lat="52.602512994781137" lon="9.92801696062088">
        <ele>40.509999999999998</ele>
        <time>2019-05-05T10:29:49Z</time>
      </trkpt>
      <trkpt lat="52.604086026549339" lon="9.928608974441886">
        <ele>40.030000000000001</ele>
        <time>2019-05-05T10:29:56Z</time>
      </trkpt>
      <trkpt lat="52.605995004996657" lon="9.929136028513312">
        <ele>40.509999999999998</ele>
        <time>2019-05-05T10:30:04Z</time>
      </trkpt>
      <trkpt lat="52.608499014750123" lon="9.929618993774056">
        <ele>41.950000000000003</ele>
        <time>2019-05-05T10:30:14Z</time>
      </trkpt>
      <trkpt lat="52.610762966796756" lon="9.93005502037704">
        <ele>44.840000000000003</ele>
        <time>2019-05-05T10:30:23Z</time>
      </trkpt>
      <trkpt lat="52.613317016512156" lon="9.930547960102558">
        <ele>45.799999999999997</ele>
        <time>2019-05-05T10:30:33Z</time>
      </trkpt>
      <trkpt lat="52.615098003298044" lon="9.93048501200974">
        <ele>45.32</ele>
        <time>2019-05-05T10:30:40Z</time>
      </trkpt>
      <trkpt lat="52.617591032758355" lon="9.929652018472552">
        <ele>46.280000000000001</ele>
        <time>2019-05-05T10:30:50Z</time>
      </trkpt>
      <trkpt lat="52.619363972917199" lon="9.929485972970724">
        <ele>45.32</ele>
        <time>2019-05-05T10:30:57Z</time>
      </trkpt>
      <trkpt lat="52.622235026210546" lon="9.929618993774056">
        <ele>46.759999999999998</ele>
        <time>2019-05-05T10:31:08Z</time>
      </trkpt>
      <trkpt lat="52.625515032559633" lon="9.929741034284234">
        <ele>46.280000000000001</ele>
        <time>2019-05-05T10:31:21Z</time>
      </trkpt>
      <trkpt lat="52.62752702459693" lon="9.929815968498588">
        <ele>44.840000000000003</ele>
        <time>2019-05-05T10:31:29Z</time>
      </trkpt>
      <trkpt lat="52.628824040293694" lon="9.929863996803761">
        <ele>43.880000000000003</ele>
        <time>2019-05-05T10:31:35Z</time>
      </trkpt>
      <trkpt lat="52.629812015220523" lon="9.929896015673876">
        <ele>41.950000000000003</ele>
        <time>2019-05-05T10:31:42Z</time>
      </trkpt>
      <trkpt lat="52.630176041275263" lon="9.929906995967031">
        <ele>41.469999999999999</ele>
        <time>2019-05-05T10:31:45Z</time>
      </trkpt>
      <trkpt lat="52.630293974652886" lon="9.929910013452172">
        <ele>41.469999999999999</ele>
        <time>2019-05-05T10:31:46Z</time>
      </trkpt>
      <trkpt lat="52.631152030080557" lon="9.929934991523624">
        <ele>40.990000000000002</ele>
        <time>2019-05-05T10:31:53Z</time>
      </trkpt>
      <trkpt lat="52.632890017703176" lon="9.930001040920615">
        <ele>38.590000000000003</ele>
        <time>2019-05-05T10:32:07Z</time>
      </trkpt>
      <trkpt lat="52.633143989369273" lon="9.930027024820447">
        <ele>38.590000000000003</ele>
        <time>2019-05-05T10:32:09Z</time>
      </trkpt>
      <trkpt lat="52.633402990177274" lon="9.930087039247155">
        <ele>38.590000000000003</ele>
        <time>2019-05-05T10:32:13Z</time>
      </trkpt>
      <trkpt lat="52.633402990177274" lon="9.930087039247155">
        <ele>38.590000000000003</ele>
        <time>2019-05-05T10:32:14Z</time>
      </trkpt>
      <trkpt lat="52.633402990177274" lon="9.930087039247155">
        <ele>38.590000000000003</ele>
        <time>2019-05-05T10:32:31Z</time>
      </trkpt>
      <trkpt lat="52.633559983223677" lon="9.930113023146987">
        <ele>40.030000000000001</ele>
        <time>2019-05-05T10:33:12Z</time>
      </trkpt>
      <trkpt lat="52.633650004863739" lon="9.930130960419774">
        <ele>40.030000000000001</ele>
        <time>2019-05-05T10:33:13Z</time>
      </trkpt>
      <trkpt lat="52.633870029821992" lon="9.930179994553328">
        <ele>40.030000000000001</ele>
        <time>2019-05-05T10:33:15Z</time>
      </trkpt>
      <trkpt lat="52.633999027311802" lon="9.930210001766682">
        <ele>40.030000000000001</ele>
        <time>2019-05-05T10:33:16Z</time>
      </trkpt>
      <trkpt lat="52.635284978896379" lon="9.93031301535666">
        <ele>39.07</ele>
        <time>2019-05-05T10:33:26Z</time>
      </trkpt>
      <trkpt lat="52.635889984667301" lon="9.930446036159992">
        <ele>40.509999999999998</ele>
        <time>2019-05-05T10:33:31Z</time>
      </trkpt>
      <trkpt lat="52.636010013520718" lon="9.930474031716585">
        <ele>40.990000000000002</ele>
        <time>2019-05-05T10:33:32Z</time>
      </trkpt>
      <trkpt lat="52.637246008962393" lon="9.930900000035763">
        <ele>43.399999999999999</ele>
        <time>2019-05-05T10:33:41Z</time>
      </trkpt>
      <trkpt lat="52.638650983572006" lon="9.931488996371627">
        <ele>44.840000000000003</ele>
        <time>2019-05-05T10:33:49Z</time>
      </trkpt>
      <trkpt lat="52.640645960345864" lon="9.932328024879098">
        <ele>46.280000000000001</ele>
        <time>2019-05-05T10:34:00Z</time>
      </trkpt>
      <trkpt lat="52.641992010176182" lon="9.932906040921807">
        <ele>50.130000000000003</ele>
        <time>2019-05-05T10:34:08Z</time>
      </trkpt>
      <trkpt lat="52.642664993181825" lon="9.933077031746507">
        <ele>49.649999999999999</ele>
        <time>2019-05-05T10:34:13Z</time>
      </trkpt>
      <trkpt lat="52.64402998611331" lon="9.933032020926476">
        <ele>48.200000000000003</ele>
        <time>2019-05-05T10:34:24Z</time>
      </trkpt>
      <trkpt lat="52.645624978467822" lon="9.933001007884741">
        <ele>47.719999999999999</ele>
        <time>2019-05-05T10:34:35Z</time>
      </trkpt>
      <trkpt lat="52.647822964936495" lon="9.932946022599936">
        <ele>43.399999999999999</ele>
        <time>2019-05-05T10:34:47Z</time>
      </trkpt>
      <trkpt lat="52.649646028876305" lon="9.932894976809621">
        <ele>41.469999999999999</ele>
        <time>2019-05-05T10:34:59Z</time>
      </trkpt>
      <trkpt lat="52.651005992665887" lon="9.932819036766887">
        <ele>40.990000000000002</ele>
        <time>2019-05-05T10:35:09Z</time>
      </trkpt>
      <trkpt lat="52.652755966410041" lon="9.932530028745532">
        <ele>41.469999999999999</ele>
        <time>2019-05-05T10:35:23Z</time>
      </trkpt>
      <trkpt lat="52.654351964592934" lon="9.932232974097133">
        <ele>40.509999999999998</ele>
        <time>2019-05-05T10:35:36Z</time>
      </trkpt>
      <trkpt lat="52.655956009402871" lon="9.931934997439385">
        <ele>40.990000000000002</ele>
        <time>2019-05-05T10:35:49Z</time>
      </trkpt>
      <trkpt lat="52.657442037016153" lon="9.931663004681468">
        <ele>38.590000000000003</ele>
        <time>2019-05-05T10:36:01Z</time>
      </trkpt>
      <trkpt lat="52.657914021983743" lon="9.931488996371627">
        <ele>38.109999999999999</ele>
        <time>2019-05-05T10:36:05Z</time>
      </trkpt>
      <trkpt lat="52.658027010038495" lon="9.931419007480145">
        <ele>38.109999999999999</ele>
        <time>2019-05-05T10:36:06Z</time>
      </trkpt>
      <trkpt lat="52.659029988572001" lon="9.930232968181372">
        <ele>38.590000000000003</ele>
        <time>2019-05-05T10:36:16Z</time>
      </trkpt>
      <trkpt lat="52.659485964104533" lon="9.929566020146012">
        <ele>38.109999999999999</ele>
        <time>2019-05-05T10:36:21Z</time>
      </trkpt>
      <trkpt lat="52.659554025158286" lon="9.929395029321313">
        <ele>38.109999999999999</ele>
        <time>2019-05-05T10:36:22Z</time>
      </trkpt>
      <trkpt lat="52.659609010443091" lon="9.92921800352633">
        <ele>38.109999999999999</ele>
        <time>2019-05-05T10:36:23Z</time>
      </trkpt>
      <trkpt lat="52.659659972414374" lon="9.929034020751715">
        <ele>37.630000000000003</ele>
        <time>2019-05-05T10:36:24Z</time>
      </trkpt>
      <trkpt lat="52.659700037911534" lon="9.928846014663577">
        <ele>37.630000000000003</ele>
        <time>2019-05-05T10:36:25Z</time>
      </trkpt>
      <trkpt lat="52.660046964883804" lon="9.926463039591909">
        <ele>36.189999999999998</ele>
        <time>2019-05-05T10:36:37Z</time>
      </trkpt>
      <trkpt lat="52.660274030640721" lon="9.924549032002688">
        <ele>36.189999999999998</ele>
        <time>2019-05-05T10:36:45Z</time>
      </trkpt>
      <trkpt lat="52.660583993420005" lon="9.92176003754139">
        <ele>32.340000000000003</ele>
        <time>2019-05-05T10:36:53Z</time>
      </trkpt>
      <trkpt lat="52.661027982831001" lon="9.919057041406632">
        <ele>32.340000000000003</ele>
        <time>2019-05-05T10:37:01Z</time>
      </trkpt>
      <trkpt lat="52.662072032690048" lon="9.916801974177361">
        <ele>32.82</ele>
        <time>2019-05-05T10:37:07Z</time>
      </trkpt>
      <trkpt lat="52.663712035864592" lon="9.914118004962802">
        <ele>32.340000000000003</ele>
        <time>2019-05-05T10:37:17Z</time>
      </trkpt>
      <trkpt lat="52.665484976023436" lon="9.910774966701865">
        <ele>31.859999999999999</ele>
        <time>2019-05-05T10:37:29Z</time>
      </trkpt>
      <trkpt lat="52.666915012523532" lon="9.907459001988173">
        <ele>31.859999999999999</ele>
        <time>2019-05-05T10:37:40Z</time>
      </trkpt>
      <trkpt lat="52.667627977207303" lon="9.905784968286753">
        <ele>32.82</ele>
        <time>2019-05-05T10:37:49Z</time>
      </trkpt>
      <trkpt lat="52.66781397163868" lon="9.905569972470403">
        <ele>33.780000000000001</ele>
        <time>2019-05-05T10:37:50Z</time>
      </trkpt>
      <trkpt lat="52.66781397163868" lon="9.905569972470403">
        <ele>34.259999999999998</ele>
        <time>2019-05-05T10:37:51Z</time>
      </trkpt>
      <trkpt lat="52.66787800937891" lon="9.905483974143863">
        <ele>34.740000000000002</ele>
        <time>2019-05-05T10:37:52Z</time>
      </trkpt>
      <trkpt lat="52.667866023257375" lon="9.905366040766239">
        <ele>35.229999999999997</ele>
        <time>2019-05-05T10:37:53Z</time>
      </trkpt>
      <trkpt lat="52.667903993278742" lon="9.905159007757902">
        <ele>35.710000000000001</ele>
        <time>2019-05-05T10:37:54Z</time>
      </trkpt>
      <trkpt lat="52.667963001877069" lon="9.905021963641048">
        <ele>35.710000000000001</ele>
        <time>2019-05-05T10:37:55Z</time>
      </trkpt>
      <trkpt lat="52.668031984940171" lon="9.904860025271773">
        <ele>35.710000000000001</ele>
        <time>2019-05-05T10:37:56Z</time>
      </trkpt>
      <trkpt lat="52.668647971004248" lon="9.903404004871845">
        <ele>35.710000000000001</ele>
        <time>2019-05-05T10:38:05Z</time>
      </trkpt>
      <trkpt lat="52.669091038405895" lon="9.902407983317971">
        <ele>32.82</ele>
        <time>2019-05-05T10:38:14Z</time>
      </trkpt>
      <trkpt lat="52.669140994548798" lon="9.902298012748361">
        <ele>32.82</ele>
        <time>2019-05-05T10:38:15Z</time>
      </trkpt>
      <trkpt lat="52.669219030067325" lon="9.902212014421821">
        <ele>32.340000000000003</ele>
        <time>2019-05-05T10:38:16Z</time>
      </trkpt>
      <trkpt lat="52.66929698176682" lon="9.902164991945028">
        <ele>31.859999999999999</ele>
        <time>2019-05-05T10:38:17Z</time>
      </trkpt>
      <trkpt lat="52.669379962608218" lon="9.902115035802126">
        <ele>31.379999999999999</ele>
        <time>2019-05-05T10:38:18Z</time>
      </trkpt>
      <trkpt lat="52.669463027268648" lon="9.90210103802383">
        <ele>31.379999999999999</ele>
        <time>2019-05-05T10:38:19Z</time>
      </trkpt>
      <trkpt lat="52.669550031423569" lon="9.902087040245533">
        <ele>31.859999999999999</ele>
        <time>2019-05-05T10:38:20Z</time>
      </trkpt>
      <trkpt lat="52.669893018901348" lon="9.902029959484935">
        <ele>33.299999999999997</ele>
        <time>2019-05-05T10:38:26Z</time>
      </trkpt>
      <trkpt lat="52.669893018901348" lon="9.902029959484935">
        <ele>33.299999999999997</ele>
        <time>2019-05-05T10:38:40Z</time>
      </trkpt>
      <trkpt lat="52.669937023892999" lon="9.902000958099961">
        <ele>33.780000000000001</ele>
        <time>2019-05-05T10:38:49Z</time>
      </trkpt>
      <trkpt lat="52.669972982257605" lon="9.90197598002851">
        <ele>34.740000000000002</ele>
        <time>2019-05-05T10:38:50Z</time>
      </trkpt>
      <trkpt lat="52.670212034136057" lon="9.901812030002475">
        <ele>35.229999999999997</ele>
        <time>2019-05-05T10:38:54Z</time>
      </trkpt>
      <trkpt lat="52.670297026634216" lon="9.901808006688952">
        <ele>35.229999999999997</ele>
        <time>2019-05-05T10:38:55Z</time>
      </trkpt>
      <trkpt lat="52.670374978333712" lon="9.901827033609152">
        <ele>35.229999999999997</ele>
        <time>2019-05-05T10:38:56Z</time>
      </trkpt>
      <trkpt lat="52.67045896500349" lon="9.901847988367081">
        <ele>35.710000000000001</ele>
        <time>2019-05-05T10:38:57Z</time>
      </trkpt>
      <trkpt lat="52.67054496333003" lon="9.901881013065577">
        <ele>35.710000000000001</ele>
        <time>2019-05-05T10:38:58Z</time>
      </trkpt>
      <trkpt lat="52.670630039647222" lon="9.901920994743705">
        <ele>35.710000000000001</ele>
        <time>2019-05-05T10:38:59Z</time>
      </trkpt>
      <trkpt lat="52.670726012438536" lon="9.901967011392117">
        <ele>35.710000000000001</ele>
        <time>2019-05-05T10:39:00Z</time>
      </trkpt>
      <trkpt lat="52.670825002714992" lon="9.902013028040528">
        <ele>35.710000000000001</ele>
        <time>2019-05-05T10:39:01Z</time>
      </trkpt>
      <trkpt lat="52.671838961541653" lon="9.902494987472892">
        <ele>37.630000000000003</ele>
        <time>2019-05-05T10:39:10Z</time>
      </trkpt>
      <trkpt lat="52.672446984797716" lon="9.902816014364362">
        <ele>40.509999999999998</ele>
        <time>2019-05-05T10:39:15Z</time>
      </trkpt>
      <trkpt lat="52.672557039186358" lon="9.902912992984057">
        <ele>40.990000000000002</ele>
        <time>2019-05-05T10:39:16Z</time>
      </trkpt>
      <trkpt lat="52.67264898866415" lon="9.903071997687221">
        <ele>40.990000000000002</ele>
        <time>2019-05-05T10:39:17Z</time>
      </trkpt>
      <trkpt lat="52.672730041667819" lon="9.903231002390385">
        <ele>41.469999999999999</ele>
        <time>2019-05-05T10:39:18Z</time>
      </trkpt>
      <trkpt lat="52.672813022509217" lon="9.903395958244801">
        <ele>41.469999999999999</ele>
        <time>2019-05-05T10:39:19Z</time>
      </trkpt>
      <trkpt lat="52.673559011891484" lon="9.904871005564928">
        <ele>37.149999999999999</ele>
        <time>2019-05-05T10:39:29Z</time>
      </trkpt>
      <trkpt lat="52.674698028713465" lon="9.90713101811707">
        <ele>35.229999999999997</ele>
        <time>2019-05-05T10:39:44Z</time>
      </trkpt>
      <trkpt lat="52.675129026174545" lon="9.907998964190483">
        <ele>35.710000000000001</ele>
        <time>2019-05-05T10:39:50Z</time>
      </trkpt>
      <trkpt lat="52.675215024501085" lon="9.908116981387138">
        <ele>36.189999999999998</ele>
        <time>2019-05-05T10:39:51Z</time>
      </trkpt>
      <trkpt lat="52.675301022827625" lon="9.908222006633878">
        <ele>36.189999999999998</ele>
        <time>2019-05-05T10:39:52Z</time>
      </trkpt>
      <trkpt lat="52.675400013104081" lon="9.908287972211838">
        <ele>36.189999999999998</ele>
        <time>2019-05-05T10:39:53Z</time>
      </trkpt>
      <trkpt lat="52.675497997552156" lon="9.908342035487294">
        <ele>36.189999999999998</ele>
        <time>2019-05-05T10:39:54Z</time>
      </trkpt>
      <trkpt lat="52.675603022798896" lon="9.908358966931701">
        <ele>36.189999999999998</ele>
        <time>2019-05-05T10:39:55Z</time>
      </trkpt>
      <trkpt lat="52.67571902833879" lon="9.908345974981785">
        <ele>36.189999999999998</ele>
        <time>2019-05-05T10:39:56Z</time>
      </trkpt>
      <trkpt lat="52.675828998908401" lon="9.908326026052237">
        <ele>36.189999999999998</ele>
        <time>2019-05-05T10:39:57Z</time>
      </trkpt>
      <trkpt lat="52.675940981134772" lon="9.908285960555077">
        <ele>36.670000000000002</ele>
        <time>2019-05-05T10:39:58Z</time>
      </trkpt>
      <trkpt lat="52.677329024299979" lon="9.907811963930726">
        <ele>35.710000000000001</ele>
        <time>2019-05-05T10:40:10Z</time>
      </trkpt>
      <trkpt lat="52.677552988752723" lon="9.90779503248632">
        <ele>34.740000000000002</ele>
        <time>2019-05-05T10:40:12Z</time>
      </trkpt>
      <trkpt lat="52.677658013999462" lon="9.907806012779474">
        <ele>34.259999999999998</ele>
        <time>2019-05-05T10:40:13Z</time>
      </trkpt>
      <trkpt lat="52.67776396125555" lon="9.907816993072629">
        <ele>33.780000000000001</ele>
        <time>2019-05-05T10:40:14Z</time>
      </trkpt>
      <trkpt lat="52.67872997559607" lon="9.908383022993803">
        <ele>31.859999999999999</ele>
        <time>2019-05-05T10:40:24Z</time>
      </trkpt>
      <trkpt lat="52.679111016914248" lon="9.908614028245211">
        <ele>28.5</ele>
        <time>2019-05-05T10:40:32Z</time>
      </trkpt>
      <trkpt lat="52.679129038006067" lon="9.908625008538365">
        <ele>28.02</ele>
        <time>2019-05-05T10:40:41Z</time>
      </trkpt>
      <trkpt lat="52.67937202937901" lon="9.908772027119994">
        <ele>28.02</ele>
        <time>2019-05-05T10:40:50Z</time>
      </trkpt>
      <trkpt lat="52.679750975221395" lon="9.909005966037512">
        <ele>28.02</ele>
        <time>2019-05-05T10:40:55Z</time>
      </trkpt>
      <trkpt lat="52.680386994034052" lon="9.909358005970717">
        <ele>28.98</ele>
        <time>2019-05-05T10:41:03Z</time>
      </trkpt>
      <trkpt lat="52.680467963218689" lon="9.909403016790748">
        <ele>28.98</ele>
        <time>2019-05-05T10:41:04Z</time>
      </trkpt>
      <trkpt lat="52.680550022050738" lon="9.909448027610779">
        <ele>28.98</ele>
        <time>2019-05-05T10:41:05Z</time>
      </trkpt>
      <trkpt lat="52.680550022050738" lon="9.909448027610779">
        <ele>29.460000000000001</ele>
        <time>2019-05-05T10:41:06Z</time>
      </trkpt>
      <trkpt lat="52.680886974558234" lon="9.909608038142324">
        <ele>30.899999999999999</ele>
        <time>2019-05-05T10:41:09Z</time>
      </trkpt>
      <trkpt lat="52.681167013943195" lon="9.909671992063522">
        <ele>31.859999999999999</ele>
        <time>2019-05-05T10:41:12Z</time>
      </trkpt>
      <trkpt lat="52.681271033361554" lon="9.909676015377045">
        <ele>32.340000000000003</ele>
        <time>2019-05-05T10:41:13Z</time>
      </trkpt>
      <trkpt lat="52.681372035294771" lon="9.909680038690567">
        <ele>32.340000000000003</ele>
        <time>2019-05-05T10:41:14Z</time>
      </trkpt>
      <trkpt lat="52.682377025485039" lon="9.909604014828801">
        <ele>37.149999999999999</ele>
        <time>2019-05-05T10:41:24Z</time>
      </trkpt>
      <trkpt lat="52.682583974674344" lon="9.909575013443828">
        <ele>39.549999999999997</ele>
        <time>2019-05-05T10:41:26Z</time>
      </trkpt>
      <trkpt lat="52.682692017406225" lon="9.909563027322292">
        <ele>40.509999999999998</ele>
        <time>2019-05-05T10:41:27Z</time>
      </trkpt>
      <trkpt lat="52.682799976319075" lon="9.909590017050505">
        <ele>40.990000000000002</ele>
        <time>2019-05-05T10:41:28Z</time>
      </trkpt>
      <trkpt lat="52.683786023408175" lon="9.909868966788054">
        <ele>42.439999999999998</ele>
        <time>2019-05-05T10:41:37Z</time>
      </trkpt>
      <trkpt lat="52.685236008837819" lon="9.91031002253294">
        <ele>42.920000000000002</ele>
        <time>2019-05-05T10:41:49Z</time>
      </trkpt>
      <trkpt lat="52.686577029526234" lon="9.910715036094189">
        <ele>41.950000000000003</ele>
        <time>2019-05-05T10:42:00Z</time>
      </trkpt>
      <trkpt lat="52.687762985005975" lon="9.911061963066459">
        <ele>40.030000000000001</ele>
        <time>2019-05-05T10:42:10Z</time>
      </trkpt>
      <trkpt lat="52.688865959644318" lon="9.911378966644406">
        <ele>39.07</ele>
        <time>2019-05-05T10:42:19Z</time>
      </trkpt>
      <trkpt lat="52.690442008897662" lon="9.911853969097138">
        <ele>36.189999999999998</ele>
        <time>2019-05-05T10:42:32Z</time>
      </trkpt>
      <trkpt lat="52.692299019545317" lon="9.912409018725157">
        <ele>34.259999999999998</ele>
        <time>2019-05-05T10:42:47Z</time>
      </trkpt>
      <trkpt lat="52.69295297563076" lon="9.912619991227984">
        <ele>34.740000000000002</ele>
        <time>2019-05-05T10:42:53Z</time>
      </trkpt>
      <trkpt lat="52.693069986999035" lon="9.91284403949976">
        <ele>34.740000000000002</ele>
        <time>2019-05-05T10:42:54Z</time>
      </trkpt>
      <trkpt lat="52.693087002262473" lon="9.912860970944166">
        <ele>34.740000000000002</ele>
        <time>2019-05-05T10:42:55Z</time>
      </trkpt>
      <trkpt lat="52.693181969225407" lon="9.912949986755848">
        <ele>35.229999999999997</ele>
        <time>2019-05-05T10:42:56Z</time>
      </trkpt>
      <trkpt lat="52.693261010572314" lon="9.91293397732079">
        <ele>35.229999999999997</ele>
        <time>2019-05-05T10:42:57Z</time>
      </trkpt>
      <trkpt lat="52.693354971706867" lon="9.91273800842464">
        <ele>35.229999999999997</ele>
        <time>2019-05-05T10:42:58Z</time>
      </trkpt>
      <trkpt lat="52.693453961983323" lon="9.912770027294755">
        <ele>34.740000000000002</ele>
        <time>2019-05-05T10:42:59Z</time>
      </trkpt>
      <trkpt lat="52.693569967523217" lon="9.912806991487742">
        <ele>34.740000000000002</ele>
        <time>2019-05-05T10:43:00Z</time>
      </trkpt>
      <trkpt lat="52.693699970841408" lon="9.91284797899425">
        <ele>34.259999999999998</ele>
        <time>2019-05-05T10:43:01Z</time>
      </trkpt>
      <trkpt lat="52.693835003301501" lon="9.91289097815752">
        <ele>33.780000000000001</ele>
        <time>2019-05-05T10:43:02Z</time>
      </trkpt>
      <trkpt lat="52.695282977074385" lon="9.913291968405247">
        <ele>32.82</ele>
        <time>2019-05-05T10:43:11Z</time>
      </trkpt>
      <trkpt lat="52.697668969631195" lon="9.913966041058302">
        <ele>33.780000000000001</ele>
        <time>2019-05-05T10:43:22Z</time>
      </trkpt>
      <trkpt lat="52.70051496103406" lon="9.914769027382135">
        <ele>33.299999999999997</ele>
        <time>2019-05-05T10:43:34Z</time>
      </trkpt>
      <trkpt lat="52.702932972460985" lon="9.915422983467579">
        <ele>35.229999999999997</ele>
        <time>2019-05-05T10:43:44Z</time>
      </trkpt>
      <trkpt lat="52.706201998516917" lon="9.916381035000086">
        <ele>37.630000000000003</ele>
        <time>2019-05-05T10:43:58Z</time>
      </trkpt>
      <trkpt lat="52.707801014184952" lon="9.917053012177348">
        <ele>39.07</ele>
        <time>2019-05-05T10:44:06Z</time>
      </trkpt>
      <trkpt lat="52.709245970472693" lon="9.91813201457262">
        <ele>43.399999999999999</ele>
        <time>2019-05-05T10:44:14Z</time>
      </trkpt>
      <trkpt lat="52.710737027227879" lon="9.919004989787936">
        <ele>47.719999999999999</ele>
        <time>2019-05-05T10:44:22Z</time>
      </trkpt>
      <trkpt lat="52.712756982073188" lon="9.919975027441979">
        <ele>48.68</ele>
        <time>2019-05-05T10:44:30Z</time>
      </trkpt>
      <trkpt lat="52.715260991826653" lon="9.921176992356777">
        <ele>53.490000000000002</ele>
        <time>2019-05-05T10:44:40Z</time>
      </trkpt>
      <trkpt lat="52.717605996876955" lon="9.922052985057235">
        <ele>53.969999999999999</ele>
        <time>2019-05-05T10:44:49Z</time>
      </trkpt>
      <trkpt lat="52.719191014766693" lon="9.92262396030128">
        <ele>53.009999999999998</ele>
        <time>2019-05-05T10:44:55Z</time>
      </trkpt>
      <trkpt lat="52.721538031473756" lon="9.923471035435796">
        <ele>53.490000000000002</ele>
        <time>2019-05-05T10:45:04Z</time>
      </trkpt>
      <trkpt lat="52.723791003227234" lon="9.924496980383992">
        <ele>57.340000000000003</ele>
        <time>2019-05-05T10:45:13Z</time>
      </trkpt>
      <trkpt lat="52.725738035514951" lon="9.925477998331189">
        <ele>61.659999999999997</ele>
        <time>2019-05-05T10:45:21Z</time>
      </trkpt>
      <trkpt lat="52.728083962574601" lon="9.926658002659679">
        <ele>63.579999999999998</ele>
        <time>2019-05-05T10:45:31Z</time>
      </trkpt>
      <trkpt lat="52.729244017973542" lon="9.927235012874007">
        <ele>62.619999999999997</ele>
        <time>2019-05-05T10:45:38Z</time>
      </trkpt>
      <trkpt lat="52.730671958997846" lon="9.92788796313107">
        <ele>59.259999999999998</ele>
        <time>2019-05-05T10:45:49Z</time>
      </trkpt>
      <trkpt lat="52.730916040018201" lon="9.92797002196312">
        <ele>59.740000000000002</ele>
        <time>2019-05-05T10:45:51Z</time>
      </trkpt>
      <trkpt lat="52.731032967567444" lon="9.927952000871301">
        <ele>59.740000000000002</ele>
        <time>2019-05-05T10:45:52Z</time>
      </trkpt>
      <trkpt lat="52.731156013906002" lon="9.927930040284991">
        <ele>60.219999999999999</ele>
        <time>2019-05-05T10:45:53Z</time>
      </trkpt>
      <trkpt lat="52.731521967798471" lon="9.927863990888">
        <ele>59.740000000000002</ele>
        <time>2019-05-05T10:45:56Z</time>
      </trkpt>
      <trkpt lat="52.733090976253152" lon="9.927399968728423">
        <ele>57.340000000000003</ele>
        <time>2019-05-05T10:46:09Z</time>
      </trkpt>
      <trkpt lat="52.734669037163258" lon="9.926934018731117">
        <ele>57.340000000000003</ele>
        <time>2019-05-05T10:46:22Z</time>
      </trkpt>
      <trkpt lat="52.73491102270782" lon="9.926864029839635">
        <ele>57.340000000000003</ele>
        <time>2019-05-05T10:46:24Z</time>
      </trkpt>
      <trkpt lat="52.735029961913824" lon="9.926829999312758">
        <ele>57.82</ele>
        <time>2019-05-05T10:46:25Z</time>
      </trkpt>
      <trkpt lat="52.736616991460323" lon="9.926340999081731">
        <ele>58.780000000000001</ele>
        <time>2019-05-05T10:46:38Z</time>
      </trkpt>
      <trkpt lat="52.73779003880918" lon="9.925818974152207">
        <ele>60.219999999999999</ele>
        <time>2019-05-05T10:46:48Z</time>
      </trkpt>
      <trkpt lat="52.739128964021802" lon="9.92474801838398">
        <ele>60.700000000000003</ele>
        <time>2019-05-05T10:46:59Z</time>
      </trkpt>
      <trkpt lat="52.74084297940135" lon="9.923294009640813">
        <ele>60.700000000000003</ele>
        <time>2019-05-05T10:47:10Z</time>
      </trkpt>
      <trkpt lat="52.742446018382907" lon="9.92193203419447">
        <ele>59.740000000000002</ele>
        <time>2019-05-05T10:47:18Z</time>
      </trkpt>
      <trkpt lat="52.744843997061253" lon="9.919904032722116">
        <ele>61.18</ele>
        <time>2019-05-05T10:47:29Z</time>
      </trkpt>
      <trkpt lat="52.746336981654167" lon="9.918640963733196">
        <ele>62.619999999999997</ele>
        <time>2019-05-05T10:47:36Z</time>
      </trkpt>
      <trkpt lat="52.747377008199692" lon="9.917761031538248">
        <ele>62.140000000000001</ele>
        <time>2019-05-05T10:47:41Z</time>
      </trkpt>
      <trkpt lat="52.747584041208029" lon="9.917586017400026">
        <ele>62.140000000000001</ele>
        <time>2019-05-05T10:47:42Z</time>
      </trkpt>
      <trkpt lat="52.749430993571877" lon="9.916023965924978">
        <ele>58.780000000000001</ele>
        <time>2019-05-05T10:47:51Z</time>
      </trkpt>
      <trkpt lat="52.751098992303014" lon="9.914613040164113">
        <ele>54.450000000000003</ele>
        <time>2019-05-05T10:47:59Z</time>
      </trkpt>
      <trkpt lat="52.752631036564708" lon="9.913701005280018">
        <ele>53.490000000000002</ele>
        <time>2019-05-05T10:48:06Z</time>
      </trkpt>
      <trkpt lat="52.754636993631721" lon="9.913117038086057">
        <ele>57.82</ele>
        <time>2019-05-05T10:48:15Z</time>
      </trkpt>
      <trkpt lat="52.756042974069715" lon="9.912729039788246">
        <ele>57.82</ele>
        <time>2019-05-05T10:48:23Z</time>
      </trkpt>
      <trkpt lat="52.75618102401495" lon="9.912702972069383">
        <ele>57.82</ele>
        <time>2019-05-05T10:48:24Z</time>
      </trkpt>
      <trkpt lat="52.756323013454676" lon="9.912685034796596">
        <ele>57.82</ele>
        <time>2019-05-05T10:48:25Z</time>
      </trkpt>
      <trkpt lat="52.756459973752499" lon="9.912667013704777">
        <ele>57.82</ele>
        <time>2019-05-05T10:48:26Z</time>
      </trkpt>
      <trkpt lat="52.756589977070689" lon="9.912648992612958">
        <ele>57.340000000000003</ele>
        <time>2019-05-05T10:48:27Z</time>
      </trkpt>
      <trkpt lat="52.756716040894389" lon="9.9126329831779">
        <ele>56.859999999999999</ele>
        <time>2019-05-05T10:48:28Z</time>
      </trkpt>
      <trkpt lat="52.756940005347133" lon="9.912611022591591">
        <ele>56.859999999999999</ele>
        <time>2019-05-05T10:48:30Z</time>
      </trkpt>
      <trkpt lat="52.757304031401873" lon="9.912643963471055">
        <ele>56.859999999999999</ele>
        <time>2019-05-05T10:48:36Z</time>
      </trkpt>
      <trkpt lat="52.757377959787846" lon="9.912651004269719">
        <ele>56.859999999999999</ele>
        <time>2019-05-05T10:48:37Z</time>
      </trkpt>
      <trkpt lat="52.757402015849948" lon="9.912585038691759">
        <ele>56.859999999999999</ele>
        <time>2019-05-05T10:48:38Z</time>
      </trkpt>
      <trkpt lat="52.75742799974978" lon="9.912513960152865">
        <ele>56.859999999999999</ele>
        <time>2019-05-05T10:48:39Z</time>
      </trkpt>
      <trkpt lat="52.757449960336089" lon="9.912454029545188">
        <ele>56.859999999999999</ele>
        <time>2019-05-05T10:48:40Z</time>
      </trkpt>
      <trkpt lat="52.757463958114386" lon="9.912414969876409">
        <ele>57.340000000000003</ele>
        <time>2019-05-05T10:48:41Z</time>
      </trkpt>
      <trkpt lat="52.757563032209873" lon="9.912170972675085">
        <ele>57.340000000000003</ele>
        <time>2019-05-05T10:48:52Z</time>
      </trkpt>
      <trkpt lat="52.757570995017886" lon="9.912199974060059">
        <ele>56.859999999999999</ele>
        <time>2019-05-05T10:49:06Z</time>
      </trkpt>
      <trkpt lat="52.757570995017886" lon="9.912199974060059">
        <ele>56.369999999999997</ele>
        <time>2019-05-05T10:49:07Z</time>
      </trkpt>
      <trkpt lat="52.757570995017886" lon="9.912199974060059">
        <ele>55.890000000000001</ele>
        <time>2019-05-05T10:49:24Z</time>
      </trkpt>
      <trkpt lat="52.757570995017886" lon="9.912199974060059">
        <ele>55.890000000000001</ele>
        <time>2019-05-05T10:49:50Z</time>
      </trkpt>
      <trkpt lat="52.757570995017886" lon="9.912199974060059">
        <ele>54.93</ele>
        <time>2019-05-05T10:49:56Z</time>
      </trkpt>
      <trkpt lat="52.757463958114386" lon="9.912414969876409">
        <ele>54.93</ele>
        <time>2019-05-05T10:49:57Z</time>
      </trkpt>
      <trkpt lat="52.757463958114386" lon="9.912414969876409">
        <ele>54.93</ele>
        <time>2019-05-05T10:49:58Z</time>
      </trkpt>
      <trkpt lat="52.757573006674647" lon="9.912274992093444">
        <ele>54.450000000000003</ele>
        <time>2019-05-05T10:49:59Z</time>
      </trkpt>
      <trkpt lat="52.75749396532774" lon="9.912355039268732">
        <ele>53.490000000000002</ele>
        <time>2019-05-05T10:50:04Z</time>
      </trkpt>
      <trkpt lat="52.757469993084669" lon="9.912402983754873">
        <ele>53.490000000000002</ele>
        <time>2019-05-05T10:50:05Z</time>
      </trkpt>
      <trkpt lat="52.757463958114386" lon="9.912414969876409">
        <ele>53.490000000000002</ele>
        <time>2019-05-05T10:50:06Z</time>
      </trkpt>
      <trkpt lat="52.757435962557793" lon="9.912490993738174">
        <ele>53.490000000000002</ele>
        <time>2019-05-05T10:50:07Z</time>
      </trkpt>
      <trkpt lat="52.757420036941767" lon="9.912534998729825">
        <ele>53.009999999999998</ele>
        <time>2019-05-05T10:50:08Z</time>
      </trkpt>
      <trkpt lat="52.757397992536426" lon="9.912596018984914">
        <ele>53.009999999999998</ele>
        <time>2019-05-05T10:50:18Z</time>
      </trkpt>
      <trkpt lat="52.757377959787846" lon="9.912651004269719">
        <ele>52.530000000000001</ele>
        <time>2019-05-05T10:50:20Z</time>
      </trkpt>
      <trkpt lat="52.757387012243271" lon="9.912655027583242">
        <ele>52.530000000000001</ele>
        <time>2019-05-05T10:50:21Z</time>
      </trkpt>
      <trkpt lat="52.75745096616447" lon="9.912687968462706">
        <ele>52.530000000000001</ele>
        <time>2019-05-05T10:50:22Z</time>
      </trkpt>
      <trkpt lat="52.757521038874984" lon="9.912724010646343">
        <ele>52.530000000000001</ele>
        <time>2019-05-05T10:50:23Z</time>
      </trkpt>
      <trkpt lat="52.758243978023529" lon="9.913149978965521">
        <ele>51.090000000000003</ele>
        <time>2019-05-05T10:50:30Z</time>
      </trkpt>
      <trkpt lat="52.759232958778739" lon="9.913992024958134">
        <ele>50.609999999999999</ele>
        <time>2019-05-05T10:50:37Z</time>
      </trkpt>
      <trkpt lat="52.760554030537605" lon="9.915117966011167">
        <ele>50.130000000000003</ele>
        <time>2019-05-05T10:50:44Z</time>
      </trkpt>
      <trkpt lat="52.762924013659358" lon="9.917136998847127">
        <ele>54.450000000000003</ele>
        <time>2019-05-05T10:50:55Z</time>
      </trkpt>
      <trkpt lat="52.76471396908164" lon="9.918662002310157">
        <ele>57.82</ele>
        <time>2019-05-05T10:51:03Z</time>
      </trkpt>
      <trkpt lat="52.767396010458469" lon="9.92094598710537">
        <ele>61.659999999999997</ele>
        <time>2019-05-05T10:51:15Z</time>
      </trkpt>
      <trkpt lat="52.770248958840966" lon="9.923376990482211">
        <ele>64.549999999999997</ele>
        <time>2019-05-05T10:51:28Z</time>
      </trkpt>
      <trkpt lat="52.771691987290978" lon="9.924565963447094">
        <ele>62.619999999999997</ele>
        <time>2019-05-05T10:51:36Z</time>
      </trkpt>
      <trkpt lat="52.773437015712261" lon="9.926089039072394">
        <ele>61.18</ele>
        <time>2019-05-05T10:51:47Z</time>
      </trkpt>
      <trkpt lat="52.775273993611336" lon="9.927677996456623">
        <ele>58.780000000000001</ele>
        <time>2019-05-05T10:51:59Z</time>
      </trkpt>
      <trkpt lat="52.777158999815583" lon="9.929302996024489">
        <ele>63.100000000000001</ele>
        <time>2019-05-05T10:52:11Z</time>
      </trkpt>
      <trkpt lat="52.779056997969747" lon="9.930947022512555">
        <ele>69.349999999999994</ele>
        <time>2019-05-05T10:52:23Z</time>
      </trkpt>
      <trkpt lat="52.780909985303879" lon="9.932257030159235">
        <ele>67.430000000000007</ele>
        <time>2019-05-05T10:52:35Z</time>
      </trkpt>
      <trkpt lat="52.782466001808643" lon="9.93297703564167">
        <ele>66.469999999999999</ele>
        <time>2019-05-05T10:52:45Z</time>
      </trkpt>
      <trkpt lat="52.783535029739141" lon="9.933457989245653">
        <ele>68.870000000000005</ele>
        <time>2019-05-05T10:52:54Z</time>
      </trkpt>
      <trkpt lat="52.785107977688313" lon="9.93418000638485">
        <ele>67.909999999999997</ele>
        <time>2019-05-05T10:53:07Z</time>
      </trkpt>
      <trkpt lat="52.785676019266248" lon="9.934602035209537">
        <ele>65.510000000000005</ele>
        <time>2019-05-05T10:53:12Z</time>
      </trkpt>
      <trkpt lat="52.785783978179097" lon="9.934690967202187">
        <ele>64.549999999999997</ele>
        <time>2019-05-05T10:53:13Z</time>
      </trkpt>
      <trkpt lat="52.787148971110582" lon="9.935552962124348">
        <ele>59.259999999999998</ele>
        <time>2019-05-05T10:53:25Z</time>
      </trkpt>
      <trkpt lat="52.788258986547589" lon="9.935709033161402">
        <ele>60.219999999999999</ele>
        <time>2019-05-05T10:53:34Z</time>
      </trkpt>
      <trkpt lat="52.789474027231336" lon="9.935680031776428">
        <ele>62.619999999999997</ele>
        <time>2019-05-05T10:53:41Z</time>
      </trkpt>
      <trkpt lat="52.792237959802151" lon="9.935388006269932">
        <ele>62.619999999999997</ele>
        <time>2019-05-05T10:53:55Z</time>
      </trkpt>
      <trkpt lat="52.793900007382035" lon="9.935322040691972">
        <ele>58.780000000000001</ele>
        <time>2019-05-05T10:54:05Z</time>
      </trkpt>
      <trkpt lat="52.794054988771677" lon="9.935385994613171">
        <ele>58.299999999999997</ele>
        <time>2019-05-05T10:54:06Z</time>
      </trkpt>
      <trkpt lat="52.794206030666828" lon="9.935477022081614">
        <ele>57.82</ele>
        <time>2019-05-05T10:54:07Z</time>
      </trkpt>
      <trkpt lat="52.794351959601045" lon="9.935584980994463">
        <ele>57.340000000000003</ele>
        <time>2019-05-05T10:54:08Z</time>
      </trkpt>
      <trkpt lat="52.794492021203041" lon="9.935710038989782">
        <ele>57.340000000000003</ele>
        <time>2019-05-05T10:54:09Z</time>
      </trkpt>
      <trkpt lat="52.794623030349612" lon="9.935854962095618">
        <ele>57.340000000000003</ele>
        <time>2019-05-05T10:54:10Z</time>
      </trkpt>
      <trkpt lat="52.794743981212378" lon="9.936026036739349">
        <ele>57.82</ele>
        <time>2019-05-05T10:54:11Z</time>
      </trkpt>
      <trkpt lat="52.794865015894175" lon="9.936219993978739">
        <ele>57.82</ele>
        <time>2019-05-05T10:54:12Z</time>
      </trkpt>
      <trkpt lat="52.794974986463785" lon="9.93643700145185">
        <ele>58.299999999999997</ele>
        <time>2019-05-05T10:54:13Z</time>
      </trkpt>
      <trkpt lat="52.795085040852427" lon="9.936660965904594">
        <ele>58.780000000000001</ele>
        <time>2019-05-05T10:54:14Z</time>
      </trkpt>
      <trkpt lat="52.796555981040001" lon="9.939712984487414">
        <ele>61.659999999999997</ele>
        <time>2019-05-05T10:54:27Z</time>
      </trkpt>
      <trkpt lat="52.797822989523411" lon="9.94200199842453">
        <ele>62.140000000000001</ele>
        <time>2019-05-05T10:54:37Z</time>
      </trkpt>
      <trkpt lat="52.799440026283264" lon="9.944704994559288">
        <ele>65.030000000000001</ele>
        <time>2019-05-05T10:54:49Z</time>
      </trkpt>
      <trkpt lat="52.800364969298244" lon="9.946251036599279">
        <ele>67.909999999999997</ele>
        <time>2019-05-05T10:54:57Z</time>
      </trkpt>
      <trkpt lat="52.801483031362295" lon="9.948115004226565">
        <ele>66.950000000000003</ele>
        <time>2019-05-05T10:55:06Z</time>
      </trkpt>
      <trkpt lat="52.803066959604621" lon="9.950761003419757">
        <ele>65.510000000000005</ele>
        <time>2019-05-05T10:55:19Z</time>
      </trkpt>
      <trkpt lat="52.803489994257689" lon="9.951452007517219">
        <ele>65.510000000000005</ele>
        <time>2019-05-05T10:55:24Z</time>
      </trkpt>
      <trkpt lat="52.80355897732079" lon="9.95156298391521">
        <ele>65.510000000000005</ele>
        <time>2019-05-05T10:55:25Z</time>
      </trkpt>
      <trkpt lat="52.803576998412609" lon="9.951854003593326">
        <ele>65.510000000000005</ele>
        <time>2019-05-05T10:55:26Z</time>
      </trkpt>
      <trkpt lat="52.803595019504428" lon="9.951903037726879">
        <ele>65.510000000000005</ele>
        <time>2019-05-05T10:55:27Z</time>
      </trkpt>
      <trkpt lat="52.803656039759517" lon="9.95203698053956">
        <ele>65.510000000000005</ele>
        <time>2019-05-05T10:55:28Z</time>
      </trkpt>
      <trkpt lat="52.803745977580547" lon="9.952108981087804">
        <ele>65.510000000000005</ele>
        <time>2019-05-05T10:55:29Z</time>
      </trkpt>
      <trkpt lat="52.803890984505415" lon="9.952109986916184">
        <ele>65.510000000000005</ele>
        <time>2019-05-05T10:55:30Z</time>
      </trkpt>
      <trkpt lat="52.803975977003574" lon="9.952262034639716">
        <ele>65.510000000000005</ele>
        <time>2019-05-05T10:55:31Z</time>
      </trkpt>
      <trkpt lat="52.804070021957159" lon="9.952432019636035">
        <ele>65.510000000000005</ele>
        <time>2019-05-05T10:55:32Z</time>
      </trkpt>
      <trkpt lat="52.804837971925735" lon="9.953745966777206">
        <ele>63.579999999999998</ele>
        <time>2019-05-05T10:55:40Z</time>
      </trkpt>
      <trkpt lat="52.805711030960083" lon="9.955195030197501">
        <ele>59.740000000000002</ele>
        <time>2019-05-05T10:55:50Z</time>
      </trkpt>
      <trkpt lat="52.806571014225483" lon="9.956645015627146">
        <ele>60.700000000000003</ele>
        <time>2019-05-05T10:56:00Z</time>
      </trkpt>
      <trkpt lat="52.807415993884206" lon="9.958023000508547">
        <ele>64.069999999999993</ele>
        <time>2019-05-05T10:56:10Z</time>
      </trkpt>
      <trkpt lat="52.807601988315582" lon="9.958328017964959">
        <ele>65.030000000000001</ele>
        <time>2019-05-05T10:56:13Z</time>
      </trkpt>
      <trkpt lat="52.807668037712574" lon="9.958407981321216">
        <ele>65.030000000000001</ele>
        <time>2019-05-05T10:56:14Z</time>
      </trkpt>
      <trkpt lat="52.807745989412069" lon="9.958450980484486">
        <ele>65.510000000000005</ele>
        <time>2019-05-05T10:56:15Z</time>
      </trkpt>
      <trkpt lat="52.807827964425087" lon="9.958467995747924">
        <ele>65.510000000000005</ele>
        <time>2019-05-05T10:56:16Z</time>
      </trkpt>
      <trkpt lat="52.807911029085517" lon="9.958484005182982">
        <ele>65.989999999999995</ele>
        <time>2019-05-05T10:56:17Z</time>
      </trkpt>
      <trkpt lat="52.808007001876831" lon="9.958559023216367">
        <ele>65.989999999999995</ele>
        <time>2019-05-05T10:56:18Z</time>
      </trkpt>
      <trkpt lat="52.808094006031752" lon="9.958627000451088">
        <ele>65.989999999999995</ele>
        <time>2019-05-05T10:56:19Z</time>
      </trkpt>
      <trkpt lat="52.808175981044769" lon="9.958691038191319">
        <ele>65.989999999999995</ele>
        <time>2019-05-05T10:56:20Z</time>
      </trkpt>
      <trkpt lat="52.80875701457262" lon="9.959143996238709">
        <ele>63.579999999999998</ele>
        <time>2019-05-05T10:56:30Z</time>
      </trkpt>
      <trkpt lat="52.808780986815691" lon="9.959163023158908">
        <ele>63.579999999999998</ele>
        <time>2019-05-05T10:56:38Z</time>
      </trkpt>
      <trkpt lat="52.808982990682125" lon="9.95942696928978">
        <ele>64.069999999999993</ele>
        <time>2019-05-05T10:56:47Z</time>
      </trkpt>
      <trkpt lat="52.809044010937214" lon="9.959509028121829">
        <ele>63.579999999999998</ele>
        <time>2019-05-05T10:56:48Z</time>
      </trkpt>
      <trkpt lat="52.809365037828684" lon="9.960008002817631">
        <ele>64.549999999999997</ele>
        <time>2019-05-05T10:56:53Z</time>
      </trkpt>
      <trkpt lat="52.809437038376927" lon="9.960086038336158">
        <ele>64.549999999999997</ele>
        <time>2019-05-05T10:56:54Z</time>
      </trkpt>
      <trkpt lat="52.809840962290764" lon="9.960422990843654">
        <ele>65.989999999999995</ele>
        <time>2019-05-05T10:56:59Z</time>
      </trkpt>
      <trkpt lat="52.809921009466052" lon="9.96049901470542">
        <ele>65.989999999999995</ele>
        <time>2019-05-05T10:57:00Z</time>
      </trkpt>
      <trkpt lat="52.810466000810266" lon="9.96131599880755">
        <ele>66.469999999999999</ele>
        <time>2019-05-05T10:57:09Z</time>
      </trkpt>
      <trkpt lat="52.810525009408593" lon="9.961427981033921">
        <ele>66.950000000000003</ele>
        <time>2019-05-05T10:57:16Z</time>
      </trkpt>
      <trkpt lat="52.81058301217854" lon="9.961538035422564">
        <ele>66.950000000000003</ele>
        <time>2019-05-05T10:57:54Z</time>
      </trkpt>
      <trkpt lat="52.810795996338129" lon="9.961478020995855">
        <ele>63.579999999999998</ele>
        <time>2019-05-05T10:58:02Z</time>
      </trkpt>
      <trkpt lat="52.810890041291714" lon="9.961340976879001">
        <ele>60.700000000000003</ele>
        <time>2019-05-05T10:58:04Z</time>
      </trkpt>
      <trkpt lat="52.81094703823328" lon="9.961256990209222">
        <ele>59.259999999999998</ele>
        <time>2019-05-05T10:58:05Z</time>
      </trkpt>
      <trkpt lat="52.81148498877883" lon="9.960340010002255">
        <ele>53.969999999999999</ele>
        <time>2019-05-05T10:58:12Z</time>
      </trkpt>
      <trkpt lat="52.812498025596142" lon="9.958611996844411">
        <ele>54.93</ele>
        <time>2019-05-05T10:58:24Z</time>
      </trkpt>
      <trkpt lat="52.813296988606453" lon="9.957236023619771">
        <ele>59.259999999999998</ele>
        <time>2019-05-05T10:58:34Z</time>
      </trkpt>
      <trkpt lat="52.81417197547853" lon="9.955692999064922">
        <ele>63.100000000000001</ele>
        <time>2019-05-05T10:58:45Z</time>
      </trkpt>
      <trkpt lat="52.815235974267125" lon="9.953847974538803">
        <ele>66.469999999999999</ele>
        <time>2019-05-05T10:58:56Z</time>
      </trkpt>
      <trkpt lat="52.816368034109473" lon="9.951887028291822">
        <ele>72.239999999999995</ele>
        <time>2019-05-05T10:59:04Z</time>
      </trkpt>
      <trkpt lat="52.81827500090003" lon="9.948562011122704">
        <ele>74.159999999999997</ele>
        <time>2019-05-05T10:59:15Z</time>
      </trkpt>
      <trkpt lat="52.820449015125632" lon="9.94483700953424">
        <ele>72.239999999999995</ele>
        <time>2019-05-05T10:59:27Z</time>
      </trkpt>
      <trkpt lat="52.8218839969486" lon="9.942323025316">
        <ele>69.349999999999994</ele>
        <time>2019-05-05T10:59:35Z</time>
      </trkpt>
      <trkpt lat="52.823000969365239" lon="9.940387979149818">
        <ele>68.390000000000001</ele>
        <time>2019-05-05T10:59:42Z</time>
      </trkpt>
      <trkpt lat="52.824629992246628" lon="9.937552968040109">
        <ele>63.579999999999998</ele>
        <time>2019-05-05T10:59:54Z</time>
      </trkpt>
      <trkpt lat="52.825371958315372" lon="9.936281014233828">
        <ele>62.140000000000001</ele>
        <time>2019-05-05T11:00:01Z</time>
      </trkpt>
      <trkpt lat="52.826296985149384" lon="9.93465299718082">
        <ele>61.18</ele>
        <time>2019-05-05T11:00:12Z</time>
      </trkpt>
      <trkpt lat="52.827261993661523" lon="9.932993967086077">
        <ele>60.219999999999999</ele>
        <time>2019-05-05T11:00:23Z</time>
      </trkpt>
      <trkpt lat="52.828444009646773" lon="9.9312399700284">
        <ele>60.219999999999999</ele>
        <time>2019-05-05T11:00:36Z</time>
      </trkpt>
      <trkpt lat="52.829541033133864" lon="9.929859973490238">
        <ele>64.069999999999993</ele>
        <time>2019-05-05T11:00:47Z</time>
      </trkpt>
      <trkpt lat="52.830769987776875" lon="9.928273027762771">
        <ele>65.510000000000005</ele>
        <time>2019-05-05T11:00:59Z</time>
      </trkpt>
      <trkpt lat="52.831786964088678" lon="9.9269849807024">
        <ele>66.469999999999999</ele>
        <time>2019-05-05T11:01:06Z</time>
      </trkpt>
      <trkpt lat="52.833752017468214" lon="9.924499997869134">
        <ele>68.390000000000001</ele>
        <time>2019-05-05T11:01:16Z</time>
      </trkpt>
      <trkpt lat="52.835624031722546" lon="9.922118028625846">
        <ele>70.310000000000002</ele>
        <time>2019-05-05T11:01:26Z</time>
      </trkpt>
      <trkpt lat="52.836756007745862" lon="9.920714981853962">
        <ele>72.239999999999995</ele>
        <time>2019-05-05T11:01:34Z</time>
      </trkpt>
      <trkpt lat="52.838219990953803" lon="9.919521985575557">
        <ele>71.269999999999996</ele>
        <time>2019-05-05T11:01:43Z</time>
      </trkpt>
      <trkpt lat="52.839863011613488" lon="9.918510960415006">
        <ele>72.239999999999995</ele>
        <time>2019-05-05T11:01:51Z</time>
      </trkpt>
      <trkpt lat="52.843185011297464" lon="9.916511038318276">
        <ele>76.560000000000002</ele>
        <time>2019-05-05T11:02:05Z</time>
      </trkpt>
      <trkpt lat="52.845257017761469" lon="9.915260961279273">
        <ele>77.040000000000006</ele>
        <time>2019-05-05T11:02:14Z</time>
      </trkpt>
      <trkpt lat="52.846320010721684" lon="9.914616979658604">
        <ele>77.519999999999996</ele>
        <time>2019-05-05T11:02:21Z</time>
      </trkpt>
      <trkpt lat="52.846670961007476" lon="9.914401983842254">
        <ele>77.519999999999996</ele>
        <time>2019-05-05T11:02:24Z</time>
      </trkpt>
      <trkpt lat="52.847832022234797" lon="9.913718020543456">
        <ele>76.560000000000002</ele>
        <time>2019-05-05T11:02:34Z</time>
      </trkpt>
      <trkpt lat="52.849273961037397" lon="9.913226002827287">
        <ele>78.480000000000004</ele>
        <time>2019-05-05T11:02:46Z</time>
      </trkpt>
      <trkpt lat="52.850131010636687" lon="9.912946969270706">
        <ele>79.930000000000007</ele>
        <time>2019-05-05T11:02:53Z</time>
      </trkpt>
      <trkpt lat="52.851239014416933" lon="9.912643963471055">
        <ele>79.450000000000003</ele>
        <time>2019-05-05T11:03:01Z</time>
      </trkpt>
      <trkpt lat="52.852467969059944" lon="9.912456041201949">
        <ele>78</ele>
        <time>2019-05-05T11:03:07Z</time>
      </trkpt>
      <trkpt lat="52.854908024892211" lon="9.9122029915452">
        <ele>77.519999999999996</ele>
        <time>2019-05-05T11:03:17Z</time>
      </trkpt>
      <trkpt lat="52.85791696049273" lon="9.911930998787284">
        <ele>82.329999999999998</ele>
        <time>2019-05-05T11:03:29Z</time>
      </trkpt>
      <trkpt lat="52.860861020162702" lon="9.911969974637032">
        <ele>84.25</ele>
        <time>2019-05-05T11:03:41Z</time>
      </trkpt>
      <trkpt lat="52.863487992435694" lon="9.912408012896776">
        <ele>83.290000000000006</ele>
        <time>2019-05-05T11:03:52Z</time>
      </trkpt>
      <trkpt lat="52.866602959111333" lon="9.912965996190906">
        <ele>79.930000000000007</ele>
        <time>2019-05-05T11:04:05Z</time>
      </trkpt>
      <trkpt lat="52.868995992466807" lon="9.913402022793889">
        <ele>79.930000000000007</ele>
        <time>2019-05-05T11:04:15Z</time>
      </trkpt>
      <trkpt lat="52.870434997603297" lon="9.91366202943027">
        <ele>81.370000000000005</ele>
        <time>2019-05-05T11:04:22Z</time>
      </trkpt>
      <trkpt lat="52.872240962460637" lon="9.913961011916399">
        <ele>80.409999999999997</ele>
        <time>2019-05-05T11:04:31Z</time>
      </trkpt>
      <trkpt lat="52.874642964452505" lon="9.914401983842254">
        <ele>76.560000000000002</ele>
        <time>2019-05-05T11:04:41Z</time>
      </trkpt>
      <trkpt lat="52.875965964049101" lon="9.914624020457268">
        <ele>76.560000000000002</ele>
        <time>2019-05-05T11:04:48Z</time>
      </trkpt>
      <trkpt lat="52.877881983295083" lon="9.914967007935047">
        <ele>77.519999999999996</ele>
        <time>2019-05-05T11:04:59Z</time>
      </trkpt>
      <trkpt lat="52.879258040338755" lon="9.915214022621512">
        <ele>73.680000000000007</ele>
        <time>2019-05-05T11:05:07Z</time>
      </trkpt>
      <trkpt lat="52.880748007446527" lon="9.915465982630849">
        <ele>72.719999999999999</ele>
        <time>2019-05-05T11:05:14Z</time>
      </trkpt>
      <trkpt lat="52.882949011400342" lon="9.915850041434169">
        <ele>73.200000000000003</ele>
        <time>2019-05-05T11:05:22Z</time>
      </trkpt>
      <trkpt lat="52.885814029723406" lon="9.916349016129971">
        <ele>66.950000000000003</ele>
        <time>2019-05-05T11:05:32Z</time>
      </trkpt>
      <trkpt lat="52.887958958745003" lon="9.916723016649485">
        <ele>71.269999999999996</ele>
        <time>2019-05-05T11:05:40Z</time>
      </trkpt>
      <trkpt lat="52.888936037197709" lon="9.916903981938958">
        <ele>73.200000000000003</ele>
        <time>2019-05-05T11:05:44Z</time>
      </trkpt>
      <trkpt lat="52.889187997207046" lon="9.916947986930609">
        <ele>73.680000000000007</ele>
        <time>2019-05-05T11:05:45Z</time>
      </trkpt>
      <trkpt lat="52.891395958140492" lon="9.917331039905548">
        <ele>74.640000000000001</ele>
        <time>2019-05-05T11:05:53Z</time>
      </trkpt>
      <trkpt lat="52.894675964489579" lon="9.917902015149593">
        <ele>73.680000000000007</ele>
        <time>2019-05-05T11:06:05Z</time>
      </trkpt>
      <trkpt lat="52.897973991930485" lon="9.918477013707161">
        <ele>74.159999999999997</ele>
        <time>2019-05-05T11:06:17Z</time>
      </trkpt>
      <trkpt lat="52.900395020842552" lon="9.918898036703467">
        <ele>75.599999999999994</ele>
        <time>2019-05-05T11:06:26Z</time>
      </trkpt>
      <trkpt lat="52.901215022429824" lon="9.918987974524498">
        <ele>76.079999999999998</ele>
        <time>2019-05-05T11:06:29Z</time>
      </trkpt>
      <trkpt lat="52.901510987430811" lon="9.918995015323162">
        <ele>76.079999999999998</ele>
        <time>2019-05-05T11:06:30Z</time>
      </trkpt>
      <trkpt lat="52.903361963108182" lon="9.918801980093122">
        <ele>75.120000000000005</ele>
        <time>2019-05-05T11:06:36Z</time>
      </trkpt>
      <trkpt lat="52.903952971100807" lon="9.918656973168254">
        <ele>74.159999999999997</ele>
        <time>2019-05-05T11:06:38Z</time>
      </trkpt>
      <trkpt lat="52.907088976353407" lon="9.917479986324906">
        <ele>69.829999999999998</ele>
        <time>2019-05-05T11:06:49Z</time>
      </trkpt>
      <trkpt lat="52.909258967265487" lon="9.916635006666184">
        <ele>66.950000000000003</ele>
        <time>2019-05-05T11:06:57Z</time>
      </trkpt>
      <trkpt lat="52.911266013979912" lon="9.915850041434169">
        <ele>65.030000000000001</ele>
        <time>2019-05-05T11:07:05Z</time>
      </trkpt>
      <trkpt lat="52.913312036544085" lon="9.9150799959898">
        <ele>64.549999999999997</ele>
        <time>2019-05-05T11:07:14Z</time>
      </trkpt>
      <trkpt lat="52.915873965248466" lon="9.914119010791183">
        <ele>66.950000000000003</ele>
        <time>2019-05-05T11:07:24Z</time>
      </trkpt>
      <trkpt lat="52.918245960026979" lon="9.912929031997919">
        <ele>68.390000000000001</ele>
        <time>2019-05-05T11:07:33Z</time>
      </trkpt>
      <trkpt lat="52.921104021370411" lon="9.911141004413366">
        <ele>68.870000000000005</ele>
        <time>2019-05-05T11:07:44Z</time>
      </trkpt>
      <trkpt lat="52.92282197624445" lon="9.910051021724939">
        <ele>67.909999999999997</ele>
        <time>2019-05-05T11:07:52Z</time>
      </trkpt>
      <trkpt lat="52.923971973359585" lon="9.909405028447509">
        <ele>66.950000000000003</ele>
        <time>2019-05-05T11:07:58Z</time>
      </trkpt>
      <trkpt lat="52.924129972234368" lon="9.909398993477225">
        <ele>66.469999999999999</ele>
        <time>2019-05-05T11:07:59Z</time>
      </trkpt>
      <trkpt lat="52.924271039664745" lon="9.909392958506942">
        <ele>66.469999999999999</ele>
        <time>2019-05-05T11:08:00Z</time>
      </trkpt>
      <trkpt lat="52.924391990527511" lon="9.909421959891915">
        <ele>66.469999999999999</ele>
        <time>2019-05-05T11:08:01Z</time>
      </trkpt>
      <trkpt lat="52.924487041309476" lon="9.909523967653513">
        <ele>66.469999999999999</ele>
        <time>2019-05-05T11:08:02Z</time>
      </trkpt>
      <trkpt lat="52.924574967473745" lon="9.909618012607098">
        <ele>66.469999999999999</ele>
        <time>2019-05-05T11:08:03Z</time>
      </trkpt>
      <trkpt lat="52.924641016870737" lon="9.909856980666518">
        <ele>66.469999999999999</ele>
        <time>2019-05-05T11:08:04Z</time>
      </trkpt>
      <trkpt lat="52.924608998000622" lon="9.910057978704572">
        <ele>66.469999999999999</ele>
        <time>2019-05-05T11:08:05Z</time>
      </trkpt>
      <trkpt lat="52.924549989402294" lon="9.910186976194382">
        <ele>66.950000000000003</ele>
        <time>2019-05-05T11:08:06Z</time>
      </trkpt>
      <trkpt lat="52.924512019380927" lon="9.910269035026431">
        <ele>66.950000000000003</ele>
        <time>2019-05-05T11:08:07Z</time>
      </trkpt>
      <trkpt lat="52.924370029941201" lon="9.910367019474506">
        <ele>66.950000000000003</ele>
        <time>2019-05-05T11:08:08Z</time>
      </trkpt>
      <trkpt lat="52.924250001087785" lon="9.910450000315905">
        <ele>66.950000000000003</ele>
        <time>2019-05-05T11:08:09Z</time>
      </trkpt>
      <trkpt lat="52.924118991941214" lon="9.910541027784348">
        <ele>67.430000000000007</ele>
        <time>2019-05-05T11:08:10Z</time>
      </trkpt>
      <trkpt lat="52.923574000597" lon="9.910919973626733">
        <ele>68.390000000000001</ele>
        <time>2019-05-05T11:08:16Z</time>
      </trkpt>
      <trkpt lat="52.923533013090491" lon="9.910947969183326">
        <ele>68.870000000000005</ele>
        <time>2019-05-05T11:08:22Z</time>
      </trkpt>
      <trkpt lat="52.923474004492164" lon="9.911038996651769">
        <ele>69.349999999999994</ele>
        <time>2019-05-05T11:08:23Z</time>
      </trkpt>
      <trkpt lat="52.923524966463447" lon="9.911191966384649">
        <ele>69.829999999999998</ele>
        <time>2019-05-05T11:08:24Z</time>
      </trkpt>
      <trkpt lat="52.923542987555265" lon="9.911282993853092">
        <ele>69.829999999999998</ele>
        <time>2019-05-05T11:08:25Z</time>
      </trkpt>
      <trkpt lat="52.923586992546916" lon="9.911463959142566">
        <ele>70.310000000000002</ele>
        <time>2019-05-05T11:08:26Z</time>
      </trkpt>
      <trkpt lat="52.924029976129532" lon="9.913115026429296">
        <ele>70.310000000000002</ele>
        <time>2019-05-05T11:08:32Z</time>
      </trkpt>
      <trkpt lat="52.925115013495088" lon="9.916158998385072">
        <ele>67.909999999999997</ele>
        <time>2019-05-05T11:08:40Z</time>
      </trkpt>
      <trkpt lat="52.926736995577812" lon="9.920757981017232">
        <ele>66.950000000000003</ele>
        <time>2019-05-05T11:08:51Z</time>
      </trkpt>
      <trkpt lat="52.926823999732733" lon="9.92120398208499">
        <ele>66.950000000000003</ele>
        <time>2019-05-05T11:08:52Z</time>
      </trkpt>
      <trkpt lat="52.926858030259609" lon="9.92167697288096">
        <ele>66.950000000000003</ele>
        <time>2019-05-05T11:08:53Z</time>
      </trkpt>
      <trkpt lat="52.927083000540733" lon="9.925043983384967">
        <ele>64.549999999999997</ele>
        <time>2019-05-05T11:09:00Z</time>
      </trkpt>
      <trkpt lat="52.927624974399805" lon="9.927706997841597">
        <ele>63.579999999999998</ele>
        <time>2019-05-05T11:09:06Z</time>
      </trkpt>
      <trkpt lat="52.92903296649456" lon="9.930730015039444">
        <ele>62.140000000000001</ele>
        <time>2019-05-05T11:09:14Z</time>
      </trkpt>
      <trkpt lat="52.930353032425046" lon="9.933823021128774">
        <ele>63.579999999999998</ele>
        <time>2019-05-05T11:09:22Z</time>
      </trkpt>
      <trkpt lat="52.931133974343538" lon="9.936521993950009">
        <ele>65.989999999999995</ele>
        <time>2019-05-05T11:09:28Z</time>
      </trkpt>
      <trkpt lat="52.931735040619969" lon="9.939314005896449">
        <ele>69.829999999999998</ele>
        <time>2019-05-05T11:09:34Z</time>
      </trkpt>
      <trkpt lat="52.931820033118129" lon="9.941739980131388">
        <ele>70.790000000000006</ele>
        <time>2019-05-05T11:09:39Z</time>
      </trkpt>
      <trkpt lat="52.931527001783252" lon="9.946216000244021">
        <ele>68.390000000000001</ele>
        <time>2019-05-05T11:09:48Z</time>
      </trkpt>
      <trkpt lat="52.931212009862065" lon="9.950495967641473">
        <ele>66.469999999999999</ele>
        <time>2019-05-05T11:09:57Z</time>
      </trkpt>
      <trkpt lat="52.930832980200648" lon="9.955630972981453">
        <ele>65.510000000000005</ele>
        <time>2019-05-05T11:10:08Z</time>
      </trkpt>
      <trkpt lat="52.930886959657073" lon="9.958787010982633">
        <ele>65.030000000000001</ele>
        <time>2019-05-05T11:10:15Z</time>
      </trkpt>
      <trkpt lat="52.931068008765578" lon="9.961232012137771">
        <ele>64.549999999999997</ele>
        <time>2019-05-05T11:10:22Z</time>
      </trkpt>
      <trkpt lat="52.931238999590278" lon="9.963017022237182">
        <ele>65.510000000000005</ele>
        <time>2019-05-05T11:10:29Z</time>
      </trkpt>
      <trkpt lat="52.931260960176587" lon="9.963194970041513">
        <ele>65.989999999999995</ele>
        <time>2019-05-05T11:10:30Z</time>
      </trkpt>
      <trkpt lat="52.931500012055039" lon="9.965175027027726">
        <ele>66.950000000000003</ele>
        <time>2019-05-05T11:10:40Z</time>
      </trkpt>
      <trkpt lat="52.931872000917792" lon="9.967667972669005">
        <ele>67.909999999999997</ele>
        <time>2019-05-05T11:10:52Z</time>
      </trkpt>
      <trkpt lat="52.932370975613594" lon="9.970785034820437">
        <ele>69.349999999999994</ele>
        <time>2019-05-05T11:11:04Z</time>
      </trkpt>
      <trkpt lat="52.932410035282373" lon="9.97104998677969">
        <ele>69.829999999999998</ele>
        <time>2019-05-05T11:11:05Z</time>
      </trkpt>
      <trkpt lat="52.932448005303741" lon="9.971310999244452">
        <ele>69.829999999999998</ele>
        <time>2019-05-05T11:11:06Z</time>
      </trkpt>
      <trkpt lat="52.932766014710069" lon="9.97347897849977">
        <ele>69.349999999999994</ele>
        <time>2019-05-05T11:11:14Z</time>
      </trkpt>
      <trkpt lat="52.933119982481003" lon="9.976083990186453">
        <ele>68.870000000000005</ele>
        <time>2019-05-05T11:11:21Z</time>
      </trkpt>
      <trkpt lat="52.93345701880753" lon="9.978572996333242">
        <ele>68.390000000000001</ele>
        <time>2019-05-05T11:11:28Z</time>
      </trkpt>
      <trkpt lat="52.933687018230557" lon="9.980263039469719">
        <ele>66.950000000000003</ele>
        <time>2019-05-05T11:11:35Z</time>
      </trkpt>
      <trkpt lat="52.933792965486646" lon="9.981006011366844">
        <ele>66.469999999999999</ele>
        <time>2019-05-05T11:11:41Z</time>
      </trkpt>
      <trkpt lat="52.933824984356761" lon="9.981228969991207">
        <ele>66.469999999999999</ele>
        <time>2019-05-05T11:11:43Z</time>
      </trkpt>
      <trkpt lat="52.933877035975456" lon="9.981246991083026">
        <ele>66.469999999999999</ele>
        <time>2019-05-05T11:11:44Z</time>
      </trkpt>
      <trkpt lat="52.933960016816854" lon="9.981273980811238">
        <ele>65.989999999999995</ele>
        <time>2019-05-05T11:11:45Z</time>
      </trkpt>
      <trkpt lat="52.934183981269598" lon="9.981380011886358">
        <ele>65.510000000000005</ele>
        <time>2019-05-05T11:11:47Z</time>
      </trkpt>
      <trkpt lat="52.934297975152731" lon="9.981509009376168">
        <ele>65.510000000000005</ele>
        <time>2019-05-05T11:11:48Z</time>
      </trkpt>
      <trkpt lat="52.934419009834528" lon="9.981647981330752">
        <ele>65.030000000000001</ele>
        <time>2019-05-05T11:11:49Z</time>
      </trkpt>
      <trkpt lat="52.9345309920609" lon="9.981836993247271">
        <ele>65.030000000000001</ele>
        <time>2019-05-05T11:11:50Z</time>
      </trkpt>
      <trkpt lat="52.934639034792781" lon="9.982036985456944">
        <ele>65.030000000000001</ele>
        <time>2019-05-05T11:11:51Z</time>
      </trkpt>
      <trkpt lat="52.934750011190772" lon="9.982242006808519">
        <ele>64.549999999999997</ele>
        <time>2019-05-05T11:11:52Z</time>
      </trkpt>
      <trkpt lat="52.935079000890255" lon="9.982852963730693">
        <ele>65.510000000000005</ele>
        <time>2019-05-05T11:11:55Z</time>
      </trkpt>
      <trkpt lat="52.935198023915291" lon="9.983075000345707">
        <ele>65.510000000000005</ele>
        <time>2019-05-05T11:11:56Z</time>
      </trkpt>
      <trkpt lat="52.935336995869875" lon="9.983154963701963">
        <ele>65.989999999999995</ele>
        <time>2019-05-05T11:11:57Z</time>
      </trkpt>
      <trkpt lat="52.935508992522955" lon="9.983230987563729">
        <ele>65.989999999999995</ele>
        <time>2019-05-05T11:11:58Z</time>
      </trkpt>
      <trkpt lat="52.935700016096234" lon="9.9832549598068">
        <ele>66.469999999999999</ele>
        <time>2019-05-05T11:11:59Z</time>
      </trkpt>
      <trkpt lat="52.93590503744781" lon="9.983251020312309">
        <ele>66.469999999999999</ele>
        <time>2019-05-05T11:12:00Z</time>
      </trkpt>
      <trkpt lat="52.936118021607399" lon="9.983215983957052">
        <ele>66.469999999999999</ele>
        <time>2019-05-05T11:12:01Z</time>
      </trkpt>
      <trkpt lat="52.937764981761575" lon="9.982949020341039">
        <ele>65.989999999999995</ele>
        <time>2019-05-05T11:12:08Z</time>
      </trkpt>
      <trkpt lat="52.939210021868348" lon="9.982745004817843">
        <ele>67.430000000000007</ele>
        <time>2019-05-05T11:12:15Z</time>
      </trkpt>
      <trkpt lat="52.940450962632895" lon="9.982555992901325">
        <ele>64.549999999999997</ele>
        <time>2019-05-05T11:12:23Z</time>
      </trkpt>
      <trkpt lat="52.941829031333327" lon="9.982345020398498">
        <ele>63.579999999999998</ele>
        <time>2019-05-05T11:12:33Z</time>
      </trkpt>
      <trkpt lat="52.942943992093205" lon="9.982153996825218">
        <ele>61.18</ele>
        <time>2019-05-05T11:12:41Z</time>
      </trkpt>
      <trkpt lat="52.944165989756584" lon="9.981696009635925">
        <ele>60.219999999999999</ele>
        <time>2019-05-05T11:12:50Z</time>
      </trkpt>
      <trkpt lat="52.945699961856008" lon="9.981186976656318">
        <ele>60.700000000000003</ele>
        <time>2019-05-05T11:13:01Z</time>
      </trkpt>
      <trkpt lat="52.946002967655659" lon="9.981164010241628">
        <ele>61.659999999999997</ele>
        <time>2019-05-05T11:13:03Z</time>
      </trkpt>
      <trkpt lat="52.946159960702062" lon="9.98114800080657">
        <ele>62.140000000000001</ele>
        <time>2019-05-05T11:13:04Z</time>
      </trkpt>
      <trkpt lat="52.947337031364441" lon="9.980582976713777">
        <ele>65.030000000000001</ele>
        <time>2019-05-05T11:13:10Z</time>
      </trkpt>
      <trkpt lat="52.949251960963011" lon="9.979296019300818">
        <ele>66.950000000000003</ele>
        <time>2019-05-05T11:13:18Z</time>
      </trkpt>
      <trkpt lat="52.951623033732176" lon="9.97719400562346">
        <ele>67.430000000000007</ele>
        <time>2019-05-05T11:13:28Z</time>
      </trkpt>
      <trkpt lat="52.953035971149802" lon="9.976153979077935">
        <ele>69.349999999999994</ele>
        <time>2019-05-05T11:13:35Z</time>
      </trkpt>
      <trkpt lat="52.954794997349381" lon="9.975232975557447">
        <ele>71.269999999999996</ele>
        <time>2019-05-05T11:13:43Z</time>
      </trkpt>
      <trkpt lat="52.957128016278148" lon="9.974127989262343">
        <ele>72.719999999999999</ele>
        <time>2019-05-05T11:13:52Z</time>
      </trkpt>
      <trkpt lat="52.959407977759838" lon="9.973537987098098">
        <ele>74.640000000000001</ele>
        <time>2019-05-05T11:14:01Z</time>
      </trkpt>
      <trkpt lat="52.960509024560452" lon="9.973268005996943">
        <ele>74.159999999999997</ele>
        <time>2019-05-05T11:14:07Z</time>
      </trkpt>
      <trkpt lat="52.960818987339735" lon="9.973188964650035">
        <ele>74.159999999999997</ele>
        <time>2019-05-05T11:14:10Z</time>
      </trkpt>
      <trkpt lat="52.960891993716359" lon="9.973175972700119">
        <ele>74.159999999999997</ele>
        <time>2019-05-05T11:14:11Z</time>
      </trkpt>
      <trkpt lat="52.961029959842563" lon="9.973342018201947">
        <ele>74.159999999999997</ele>
        <time>2019-05-05T11:14:12Z</time>
      </trkpt>
      <trkpt lat="52.961054015904665" lon="9.973590038716793">
        <ele>74.159999999999997</ele>
        <time>2019-05-05T11:14:13Z</time>
      </trkpt>
      <trkpt lat="52.961063990369439" lon="9.97362700290978">
        <ele>74.159999999999997</ele>
        <time>2019-05-05T11:14:14Z</time>
      </trkpt>
      <trkpt lat="52.961112018674612" lon="9.97382003813982">
        <ele>74.159999999999997</ele>
        <time>2019-05-05T11:14:15Z</time>
      </trkpt>
      <trkpt lat="52.961512003093958" lon="9.975094003602862">
        <ele>74.159999999999997</ele>
        <time>2019-05-05T11:14:20Z</time>
      </trkpt>
      <trkpt lat="52.962298979982734" lon="9.976329999044538">
        <ele>74.640000000000001</ele>
        <time>2019-05-05T11:14:25Z</time>
      </trkpt>
      <trkpt lat="52.962717991322279" lon="9.976727971807122">
        <ele>74.640000000000001</ele>
        <time>2019-05-05T11:14:27Z</time>
      </trkpt>
      <trkpt lat="52.96295402571559" lon="9.976836014539003">
        <ele>74.640000000000001</ele>
        <time>2019-05-05T11:14:28Z</time>
      </trkpt>
      <trkpt lat="52.963193999603391" lon="9.976946990936995">
        <ele>75.120000000000005</ele>
        <time>2019-05-05T11:14:29Z</time>
      </trkpt>
      <trkpt lat="52.966218022629619" lon="9.978310978040099">
        <ele>77.040000000000006</ele>
        <time>2019-05-05T11:14:41Z</time>
      </trkpt>
      <trkpt lat="52.969228969886899" lon="9.979630038142204">
        <ele>79.450000000000003</ele>
        <time>2019-05-05T11:14:53Z</time>
      </trkpt>
      <trkpt lat="52.971289996057749" lon="9.980551041662693">
        <ele>80.890000000000001</ele>
        <time>2019-05-05T11:15:01Z</time>
      </trkpt>
      <trkpt lat="52.973638018593192" lon="9.981600036844611">
        <ele>81.849999999999994</ele>
        <time>2019-05-05T11:15:10Z</time>
      </trkpt>
      <trkpt lat="52.975501986220479" lon="9.982432024553418">
        <ele>83.769999999999996</ele>
        <time>2019-05-05T11:15:17Z</time>
      </trkpt>
      <trkpt lat="52.978186039254069" lon="9.983663996681571">
        <ele>85.209999999999994</ele>
        <time>2019-05-05T11:15:27Z</time>
      </trkpt>
      <trkpt lat="52.980840001255274" lon="9.984908038750291">
        <ele>87.140000000000001</ele>
        <time>2019-05-05T11:15:37Z</time>
      </trkpt>
      <trkpt lat="52.983463034033775" lon="9.98598201200366">
        <ele>85.209999999999994</ele>
        <time>2019-05-05T11:15:47Z</time>
      </trkpt>
      <trkpt lat="52.985744001343846" lon="9.987729974091053">
        <ele>86.180000000000007</ele>
        <time>2019-05-05T11:15:57Z</time>
      </trkpt>
      <trkpt lat="52.986142979934812" lon="9.988214028999209">
        <ele>86.180000000000007</ele>
        <time>2019-05-05T11:15:59Z</time>
      </trkpt>
      <trkpt lat="52.986330986022949" lon="9.988501025363803">
        <ele>86.180000000000007</ele>
        <time>2019-05-05T11:16:00Z</time>
      </trkpt>
      <trkpt lat="52.986487979069352" lon="9.988830015063286">
        <ele>85.689999999999998</ele>
        <time>2019-05-05T11:16:01Z</time>
      </trkpt>
      <trkpt lat="52.986638015136123" lon="9.989174008369446">
        <ele>85.689999999999998</ele>
        <time>2019-05-05T11:16:02Z</time>
      </trkpt>
      <trkpt lat="52.986786961555481" lon="9.989518001675606">
        <ele>85.209999999999994</ele>
        <time>2019-05-05T11:16:03Z</time>
      </trkpt>
      <trkpt lat="52.987432032823563" lon="9.990809988230467">
        <ele>84.25</ele>
        <time>2019-05-05T11:16:07Z</time>
      </trkpt>
      <trkpt lat="52.987611992284656" lon="9.991113999858499">
        <ele>83.769999999999996</ele>
        <time>2019-05-05T11:16:08Z</time>
      </trkpt>
      <trkpt lat="52.987830005586147" lon="9.99133201315999">
        <ele>83.290000000000006</ele>
        <time>2019-05-05T11:16:09Z</time>
      </trkpt>
      <trkpt lat="52.98805195838213" lon="9.991554971784353">
        <ele>83.290000000000006</ele>
        <time>2019-05-05T11:16:10Z</time>
      </trkpt>
      <trkpt lat="52.988292016088963" lon="9.991745995357633">
        <ele>83.290000000000006</ele>
        <time>2019-05-05T11:16:11Z</time>
      </trkpt>
      <trkpt lat="52.988541964441538" lon="9.991895025596023">
        <ele>82.810000000000002</ele>
        <time>2019-05-05T11:16:12Z</time>
      </trkpt>
      <trkpt lat="52.988797025755048" lon="9.992025028914213">
        <ele>82.810000000000002</ele>
        <time>2019-05-05T11:16:13Z</time>
      </trkpt>
      <trkpt lat="52.991312015801668" lon="9.993307963013649">
        <ele>86.180000000000007</ele>
        <time>2019-05-05T11:16:23Z</time>
      </trkpt>
      <trkpt lat="52.993275979533792" lon="9.9943189881742">
        <ele>90.980000000000004</ele>
        <time>2019-05-05T11:16:31Z</time>
      </trkpt>
      <trkpt lat="52.995369024574757" lon="9.995806021615863">
        <ele>92.900000000000006</ele>
        <time>2019-05-05T11:16:41Z</time>
      </trkpt>
      <trkpt lat="52.997437007725239" lon="9.998064022511244">
        <ele>93.390000000000001</ele>
        <time>2019-05-05T11:16:50Z</time>
      </trkpt>
      <trkpt lat="52.998240999877453" lon="9.998974967747927">
        <ele>92.420000000000002</ele>
        <time>2019-05-05T11:16:54Z</time>
      </trkpt>
      <trkpt lat="52.999560981988907" lon="9.999657003208995">
        <ele>93.870000000000005</ele>
        <time>2019-05-05T11:17:00Z</time>
      </trkpt>
      <trkpt lat="52.999788969755173" lon="9.999681981280446">
        <ele>94.349999999999994</ele>
        <time>2019-05-05T11:17:01Z</time>
      </trkpt>
      <trkpt lat="53.001173995435238" lon="9.999303035438061">
        <ele>98.189999999999998</ele>
        <time>2019-05-05T11:17:07Z</time>
      </trkpt>
      <trkpt lat="53.001400977373123" lon="9.999165991321206">
        <ele>98.189999999999998</ele>
        <time>2019-05-05T11:17:08Z</time>
      </trkpt>
      <trkpt lat="53.002865966409445" lon="9.997831005603075">
        <ele>98.670000000000002</ele>
        <time>2019-05-05T11:17:15Z</time>
      </trkpt>
      <trkpt lat="53.004592973738909" lon="9.996502976864576">
        <ele>96.75</ele>
        <time>2019-05-05T11:17:23Z</time>
      </trkpt>
      <trkpt lat="53.004822973161936" lon="9.996418990194798">
        <ele>96.269999999999996</ele>
        <time>2019-05-05T11:17:24Z</time>
      </trkpt>
      <trkpt lat="53.006281005218625" lon="9.996479004621506">
        <ele>94.349999999999994</ele>
        <time>2019-05-05T11:17:30Z</time>
      </trkpt>
      <trkpt lat="53.008294003084302" lon="9.997007986530662">
        <ele>91.459999999999994</ele>
        <time>2019-05-05T11:17:38Z</time>
      </trkpt>
      <trkpt lat="53.011778024956584" lon="9.998320005834103">
        <ele>88.579999999999998</ele>
        <time>2019-05-05T11:17:52Z</time>
      </trkpt>
      <trkpt lat="53.013851959258318" lon="9.998671039938927">
        <ele>87.620000000000005</ele>
        <time>2019-05-05T11:18:00Z</time>
      </trkpt>
      <trkpt lat="53.015663959085941" lon="9.99893800355494">
        <ele>86.659999999999997</ele>
        <time>2019-05-05T11:18:08Z</time>
      </trkpt>
      <trkpt lat="53.016019016504288" lon="9.999035988003016">
        <ele>86.180000000000007</ele>
        <time>2019-05-05T11:18:10Z</time>
      </trkpt>
      <trkpt lat="53.016176009550691" lon="9.999097008258104">
        <ele>85.689999999999998</ele>
        <time>2019-05-05T11:18:11Z</time>
      </trkpt>
      <trkpt lat="53.016321016475558" lon="9.999160962179303">
        <ele>85.689999999999998</ele>
        <time>2019-05-05T11:18:12Z</time>
      </trkpt>
      <trkpt lat="53.016558978706598" lon="9.999265987426043">
        <ele>85.209999999999994</ele>
        <time>2019-05-05T11:18:14Z</time>
      </trkpt>
      <trkpt lat="53.016789983958006" lon="9.999287026003003">
        <ele>85.209999999999994</ele>
        <time>2019-05-05T11:18:17Z</time>
      </trkpt>
      <trkpt lat="53.0169059894979" lon="9.99928099103272">
        <ele>86.180000000000007</ele>
        <time>2019-05-05T11:18:20Z</time>
      </trkpt>
      <trkpt lat="53.016925016418099" lon="9.999278979375958">
        <ele>86.180000000000007</ele>
        <time>2019-05-05T11:18:21Z</time>
      </trkpt>
      <trkpt lat="53.016953011974692" lon="9.999277973547578">
        <ele>86.659999999999997</ele>
        <time>2019-05-05T11:18:22Z</time>
      </trkpt>
      <trkpt lat="53.016995005309582" lon="9.999275039881468">
        <ele>86.659999999999997</ele>
        <time>2019-05-05T11:18:23Z</time>
      </trkpt>
      <trkpt lat="53.017079997807741" lon="9.999260036274791">
        <ele>87.140000000000001</ele>
        <time>2019-05-05T11:18:24Z</time>
      </trkpt>
      <trkpt lat="53.017171025276184" lon="9.999243021011353">
        <ele>87.140000000000001</ele>
        <time>2019-05-05T11:18:25Z</time>
      </trkpt>
      <trkpt lat="53.017537984997034" lon="9.99919499270618">
        <ele>87.620000000000005</ele>
        <time>2019-05-05T11:18:28Z</time>
      </trkpt>
      <trkpt lat="53.018746990710497" lon="9.999355003237724">
        <ele>88.099999999999994</ele>
        <time>2019-05-05T11:18:35Z</time>
      </trkpt>
      <trkpt lat="53.020742973312736" lon="9.999456005170941">
        <ele>88.099999999999994</ele>
        <time>2019-05-05T11:18:44Z</time>
      </trkpt>
      <trkpt lat="53.022882035002112" lon="9.998762989416719">
        <ele>87.620000000000005</ele>
        <time>2019-05-05T11:18:53Z</time>
      </trkpt>
      <trkpt lat="53.025648985058069" lon="9.99782295897603">
        <ele>87.140000000000001</ele>
        <time>2019-05-05T11:19:04Z</time>
      </trkpt>
      <trkpt lat="53.027168037369847" lon="9.997910968959332">
        <ele>86.659999999999997</ele>
        <time>2019-05-05T11:19:10Z</time>
      </trkpt>
      <trkpt lat="53.027724009007215" lon="9.998227972537279">
        <ele>87.140000000000001</ele>
        <time>2019-05-05T11:19:14Z</time>
      </trkpt>
      <trkpt lat="53.028674013912678" lon="9.998962981626391">
        <ele>87.620000000000005</ele>
        <time>2019-05-05T11:19:23Z</time>
      </trkpt>
      <trkpt lat="53.029556041583419" lon="9.999615009874106">
        <ele>87.620000000000005</ele>
        <time>2019-05-05T11:19:31Z</time>
      </trkpt>
      <trkpt lat="53.030456006526947" lon="9.999924972653389">
        <ele>87.620000000000005</ele>
        <time>2019-05-05T11:19:38Z</time>
      </trkpt>
      <trkpt lat="53.031517993658781" lon="9.999715005978942">
        <ele>87.620000000000005</ele>
        <time>2019-05-05T11:19:43Z</time>
      </trkpt>
      <trkpt lat="53.033034028485417" lon="9.998782016336918">
        <ele>89.060000000000002</ele>
        <time>2019-05-05T11:19:49Z</time>
      </trkpt>
      <trkpt lat="53.035434018820524" lon="9.997204039245844">
        <ele>90.5</ele>
        <time>2019-05-05T11:19:58Z</time>
      </trkpt>
      <trkpt lat="53.038028972223401" lon="9.995631007477641">
        <ele>93.870000000000005</ele>
        <time>2019-05-05T11:20:08Z</time>
      </trkpt>
      <trkpt lat="53.039192967116833" lon="9.994961963966489">
        <ele>96.269999999999996</ele>
        <time>2019-05-05T11:20:14Z</time>
      </trkpt>
      <trkpt lat="53.040343970060349" lon="9.994307002052665">
        <ele>98.189999999999998</ele>
        <time>2019-05-05T11:20:22Z</time>
      </trkpt>
      <trkpt lat="53.041018964722753" lon="9.993992010131478">
        <ele>99.150000000000006</ele>
        <time>2019-05-05T11:20:28Z</time>
      </trkpt>
      <trkpt lat="53.041221974417567" lon="9.993896959349513">
        <ele>99.150000000000006</ele>
        <time>2019-05-05T11:20:30Z</time>
      </trkpt>
      <trkpt lat="53.04144199937582" lon="9.994030985981226">
        <ele>100.11</ele>
        <time>2019-05-05T11:20:32Z</time>
      </trkpt>
      <trkpt lat="53.041535960510373" lon="9.994005002081394">
        <ele>100.11</ele>
        <time>2019-05-05T11:20:33Z</time>
      </trkpt>
      <trkpt lat="53.041592035442591" lon="9.993856977671385">
        <ele>100.11</ele>
        <time>2019-05-05T11:20:34Z</time>
      </trkpt>
      <trkpt lat="53.041708040982485" lon="9.993661008775234">
        <ele>100.11</ele>
        <time>2019-05-05T11:20:35Z</time>
      </trkpt>
      <trkpt lat="53.041833015158772" lon="9.993639970198274">
        <ele>100.11</ele>
        <time>2019-05-05T11:20:36Z</time>
      </trkpt>
      <trkpt lat="53.041972992941737" lon="9.993615997955203">
        <ele>100.11</ele>
        <time>2019-05-05T11:20:37Z</time>
      </trkpt>
      <trkpt lat="53.042125962674618" lon="9.993590014055371">
        <ele>100.11</ele>
        <time>2019-05-05T11:20:38Z</time>
      </trkpt>
      <trkpt lat="53.042295025661588" lon="9.993561012670398">
        <ele>100.11</ele>
        <time>2019-05-05T11:20:39Z</time>
      </trkpt>
      <trkpt lat="53.043339997529984" lon="9.99343603849411">
        <ele>99.629999999999995</ele>
        <time>2019-05-05T11:20:44Z</time>
      </trkpt>
      <trkpt lat="53.045477969571948" lon="9.993217019364238">
        <ele>101.56</ele>
        <time>2019-05-05T11:20:52Z</time>
      </trkpt>
      <trkpt lat="53.04848900064826" lon="9.99292298220098">
        <ele>102.52</ele>
        <time>2019-05-05T11:21:03Z</time>
      </trkpt>
      <trkpt lat="53.051136005669832" lon="9.99266498722136">
        <ele>103.48</ele>
        <time>2019-05-05T11:21:13Z</time>
      </trkpt>
      <trkpt lat="53.054067995399237" lon="9.992377990856767">
        <ele>104.44</ele>
        <time>2019-05-05T11:21:24Z</time>
      </trkpt>
      <trkpt lat="53.057346995919943" lon="9.992186967283487">
        <ele>103</ele>
        <time>2019-05-05T11:21:36Z</time>
      </trkpt>
      <trkpt lat="53.059463007375598" lon="9.992832038551569">
        <ele>103</ele>
        <time>2019-05-05T11:21:44Z</time>
      </trkpt>
      <trkpt lat="53.060631025582552" lon="9.993220958858728">
        <ele>103</ele>
        <time>2019-05-05T11:21:50Z</time>
      </trkpt>
      <trkpt lat="53.062364989891648" lon="9.993819007650018">
        <ele>102.52</ele>
        <time>2019-05-05T11:21:58Z</time>
      </trkpt>
      <trkpt lat="53.064531041309237" lon="9.994566002860665">
        <ele>101.08</ele>
        <time>2019-05-05T11:22:07Z</time>
      </trkpt>
      <trkpt lat="53.066017990931869" lon="9.995096996426582">
        <ele>99.629999999999995</ele>
        <time>2019-05-05T11:22:15Z</time>
      </trkpt>
      <trkpt lat="53.067359011620283" lon="9.995540985837579">
        <ele>98.670000000000002</ele>
        <time>2019-05-05T11:22:23Z</time>
      </trkpt>
      <trkpt lat="53.067892016842961" lon="9.995660008862615">
        <ele>98.189999999999998</ele>
        <time>2019-05-05T11:22:26Z</time>
      </trkpt>
      <trkpt lat="53.068070970475674" lon="9.995669983327389">
        <ele>97.709999999999994</ele>
        <time>2019-05-05T11:22:27Z</time>
      </trkpt>
      <trkpt lat="53.068251013755798" lon="9.995656991377473">
        <ele>97.709999999999994</ele>
        <time>2019-05-05T11:22:28Z</time>
      </trkpt>
      <trkpt lat="53.069918006658554" lon="9.995205039158464">
        <ele>92.420000000000002</ele>
        <time>2019-05-05T11:22:37Z</time>
      </trkpt>
      <trkpt lat="53.07152297347784" lon="9.994755014777184">
        <ele>86.180000000000007</ele>
        <time>2019-05-05T11:22:44Z</time>
      </trkpt>
      <trkpt lat="53.073833025991917" lon="9.994108015671372">
        <ele>77.519999999999996</ele>
        <time>2019-05-05T11:22:53Z</time>
      </trkpt>
      <trkpt lat="53.075173040851951" lon="9.993811966851354">
        <ele>70.790000000000006</ele>
        <time>2019-05-05T11:22:59Z</time>
      </trkpt>
      <trkpt lat="53.075370015576482" lon="9.99384499154985">
        <ele>70.790000000000006</ele>
        <time>2019-05-05T11:23:00Z</time>
      </trkpt>
      <trkpt lat="53.075565984472632" lon="9.993920009583235">
        <ele>70.310000000000002</ele>
        <time>2019-05-05T11:23:01Z</time>
      </trkpt>
      <trkpt lat="53.075758013874292" lon="9.993997039273381">
        <ele>70.310000000000002</ele>
        <time>2019-05-05T11:23:02Z</time>
      </trkpt>
      <trkpt lat="53.075947025790811" lon="9.994082031771541">
        <ele>69.829999999999998</ele>
        <time>2019-05-05T11:23:03Z</time>
      </trkpt>
      <trkpt lat="53.077229959890246" lon="9.994981996715069">
        <ele>69.349999999999994</ele>
        <time>2019-05-05T11:23:11Z</time>
      </trkpt>
      <trkpt lat="53.078295970335603" lon="9.995729997754097">
        <ele>70.790000000000006</ele>
        <time>2019-05-05T11:23:19Z</time>
      </trkpt>
      <trkpt lat="53.07955602183938" lon="9.996581012383103">
        <ele>73.200000000000003</ele>
        <time>2019-05-05T11:23:30Z</time>
      </trkpt>
      <trkpt lat="53.079913007095456" lon="9.996700035408139">
        <ele>73.200000000000003</ele>
        <time>2019-05-05T11:23:33Z</time>
      </trkpt>
      <trkpt lat="53.080035969614983" lon="9.996700035408139">
        <ele>73.680000000000007</ele>
        <time>2019-05-05T11:23:34Z</time>
      </trkpt>
      <trkpt lat="53.080280972644687" lon="9.996680002659559">
        <ele>73.680000000000007</ele>
        <time>2019-05-05T11:23:36Z</time>
      </trkpt>
      <trkpt lat="53.081495007500052" lon="9.996286975219846">
        <ele>71.269999999999996</ele>
        <time>2019-05-05T11:23:46Z</time>
      </trkpt>
      <trkpt lat="53.081591986119747" lon="9.99625101685524">
        <ele>70.790000000000006</ele>
        <time>2019-05-05T11:23:47Z</time>
      </trkpt>
      <trkpt lat="53.081789966672659" lon="9.996177004650235">
        <ele>70.310000000000002</ele>
        <time>2019-05-05T11:23:50Z</time>
      </trkpt>
      <trkpt lat="53.081895997747779" lon="9.996169041842222">
        <ele>69.829999999999998</ele>
        <time>2019-05-05T11:23:51Z</time>
      </trkpt>
      <trkpt lat="53.081924999132752" lon="9.996226038783789">
        <ele>69.829999999999998</ele>
        <time>2019-05-05T11:23:52Z</time>
      </trkpt>
      <trkpt lat="53.081961963325739" lon="9.996301978826523">
        <ele>69.349999999999994</ele>
        <time>2019-05-05T11:23:53Z</time>
      </trkpt>
      <trkpt lat="53.082007979974151" lon="9.996393006294966">
        <ele>68.870000000000005</ele>
        <time>2019-05-05T11:23:54Z</time>
      </trkpt>
      <trkpt lat="53.082058019936085" lon="9.996493002399802">
        <ele>68.870000000000005</ele>
        <time>2019-05-05T11:23:55Z</time>
      </trkpt>
      <trkpt lat="53.082613991573453" lon="9.997428003698587">
        <ele>67.430000000000007</ele>
        <time>2019-05-05T11:24:04Z</time>
      </trkpt>
      <trkpt lat="53.082690015435219" lon="9.997491035610437">
        <ele>67.430000000000007</ele>
        <time>2019-05-05T11:24:05Z</time>
      </trkpt>
      <trkpt lat="53.082763021811843" lon="9.997551972046495">
        <ele>67.909999999999997</ele>
        <time>2019-05-05T11:24:06Z</time>
      </trkpt>
      <trkpt lat="53.082848014310002" lon="9.997622966766357">
        <ele>67.909999999999997</ele>
        <time>2019-05-05T11:24:07Z</time>
      </trkpt>
      <trkpt lat="53.082916997373104" lon="9.997636964544654">
        <ele>68.390000000000001</ele>
        <time>2019-05-05T11:24:08Z</time>
      </trkpt>
      <trkpt lat="53.082996960729361" lon="9.997652973979712">
        <ele>68.870000000000005</ele>
        <time>2019-05-05T11:24:09Z</time>
      </trkpt>
      <trkpt lat="53.083073990419507" lon="9.997668983414769">
        <ele>68.870000000000005</ele>
        <time>2019-05-05T11:24:10Z</time>
      </trkpt>
      <trkpt lat="53.083151020109653" lon="9.997694967314601">
        <ele>69.349999999999994</ele>
        <time>2019-05-05T11:24:11Z</time>
      </trkpt>
      <trkpt lat="53.083313964307308" lon="9.9977139942348">
        <ele>70.790000000000006</ele>
        <time>2019-05-05T11:24:13Z</time>
      </trkpt>
      <trkpt lat="53.083399040624499" lon="9.997717011719942">
        <ele>72.239999999999995</ele>
        <time>2019-05-05T11:24:14Z</time>
      </trkpt>
      <trkpt lat="53.084066994488239" lon="9.997730003669858">
        <ele>78</ele>
        <time>2019-05-05T11:24:22Z</time>
      </trkpt>
      <trkpt lat="53.084383998066187" lon="9.997660014778376">
        <ele>79.450000000000003</ele>
        <time>2019-05-05T11:24:26Z</time>
      </trkpt>
      <trkpt lat="53.084458010271192" lon="9.997622966766357">
        <ele>79.450000000000003</ele>
        <time>2019-05-05T11:24:27Z</time>
      </trkpt>
      <trkpt lat="53.084469996392727" lon="9.997538980096579">
        <ele>79.930000000000007</ele>
        <time>2019-05-05T11:24:28Z</time>
      </trkpt>
      <trkpt lat="53.084489023312926" lon="9.997402019798756">
        <ele>79.930000000000007</ele>
        <time>2019-05-05T11:24:29Z</time>
      </trkpt>
      <trkpt lat="53.084510983899236" lon="9.997247960418463">
        <ele>79.930000000000007</ele>
        <time>2019-05-05T11:24:30Z</time>
      </trkpt>
      <trkpt lat="53.084533028304577" lon="9.997094990685582">
        <ele>79.450000000000003</ele>
        <time>2019-05-05T11:24:31Z</time>
      </trkpt>
      <trkpt lat="53.084782976657152" lon="9.995623966678977">
        <ele>79.930000000000007</ele>
        <time>2019-05-05T11:24:41Z</time>
      </trkpt>
      <trkpt lat="53.085024040192366" lon="9.994500959292054">
        <ele>80.890000000000001</ele>
        <time>2019-05-05T11:24:48Z</time>
      </trkpt>
      <trkpt lat="53.085080031305552" lon="9.994354024529457">
        <ele>80.890000000000001</ele>
        <time>2019-05-05T11:24:49Z</time>
      </trkpt>
      <trkpt lat="53.08516401797533" lon="9.994243970140815">
        <ele>81.370000000000005</ele>
        <time>2019-05-05T11:24:50Z</time>
      </trkpt>
      <trkpt lat="53.085985025390983" lon="9.993173014372587">
        <ele>83.290000000000006</ele>
        <time>2019-05-05T11:24:59Z</time>
      </trkpt>
      <trkpt lat="53.087378013879061" lon="9.991432009264827">
        <ele>83.769999999999996</ele>
        <time>2019-05-05T11:25:12Z</time>
      </trkpt>
      <trkpt lat="53.088507978245616" lon="9.990007001906633">
        <ele>81.370000000000005</ele>
        <time>2019-05-05T11:25:22Z</time>
      </trkpt>
    </trkseg>
  </trk>

  <trk>
    <name>Track vom: 2019-05-05 13:26</name>
    <extensions>
      <gpxx:TrackExtension>
        <gpxx:DisplayColor>DarkGray</gpxx:DisplayColor>
      </gpxx:TrackExtension>
    </extensions>
    <trkseg>
      <trkpt lat="53.090876033529639" lon="9.987017009407282">
        <ele>73.680000000000007</ele>
        <time>2019-05-05T11:26:19Z</time>
      </trkpt>
      <trkpt lat="53.090892964974046" lon="9.986995970830321">
        <ele>73.200000000000003</ele>
        <time>2019-05-05T11:26:27Z</time>
      </trkpt>
      <trkpt lat="53.09092003852129" lon="9.986961018294096">
        <ele>73.200000000000003</ele>
        <time>2019-05-05T11:26:28Z</time>
      </trkpt>
      <trkpt lat="53.090964965522289" lon="9.98690502718091">
        <ele>73.200000000000003</ele>
        <time>2019-05-05T11:26:29Z</time>
      </trkpt>
      <trkpt lat="53.091023974120617" lon="9.986830009147525">
        <ele>72.719999999999999</ele>
        <time>2019-05-05T11:26:30Z</time>
      </trkpt>
      <trkpt lat="53.09109304100275" lon="9.986743004992604">
        <ele>72.239999999999995</ele>
        <time>2019-05-05T11:26:31Z</time>
      </trkpt>
      <trkpt lat="53.091836012899876" lon="9.985952004790306">
        <ele>71.269999999999996</ele>
        <time>2019-05-05T11:26:38Z</time>
      </trkpt>
      <trkpt lat="53.092977041378617" lon="9.985324032604694">
        <ele>71.269999999999996</ele>
        <time>2019-05-05T11:26:45Z</time>
      </trkpt>
      <trkpt lat="53.095237975940108" lon="9.984151991084218">
        <ele>74.640000000000001</ele>
        <time>2019-05-05T11:26:57Z</time>
      </trkpt>
      <trkpt lat="53.09635897167027" lon="9.982938040047884">
        <ele>76.079999999999998</ele>
        <time>2019-05-05T11:27:03Z</time>
      </trkpt>
      <trkpt lat="53.098085978999734" lon="9.980767965316773">
        <ele>79.450000000000003</ele>
        <time>2019-05-05T11:27:13Z</time>
      </trkpt>
      <trkpt lat="53.09869802556932" lon="9.97985802590847">
        <ele>81.849999999999994</ele>
        <time>2019-05-05T11:27:19Z</time>
      </trkpt>
      <trkpt lat="53.098899023607373" lon="9.979791976511478">
        <ele>82.329999999999998</ele>
        <time>2019-05-05T11:27:20Z</time>
      </trkpt>
      <trkpt lat="53.098899023607373" lon="9.979791976511478">
        <ele>82.810000000000002</ele>
        <time>2019-05-05T11:27:21Z</time>
      </trkpt>
      <trkpt lat="53.098960965871811" lon="9.979764986783266">
        <ele>82.810000000000002</ele>
        <time>2019-05-05T11:27:22Z</time>
      </trkpt>
      <trkpt lat="53.099060039967299" lon="9.979674965143204">
        <ele>82.810000000000002</ele>
        <time>2019-05-05T11:27:23Z</time>
      </trkpt>
      <trkpt lat="53.099091975018382" lon="9.979533981531858">
        <ele>82.810000000000002</ele>
        <time>2019-05-05T11:27:24Z</time>
      </trkpt>
      <trkpt lat="53.099142014980316" lon="9.979347987100482">
        <ele>82.810000000000002</ele>
        <time>2019-05-05T11:27:25Z</time>
      </trkpt>
      <trkpt lat="53.099244022741914" lon="9.979232987388969">
        <ele>83.290000000000006</ele>
        <time>2019-05-05T11:27:26Z</time>
      </trkpt>
      <trkpt lat="53.099358016625047" lon="9.979102984070778">
        <ele>83.290000000000006</ele>
        <time>2019-05-05T11:27:27Z</time>
      </trkpt>
      <trkpt lat="53.100585965439677" lon="9.977574041113257">
        <ele>85.689999999999998</ele>
        <time>2019-05-05T11:27:36Z</time>
      </trkpt>
      <trkpt lat="53.102368963882327" lon="9.975235993042588">
        <ele>85.209999999999994</ele>
        <time>2019-05-05T11:27:47Z</time>
      </trkpt>
      <trkpt lat="53.103678971529007" lon="9.97302602045238">
        <ele>79.930000000000007</ele>
        <time>2019-05-05T11:27:56Z</time>
      </trkpt>
      <trkpt lat="53.104627970606089" lon="9.971460029482842">
        <ele>77.040000000000006</ele>
        <time>2019-05-05T11:28:04Z</time>
      </trkpt>
      <trkpt lat="53.105502035468817" lon="9.970015995204449">
        <ele>73.200000000000003</ele>
        <time>2019-05-05T11:28:14Z</time>
      </trkpt>
      <trkpt lat="53.106676004827023" lon="9.968157978728414">
        <ele>68.390000000000001</ele>
        <time>2019-05-05T11:28:27Z</time>
      </trkpt>
      <trkpt lat="53.107797000557184" lon="9.966475982218981">
        <ele>64.069999999999993</ele>
        <time>2019-05-05T11:28:38Z</time>
      </trkpt>
      <trkpt lat="53.108763014897704" lon="9.965028008446097">
        <ele>65.510000000000005</ele>
        <time>2019-05-05T11:28:48Z</time>
      </trkpt>
      <trkpt lat="53.109940001741052" lon="9.963452965021133">
        <ele>69.349999999999994</ele>
        <time>2019-05-05T11:28:57Z</time>
      </trkpt>
      <trkpt lat="53.111114976927638" lon="9.962753998115659">
        <ele>70.310000000000002</ele>
        <time>2019-05-05T11:29:05Z</time>
      </trkpt>
      <trkpt lat="53.111352017149329" lon="9.962599016726017">
        <ele>71.269999999999996</ele>
        <time>2019-05-05T11:29:07Z</time>
      </trkpt>
      <trkpt lat="53.111455030739307" lon="9.962494997307658">
        <ele>71.269999999999996</ele>
        <time>2019-05-05T11:29:08Z</time>
      </trkpt>
      <trkpt lat="53.11154798604548" lon="9.962361976504326">
        <ele>71.760000000000005</ele>
        <time>2019-05-05T11:29:09Z</time>
      </trkpt>
      <trkpt lat="53.111613029614091" lon="9.962194003164768">
        <ele>72.239999999999995</ele>
        <time>2019-05-05T11:29:10Z</time>
      </trkpt>
      <trkpt lat="53.111672960221767" lon="9.962008008733392">
        <ele>72.719999999999999</ele>
        <time>2019-05-05T11:29:11Z</time>
      </trkpt>
      <trkpt lat="53.111710008233786" lon="9.961808016523719">
        <ele>73.200000000000003</ele>
        <time>2019-05-05T11:29:12Z</time>
      </trkpt>
      <trkpt lat="53.111746972426772" lon="9.961611041799188">
        <ele>73.200000000000003</ele>
        <time>2019-05-05T11:29:13Z</time>
      </trkpt>
      <trkpt lat="53.111964985728264" lon="9.960441011935473">
        <ele>76.079999999999998</ele>
        <time>2019-05-05T11:29:19Z</time>
      </trkpt>
      <trkpt lat="53.112105969339609" lon="9.960125014185906">
        <ele>76.079999999999998</ele>
        <time>2019-05-05T11:29:21Z</time>
      </trkpt>
      <trkpt lat="53.112177969887853" lon="9.959967015311122">
        <ele>75.599999999999994</ele>
        <time>2019-05-05T11:29:22Z</time>
      </trkpt>
      <trkpt lat="53.112581977620721" lon="9.959228988736868">
        <ele>76.079999999999998</ele>
        <time>2019-05-05T11:29:27Z</time>
      </trkpt>
      <trkpt lat="53.113886034116149" lon="9.957803981378675">
        <ele>77.040000000000006</ele>
        <time>2019-05-05T11:29:38Z</time>
      </trkpt>
      <trkpt lat="53.114825980737805" lon="9.95678398758173">
        <ele>77.040000000000006</ele>
        <time>2019-05-05T11:29:47Z</time>
      </trkpt>
      <trkpt lat="53.115898026153445" lon="9.955651005730033">
        <ele>77.040000000000006</ele>
        <time>2019-05-05T11:29:57Z</time>
      </trkpt>
      <trkpt lat="53.117235023528337" lon="9.954235972836614">
        <ele>79.450000000000003</ele>
        <time>2019-05-05T11:30:09Z</time>
      </trkpt>
      <trkpt lat="53.118262980133295" lon="9.953163005411625">
        <ele>79.450000000000003</ele>
        <time>2019-05-05T11:30:17Z</time>
      </trkpt>
      <trkpt lat="53.118906039744616" lon="9.952488010749221">
        <ele>79.450000000000003</ele>
        <time>2019-05-05T11:30:21Z</time>
      </trkpt>
      <trkpt lat="53.120314031839371" lon="9.951010029762983">
        <ele>80.409999999999997</ele>
        <time>2019-05-05T11:30:29Z</time>
      </trkpt>
      <trkpt lat="53.121305024251342" lon="9.949963968247175">
        <ele>81.370000000000005</ele>
        <time>2019-05-05T11:30:37Z</time>
      </trkpt>
      <trkpt lat="53.122814018279314" lon="9.948341986164451">
        <ele>84.730000000000004</ele>
        <time>2019-05-05T11:30:49Z</time>
      </trkpt>
      <trkpt lat="53.123931996524334" lon="9.947140021249652">
        <ele>85.209999999999994</ele>
        <time>2019-05-05T11:30:55Z</time>
      </trkpt>
      <trkpt lat="53.126718979328871" lon="9.944144999608398">
        <ele>84.25</ele>
        <time>2019-05-05T11:31:08Z</time>
      </trkpt>
      <trkpt lat="53.128759972751141" lon="9.941961010918021">
        <ele>81.849999999999994</ele>
        <time>2019-05-05T11:31:18Z</time>
      </trkpt>
      <trkpt lat="53.130645984783769" lon="9.94028496555984">
        <ele>83.769999999999996</ele>
        <time>2019-05-05T11:31:27Z</time>
      </trkpt>
      <trkpt lat="53.13245496712625" lon="9.938739007338882">
        <ele>86.180000000000007</ele>
        <time>2019-05-05T11:31:35Z</time>
      </trkpt>
      <trkpt lat="53.133687023073435" lon="9.937606025487185">
        <ele>90.980000000000004</ele>
        <time>2019-05-05T11:31:42Z</time>
      </trkpt>
      <trkpt lat="53.135412018746138" lon="9.935987982898951">
        <ele>95.790000000000006</ele>
        <time>2019-05-05T11:31:53Z</time>
      </trkpt>
      <trkpt lat="53.136366968974471" lon="9.935068991035223">
        <ele>98.189999999999998</ele>
        <time>2019-05-05T11:31:59Z</time>
      </trkpt>
      <trkpt lat="53.136523040011525" lon="9.934915015473962">
        <ele>98.670000000000002</ele>
        <time>2019-05-05T11:32:00Z</time>
      </trkpt>
      <trkpt lat="53.136679027229548" lon="9.93475902825594">
        <ele>99.629999999999995</ele>
        <time>2019-05-05T11:32:01Z</time>
      </trkpt>
      <trkpt lat="53.136831996962428" lon="9.934604968875647">
        <ele>100.11</ele>
        <time>2019-05-05T11:32:02Z</time>
      </trkpt>
      <trkpt lat="53.136984966695309" lon="9.934451999142766">
        <ele>100.59999999999999</ele>
        <time>2019-05-05T11:32:03Z</time>
      </trkpt>
      <trkpt lat="53.137141037732363" lon="9.934299029409885">
        <ele>101.56</ele>
        <time>2019-05-05T11:32:04Z</time>
      </trkpt>
      <trkpt lat="53.138584988191724" lon="9.932975023984909">
        <ele>104.92</ele>
        <time>2019-05-05T11:32:13Z</time>
      </trkpt>
      <trkpt lat="53.139557959511876" lon="9.932083021849394">
        <ele>105.88</ele>
        <time>2019-05-05T11:32:19Z</time>
      </trkpt>
      <trkpt lat="53.140024999156594" lon="9.931554039940238">
        <ele>105.88</ele>
        <time>2019-05-05T11:32:22Z</time>
      </trkpt>
      <trkpt lat="53.140182998031378" lon="9.931362010538578">
        <ele>105.88</ele>
        <time>2019-05-05T11:32:23Z</time>
      </trkpt>
      <trkpt lat="53.140279976651073" lon="9.9311070330441">
        <ele>105.88</ele>
        <time>2019-05-05T11:32:24Z</time>
      </trkpt>
      <trkpt lat="53.14038198441267" lon="9.930835962295532">
        <ele>106.36</ele>
        <time>2019-05-05T11:32:25Z</time>
      </trkpt>
      <trkpt lat="53.140460019931197" lon="9.93052801117301">
        <ele>106.36</ele>
        <time>2019-05-05T11:32:26Z</time>
      </trkpt>
      <trkpt lat="53.140521040186286" lon="9.930207990109921">
        <ele>106.84</ele>
        <time>2019-05-05T11:32:27Z</time>
      </trkpt>
      <trkpt lat="53.141121016815305" lon="9.927239958196878">
        <ele>104.92</ele>
        <time>2019-05-05T11:32:36Z</time>
      </trkpt>
      <trkpt lat="53.141665002331138" lon="9.924996960908175">
        <ele>99.629999999999995</ele>
        <time>2019-05-05T11:32:43Z</time>
      </trkpt>
      <trkpt lat="53.142335973680019" lon="9.92240603081882">
        <ele>94.349999999999994</ele>
        <time>2019-05-05T11:32:52Z</time>
      </trkpt>
      <trkpt lat="53.142408980056643" lon="9.922122973948717">
        <ele>93.870000000000005</ele>
        <time>2019-05-05T11:32:53Z</time>
      </trkpt>
      <trkpt lat="53.143013985827565" lon="9.91995700635016">
        <ele>94.829999999999998</ele>
        <time>2019-05-05T11:33:01Z</time>
      </trkpt>
      <trkpt lat="53.14347599633038" lon="9.918768033385277">
        <ele>94.349999999999994</ele>
        <time>2019-05-05T11:33:06Z</time>
      </trkpt>
      <trkpt lat="53.143571969121695" lon="9.918543985113502">
        <ele>94.349999999999994</ele>
        <time>2019-05-05T11:33:07Z</time>
      </trkpt>
      <trkpt lat="53.14450403675437" lon="9.916357984766364">
        <ele>96.269999999999996</ele>
        <time>2019-05-05T11:33:16Z</time>
      </trkpt>
      <trkpt lat="53.14461400732398" lon="9.916099989786744">
        <ele>96.269999999999996</ele>
        <time>2019-05-05T11:33:17Z</time>
      </trkpt>
      <trkpt lat="53.144723977893591" lon="9.915843000635505">
        <ele>96.269999999999996</ele>
        <time>2019-05-05T11:33:18Z</time>
      </trkpt>
      <trkpt lat="53.14598998054862" lon="9.912872035056353">
        <ele>87.620000000000005</ele>
        <time>2019-05-05T11:33:30Z</time>
      </trkpt>
      <trkpt lat="53.146547041833401" lon="9.911593962460756">
        <ele>86.659999999999997</ele>
        <time>2019-05-05T11:33:37Z</time>
      </trkpt>
      <trkpt lat="53.146762037649751" lon="9.911109991371632">
        <ele>87.140000000000001</ele>
        <time>2019-05-05T11:33:40Z</time>
      </trkpt>
      <trkpt lat="53.146851975470781" lon="9.910980993881822">
        <ele>87.620000000000005</ele>
        <time>2019-05-05T11:33:41Z</time>
      </trkpt>
      <trkpt lat="53.146962029859424" lon="9.910872029140592">
        <ele>87.620000000000005</ele>
        <time>2019-05-05T11:33:42Z</time>
      </trkpt>
      <trkpt lat="53.147970037534833" lon="9.90992303006351">
        <ele>86.180000000000007</ele>
        <time>2019-05-05T11:33:51Z</time>
      </trkpt>
      <trkpt lat="53.148186961188912" lon="9.909734018146992">
        <ele>86.180000000000007</ele>
        <time>2019-05-05T11:33:53Z</time>
      </trkpt>
      <trkpt lat="53.148290980607271" lon="9.909643996506929">
        <ele>86.180000000000007</ele>
        <time>2019-05-05T11:33:54Z</time>
      </trkpt>
      <trkpt lat="53.148397011682391" lon="9.909551963210106">
        <ele>86.659999999999997</ele>
        <time>2019-05-05T11:33:55Z</time>
      </trkpt>
      <trkpt lat="53.148599015548825" lon="9.909377032890916">
        <ele>87.140000000000001</ele>
        <time>2019-05-05T11:33:57Z</time>
      </trkpt>
      <trkpt lat="53.148704040795565" lon="9.909287011250854">
        <ele>87.620000000000005</ele>
        <time>2019-05-05T11:33:58Z</time>
      </trkpt>
      <trkpt lat="53.148813005536795" lon="9.909195983782411">
        <ele>87.620000000000005</ele>
        <time>2019-05-05T11:33:59Z</time>
      </trkpt>
      <trkpt lat="53.148918030783534" lon="9.90910897962749">
        <ele>88.099999999999994</ele>
        <time>2019-05-05T11:34:00Z</time>
      </trkpt>
      <trkpt lat="53.149034036323428" lon="9.909050976857543">
        <ele>88.579999999999998</ele>
        <time>2019-05-05T11:34:01Z</time>
      </trkpt>
      <trkpt lat="53.149266969412565" lon="9.908934971317649">
        <ele>89.060000000000002</ele>
        <time>2019-05-05T11:34:03Z</time>
      </trkpt>
      <trkpt lat="53.149384986609221" lon="9.908865988254547">
        <ele>89.060000000000002</ele>
        <time>2019-05-05T11:34:04Z</time>
      </trkpt>
      <trkpt lat="53.149517001584172" lon="9.908766997978091">
        <ele>89.540000000000006</ele>
        <time>2019-05-05T11:34:05Z</time>
      </trkpt>
      <trkpt lat="53.149787988513708" lon="9.90831496194005">
        <ele>90.019999999999996</ele>
        <time>2019-05-05T11:34:08Z</time>
      </trkpt>
      <trkpt lat="53.149885972961783" lon="9.908199040219188">
        <ele>90.019999999999996</ele>
        <time>2019-05-05T11:34:09Z</time>
      </trkpt>
      <trkpt lat="53.149989992380142" lon="9.908129973337054">
        <ele>90.019999999999996</ele>
        <time>2019-05-05T11:34:10Z</time>
      </trkpt>
      <trkpt lat="53.15009300597012" lon="9.908060990273953">
        <ele>90.019999999999996</ele>
        <time>2019-05-05T11:34:11Z</time>
      </trkpt>
      <trkpt lat="53.150225020945072" lon="9.907972980290651">
        <ele>90.5</ele>
        <time>2019-05-05T11:34:12Z</time>
      </trkpt>
      <trkpt lat="53.151312991976738" lon="9.907508036121726">
        <ele>92.900000000000006</ele>
        <time>2019-05-05T11:34:21Z</time>
      </trkpt>
      <trkpt lat="53.152399035170674" lon="9.90704501979053">
        <ele>98.189999999999998</ele>
        <time>2019-05-05T11:34:30Z</time>
      </trkpt>
      <trkpt lat="53.153502009809017" lon="9.906565994024277">
        <ele>101.08</ele>
        <time>2019-05-05T11:34:39Z</time>
      </trkpt>
      <trkpt lat="53.1540019903332" lon="9.906330965459347">
        <ele>101.08</ele>
        <time>2019-05-05T11:34:43Z</time>
      </trkpt>
      <trkpt lat="53.154959036037326" lon="9.905875995755196">
        <ele>102.52</ele>
        <time>2019-05-05T11:34:50Z</time>
      </trkpt>
      <trkpt lat="53.156469035893679" lon="9.905182980000973">
        <ele>106.84</ele>
        <time>2019-05-05T11:34:58Z</time>
      </trkpt>
      <trkpt lat="53.157758004963398" lon="9.904244039207697">
        <ele>110.69</ele>
        <time>2019-05-05T11:35:05Z</time>
      </trkpt>
      <trkpt lat="53.158982014283538" lon="9.903351031243801">
        <ele>113.56999999999999</ele>
        <time>2019-05-05T11:35:12Z</time>
      </trkpt>
      <trkpt lat="53.159637982025743" lon="9.902720041573048">
        <ele>113.56999999999999</ele>
        <time>2019-05-05T11:35:16Z</time>
      </trkpt>
      <trkpt lat="53.159791035577655" lon="9.90253396332264">
        <ele>113.56999999999999</ele>
        <time>2019-05-05T11:35:17Z</time>
      </trkpt>
      <trkpt lat="53.161002974957228" lon="9.900746019557118">
        <ele>111.17</ele>
        <time>2019-05-05T11:35:25Z</time>
      </trkpt>
      <trkpt lat="53.161450987681746" lon="9.900070019066334">
        <ele>109.25</ele>
        <time>2019-05-05T11:35:28Z</time>
      </trkpt>
      <trkpt lat="53.161604963243008" lon="9.899839013814926">
        <ele>108.77</ele>
        <time>2019-05-05T11:35:29Z</time>
      </trkpt>
      <trkpt lat="53.162947995588183" lon="9.897813023999333">
        <ele>100.59999999999999</ele>
        <time>2019-05-05T11:35:38Z</time>
      </trkpt>
      <trkpt lat="53.16386497579515" lon="9.89643101580441">
        <ele>94.349999999999994</ele>
        <time>2019-05-05T11:35:44Z</time>
      </trkpt>
      <trkpt lat="53.164739040657878" lon="9.895584024488926">
        <ele>89.540000000000006</ele>
        <time>2019-05-05T11:35:49Z</time>
      </trkpt>
      <trkpt lat="53.165951985865831" lon="9.895173981785774">
        <ele>82.329999999999998</ele>
        <time>2019-05-05T11:35:55Z</time>
      </trkpt>
      <trkpt lat="53.16764697432518" lon="9.894709959626198">
        <ele>77.040000000000006</ele>
        <time>2019-05-05T11:36:04Z</time>
      </trkpt>
      <trkpt lat="53.168884981423616" lon="9.894372001290321">
        <ele>78</ele>
        <time>2019-05-05T11:36:11Z</time>
      </trkpt>
      <trkpt lat="53.169399965554476" lon="9.894160022959113">
        <ele>78</ele>
        <time>2019-05-05T11:36:14Z</time>
      </trkpt>
      <trkpt lat="53.169734990224242" lon="9.893904039636254">
        <ele>77.040000000000006</ele>
        <time>2019-05-05T11:36:16Z</time>
      </trkpt>
      <trkpt lat="53.16990103572607" lon="9.893770013004541">
        <ele>77.040000000000006</ele>
        <time>2019-05-05T11:36:17Z</time>
      </trkpt>
      <trkpt lat="53.170071020722389" lon="9.893632968887687">
        <ele>76.560000000000002</ele>
        <time>2019-05-05T11:36:18Z</time>
      </trkpt>
      <trkpt lat="53.171674981713295" lon="9.891718039289117">
        <ele>76.560000000000002</ele>
        <time>2019-05-05T11:36:28Z</time>
      </trkpt>
      <trkpt lat="53.17297300323844" lon="9.890164034441114">
        <ele>75.599999999999994</ele>
        <time>2019-05-05T11:36:36Z</time>
      </trkpt>
      <trkpt lat="53.174224002286792" lon="9.888668032363057">
        <ele>74.159999999999997</ele>
        <time>2019-05-05T11:36:44Z</time>
      </trkpt>
      <trkpt lat="53.175574997439981" lon="9.887049989774823">
        <ele>73.200000000000003</ele>
        <time>2019-05-05T11:36:53Z</time>
      </trkpt>
      <trkpt lat="53.1765600387007" lon="9.885726990178227">
        <ele>72.719999999999999</ele>
        <time>2019-05-05T11:37:00Z</time>
      </trkpt>
      <trkpt lat="53.176693981513381" lon="9.885526997968555">
        <ele>72.719999999999999</ele>
        <time>2019-05-05T11:37:01Z</time>
      </trkpt>
      <trkpt lat="53.177322037518024" lon="9.884395021945238">
        <ele>73.200000000000003</ele>
        <time>2019-05-05T11:37:06Z</time>
      </trkpt>
      <trkpt lat="53.177773989737034" lon="9.883374022319913">
        <ele>74.640000000000001</ele>
        <time>2019-05-05T11:37:10Z</time>
      </trkpt>
      <trkpt lat="53.178426017984748" lon="9.88126496784389">
        <ele>74.640000000000001</ele>
        <time>2019-05-05T11:37:18Z</time>
      </trkpt>
      <trkpt lat="53.178835976868868" lon="9.878290984779596">
        <ele>73.200000000000003</ele>
        <time>2019-05-05T11:37:28Z</time>
      </trkpt>
      <trkpt lat="53.178871013224125" lon="9.875679016113281">
        <ele>81.370000000000005</ele>
        <time>2019-05-05T11:37:36Z</time>
      </trkpt>
      <trkpt lat="53.178871013224125" lon="9.872740991413593">
        <ele>80.409999999999997</ele>
        <time>2019-05-05T11:37:45Z</time>
      </trkpt>
      <trkpt lat="53.178871013224125" lon="9.87019800581038">
        <ele>71.760000000000005</ele>
        <time>2019-05-05T11:37:53Z</time>
      </trkpt>
      <trkpt lat="53.178871013224125" lon="9.868601001799107">
        <ele>66.469999999999999</ele>
        <time>2019-05-05T11:37:58Z</time>
      </trkpt>
      <trkpt lat="53.178871013224125" lon="9.867956014350057">
        <ele>65.989999999999995</ele>
        <time>2019-05-05T11:38:00Z</time>
      </trkpt>
      <trkpt lat="53.178878976032138" lon="9.865104993805289">
        <ele>70.790000000000006</ele>
        <time>2019-05-05T11:38:09Z</time>
      </trkpt>
      <trkpt lat="53.178886016830802" lon="9.862567037343979">
        <ele>71.269999999999996</ele>
        <time>2019-05-05T11:38:17Z</time>
      </trkpt>
      <trkpt lat="53.178895991295576" lon="9.859399013221264">
        <ele>69.829999999999998</ele>
        <time>2019-05-05T11:38:27Z</time>
      </trkpt>
      <trkpt lat="53.178910994902253" lon="9.85528601333499">
        <ele>67.909999999999997</ele>
        <time>2019-05-05T11:38:40Z</time>
      </trkpt>
      <trkpt lat="53.17898903042078" lon="9.853727985173464">
        <ele>65.030000000000001</ele>
        <time>2019-05-05T11:38:45Z</time>
      </trkpt>
      <trkpt lat="53.179125990718603" lon="9.853158015757799">
        <ele>64.069999999999993</ele>
        <time>2019-05-05T11:38:47Z</time>
      </trkpt>
      <trkpt lat="53.179221963509917" lon="9.852890968322754">
        <ele>63.579999999999998</ele>
        <time>2019-05-05T11:38:48Z</time>
      </trkpt>
      <trkpt lat="53.179334029555321" lon="9.852635990828276">
        <ele>63.100000000000001</ele>
        <time>2019-05-05T11:38:49Z</time>
      </trkpt>
      <trkpt lat="53.180457958951592" lon="9.850083030760288">
        <ele>60.700000000000003</ele>
        <time>2019-05-05T11:38:59Z</time>
      </trkpt>
      <trkpt lat="53.181596975773573" lon="9.847496962174773">
        <ele>68.390000000000001</ele>
        <time>2019-05-05T11:39:09Z</time>
      </trkpt>
      <trkpt lat="53.18262199871242" lon="9.845161009579897">
        <ele>72.719999999999999</ele>
        <time>2019-05-05T11:39:18Z</time>
      </trkpt>
      <trkpt lat="53.183747017756104" lon="9.842578964307904">
        <ele>71.760000000000005</ele>
        <time>2019-05-05T11:39:28Z</time>
      </trkpt>
      <trkpt lat="53.184494012966752" lon="9.840833013877273">
        <ele>72.239999999999995</ele>
        <time>2019-05-05T11:39:36Z</time>
      </trkpt>
      <trkpt lat="53.184731975197792" lon="9.840262038633227">
        <ele>71.760000000000005</ele>
        <time>2019-05-05T11:39:39Z</time>
      </trkpt>
      <trkpt lat="53.184787966310978" lon="9.84005500562489">
        <ele>72.239999999999995</ele>
        <time>2019-05-05T11:39:40Z</time>
      </trkpt>
      <trkpt lat="53.184815039858222" lon="9.839865993708372">
        <ele>72.239999999999995</ele>
        <time>2019-05-05T11:39:41Z</time>
      </trkpt>
      <trkpt lat="53.184821996837854" lon="9.83958201482892">
        <ele>72.239999999999995</ele>
        <time>2019-05-05T11:39:42Z</time>
      </trkpt>
      <trkpt lat="53.184828031808138" lon="9.839331982657313">
        <ele>72.239999999999995</ele>
        <time>2019-05-05T11:39:43Z</time>
      </trkpt>
      <trkpt lat="53.184878993779421" lon="9.836884969845414">
        <ele>71.269999999999996</ele>
        <time>2019-05-05T11:39:53Z</time>
      </trkpt>
      <trkpt lat="53.184896009042859" lon="9.835783001035452">
        <ele>67.430000000000007</ele>
        <time>2019-05-05T11:40:00Z</time>
      </trkpt>
      <trkpt lat="53.18489802069962" lon="9.835668001323938">
        <ele>66.950000000000003</ele>
        <time>2019-05-05T11:40:02Z</time>
      </trkpt>
      <trkpt lat="53.184935990720987" lon="9.835468009114265">
        <ele>66.469999999999999</ele>
        <time>2019-05-05T11:40:03Z</time>
      </trkpt>
      <trkpt lat="53.18498401902616" lon="9.835440013557673">
        <ele>66.469999999999999</ele>
        <time>2019-05-05T11:40:04Z</time>
      </trkpt>
      <trkpt lat="53.185050990432501" lon="9.835400031879544">
        <ele>66.469999999999999</ele>
        <time>2019-05-05T11:40:05Z</time>
      </trkpt>
      <trkpt lat="53.18513598293066" lon="9.83534999191761">
        <ele>66.469999999999999</ele>
        <time>2019-05-05T11:40:06Z</time>
      </trkpt>
      <trkpt lat="53.185236984863877" lon="9.835288971662521">
        <ele>66.469999999999999</ele>
        <time>2019-05-05T11:40:07Z</time>
      </trkpt>
      <trkpt lat="53.186356974765658" lon="9.834616994485259">
        <ele>64.549999999999997</ele>
        <time>2019-05-05T11:40:15Z</time>
      </trkpt>
      <trkpt lat="53.187860017642379" lon="9.833725998178124">
        <ele>64.069999999999993</ele>
        <time>2019-05-05T11:40:23Z</time>
      </trkpt>
      <trkpt lat="53.190477015450597" lon="9.832125976681709">
        <ele>62.619999999999997</ele>
        <time>2019-05-05T11:40:35Z</time>
      </trkpt>
      <trkpt lat="53.193030981346965" lon="9.830594016239047">
        <ele>62.619999999999997</ele>
        <time>2019-05-05T11:40:46Z</time>
      </trkpt>
      <trkpt lat="53.194683976471424" lon="9.829608974978328">
        <ele>63.579999999999998</ele>
        <time>2019-05-05T11:40:53Z</time>
      </trkpt>
      <trkpt lat="53.19697399623692" lon="9.828250017017126">
        <ele>62.619999999999997</ele>
        <time>2019-05-05T11:41:03Z</time>
      </trkpt>
      <trkpt lat="53.198505034670234" lon="9.827334964647889">
        <ele>61.659999999999997</ele>
        <time>2019-05-05T11:41:11Z</time>
      </trkpt>
      <trkpt lat="53.200111007317901" lon="9.826349001377821">
        <ele>60.219999999999999</ele>
        <time>2019-05-05T11:41:21Z</time>
      </trkpt>
      <trkpt lat="53.201644979417324" lon="9.825443001464009">
        <ele>62.140000000000001</ele>
        <time>2019-05-05T11:41:31Z</time>
      </trkpt>
      <trkpt lat="53.203107034787536" lon="9.824566002935171">
        <ele>62.619999999999997</ele>
        <time>2019-05-05T11:41:39Z</time>
      </trkpt>
      <trkpt lat="53.204833036288619" lon="9.823547014966607">
        <ele>62.140000000000001</ele>
        <time>2019-05-05T11:41:46Z</time>
      </trkpt>
      <trkpt lat="53.206943012773991" lon="9.822271959856153">
        <ele>60.700000000000003</ele>
        <time>2019-05-05T11:41:54Z</time>
      </trkpt>
      <trkpt lat="53.208411019295454" lon="9.82138498686254">
        <ele>59.259999999999998</ele>
        <time>2019-05-05T11:42:01Z</time>
      </trkpt>
      <trkpt lat="53.210687963292003" lon="9.8200090136379">
        <ele>58.299999999999997</ele>
        <time>2019-05-05T11:42:12Z</time>
      </trkpt>
      <trkpt lat="53.212096961215138" lon="9.818892041221261">
        <ele>57.340000000000003</ele>
        <time>2019-05-05T11:42:18Z</time>
      </trkpt>
      <trkpt lat="53.214005017653108" lon="9.81717299669981">
        <ele>56.859999999999999</ele>
        <time>2019-05-05T11:42:27Z</time>
      </trkpt>
      <trkpt lat="53.215662036091089" lon="9.81568998657167">
        <ele>57.340000000000003</ele>
        <time>2019-05-05T11:42:34Z</time>
      </trkpt>
      <trkpt lat="53.217740999534726" lon="9.813830964267254">
        <ele>58.780000000000001</ele>
        <time>2019-05-05T11:42:42Z</time>
      </trkpt>
      <trkpt lat="53.219420984387398" lon="9.812333034351468">
        <ele>59.259999999999998</ele>
        <time>2019-05-05T11:42:49Z</time>
      </trkpt>
      <trkpt lat="53.221272965893149" lon="9.810681967064738">
        <ele>58.780000000000001</ele>
        <time>2019-05-05T11:42:57Z</time>
      </trkpt>
      <trkpt lat="53.22318697348237" lon="9.808954037725925">
        <ele>59.740000000000002</ele>
        <time>2019-05-05T11:43:05Z</time>
      </trkpt>
      <trkpt lat="53.22483996860683" lon="9.807503968477249">
        <ele>62.619999999999997</ele>
        <time>2019-05-05T11:43:12Z</time>
      </trkpt>
      <trkpt lat="53.226651968434453" lon="9.806614983826876">
        <ele>63.100000000000001</ele>
        <time>2019-05-05T11:43:19Z</time>
      </trkpt>
      <trkpt lat="53.228928996250033" lon="9.805761035531759">
        <ele>59.259999999999998</ele>
        <time>2019-05-05T11:43:28Z</time>
      </trkpt>
      <trkpt lat="53.230605963617563" lon="9.805129040032625">
        <ele>59.740000000000002</ele>
        <time>2019-05-05T11:43:36Z</time>
      </trkpt>
      <trkpt lat="53.232047986239195" lon="9.804607015103102">
        <ele>59.740000000000002</ele>
        <time>2019-05-05T11:43:44Z</time>
      </trkpt>
      <trkpt lat="53.233739035204053" lon="9.804001003503799">
        <ele>57.340000000000003</ele>
        <time>2019-05-05T11:43:54Z</time>
      </trkpt>
      <trkpt lat="53.235141998156905" lon="9.803470009937882">
        <ele>52.530000000000001</ele>
        <time>2019-05-05T11:44:03Z</time>
      </trkpt>
      <trkpt lat="53.236133996397257" lon="9.803090980276465">
        <ele>46.280000000000001</ele>
        <time>2019-05-05T11:44:11Z</time>
      </trkpt>
      <trkpt lat="53.237721025943756" lon="9.802479017525911">
        <ele>37.149999999999999</ele>
        <time>2019-05-05T11:44:24Z</time>
      </trkpt>
      <trkpt lat="53.238698020577431" lon="9.802121026441455">
        <ele>36.670000000000002</ele>
        <time>2019-05-05T11:44:32Z</time>
      </trkpt>
      <trkpt lat="53.23998698964715" lon="9.801667984575033">
        <ele>41.469999999999999</ele>
        <time>2019-05-05T11:44:43Z</time>
      </trkpt>
      <trkpt lat="53.240206008777022" lon="9.801601013168693">
        <ele>42.439999999999998</ele>
        <time>2019-05-05T11:44:46Z</time>
      </trkpt>
      <trkpt lat="53.240269040688872" lon="9.801581986248493">
        <ele>42.920000000000002</ele>
        <time>2019-05-05T11:44:47Z</time>
      </trkpt>
      <trkpt lat="53.240335006266832" lon="9.801419964060187">
        <ele>43.399999999999999</ele>
        <time>2019-05-05T11:44:48Z</time>
      </trkpt>
      <trkpt lat="53.240343974903226" lon="9.801277974620462">
        <ele>43.880000000000003</ele>
        <time>2019-05-05T11:44:49Z</time>
      </trkpt>
      <trkpt lat="53.240389991551638" lon="9.801116958260536">
        <ele>43.880000000000003</ele>
        <time>2019-05-05T11:44:50Z</time>
      </trkpt>
      <trkpt lat="53.240453023463488" lon="9.800959965214133">
        <ele>43.880000000000003</ele>
        <time>2019-05-05T11:44:51Z</time>
      </trkpt>
      <trkpt lat="53.240517983213067" lon="9.80080003850162">
        <ele>43.399999999999999</ele>
        <time>2019-05-05T11:44:52Z</time>
      </trkpt>
      <trkpt lat="53.240649998188019" lon="9.800472976639867">
        <ele>43.399999999999999</ele>
        <time>2019-05-05T11:44:54Z</time>
      </trkpt>
      <trkpt lat="53.241028022021055" lon="9.799768980592489">
        <ele>43.880000000000003</ele>
        <time>2019-05-05T11:44:59Z</time>
      </trkpt>
      <trkpt lat="53.241218961775303" lon="9.799586003646255">
        <ele>43.880000000000003</ele>
        <time>2019-05-05T11:45:01Z</time>
      </trkpt>
      <trkpt lat="53.241320969536901" lon="9.79948902502656">
        <ele>44.359999999999999</ele>
        <time>2019-05-05T11:45:02Z</time>
      </trkpt>
      <trkpt lat="53.242596024647355" lon="9.798456961289048">
        <ele>45.32</ele>
        <time>2019-05-05T11:45:13Z</time>
      </trkpt>
      <trkpt lat="53.243615012615919" lon="9.797094985842705">
        <ele>43.399999999999999</ele>
        <time>2019-05-05T11:45:20Z</time>
      </trkpt>
      <trkpt lat="53.244758974760771" lon="9.794829022139311">
        <ele>41.950000000000003</ele>
        <time>2019-05-05T11:45:28Z</time>
      </trkpt>
      <trkpt lat="53.245257027447224" lon="9.793777009472251">
        <ele>42.439999999999998</ele>
        <time>2019-05-05T11:45:32Z</time>
      </trkpt>
      <trkpt lat="53.24531301856041" lon="9.793510967865586">
        <ele>42.439999999999998</ele>
        <time>2019-05-05T11:45:33Z</time>
      </trkpt>
      <trkpt lat="53.245365992188454" lon="9.793261019513011">
        <ele>42.439999999999998</ele>
        <time>2019-05-05T11:45:34Z</time>
      </trkpt>
      <trkpt lat="53.245805958285928" lon="9.791119024157524">
        <ele>43.880000000000003</ele>
        <time>2019-05-05T11:45:44Z</time>
      </trkpt>
      <trkpt lat="53.246142994612455" lon="9.789379024878144">
        <ele>46.280000000000001</ele>
        <time>2019-05-05T11:45:53Z</time>
      </trkpt>
      <trkpt lat="53.246741965413094" lon="9.786307979375124">
        <ele>47.240000000000002</ele>
        <time>2019-05-05T11:46:08Z</time>
      </trkpt>
      <trkpt lat="53.24714002199471" lon="9.784422973170877">
        <ele>47.240000000000002</ele>
        <time>2019-05-05T11:46:15Z</time>
      </trkpt>
      <trkpt lat="53.248382974416018" lon="9.779482008889318">
        <ele>49.159999999999997</ele>
        <time>2019-05-05T11:46:32Z</time>
      </trkpt>
      <trkpt lat="53.249309007078409" lon="9.775844011455774">
        <ele>49.649999999999999</ele>
        <time>2019-05-05T11:46:45Z</time>
      </trkpt>
      <trkpt lat="53.25040896423161" lon="9.771522972732782">
        <ele>50.130000000000003</ele>
        <time>2019-05-05T11:47:01Z</time>
      </trkpt>
      <trkpt lat="53.251130981370807" lon="9.768687039613724">
        <ele>54.93</ele>
        <time>2019-05-05T11:47:12Z</time>
      </trkpt>
      <trkpt lat="53.251660969108343" lon="9.76655300706625">
        <ele>58.780000000000001</ele>
        <time>2019-05-05T11:47:20Z</time>
      </trkpt>
      <trkpt lat="53.252436965703964" lon="9.763485984876752">
        <ele>60.700000000000003</ele>
        <time>2019-05-05T11:47:29Z</time>
      </trkpt>
      <trkpt lat="53.253559973090887" lon="9.759032009169459">
        <ele>64.069999999999993</ele>
        <time>2019-05-05T11:47:41Z</time>
      </trkpt>
      <trkpt lat="53.254796974360943" lon="9.754138989374042">
        <ele>65.510000000000005</ele>
        <time>2019-05-05T11:47:54Z</time>
      </trkpt>
      <trkpt lat="53.255470963194966" lon="9.751498019322753">
        <ele>65.030000000000001</ele>
        <time>2019-05-05T11:48:01Z</time>
      </trkpt>
      <trkpt lat="53.256532028317451" lon="9.747358029708266">
        <ele>61.18</ele>
        <time>2019-05-05T11:48:12Z</time>
      </trkpt>
      <trkpt lat="53.257354041561484" lon="9.744255971163511">
        <ele>59.740000000000002</ele>
        <time>2019-05-05T11:48:22Z</time>
      </trkpt>
      <trkpt lat="53.258301028981805" lon="9.742192011326551">
        <ele>60.219999999999999</ele>
        <time>2019-05-05T11:48:30Z</time>
      </trkpt>
      <trkpt lat="53.259368967264891" lon="9.740519989281893">
        <ele>62.619999999999997</ele>
        <time>2019-05-05T11:48:39Z</time>
      </trkpt>
      <trkpt lat="53.260368006303906" lon="9.738990040495992">
        <ele>64.549999999999997</ele>
        <time>2019-05-05T11:48:49Z</time>
      </trkpt>
      <trkpt lat="53.261313987895846" lon="9.737552041187882">
        <ele>66.950000000000003</ele>
        <time>2019-05-05T11:48:59Z</time>
      </trkpt>
      <trkpt lat="53.261586986482143" lon="9.737141998484731">
        <ele>67.430000000000007</ele>
        <time>2019-05-05T11:49:02Z</time>
      </trkpt>
      <trkpt lat="53.262821976095438" lon="9.735253974795342">
        <ele>69.829999999999998</ele>
        <time>2019-05-05T11:49:15Z</time>
      </trkpt>
      <trkpt lat="53.263003025203943" lon="9.734977036714554">
        <ele>69.349999999999994</ele>
        <time>2019-05-05T11:49:17Z</time>
      </trkpt>
      <trkpt lat="53.263091035187244" lon="9.73484200425446">
        <ele>69.349999999999994</ele>
        <time>2019-05-05T11:49:18Z</time>
      </trkpt>
      <trkpt lat="53.264223011210561" lon="9.733133018016815">
        <ele>65.510000000000005</ele>
        <time>2019-05-05T11:49:30Z</time>
      </trkpt>
      <trkpt lat="53.264975035563111" lon="9.731997018679977">
        <ele>63.100000000000001</ele>
        <time>2019-05-05T11:49:38Z</time>
      </trkpt>
      <trkpt lat="53.26553201302886" lon="9.731152039021254">
        <ele>62.140000000000001</ele>
        <time>2019-05-05T11:49:44Z</time>
      </trkpt>
      <trkpt lat="53.265627985820174" lon="9.731007032096386">
        <ele>61.659999999999997</ele>
        <time>2019-05-05T11:49:45Z</time>
      </trkpt>
      <trkpt lat="53.265813980251551" lon="9.730725986883044">
        <ele>61.18</ele>
        <time>2019-05-05T11:49:47Z</time>
      </trkpt>
      <trkpt lat="53.265905007719994" lon="9.73058701492846">
        <ele>61.18</ele>
        <time>2019-05-05T11:49:48Z</time>
      </trkpt>
      <trkpt lat="53.266284037381411" lon="9.730014028027654">
        <ele>60.219999999999999</ele>
        <time>2019-05-05T11:49:52Z</time>
      </trkpt>
      <trkpt lat="53.266654014587402" lon="9.72944900393486">
        <ele>59.740000000000002</ele>
        <time>2019-05-05T11:49:56Z</time>
      </trkpt>
      <trkpt lat="53.266745964065194" lon="9.729309026151896">
        <ele>59.740000000000002</ele>
        <time>2019-05-05T11:49:57Z</time>
      </trkpt>
      <trkpt lat="53.267203029245138" lon="9.728613998740912">
        <ele>60.219999999999999</ele>
        <time>2019-05-05T11:50:02Z</time>
      </trkpt>
      <trkpt lat="53.267588010057807" lon="9.72803003154695">
        <ele>60.219999999999999</ele>
        <time>2019-05-05T11:50:08Z</time>
      </trkpt>
      <trkpt lat="53.267587004229426" lon="9.72803003154695">
        <ele>60.219999999999999</ele>
        <time>2019-05-05T11:50:09Z</time>
      </trkpt>
      <trkpt lat="53.267645006999373" lon="9.72794302739203">
        <ele>60.219999999999999</ele>
        <time>2019-05-05T11:50:10Z</time>
      </trkpt>
      <trkpt lat="53.267665039747953" lon="9.727912014350295">
        <ele>60.219999999999999</ele>
        <time>2019-05-05T11:50:11Z</time>
      </trkpt>
      <trkpt lat="53.267679959535599" lon="9.727889969944954">
        <ele>60.219999999999999</ele>
        <time>2019-05-05T11:50:12Z</time>
      </trkpt>
      <trkpt lat="53.267714995890856" lon="9.727835990488529">
        <ele>60.219999999999999</ele>
        <time>2019-05-05T11:50:23Z</time>
      </trkpt>
      <trkpt lat="53.267799988389015" lon="9.7277079988271">
        <ele>59.740000000000002</ele>
        <time>2019-05-05T11:50:25Z</time>
      </trkpt>
      <trkpt lat="53.268293011933565" lon="9.726962009444833">
        <ele>57.82</ele>
        <time>2019-05-05T11:50:32Z</time>
      </trkpt>
      <trkpt lat="53.269201023504138" lon="9.725586036220193">
        <ele>56.859999999999999</ele>
        <time>2019-05-05T11:50:42Z</time>
      </trkpt>
      <trkpt lat="53.269280986860394" lon="9.725468019023538">
        <ele>56.859999999999999</ele>
        <time>2019-05-05T11:50:43Z</time>
      </trkpt>
      <trkpt lat="53.270319001749158" lon="9.723885012790561">
        <ele>57.82</ele>
        <time>2019-05-05T11:50:56Z</time>
      </trkpt>
      <trkpt lat="53.271456006914377" lon="9.722178960219026">
        <ele>62.619999999999997</ele>
        <time>2019-05-05T11:51:10Z</time>
      </trkpt>
      <trkpt lat="53.272209959104657" lon="9.721077997237444">
        <ele>64.069999999999993</ele>
        <time>2019-05-05T11:51:20Z</time>
      </trkpt>
      <trkpt lat="53.272582031786442" lon="9.720587991178036">
        <ele>64.549999999999997</ele>
        <time>2019-05-05T11:51:25Z</time>
      </trkpt>
      <trkpt lat="53.27363102696836" lon="9.719710992649198">
        <ele>66.950000000000003</ele>
        <time>2019-05-05T11:51:36Z</time>
      </trkpt>
      <trkpt lat="53.274659989401698" lon="9.718931978568435">
        <ele>66.469999999999999</ele>
        <time>2019-05-05T11:51:45Z</time>
      </trkpt>
      <trkpt lat="53.274778006598353" lon="9.718842040747404">
        <ele>66.469999999999999</ele>
        <time>2019-05-05T11:51:46Z</time>
      </trkpt>
      <trkpt lat="53.276152973994613" lon="9.71778298728168">
        <ele>67.909999999999997</ele>
        <time>2019-05-05T11:51:58Z</time>
      </trkpt>
      <trkpt lat="53.277195012196898" lon="9.716984024271369">
        <ele>71.760000000000005</ele>
        <time>2019-05-05T11:52:07Z</time>
      </trkpt>
      <trkpt lat="53.277829019352794" lon="9.716491000726819">
        <ele>74.159999999999997</ele>
        <time>2019-05-05T11:52:14Z</time>
      </trkpt>
      <trkpt lat="53.277919963002205" lon="9.716420006006956">
        <ele>74.159999999999997</ele>
        <time>2019-05-05T11:52:16Z</time>
      </trkpt>
      <trkpt lat="53.277919963002205" lon="9.716420006006956">
        <ele>74.159999999999997</ele>
        <time>2019-05-05T11:52:17Z</time>
      </trkpt>
      <trkpt lat="53.278065975755453" lon="9.716365020722151">
        <ele>73.680000000000007</ele>
        <time>2019-05-05T11:52:18Z</time>
      </trkpt>
      <trkpt lat="53.278069999068975" lon="9.716355968266726">
        <ele>74.159999999999997</ele>
        <time>2019-05-05T11:52:19Z</time>
      </trkpt>
      <trkpt lat="53.278131019324064" lon="9.716140972450376">
        <ele>73.680000000000007</ele>
        <time>2019-05-05T11:52:20Z</time>
      </trkpt>
      <trkpt lat="53.278202014043927" lon="9.716048017144203">
        <ele>73.680000000000007</ele>
        <time>2019-05-05T11:52:21Z</time>
      </trkpt>
      <trkpt lat="53.278355989605188" lon="9.715849030762911">
        <ele>73.680000000000007</ele>
        <time>2019-05-05T11:52:23Z</time>
      </trkpt>
      <trkpt lat="53.279155036434531" lon="9.714805986732245">
        <ele>71.760000000000005</ele>
        <time>2019-05-05T11:52:33Z</time>
      </trkpt>
      <trkpt lat="53.279228964820504" lon="9.71471001394093">
        <ele>71.760000000000005</ele>
        <time>2019-05-05T11:52:34Z</time>
      </trkpt>
      <trkpt lat="53.280060030519962" lon="9.713595975190401">
        <ele>71.269999999999996</ele>
        <time>2019-05-05T11:52:45Z</time>
      </trkpt>
      <trkpt lat="53.280889000743628" lon="9.712557038292289">
        <ele>69.349999999999994</ele>
        <time>2019-05-05T11:52:57Z</time>
      </trkpt>
      <trkpt lat="53.280985979363322" lon="9.712448995560408">
        <ele>67.909999999999997</ele>
        <time>2019-05-05T11:53:01Z</time>
      </trkpt>
      <trkpt lat="53.281085975468159" lon="9.712337013334036">
        <ele>67.430000000000007</ele>
        <time>2019-05-05T11:53:04Z</time>
      </trkpt>
      <trkpt lat="53.281122017651796" lon="9.712297031655908">
        <ele>66.950000000000003</ele>
        <time>2019-05-05T11:53:05Z</time>
      </trkpt>
      <trkpt lat="53.281122017651796" lon="9.712212039157748">
        <ele>66.469999999999999</ele>
        <time>2019-05-05T11:53:06Z</time>
      </trkpt>
      <trkpt lat="53.281096033751965" lon="9.712107013911009">
        <ele>65.989999999999995</ele>
        <time>2019-05-05T11:53:07Z</time>
      </trkpt>
      <trkpt lat="53.281085975468159" lon="9.712025038897991">
        <ele>65.510000000000005</ele>
        <time>2019-05-05T11:53:08Z</time>
      </trkpt>
      <trkpt lat="53.281072983518243" lon="9.711914984509349">
        <ele>65.510000000000005</ele>
        <time>2019-05-05T11:53:09Z</time>
      </trkpt>
      <trkpt lat="53.281037025153637" lon="9.711383990943432">
        <ele>64.069999999999993</ele>
        <time>2019-05-05T11:53:13Z</time>
      </trkpt>
      <trkpt lat="53.281019004061818" lon="9.710803041234613">
        <ele>63.100000000000001</ele>
        <time>2019-05-05T11:53:17Z</time>
      </trkpt>
      <trkpt lat="53.281014980748296" lon="9.710653005167842">
        <ele>63.100000000000001</ele>
        <time>2019-05-05T11:53:18Z</time>
      </trkpt>
      <trkpt lat="53.280956977978349" lon="9.708594996482134">
        <ele>63.579999999999998</ele>
        <time>2019-05-05T11:53:30Z</time>
      </trkpt>
      <trkpt lat="53.280944991856813" lon="9.707861999049783">
        <ele>63.579999999999998</ele>
        <time>2019-05-05T11:53:34Z</time>
      </trkpt>
      <trkpt lat="53.280940968543291" lon="9.707205025479198">
        <ele>63.579999999999998</ele>
        <time>2019-05-05T11:53:38Z</time>
      </trkpt>
      <trkpt lat="53.2809370290488" lon="9.707050966098905">
        <ele>64.069999999999993</ele>
        <time>2019-05-05T11:53:39Z</time>
      </trkpt>
      <trkpt lat="53.280930994078517" lon="9.706777967512608">
        <ele>64.549999999999997</ele>
        <time>2019-05-05T11:53:41Z</time>
      </trkpt>
      <trkpt lat="53.280927976593375" lon="9.706669002771378">
        <ele>64.549999999999997</ele>
        <time>2019-05-05T11:53:42Z</time>
      </trkpt>
      <trkpt lat="53.280988996848464" lon="9.706518966704607">
        <ele>65.030000000000001</ele>
        <time>2019-05-05T11:53:43Z</time>
      </trkpt>
      <trkpt lat="53.281038030982018" lon="9.706528019160032">
        <ele>65.510000000000005</ele>
        <time>2019-05-05T11:53:44Z</time>
      </trkpt>
      <trkpt lat="53.281102990731597" lon="9.706540005281568">
        <ele>65.510000000000005</ele>
        <time>2019-05-05T11:53:45Z</time>
      </trkpt>
      <trkpt lat="53.281178008764982" lon="9.706554003059864">
        <ele>65.989999999999995</ele>
        <time>2019-05-05T11:53:46Z</time>
      </trkpt>
      <trkpt lat="53.282095994800329" lon="9.706758018583059">
        <ele>65.510000000000005</ele>
        <time>2019-05-05T11:53:55Z</time>
      </trkpt>
      <trkpt lat="53.282190039753914" lon="9.706767993047833">
        <ele>65.030000000000001</ele>
        <time>2019-05-05T11:53:56Z</time>
      </trkpt>
      <trkpt lat="53.282281989231706" lon="9.706776961684227">
        <ele>64.549999999999997</ele>
        <time>2019-05-05T11:53:57Z</time>
      </trkpt>
      <trkpt lat="53.282371005043387" lon="9.70678199082613">
        <ele>64.549999999999997</ele>
        <time>2019-05-05T11:53:58Z</time>
      </trkpt>
      <trkpt lat="53.282468989491463" lon="9.706737985834479">
        <ele>64.069999999999993</ele>
        <time>2019-05-05T11:53:59Z</time>
      </trkpt>
      <trkpt lat="53.282567979767919" lon="9.706690041348338">
        <ele>64.069999999999993</ele>
        <time>2019-05-05T11:54:00Z</time>
      </trkpt>
      <trkpt lat="53.283484959974885" lon="9.706012029200792">
        <ele>62.619999999999997</ele>
        <time>2019-05-05T11:54:10Z</time>
      </trkpt>
      <trkpt lat="53.284129025414586" lon="9.705528980121017">
        <ele>63.579999999999998</ele>
        <time>2019-05-05T11:54:17Z</time>
      </trkpt>
      <trkpt lat="53.284203037619591" lon="9.705405011773109">
        <ele>64.069999999999993</ele>
        <time>2019-05-05T11:54:18Z</time>
      </trkpt>
      <trkpt lat="53.284279983490705" lon="9.70527702011168">
        <ele>64.069999999999993</ele>
        <time>2019-05-05T11:54:19Z</time>
      </trkpt>
      <trkpt lat="53.285021027550101" lon="9.704002970829606">
        <ele>67.430000000000007</ele>
        <time>2019-05-05T11:54:28Z</time>
      </trkpt>
      <trkpt lat="53.28575000166893" lon="9.70267997123301">
        <ele>69.349999999999994</ele>
        <time>2019-05-05T11:54:37Z</time>
      </trkpt>
      <trkpt lat="53.286559022963047" lon="9.701200984418392">
        <ele>68.390000000000001</ele>
        <time>2019-05-05T11:54:45Z</time>
      </trkpt>
      <trkpt lat="53.287848997861147" lon="9.698887998238206">
        <ele>65.030000000000001</ele>
        <time>2019-05-05T11:54:54Z</time>
      </trkpt>
      <trkpt lat="53.28987498767674" lon="9.69524597749114">
        <ele>58.299999999999997</ele>
        <time>2019-05-05T11:55:06Z</time>
      </trkpt>
      <trkpt lat="53.291061026975513" lon="9.692993005737662">
        <ele>53.490000000000002</ele>
        <time>2019-05-05T11:55:13Z</time>
      </trkpt>
      <trkpt lat="53.291180972009897" lon="9.692606013268232">
        <ele>53.490000000000002</ele>
        <time>2019-05-05T11:55:14Z</time>
      </trkpt>
      <trkpt lat="53.292099041864276" lon="9.689288958907127">
        <ele>47.719999999999999</ele>
        <time>2019-05-05T11:55:23Z</time>
      </trkpt>
      <trkpt lat="53.292444040998816" lon="9.688027985394001">
        <ele>43.399999999999999</ele>
        <time>2019-05-05T11:55:29Z</time>
      </trkpt>
      <trkpt lat="53.292921977117658" lon="9.686335008591414">
        <ele>42.439999999999998</ele>
        <time>2019-05-05T11:55:38Z</time>
      </trkpt>
      <trkpt lat="53.293211990967393" lon="9.685420962050557">
        <ele>42.920000000000002</ele>
        <time>2019-05-05T11:55:43Z</time>
      </trkpt>
      <trkpt lat="53.293463028967381" lon="9.684963980689645">
        <ele>41.950000000000003</ele>
        <time>2019-05-05T11:55:46Z</time>
      </trkpt>
      <trkpt lat="53.293568976223469" lon="9.684868007898331">
        <ele>41.469999999999999</ele>
        <time>2019-05-05T11:55:47Z</time>
      </trkpt>
      <trkpt lat="53.293686993420124" lon="9.684778992086649">
        <ele>40.990000000000002</ele>
        <time>2019-05-05T11:55:48Z</time>
      </trkpt>
      <trkpt lat="53.293805010616779" lon="9.684711014851928">
        <ele>40.509999999999998</ele>
        <time>2019-05-05T11:55:49Z</time>
      </trkpt>
      <trkpt lat="53.293925039470196" lon="9.684670027345419">
        <ele>39.549999999999997</ele>
        <time>2019-05-05T11:55:50Z</time>
      </trkpt>
      <trkpt lat="53.29404498450458" lon="9.68462903983891">
        <ele>39.07</ele>
        <time>2019-05-05T11:55:51Z</time>
      </trkpt>
      <trkpt lat="53.295032037422061" lon="9.684292003512383">
        <ele>36.189999999999998</ele>
        <time>2019-05-05T11:55:59Z</time>
      </trkpt>
      <trkpt lat="53.295534029603004" lon="9.684083964675665">
        <ele>37.149999999999999</ele>
        <time>2019-05-05T11:56:03Z</time>
      </trkpt>
      <trkpt lat="53.295651040971279" lon="9.684010036289692">
        <ele>37.630000000000003</ele>
        <time>2019-05-05T11:56:04Z</time>
      </trkpt>
      <trkpt lat="53.295747013762593" lon="9.683887995779514">
        <ele>38.109999999999999</ele>
        <time>2019-05-05T11:56:05Z</time>
      </trkpt>
      <trkpt lat="53.295843992382288" lon="9.683765033259988">
        <ele>38.590000000000003</ele>
        <time>2019-05-05T11:56:06Z</time>
      </trkpt>
      <trkpt lat="53.295944994315505" lon="9.683636035770178">
        <ele>39.07</ele>
        <time>2019-05-05T11:56:07Z</time>
      </trkpt>
      <trkpt lat="53.296732977032661" lon="9.682634985074401">
        <ele>40.030000000000001</ele>
        <time>2019-05-05T11:56:15Z</time>
      </trkpt>
      <trkpt lat="53.297506039962173" lon="9.68155900016427">
        <ele>39.07</ele>
        <time>2019-05-05T11:56:23Z</time>
      </trkpt>
      <trkpt lat="53.297601006925106" lon="9.681405024603009">
        <ele>39.07</ele>
        <time>2019-05-05T11:56:24Z</time>
      </trkpt>
      <trkpt lat="53.298690989613533" lon="9.67919304035604">
        <ele>38.109999999999999</ele>
        <time>2019-05-05T11:56:36Z</time>
      </trkpt>
      <trkpt lat="53.299757000058889" lon="9.677439965307713">
        <ele>38.109999999999999</ele>
        <time>2019-05-05T11:56:43Z</time>
      </trkpt>
      <trkpt lat="53.301242021843791" lon="9.676135992631316">
        <ele>39.07</ele>
        <time>2019-05-05T11:56:50Z</time>
      </trkpt>
      <trkpt lat="53.303713006898761" lon="9.674428012222052">
        <ele>40.509999999999998</ele>
        <time>2019-05-05T11:57:01Z</time>
      </trkpt>
      <trkpt lat="53.305307999253273" lon="9.673311961814761">
        <ele>40.030000000000001</ele>
        <time>2019-05-05T11:57:08Z</time>
      </trkpt>
      <trkpt lat="53.307446977123618" lon="9.671766003593803">
        <ele>36.189999999999998</ele>
        <time>2019-05-05T11:57:17Z</time>
      </trkpt>
      <trkpt lat="53.308068998157978" lon="9.671250013634563">
        <ele>36.189999999999998</ele>
        <time>2019-05-05T11:57:20Z</time>
      </trkpt>
      <trkpt lat="53.308255998417735" lon="9.67100702226162">
        <ele>36.189999999999998</ele>
        <time>2019-05-05T11:57:21Z</time>
      </trkpt>
      <trkpt lat="53.308412991464138" lon="9.670699993148446">
        <ele>36.670000000000002</ele>
        <time>2019-05-05T11:57:22Z</time>
      </trkpt>
      <trkpt lat="53.308571996167302" lon="9.670391036197543">
        <ele>36.670000000000002</ele>
        <time>2019-05-05T11:57:23Z</time>
      </trkpt>
      <trkpt lat="53.308719014748931" lon="9.670049976557493">
        <ele>36.670000000000002</ele>
        <time>2019-05-05T11:57:24Z</time>
      </trkpt>
      <trkpt lat="53.310531014576554" lon="9.665470020845532">
        <ele>41.950000000000003</ele>
        <time>2019-05-05T11:57:37Z</time>
      </trkpt>
      <trkpt lat="53.311514966189861" lon="9.662988977506757">
        <ele>40.990000000000002</ele>
        <time>2019-05-05T11:57:45Z</time>
      </trkpt>
      <trkpt lat="53.312066998332739" lon="9.661720041185617">
        <ele>40.509999999999998</ele>
        <time>2019-05-05T11:57:52Z</time>
      </trkpt>
      <trkpt lat="53.312244024127722" lon="9.661430027335882">
        <ele>40.509999999999998</ele>
        <time>2019-05-05T11:57:54Z</time>
      </trkpt>
      <trkpt lat="53.312347959727049" lon="9.661316033452749">
        <ele>40.990000000000002</ele>
        <time>2019-05-05T11:57:55Z</time>
      </trkpt>
      <trkpt lat="53.31245600245893" lon="9.661219976842403">
        <ele>40.990000000000002</ele>
        <time>2019-05-05T11:57:56Z</time>
      </trkpt>
      <trkpt lat="53.31256496720016" lon="9.661124004051089">
        <ele>41.469999999999999</ele>
        <time>2019-05-05T11:57:57Z</time>
      </trkpt>
      <trkpt lat="53.312674015760422" lon="9.661034988239408">
        <ele>41.950000000000003</ele>
        <time>2019-05-05T11:57:58Z</time>
      </trkpt>
      <trkpt lat="53.312904015183449" lon="9.660875983536243">
        <ele>42.920000000000002</ele>
        <time>2019-05-05T11:58:00Z</time>
      </trkpt>
      <trkpt lat="53.313020020723343" lon="9.660797026008368">
        <ele>43.399999999999999</ele>
        <time>2019-05-05T11:58:01Z</time>
      </trkpt>
      <trkpt lat="53.313481025397778" lon="9.660479016602039">
        <ele>45.32</ele>
        <time>2019-05-05T11:58:05Z</time>
      </trkpt>
      <trkpt lat="53.313603987917304" lon="9.66039402410388">
        <ele>45.32</ele>
        <time>2019-05-05T11:58:06Z</time>
      </trkpt>
      <trkpt lat="53.314602021127939" lon="9.659718023613095">
        <ele>45.32</ele>
        <time>2019-05-05T11:58:15Z</time>
      </trkpt>
      <trkpt lat="53.314665975049138" lon="9.659653985872865">
        <ele>44.840000000000003</ele>
        <time>2019-05-05T11:58:16Z</time>
      </trkpt>
      <trkpt lat="53.314665975049138" lon="9.659653985872865">
        <ele>44.359999999999999</ele>
        <time>2019-05-05T11:58:17Z</time>
      </trkpt>
      <trkpt lat="53.314730012789369" lon="9.659437984228134">
        <ele>43.399999999999999</ele>
        <time>2019-05-05T11:58:18Z</time>
      </trkpt>
      <trkpt lat="53.314714003354311" lon="9.659302029758692">
        <ele>42.920000000000002</ele>
        <time>2019-05-05T11:58:19Z</time>
      </trkpt>
      <trkpt lat="53.314677039161325" lon="9.659171020612121">
        <ele>42.439999999999998</ele>
        <time>2019-05-05T11:58:20Z</time>
      </trkpt>
      <trkpt lat="53.314633034169674" lon="9.659018972888589">
        <ele>41.950000000000003</ele>
        <time>2019-05-05T11:58:21Z</time>
      </trkpt>
      <trkpt lat="53.314150990918279" lon="9.657329013571143">
        <ele>37.149999999999999</ele>
        <time>2019-05-05T11:58:30Z</time>
      </trkpt>
      <trkpt lat="53.314012018963695" lon="9.656773963943124">
        <ele>36.670000000000002</ele>
        <time>2019-05-05T11:58:33Z</time>
      </trkpt>
      <trkpt lat="53.314012018963695" lon="9.65657003223896">
        <ele>36.189999999999998</ele>
        <time>2019-05-05T11:58:34Z</time>
      </trkpt>
      <trkpt lat="53.314027022570372" lon="9.656359981745482">
        <ele>36.189999999999998</ele>
        <time>2019-05-05T11:58:35Z</time>
      </trkpt>
      <trkpt lat="53.31426297314465" lon="9.653808027505875">
        <ele>36.189999999999998</ele>
        <time>2019-05-05T11:58:47Z</time>
      </trkpt>
      <trkpt lat="53.31451702862978" lon="9.651741972193122">
        <ele>37.149999999999999</ele>
        <time>2019-05-05T11:58:57Z</time>
      </trkpt>
      <trkpt lat="53.314839983358979" lon="9.650116972625256">
        <ele>36.670000000000002</ele>
        <time>2019-05-05T11:59:05Z</time>
      </trkpt>
      <trkpt lat="53.314878959208727" lon="9.649918992072344">
        <ele>36.670000000000002</ele>
        <time>2019-05-05T11:59:06Z</time>
      </trkpt>
      <trkpt lat="53.315027989447117" lon="9.649409959092736">
        <ele>36.670000000000002</ele>
        <time>2019-05-05T11:59:09Z</time>
      </trkpt>
      <trkpt lat="53.315381035208702" lon="9.648420978337526">
        <ele>37.149999999999999</ele>
        <time>2019-05-05T11:59:18Z</time>
      </trkpt>
      <trkpt lat="53.315853020176291" lon="9.647193029522896">
        <ele>38.590000000000003</ele>
        <time>2019-05-05T11:59:26Z</time>
      </trkpt>
      <trkpt lat="53.316701017320156" lon="9.645357979461551">
        <ele>41.469999999999999</ele>
        <time>2019-05-05T11:59:37Z</time>
      </trkpt>
      <trkpt lat="53.317528981715441" lon="9.643671959638596">
        <ele>41.469999999999999</ele>
        <time>2019-05-05T11:59:47Z</time>
      </trkpt>
      <trkpt lat="53.317628977820277" lon="9.64352997019887">
        <ele>41.469999999999999</ele>
        <time>2019-05-05T11:59:48Z</time>
      </trkpt>
      <trkpt lat="53.317758981138468" lon="9.643436009064317">
        <ele>41.469999999999999</ele>
        <time>2019-05-05T11:59:49Z</time>
      </trkpt>
      <trkpt lat="53.317900970578194" lon="9.643365014344454">
        <ele>41.950000000000003</ele>
        <time>2019-05-05T11:59:50Z</time>
      </trkpt>
      <trkpt lat="53.318050000816584" lon="9.643304999917746">
        <ele>41.950000000000003</ele>
        <time>2019-05-05T11:59:51Z</time>
      </trkpt>
      <trkpt lat="53.318200958892703" lon="9.643275998532772">
        <ele>42.439999999999998</ele>
        <time>2019-05-05T11:59:52Z</time>
      </trkpt>
      <trkpt lat="53.319595037028193" lon="9.642981961369515">
        <ele>42.920000000000002</ele>
        <time>2019-05-05T12:00:00Z</time>
      </trkpt>
      <trkpt lat="53.321643993258476" lon="9.642529003322125">
        <ele>40.509999999999998</ele>
        <time>2019-05-05T12:00:09Z</time>
      </trkpt>
      <trkpt lat="53.324301978573203" lon="9.64194000698626">
        <ele>40.509999999999998</ele>
        <time>2019-05-05T12:00:20Z</time>
      </trkpt>
      <trkpt lat="53.326993994414806" lon="9.641338018700481">
        <ele>41.469999999999999</ele>
        <time>2019-05-05T12:00:31Z</time>
      </trkpt>
      <trkpt lat="53.329110005870461" lon="9.640813982114196">
        <ele>40.990000000000002</ele>
        <time>2019-05-05T12:00:40Z</time>
      </trkpt>
      <trkpt lat="53.330538030713797" lon="9.64004997164011">
        <ele>41.950000000000003</ele>
        <time>2019-05-05T12:00:48Z</time>
      </trkpt>
      <trkpt lat="53.332730988040566" lon="9.638810958713293">
        <ele>45.32</ele>
        <time>2019-05-05T12:01:01Z</time>
      </trkpt>
      <trkpt lat="53.335341028869152" lon="9.637290984392166">
        <ele>42.920000000000002</ele>
        <time>2019-05-05T12:01:16Z</time>
      </trkpt>
      <trkpt lat="53.336766036227345" lon="9.636447010561824">
        <ele>44.840000000000003</ele>
        <time>2019-05-05T12:01:24Z</time>
      </trkpt>
      <trkpt lat="53.339191004633904" lon="9.635040024295449">
        <ele>46.759999999999998</ele>
        <time>2019-05-05T12:01:37Z</time>
      </trkpt>
      <trkpt lat="53.34098800085485" lon="9.634243994951248">
        <ele>43.399999999999999</ele>
        <time>2019-05-05T12:01:46Z</time>
      </trkpt>
      <trkpt lat="53.342286022379994" lon="9.63452504016459">
        <ele>43.399999999999999</ele>
        <time>2019-05-05T12:01:52Z</time>
      </trkpt>
      <trkpt lat="53.344158036634326" lon="9.635226018726826">
        <ele>40.509999999999998</ele>
        <time>2019-05-05T12:02:01Z</time>
      </trkpt>
      <trkpt lat="53.344375966116786" lon="9.635264994576573">
        <ele>40.509999999999998</ele>
        <time>2019-05-05T12:02:02Z</time>
      </trkpt>
      <trkpt lat="53.346135998144746" lon="9.635223001241684">
        <ele>39.07</ele>
        <time>2019-05-05T12:02:10Z</time>
      </trkpt>
      <trkpt lat="53.347680028527975" lon="9.63487196713686">
        <ele>39.07</ele>
        <time>2019-05-05T12:02:17Z</time>
      </trkpt>
      <trkpt lat="53.350385958328843" lon="9.633542010560632">
        <ele>44.840000000000003</ele>
        <time>2019-05-05T12:02:29Z</time>
      </trkpt>
      <trkpt lat="53.352855015546083" lon="9.632329987362027">
        <ele>50.130000000000003</ele>
        <time>2019-05-05T12:02:40Z</time>
      </trkpt>
      <trkpt lat="53.355809971690178" lon="9.630886036902666">
        <ele>49.159999999999997</ele>
        <time>2019-05-05T12:02:53Z</time>
      </trkpt>
      <trkpt lat="53.358254972845316" lon="9.629706032574177">
        <ele>48.68</ele>
        <time>2019-05-05T12:03:04Z</time>
      </trkpt>
      <trkpt lat="53.360194964334369" lon="9.628743035718799">
        <ele>50.130000000000003</ele>
        <time>2019-05-05T12:03:13Z</time>
      </trkpt>
      <trkpt lat="53.361185034736991" lon="9.628245988860726">
        <ele>50.609999999999999</ele>
        <time>2019-05-05T12:03:20Z</time>
      </trkpt>
      <trkpt lat="53.361817030236125" lon="9.627936026081443">
        <ele>48.200000000000003</ele>
        <time>2019-05-05T12:03:28Z</time>
      </trkpt>
      <trkpt lat="53.361881989985704" lon="9.627881962805986">
        <ele>47.719999999999999</ele>
        <time>2019-05-05T12:03:30Z</time>
      </trkpt>
      <trkpt lat="53.361861035227776" lon="9.627823038026691">
        <ele>47.719999999999999</ele>
        <time>2019-05-05T12:03:31Z</time>
      </trkpt>
      <trkpt lat="53.36182801052928" lon="9.627732010558248">
        <ele>47.719999999999999</ele>
        <time>2019-05-05T12:03:32Z</time>
      </trkpt>
      <trkpt lat="53.361789034679532" lon="9.627572000026703">
        <ele>47.240000000000002</ele>
        <time>2019-05-05T12:03:33Z</time>
      </trkpt>
      <trkpt lat="53.361770007759333" lon="9.627400003373623">
        <ele>46.759999999999998</ele>
        <time>2019-05-05T12:03:34Z</time>
      </trkpt>
      <trkpt lat="53.361585019156337" lon="9.625490019097924">
        <ele>43.880000000000003</ele>
        <time>2019-05-05T12:03:43Z</time>
      </trkpt>
      <trkpt lat="53.361429031938314" lon="9.623494958505034">
        <ele>43.399999999999999</ele>
        <time>2019-05-05T12:03:52Z</time>
      </trkpt>
      <trkpt lat="53.361243959516287" lon="9.621352041140199">
        <ele>40.509999999999998</ele>
        <time>2019-05-05T12:04:02Z</time>
      </trkpt>
      <trkpt lat="53.361021000891924" lon="9.619067972525954">
        <ele>39.07</ele>
        <time>2019-05-05T12:04:12Z</time>
      </trkpt>
      <trkpt lat="53.360943971201777" lon="9.618040015920997">
        <ele>39.549999999999997</ele>
        <time>2019-05-05T12:04:16Z</time>
      </trkpt>
      <trkpt lat="53.360754959285259" lon="9.616442006081343">
        <ele>39.07</ele>
        <time>2019-05-05T12:04:21Z</time>
      </trkpt>
      <trkpt lat="53.360673990100622" lon="9.616117961704731">
        <ele>38.590000000000003</ele>
        <time>2019-05-05T12:04:22Z</time>
      </trkpt>
      <trkpt lat="53.360569970682263" lon="9.615806993097067">
        <ele>38.109999999999999</ele>
        <time>2019-05-05T12:04:23Z</time>
      </trkpt>
      <trkpt lat="53.359543019905686" lon="9.613295020535588">
        <ele>39.07</ele>
        <time>2019-05-05T12:04:31Z</time>
      </trkpt>
      <trkpt lat="53.358485978096724" lon="9.61070098914206">
        <ele>40.990000000000002</ele>
        <time>2019-05-05T12:04:40Z</time>
      </trkpt>
      <trkpt lat="53.358066966757178" lon="9.609378995373845">
        <ele>40.509999999999998</ele>
        <time>2019-05-05T12:04:47Z</time>
      </trkpt>
      <trkpt lat="53.358038971200585" lon="9.609167017042637">
        <ele>40.509999999999998</ele>
        <time>2019-05-05T12:04:48Z</time>
      </trkpt>
      <trkpt lat="53.358032014220953" lon="9.608943974599242">
        <ele>40.030000000000001</ele>
        <time>2019-05-05T12:04:49Z</time>
      </trkpt>
      <trkpt lat="53.358024973422289" lon="9.608709029853344">
        <ele>40.030000000000001</ele>
        <time>2019-05-05T12:04:50Z</time>
      </trkpt>
      <trkpt lat="53.358036959543824" lon="9.608471989631653">
        <ele>39.549999999999997</ele>
        <time>2019-05-05T12:04:51Z</time>
      </trkpt>
      <trkpt lat="53.358128992840648" lon="9.607732035219669">
        <ele>39.549999999999997</ele>
        <time>2019-05-05T12:04:55Z</time>
      </trkpt>
      <trkpt lat="53.358493018895388" lon="9.604844972491264">
        <ele>39.07</ele>
        <time>2019-05-05T12:05:05Z</time>
      </trkpt>
      <trkpt lat="53.359002973884344" lon="9.601693041622639">
        <ele>39.07</ele>
        <time>2019-05-05T12:05:17Z</time>
      </trkpt>
      <trkpt lat="53.359076986089349" lon="9.60146295838058">
        <ele>39.07</ele>
        <time>2019-05-05T12:05:18Z</time>
      </trkpt>
      <trkpt lat="53.359076986089349" lon="9.60146295838058">
        <ele>38.590000000000003</ele>
        <time>2019-05-05T12:05:19Z</time>
      </trkpt>
      <trkpt lat="53.359288964420557" lon="9.601059034466744">
        <ele>38.590000000000003</ele>
        <time>2019-05-05T12:05:20Z</time>
      </trkpt>
      <trkpt lat="53.359401030465961" lon="9.600862981751561">
        <ele>38.590000000000003</ele>
        <time>2019-05-05T12:05:21Z</time>
      </trkpt>
      <trkpt lat="53.36096903309226" lon="9.599207974970341">
        <ele>36.189999999999998</ele>
        <time>2019-05-05T12:05:32Z</time>
      </trkpt>
      <trkpt lat="53.362638037651777" lon="9.598557036370039">
        <ele>34.740000000000002</ele>
        <time>2019-05-05T12:05:42Z</time>
      </trkpt>
      <trkpt lat="53.364760000258684" lon="9.597694035619497">
        <ele>32.82</ele>
        <time>2019-05-05T12:05:54Z</time>
      </trkpt>
      <trkpt lat="53.364941971376538" lon="9.597533019259572">
        <ele>32.82</ele>
        <time>2019-05-05T12:05:55Z</time>
      </trkpt>
      <trkpt lat="53.365098964422941" lon="9.597339984029532">
        <ele>32.82</ele>
        <time>2019-05-05T12:05:56Z</time>
      </trkpt>
      <trkpt lat="53.36524598300457" lon="9.597134962677956">
        <ele>32.82</ele>
        <time>2019-05-05T12:05:57Z</time>
      </trkpt>
      <trkpt lat="53.365362994372845" lon="9.596892977133393">
        <ele>32.340000000000003</ele>
        <time>2019-05-05T12:05:58Z</time>
      </trkpt>
      <trkpt lat="53.365457961335778" lon="9.596620984375477">
        <ele>31.859999999999999</ele>
        <time>2019-05-05T12:05:59Z</time>
      </trkpt>
      <trkpt lat="53.365547982975841" lon="9.59632602520287">
        <ele>31.859999999999999</ele>
        <time>2019-05-05T12:06:00Z</time>
      </trkpt>
      <trkpt lat="53.365681003779173" lon="9.595668967813253">
        <ele>30.899999999999999</ele>
        <time>2019-05-05T12:06:02Z</time>
      </trkpt>
      <trkpt lat="53.366101020947099" lon="9.593796031549573">
        <ele>30.420000000000002</ele>
        <time>2019-05-05T12:06:08Z</time>
      </trkpt>
      <trkpt lat="53.366277040913701" lon="9.593319017440081">
        <ele>30.899999999999999</ele>
        <time>2019-05-05T12:06:10Z</time>
      </trkpt>
      <trkpt lat="53.366987993940711" lon="9.591866014525294">
        <ele>33.299999999999997</ele>
        <time>2019-05-05T12:06:18Z</time>
      </trkpt>
      <trkpt lat="53.367343973368406" lon="9.59106202237308">
        <ele>34.740000000000002</ele>
        <time>2019-05-05T12:06:24Z</time>
      </trkpt>
      <trkpt lat="53.367382027208805" lon="9.590974012389779">
        <ele>34.740000000000002</ele>
        <time>2019-05-05T12:06:25Z</time>
      </trkpt>
      <trkpt lat="53.36741697974503" lon="9.590895976871252">
        <ele>34.740000000000002</ele>
        <time>2019-05-05T12:06:26Z</time>
      </trkpt>
      <trkpt lat="53.367562992498279" lon="9.590843003243208">
        <ele>34.259999999999998</ele>
        <time>2019-05-05T12:06:27Z</time>
      </trkpt>
      <trkpt lat="53.367618983611465" lon="9.590913997963071">
        <ele>33.780000000000001</ele>
        <time>2019-05-05T12:06:28Z</time>
      </trkpt>
      <trkpt lat="53.367690984159708" lon="9.591007037088275">
        <ele>33.299999999999997</ele>
        <time>2019-05-05T12:06:29Z</time>
      </trkpt>
      <trkpt lat="53.367782011628151" lon="9.591122958809137">
        <ele>33.299999999999997</ele>
        <time>2019-05-05T12:06:30Z</time>
      </trkpt>
      <trkpt lat="53.36788703687489" lon="9.59125597961247">
        <ele>32.82</ele>
        <time>2019-05-05T12:06:31Z</time>
      </trkpt>
      <trkpt lat="53.368883980438113" lon="9.592485018074513">
        <ele>32.82</ele>
        <time>2019-05-05T12:06:38Z</time>
      </trkpt>
      <trkpt lat="53.37031401693821" lon="9.593309964984655">
        <ele>31.859999999999999</ele>
        <time>2019-05-05T12:06:45Z</time>
      </trkpt>
      <trkpt lat="53.372676959261298" lon="9.594001974910498">
        <ele>37.630000000000003</ele>
        <time>2019-05-05T12:06:56Z</time>
      </trkpt>
      <trkpt lat="53.374603036791086" lon="9.59452198818326">
        <ele>40.030000000000001</ele>
        <time>2019-05-05T12:07:06Z</time>
      </trkpt>
      <trkpt lat="53.376128040254116" lon="9.594988021999598">
        <ele>39.07</ele>
        <time>2019-05-05T12:07:15Z</time>
      </trkpt>
      <trkpt lat="53.377483980730176" lon="9.595421031117439">
        <ele>35.229999999999997</ele>
        <time>2019-05-05T12:07:25Z</time>
      </trkpt>
      <trkpt lat="53.378155035898089" lon="9.595642983913422">
        <ele>34.259999999999998</ele>
        <time>2019-05-05T12:07:32Z</time>
      </trkpt>
      <trkpt lat="53.378267018124461" lon="9.59568003192544">
        <ele>34.259999999999998</ele>
        <time>2019-05-05T12:07:34Z</time>
      </trkpt>
      <trkpt lat="53.378453012555838" lon="9.595740968361497">
        <ele>34.259999999999998</ele>
        <time>2019-05-05T12:07:39Z</time>
      </trkpt>
      <trkpt lat="53.378470027819276" lon="9.59574700333178">
        <ele>34.259999999999998</ele>
        <time>2019-05-05T12:07:40Z</time>
      </trkpt>
      <trkpt lat="53.378470027819276" lon="9.59574700333178">
        <ele>33.780000000000001</ele>
        <time>2019-05-05T12:07:52Z</time>
      </trkpt>
      <trkpt lat="53.378470027819276" lon="9.59574700333178">
        <ele>33.780000000000001</ele>
        <time>2019-05-05T12:08:44Z</time>
      </trkpt>
      <trkpt lat="53.378470027819276" lon="9.59574700333178">
        <ele>33.780000000000001</ele>
        <time>2019-05-05T12:09:24Z</time>
      </trkpt>
      <trkpt lat="53.378472961485386" lon="9.595748009160161">
        <ele>33.780000000000001</ele>
        <time>2019-05-05T12:09:32Z</time>
      </trkpt>
      <trkpt lat="53.378542028367519" lon="9.595769969746471">
        <ele>34.259999999999998</ele>
        <time>2019-05-05T12:09:34Z</time>
      </trkpt>
      <trkpt lat="53.378605982288718" lon="9.595791008323431">
        <ele>34.259999999999998</ele>
        <time>2019-05-05T12:09:35Z</time>
      </trkpt>
      <trkpt lat="53.379409974440932" lon="9.596055960282683">
        <ele>34.259999999999998</ele>
        <time>2019-05-05T12:09:44Z</time>
      </trkpt>
      <trkpt lat="53.380036018788815" lon="9.596286965534091">
        <ele>34.740000000000002</ele>
        <time>2019-05-05T12:09:50Z</time>
      </trkpt>
      <trkpt lat="53.380619985982776" lon="9.596565999090672">
        <ele>36.670000000000002</ele>
        <time>2019-05-05T12:09:55Z</time>
      </trkpt>
      <trkpt lat="53.380746971815825" lon="9.596628025174141">
        <ele>37.149999999999999</ele>
        <time>2019-05-05T12:09:56Z</time>
      </trkpt>
      <trkpt lat="53.38101502507925" lon="9.59675601683557">
        <ele>37.149999999999999</ele>
        <time>2019-05-05T12:09:58Z</time>
      </trkpt>
      <trkpt lat="53.382600964978337" lon="9.597533019259572">
        <ele>37.149999999999999</ele>
        <time>2019-05-05T12:10:09Z</time>
      </trkpt>
      <trkpt lat="53.383990013971925" lon="9.598177000880241">
        <ele>38.109999999999999</ele>
        <time>2019-05-05T12:10:19Z</time>
      </trkpt>
      <trkpt lat="53.385414015501738" lon="9.599019968882203">
        <ele>40.509999999999998</ele>
        <time>2019-05-05T12:10:31Z</time>
      </trkpt>
      <trkpt lat="53.385525997728109" lon="9.599115019664168">
        <ele>40.509999999999998</ele>
        <time>2019-05-05T12:10:32Z</time>
      </trkpt>
      <trkpt lat="53.38698897510767" lon="9.600419998168945">
        <ele>44.359999999999999</ele>
        <time>2019-05-05T12:10:45Z</time>
      </trkpt>
      <trkpt lat="53.388407025486231" lon="9.601837964728475">
        <ele>45.799999999999997</ele>
        <time>2019-05-05T12:10:58Z</time>
      </trkpt>
      <trkpt lat="53.389747040346265" lon="9.603139003738761">
        <ele>42.920000000000002</ele>
        <time>2019-05-05T12:11:10Z</time>
      </trkpt>
      <trkpt lat="53.390946993604302" lon="9.604270979762077">
        <ele>41.469999999999999</ele>
        <time>2019-05-05T12:11:18Z</time>
      </trkpt>
      <trkpt lat="53.392825964838266" lon="9.606066970154643">
        <ele>40.030000000000001</ele>
        <time>2019-05-05T12:11:28Z</time>
      </trkpt>
      <trkpt lat="53.394275028258562" lon="9.607446966692805">
        <ele>38.109999999999999</ele>
        <time>2019-05-05T12:11:35Z</time>
      </trkpt>
      <trkpt lat="53.396906023845077" lon="9.609809992834926">
        <ele>37.630000000000003</ele>
        <time>2019-05-05T12:11:47Z</time>
      </trkpt>
      <trkpt lat="53.398367995396256" lon="9.610206037759781">
        <ele>36.670000000000002</ele>
        <time>2019-05-05T12:11:53Z</time>
      </trkpt>
      <trkpt lat="53.401535013690591" lon="9.610240990296006">
        <ele>36.670000000000002</ele>
        <time>2019-05-05T12:12:06Z</time>
      </trkpt>
      <trkpt lat="53.404227029532194" lon="9.61027099750936">
        <ele>39.549999999999997</ele>
        <time>2019-05-05T12:12:17Z</time>
      </trkpt>
      <trkpt lat="53.40594096109271" lon="9.610288012772799">
        <ele>42.439999999999998</ele>
        <time>2019-05-05T12:12:25Z</time>
      </trkpt>
      <trkpt lat="53.407798977568746" lon="9.61024803109467">
        <ele>40.990000000000002</ele>
        <time>2019-05-05T12:12:35Z</time>
      </trkpt>
      <trkpt lat="53.408460980281234" lon="9.610225986689329">
        <ele>36.670000000000002</ele>
        <time>2019-05-05T12:12:41Z</time>
      </trkpt>
      <trkpt lat="53.409723965451121" lon="9.610243001952767">
        <ele>29.940000000000001</ele>
        <time>2019-05-05T12:12:51Z</time>
      </trkpt>
      <trkpt lat="53.410594007000327" lon="9.61033402942121">
        <ele>28.98</ele>
        <time>2019-05-05T12:12:58Z</time>
      </trkpt>
      <trkpt lat="53.410948980599642" lon="9.610516000539064">
        <ele>29.940000000000001</ele>
        <time>2019-05-05T12:13:01Z</time>
      </trkpt>
      <trkpt lat="53.411063980311155" lon="9.610574003309012">
        <ele>30.420000000000002</ele>
        <time>2019-05-05T12:13:02Z</time>
      </trkpt>
      <trkpt lat="53.411542000249028" lon="9.610818000510335">
        <ele>32.82</ele>
        <time>2019-05-05T12:13:06Z</time>
      </trkpt>
      <trkpt lat="53.411644008010626" lon="9.610869968309999">
        <ele>33.299999999999997</ele>
        <time>2019-05-05T12:13:07Z</time>
      </trkpt>
      <trkpt lat="53.411777028813958" lon="9.610835015773773">
        <ele>33.780000000000001</ele>
        <time>2019-05-05T12:13:08Z</time>
      </trkpt>
      <trkpt lat="53.411895968019962" lon="9.610804002732039">
        <ele>33.780000000000001</ele>
        <time>2019-05-05T12:13:09Z</time>
      </trkpt>
      <trkpt lat="53.412015996873379" lon="9.610772989690304">
        <ele>33.780000000000001</ele>
        <time>2019-05-05T12:13:10Z</time>
      </trkpt>
      <trkpt lat="53.412138037383556" lon="9.610740970820189">
        <ele>34.259999999999998</ele>
        <time>2019-05-05T12:13:11Z</time>
      </trkpt>
      <trkpt lat="53.412259994074702" lon="9.610693026334047">
        <ele>34.740000000000002</ele>
        <time>2019-05-05T12:13:12Z</time>
      </trkpt>
      <trkpt lat="53.412504997104406" lon="9.610596969723702">
        <ele>35.710000000000001</ele>
        <time>2019-05-05T12:13:14Z</time>
      </trkpt>
      <trkpt lat="53.412630977109075" lon="9.61054801940918">
        <ele>36.670000000000002</ele>
        <time>2019-05-05T12:13:15Z</time>
      </trkpt>
      <trkpt lat="53.412757962942123" lon="9.610558999702334">
        <ele>37.630000000000003</ele>
        <time>2019-05-05T12:13:16Z</time>
      </trkpt>
      <trkpt lat="53.41416796669364" lon="9.610778018832207">
        <ele>42.920000000000002</ele>
        <time>2019-05-05T12:13:27Z</time>
      </trkpt>
      <trkpt lat="53.415547963231802" lon="9.611012963578105">
        <ele>45.799999999999997</ele>
        <time>2019-05-05T12:13:38Z</time>
      </trkpt>
      <trkpt lat="53.417324004694819" lon="9.61129903793335">
        <ele>43.880000000000003</ele>
        <time>2019-05-05T12:13:52Z</time>
      </trkpt>
      <trkpt lat="53.418579027056694" lon="9.611529959365726">
        <ele>40.509999999999998</ele>
        <time>2019-05-05T12:14:02Z</time>
      </trkpt>
      <trkpt lat="53.419884005561471" lon="9.61175199598074">
        <ele>41.469999999999999</ele>
        <time>2019-05-05T12:14:11Z</time>
      </trkpt>
      <trkpt lat="53.421598020941019" lon="9.612041004002094">
        <ele>41.469999999999999</ele>
        <time>2019-05-05T12:14:19Z</time>
      </trkpt>
      <trkpt lat="53.42454400844872" lon="9.612537967041135">
        <ele>38.109999999999999</ele>
        <time>2019-05-05T12:14:31Z</time>
      </trkpt>
      <trkpt lat="53.427645983174443" lon="9.613058986142278">
        <ele>33.780000000000001</ele>
        <time>2019-05-05T12:14:43Z</time>
      </trkpt>
      <trkpt lat="53.42946301214397" lon="9.613358974456787">
        <ele>35.229999999999997</ele>
        <time>2019-05-05T12:14:51Z</time>
      </trkpt>
      <trkpt lat="53.430462973192334" lon="9.613530971109867">
        <ele>37.630000000000003</ele>
        <time>2019-05-05T12:14:58Z</time>
      </trkpt>
      <trkpt lat="53.432475971058011" lon="9.613873036578298">
        <ele>39.07</ele>
        <time>2019-05-05T12:15:14Z</time>
      </trkpt>
      <trkpt lat="53.433704003691673" lon="9.614216024056077">
        <ele>42.439999999999998</ele>
        <time>2019-05-05T12:15:24Z</time>
      </trkpt>
      <trkpt lat="53.433926040306687" lon="9.614313002675772">
        <ele>42.920000000000002</ele>
        <time>2019-05-05T12:15:27Z</time>
      </trkpt>
      <trkpt lat="53.434035005047917" lon="9.614443005993962">
        <ele>42.920000000000002</ele>
        <time>2019-05-05T12:15:29Z</time>
      </trkpt>
      <trkpt lat="53.434065012261271" lon="9.614461027085781">
        <ele>42.920000000000002</ele>
        <time>2019-05-05T12:15:30Z</time>
      </trkpt>
      <trkpt lat="53.4341049939394" lon="9.614431019872427">
        <ele>42.920000000000002</ele>
        <time>2019-05-05T12:15:31Z</time>
      </trkpt>
      <trkpt lat="53.434131983667612" lon="9.614410987123847">
        <ele>42.920000000000002</ele>
        <time>2019-05-05T12:15:32Z</time>
      </trkpt>
      <trkpt lat="53.43412603251636" lon="9.614388020709157">
        <ele>42.439999999999998</ele>
        <time>2019-05-05T12:15:33Z</time>
      </trkpt>
      <trkpt lat="53.434108011424541" lon="9.614316020160914">
        <ele>41.950000000000003</ele>
        <time>2019-05-05T12:15:34Z</time>
      </trkpt>
      <trkpt lat="53.434116980060935" lon="9.614148968830705">
        <ele>41.469999999999999</ele>
        <time>2019-05-05T12:15:35Z</time>
      </trkpt>
      <trkpt lat="53.43414799310267" lon="9.614047966897488">
        <ele>40.990000000000002</ele>
        <time>2019-05-05T12:15:36Z</time>
      </trkpt>
      <trkpt lat="53.434182023629546" lon="9.613936990499497">
        <ele>40.990000000000002</ele>
        <time>2019-05-05T12:15:37Z</time>
      </trkpt>
      <trkpt lat="53.434217981994152" lon="9.613819979131222">
        <ele>40.509999999999998</ele>
        <time>2019-05-05T12:15:38Z</time>
      </trkpt>
      <trkpt lat="53.434259975329041" lon="9.613686958327889">
        <ele>40.030000000000001</ele>
        <time>2019-05-05T12:15:39Z</time>
      </trkpt>
      <trkpt lat="53.43440699391067" lon="9.613313041627407">
        <ele>39.07</ele>
        <time>2019-05-05T12:15:42Z</time>
      </trkpt>
      <trkpt lat="53.434487963095307" lon="9.613263001665473">
        <ele>38.590000000000003</ele>
        <time>2019-05-05T12:15:43Z</time>
      </trkpt>
      <trkpt lat="53.434583013877273" lon="9.613225031644106">
        <ele>38.109999999999999</ele>
        <time>2019-05-05T12:15:44Z</time>
      </trkpt>
      <trkpt lat="53.435623962432146" lon="9.612915990874171">
        <ele>39.549999999999997</ele>
        <time>2019-05-05T12:15:54Z</time>
      </trkpt>
      <trkpt lat="53.437075959518552" lon="9.61224501952529">
        <ele>41.950000000000003</ele>
        <time>2019-05-05T12:16:07Z</time>
      </trkpt>
      <trkpt lat="53.438301980495453" lon="9.611648982390761">
        <ele>43.880000000000003</ele>
        <time>2019-05-05T12:16:17Z</time>
      </trkpt>
      <trkpt lat="53.439770992845297" lon="9.610925959423184">
        <ele>44.359999999999999</ele>
        <time>2019-05-05T12:16:29Z</time>
      </trkpt>
      <trkpt lat="53.441612999886274" lon="9.609990958124399">
        <ele>42.920000000000002</ele>
        <time>2019-05-05T12:16:44Z</time>
      </trkpt>
      <trkpt lat="53.442986039444804" lon="9.609283022582531">
        <ele>41.469999999999999</ele>
        <time>2019-05-05T12:16:52Z</time>
      </trkpt>
      <trkpt lat="53.444658983498812" lon="9.608438964933157">
        <ele>40.509999999999998</ele>
        <time>2019-05-05T12:17:02Z</time>
      </trkpt>
      <trkpt lat="53.445159969851375" lon="9.608168983832002">
        <ele>40.990000000000002</ele>
        <time>2019-05-05T12:17:07Z</time>
      </trkpt>
      <trkpt lat="53.445330038666725" lon="9.608323965221643">
        <ele>41.469999999999999</ele>
        <time>2019-05-05T12:17:09Z</time>
      </trkpt>
      <trkpt lat="53.445440009236336" lon="9.608274009078741">
        <ele>41.469999999999999</ele>
        <time>2019-05-05T12:17:10Z</time>
      </trkpt>
      <trkpt lat="53.445483008399606" lon="9.60820896551013">
        <ele>41.469999999999999</ele>
        <time>2019-05-05T12:17:11Z</time>
      </trkpt>
      <trkpt lat="53.445559032261372" lon="9.607958011329174">
        <ele>41.469999999999999</ele>
        <time>2019-05-05T12:17:12Z</time>
      </trkpt>
      <trkpt lat="53.445672020316124" lon="9.607904031872749">
        <ele>41.469999999999999</ele>
        <time>2019-05-05T12:17:13Z</time>
      </trkpt>
      <trkpt lat="53.445801017805934" lon="9.607840999960899">
        <ele>41.469999999999999</ele>
        <time>2019-05-05T12:17:14Z</time>
      </trkpt>
      <trkpt lat="53.445940995588899" lon="9.607773022726178">
        <ele>41.469999999999999</ele>
        <time>2019-05-05T12:17:15Z</time>
      </trkpt>
      <trkpt lat="53.447300037369132" lon="9.607096016407013">
        <ele>41.469999999999999</ele>
        <time>2019-05-05T12:17:23Z</time>
      </trkpt>
      <trkpt lat="53.449435997754335" lon="9.606006033718586">
        <ele>42.439999999999998</ele>
        <time>2019-05-05T12:17:33Z</time>
      </trkpt>
      <trkpt lat="53.45273201353848" lon="9.604333005845547">
        <ele>40.990000000000002</ele>
        <time>2019-05-05T12:17:47Z</time>
      </trkpt>
      <trkpt lat="53.455389998853207" lon="9.6029850281775">
        <ele>39.07</ele>
        <time>2019-05-05T12:17:59Z</time>
      </trkpt>
      <trkpt lat="53.457175008952618" lon="9.602064024657011">
        <ele>38.109999999999999</ele>
        <time>2019-05-05T12:18:08Z</time>
      </trkpt>
      <trkpt lat="53.458731025457382" lon="9.600831968709827">
        <ele>37.630000000000003</ele>
        <time>2019-05-05T12:18:16Z</time>
      </trkpt>
      <trkpt lat="53.460692977532744" lon="9.59909699857235">
        <ele>37.149999999999999</ele>
        <time>2019-05-05T12:18:25Z</time>
      </trkpt>
      <trkpt lat="53.462046990171075" lon="9.598168032243848">
        <ele>36.189999999999998</ele>
        <time>2019-05-05T12:18:32Z</time>
      </trkpt>
      <trkpt lat="53.464011959731579" lon="9.597652964293957">
        <ele>33.299999999999997</ele>
        <time>2019-05-05T12:18:40Z</time>
      </trkpt>
      <trkpt lat="53.466060999780893" lon="9.596987022086978">
        <ele>32.340000000000003</ele>
        <time>2019-05-05T12:18:48Z</time>
      </trkpt>
      <trkpt lat="53.467434961348772" lon="9.596351003274322">
        <ele>29.940000000000001</ele>
        <time>2019-05-05T12:18:55Z</time>
      </trkpt>
      <trkpt lat="53.468584958463907" lon="9.595820009708405">
        <ele>24.170000000000002</ele>
        <time>2019-05-05T12:19:03Z</time>
      </trkpt>
      <trkpt lat="53.469989011064172" lon="9.595085000619292">
        <ele>16.960000000000001</ele>
        <time>2019-05-05T12:19:15Z</time>
      </trkpt>
      <trkpt lat="53.470257986336946" lon="9.594850977882743">
        <ele>16</ele>
        <time>2019-05-05T12:19:19Z</time>
      </trkpt>
      <trkpt lat="53.470515981316566" lon="9.594625001773238">
        <ele>15.52</ele>
        <time>2019-05-05T12:19:28Z</time>
      </trkpt>
      <trkpt lat="53.470644978806376" lon="9.594505978748202">
        <ele>16</ele>
        <time>2019-05-05T12:19:41Z</time>
      </trkpt>
      <trkpt lat="53.470986038446426" lon="9.594165002927184">
        <ele>16.960000000000001</ele>
        <time>2019-05-05T12:19:45Z</time>
      </trkpt>
      <trkpt lat="53.471096009016037" lon="9.594054026529193">
        <ele>17.440000000000001</ele>
        <time>2019-05-05T12:19:46Z</time>
      </trkpt>
      <trkpt lat="53.471949035301805" lon="9.593280963599682">
        <ele>21.289999999999999</ele>
        <time>2019-05-05T12:19:52Z</time>
      </trkpt>
      <trkpt lat="53.472137041389942" lon="9.59318800829351">
        <ele>22.25</ele>
        <time>2019-05-05T12:19:53Z</time>
      </trkpt>
      <trkpt lat="53.472338961437345" lon="9.59316504187882">
        <ele>22.73</ele>
        <time>2019-05-05T12:19:54Z</time>
      </trkpt>
      <trkpt lat="53.472550017759204" lon="9.593156995251775">
        <ele>23.690000000000001</ele>
        <time>2019-05-05T12:19:55Z</time>
      </trkpt>
      <trkpt lat="53.472769958898425" lon="9.593204017728567">
        <ele>24.170000000000002</ele>
        <time>2019-05-05T12:19:56Z</time>
      </trkpt>
      <trkpt lat="53.472991995513439" lon="9.593307031318545">
        <ele>24.649999999999999</ele>
        <time>2019-05-05T12:19:57Z</time>
      </trkpt>
      <trkpt lat="53.473213026300073" lon="9.593418007716537">
        <ele>25.129999999999999</ele>
        <time>2019-05-05T12:19:58Z</time>
      </trkpt>
      <trkpt lat="53.475443031638861" lon="9.594487035647035">
        <ele>25.129999999999999</ele>
        <time>2019-05-05T12:20:07Z</time>
      </trkpt>
      <trkpt lat="53.478134041652083" lon="9.595757983624935">
        <ele>28.98</ele>
        <time>2019-05-05T12:20:17Z</time>
      </trkpt>
      <trkpt lat="53.48014703951776" lon="9.596707988530397">
        <ele>33.780000000000001</ele>
        <time>2019-05-05T12:20:25Z</time>
      </trkpt>
      <trkpt lat="53.481064019724727" lon="9.597132029011846">
        <ele>33.780000000000001</ele>
        <time>2019-05-05T12:20:31Z</time>
      </trkpt>
      <trkpt lat="53.482515010982752" lon="9.597815992310643">
        <ele>35.710000000000001</ele>
        <time>2019-05-05T12:20:43Z</time>
      </trkpt>
      <trkpt lat="53.484357018023729" lon="9.598678993061185">
        <ele>35.710000000000001</ele>
        <time>2019-05-05T12:20:58Z</time>
      </trkpt>
      <trkpt lat="53.484481992200017" lon="9.598706988617778">
        <ele>36.189999999999998</ele>
        <time>2019-05-05T12:20:59Z</time>
      </trkpt>
      <trkpt lat="53.484603026881814" lon="9.598714029416442">
        <ele>36.189999999999998</ele>
        <time>2019-05-05T12:21:00Z</time>
      </trkpt>
      <trkpt lat="53.484726995229721" lon="9.598682010546327">
        <ele>36.670000000000002</ele>
        <time>2019-05-05T12:21:01Z</time>
      </trkpt>
      <trkpt lat="53.486191984266043" lon="9.597972985357046">
        <ele>33.780000000000001</ele>
        <time>2019-05-05T12:21:13Z</time>
      </trkpt>
      <trkpt lat="53.487872974947095" lon="9.597089029848576">
        <ele>28.02</ele>
        <time>2019-05-05T12:21:27Z</time>
      </trkpt>
      <trkpt lat="53.489244002848864" lon="9.596380004659295">
        <ele>24.170000000000002</ele>
        <time>2019-05-05T12:21:36Z</time>
      </trkpt>
      <trkpt lat="53.491291031241417" lon="9.595322962850332">
        <ele>20.809999999999999</ele>
        <time>2019-05-05T12:21:47Z</time>
      </trkpt>
      <trkpt lat="53.49299699999392" lon="9.594438001513481">
        <ele>18.399999999999999</ele>
        <time>2019-05-05T12:21:57Z</time>
      </trkpt>
      <trkpt lat="53.493534028530121" lon="9.594240020960569">
        <ele>18.879999999999999</ele>
        <time>2019-05-05T12:22:00Z</time>
      </trkpt>
      <trkpt lat="53.493722034618258" lon="9.594240020960569">
        <ele>18.399999999999999</ele>
        <time>2019-05-05T12:22:01Z</time>
      </trkpt>
      <trkpt lat="53.493915991857648" lon="9.594270028173924">
        <ele>17.920000000000002</ele>
        <time>2019-05-05T12:22:02Z</time>
      </trkpt>
      <trkpt lat="53.494110032916069" lon="9.594350997358561">
        <ele>17.440000000000001</ele>
        <time>2019-05-05T12:22:03Z</time>
      </trkpt>
      <trkpt lat="53.494297033175826" lon="9.594476977363229">
        <ele>16.960000000000001</ele>
        <time>2019-05-05T12:22:04Z</time>
      </trkpt>
      <trkpt lat="53.494485961273313" lon="9.594603041186929">
        <ele>16.48</ele>
        <time>2019-05-05T12:22:05Z</time>
      </trkpt>
      <trkpt lat="53.495952039957047" lon="9.59563996642828">
        <ele>10.23</ele>
        <time>2019-05-05T12:22:14Z</time>
      </trkpt>
      <trkpt lat="53.496187990531325" lon="9.59581296890974">
        <ele>8.789999999999999</ele>
        <time>2019-05-05T12:22:16Z</time>
      </trkpt>
      <trkpt lat="53.496280023828149" lon="9.595924029126763">
        <ele>7.83</ele>
        <time>2019-05-05T12:22:17Z</time>
      </trkpt>
      <trkpt lat="53.496359987184405" lon="9.596029976382852">
        <ele>7.35</ele>
        <time>2019-05-05T12:22:18Z</time>
      </trkpt>
      <trkpt lat="53.496380019932985" lon="9.596256958320737">
        <ele>6.39</ele>
        <time>2019-05-05T12:22:19Z</time>
      </trkpt>
      <trkpt lat="53.496392006054521" lon="9.596328036859632">
        <ele>6.39</ele>
        <time>2019-05-05T12:22:20Z</time>
      </trkpt>
      <trkpt lat="53.496481021866202" lon="9.596425015479326">
        <ele>5.91</ele>
        <time>2019-05-05T12:22:21Z</time>
      </trkpt>
      <trkpt lat="53.496530978009105" lon="9.596449993550777">
        <ele>5.91</ele>
        <time>2019-05-05T12:22:22Z</time>
      </trkpt>
      <trkpt lat="53.496601972728968" lon="9.596378998830915">
        <ele>5.42</ele>
        <time>2019-05-05T12:22:23Z</time>
      </trkpt>
      <trkpt lat="53.496658969670534" lon="9.596294006332755">
        <ele>5.42</ele>
        <time>2019-05-05T12:22:24Z</time>
      </trkpt>
      <trkpt lat="53.496658969670534" lon="9.596170959994197">
        <ele>5.42</ele>
        <time>2019-05-05T12:22:25Z</time>
      </trkpt>
      <trkpt lat="53.496658969670534" lon="9.596170959994197">
        <ele>5.42</ele>
        <time>2019-05-05T12:22:26Z</time>
      </trkpt>
      <trkpt lat="53.496729964390397" lon="9.595825038850308">
        <ele>4.94</ele>
        <time>2019-05-05T12:22:27Z</time>
      </trkpt>
      <trkpt lat="53.496812023222446" lon="9.595668967813253">
        <ele>4.94</ele>
        <time>2019-05-05T12:22:28Z</time>
      </trkpt>
      <trkpt lat="53.497577039524913" lon="9.594271034002304">
        <ele>4.46</ele>
        <time>2019-05-05T12:22:35Z</time>
      </trkpt>
      <trkpt lat="53.498781016096473" lon="9.592192992568016">
        <ele>6.87</ele>
        <time>2019-05-05T12:22:45Z</time>
      </trkpt>
      <trkpt lat="53.49961300380528" lon="9.590737977996469">
        <ele>5.91</ele>
        <time>2019-05-05T12:22:53Z</time>
      </trkpt>
      <trkpt lat="53.499686010181904" lon="9.590613003820181">
        <ele>5.91</ele>
        <time>2019-05-05T12:22:54Z</time>
      </trkpt>
      <trkpt lat="53.499759016558528" lon="9.590489035472274">
        <ele>5.91</ele>
        <time>2019-05-05T12:22:55Z</time>
      </trkpt>
      <trkpt lat="53.500254973769188" lon="9.58962201140821">
        <ele>6.39</ele>
        <time>2019-05-05T12:23:04Z</time>
      </trkpt>
      <trkpt lat="53.50032202899456" lon="9.589475998654962">
        <ele>7.35</ele>
        <time>2019-05-05T12:23:12Z</time>
      </trkpt>
      <trkpt lat="53.500556973740458" lon="9.588908962905407">
        <ele>7.83</ele>
        <time>2019-05-05T12:23:18Z</time>
      </trkpt>
      <trkpt lat="53.501006998121738" lon="9.587501976639032">
        <ele>7.35</ele>
        <time>2019-05-05T12:23:25Z</time>
      </trkpt>
      <trkpt lat="53.501648968085647" lon="9.58532402291894">
        <ele>5.91</ele>
        <time>2019-05-05T12:23:32Z</time>
      </trkpt>
      <trkpt lat="53.502357993274927" lon="9.582878015935421">
        <ele>5.91</ele>
        <time>2019-05-05T12:23:39Z</time>
      </trkpt>
      <trkpt lat="53.503387961536646" lon="9.579334985464811">
        <ele>6.39</ele>
        <time>2019-05-05T12:23:50Z</time>
      </trkpt>
      <trkpt lat="53.504110984504223" lon="9.576800968497992">
        <ele>4.46</ele>
        <time>2019-05-05T12:23:58Z</time>
      </trkpt>
      <trkpt lat="53.505074987187982" lon="9.573579970747232">
        <ele>8.789999999999999</ele>
        <time>2019-05-05T12:24:09Z</time>
      </trkpt>
      <trkpt lat="53.505942011252046" lon="9.571555992588401">
        <ele>12.630000000000001</ele>
        <time>2019-05-05T12:24:17Z</time>
      </trkpt>
      <trkpt lat="53.506076037883759" lon="9.571350971236825">
        <ele>13.119999999999999</ele>
        <time>2019-05-05T12:24:18Z</time>
      </trkpt>
      <trkpt lat="53.506225990131497" lon="9.571176962926984">
        <ele>13.6</ele>
        <time>2019-05-05T12:24:19Z</time>
      </trkpt>
      <trkpt lat="53.507440024986863" lon="9.570227041840553">
        <ele>16.960000000000001</ele>
        <time>2019-05-05T12:24:27Z</time>
      </trkpt>
      <trkpt lat="53.508632015436888" lon="9.569391030818224">
        <ele>19.84</ele>
        <time>2019-05-05T12:24:35Z</time>
      </trkpt>
      <trkpt lat="53.510391041636467" lon="9.568195017054677">
        <ele>19.359999999999999</ele>
        <time>2019-05-05T12:24:43Z</time>
      </trkpt>
      <trkpt lat="53.511890983209014" lon="9.567163959145546">
        <ele>17.920000000000002</ele>
        <time>2019-05-05T12:24:50Z</time>
      </trkpt>
      <trkpt lat="53.513199985027313" lon="9.566263994202018">
        <ele>19.359999999999999</ele>
        <time>2019-05-05T12:24:56Z</time>
      </trkpt>
      <trkpt lat="53.515437031164765" lon="9.564738990738988">
        <ele>23.210000000000001</ele>
        <time>2019-05-05T12:25:06Z</time>
      </trkpt>
      <trkpt lat="53.517307033762336" lon="9.563265033066273">
        <ele>24.649999999999999</ele>
        <time>2019-05-05T12:25:17Z</time>
      </trkpt>
      <trkpt lat="53.519172007218003" lon="9.561509024351835">
        <ele>23.210000000000001</ele>
        <time>2019-05-05T12:25:29Z</time>
      </trkpt>
      <trkpt lat="53.52062601596117" lon="9.560153000056744">
        <ele>24.170000000000002</ele>
        <time>2019-05-05T12:25:37Z</time>
      </trkpt>
      <trkpt lat="53.522472968325019" lon="9.55889998935163">
        <ele>28.02</ele>
        <time>2019-05-05T12:25:45Z</time>
      </trkpt>
      <trkpt lat="53.526630979031324" lon="9.557065023109317">
        <ele>28.5</ele>
        <time>2019-05-05T12:26:01Z</time>
      </trkpt>
      <trkpt lat="53.529560035094619" lon="9.555438011884689">
        <ele>29.460000000000001</ele>
        <time>2019-05-05T12:26:12Z</time>
      </trkpt>
      <trkpt lat="53.530729981139302" lon="9.554294971749187">
        <ele>28.98</ele>
        <time>2019-05-05T12:26:18Z</time>
      </trkpt>
      <trkpt lat="53.532478027045727" lon="9.552478026598692">
        <ele>27.050000000000001</ele>
        <time>2019-05-05T12:26:30Z</time>
      </trkpt>
      <trkpt lat="53.534124987199903" lon="9.55080097541213">
        <ele>27.050000000000001</ele>
        <time>2019-05-05T12:26:41Z</time>
      </trkpt>
      <trkpt lat="53.535237014293671" lon="9.549642009660602">
        <ele>26.57</ele>
        <time>2019-05-05T12:26:49Z</time>
      </trkpt>
      <trkpt lat="53.536334037780762" lon="9.548507016152144">
        <ele>28.02</ele>
        <time>2019-05-05T12:26:59Z</time>
      </trkpt>
      <trkpt lat="53.537412034347653" lon="9.54710204154253">
        <ele>26.57</ele>
        <time>2019-05-05T12:27:10Z</time>
      </trkpt>
      <trkpt lat="53.538325997069478" lon="9.54598699696362">
        <ele>27.530000000000001</ele>
        <time>2019-05-05T12:27:19Z</time>
      </trkpt>
      <trkpt lat="53.539369963109493" lon="9.545217035338283">
        <ele>28.98</ele>
        <time>2019-05-05T12:27:28Z</time>
      </trkpt>
      <trkpt lat="53.54000598192215" lon="9.544794000685215">
        <ele>29.460000000000001</ele>
        <time>2019-05-05T12:27:35Z</time>
      </trkpt>
      <trkpt lat="53.541024969890714" lon="9.544149013236165">
        <ele>27.530000000000001</ele>
        <time>2019-05-05T12:27:47Z</time>
      </trkpt>
      <trkpt lat="53.542292984202504" lon="9.543593041598797">
        <ele>29.940000000000001</ele>
        <time>2019-05-05T12:27:57Z</time>
      </trkpt>
      <trkpt lat="53.543597962707281" lon="9.543336974456906">
        <ele>29.940000000000001</ele>
        <time>2019-05-05T12:28:03Z</time>
      </trkpt>
      <trkpt lat="53.545999964699149" lon="9.542855015024543">
        <ele>27.530000000000001</ele>
        <time>2019-05-05T12:28:12Z</time>
      </trkpt>
      <trkpt lat="53.547618007287383" lon="9.541936023160815">
        <ele>22.73</ele>
        <time>2019-05-05T12:28:18Z</time>
      </trkpt>
      <trkpt lat="53.549990002065897" lon="9.540174985304475">
        <ele>19.359999999999999</ele>
        <time>2019-05-05T12:28:28Z</time>
      </trkpt>
      <trkpt lat="53.552047004923224" lon="9.538645036518574">
        <ele>19.359999999999999</ele>
        <time>2019-05-05T12:28:36Z</time>
      </trkpt>
      <trkpt lat="53.553631016984582" lon="9.537463020533323">
        <ele>19.84</ele>
        <time>2019-05-05T12:28:44Z</time>
      </trkpt>
      <trkpt lat="53.555806959047914" lon="9.535832991823554">
        <ele>21.77</ele>
        <time>2019-05-05T12:28:53Z</time>
      </trkpt>
      <trkpt lat="53.55713096447289" lon="9.534791959449649">
        <ele>21.77</ele>
        <time>2019-05-05T12:29:00Z</time>
      </trkpt>
      <trkpt lat="53.558094967156649" lon="9.534070026129484">
        <ele>18.879999999999999</ele>
        <time>2019-05-05T12:29:08Z</time>
      </trkpt>
      <trkpt lat="53.559243958443403" lon="9.533207025378943">
        <ele>17.440000000000001</ele>
        <time>2019-05-05T12:29:18Z</time>
      </trkpt>
      <trkpt lat="53.559585018083453" lon="9.532946012914181">
        <ele>17.440000000000001</ele>
        <time>2019-05-05T12:29:21Z</time>
      </trkpt>
      <trkpt lat="53.559693982824683" lon="9.532863032072783">
        <ele>17.440000000000001</ele>
        <time>2019-05-05T12:29:22Z</time>
      </trkpt>
      <trkpt lat="53.559803031384945" lon="9.532779967412353">
        <ele>17.440000000000001</ele>
        <time>2019-05-05T12:29:23Z</time>
      </trkpt>
      <trkpt lat="53.560784971341491" lon="9.531842032447457">
        <ele>19.359999999999999</ele>
        <time>2019-05-05T12:29:32Z</time>
      </trkpt>
      <trkpt lat="53.561518974602222" lon="9.530995963141322">
        <ele>20.32</ele>
        <time>2019-05-05T12:29:39Z</time>
      </trkpt>
      <trkpt lat="53.561617964878678" lon="9.530879035592079">
        <ele>20.32</ele>
        <time>2019-05-05T12:29:40Z</time>
      </trkpt>
      <trkpt lat="53.562569981440902" lon="9.529762985184789">
        <ele>22.25</ele>
        <time>2019-05-05T12:29:49Z</time>
      </trkpt>
      <trkpt lat="53.563093012198806" lon="9.529158985242248">
        <ele>21.77</ele>
        <time>2019-05-05T12:29:54Z</time>
      </trkpt>
      <trkpt lat="53.564064977690578" lon="9.528091968968511">
        <ele>23.690000000000001</ele>
        <time>2019-05-05T12:30:03Z</time>
      </trkpt>
      <trkpt lat="53.565131993964314" lon="9.526962004601955">
        <ele>26.09</ele>
        <time>2019-05-05T12:30:13Z</time>
      </trkpt>
      <trkpt lat="53.566145030781627" lon="9.52570497058332">
        <ele>22.73</ele>
        <time>2019-05-05T12:30:23Z</time>
      </trkpt>
      <trkpt lat="53.567079026252031" lon="9.524258002638817">
        <ele>21.77</ele>
        <time>2019-05-05T12:30:32Z</time>
      </trkpt>
      <trkpt lat="53.568260036408901" lon="9.522371990606189">
        <ele>18.399999999999999</ele>
        <time>2019-05-05T12:30:40Z</time>
      </trkpt>
      <trkpt lat="53.569557974115014" lon="9.520307024940848">
        <ele>14.08</ele>
        <time>2019-05-05T12:30:49Z</time>
      </trkpt>
      <trkpt lat="53.570148982107639" lon="9.519181000068784">
        <ele>13.119999999999999</ele>
        <time>2019-05-05T12:30:55Z</time>
      </trkpt>
      <trkpt lat="53.57019399292767" lon="9.519034987315536">
        <ele>13.119999999999999</ele>
        <time>2019-05-05T12:30:56Z</time>
      </trkpt>
      <trkpt lat="53.570312010124326" lon="9.519019983708859">
        <ele>13.119999999999999</ele>
        <time>2019-05-05T12:30:57Z</time>
      </trkpt>
      <trkpt lat="53.570503033697605" lon="9.51880699954927">
        <ele>13.6</ele>
        <time>2019-05-05T12:30:59Z</time>
      </trkpt>
      <trkpt lat="53.570605041459203" lon="9.51874203979969">
        <ele>13.119999999999999</ele>
        <time>2019-05-05T12:31:00Z</time>
      </trkpt>
      <trkpt lat="53.570726998150349" lon="9.518764000386">
        <ele>13.119999999999999</ele>
        <time>2019-05-05T12:31:01Z</time>
      </trkpt>
      <trkpt lat="53.570867981761694" lon="9.518788978457451">
        <ele>13.119999999999999</ele>
        <time>2019-05-05T12:31:02Z</time>
      </trkpt>
      <trkpt lat="53.571184985339642" lon="9.518905989825726">
        <ele>12.630000000000001</ele>
        <time>2019-05-05T12:31:04Z</time>
      </trkpt>
      <trkpt lat="53.57294300571084" lon="9.519597999751568">
        <ele>5.91</ele>
        <time>2019-05-05T12:31:13Z</time>
      </trkpt>
      <trkpt lat="53.574762968346477" lon="9.519874015823007">
        <ele>0.62</ele>
        <time>2019-05-05T12:31:22Z</time>
      </trkpt>
      <trkpt lat="53.576444964855909" lon="9.519819030538201">
        <ele>-3.23</ele>
        <time>2019-05-05T12:31:32Z</time>
      </trkpt>
      <trkpt lat="53.577786991372705" lon="9.519616020843387">
        <ele>-7.55</ele>
        <time>2019-05-05T12:31:41Z</time>
      </trkpt>
      <trkpt lat="53.579550040885806" lon="9.518791995942593">
        <ele>-4.19</ele>
        <time>2019-05-05T12:31:53Z</time>
      </trkpt>
      <trkpt lat="53.581069009378552" lon="9.517505038529635">
        <ele>-3.23</ele>
        <time>2019-05-05T12:32:04Z</time>
      </trkpt>
      <trkpt lat="53.582470966503024" lon="9.515875009819865">
        <ele>-6.59</ele>
        <time>2019-05-05T12:32:13Z</time>
      </trkpt>
      <trkpt lat="53.58413795940578" lon="9.513422967866063">
        <ele>-8.51</ele>
        <time>2019-05-05T12:32:23Z</time>
      </trkpt>
      <trkpt lat="53.585883993655443" lon="9.510284028947353">
        <ele>-9</ele>
        <time>2019-05-05T12:32:33Z</time>
      </trkpt>
      <trkpt lat="53.587331967428327" lon="9.507606010884047">
        <ele>-9</ele>
        <time>2019-05-05T12:32:42Z</time>
      </trkpt>
      <trkpt lat="53.588854959234595" lon="9.505277015268803">
        <ele>-10.44</ele>
        <time>2019-05-05T12:32:51Z</time>
      </trkpt>
      <trkpt lat="53.590516000986099" lon="9.503377005457878">
        <ele>-10.92</ele>
        <time>2019-05-05T12:32:58Z</time>
      </trkpt>
      <trkpt lat="53.592934012413025" lon="9.501625020056963">
        <ele>-11.4</ele>
        <time>2019-05-05T12:33:07Z</time>
      </trkpt>
      <trkpt lat="53.59515898860991" lon="9.500849023461342">
        <ele>-10.92</ele>
        <time>2019-05-05T12:33:15Z</time>
      </trkpt>
      <trkpt lat="53.5972869861871" lon="9.500730000436306">
        <ele>-9.960000000000001</ele>
        <time>2019-05-05T12:33:23Z</time>
      </trkpt>
      <trkpt lat="53.598587019369006" lon="9.500934015959501">
        <ele>-9</ele>
        <time>2019-05-05T12:33:29Z</time>
      </trkpt>
      <trkpt lat="53.599611036479473" lon="9.501186981797218">
        <ele>-9.48</ele>
        <time>2019-05-05T12:33:36Z</time>
      </trkpt>
      <trkpt lat="53.60035702586174" lon="9.501346992328763">
        <ele>-9</ele>
        <time>2019-05-05T12:33:44Z</time>
      </trkpt>
      <trkpt lat="53.600738989189267" lon="9.501445982605219">
        <ele>-9.960000000000001</ele>
        <time>2019-05-05T12:33:53Z</time>
      </trkpt>
      <trkpt lat="53.600776037201285" lon="9.501457968726754">
        <ele>-10.44</ele>
        <time>2019-05-05T12:34:05Z</time>
      </trkpt>
      <trkpt lat="53.600961025804281" lon="9.501518988981843">
        <ele>-12.359999999999999</ele>
        <time>2019-05-05T12:34:32Z</time>
      </trkpt>
      <trkpt lat="53.600961025804281" lon="9.501518988981843">
        <ele>-12.84</ele>
        <time>2019-05-05T12:34:33Z</time>
      </trkpt>
      <trkpt lat="53.601090023294091" lon="9.501557964831591">
        <ele>-13.800000000000001</ele>
        <time>2019-05-05T12:34:34Z</time>
      </trkpt>
      <trkpt lat="53.601162023842335" lon="9.501581015065312">
        <ele>-14.279999999999999</ele>
        <time>2019-05-05T12:34:35Z</time>
      </trkpt>
      <trkpt lat="53.602077998220921" lon="9.501818977296352">
        <ele>-15.720000000000001</ele>
        <time>2019-05-05T12:34:44Z</time>
      </trkpt>
      <trkpt lat="53.603282980620861" lon="9.502144027501345">
        <ele>-16.690000000000001</ele>
        <time>2019-05-05T12:34:53Z</time>
      </trkpt>
      <trkpt lat="53.603449026122689" lon="9.502185015007854">
        <ele>-17.649999999999999</ele>
        <time>2019-05-05T12:34:54Z</time>
      </trkpt>
      <trkpt lat="53.603594033047557" lon="9.502222985029221">
        <ele>-18.609999999999999</ele>
        <time>2019-05-05T12:34:55Z</time>
      </trkpt>
      <trkpt lat="53.603950012475252" lon="9.502314012497664">
        <ele>-19.57</ele>
        <time>2019-05-05T12:34:57Z</time>
      </trkpt>
      <trkpt lat="53.605177039280534" lon="9.502633027732372">
        <ele>-19.57</ele>
        <time>2019-05-05T12:35:04Z</time>
      </trkpt>
      <trkpt lat="53.606750993058085" lon="9.503043992444873">
        <ele>-18.609999999999999</ele>
        <time>2019-05-05T12:35:11Z</time>
      </trkpt>
      <trkpt lat="53.606994990259409" lon="9.503107024356723">
        <ele>-18.609999999999999</ele>
        <time>2019-05-05T12:35:12Z</time>
      </trkpt>
      <trkpt lat="53.609083006158471" lon="9.503623014315963">
        <ele>-21.489999999999998</ele>
        <time>2019-05-05T12:35:21Z</time>
      </trkpt>
      <trkpt lat="53.610531985759735" lon="9.503715969622135">
        <ele>-20.530000000000001</ele>
        <time>2019-05-05T12:35:28Z</time>
      </trkpt>
      <trkpt lat="53.611574023962021" lon="9.503460992127657">
        <ele>-18.609999999999999</ele>
        <time>2019-05-05T12:35:35Z</time>
      </trkpt>
      <trkpt lat="53.612565016373992" lon="9.502982972189784">
        <ele>-10.44</ele>
        <time>2019-05-05T12:35:43Z</time>
      </trkpt>
      <trkpt lat="53.613577969372272" lon="9.502256009727716">
        <ele>-3.71</ele>
        <time>2019-05-05T12:35:52Z</time>
      </trkpt>
      <trkpt lat="53.614654960110784" lon="9.501070976257324">
        <ele>-0.82</ele>
        <time>2019-05-05T12:36:03Z</time>
      </trkpt>
      <trkpt lat="53.615843011066318" lon="9.499528035521507">
        <ele>1.58</ele>
        <time>2019-05-05T12:36:17Z</time>
      </trkpt>
      <trkpt lat="53.616530997678638" lon="9.498622035607696">
        <ele>2.06</ele>
        <time>2019-05-05T12:36:25Z</time>
      </trkpt>
      <trkpt lat="53.617468010634184" lon="9.49738897383213">
        <ele>-1.3</ele>
        <time>2019-05-05T12:36:36Z</time>
      </trkpt>
      <trkpt lat="53.618579031899571" lon="9.495978970080614">
        <ele>-6.11</ele>
        <time>2019-05-05T12:36:48Z</time>
      </trkpt>
      <trkpt lat="53.619096027687192" lon="9.495320990681648">
        <ele>-6.59</ele>
        <time>2019-05-05T12:36:56Z</time>
      </trkpt>
      <trkpt lat="53.619366008788347" lon="9.494988983497024">
        <ele>-6.59</ele>
        <time>2019-05-05T12:37:05Z</time>
      </trkpt>
      <trkpt lat="53.619503974914551" lon="9.494822015985847">
        <ele>-6.59</ele>
        <time>2019-05-05T12:37:09Z</time>
      </trkpt>
      <trkpt lat="53.620046032592654" lon="9.494097987189889">
        <ele>-6.11</ele>
        <time>2019-05-05T12:37:15Z</time>
      </trkpt>
      <trkpt lat="53.621135009452701" lon="9.4925950281322">
        <ele>-4.67</ele>
        <time>2019-05-05T12:37:23Z</time>
      </trkpt>
      <trkpt lat="53.622905015945435" lon="9.490325963124633">
        <ele>-4.19</ele>
        <time>2019-05-05T12:37:34Z</time>
      </trkpt>
      <trkpt lat="53.62467803992331" lon="9.48799897916615">
        <ele>-4.67</ele>
        <time>2019-05-05T12:37:45Z</time>
      </trkpt>
      <trkpt lat="53.626672010868788" lon="9.485390027984977">
        <ele>-6.11</ele>
        <time>2019-05-05T12:37:58Z</time>
      </trkpt>
      <trkpt lat="53.62845903262496" lon="9.483047034591436">
        <ele>-4.67</ele>
        <time>2019-05-05T12:38:10Z</time>
      </trkpt>
      <trkpt lat="53.630290981382132" lon="9.480785010382533">
        <ele>-4.67</ele>
        <time>2019-05-05T12:38:22Z</time>
      </trkpt>
      <trkpt lat="53.630472030490637" lon="9.480673028156161">
        <ele>-4.67</ele>
        <time>2019-05-05T12:38:23Z</time>
      </trkpt>
      <trkpt lat="53.630655007436872" lon="9.480560040101409">
        <ele>-4.67</ele>
        <time>2019-05-05T12:38:24Z</time>
      </trkpt>
      <trkpt lat="53.630837984383106" lon="9.480446968227625">
        <ele>-5.15</ele>
        <time>2019-05-05T12:38:25Z</time>
      </trkpt>
      <trkpt lat="53.631021967157722" lon="9.480339009314776">
        <ele>-5.15</ele>
        <time>2019-05-05T12:38:26Z</time>
      </trkpt>
      <trkpt lat="53.63121198490262" lon="9.480295004323125">
        <ele>-5.15</ele>
        <time>2019-05-05T12:38:27Z</time>
      </trkpt>
      <trkpt lat="53.6314030084759" lon="9.480249993503094">
        <ele>-5.15</ele>
        <time>2019-05-05T12:38:28Z</time>
      </trkpt>
      <trkpt lat="53.63329203799367" lon="9.479830982163549">
        <ele>-3.71</ele>
        <time>2019-05-05T12:38:39Z</time>
      </trkpt>
      <trkpt lat="53.635324984788895" lon="9.479432003572583">
        <ele>-5.15</ele>
        <time>2019-05-05T12:38:51Z</time>
      </trkpt>
      <trkpt lat="53.637460023164749" lon="9.478955995291472">
        <ele>-4.19</ele>
        <time>2019-05-05T12:39:04Z</time>
      </trkpt>
      <trkpt lat="53.639450976625085" lon="9.478616025298834">
        <ele>-4.67</ele>
        <time>2019-05-05T12:39:16Z</time>
      </trkpt>
      <trkpt lat="53.639788012951612" lon="9.478663969784975">
        <ele>-4.67</ele>
        <time>2019-05-05T12:39:18Z</time>
      </trkpt>
      <trkpt lat="53.641578974202275" lon="9.479179959744215">
        <ele>-4.67</ele>
        <time>2019-05-05T12:39:29Z</time>
      </trkpt>
      <trkpt lat="53.643270023167133" lon="9.479734003543854">
        <ele>-0.34</ele>
        <time>2019-05-05T12:39:41Z</time>
      </trkpt>
      <trkpt lat="53.644561003893614" lon="9.480147985741496">
        <ele>3.5</ele>
        <time>2019-05-05T12:39:52Z</time>
      </trkpt>
      <trkpt lat="53.64599104039371" lon="9.480591975152493">
        <ele>3.5</ele>
        <time>2019-05-05T12:40:05Z</time>
      </trkpt>
      <trkpt lat="53.647633977234364" lon="9.481114000082016">
        <ele>0.14</ele>
        <time>2019-05-05T12:40:19Z</time>
      </trkpt>
      <trkpt lat="53.649240033701062" lon="9.481629990041256">
        <ele>-3.71</ele>
        <time>2019-05-05T12:40:32Z</time>
      </trkpt>
      <trkpt lat="53.650463037192822" lon="9.482000973075628">
        <ele>-3.71</ele>
        <time>2019-05-05T12:40:43Z</time>
      </trkpt>
      <trkpt lat="53.651270968839526" lon="9.482214041054249">
        <ele>-4.67</ele>
        <time>2019-05-05T12:40:53Z</time>
      </trkpt>
      <trkpt lat="53.651421004906297" lon="9.482226027175784">
        <ele>-4.19</ele>
        <time>2019-05-05T12:40:57Z</time>
      </trkpt>
      <trkpt lat="53.651527035981417" lon="9.482388971373439">
        <ele>-3.71</ele>
        <time>2019-05-05T12:40:59Z</time>
      </trkpt>
      <trkpt lat="53.651584032922983" lon="9.482445968315005">
        <ele>-3.71</ele>
        <time>2019-05-05T12:41:00Z</time>
      </trkpt>
      <trkpt lat="53.651649998500943" lon="9.482429036870599">
        <ele>-3.71</ele>
        <time>2019-05-05T12:41:01Z</time>
      </trkpt>
      <trkpt lat="53.652655994519591" lon="9.482496008276939">
        <ele>-8.029999999999999</ele>
        <time>2019-05-05T12:41:13Z</time>
      </trkpt>
      <trkpt lat="53.653626032173634" lon="9.482614025473595">
        <ele>-9</ele>
        <time>2019-05-05T12:41:24Z</time>
      </trkpt>
      <trkpt lat="53.653777996078134" lon="9.482631962746382">
        <ele>-9</ele>
        <time>2019-05-05T12:41:26Z</time>
      </trkpt>
      <trkpt lat="53.653837004676461" lon="9.482639003545046">
        <ele>-9</ele>
        <time>2019-05-05T12:41:27Z</time>
      </trkpt>
      <trkpt lat="53.654028028249741" lon="9.482806976884604">
        <ele>-9</ele>
        <time>2019-05-05T12:41:30Z</time>
      </trkpt>
      <trkpt lat="53.654129030182958" lon="9.482687031850219">
        <ele>-9</ele>
        <time>2019-05-05T12:41:31Z</time>
      </trkpt>
      <trkpt lat="53.654159037396312" lon="9.482639003545046">
        <ele>-9</ele>
        <time>2019-05-05T12:41:32Z</time>
      </trkpt>
      <trkpt lat="53.654125006869435" lon="9.482492990791798">
        <ele>-8.51</ele>
        <time>2019-05-05T12:41:33Z</time>
      </trkpt>
      <trkpt lat="53.654120983555913" lon="9.482300039380789">
        <ele>-8.51</ele>
        <time>2019-05-05T12:41:34Z</time>
      </trkpt>
      <trkpt lat="53.654158031567931" lon="9.482216974720359">
        <ele>-8.51</ele>
        <time>2019-05-05T12:41:35Z</time>
      </trkpt>
      <trkpt lat="53.654197007417679" lon="9.482118990272284">
        <ele>-8.51</ele>
        <time>2019-05-05T12:41:36Z</time>
      </trkpt>
      <trkpt lat="53.654653988778591" lon="9.48084301315248">
        <ele>-10.92</ele>
        <time>2019-05-05T12:41:45Z</time>
      </trkpt>
      <trkpt lat="53.655310962349176" lon="9.479077029973269">
        <ele>-10.44</ele>
        <time>2019-05-05T12:41:57Z</time>
      </trkpt>
      <trkpt lat="53.655960978940129" lon="9.477252960205078">
        <ele>-10.44</ele>
        <time>2019-05-05T12:42:09Z</time>
      </trkpt>
      <trkpt lat="53.65619701333344" lon="9.476766977459192">
        <ele>-10.44</ele>
        <time>2019-05-05T12:42:12Z</time>
      </trkpt>
      <trkpt lat="53.656402034685016" lon="9.476490039378405">
        <ele>-10.44</ele>
        <time>2019-05-05T12:42:14Z</time>
      </trkpt>
      <trkpt lat="53.656633961945772" lon="9.476258028298616">
        <ele>-10.44</ele>
        <time>2019-05-05T12:42:16Z</time>
      </trkpt>
      <trkpt lat="53.65675700828433" lon="9.476134981960058">
        <ele>-10.44</ele>
        <time>2019-05-05T12:42:17Z</time>
      </trkpt>
      <trkpt lat="53.656888017430902" lon="9.476054012775421">
        <ele>-10.92</ele>
        <time>2019-05-05T12:42:18Z</time>
      </trkpt>
      <trkpt lat="53.657027995213866" lon="9.475991986691952">
        <ele>-10.92</ele>
        <time>2019-05-05T12:42:19Z</time>
      </trkpt>
      <trkpt lat="53.657171996310353" lon="9.475928032770753">
        <ele>-11.4</ele>
        <time>2019-05-05T12:42:20Z</time>
      </trkpt>
      <trkpt lat="53.657326977699995" lon="9.475929038599134">
        <ele>-11.4</ele>
        <time>2019-05-05T12:42:21Z</time>
      </trkpt>
      <trkpt lat="53.657481959089637" lon="9.475935995578766">
        <ele>-11.4</ele>
        <time>2019-05-05T12:42:22Z</time>
      </trkpt>
      <trkpt lat="53.657655967399478" lon="9.475943958386779">
        <ele>-11.880000000000001</ele>
        <time>2019-05-05T12:42:23Z</time>
      </trkpt>
      <trkpt lat="53.657801980152726" lon="9.476001961156726">
        <ele>-11.880000000000001</ele>
        <time>2019-05-05T12:42:24Z</time>
      </trkpt>
      <trkpt lat="53.657970037311316" lon="9.476076979190111">
        <ele>-11.880000000000001</ele>
        <time>2019-05-05T12:42:25Z</time>
      </trkpt>
      <trkpt lat="53.659521024674177" lon="9.476821962743998">
        <ele>-11.880000000000001</ele>
        <time>2019-05-05T12:42:34Z</time>
      </trkpt>
      <trkpt lat="53.661735020577908" lon="9.477881016209722">
        <ele>-12.359999999999999</ele>
        <time>2019-05-05T12:42:44Z</time>
      </trkpt>
      <trkpt lat="53.662489978596568" lon="9.478240013122559">
        <ele>-11.4</ele>
        <time>2019-05-05T12:42:49Z</time>
      </trkpt>
      <trkpt lat="53.662628028541803" lon="9.478304972872138">
        <ele>-11.4</ele>
        <time>2019-05-05T12:42:50Z</time>
      </trkpt>
      <trkpt lat="53.664099974557757" lon="9.479006035253406">
        <ele>-13.800000000000001</ele>
        <time>2019-05-05T12:43:01Z</time>
      </trkpt>
      <trkpt lat="53.665549037978053" lon="9.479698967188597">
        <ele>-11.880000000000001</ele>
        <time>2019-05-05T12:43:12Z</time>
      </trkpt>
      <trkpt lat="53.666955018416047" lon="9.480123007670045">
        <ele>-9.960000000000001</ele>
        <time>2019-05-05T12:43:23Z</time>
      </trkpt>
      <trkpt lat="53.668325962498784" lon="9.479771973565221">
        <ele>-6.11</ele>
        <time>2019-05-05T12:43:33Z</time>
      </trkpt>
      <trkpt lat="53.669488029554486" lon="9.479196975007653">
        <ele>-4.67</ele>
        <time>2019-05-05T12:43:40Z</time>
      </trkpt>
      <trkpt lat="53.670681025832891" lon="9.478604961186647">
        <ele>-2.27</ele>
        <time>2019-05-05T12:43:48Z</time>
      </trkpt>
      <trkpt lat="53.671929007396102" lon="9.477868024259806">
        <ele>-3.23</ele>
        <time>2019-05-05T12:43:58Z</time>
      </trkpt>
      <trkpt lat="53.672399986535311" lon="9.477257989346981">
        <ele>-3.71</ele>
        <time>2019-05-05T12:44:02Z</time>
      </trkpt>
      <trkpt lat="53.672516997903585" lon="9.477051040157676">
        <ele>-3.71</ele>
        <time>2019-05-05T12:44:03Z</time>
      </trkpt>
      <trkpt lat="53.67263400927186" lon="9.476845012977719">
        <ele>-3.71</ele>
        <time>2019-05-05T12:44:04Z</time>
      </trkpt>
      <trkpt lat="53.672735011205077" lon="9.476587017998099">
        <ele>-3.71</ele>
        <time>2019-05-05T12:44:05Z</time>
      </trkpt>
      <trkpt lat="53.672839030623436" lon="9.476322988048196">
        <ele>-3.23</ele>
        <time>2019-05-05T12:44:06Z</time>
      </trkpt>
      <trkpt lat="53.673993973061442" lon="9.47356098331511">
        <ele>-3.71</ele>
        <time>2019-05-05T12:44:16Z</time>
      </trkpt>
      <trkpt lat="53.674137974157929" lon="9.473338024690747">
        <ele>-3.71</ele>
        <time>2019-05-05T12:44:17Z</time>
      </trkpt>
      <trkpt lat="53.674292033538222" lon="9.473158987239003">
        <ele>-3.71</ele>
        <time>2019-05-05T12:44:18Z</time>
      </trkpt>
      <trkpt lat="53.674463024362922" lon="9.473006017506123">
        <ele>-3.71</ele>
        <time>2019-05-05T12:44:19Z</time>
      </trkpt>
      <trkpt lat="53.674634015187621" lon="9.472866039723158">
        <ele>-3.71</ele>
        <time>2019-05-05T12:44:20Z</time>
      </trkpt>
      <trkpt lat="53.674822021275759" lon="9.472796972841024">
        <ele>-3.71</ele>
        <time>2019-05-05T12:44:21Z</time>
      </trkpt>
      <trkpt lat="53.675011033192277" lon="9.472726983949542">
        <ele>-3.71</ele>
        <time>2019-05-05T12:44:22Z</time>
      </trkpt>
      <trkpt lat="53.675198033452034" lon="9.472660012543201">
        <ele>-4.19</ele>
        <time>2019-05-05T12:44:23Z</time>
      </trkpt>
      <trkpt lat="53.676326991990209" lon="9.472483992576599">
        <ele>-7.07</ele>
        <time>2019-05-05T12:44:30Z</time>
      </trkpt>
      <trkpt lat="53.677650997415185" lon="9.47224996984005">
        <ele>-5.63</ele>
        <time>2019-05-05T12:44:42Z</time>
      </trkpt>
      <trkpt lat="53.67903501726687" lon="9.472022987902165">
        <ele>-5.63</ele>
        <time>2019-05-05T12:44:56Z</time>
      </trkpt>
      <trkpt lat="53.680319963023067" lon="9.471778990700841">
        <ele>-4.67</ele>
        <time>2019-05-05T12:45:09Z</time>
      </trkpt>
      <trkpt lat="53.680836036801338" lon="9.471584027633071">
        <ele>-5.63</ele>
        <time>2019-05-05T12:45:14Z</time>
      </trkpt>
      <trkpt lat="53.680938966572285" lon="9.471523007377982">
        <ele>-6.11</ele>
        <time>2019-05-05T12:45:15Z</time>
      </trkpt>
      <trkpt lat="53.681044997647405" lon="9.471438014879823">
        <ele>-6.59</ele>
        <time>2019-05-05T12:45:16Z</time>
      </trkpt>
      <trkpt lat="53.681132001802325" lon="9.471298959106207">
        <ele>-7.07</ele>
        <time>2019-05-05T12:45:17Z</time>
      </trkpt>
      <trkpt lat="53.681225962936878" lon="9.471149006858468">
        <ele>-7.55</ele>
        <time>2019-05-05T12:45:18Z</time>
      </trkpt>
      <trkpt lat="53.681309027597308" lon="9.470979021862149">
        <ele>-7.55</ele>
        <time>2019-05-05T12:45:19Z</time>
      </trkpt>
      <trkpt lat="53.681387985125184" lon="9.470795039087534">
        <ele>-7.55</ele>
        <time>2019-05-05T12:45:20Z</time>
      </trkpt>
      <trkpt lat="53.681463003158569" lon="9.470600998029113">
        <ele>-7.55</ele>
        <time>2019-05-05T12:45:21Z</time>
      </trkpt>
      <trkpt lat="53.681996008381248" lon="9.468367975205183">
        <ele>-7.07</ele>
        <time>2019-05-05T12:45:32Z</time>
      </trkpt>
      <trkpt lat="53.682853979989886" lon="9.464784041047096">
        <ele>-6.59</ele>
        <time>2019-05-05T12:45:50Z</time>
      </trkpt>
      <trkpt lat="53.683449011296034" lon="9.462300986051559">
        <ele>-6.59</ele>
        <time>2019-05-05T12:46:02Z</time>
      </trkpt>
      <trkpt lat="53.68417396210134" lon="9.459243016317487">
        <ele>-6.59</ele>
        <time>2019-05-05T12:46:13Z</time>
      </trkpt>
      <trkpt lat="53.685023970901966" lon="9.456202983856201">
        <ele>-6.11</ele>
        <time>2019-05-05T12:46:25Z</time>
      </trkpt>
      <trkpt lat="53.686046982184052" lon="9.453453971073031">
        <ele>-5.63</ele>
        <time>2019-05-05T12:46:39Z</time>
      </trkpt>
      <trkpt lat="53.686847034841776" lon="9.450894976034761">
        <ele>-5.15</ele>
        <time>2019-05-05T12:46:52Z</time>
      </trkpt>
      <trkpt lat="53.687217012047768" lon="9.448924977332354">
        <ele>-4.67</ele>
        <time>2019-05-05T12:47:03Z</time>
      </trkpt>
      <trkpt lat="53.687815982848406" lon="9.44582300260663">
        <ele>-4.19</ele>
        <time>2019-05-05T12:47:20Z</time>
      </trkpt>
      <trkpt lat="53.688492989167571" lon="9.443707996979356">
        <ele>-4.67</ele>
        <time>2019-05-05T12:47:32Z</time>
      </trkpt>
      <trkpt lat="53.689171001315117" lon="9.441587962210178">
        <ele>-4.67</ele>
        <time>2019-05-05T12:47:45Z</time>
      </trkpt>
      <trkpt lat="53.689771983772516" lon="9.439607989042997">
        <ele>-5.15</ele>
        <time>2019-05-05T12:47:56Z</time>
      </trkpt>
      <trkpt lat="53.690461982041597" lon="9.437581999227405">
        <ele>-5.15</ele>
        <time>2019-05-05T12:48:07Z</time>
      </trkpt>
      <trkpt lat="53.690555021166801" lon="9.437458030879498">
        <ele>-5.15</ele>
        <time>2019-05-05T12:48:08Z</time>
      </trkpt>
      <trkpt lat="53.690640013664961" lon="9.437344959005714">
        <ele>-5.63</ele>
        <time>2019-05-05T12:48:09Z</time>
      </trkpt>
      <trkpt lat="53.69072400033474" lon="9.437232976779342">
        <ele>-7.07</ele>
        <time>2019-05-05T12:48:10Z</time>
      </trkpt>
      <trkpt lat="53.690817961469293" lon="9.437108002603054">
        <ele>-8.51</ele>
        <time>2019-05-05T12:48:11Z</time>
      </trkpt>
      <trkpt lat="53.690979983657598" lon="9.436890995129943">
        <ele>-9.48</ele>
        <time>2019-05-05T12:48:12Z</time>
      </trkpt>
      <trkpt lat="53.69100202806294" lon="9.436817988753319">
        <ele>-9.960000000000001</ele>
        <time>2019-05-05T12:48:13Z</time>
      </trkpt>
      <trkpt lat="53.691055001690984" lon="9.436620008200407">
        <ele>-10.92</ele>
        <time>2019-05-05T12:48:14Z</time>
      </trkpt>
      <trkpt lat="53.691093977540731" lon="9.436411969363689">
        <ele>-11.4</ele>
        <time>2019-05-05T12:48:15Z</time>
      </trkpt>
      <trkpt lat="53.691133037209511" lon="9.436203008517623">
        <ele>-11.4</ele>
        <time>2019-05-05T12:48:16Z</time>
      </trkpt>
      <trkpt lat="53.691172013059258" lon="9.435993041843176">
        <ele>-11.880000000000001</ele>
        <time>2019-05-05T12:48:17Z</time>
      </trkpt>
      <trkpt lat="53.691264968365431" lon="9.435601020231843">
        <ele>-12.359999999999999</ele>
        <time>2019-05-05T12:48:19Z</time>
      </trkpt>
      <trkpt lat="53.691439982503653" lon="9.435047982260585">
        <ele>-12.84</ele>
        <time>2019-05-05T12:48:22Z</time>
      </trkpt>
      <trkpt lat="53.691499996930361" lon="9.434860982000828">
        <ele>-12.84</ele>
        <time>2019-05-05T12:48:23Z</time>
      </trkpt>
      <trkpt lat="53.692300971597433" lon="9.432427966967225">
        <ele>-12.359999999999999</ele>
        <time>2019-05-05T12:48:36Z</time>
      </trkpt>
      <trkpt lat="53.69235897436738" lon="9.432239960879087">
        <ele>-11.880000000000001</ele>
        <time>2019-05-05T12:48:37Z</time>
      </trkpt>
      <trkpt lat="53.693012008443475" lon="9.43015999160707">
        <ele>-12.359999999999999</ele>
        <time>2019-05-05T12:48:48Z</time>
      </trkpt>
      <trkpt lat="53.693950027227402" lon="9.426645040512085">
        <ele>-11.880000000000001</ele>
        <time>2019-05-05T12:49:06Z</time>
      </trkpt>
      <trkpt lat="53.694546986371279" lon="9.424189981073141">
        <ele>-9.960000000000001</ele>
        <time>2019-05-05T12:49:18Z</time>
      </trkpt>
      <trkpt lat="53.69523799046874" lon="9.421453038230538">
        <ele>-9.48</ele>
        <time>2019-05-05T12:49:30Z</time>
      </trkpt>
      <trkpt lat="53.696091016754508" lon="9.418797986581922">
        <ele>-10.44</ele>
        <time>2019-05-05T12:49:39Z</time>
      </trkpt>
      <trkpt lat="53.696757964789867" lon="9.417136022821069">
        <ele>-10.92</ele>
        <time>2019-05-05T12:49:46Z</time>
      </trkpt>
      <trkpt lat="53.697448968887329" lon="9.415632979944348">
        <ele>-10.92</ele>
        <time>2019-05-05T12:49:55Z</time>
      </trkpt>
      <trkpt lat="53.698402997106314" lon="9.413628028705716">
        <ele>-10.92</ele>
        <time>2019-05-05T12:50:07Z</time>
      </trkpt>
      <trkpt lat="53.699268009513617" lon="9.411808988079429">
        <ele>-10.92</ele>
        <time>2019-05-05T12:50:18Z</time>
      </trkpt>
      <trkpt lat="53.700339971110225" lon="9.409621981903911">
        <ele>-11.4</ele>
        <time>2019-05-05T12:50:31Z</time>
      </trkpt>
      <trkpt lat="53.701287964358926" lon="9.407638991251588">
        <ele>-10.44</ele>
        <time>2019-05-05T12:50:39Z</time>
      </trkpt>
      <trkpt lat="53.702394040301442" lon="9.405333967879415">
        <ele>-9.48</ele>
        <time>2019-05-05T12:50:46Z</time>
      </trkpt>
      <trkpt lat="53.703661970794201" lon="9.402709007263184">
        <ele>-9.960000000000001</ele>
        <time>2019-05-05T12:50:54Z</time>
      </trkpt>
      <trkpt lat="53.704793024808168" lon="9.400369031354785">
        <ele>-11.880000000000001</ele>
        <time>2019-05-05T12:51:04Z</time>
      </trkpt>
      <trkpt lat="53.70591402053833" lon="9.397978009656072">
        <ele>-10.44</ele>
        <time>2019-05-05T12:51:15Z</time>
      </trkpt>
      <trkpt lat="53.707014983519912" lon="9.395640967413783">
        <ele>-9</ele>
        <time>2019-05-05T12:51:27Z</time>
      </trkpt>
      <trkpt lat="53.707557963207364" lon="9.393845982849598">
        <ele>-8.029999999999999</ele>
        <time>2019-05-05T12:51:36Z</time>
      </trkpt>
      <trkpt lat="53.707575984299183" lon="9.393628975376487">
        <ele>-7.55</ele>
        <time>2019-05-05T12:51:37Z</time>
      </trkpt>
      <trkpt lat="53.707612026482821" lon="9.393202001228929">
        <ele>-7.55</ele>
        <time>2019-05-05T12:51:39Z</time>
      </trkpt>
      <trkpt lat="53.707615965977311" lon="9.391925018280745">
        <ele>-7.07</ele>
        <time>2019-05-05T12:51:45Z</time>
      </trkpt>
      <trkpt lat="53.707668017596006" lon="9.389916965737939">
        <ele>-8.029999999999999</ele>
        <time>2019-05-05T12:51:55Z</time>
      </trkpt>
      <trkpt lat="53.70810798369348" lon="9.388317028060556">
        <ele>-8.51</ele>
        <time>2019-05-05T12:52:04Z</time>
      </trkpt>
      <trkpt lat="53.708529006689787" lon="9.387055970728397">
        <ele>-7.55</ele>
        <time>2019-05-05T12:52:13Z</time>
      </trkpt>
      <trkpt lat="53.708667978644371" lon="9.386638971045613">
        <ele>-7.55</ele>
        <time>2019-05-05T12:52:17Z</time>
      </trkpt>
      <trkpt lat="53.708910970017314" lon="9.385908991098404">
        <ele>-8.029999999999999</ele>
        <time>2019-05-05T12:52:26Z</time>
      </trkpt>
      <trkpt lat="53.709157984703779" lon="9.385291999205947">
        <ele>-7.55</ele>
        <time>2019-05-05T12:52:33Z</time>
      </trkpt>
      <trkpt lat="53.70920299552381" lon="9.385224021971226">
        <ele>-7.55</ele>
        <time>2019-05-05T12:52:34Z</time>
      </trkpt>
      <trkpt lat="53.709262004122138" lon="9.385135006159544">
        <ele>-7.55</ele>
        <time>2019-05-05T12:52:35Z</time>
      </trkpt>
      <trkpt lat="53.709323024377227" lon="9.385111033916473">
        <ele>-7.55</ele>
        <time>2019-05-05T12:52:36Z</time>
      </trkpt>
      <trkpt lat="53.709383960813284" lon="9.385086977854371">
        <ele>-7.07</ele>
        <time>2019-05-05T12:52:37Z</time>
      </trkpt>
      <trkpt lat="53.709476999938488" lon="9.385049007833004">
        <ele>-7.07</ele>
        <time>2019-05-05T12:52:38Z</time>
      </trkpt>
      <trkpt lat="53.709508012980223" lon="9.385053031146526">
        <ele>-6.59</ele>
        <time>2019-05-05T12:52:39Z</time>
      </trkpt>
      <trkpt lat="53.709645979106426" lon="9.385066023096442">
        <ele>-5.63</ele>
        <time>2019-05-05T12:52:42Z</time>
      </trkpt>
      <trkpt lat="53.709733989089727" lon="9.385221004486084">
        <ele>-5.63</ele>
        <time>2019-05-05T12:52:43Z</time>
      </trkpt>
      <trkpt lat="53.709741029888391" lon="9.385222010314465">
        <ele>-5.15</ele>
        <time>2019-05-05T12:52:44Z</time>
      </trkpt>
      <trkpt lat="53.709792997688055" lon="9.385232990607619">
        <ele>-5.15</ele>
        <time>2019-05-05T12:52:45Z</time>
      </trkpt>
      <trkpt lat="53.709858963266015" lon="9.385216981172562">
        <ele>-4.67</ele>
        <time>2019-05-05T12:52:46Z</time>
      </trkpt>
      <trkpt lat="53.709884025156498" lon="9.385178005322814">
        <ele>-4.67</ele>
        <time>2019-05-05T12:52:47Z</time>
      </trkpt>
      <trkpt lat="53.70989098213613" lon="9.384956974536181">
        <ele>-4.67</ele>
        <time>2019-05-05T12:52:48Z</time>
      </trkpt>
      <trkpt lat="53.709991984069347" lon="9.384855972602963">
        <ele>-4.67</ele>
        <time>2019-05-05T12:52:49Z</time>
      </trkpt>
      <trkpt lat="53.710561031475663" lon="9.383645039051771">
        <ele>-5.15</ele>
        <time>2019-05-05T12:52:59Z</time>
      </trkpt>
      <trkpt lat="53.711077021434903" lon="9.382596965879202">
        <ele>-4.67</ele>
        <time>2019-05-05T12:53:07Z</time>
      </trkpt>
      <trkpt lat="53.711138963699341" lon="9.382454976439476">
        <ele>-5.15</ele>
        <time>2019-05-05T12:53:08Z</time>
      </trkpt>
      <trkpt lat="53.712027026340365" lon="9.380536023527384">
        <ele>-7.55</ele>
        <time>2019-05-05T12:53:21Z</time>
      </trkpt>
      <trkpt lat="53.712590038776398" lon="9.378673983737826">
        <ele>-6.59</ele>
        <time>2019-05-05T12:53:31Z</time>
      </trkpt>
      <trkpt lat="53.713179035112262" lon="9.376542968675494">
        <ele>-6.59</ele>
        <time>2019-05-05T12:53:42Z</time>
      </trkpt>
      <trkpt lat="53.713333010673523" lon="9.37621096149087">
        <ele>-7.07</ele>
        <time>2019-05-05T12:53:44Z</time>
      </trkpt>
      <trkpt lat="53.714288966730237" lon="9.374753013253212">
        <ele>-8.029999999999999</ele>
        <time>2019-05-05T12:53:54Z</time>
      </trkpt>
      <trkpt lat="53.71584003791213" lon="9.372583022341132">
        <ele>-6.11</ele>
        <time>2019-05-05T12:54:10Z</time>
      </trkpt>
      <trkpt lat="53.716702032834291" lon="9.370897002518177">
        <ele>-4.19</ele>
        <time>2019-05-05T12:54:20Z</time>
      </trkpt>
      <trkpt lat="53.7174959667027" lon="9.36881996691227">
        <ele>-1.79</ele>
        <time>2019-05-05T12:54:29Z</time>
      </trkpt>
      <trkpt lat="53.718400038778782" lon="9.366447972133756">
        <ele>-2.27</ele>
        <time>2019-05-05T12:54:39Z</time>
      </trkpt>
      <trkpt lat="53.719220962375402" lon="9.364873012527823">
        <ele>-3.23</ele>
        <time>2019-05-05T12:54:48Z</time>
      </trkpt>
      <trkpt lat="53.720346987247467" lon="9.363536015152931">
        <ele>-5.15</ele>
        <time>2019-05-05T12:54:59Z</time>
      </trkpt>
      <trkpt lat="53.721793033182621" lon="9.361811019480228">
        <ele>-6.11</ele>
        <time>2019-05-05T12:55:13Z</time>
      </trkpt>
      <trkpt lat="53.722933977842331" lon="9.360469998791814">
        <ele>-8.029999999999999</ele>
        <time>2019-05-05T12:55:24Z</time>
      </trkpt>
      <trkpt lat="53.72396101243794" lon="9.359267028048635">
        <ele>-7.07</ele>
        <time>2019-05-05T12:55:31Z</time>
      </trkpt>
      <trkpt lat="53.726125974208117" lon="9.356699986383319">
        <ele>-7.55</ele>
        <time>2019-05-05T12:55:45Z</time>
      </trkpt>
      <trkpt lat="53.727576965466142" lon="9.355000974610448">
        <ele>-10.92</ele>
        <time>2019-05-05T12:55:55Z</time>
      </trkpt>
      <trkpt lat="53.729867991060019" lon="9.352280041202903">
        <ele>-10.92</ele>
        <time>2019-05-05T12:56:10Z</time>
      </trkpt>
      <trkpt lat="53.731270032003522" lon="9.350630985572934">
        <ele>-9.48</ele>
        <time>2019-05-05T12:56:20Z</time>
      </trkpt>
      <trkpt lat="53.732158010825515" lon="9.349452992901206">
        <ele>-8.51</ele>
        <time>2019-05-05T12:56:29Z</time>
      </trkpt>
      <trkpt lat="53.733230978250504" lon="9.347965959459543">
        <ele>-9.960000000000001</ele>
        <time>2019-05-05T12:56:40Z</time>
      </trkpt>
      <trkpt lat="53.734504021704197" lon="9.34619503095746">
        <ele>-9.48</ele>
        <time>2019-05-05T12:56:53Z</time>
      </trkpt>
      <trkpt lat="53.735766001045704" lon="9.34441396035254">
        <ele>-6.59</ele>
        <time>2019-05-05T12:57:06Z</time>
      </trkpt>
      <trkpt lat="53.736955979838967" lon="9.34280295856297">
        <ele>-8.029999999999999</ele>
        <time>2019-05-05T12:57:18Z</time>
      </trkpt>
      <trkpt lat="53.738327007740736" lon="9.34093102812767">
        <ele>-7.55</ele>
        <time>2019-05-05T12:57:32Z</time>
      </trkpt>
      <trkpt lat="53.739310037344694" lon="9.339591013267636">
        <ele>-7.55</ele>
        <time>2019-05-05T12:57:42Z</time>
      </trkpt>
      <trkpt lat="53.740114029496908" lon="9.338480997830629">
        <ele>-6.59</ele>
        <time>2019-05-05T12:57:50Z</time>
      </trkpt>
      <trkpt lat="53.740230035036802" lon="9.338322998955846">
        <ele>-6.59</ele>
        <time>2019-05-05T12:57:51Z</time>
      </trkpt>
      <trkpt lat="53.741378020495176" lon="9.33689002878964">
        <ele>-5.63</ele>
        <time>2019-05-05T12:57:59Z</time>
      </trkpt>
      <trkpt lat="53.742759022861719" lon="9.335569962859154">
        <ele>-4.67</ele>
        <time>2019-05-05T12:58:06Z</time>
      </trkpt>
      <trkpt lat="53.745908020064235" lon="9.332491038367152">
        <ele>-6.11</ele>
        <time>2019-05-05T12:58:20Z</time>
      </trkpt>
      <trkpt lat="53.748252019286156" lon="9.33019096031785">
        <ele>-6.59</ele>
        <time>2019-05-05T12:58:31Z</time>
      </trkpt>
      <trkpt lat="53.749871989712119" lon="9.328563027083874">
        <ele>-4.67</ele>
        <time>2019-05-05T12:58:40Z</time>
      </trkpt>
      <trkpt lat="53.750854013487697" lon="9.327578991651535">
        <ele>-4.19</ele>
        <time>2019-05-05T12:58:49Z</time>
      </trkpt>
      <trkpt lat="53.75206695869565" lon="9.3264099676162">
        <ele>-4.67</ele>
        <time>2019-05-05T12:59:00Z</time>
      </trkpt>
      <trkpt lat="53.753278981894255" lon="9.325230969116092">
        <ele>-4.67</ele>
        <time>2019-05-05T12:59:11Z</time>
      </trkpt>
      <trkpt lat="53.754912028089166" lon="9.323626002296805">
        <ele>-5.63</ele>
        <time>2019-05-05T12:59:26Z</time>
      </trkpt>
      <trkpt lat="53.755839988589287" lon="9.322738023474813">
        <ele>-7.07</ele>
        <time>2019-05-05T12:59:33Z</time>
      </trkpt>
      <trkpt lat="53.757551992312074" lon="9.32116599753499">
        <ele>-7.55</ele>
        <time>2019-05-05T12:59:43Z</time>
      </trkpt>
      <trkpt lat="53.758321031928062" lon="9.320681020617485">
        <ele>-7.55</ele>
        <time>2019-05-05T12:59:48Z</time>
      </trkpt>
      <trkpt lat="53.759607989341021" lon="9.320135023444891">
        <ele>-6.59</ele>
        <time>2019-05-05T12:59:56Z</time>
      </trkpt>
      <trkpt lat="53.761920975521207" lon="9.319787006825209">
        <ele>-5.63</ele>
        <time>2019-05-05T13:00:07Z</time>
      </trkpt>
      <trkpt lat="53.763854010030627" lon="9.319599000737071">
        <ele>-5.15</ele>
        <time>2019-05-05T13:00:16Z</time>
      </trkpt>
      <trkpt lat="53.765500970184803" lon="9.319418035447598">
        <ele>-4.67</ele>
        <time>2019-05-05T13:00:24Z</time>
      </trkpt>
      <trkpt lat="53.766385009512305" lon="9.319309992715716">
        <ele>-4.67</ele>
        <time>2019-05-05T13:00:30Z</time>
      </trkpt>
      <trkpt lat="53.767366027459502" lon="9.319186024367809">
        <ele>-1.3</ele>
        <time>2019-05-05T13:00:39Z</time>
      </trkpt>
      <trkpt lat="53.768107993528247" lon="9.319108994677663">
        <ele>-1.3</ele>
        <time>2019-05-05T13:00:46Z</time>
      </trkpt>
      <trkpt lat="53.769428981468081" lon="9.318964993581176">
        <ele>-2.27</ele>
        <time>2019-05-05T13:00:58Z</time>
      </trkpt>
      <trkpt lat="53.770845020189881" lon="9.31880297139287">
        <ele>1.58</ele>
        <time>2019-05-05T13:01:11Z</time>
      </trkpt>
      <trkpt lat="53.772147987037897" lon="9.318679003044963">
        <ele>1.1</ele>
        <time>2019-05-05T13:01:23Z</time>
      </trkpt>
      <trkpt lat="53.772993972525001" lon="9.318607002496719">
        <ele>-0.34</ele>
        <time>2019-05-05T13:01:33Z</time>
      </trkpt>
      <trkpt lat="53.773084999993443" lon="9.318599961698055">
        <ele>-0.34</ele>
        <time>2019-05-05T13:01:34Z</time>
      </trkpt>
      <trkpt lat="53.773281974717975" lon="9.318642038851976">
        <ele>-0.34</ele>
        <time>2019-05-05T13:01:36Z</time>
      </trkpt>
      <trkpt lat="53.773380964994431" lon="9.318682020530105">
        <ele>-0.34</ele>
        <time>2019-05-05T13:01:37Z</time>
      </trkpt>
      <trkpt lat="53.773471992462873" lon="9.318728037178516">
        <ele>-0.82</ele>
        <time>2019-05-05T13:01:38Z</time>
      </trkpt>
      <trkpt lat="53.773752031847835" lon="9.318868014961481">
        <ele>-2.27</ele>
        <time>2019-05-05T13:01:41Z</time>
      </trkpt>
      <trkpt lat="53.774456027895212" lon="9.319352991878986">
        <ele>-5.63</ele>
        <time>2019-05-05T13:01:49Z</time>
      </trkpt>
      <trkpt lat="53.774549989029765" lon="9.319419963285327">
        <ele>-6.11</ele>
        <time>2019-05-05T13:01:50Z</time>
      </trkpt>
      <trkpt lat="53.775691017508507" lon="9.320237031206489">
        <ele>-10.92</ele>
        <time>2019-05-05T13:02:02Z</time>
      </trkpt>
      <trkpt lat="53.776683015748858" lon="9.32092996314168">
        <ele>-10.44</ele>
        <time>2019-05-05T13:02:12Z</time>
      </trkpt>
      <trkpt lat="53.77752598375082" lon="9.321559024974704">
        <ele>-8.029999999999999</ele>
        <time>2019-05-05T13:02:21Z</time>
      </trkpt>
      <trkpt lat="53.778195027261972" lon="9.322060011327267">
        <ele>-6.59</ele>
        <time>2019-05-05T13:02:27Z</time>
      </trkpt>
      <trkpt lat="53.779336977750063" lon="9.323431961238384">
        <ele>-4.67</ele>
        <time>2019-05-05T13:02:38Z</time>
      </trkpt>
      <trkpt lat="53.780637010931969" lon="9.325104989111424">
        <ele>-3.23</ele>
        <time>2019-05-05T13:02:50Z</time>
      </trkpt>
      <trkpt lat="53.781688017770648" lon="9.325643023476005">
        <ele>-2.27</ele>
        <time>2019-05-05T13:02:58Z</time>
      </trkpt>
      <trkpt lat="53.782786969095469" lon="9.325674958527088">
        <ele>-3.23</ele>
        <time>2019-05-05T13:03:07Z</time>
      </trkpt>
      <trkpt lat="53.782996013760567" lon="9.325809990987182">
        <ele>-3.23</ele>
        <time>2019-05-05T13:03:09Z</time>
      </trkpt>
      <trkpt lat="53.783087963238358" lon="9.325866987928748">
        <ele>-3.23</ele>
        <time>2019-05-05T13:03:10Z</time>
      </trkpt>
      <trkpt lat="53.783161975443363" lon="9.325911998748779">
        <ele>-3.71</ele>
        <time>2019-05-05T13:03:11Z</time>
      </trkpt>
      <trkpt lat="53.78321997821331" lon="9.32602004148066">
        <ele>-3.71</ele>
        <time>2019-05-05T13:03:12Z</time>
      </trkpt>
      <trkpt lat="53.783278986811638" lon="9.326130012050271">
        <ele>-3.71</ele>
        <time>2019-05-05T13:03:13Z</time>
      </trkpt>
      <trkpt lat="53.783337995409966" lon="9.326262027025223">
        <ele>-3.71</ele>
        <time>2019-05-05T13:03:14Z</time>
      </trkpt>
      <trkpt lat="53.783359033986926" lon="9.3264289945364">
        <ele>-3.71</ele>
        <time>2019-05-05T13:03:15Z</time>
      </trkpt>
      <trkpt lat="53.783382000401616" lon="9.326610965654254">
        <ele>-3.71</ele>
        <time>2019-05-05T13:03:16Z</time>
      </trkpt>
      <trkpt lat="53.783408990129828" lon="9.326823027804494">
        <ele>-3.23</ele>
        <time>2019-05-05T13:03:17Z</time>
      </trkpt>
      <trkpt lat="53.783441008999944" lon="9.327070964500308">
        <ele>-3.23</ele>
        <time>2019-05-05T13:03:18Z</time>
      </trkpt>
      <trkpt lat="53.783509992063046" lon="9.327337006106973">
        <ele>-3.23</ele>
        <time>2019-05-05T13:03:19Z</time>
      </trkpt>
      <trkpt lat="53.784041991457343" lon="9.329386968165636">
        <ele>-4.67</ele>
        <time>2019-05-05T13:03:25Z</time>
      </trkpt>
      <trkpt lat="53.785105990245938" lon="9.33349602855742">
        <ele>-5.15</ele>
        <time>2019-05-05T13:03:35Z</time>
      </trkpt>
      <trkpt lat="53.785830019041896" lon="9.336256021633744">
        <ele>-1.79</ele>
        <time>2019-05-05T13:03:43Z</time>
      </trkpt>
      <trkpt lat="53.786188010126352" lon="9.337627971544862">
        <ele>-2.27</ele>
        <time>2019-05-05T13:03:49Z</time>
      </trkpt>
      <trkpt lat="53.786711040884256" lon="9.339581960812211">
        <ele>-2.75</ele>
        <time>2019-05-05T13:04:01Z</time>
      </trkpt>
      <trkpt lat="53.787399027496576" lon="9.342132993042469">
        <ele>-2.75</ele>
        <time>2019-05-05T13:04:16Z</time>
      </trkpt>
      <trkpt lat="53.787707984447479" lon="9.343417016789317">
        <ele>-3.71</ele>
        <time>2019-05-05T13:04:25Z</time>
      </trkpt>
    </trkseg>
  </trk>

  <trk>
    <name>Track vom: 2019-05-05 15:36</name>
    <extensions>
      <gpxx:TrackExtension>
        <gpxx:DisplayColor>DarkGray</gpxx:DisplayColor>
      </gpxx:TrackExtension>
    </extensions>
    <trkseg>
      <trkpt lat="53.794446028769016" lon="9.402967002242804">
        <ele>3.02</ele>
        <time>2019-05-05T13:36:12Z</time>
      </trkpt>
      <trkpt lat="53.794420966878533" lon="9.402949986979365">
        <ele>-3.71</ele>
        <time>2019-05-05T13:36:55Z</time>
      </trkpt>
      <trkpt lat="53.794431025162339" lon="9.402963984757662">
        <ele>-0.82</ele>
        <time>2019-05-05T13:37:20Z</time>
      </trkpt>
      <trkpt lat="53.794459020718932" lon="9.40300296060741">
        <ele>-0.82</ele>
        <time>2019-05-05T13:37:22Z</time>
      </trkpt>
      <trkpt lat="53.794488022103906" lon="9.403011007234454">
        <ele>-1.3</ele>
        <time>2019-05-05T13:37:23Z</time>
      </trkpt>
      <trkpt lat="53.794517023488879" lon="9.403017964214087">
        <ele>-0.82</ele>
        <time>2019-05-05T13:37:24Z</time>
      </trkpt>
      <trkpt lat="53.794544013217092" lon="9.403026010841131">
        <ele>-0.82</ele>
        <time>2019-05-05T13:37:25Z</time>
      </trkpt>
      <trkpt lat="53.794573014602065" lon="9.403033973649144">
        <ele>-0.82</ele>
        <time>2019-05-05T13:37:26Z</time>
      </trkpt>
      <trkpt lat="53.794606039300561" lon="9.403043026104569">
        <ele>-0.82</ele>
        <time>2019-05-05T13:37:27Z</time>
      </trkpt>
      <trkpt lat="53.794640991836786" lon="9.403053000569344">
        <ele>-0.34</ele>
        <time>2019-05-05T13:37:28Z</time>
      </trkpt>
      <trkpt lat="53.794976016506553" lon="9.403145033866167">
        <ele>0.14</ele>
        <time>2019-05-05T13:37:36Z</time>
      </trkpt>
      <trkpt lat="53.795307017862797" lon="9.403177974745631">
        <ele>1.1</ele>
        <time>2019-05-05T13:37:42Z</time>
      </trkpt>
      <trkpt lat="53.796104975044727" lon="9.403349971398711">
        <ele>1.58</ele>
        <time>2019-05-05T13:37:52Z</time>
      </trkpt>
      <trkpt lat="53.796870997175574" lon="9.403971992433071">
        <ele>1.1</ele>
        <time>2019-05-05T13:38:00Z</time>
      </trkpt>
      <trkpt lat="53.797908006235957" lon="9.405570002272725">
        <ele>0.14</ele>
        <time>2019-05-05T13:38:12Z</time>
      </trkpt>
      <trkpt lat="53.798474036157131" lon="9.40736398100853">
        <ele>-0.34</ele>
        <time>2019-05-05T13:38:23Z</time>
      </trkpt>
      <trkpt lat="53.798674028366804" lon="9.408252965658903">
        <ele>0.62</ele>
        <time>2019-05-05T13:38:31Z</time>
      </trkpt>
      <trkpt lat="53.798734964802861" lon="9.408580027520657">
        <ele>1.1</ele>
        <time>2019-05-05T13:38:37Z</time>
      </trkpt>
      <trkpt lat="53.798805037513375" lon="9.408955033868551">
        <ele>1.1</ele>
        <time>2019-05-05T13:38:45Z</time>
      </trkpt>
      <trkpt lat="53.798805037513375" lon="9.408955033868551">
        <ele>1.1</ele>
        <time>2019-05-05T13:38:58Z</time>
      </trkpt>
    </trkseg>
  </trk>

  <trk>
    <name>Track vom: 2019-05-05 15:39</name>
    <extensions>
      <gpxx:TrackExtension>
        <gpxx:DisplayColor>DarkGray</gpxx:DisplayColor>
      </gpxx:TrackExtension>
    </extensions>
    <trkseg>
      <trkpt lat="53.798805037513375" lon="9.408955033868551">
        <ele>1.1</ele>
        <time>2019-05-05T13:39:19Z</time>
      </trkpt>
      <trkpt lat="53.798846025019884" lon="9.409098029136658">
        <ele>0.14</ele>
        <time>2019-05-05T13:39:28Z</time>
      </trkpt>
      <trkpt lat="53.798876032233238" lon="9.409202970564365">
        <ele>0.14</ele>
        <time>2019-05-05T13:39:29Z</time>
      </trkpt>
      <trkpt lat="53.799252966418862" lon="9.410246014595032">
        <ele>-0.34</ele>
        <time>2019-05-05T13:39:36Z</time>
      </trkpt>
      <trkpt lat="53.800075985491276" lon="9.411253016442061">
        <ele>-1.79</ele>
        <time>2019-05-05T13:39:43Z</time>
      </trkpt>
      <trkpt lat="53.801539968699217" lon="9.412397984415293">
        <ele>-3.71</ele>
        <time>2019-05-05T13:39:53Z</time>
      </trkpt>
      <trkpt lat="53.802180010825396" lon="9.413320999592543">
        <ele>-4.67</ele>
        <time>2019-05-05T13:40:00Z</time>
      </trkpt>
      <trkpt lat="53.80225301720202" lon="9.413457037881017">
        <ele>-4.67</ele>
        <time>2019-05-05T13:40:01Z</time>
      </trkpt>
      <trkpt lat="53.803096991032362" lon="9.415143979713321">
        <ele>-5.63</ele>
        <time>2019-05-05T13:40:11Z</time>
      </trkpt>
      <trkpt lat="53.8035439979285" lon="9.415730964392424">
        <ele>-5.63</ele>
        <time>2019-05-05T13:40:15Z</time>
      </trkpt>
      <trkpt lat="53.803658997640014" lon="9.415859961882234">
        <ele>-5.63</ele>
        <time>2019-05-05T13:40:16Z</time>
      </trkpt>
      <trkpt lat="53.803915986791253" lon="9.416019972413778">
        <ele>-5.15</ele>
        <time>2019-05-05T13:40:18Z</time>
      </trkpt>
      <trkpt lat="53.804049007594585" lon="9.416081998497248">
        <ele>-4.67</ele>
        <time>2019-05-05T13:40:19Z</time>
      </trkpt>
      <trkpt lat="53.805272011086345" lon="9.416476031765342">
        <ele>-4.19</ele>
        <time>2019-05-05T13:40:28Z</time>
      </trkpt>
      <trkpt lat="53.806212041527033" lon="9.417591998353601">
        <ele>-3.23</ele>
        <time>2019-05-05T13:40:36Z</time>
      </trkpt>
      <trkpt lat="53.80730596370995" lon="9.419469041749835">
        <ele>-3.23</ele>
        <time>2019-05-05T13:40:47Z</time>
      </trkpt>
      <trkpt lat="53.808801965788007" lon="9.421966010704637">
        <ele>-3.23</ele>
        <time>2019-05-05T13:41:00Z</time>
      </trkpt>
      <trkpt lat="53.810855029150844" lon="9.425247022882104">
        <ele>-0.82</ele>
        <time>2019-05-05T13:41:18Z</time>
      </trkpt>
      <trkpt lat="53.811798999086022" lon="9.426489975303412">
        <ele>-3.23</ele>
        <time>2019-05-05T13:41:28Z</time>
      </trkpt>
      <trkpt lat="53.812055988237262" lon="9.426774038001895">
        <ele>-3.23</ele>
        <time>2019-05-05T13:41:34Z</time>
      </trkpt>
      <trkpt lat="53.812110973522067" lon="9.42665996029973">
        <ele>-3.23</ele>
        <time>2019-05-05T13:41:35Z</time>
      </trkpt>
      <trkpt lat="53.812141986563802" lon="9.42657396197319">
        <ele>-3.23</ele>
        <time>2019-05-05T13:41:36Z</time>
      </trkpt>
      <trkpt lat="53.81218196824193" lon="9.426448987796903">
        <ele>-3.23</ele>
        <time>2019-05-05T13:41:37Z</time>
      </trkpt>
      <trkpt lat="53.812226979061961" lon="9.426300041377544">
        <ele>-3.23</ele>
        <time>2019-05-05T13:41:38Z</time>
      </trkpt>
      <trkpt lat="53.812485979869962" lon="9.425449026748538">
        <ele>-3.23</ele>
        <time>2019-05-05T13:41:42Z</time>
      </trkpt>
      <trkpt lat="53.812584970146418" lon="9.425204023718834">
        <ele>-3.23</ele>
        <time>2019-05-05T13:41:43Z</time>
      </trkpt>
      <trkpt lat="53.813680987805128" lon="9.423236036673188">
        <ele>-3.71</ele>
        <time>2019-05-05T13:41:51Z</time>
      </trkpt>
      <trkpt lat="53.815009016543627" lon="9.420452993363142">
        <ele>-3.23</ele>
        <time>2019-05-05T13:42:01Z</time>
      </trkpt>
      <trkpt lat="53.816322041675448" lon="9.417731976136565">
        <ele>-3.71</ele>
        <time>2019-05-05T13:42:11Z</time>
      </trkpt>
      <trkpt lat="53.818292040377855" lon="9.414554983377457">
        <ele>-4.19</ele>
        <time>2019-05-05T13:42:24Z</time>
      </trkpt>
      <trkpt lat="53.820134969428182" lon="9.412119034677744">
        <ele>-4.19</ele>
        <time>2019-05-05T13:42:35Z</time>
      </trkpt>
      <trkpt lat="53.820607960224152" lon="9.411442028358579">
        <ele>-3.71</ele>
        <time>2019-05-05T13:42:38Z</time>
      </trkpt>
      <trkpt lat="53.821381023153663" lon="9.409445961937308">
        <ele>-1.79</ele>
        <time>2019-05-05T13:42:45Z</time>
      </trkpt>
      <trkpt lat="53.822247041389346" lon="9.407016970217228">
        <ele>1.58</ele>
        <time>2019-05-05T13:42:53Z</time>
      </trkpt>
      <trkpt lat="53.823574986308813" lon="9.405033979564905">
        <ele>4.94</ele>
        <time>2019-05-05T13:43:01Z</time>
      </trkpt>
      <trkpt lat="53.825111975893378" lon="9.402924003079534">
        <ele>6.39</ele>
        <time>2019-05-05T13:43:11Z</time>
      </trkpt>
      <trkpt lat="53.826994970440865" lon="9.400314968079329">
        <ele>5.91</ele>
        <time>2019-05-05T13:43:24Z</time>
      </trkpt>
      <trkpt lat="53.82919798605144" lon="9.39735297113657">
        <ele>3.5</ele>
        <time>2019-05-05T13:43:37Z</time>
      </trkpt>
      <trkpt lat="53.831756981089711" lon="9.394376976415515">
        <ele>-0.82</ele>
        <time>2019-05-05T13:43:50Z</time>
      </trkpt>
      <trkpt lat="53.834571037441492" lon="9.391616983339191">
        <ele>-2.75</ele>
        <time>2019-05-05T13:44:03Z</time>
      </trkpt>
      <trkpt lat="53.837664965540171" lon="9.389185979962349">
        <ele>-1.79</ele>
        <time>2019-05-05T13:44:17Z</time>
      </trkpt>
      <trkpt lat="53.83976798504591" lon="9.387259986251593">
        <ele>-2.27</ele>
        <time>2019-05-05T13:44:27Z</time>
      </trkpt>
      <trkpt lat="53.842193959280849" lon="9.384260019287467">
        <ele>-4.67</ele>
        <time>2019-05-05T13:44:39Z</time>
      </trkpt>
      <trkpt lat="53.844202011823654" lon="9.380909018218517">
        <ele>-6.59</ele>
        <time>2019-05-05T13:44:50Z</time>
      </trkpt>
      <trkpt lat="53.845990961417556" lon="9.376953011378646">
        <ele>-6.59</ele>
        <time>2019-05-05T13:45:02Z</time>
      </trkpt>
      <trkpt lat="53.847385039553046" lon="9.372595008462668">
        <ele>-7.07</ele>
        <time>2019-05-05T13:45:14Z</time>
      </trkpt>
      <trkpt lat="53.848219960927963" lon="9.368842011317611">
        <ele>-8.029999999999999</ele>
        <time>2019-05-05T13:45:25Z</time>
      </trkpt>
      <trkpt lat="53.848964022472501" lon="9.364595990628004">
        <ele>-6.11</ele>
        <time>2019-05-05T13:45:37Z</time>
      </trkpt>
      <trkpt lat="53.849684027954936" lon="9.361862987279892">
        <ele>-6.11</ele>
        <time>2019-05-05T13:45:45Z</time>
      </trkpt>
      <trkpt lat="53.850777028128505" lon="9.359038034453988">
        <ele>-6.59</ele>
        <time>2019-05-05T13:45:55Z</time>
      </trkpt>
      <trkpt lat="53.852376965805888" lon="9.355819970369339">
        <ele>-6.59</ele>
        <time>2019-05-05T13:46:07Z</time>
      </trkpt>
      <trkpt lat="53.853353038430214" lon="9.352937014773488">
        <ele>-7.07</ele>
        <time>2019-05-05T13:46:16Z</time>
      </trkpt>
      <trkpt lat="53.854947024956346" lon="9.347859006375074">
        <ele>-7.07</ele>
        <time>2019-05-05T13:46:32Z</time>
      </trkpt>
      <trkpt lat="53.855766020715237" lon="9.345748024061322">
        <ele>-7.55</ele>
        <time>2019-05-05T13:46:39Z</time>
      </trkpt>
      <trkpt lat="53.855928964912891" lon="9.345500003546476">
        <ele>-8.029999999999999</ele>
        <time>2019-05-05T13:46:40Z</time>
      </trkpt>
      <trkpt lat="53.856122000142932" lon="9.345313003286719">
        <ele>-8.029999999999999</ele>
        <time>2019-05-05T13:46:41Z</time>
      </trkpt>
      <trkpt lat="53.856710996478796" lon="9.344689976423979">
        <ele>-8.029999999999999</ele>
        <time>2019-05-05T13:46:44Z</time>
      </trkpt>
      <trkpt lat="53.856879975646734" lon="9.344419995322824">
        <ele>-8.029999999999999</ele>
        <time>2019-05-05T13:46:45Z</time>
      </trkpt>
      <trkpt lat="53.858255026862025" lon="9.341724961996079">
        <ele>-5.63</ele>
        <time>2019-05-05T13:46:54Z</time>
      </trkpt>
      <trkpt lat="53.858895990997553" lon="9.339246014133096">
        <ele>-5.15</ele>
        <time>2019-05-05T13:47:01Z</time>
      </trkpt>
      <trkpt lat="53.859163038432598" lon="9.337628977373242">
        <ele>-5.63</ele>
        <time>2019-05-05T13:47:06Z</time>
      </trkpt>
      <trkpt lat="53.859229004010558" lon="9.33732102625072">
        <ele>-5.63</ele>
        <time>2019-05-05T13:47:07Z</time>
      </trkpt>
      <trkpt lat="53.859312990680337" lon="9.337040986865759">
        <ele>-5.63</ele>
        <time>2019-05-05T13:47:08Z</time>
      </trkpt>
      <trkpt lat="53.860117988660932" lon="9.334697993472219">
        <ele>-8.51</ele>
        <time>2019-05-05T13:47:18Z</time>
      </trkpt>
      <trkpt lat="53.860699022188783" lon="9.332994958385825">
        <ele>-9</ele>
        <time>2019-05-05T13:47:27Z</time>
      </trkpt>
      <trkpt lat="53.860991969704628" lon="9.33220898732543">
        <ele>-8.029999999999999</ele>
        <time>2019-05-05T13:47:33Z</time>
      </trkpt>
      <trkpt lat="53.861032035201788" lon="9.332099016755819">
        <ele>-8.029999999999999</ele>
        <time>2019-05-05T13:47:34Z</time>
      </trkpt>
      <trkpt lat="53.861134964972734" lon="9.332025004550815">
        <ele>-8.029999999999999</ele>
        <time>2019-05-05T13:47:35Z</time>
      </trkpt>
      <trkpt lat="53.861248036846519" lon="9.331983011215925">
        <ele>-8.029999999999999</ele>
        <time>2019-05-05T13:47:37Z</time>
      </trkpt>
      <trkpt lat="53.861310984939337" lon="9.331856025382876">
        <ele>-8.51</ele>
        <time>2019-05-05T13:47:38Z</time>
      </trkpt>
      <trkpt lat="53.861310984939337" lon="9.331787964329124">
        <ele>-8.51</ele>
        <time>2019-05-05T13:47:39Z</time>
      </trkpt>
      <trkpt lat="53.861310984939337" lon="9.331705989316106">
        <ele>-8.51</ele>
        <time>2019-05-05T13:47:40Z</time>
      </trkpt>
      <trkpt lat="53.861225992441177" lon="9.331501973792911">
        <ele>-8.51</ele>
        <time>2019-05-05T13:47:41Z</time>
      </trkpt>
      <trkpt lat="53.861260022968054" lon="9.331384040415287">
        <ele>-8.51</ele>
        <time>2019-05-05T13:47:42Z</time>
      </trkpt>
      <trkpt lat="53.861298998817801" lon="9.331250013783574">
        <ele>-8.51</ele>
        <time>2019-05-05T13:47:43Z</time>
      </trkpt>
      <trkpt lat="53.86133998632431" lon="9.331109030172229">
        <ele>-8.51</ele>
        <time>2019-05-05T13:47:44Z</time>
      </trkpt>
      <trkpt lat="53.861724967136979" lon="9.32965099811554">
        <ele>-9.48</ele>
        <time>2019-05-05T13:47:53Z</time>
      </trkpt>
      <trkpt lat="53.86198396794498" lon="9.327548984438181">
        <ele>-11.4</ele>
        <time>2019-05-05T13:48:03Z</time>
      </trkpt>
      <trkpt lat="53.86215596459806" lon="9.325528023764491">
        <ele>-11.880000000000001</ele>
        <time>2019-05-05T13:48:13Z</time>
      </trkpt>
      <trkpt lat="53.862174991518259" lon="9.324730988591909">
        <ele>-12.359999999999999</ele>
        <time>2019-05-05T13:48:17Z</time>
      </trkpt>
      <trkpt lat="53.862180020660162" lon="9.324533008038998">
        <ele>-11.880000000000001</ele>
        <time>2019-05-05T13:48:18Z</time>
      </trkpt>
      <trkpt lat="53.862281022593379" lon="9.322914965450764">
        <ele>-9.960000000000001</ele>
        <time>2019-05-05T13:48:26Z</time>
      </trkpt>
      <trkpt lat="53.862727023661137" lon="9.321259036660194">
        <ele>-9.48</ele>
        <time>2019-05-05T13:48:35Z</time>
      </trkpt>
      <trkpt lat="53.863578960299492" lon="9.319547032937408">
        <ele>-9.960000000000001</ele>
        <time>2019-05-05T13:48:46Z</time>
      </trkpt>
      <trkpt lat="53.863875009119511" lon="9.319049986079335">
        <ele>-9</ele>
        <time>2019-05-05T13:48:50Z</time>
      </trkpt>
      <trkpt lat="53.863943992182612" lon="9.31897203437984">
        <ele>-8.51</ele>
        <time>2019-05-05T13:48:51Z</time>
      </trkpt>
      <trkpt lat="53.864091010764241" lon="9.318868014961481">
        <ele>-7.07</ele>
        <time>2019-05-05T13:48:53Z</time>
      </trkpt>
      <trkpt lat="53.864637007936835" lon="9.318595016375184">
        <ele>-5.15</ele>
        <time>2019-05-05T13:48:59Z</time>
      </trkpt>
      <trkpt lat="53.864700039848685" lon="9.318531984463334">
        <ele>-5.15</ele>
        <time>2019-05-05T13:49:00Z</time>
      </trkpt>
      <trkpt lat="53.864786960184574" lon="9.318444980308414">
        <ele>-5.15</ele>
        <time>2019-05-05T13:49:01Z</time>
      </trkpt>
      <trkpt lat="53.864867007359862" lon="9.318316988646984">
        <ele>-5.15</ele>
        <time>2019-05-05T13:49:02Z</time>
      </trkpt>
      <trkpt lat="53.864946970716119" lon="9.318188996985555">
        <ele>-5.15</ele>
        <time>2019-05-05T13:49:03Z</time>
      </trkpt>
      <trkpt lat="53.865651972591877" lon="9.316898016259074">
        <ele>-5.63</ele>
        <time>2019-05-05T13:49:13Z</time>
      </trkpt>
      <trkpt lat="53.865954978391528" lon="9.316264009103179">
        <ele>-6.59</ele>
        <time>2019-05-05T13:49:18Z</time>
      </trkpt>
      <trkpt lat="53.86606796644628" lon="9.315825970843434">
        <ele>-7.55</ele>
        <time>2019-05-05T13:49:21Z</time>
      </trkpt>
      <trkpt lat="53.866093028336763" lon="9.31566403247416">
        <ele>-7.55</ele>
        <time>2019-05-05T13:49:22Z</time>
      </trkpt>
      <trkpt lat="53.866195036098361" lon="9.314992977306247">
        <ele>-7.55</ele>
        <time>2019-05-05T13:49:26Z</time>
      </trkpt>
      <trkpt lat="53.866276005282998" lon="9.314454020932317">
        <ele>-8.51</ele>
        <time>2019-05-05T13:49:29Z</time>
      </trkpt>
      <trkpt lat="53.866324033588171" lon="9.314278000965715">
        <ele>-8.51</ele>
        <time>2019-05-05T13:49:30Z</time>
      </trkpt>
      <trkpt lat="53.86638798750937" lon="9.314111033454537">
        <ele>-9</ele>
        <time>2019-05-05T13:49:31Z</time>
      </trkpt>
      <trkpt lat="53.86733396910131" lon="9.311667960137129">
        <ele>-10.92</ele>
        <time>2019-05-05T13:49:45Z</time>
      </trkpt>
      <trkpt lat="53.868305012583733" lon="9.309200998395681">
        <ele>-10.44</ele>
        <time>2019-05-05T13:49:59Z</time>
      </trkpt>
      <trkpt lat="53.869255017489195" lon="9.306967975571752">
        <ele>-9.48</ele>
        <time>2019-05-05T13:50:12Z</time>
      </trkpt>
      <trkpt lat="53.870387999340892" lon="9.304429013282061">
        <ele>-8.029999999999999</ele>
        <time>2019-05-05T13:50:27Z</time>
      </trkpt>
      <trkpt lat="53.871258040890098" lon="9.302083002403379">
        <ele>-8.029999999999999</ele>
        <time>2019-05-05T13:50:40Z</time>
      </trkpt>
      <trkpt lat="53.872427986934781" lon="9.298641979694367">
        <ele>-7.55</ele>
        <time>2019-05-05T13:50:56Z</time>
      </trkpt>
      <trkpt lat="53.872525971382856" lon="9.298168988898397">
        <ele>-7.55</ele>
        <time>2019-05-05T13:50:58Z</time>
      </trkpt>
      <trkpt lat="53.872543992474675" lon="9.297936977818608">
        <ele>-8.029999999999999</ele>
        <time>2019-05-05T13:50:59Z</time>
      </trkpt>
      <trkpt lat="53.872547009959817" lon="9.297715025022626">
        <ele>-8.029999999999999</ele>
        <time>2019-05-05T13:51:00Z</time>
      </trkpt>
      <trkpt lat="53.872526977211237" lon="9.297498017549515">
        <ele>-8.029999999999999</ele>
        <time>2019-05-05T13:51:01Z</time>
      </trkpt>
      <trkpt lat="53.872507028281689" lon="9.297278998419642">
        <ele>-8.029999999999999</ele>
        <time>2019-05-05T13:51:02Z</time>
      </trkpt>
      <trkpt lat="53.872488001361489" lon="9.297061990946531">
        <ele>-8.029999999999999</ele>
        <time>2019-05-05T13:51:03Z</time>
      </trkpt>
      <trkpt lat="53.872474003583193" lon="9.296832997351885">
        <ele>-8.029999999999999</ele>
        <time>2019-05-05T13:51:04Z</time>
      </trkpt>
      <trkpt lat="53.87251197360456" lon="9.296612972393632">
        <ele>-8.51</ele>
        <time>2019-05-05T13:51:05Z</time>
      </trkpt>
      <trkpt lat="53.872566036880016" lon="9.29639202542603">
        <ele>-8.51</ele>
        <time>2019-05-05T13:51:06Z</time>
      </trkpt>
      <trkpt lat="53.872636025771499" lon="9.2961760237813">
        <ele>-8.51</ele>
        <time>2019-05-05T13:51:07Z</time>
      </trkpt>
      <trkpt lat="53.872707020491362" lon="9.295958010479808">
        <ele>-8.51</ele>
        <time>2019-05-05T13:51:08Z</time>
      </trkpt>
      <trkpt lat="53.873602962121367" lon="9.293047981336713">
        <ele>-7.55</ele>
        <time>2019-05-05T13:51:21Z</time>
      </trkpt>
      <trkpt lat="53.874017028138041" lon="9.291801005601883">
        <ele>-7.07</ele>
        <time>2019-05-05T13:51:27Z</time>
      </trkpt>
      <trkpt lat="53.874088022857904" lon="9.291592966765165">
        <ele>-7.07</ele>
        <time>2019-05-05T13:51:28Z</time>
      </trkpt>
      <trkpt lat="53.874183995649219" lon="9.291400015354157">
        <ele>-7.07</ele>
        <time>2019-05-05T13:51:29Z</time>
      </trkpt>
      <trkpt lat="53.874293966218829" lon="9.291234975680709">
        <ele>-6.59</ele>
        <time>2019-05-05T13:51:30Z</time>
      </trkpt>
      <trkpt lat="53.874399997293949" lon="9.291062979027629">
        <ele>-6.59</ele>
        <time>2019-05-05T13:51:31Z</time>
      </trkpt>
      <trkpt lat="53.874613987281919" lon="9.29069803096354">
        <ele>-6.11</ele>
        <time>2019-05-05T13:51:33Z</time>
      </trkpt>
      <trkpt lat="53.874711971729994" lon="9.290508013218641">
        <ele>-6.59</ele>
        <time>2019-05-05T13:51:34Z</time>
      </trkpt>
      <trkpt lat="53.874777015298605" lon="9.290265021845698">
        <ele>-6.59</ele>
        <time>2019-05-05T13:51:35Z</time>
      </trkpt>
      <trkpt lat="53.875674968585372" lon="9.286797009408474">
        <ele>-7.07</ele>
        <time>2019-05-05T13:51:49Z</time>
      </trkpt>
      <trkpt lat="53.876690017059445" lon="9.282738994807005">
        <ele>-6.59</ele>
        <time>2019-05-05T13:52:05Z</time>
      </trkpt>
      <trkpt lat="53.877656031399965" lon="9.278936963528395">
        <ele>-6.59</ele>
        <time>2019-05-05T13:52:20Z</time>
      </trkpt>
      <trkpt lat="53.878087028861046" lon="9.277236023917794">
        <ele>-6.59</ele>
        <time>2019-05-05T13:52:28Z</time>
      </trkpt>
      <trkpt lat="53.878760011866689" lon="9.274083003401756">
        <ele>-7.55</ele>
        <time>2019-05-05T13:52:40Z</time>
      </trkpt>
      <trkpt lat="53.878770992159843" lon="9.273779997602105">
        <ele>-7.55</ele>
        <time>2019-05-05T13:52:41Z</time>
      </trkpt>
      <trkpt lat="53.878760011866689" lon="9.273480009287596">
        <ele>-8.029999999999999</ele>
        <time>2019-05-05T13:52:42Z</time>
      </trkpt>
      <trkpt lat="53.878565970808268" lon="9.270633012056351">
        <ele>-8.51</ele>
        <time>2019-05-05T13:52:51Z</time>
      </trkpt>
      <trkpt lat="53.878351980820298" lon="9.267499018460512">
        <ele>-6.59</ele>
        <time>2019-05-05T13:53:01Z</time>
      </trkpt>
      <trkpt lat="53.878360027447343" lon="9.267187966033816">
        <ele>-6.59</ele>
        <time>2019-05-05T13:53:02Z</time>
      </trkpt>
      <trkpt lat="53.878396991640329" lon="9.266876997426152">
        <ele>-7.07</ele>
        <time>2019-05-05T13:53:03Z</time>
      </trkpt>
      <trkpt lat="53.878434039652348" lon="9.266563011333346">
        <ele>-7.07</ele>
        <time>2019-05-05T13:53:04Z</time>
      </trkpt>
      <trkpt lat="53.878520037978888" lon="9.26627098582685">
        <ele>-7.07</ele>
        <time>2019-05-05T13:53:05Z</time>
      </trkpt>
      <trkpt lat="53.878606036305428" lon="9.265979966148734">
        <ele>-7.07</ele>
        <time>2019-05-05T13:53:06Z</time>
      </trkpt>
      <trkpt lat="53.878692034631968" lon="9.26568903028965">
        <ele>-7.07</ele>
        <time>2019-05-05T13:53:07Z</time>
      </trkpt>
      <trkpt lat="53.878796976059675" lon="9.265409996733069">
        <ele>-7.07</ele>
        <time>2019-05-05T13:53:08Z</time>
      </trkpt>
      <trkpt lat="53.879630975425243" lon="9.263416025787592">
        <ele>-6.11</ele>
        <time>2019-05-05T13:53:16Z</time>
      </trkpt>
      <trkpt lat="53.879737006500363" lon="9.263231037184596">
        <ele>-6.11</ele>
        <time>2019-05-05T13:53:17Z</time>
      </trkpt>
      <trkpt lat="53.879858963191509" lon="9.263073960319161">
        <ele>-6.11</ele>
        <time>2019-05-05T13:53:18Z</time>
      </trkpt>
      <trkpt lat="53.88072095811367" lon="9.261631015688181">
        <ele>-6.59</ele>
        <time>2019-05-05T13:53:26Z</time>
      </trkpt>
      <trkpt lat="53.882002970203757" lon="9.259248040616512">
        <ele>-6.59</ele>
        <time>2019-05-05T13:53:38Z</time>
      </trkpt>
      <trkpt lat="53.883131006732583" lon="9.258183035999537">
        <ele>-6.11</ele>
        <time>2019-05-05T13:53:46Z</time>
      </trkpt>
      <trkpt lat="53.884078999981284" lon="9.257556991651654">
        <ele>-4.67</ele>
        <time>2019-05-05T13:53:54Z</time>
      </trkpt>
      <trkpt lat="53.885491015389562" lon="9.256789963692427">
        <ele>-6.59</ele>
        <time>2019-05-05T13:54:06Z</time>
      </trkpt>
      <trkpt lat="53.887004032731056" lon="9.256045985966921">
        <ele>-8.51</ele>
        <time>2019-05-05T13:54:19Z</time>
      </trkpt>
      <trkpt lat="53.887365963310003" lon="9.255982032045722">
        <ele>-8.51</ele>
        <time>2019-05-05T13:54:22Z</time>
      </trkpt>
      <trkpt lat="53.888482013717294" lon="9.256232986226678">
        <ele>-7.55</ele>
        <time>2019-05-05T13:54:31Z</time>
      </trkpt>
      <trkpt lat="53.88941802084446" lon="9.255996029824019">
        <ele>-6.11</ele>
        <time>2019-05-05T13:54:39Z</time>
      </trkpt>
      <trkpt lat="53.889585994184017" lon="9.255927968770266">
        <ele>-6.11</ele>
        <time>2019-05-05T13:54:41Z</time>
      </trkpt>
      <trkpt lat="53.889665035530925" lon="9.255897039547563">
        <ele>-5.63</ele>
        <time>2019-05-05T13:54:42Z</time>
      </trkpt>
      <trkpt lat="53.889744998887181" lon="9.255865020677447">
        <ele>-5.63</ele>
        <time>2019-05-05T13:54:43Z</time>
      </trkpt>
      <trkpt lat="53.889980027452111" lon="9.255744991824031">
        <ele>-5.63</ele>
        <time>2019-05-05T13:54:46Z</time>
      </trkpt>
      <trkpt lat="53.890044987201691" lon="9.255679026246071">
        <ele>-5.15</ele>
        <time>2019-05-05T13:54:47Z</time>
      </trkpt>
      <trkpt lat="53.890112964436412" lon="9.255610965192318">
        <ele>-5.15</ele>
        <time>2019-05-05T13:54:48Z</time>
      </trkpt>
      <trkpt lat="53.890183037146926" lon="9.255540976300836">
        <ele>-4.67</ele>
        <time>2019-05-05T13:54:49Z</time>
      </trkpt>
      <trkpt lat="53.890252020210028" lon="9.255471993237734">
        <ele>-3.71</ele>
        <time>2019-05-05T13:54:50Z</time>
      </trkpt>
      <trkpt lat="53.890319997444749" lon="9.255404016003013">
        <ele>-3.23</ele>
        <time>2019-05-05T13:54:51Z</time>
      </trkpt>
      <trkpt lat="53.890388980507851" lon="9.255335032939911">
        <ele>-2.75</ele>
        <time>2019-05-05T13:54:52Z</time>
      </trkpt>
      <trkpt lat="53.890586961060762" lon="9.255153983831406">
        <ele>-1.3</ele>
        <time>2019-05-05T13:54:55Z</time>
      </trkpt>
      <trkpt lat="53.89072903431952" lon="9.255059016868472">
        <ele>-0.34</ele>
        <time>2019-05-05T13:54:57Z</time>
      </trkpt>
      <trkpt lat="53.890785025432706" lon="9.254957009106875">
        <ele>0.14</ele>
        <time>2019-05-05T13:54:58Z</time>
      </trkpt>
      <trkpt lat="53.89083799906075" lon="9.254859024658799">
        <ele>0.14</ele>
        <time>2019-05-05T13:54:59Z</time>
      </trkpt>
      <trkpt lat="53.890897007659078" lon="9.254749976098537">
        <ele>0.14</ele>
        <time>2019-05-05T13:55:00Z</time>
      </trkpt>
      <trkpt lat="53.890954004600644" lon="9.254644028842449">
        <ele>0.14</ele>
        <time>2019-05-05T13:55:01Z</time>
      </trkpt>
      <trkpt lat="53.891012007370591" lon="9.25454000942409">
        <ele>-0.34</ele>
        <time>2019-05-05T13:55:02Z</time>
      </trkpt>
      <trkpt lat="53.891083002090454" lon="9.254462979733944">
        <ele>-0.34</ele>
        <time>2019-05-05T13:55:03Z</time>
      </trkpt>
      <trkpt lat="53.891287017613649" lon="9.254243038594723">
        <ele>0.14</ele>
        <time>2019-05-05T13:55:06Z</time>
      </trkpt>
      <trkpt lat="53.891357006505132" lon="9.254251001402736">
        <ele>0.62</ele>
        <time>2019-05-05T13:55:07Z</time>
      </trkpt>
      <trkpt lat="53.891432024538517" lon="9.254258964210749">
        <ele>0.62</ele>
        <time>2019-05-05T13:55:08Z</time>
      </trkpt>
      <trkpt lat="53.891593040898442" lon="9.254276985302568">
        <ele>1.1</ele>
        <time>2019-05-05T13:55:10Z</time>
      </trkpt>
      <trkpt lat="53.891674010083079" lon="9.254286037757993">
        <ele>1.58</ele>
        <time>2019-05-05T13:55:11Z</time>
      </trkpt>
      <trkpt lat="53.891736958175898" lon="9.254274973645806">
        <ele>1.58</ele>
        <time>2019-05-05T13:55:12Z</time>
      </trkpt>
      <trkpt lat="53.891802001744509" lon="9.254262987524271">
        <ele>1.58</ele>
        <time>2019-05-05T13:55:13Z</time>
      </trkpt>
      <trkpt lat="53.891864027827978" lon="9.254252007231116">
        <ele>1.58</ele>
        <time>2019-05-05T13:55:14Z</time>
      </trkpt>
      <trkpt lat="53.891923036426306" lon="9.254241026937962">
        <ele>1.58</ele>
        <time>2019-05-05T13:55:15Z</time>
      </trkpt>
      <trkpt lat="53.892133003100753" lon="9.254202973097563">
        <ele>1.1</ele>
        <time>2019-05-05T13:55:20Z</time>
      </trkpt>
      <trkpt lat="53.892172984778881" lon="9.254105994477868">
        <ele>0.62</ele>
        <time>2019-05-05T13:55:21Z</time>
      </trkpt>
      <trkpt lat="53.892198968678713" lon="9.254014967009425">
        <ele>0.62</ele>
        <time>2019-05-05T13:55:22Z</time>
      </trkpt>
      <trkpt lat="53.892336012795568" lon="9.253379032015801">
        <ele>-0.34</ele>
        <time>2019-05-05T13:55:27Z</time>
      </trkpt>
      <trkpt lat="53.892916962504387" lon="9.25181002356112">
        <ele>-1.3</ele>
        <time>2019-05-05T13:55:38Z</time>
      </trkpt>
      <trkpt lat="53.89324402436614" lon="9.250895977020264">
        <ele>-1.3</ele>
        <time>2019-05-05T13:55:44Z</time>
      </trkpt>
      <trkpt lat="53.893300015479326" lon="9.25073797814548">
        <ele>-1.3</ele>
        <time>2019-05-05T13:55:45Z</time>
      </trkpt>
      <trkpt lat="53.89397501014173" lon="9.248819025233388">
        <ele>0.14</ele>
        <time>2019-05-05T13:55:57Z</time>
      </trkpt>
      <trkpt lat="53.89464296400547" lon="9.24678398296237">
        <ele>0.14</ele>
        <time>2019-05-05T13:56:08Z</time>
      </trkpt>
      <trkpt lat="53.89483398757875" lon="9.244930995628238">
        <ele>-1.79</ele>
        <time>2019-05-05T13:56:17Z</time>
      </trkpt>
      <trkpt lat="53.894828036427498" lon="9.241956006735563">
        <ele>-5.15</ele>
        <time>2019-05-05T13:56:31Z</time>
      </trkpt>
      <trkpt lat="53.895056024193764" lon="9.239588035270572">
        <ele>-4.19</ele>
        <time>2019-05-05T13:56:41Z</time>
      </trkpt>
      <trkpt lat="53.895665975287557" lon="9.237834960222244">
        <ele>-4.19</ele>
        <time>2019-05-05T13:56:48Z</time>
      </trkpt>
      <trkpt lat="53.896770961582661" lon="9.235504036769271">
        <ele>-2.27</ele>
        <time>2019-05-05T13:56:59Z</time>
      </trkpt>
      <trkpt lat="53.896871041506529" lon="9.23533396795392">
        <ele>-1.79</ele>
        <time>2019-05-05T13:57:00Z</time>
      </trkpt>
      <trkpt lat="53.897214028984308" lon="9.234937001019716">
        <ele>-0.34</ele>
        <time>2019-05-05T13:57:03Z</time>
      </trkpt>
      <trkpt lat="53.89732601121068" lon="9.234819989651442">
        <ele>-0.34</ele>
        <time>2019-05-05T13:57:04Z</time>
      </trkpt>
      <trkpt lat="53.898512972518802" lon="9.23318300396204">
        <ele>-1.3</ele>
        <time>2019-05-05T13:57:16Z</time>
      </trkpt>
      <trkpt lat="53.89921797439456" lon="9.23092600889504">
        <ele>0.62</ele>
        <time>2019-05-05T13:57:27Z</time>
      </trkpt>
      <trkpt lat="53.900065971538424" lon="9.227973986417055">
        <ele>0.14</ele>
        <time>2019-05-05T13:57:41Z</time>
      </trkpt>
      <trkpt lat="53.900189017876983" lon="9.227180974557996">
        <ele>-0.34</ele>
        <time>2019-05-05T13:57:45Z</time>
      </trkpt>
      <trkpt lat="53.900235034525394" lon="9.226756012067199">
        <ele>-0.34</ele>
        <time>2019-05-05T13:57:47Z</time>
      </trkpt>
      <trkpt lat="53.900218019261956" lon="9.226325014606118">
        <ele>0.62</ele>
        <time>2019-05-05T13:57:49Z</time>
      </trkpt>
      <trkpt lat="53.900147024542093" lon="9.225867027416825">
        <ele>1.1</ele>
        <time>2019-05-05T13:57:51Z</time>
      </trkpt>
      <trkpt lat="53.900101007893682" lon="9.225625041872263">
        <ele>1.1</ele>
        <time>2019-05-05T13:57:52Z</time>
      </trkpt>
      <trkpt lat="53.900048034265637" lon="9.225382972508669">
        <ele>1.1</ele>
        <time>2019-05-05T13:57:53Z</time>
      </trkpt>
      <trkpt lat="53.899964969605207" lon="9.225149033591151">
        <ele>1.1</ele>
        <time>2019-05-05T13:57:54Z</time>
      </trkpt>
      <trkpt lat="53.899880982935429" lon="9.22491098754108">
        <ele>0.62</ele>
        <time>2019-05-05T13:57:55Z</time>
      </trkpt>
      <trkpt lat="53.898884039372206" lon="9.222084023058415">
        <ele>-3.71</ele>
        <time>2019-05-05T13:58:07Z</time>
      </trkpt>
      <trkpt lat="53.898084992542863" lon="9.219874972477555">
        <ele>-4.67</ele>
        <time>2019-05-05T13:58:17Z</time>
      </trkpt>
      <trkpt lat="53.897647960111499" lon="9.21853001229465">
        <ele>-5.15</ele>
        <time>2019-05-05T13:58:24Z</time>
      </trkpt>
      <trkpt lat="53.897585012018681" lon="9.218333959579468">
        <ele>-5.15</ele>
        <time>2019-05-05T13:58:25Z</time>
      </trkpt>
      <trkpt lat="53.897535977885127" lon="9.218145031481981">
        <ele>-5.15</ele>
        <time>2019-05-05T13:58:26Z</time>
      </trkpt>
      <trkpt lat="53.897356018424034" lon="9.2171960324049">
        <ele>-4.19</ele>
        <time>2019-05-05T13:58:30Z</time>
      </trkpt>
      <trkpt lat="53.897286029532552" lon="9.216143013909459">
        <ele>-2.27</ele>
        <time>2019-05-05T13:58:34Z</time>
      </trkpt>
      <trkpt lat="53.897387031465769" lon="9.214537963271141">
        <ele>-0.34</ele>
        <time>2019-05-05T13:58:41Z</time>
      </trkpt>
      <trkpt lat="53.897405974566936" lon="9.214329002425075">
        <ele>0.14</ele>
        <time>2019-05-05T13:58:43Z</time>
      </trkpt>
      <trkpt lat="53.89743497595191" lon="9.21399699524045">
        <ele>2.54</ele>
        <time>2019-05-05T13:58:50Z</time>
      </trkpt>
      <trkpt lat="53.897437993437052" lon="9.213963970541954">
        <ele>2.54</ele>
        <time>2019-05-05T13:58:51Z</time>
      </trkpt>
      <trkpt lat="53.897437993437052" lon="9.213963970541954">
        <ele>3.02</ele>
        <time>2019-05-05T13:58:52Z</time>
      </trkpt>
      <trkpt lat="53.897437993437052" lon="9.213963970541954">
        <ele>3.02</ele>
        <time>2019-05-05T13:59:05Z</time>
      </trkpt>
      <trkpt lat="53.897437993437052" lon="9.213963970541954">
        <ele>3.02</ele>
        <time>2019-05-05T13:59:46Z</time>
      </trkpt>
      <trkpt lat="53.897437993437052" lon="9.213963970541954">
        <ele>3.02</ele>
        <time>2019-05-05T14:00:24Z</time>
      </trkpt>
      <trkpt lat="53.897437993437052" lon="9.213963970541954">
        <ele>3.02</ele>
        <time>2019-05-05T14:01:14Z</time>
      </trkpt>
      <trkpt lat="53.897442016750574" lon="9.21391099691391">
        <ele>3.5</ele>
        <time>2019-05-05T14:01:57Z</time>
      </trkpt>
      <trkpt lat="53.897445034235716" lon="9.213875038549304">
        <ele>3.5</ele>
        <time>2019-05-05T14:01:58Z</time>
      </trkpt>
      <trkpt lat="53.897452997043729" lon="9.213787028566003">
        <ele>3.02</ele>
        <time>2019-05-05T14:01:59Z</time>
      </trkpt>
      <trkpt lat="53.897463977336884" lon="9.213656019419432">
        <ele>2.54</ele>
        <time>2019-05-05T14:02:00Z</time>
      </trkpt>
      <trkpt lat="53.89747797511518" lon="9.21350103802979">
        <ele>2.54</ele>
        <time>2019-05-05T14:02:01Z</time>
      </trkpt>
      <trkpt lat="53.897491972893476" lon="9.21333197504282">
        <ele>2.06</ele>
        <time>2019-05-05T14:02:02Z</time>
      </trkpt>
      <trkpt lat="53.897624993696809" lon="9.211537996307015">
        <ele>-0.34</ele>
        <time>2019-05-05T14:02:10Z</time>
      </trkpt>
      <trkpt lat="53.897739993408322" lon="9.209372028708458">
        <ele>-1.79</ele>
        <time>2019-05-05T14:02:16Z</time>
      </trkpt>
      <trkpt lat="53.897936968132854" lon="9.205581983551383">
        <ele>-4.67</ele>
        <time>2019-05-05T14:02:25Z</time>
      </trkpt>
      <trkpt lat="53.898096978664398" lon="9.202633984386921">
        <ele>-4.67</ele>
        <time>2019-05-05T14:02:32Z</time>
      </trkpt>
      <trkpt lat="53.898288002237678" lon="9.199015013873577">
        <ele>-5.63</ele>
        <time>2019-05-05T14:02:41Z</time>
      </trkpt>
      <trkpt lat="53.898504003882408" lon="9.195081973448396">
        <ele>-6.11</ele>
        <time>2019-05-05T14:02:51Z</time>
      </trkpt>
      <trkpt lat="53.898505009710789" lon="9.191210959106684">
        <ele>-8.029999999999999</ele>
        <time>2019-05-05T14:03:00Z</time>
      </trkpt>
      <trkpt lat="53.898025983944535" lon="9.188286010175943">
        <ele>-8.51</ele>
        <time>2019-05-05T14:03:07Z</time>
      </trkpt>
      <trkpt lat="53.897231966257095" lon="9.184891004115343">
        <ele>-9</ele>
        <time>2019-05-05T14:03:16Z</time>
      </trkpt>
      <trkpt lat="53.896774984896183" lon="9.182880017906427">
        <ele>-9</ele>
        <time>2019-05-05T14:03:23Z</time>
      </trkpt>
      <trkpt lat="53.896577004343271" lon="9.180635008960962">
        <ele>-9</ele>
        <time>2019-05-05T14:03:30Z</time>
      </trkpt>
      <trkpt lat="53.896349016577005" lon="9.176231995224953">
        <ele>-9</ele>
        <time>2019-05-05T14:03:43Z</time>
      </trkpt>
      <trkpt lat="53.896134020760655" lon="9.171522036194801">
        <ele>-7.55</ele>
        <time>2019-05-05T14:03:57Z</time>
      </trkpt>
      <trkpt lat="53.89603603631258" lon="9.169577015563846">
        <ele>-8.51</ele>
        <time>2019-05-05T14:04:04Z</time>
      </trkpt>
      <trkpt lat="53.895880971103907" lon="9.166874019429088">
        <ele>-8.51</ele>
        <time>2019-05-05T14:04:15Z</time>
      </trkpt>
      <trkpt lat="53.895658012479544" lon="9.1644730232656">
        <ele>-9</ele>
        <time>2019-05-05T14:04:26Z</time>
      </trkpt>
      <trkpt lat="53.895348971709609" lon="9.16208703070879">
        <ele>-9.960000000000001</ele>
        <time>2019-05-05T14:04:37Z</time>
      </trkpt>
      <trkpt lat="53.895255010575056" lon="9.161251019686461">
        <ele>-10.44</ele>
        <time>2019-05-05T14:04:41Z</time>
      </trkpt>
      <trkpt lat="53.895240006968379" lon="9.161063013598323">
        <ele>-10.44</ele>
        <time>2019-05-05T14:04:42Z</time>
      </trkpt>
      <trkpt lat="53.895260039716959" lon="9.160878024995327">
        <ele>-10.44</ele>
        <time>2019-05-05T14:04:43Z</time>
      </trkpt>
      <trkpt lat="53.895291974768043" lon="9.160696975886822">
        <ele>-10.44</ele>
        <time>2019-05-05T14:04:44Z</time>
      </trkpt>
      <trkpt lat="53.895332962274551" lon="9.160513998940587">
        <ele>-10.44</ele>
        <time>2019-05-05T14:04:45Z</time>
      </trkpt>
      <trkpt lat="53.895405968651175" lon="9.160354994237423">
        <ele>-9.960000000000001</ele>
        <time>2019-05-05T14:04:46Z</time>
      </trkpt>
      <trkpt lat="53.895967975258827" lon="9.159189993515611">
        <ele>-7.07</ele>
        <time>2019-05-05T14:04:54Z</time>
      </trkpt>
      <trkpt lat="53.896040981635451" lon="9.159041969105601">
        <ele>-7.07</ele>
        <time>2019-05-05T14:04:55Z</time>
      </trkpt>
      <trkpt lat="53.896575998514891" lon="9.157846039161086">
        <ele>-4.67</ele>
        <time>2019-05-05T14:05:03Z</time>
      </trkpt>
      <trkpt lat="53.896609023213387" lon="9.157704971730709">
        <ele>-4.67</ele>
        <time>2019-05-05T14:05:04Z</time>
      </trkpt>
      <trkpt lat="53.896623020991683" lon="9.157483018934727">
        <ele>-4.19</ele>
        <time>2019-05-05T14:05:06Z</time>
      </trkpt>
      <trkpt lat="53.896626960486174" lon="9.157406995072961">
        <ele>-4.67</ele>
        <time>2019-05-05T14:05:07Z</time>
      </trkpt>
      <trkpt lat="53.896630983799696" lon="9.157341029495001">
        <ele>-4.67</ele>
        <time>2019-05-05T14:05:08Z</time>
      </trkpt>
      <trkpt lat="53.896635007113218" lon="9.157280009239912">
        <ele>-4.67</ele>
        <time>2019-05-05T14:05:09Z</time>
      </trkpt>
      <trkpt lat="53.896639030426741" lon="9.157215971499682">
        <ele>-4.67</ele>
        <time>2019-05-05T14:05:10Z</time>
      </trkpt>
      <trkpt lat="53.896642969921231" lon="9.157152017578483">
        <ele>-4.67</ele>
        <time>2019-05-05T14:05:11Z</time>
      </trkpt>
      <trkpt lat="53.896646993234754" lon="9.157089991495013">
        <ele>-5.15</ele>
        <time>2019-05-05T14:05:12Z</time>
      </trkpt>
      <trkpt lat="53.896651016548276" lon="9.157028971239924">
        <ele>-5.15</ele>
        <time>2019-05-05T14:05:13Z</time>
      </trkpt>
      <trkpt lat="53.896661996841431" lon="9.156837025657296">
        <ele>-4.67</ele>
        <time>2019-05-05T14:05:23Z</time>
      </trkpt>
      <trkpt lat="53.896661996841431" lon="9.156837025657296">
        <ele>-4.67</ele>
        <time>2019-05-05T14:06:20Z</time>
      </trkpt>
      <trkpt lat="53.896661996841431" lon="9.156837025657296">
        <ele>-4.67</ele>
        <time>2019-05-05T14:07:14Z</time>
      </trkpt>
      <trkpt lat="53.896677000448108" lon="9.156598979607225">
        <ele>-4.67</ele>
        <time>2019-05-05T14:07:46Z</time>
      </trkpt>
      <trkpt lat="53.896693009883165" lon="9.156342996284366">
        <ele>-4.67</ele>
        <time>2019-05-05T14:07:49Z</time>
      </trkpt>
      <trkpt lat="53.896695021539927" lon="9.15631097741425">
        <ele>-4.67</ele>
        <time>2019-05-05T14:07:50Z</time>
      </trkpt>
      <trkpt lat="53.896698961034417" lon="9.156213998794556">
        <ele>-4.67</ele>
        <time>2019-05-05T14:07:51Z</time>
      </trkpt>
      <trkpt lat="53.896701978519559" lon="9.156146021559835">
        <ele>-4.19</ele>
        <time>2019-05-05T14:07:52Z</time>
      </trkpt>
      <trkpt lat="53.896704996004701" lon="9.156078966334462">
        <ele>-3.71</ele>
        <time>2019-05-05T14:07:53Z</time>
      </trkpt>
      <trkpt lat="53.896707007661462" lon="9.156019035726786">
        <ele>-3.23</ele>
        <time>2019-05-05T14:07:54Z</time>
      </trkpt>
      <trkpt lat="53.896711030974984" lon="9.155928008258343">
        <ele>-2.75</ele>
        <time>2019-05-05T14:07:56Z</time>
      </trkpt>
      <trkpt lat="53.896712958812714" lon="9.155894983559847">
        <ele>-2.75</ele>
        <time>2019-05-05T14:07:57Z</time>
      </trkpt>
      <trkpt lat="53.896714970469475" lon="9.155852990224958">
        <ele>-2.75</ele>
        <time>2019-05-05T14:07:58Z</time>
      </trkpt>
      <trkpt lat="53.896717987954617" lon="9.155791969969869">
        <ele>-2.27</ele>
        <time>2019-05-05T14:07:59Z</time>
      </trkpt>
      <trkpt lat="53.896717987954617" lon="9.155791969969869">
        <ele>-2.75</ele>
        <time>2019-05-05T14:08:00Z</time>
      </trkpt>
      <trkpt lat="53.896717987954617" lon="9.155791969969869">
        <ele>-3.23</ele>
        <time>2019-05-05T14:08:16Z</time>
      </trkpt>
      <trkpt lat="53.896717987954617" lon="9.155791969969869">
        <ele>-3.23</ele>
        <time>2019-05-05T14:09:00Z</time>
      </trkpt>
      <trkpt lat="53.896717987954617" lon="9.155791969969869">
        <ele>-3.23</ele>
        <time>2019-05-05T14:09:52Z</time>
      </trkpt>
      <trkpt lat="53.896717987954617" lon="9.155791969969869">
        <ele>-2.27</ele>
        <time>2019-05-05T14:10:41Z</time>
      </trkpt>
      <trkpt lat="53.896800968796015" lon="9.154789997264743">
        <ele>-0.82</ele>
        <time>2019-05-05T14:11:07Z</time>
      </trkpt>
      <trkpt lat="53.896928038448095" lon="9.153267005458474">
        <ele>-1.79</ele>
        <time>2019-05-05T14:11:41Z</time>
      </trkpt>
      <trkpt lat="53.897072039544582" lon="9.151531029492617">
        <ele>-1.79</ele>
        <time>2019-05-05T14:12:16Z</time>
      </trkpt>
      <trkpt lat="53.897242024540901" lon="9.14960796944797">
        <ele>-2.27</ele>
        <time>2019-05-05T14:12:55Z</time>
      </trkpt>
      <trkpt lat="53.897323999553919" lon="9.148704987019301">
        <ele>-3.23</ele>
        <time>2019-05-05T14:13:21Z</time>
      </trkpt>
      <trkpt lat="53.897323999553919" lon="9.148704987019301">
        <ele>-3.71</ele>
        <time>2019-05-05T14:13:50Z</time>
      </trkpt>
      <trkpt lat="53.897400023415685" lon="9.148067962378264">
        <ele>-2.27</ele>
        <time>2019-05-05T14:14:16Z</time>
      </trkpt>
      <trkpt lat="53.897441010922194" lon="9.147842992097139">
        <ele>-1.79</ele>
        <time>2019-05-05T14:14:18Z</time>
      </trkpt>
      <trkpt lat="53.897468000650406" lon="9.147718017920852">
        <ele>-2.27</ele>
        <time>2019-05-05T14:14:19Z</time>
      </trkpt>
      <trkpt lat="53.897696994245052" lon="9.146213969215751">
        <ele>-0.34</ele>
        <time>2019-05-05T14:14:29Z</time>
      </trkpt>
      <trkpt lat="53.897642008960247" lon="9.144628029316664">
        <ele>2.06</ele>
        <time>2019-05-05T14:14:38Z</time>
      </trkpt>
      <trkpt lat="53.897603033110499" lon="9.142668005079031">
        <ele>4.46</ele>
        <time>2019-05-05T14:14:49Z</time>
      </trkpt>
      <trkpt lat="53.897613007575274" lon="9.142496008425951">
        <ele>4.46</ele>
        <time>2019-05-05T14:14:50Z</time>
      </trkpt>
      <trkpt lat="53.897663969546556" lon="9.141622027382255">
        <ele>4.46</ele>
        <time>2019-05-05T14:14:55Z</time>
      </trkpt>
      <trkpt lat="53.897766983136535" lon="9.139650017023087">
        <ele>5.91</ele>
        <time>2019-05-05T14:15:06Z</time>
      </trkpt>
      <trkpt lat="53.897532038390636" lon="9.138115039095283">
        <ele>5.42</ele>
        <time>2019-05-05T14:15:15Z</time>
      </trkpt>
      <trkpt lat="53.897457020357251" lon="9.137971037998796">
        <ele>4.94</ele>
        <time>2019-05-05T14:15:16Z</time>
      </trkpt>
      <trkpt lat="53.896949999034405" lon="9.137051962316036">
        <ele>2.54</ele>
        <time>2019-05-05T14:15:25Z</time>
      </trkpt>
      <trkpt lat="53.896909011527896" lon="9.136975016444922">
        <ele>2.54</ele>
        <time>2019-05-05T14:15:26Z</time>
      </trkpt>
      <trkpt lat="53.896899959072471" lon="9.136840989813209">
        <ele>2.06</ele>
        <time>2019-05-05T14:15:27Z</time>
      </trkpt>
      <trkpt lat="53.896914962679148" lon="9.136720960959792">
        <ele>2.06</ele>
        <time>2019-05-05T14:15:28Z</time>
      </trkpt>
      <trkpt lat="53.896931977942586" lon="9.136588023975492">
        <ele>1.58</ele>
        <time>2019-05-05T14:15:29Z</time>
      </trkpt>
      <trkpt lat="53.896949999034405" lon="9.136447962373495">
        <ele>1.58</ele>
        <time>2019-05-05T14:15:30Z</time>
      </trkpt>
      <trkpt lat="53.896968020126224" lon="9.136303039267659">
        <ele>1.1</ele>
        <time>2019-05-05T14:15:31Z</time>
      </trkpt>
      <trkpt lat="53.897172035649419" lon="9.134568991139531">
        <ele>-0.34</ele>
        <time>2019-05-05T14:15:42Z</time>
      </trkpt>
      <trkpt lat="53.897441010922194" lon="9.132296992465854">
        <ele>-2.27</ele>
        <time>2019-05-05T14:15:55Z</time>
      </trkpt>
      <trkpt lat="53.897480992600322" lon="9.131931960582733">
        <ele>-2.75</ele>
        <time>2019-05-05T14:15:57Z</time>
      </trkpt>
      <trkpt lat="53.897687019780278" lon="9.130005966871977">
        <ele>-4.19</ele>
        <time>2019-05-05T14:16:08Z</time>
      </trkpt>
      <trkpt lat="53.897737981751561" lon="9.129574969410896">
        <ele>-4.67</ele>
        <time>2019-05-05T14:16:12Z</time>
      </trkpt>
      <trkpt lat="53.897748962044716" lon="9.129482014104724">
        <ele>-4.67</ele>
        <time>2019-05-05T14:16:13Z</time>
      </trkpt>
      <trkpt lat="53.897762037813663" lon="9.129376988857985">
        <ele>-4.67</ele>
        <time>2019-05-05T14:16:14Z</time>
      </trkpt>
      <trkpt lat="53.89777603559196" lon="9.12926098331809">
        <ele>-5.15</ele>
        <time>2019-05-05T14:16:15Z</time>
      </trkpt>
      <trkpt lat="53.897790033370256" lon="9.129138020798564">
        <ele>-5.15</ele>
        <time>2019-05-05T14:16:16Z</time>
      </trkpt>
      <trkpt lat="53.897838983684778" lon="9.128729989752173">
        <ele>-4.67</ele>
        <time>2019-05-05T14:16:19Z</time>
      </trkpt>
      <trkpt lat="53.897834960371256" lon="9.128585988655686">
        <ele>-4.19</ele>
        <time>2019-05-05T14:16:20Z</time>
      </trkpt>
      <trkpt lat="53.897768994793296" lon="9.12850602529943">
        <ele>-4.19</ele>
        <time>2019-05-05T14:16:21Z</time>
      </trkpt>
      <trkpt lat="53.897695988416672" lon="9.128418015316129">
        <ele>-3.71</ele>
        <time>2019-05-05T14:16:22Z</time>
      </trkpt>
      <trkpt lat="53.897616025060415" lon="9.128321036696434">
        <ele>-3.71</ele>
        <time>2019-05-05T14:16:23Z</time>
      </trkpt>
      <trkpt lat="53.897531032562256" lon="9.128218023106456">
        <ele>-3.23</ele>
        <time>2019-05-05T14:16:24Z</time>
      </trkpt>
      <trkpt lat="53.897444028407335" lon="9.128111992031336">
        <ele>-3.23</ele>
        <time>2019-05-05T14:16:25Z</time>
      </trkpt>
      <trkpt lat="53.897181004285812" lon="9.127792976796627">
        <ele>-2.27</ele>
        <time>2019-05-05T14:16:28Z</time>
      </trkpt>
      <trkpt lat="53.897095005959272" lon="9.127689963206649">
        <ele>-1.79</ele>
        <time>2019-05-05T14:16:29Z</time>
      </trkpt>
      <trkpt lat="53.89633996412158" lon="9.126786980777979">
        <ele>-3.71</ele>
        <time>2019-05-05T14:16:38Z</time>
      </trkpt>
      <trkpt lat="53.896067971363664" lon="9.126434018835425">
        <ele>-4.19</ele>
        <time>2019-05-05T14:16:45Z</time>
      </trkpt>
      <trkpt lat="53.895793966948986" lon="9.126097988337278">
        <ele>-5.15</ele>
        <time>2019-05-05T14:16:50Z</time>
      </trkpt>
      <trkpt lat="53.895740993320942" lon="9.125986006110907">
        <ele>-5.15</ele>
        <time>2019-05-05T14:16:51Z</time>
      </trkpt>
      <trkpt lat="53.895681984722614" lon="9.125859020277858">
        <ele>-5.15</ele>
        <time>2019-05-05T14:16:52Z</time>
      </trkpt>
      <trkpt lat="53.89562901109457" lon="9.125691968947649">
        <ele>-5.63</ele>
        <time>2019-05-05T14:16:53Z</time>
      </trkpt>
      <trkpt lat="53.895597998052835" lon="9.125517038628459">
        <ele>-5.63</ele>
        <time>2019-05-05T14:16:54Z</time>
      </trkpt>
      <trkpt lat="53.89556597918272" lon="9.125332972034812">
        <ele>-6.11</ele>
        <time>2019-05-05T14:16:55Z</time>
      </trkpt>
      <trkpt lat="53.895308990031481" lon="9.123572017997503">
        <ele>-6.59</ele>
        <time>2019-05-05T14:17:04Z</time>
      </trkpt>
      <trkpt lat="53.894915040582418" lon="9.121000031009316">
        <ele>-4.19</ele>
        <time>2019-05-05T14:17:17Z</time>
      </trkpt>
      <trkpt lat="53.894658973440528" lon="9.118935987353325">
        <ele>-5.15</ele>
        <time>2019-05-05T14:17:28Z</time>
      </trkpt>
      <trkpt lat="53.894710019230843" lon="9.117718013003469">
        <ele>-6.11</ele>
        <time>2019-05-05T14:17:35Z</time>
      </trkpt>
      <trkpt lat="53.894745977595448" lon="9.117562025785446">
        <ele>-6.11</ele>
        <time>2019-05-05T14:17:36Z</time>
      </trkpt>
      <trkpt lat="53.894911017268896" lon="9.116842020303011">
        <ele>-6.59</ele>
        <time>2019-05-05T14:17:43Z</time>
      </trkpt>
      <trkpt lat="53.894949993118644" lon="9.116673041135073">
        <ele>-6.59</ele>
        <time>2019-05-05T14:17:46Z</time>
      </trkpt>
      <trkpt lat="53.894978994503617" lon="9.116548988968134">
        <ele>-6.59</ele>
        <time>2019-05-05T14:17:47Z</time>
      </trkpt>
      <trkpt lat="53.895031968131661" lon="9.116513030603528">
        <ele>-6.59</ele>
        <time>2019-05-05T14:17:48Z</time>
      </trkpt>
      <trkpt lat="53.895106986165047" lon="9.116445975378156">
        <ele>-6.59</ele>
        <time>2019-05-05T14:17:49Z</time>
      </trkpt>
      <trkpt lat="53.895106986165047" lon="9.116339022293687">
        <ele>-6.59</ele>
        <time>2019-05-05T14:17:50Z</time>
      </trkpt>
      <trkpt lat="53.895106986165047" lon="9.116291999816895">
        <ele>-6.59</ele>
        <time>2019-05-05T14:17:51Z</time>
      </trkpt>
      <trkpt lat="53.895090976729989" lon="9.11593803204596">
        <ele>-6.59</ele>
        <time>2019-05-05T14:17:53Z</time>
      </trkpt>
      <trkpt lat="53.895556004717946" lon="9.113998040556908">
        <ele>-8.029999999999999</ele>
        <time>2019-05-05T14:18:05Z</time>
      </trkpt>
      <trkpt lat="53.895960012450814" lon="9.112290982156992">
        <ele>-9.960000000000001</ele>
        <time>2019-05-05T14:18:15Z</time>
      </trkpt>
      <trkpt lat="53.896310040727258" lon="9.110346967354417">
        <ele>-7.07</ele>
        <time>2019-05-05T14:18:26Z</time>
      </trkpt>
      <trkpt lat="53.896351028233767" lon="9.108461961150169">
        <ele>-8.029999999999999</ele>
        <time>2019-05-05T14:18:35Z</time>
      </trkpt>
      <trkpt lat="53.896201997995377" lon="9.107239963486791">
        <ele>-9</ele>
        <time>2019-05-05T14:18:41Z</time>
      </trkpt>
      <trkpt lat="53.896178025752306" lon="9.107052041217685">
        <ele>-8.029999999999999</ele>
        <time>2019-05-05T14:18:42Z</time>
      </trkpt>
      <trkpt lat="53.896084986627102" lon="9.106304040178657">
        <ele>-5.63</ele>
        <time>2019-05-05T14:18:46Z</time>
      </trkpt>
      <trkpt lat="53.895910978317261" lon="9.104780964553356">
        <ele>-4.19</ele>
        <time>2019-05-05T14:18:54Z</time>
      </trkpt>
      <trkpt lat="53.895903015509248" lon="9.104608967900276">
        <ele>-4.19</ele>
        <time>2019-05-05T14:18:55Z</time>
      </trkpt>
      <trkpt lat="53.895894968882203" lon="9.104450969025493">
        <ele>-3.71</ele>
        <time>2019-05-05T14:18:56Z</time>
      </trkpt>
      <trkpt lat="53.895888011902571" lon="9.104292970150709">
        <ele>-3.23</ele>
        <time>2019-05-05T14:18:57Z</time>
      </trkpt>
      <trkpt lat="53.895878959447145" lon="9.104126002639532">
        <ele>-3.23</ele>
        <time>2019-05-05T14:18:58Z</time>
      </trkpt>
      <trkpt lat="53.895832020789385" lon="9.104042015969753">
        <ele>-3.23</ele>
        <time>2019-05-05T14:18:59Z</time>
      </trkpt>
      <trkpt lat="53.895771000534296" lon="9.103936990723014">
        <ele>-3.23</ele>
        <time>2019-05-05T14:19:00Z</time>
      </trkpt>
      <trkpt lat="53.895442010834813" lon="9.103281022980809">
        <ele>-3.23</ele>
        <time>2019-05-05T14:19:07Z</time>
      </trkpt>
      <trkpt lat="53.895432958379388" lon="9.103183038532734">
        <ele>-2.75</ele>
        <time>2019-05-05T14:19:08Z</time>
      </trkpt>
      <trkpt lat="53.895451985299587" lon="9.103102991357446">
        <ele>-2.75</ele>
        <time>2019-05-05T14:19:09Z</time>
      </trkpt>
      <trkpt lat="53.895503031089902" lon="9.103025961667299">
        <ele>-2.75</ele>
        <time>2019-05-05T14:19:10Z</time>
      </trkpt>
      <trkpt lat="53.895554998889565" lon="9.102945998311043">
        <ele>-2.75</ele>
        <time>2019-05-05T14:19:11Z</time>
      </trkpt>
      <trkpt lat="53.895614007487893" lon="9.102856982499361">
        <ele>-2.27</ele>
        <time>2019-05-05T14:19:12Z</time>
      </trkpt>
      <trkpt lat="53.896278021857142" lon="9.101859033107758">
        <ele>-2.75</ele>
        <time>2019-05-05T14:19:22Z</time>
      </trkpt>
      <trkpt lat="53.896603994071484" lon="9.101375984027982">
        <ele>-1.79</ele>
        <time>2019-05-05T14:19:27Z</time>
      </trkpt>
      <trkpt lat="53.896654034033418" lon="9.101168029010296">
        <ele>-1.3</ele>
        <time>2019-05-05T14:19:29Z</time>
      </trkpt>
      <trkpt lat="53.896672977134585" lon="9.101036014035344">
        <ele>-1.3</ele>
        <time>2019-05-05T14:19:30Z</time>
      </trkpt>
      <trkpt lat="53.896659985184669" lon="9.100913973525167">
        <ele>-1.3</ele>
        <time>2019-05-05T14:19:31Z</time>
      </trkpt>
      <trkpt lat="53.896626960486174" lon="9.100621026009321">
        <ele>-2.27</ele>
        <time>2019-05-05T14:19:33Z</time>
      </trkpt>
      <trkpt lat="53.89659502543509" lon="9.100330006331205">
        <ele>-2.27</ele>
        <time>2019-05-05T14:19:35Z</time>
      </trkpt>
      <trkpt lat="53.896580021828413" lon="9.100191034376621">
        <ele>-2.27</ele>
        <time>2019-05-05T14:19:36Z</time>
      </trkpt>
      <trkpt lat="53.896566024050117" lon="9.100069999694824">
        <ele>-2.75</ele>
        <time>2019-05-05T14:19:37Z</time>
      </trkpt>
      <trkpt lat="53.896593013778329" lon="9.099968997761607">
        <ele>-3.23</ele>
        <time>2019-05-05T14:19:38Z</time>
      </trkpt>
      <trkpt lat="53.896630983799696" lon="9.099822985008359">
        <ele>-3.71</ele>
        <time>2019-05-05T14:19:39Z</time>
      </trkpt>
      <trkpt lat="53.896672977134585" lon="9.099661968648434">
        <ele>-4.19</ele>
        <time>2019-05-05T14:19:40Z</time>
      </trkpt>
      <trkpt lat="53.896750006824732" lon="9.099563984200358">
        <ele>-4.19</ele>
        <time>2019-05-05T14:19:41Z</time>
      </trkpt>
      <trkpt lat="53.896996015682817" lon="9.099248992279172">
        <ele>-5.15</ele>
        <time>2019-05-05T14:19:44Z</time>
      </trkpt>
      <trkpt lat="53.897251999005675" lon="9.098920002579689">
        <ele>-5.15</ele>
        <time>2019-05-05T14:19:47Z</time>
      </trkpt>
      <trkpt lat="53.897430030629039" lon="9.098691008985043">
        <ele>-5.63</ele>
        <time>2019-05-05T14:19:49Z</time>
      </trkpt>
      <trkpt lat="53.897519968450069" lon="9.098575003445149">
        <ele>-6.11</ele>
        <time>2019-05-05T14:19:50Z</time>
      </trkpt>
      <trkpt lat="53.898623026907444" lon="9.09718100912869">
        <ele>-6.11</ele>
        <time>2019-05-05T14:20:00Z</time>
      </trkpt>
      <trkpt lat="53.900046022608876" lon="9.095333972945809">
        <ele>-6.59</ele>
        <time>2019-05-05T14:20:10Z</time>
      </trkpt>
      <trkpt lat="53.901013964787126" lon="9.094190010800958">
        <ele>-6.11</ele>
        <time>2019-05-05T14:20:15Z</time>
      </trkpt>
      <trkpt lat="53.903089994564652" lon="9.092651009559631">
        <ele>-5.15</ele>
        <time>2019-05-05T14:20:24Z</time>
      </trkpt>
      <trkpt lat="53.904786994680762" lon="9.091430017724633">
        <ele>-5.15</ele>
        <time>2019-05-05T14:20:32Z</time>
      </trkpt>
      <trkpt lat="53.905788967385888" lon="9.090187987312675">
        <ele>-5.15</ele>
        <time>2019-05-05T14:20:38Z</time>
      </trkpt>
      <trkpt lat="53.905927017331123" lon="9.090058989822865">
        <ele>-5.15</ele>
        <time>2019-05-05T14:20:39Z</time>
      </trkpt>
      <trkpt lat="53.906060038134456" lon="9.090025965124369">
        <ele>-5.15</ele>
        <time>2019-05-05T14:20:40Z</time>
      </trkpt>
      <trkpt lat="53.906171014532447" lon="9.089997969567776">
        <ele>-5.15</ele>
        <time>2019-05-05T14:20:41Z</time>
      </trkpt>
      <trkpt lat="53.906255001202226" lon="9.089977014809847">
        <ele>-5.15</ele>
        <time>2019-05-05T14:20:42Z</time>
      </trkpt>
      <trkpt lat="53.906317027285695" lon="9.089961005374789">
        <ele>-5.15</ele>
        <time>2019-05-05T14:20:43Z</time>
      </trkpt>
      <trkpt lat="53.906433032825589" lon="9.089932003989816">
        <ele>-5.15</ele>
        <time>2019-05-05T14:20:50Z</time>
      </trkpt>
      <trkpt lat="53.90650101006031" lon="9.09011397510767">
        <ele>-5.15</ele>
        <time>2019-05-05T14:20:51Z</time>
      </trkpt>
      <trkpt lat="53.90650101006031" lon="9.09011397510767">
        <ele>-5.15</ele>
        <time>2019-05-05T14:20:52Z</time>
      </trkpt>
      <trkpt lat="53.906567981466651" lon="9.090169966220856">
        <ele>-5.15</ele>
        <time>2019-05-05T14:20:54Z</time>
      </trkpt>
      <trkpt lat="53.906636964529753" lon="9.090216988697648">
        <ele>-5.15</ele>
        <time>2019-05-05T14:20:55Z</time>
      </trkpt>
      <trkpt lat="53.9066949672997" lon="9.090188993141055">
        <ele>-5.15</ele>
        <time>2019-05-05T14:20:56Z</time>
      </trkpt>
      <trkpt lat="53.906749030575156" lon="9.090093020349741">
        <ele>-5.15</ele>
        <time>2019-05-05T14:20:57Z</time>
      </trkpt>
      <trkpt lat="53.906785994768143" lon="9.090001992881298">
        <ele>-4.67</ele>
        <time>2019-05-05T14:20:58Z</time>
      </trkpt>
      <trkpt lat="53.90675900503993" lon="9.089848017320037">
        <ele>-4.67</ele>
        <time>2019-05-05T14:20:59Z</time>
      </trkpt>
      <trkpt lat="53.906717011705041" lon="9.089730000123382">
        <ele>-4.67</ele>
        <time>2019-05-05T14:21:00Z</time>
      </trkpt>
      <trkpt lat="53.906650962308049" lon="9.089562026783824">
        <ele>-4.67</ele>
        <time>2019-05-05T14:21:01Z</time>
      </trkpt>
      <trkpt lat="53.90665196813643" lon="9.089364968240261">
        <ele>-4.67</ele>
        <time>2019-05-05T14:21:02Z</time>
      </trkpt>
      <trkpt lat="53.906653979793191" lon="9.089131029322743">
        <ele>-4.67</ele>
        <time>2019-05-05T14:21:03Z</time>
      </trkpt>
      <trkpt lat="53.906668983399868" lon="9.087202018126845">
        <ele>-5.63</ele>
        <time>2019-05-05T14:21:09Z</time>
      </trkpt>
      <trkpt lat="53.906790018081665" lon="9.083391018211842">
        <ele>-6.59</ele>
        <time>2019-05-05T14:21:18Z</time>
      </trkpt>
      <trkpt lat="53.907096963375807" lon="9.077249011024833">
        <ele>-4.19</ele>
        <time>2019-05-05T14:21:31Z</time>
      </trkpt>
      <trkpt lat="53.907409021630883" lon="9.071079008281231">
        <ele>-3.23</ele>
        <time>2019-05-05T14:21:44Z</time>
      </trkpt>
      <trkpt lat="53.907907996326685" lon="9.063776023685932">
        <ele>-1.79</ele>
        <time>2019-05-05T14:22:00Z</time>
      </trkpt>
      <trkpt lat="53.908638982102275" lon="9.060705984011293">
        <ele>-1.79</ele>
        <time>2019-05-05T14:22:07Z</time>
      </trkpt>
      <trkpt lat="53.909870032221079" lon="9.05752002261579">
        <ele>-1.79</ele>
        <time>2019-05-05T14:22:15Z</time>
      </trkpt>
      <trkpt lat="53.911629980430007" lon="9.054459035396576">
        <ele>-2.27</ele>
        <time>2019-05-05T14:22:24Z</time>
      </trkpt>
      <trkpt lat="53.91389099881053" lon="9.051736006513238">
        <ele>-2.75</ele>
        <time>2019-05-05T14:22:34Z</time>
      </trkpt>
      <trkpt lat="53.916506990790367" lon="9.049643967300654">
        <ele>-1.79</ele>
        <time>2019-05-05T14:22:45Z</time>
      </trkpt>
      <trkpt lat="53.918212037533522" lon="9.048391040414572">
        <ele>-0.34</ele>
        <time>2019-05-05T14:22:53Z</time>
      </trkpt>
      <trkpt lat="53.920240961015224" lon="9.046739973127842">
        <ele>0.62</ele>
        <time>2019-05-05T14:23:03Z</time>
      </trkpt>
      <trkpt lat="53.92205698415637" lon="9.045031992718577">
        <ele>-0.82</ele>
        <time>2019-05-05T14:23:12Z</time>
      </trkpt>
      <trkpt lat="53.923919023945928" lon="9.042939031496644">
        <ele>-0.34</ele>
        <time>2019-05-05T14:23:22Z</time>
      </trkpt>
      <trkpt lat="53.925024010241032" lon="9.041563980281353">
        <ele>0.14</ele>
        <time>2019-05-05T14:23:29Z</time>
      </trkpt>
      <trkpt lat="53.926449017599225" lon="9.039762960746884">
        <ele>0.14</ele>
        <time>2019-05-05T14:23:40Z</time>
      </trkpt>
      <trkpt lat="53.927656011655927" lon="9.038405008614063">
        <ele>1.1</ele>
        <time>2019-05-05T14:23:47Z</time>
      </trkpt>
      <trkpt lat="53.929534982889891" lon="9.036267036572099">
        <ele>1.1</ele>
        <time>2019-05-05T14:23:56Z</time>
      </trkpt>
      <trkpt lat="53.931029979139566" lon="9.034700961783528">
        <ele>1.1</ele>
        <time>2019-05-05T14:24:05Z</time>
      </trkpt>
      <trkpt lat="53.93256101757288" lon="9.033977016806603">
        <ele>0.62</ele>
        <time>2019-05-05T14:24:13Z</time>
      </trkpt>
      <trkpt lat="53.933787038549781" lon="9.032929027453065">
        <ele>-0.82</ele>
        <time>2019-05-05T14:24:20Z</time>
      </trkpt>
      <trkpt lat="53.935020016506314" lon="9.030992975458503">
        <ele>-0.82</ele>
        <time>2019-05-05T14:24:29Z</time>
      </trkpt>
      <trkpt lat="53.936313008889556" lon="9.029337968677282">
        <ele>-2.27</ele>
        <time>2019-05-05T14:24:39Z</time>
      </trkpt>
      <trkpt lat="53.937755031511188" lon="9.027841966599226">
        <ele>-2.27</ele>
        <time>2019-05-05T14:24:50Z</time>
      </trkpt>
      <trkpt lat="53.937880005687475" lon="9.027691008523107">
        <ele>-2.27</ele>
        <time>2019-05-05T14:24:51Z</time>
      </trkpt>
      <trkpt lat="53.938001962378621" lon="9.027541978284717">
        <ele>-1.79</ele>
        <time>2019-05-05T14:24:52Z</time>
      </trkpt>
      <trkpt lat="53.939127987250686" lon="9.02617396786809">
        <ele>0.14</ele>
        <time>2019-05-05T14:25:00Z</time>
      </trkpt>
      <trkpt lat="53.940386027097702" lon="9.024556009098887">
        <ele>0.62</ele>
        <time>2019-05-05T14:25:09Z</time>
      </trkpt>
      <trkpt lat="53.940692972391844" lon="9.024103973060846">
        <ele>0.14</ele>
        <time>2019-05-05T14:25:13Z</time>
      </trkpt>
      <trkpt lat="53.940741000697017" lon="9.024028033018112">
        <ele>-0.34</ele>
        <time>2019-05-05T14:25:14Z</time>
      </trkpt>
      <trkpt lat="53.940935963764787" lon="9.024102967232466">
        <ele>-0.34</ele>
        <time>2019-05-05T14:25:15Z</time>
      </trkpt>
      <trkpt lat="53.941025985404849" lon="9.02423900552094">
        <ele>-0.82</ele>
        <time>2019-05-05T14:25:16Z</time>
      </trkpt>
      <trkpt lat="53.941098991781473" lon="9.024217966943979">
        <ele>-0.82</ele>
        <time>2019-05-05T14:25:17Z</time>
      </trkpt>
      <trkpt lat="53.941208962351084" lon="9.024171028286219">
        <ele>-0.82</ele>
        <time>2019-05-05T14:25:18Z</time>
      </trkpt>
      <trkpt lat="53.941332008689642" lon="9.024076983332634">
        <ele>-1.3</ele>
        <time>2019-05-05T14:25:19Z</time>
      </trkpt>
      <trkpt lat="53.941467963159084" lon="9.023972963914275">
        <ele>-1.3</ele>
        <time>2019-05-05T14:25:20Z</time>
      </trkpt>
      <trkpt lat="53.943069996312261" lon="9.022697992622852">
        <ele>-0.82</ele>
        <time>2019-05-05T14:25:30Z</time>
      </trkpt>
      <trkpt lat="53.94422996789217" lon="9.021633993834257">
        <ele>-2.27</ele>
        <time>2019-05-05T14:25:38Z</time>
      </trkpt>
      <trkpt lat="53.945072013884783" lon="9.020483996719122">
        <ele>-0.82</ele>
        <time>2019-05-05T14:25:47Z</time>
      </trkpt>
      <trkpt lat="53.945566965267062" lon="9.019843032583594">
        <ele>-0.82</ele>
        <time>2019-05-05T14:25:52Z</time>
      </trkpt>
      <trkpt lat="53.946360982954502" lon="9.019264010712504">
        <ele>-0.82</ele>
        <time>2019-05-05T14:25:59Z</time>
      </trkpt>
      <trkpt lat="53.946482017636299" lon="9.01923400349915">
        <ele>-1.3</ele>
        <time>2019-05-05T14:26:00Z</time>
      </trkpt>
      <trkpt lat="53.946606991812587" lon="9.019225034862757">
        <ele>-1.79</ele>
        <time>2019-05-05T14:26:01Z</time>
      </trkpt>
      <trkpt lat="53.947350969538093" lon="9.019171977415681">
        <ele>-3.71</ele>
        <time>2019-05-05T14:26:07Z</time>
      </trkpt>
      <trkpt lat="53.947466975077987" lon="9.019113974645734">
        <ele>-3.71</ele>
        <time>2019-05-05T14:26:08Z</time>
      </trkpt>
      <trkpt lat="53.947582980617881" lon="9.019048009067774">
        <ele>-3.71</ele>
        <time>2019-05-05T14:26:09Z</time>
      </trkpt>
      <trkpt lat="53.947695968672633" lon="9.018983971327543">
        <ele>-3.71</ele>
        <time>2019-05-05T14:26:10Z</time>
      </trkpt>
      <trkpt lat="53.947775010019541" lon="9.01882597245276">
        <ele>-3.71</ele>
        <time>2019-05-05T14:26:11Z</time>
      </trkpt>
      <trkpt lat="53.947852961719036" lon="9.018665039911866">
        <ele>-3.23</ele>
        <time>2019-05-05T14:26:12Z</time>
      </trkpt>
      <trkpt lat="53.947932003065944" lon="9.018504023551941">
        <ele>-3.23</ele>
        <time>2019-05-05T14:26:13Z</time>
      </trkpt>
      <trkpt lat="53.948927018791437" lon="9.016361022368074">
        <ele>-2.27</ele>
        <time>2019-05-05T14:26:26Z</time>
      </trkpt>
      <trkpt lat="53.949788007885218" lon="9.014553967863321">
        <ele>0.62</ele>
        <time>2019-05-05T14:26:37Z</time>
      </trkpt>
      <trkpt lat="53.950163014233112" lon="9.014014005661011">
        <ele>2.54</ele>
        <time>2019-05-05T14:26:41Z</time>
      </trkpt>
      <trkpt lat="53.951134979724884" lon="9.013100964948535">
        <ele>4.46</ele>
        <time>2019-05-05T14:26:50Z</time>
      </trkpt>
      <trkpt lat="53.951654992997646" lon="9.012670973315835">
        <ele>7.35</ele>
        <time>2019-05-05T14:26:57Z</time>
      </trkpt>
      <trkpt lat="53.951746020466089" lon="9.012569971382618">
        <ele>8.310000000000001</ele>
        <time>2019-05-05T14:26:59Z</time>
      </trkpt>
      <trkpt lat="53.951782984659076" lon="9.012528983876109">
        <ele>8.310000000000001</ele>
        <time>2019-05-05T14:27:00Z</time>
      </trkpt>
      <trkpt lat="53.951816009357572" lon="9.012491013854742">
        <ele>8.789999999999999</ele>
        <time>2019-05-05T14:27:01Z</time>
      </trkpt>
      <trkpt lat="53.951844004914165" lon="9.012460000813007">
        <ele>8.789999999999999</ele>
        <time>2019-05-05T14:27:02Z</time>
      </trkpt>
      <trkpt lat="53.951864959672093" lon="9.012437034398317">
        <ele>9.27</ele>
        <time>2019-05-05T14:27:03Z</time>
      </trkpt>
      <trkpt lat="53.951866971328855" lon="9.012329997494817">
        <ele>10.23</ele>
        <time>2019-05-05T14:27:09Z</time>
      </trkpt>
      <trkpt lat="53.951846016570926" lon="9.012224972248077">
        <ele>10.23</ele>
        <time>2019-05-05T14:27:10Z</time>
      </trkpt>
      <trkpt lat="53.95181399770081" lon="9.012103015556932">
        <ele>10.23</ele>
        <time>2019-05-05T14:27:11Z</time>
      </trkpt>
      <trkpt lat="53.951650969684124" lon="9.011516030877829">
        <ele>10.710000000000001</ele>
        <time>2019-05-05T14:27:15Z</time>
      </trkpt>
      <trkpt lat="53.95162096247077" lon="9.011339005082846">
        <ele>10.710000000000001</ele>
        <time>2019-05-05T14:27:16Z</time>
      </trkpt>
      <trkpt lat="53.951607970520854" lon="9.011157033964992">
        <ele>11.19</ele>
        <time>2019-05-05T14:27:17Z</time>
      </trkpt>
      <trkpt lat="53.951583998277783" lon="9.010784961283207">
        <ele>11.19</ele>
        <time>2019-05-05T14:27:19Z</time>
      </trkpt>
      <trkpt lat="53.95155499689281" lon="9.010609025135636">
        <ele>11.19</ele>
        <time>2019-05-05T14:27:20Z</time>
      </trkpt>
      <trkpt lat="53.951218966394663" lon="9.009326007217169">
        <ele>10.23</ele>
        <time>2019-05-05T14:27:28Z</time>
      </trkpt>
      <trkpt lat="53.951218966394663" lon="9.009263981133699">
        <ele>10.23</ele>
        <time>2019-05-05T14:27:29Z</time>
      </trkpt>
      <trkpt lat="53.951218966394663" lon="9.009190974757075">
        <ele>9.75</ele>
        <time>2019-05-05T14:27:30Z</time>
      </trkpt>
      <trkpt lat="53.951222989708185" lon="9.009095001965761">
        <ele>8.789999999999999</ele>
        <time>2019-05-05T14:27:39Z</time>
      </trkpt>
      <trkpt lat="53.951228018850088" lon="9.0089410264045">
        <ele>8.789999999999999</ele>
        <time>2019-05-05T14:27:45Z</time>
      </trkpt>
      <trkpt lat="53.951231958344579" lon="9.008847987279296">
        <ele>8.789999999999999</ele>
        <time>2019-05-05T14:27:46Z</time>
      </trkpt>
      <trkpt lat="53.95123497582972" lon="9.008751008659601">
        <ele>8.310000000000001</ele>
        <time>2019-05-05T14:27:47Z</time>
      </trkpt>
      <trkpt lat="53.951373025774956" lon="9.008610025048256">
        <ele>8.310000000000001</ele>
        <time>2019-05-05T14:27:48Z</time>
      </trkpt>
      <trkpt lat="53.951456006616354" lon="9.008606001734734">
        <ele>8.310000000000001</ele>
        <time>2019-05-05T14:27:49Z</time>
      </trkpt>
      <trkpt lat="53.951561031863093" lon="9.00859996676445">
        <ele>7.83</ele>
        <time>2019-05-05T14:27:50Z</time>
      </trkpt>
      <trkpt lat="53.95168399438262" lon="9.008593009784818">
        <ele>7.83</ele>
        <time>2019-05-05T14:27:51Z</time>
      </trkpt>
      <trkpt lat="53.952999031171203" lon="9.008542969822884">
        <ele>-1.3</ele>
        <time>2019-05-05T14:28:02Z</time>
      </trkpt>
      <trkpt lat="53.953686011955142" lon="9.008725024759769">
        <ele>-3.71</ele>
        <time>2019-05-05T14:28:08Z</time>
      </trkpt>
      <trkpt lat="53.953795982524753" lon="9.008708009496331">
        <ele>-4.19</ele>
        <time>2019-05-05T14:28:09Z</time>
      </trkpt>
      <trkpt lat="53.955113030970097" lon="9.008411038666964">
        <ele>-5.15</ele>
        <time>2019-05-05T14:28:19Z</time>
      </trkpt>
      <trkpt lat="53.956455979496241" lon="9.008029997348785">
        <ele>-5.15</ele>
        <time>2019-05-05T14:28:30Z</time>
      </trkpt>
      <trkpt lat="53.958288012072444" lon="9.007504032924771">
        <ele>-3.23</ele>
        <time>2019-05-05T14:28:45Z</time>
      </trkpt>
      <trkpt lat="53.959750989452004" lon="9.007123997434974">
        <ele>-2.75</ele>
        <time>2019-05-05T14:28:57Z</time>
      </trkpt>
      <trkpt lat="53.961000982671976" lon="9.00713698938489">
        <ele>-2.27</ele>
        <time>2019-05-05T14:29:07Z</time>
      </trkpt>
      <trkpt lat="53.962354995310307" lon="9.00733295828104">
        <ele>5.42</ele>
        <time>2019-05-05T14:29:17Z</time>
      </trkpt>
      <trkpt lat="53.963945964351296" lon="9.007579972967506">
        <ele>13.6</ele>
        <time>2019-05-05T14:29:25Z</time>
      </trkpt>
      <trkpt lat="53.966174963861704" lon="9.007908962666988">
        <ele>12.630000000000001</ele>
        <time>2019-05-05T14:29:34Z</time>
      </trkpt>
      <trkpt lat="53.967527970671654" lon="9.008450014516711">
        <ele>10.710000000000001</ele>
        <time>2019-05-05T14:29:40Z</time>
      </trkpt>
      <trkpt lat="53.969285991042852" lon="9.009820036590099">
        <ele>5.91</ele>
        <time>2019-05-05T14:29:49Z</time>
      </trkpt>
      <trkpt lat="53.971261018887162" lon="9.011156028136611">
        <ele>2.06</ele>
        <time>2019-05-05T14:30:00Z</time>
      </trkpt>
      <trkpt lat="53.973005963489413" lon="9.011915009468794">
        <ele>-0.82</ele>
        <time>2019-05-05T14:30:10Z</time>
      </trkpt>
      <trkpt lat="53.974925000220537" lon="9.0127660240978">
        <ele>-3.23</ele>
        <time>2019-05-05T14:30:21Z</time>
      </trkpt>
      <trkpt lat="53.976827021688223" lon="9.013606980443001">
        <ele>-2.75</ele>
        <time>2019-05-05T14:30:32Z</time>
      </trkpt>
      <trkpt lat="53.97862896323204" lon="9.014245010912418">
        <ele>-3.71</ele>
        <time>2019-05-05T14:30:41Z</time>
      </trkpt>
      <trkpt lat="53.980834996327758" lon="9.014938026666641">
        <ele>-4.67</ele>
        <time>2019-05-05T14:30:50Z</time>
      </trkpt>
      <trkpt lat="53.983199028298259" lon="9.01566700078547">
        <ele>-3.71</ele>
        <time>2019-05-05T14:31:00Z</time>
      </trkpt>
      <trkpt lat="53.983959015458822" lon="9.015998002141714">
        <ele>-4.19</ele>
        <time>2019-05-05T14:31:04Z</time>
      </trkpt>
      <trkpt lat="53.984137969091535" lon="9.016145020723343">
        <ele>-4.67</ele>
        <time>2019-05-05T14:31:05Z</time>
      </trkpt>
      <trkpt lat="53.984312983229756" lon="9.016308970749378">
        <ele>-4.67</ele>
        <time>2019-05-05T14:31:06Z</time>
      </trkpt>
      <trkpt lat="53.985978970304132" lon="9.01790396310389">
        <ele>-4.67</ele>
        <time>2019-05-05T14:31:14Z</time>
      </trkpt>
      <trkpt lat="53.988405028358102" lon="9.019883014261723">
        <ele>-4.19</ele>
        <time>2019-05-05T14:31:23Z</time>
      </trkpt>
      <trkpt lat="53.992630010470748" lon="9.023124966770411">
        <ele>-4.19</ele>
        <time>2019-05-05T14:31:38Z</time>
      </trkpt>
      <trkpt lat="53.994284011423588" lon="9.023832986131311">
        <ele>-4.19</ele>
        <time>2019-05-05T14:31:44Z</time>
      </trkpt>
      <trkpt lat="53.996431035920978" lon="9.024205980822444">
        <ele>-3.71</ele>
        <time>2019-05-05T14:31:52Z</time>
      </trkpt>
      <trkpt lat="53.997903987765312" lon="9.024524996057153">
        <ele>-3.23</ele>
        <time>2019-05-05T14:32:00Z</time>
      </trkpt>
      <trkpt lat="53.999562012031674" lon="9.025346003472805">
        <ele>-4.67</ele>
        <time>2019-05-05T14:32:10Z</time>
      </trkpt>
      <trkpt lat="54.001603005453944" lon="9.026339007541537">
        <ele>-4.19</ele>
        <time>2019-05-05T14:32:21Z</time>
      </trkpt>
      <trkpt lat="54.003460016101599" lon="9.027211982756853">
        <ele>-3.71</ele>
        <time>2019-05-05T14:32:28Z</time>
      </trkpt>
      <trkpt lat="54.005867969244719" lon="9.02810700237751">
        <ele>-4.19</ele>
        <time>2019-05-05T14:32:36Z</time>
      </trkpt>
      <trkpt lat="54.009126015007496" lon="9.028315041214228">
        <ele>-0.34</ele>
        <time>2019-05-05T14:32:47Z</time>
      </trkpt>
      <trkpt lat="54.010954024270177" lon="9.028933960944414">
        <ele>1.58</ele>
        <time>2019-05-05T14:32:54Z</time>
      </trkpt>
      <trkpt lat="54.01416203007102" lon="9.030721988528967">
        <ele>-1.3</ele>
        <time>2019-05-05T14:33:06Z</time>
      </trkpt>
      <trkpt lat="54.016925962641835" lon="9.032191000878811">
        <ele>-2.75</ele>
        <time>2019-05-05T14:33:17Z</time>
      </trkpt>
      <trkpt lat="54.019209025427699" lon="9.033379973843694">
        <ele>-2.75</ele>
        <time>2019-05-05T14:33:28Z</time>
      </trkpt>
      <trkpt lat="54.02065197005868" lon="9.034233000129461">
        <ele>-2.27</ele>
        <time>2019-05-05T14:33:35Z</time>
      </trkpt>
      <trkpt lat="54.022599002346396" lon="9.035416021943092">
        <ele>-3.71</ele>
        <time>2019-05-05T14:33:45Z</time>
      </trkpt>
      <trkpt lat="54.024207992479205" lon="9.036439033225179">
        <ele>-3.71</ele>
        <time>2019-05-05T14:33:52Z</time>
      </trkpt>
      <trkpt lat="54.026273963972926" lon="9.037841996178031">
        <ele>-5.15</ele>
        <time>2019-05-05T14:34:01Z</time>
      </trkpt>
      <trkpt lat="54.028507992625237" lon="9.038741961121559">
        <ele>-4.67</ele>
        <time>2019-05-05T14:34:10Z</time>
      </trkpt>
      <trkpt lat="54.032054962590337" lon="9.040111983194947">
        <ele>-6.11</ele>
        <time>2019-05-05T14:34:24Z</time>
      </trkpt>
      <trkpt lat="54.033861011266708" lon="9.040770968422294">
        <ele>-6.11</ele>
        <time>2019-05-05T14:34:32Z</time>
      </trkpt>
      <trkpt lat="54.035879038274288" lon="9.040929973125458">
        <ele>-5.63</ele>
        <time>2019-05-05T14:34:43Z</time>
      </trkpt>
      <trkpt lat="54.038186995312572" lon="9.041109010577202">
        <ele>-4.19</ele>
        <time>2019-05-05T14:34:55Z</time>
      </trkpt>
      <trkpt lat="54.040994010865688" lon="9.041304979473352">
        <ele>-1.79</ele>
        <time>2019-05-05T14:35:09Z</time>
      </trkpt>
      <trkpt lat="54.043437000364065" lon="9.041499020531774">
        <ele>2.54</ele>
        <time>2019-05-05T14:35:21Z</time>
      </trkpt>
      <trkpt lat="54.045505989342928" lon="9.041609996929765">
        <ele>3.5</ele>
        <time>2019-05-05T14:35:29Z</time>
      </trkpt>
      <trkpt lat="54.049396030604839" lon="9.041801020503044">
        <ele>2.54</ele>
        <time>2019-05-05T14:35:44Z</time>
      </trkpt>
      <trkpt lat="54.053338961675763" lon="9.041944015771151">
        <ele>1.1</ele>
        <time>2019-05-05T14:35:59Z</time>
      </trkpt>
      <trkpt lat="54.05638100579381" lon="9.042067984119058">
        <ele>1.1</ele>
        <time>2019-05-05T14:36:10Z</time>
      </trkpt>
      <trkpt lat="54.059455990791321" lon="9.042323967441917">
        <ele>1.1</ele>
        <time>2019-05-05T14:36:21Z</time>
      </trkpt>
      <trkpt lat="54.061906021088362" lon="9.043556023389101">
        <ele>-0.82</ele>
        <time>2019-05-05T14:36:30Z</time>
      </trkpt>
      <trkpt lat="54.065365986898541" lon="9.045305997133255">
        <ele>1.58</ele>
        <time>2019-05-05T14:36:43Z</time>
      </trkpt>
      <trkpt lat="54.06701403670013" lon="9.045576984062791">
        <ele>1.58</ele>
        <time>2019-05-05T14:36:49Z</time>
      </trkpt>
      <trkpt lat="54.069593986496329" lon="9.045739006251097">
        <ele>0.14</ele>
        <time>2019-05-05T14:36:59Z</time>
      </trkpt>
      <trkpt lat="54.070760998874903" lon="9.045946039259434">
        <ele>1.1</ele>
        <time>2019-05-05T14:37:06Z</time>
      </trkpt>
      <trkpt lat="54.071870008483529" lon="9.04641198925674">
        <ele>1.1</ele>
        <time>2019-05-05T14:37:15Z</time>
      </trkpt>
      <trkpt lat="54.073262996971607" lon="9.04720600694418">
        <ele>-3.71</ele>
        <time>2019-05-05T14:37:27Z</time>
      </trkpt>
      <trkpt lat="54.074249966070056" lon="9.048074958845973">
        <ele>-3.23</ele>
        <time>2019-05-05T14:37:35Z</time>
      </trkpt>
      <trkpt lat="54.075419995933771" lon="9.049240965396166">
        <ele>-2.27</ele>
        <time>2019-05-05T14:37:42Z</time>
      </trkpt>
      <trkpt lat="54.077331991866231" lon="9.051157990470529">
        <ele>-2.27</ele>
        <time>2019-05-05T14:37:51Z</time>
      </trkpt>
      <trkpt lat="54.079340966418386" lon="9.053520010784268">
        <ele>-2.75</ele>
        <time>2019-05-05T14:38:00Z</time>
      </trkpt>
      <trkpt lat="54.079524027183652" lon="9.053876996040344">
        <ele>-3.23</ele>
        <time>2019-05-05T14:38:01Z</time>
      </trkpt>
      <trkpt lat="54.079700969159603" lon="9.054241022095084">
        <ele>-3.71</ele>
        <time>2019-05-05T14:38:02Z</time>
      </trkpt>
      <trkpt lat="54.080925984308124" lon="9.057982033118606">
        <ele>-6.11</ele>
        <time>2019-05-05T14:38:11Z</time>
      </trkpt>
      <trkpt lat="54.081843970343471" lon="9.060511020943523">
        <ele>-6.59</ele>
        <time>2019-05-05T14:38:18Z</time>
      </trkpt>
      <trkpt lat="54.082664977759123" lon="9.062294019386172">
        <ele>-6.59</ele>
        <time>2019-05-05T14:38:24Z</time>
      </trkpt>
      <trkpt lat="54.08332304097712" lon="9.06366404145956">
        <ele>-8.029999999999999</ele>
        <time>2019-05-05T14:38:31Z</time>
      </trkpt>
      <trkpt lat="54.084306992590427" lon="9.065838977694511">
        <ele>-10.44</ele>
        <time>2019-05-05T14:38:44Z</time>
      </trkpt>
      <trkpt lat="54.085445003584027" lon="9.067421983927488">
        <ele>-10.92</ele>
        <time>2019-05-05T14:38:56Z</time>
      </trkpt>
      <trkpt lat="54.085869966074824" lon="9.067852981388569">
        <ele>-11.4</ele>
        <time>2019-05-05T14:39:00Z</time>
      </trkpt>
      <trkpt lat="54.086860036477447" lon="9.068754035979509">
        <ele>-9.960000000000001</ele>
        <time>2019-05-05T14:39:09Z</time>
      </trkpt>
      <trkpt lat="54.08697796985507" lon="9.068813966587186">
        <ele>-9.48</ele>
        <time>2019-05-05T14:39:10Z</time>
      </trkpt>
      <trkpt lat="54.087099004536867" lon="9.068855959922075">
        <ele>-9</ele>
        <time>2019-05-05T14:39:11Z</time>
      </trkpt>
      <trkpt lat="54.087220961228013" lon="9.068898959085345">
        <ele>-8.51</ele>
        <time>2019-05-05T14:39:12Z</time>
      </trkpt>
      <trkpt lat="54.087339984253049" lon="9.068900970742106">
        <ele>-8.51</ele>
        <time>2019-05-05T14:39:13Z</time>
      </trkpt>
      <trkpt lat="54.087460013106465" lon="9.068883033469319">
        <ele>-8.029999999999999</ele>
        <time>2019-05-05T14:39:14Z</time>
      </trkpt>
      <trkpt lat="54.087583981454372" lon="9.06886400654912">
        <ele>-7.55</ele>
        <time>2019-05-05T14:39:15Z</time>
      </trkpt>
      <trkpt lat="54.087705016136169" lon="9.068844979628921">
        <ele>-7.55</ele>
        <time>2019-05-05T14:39:16Z</time>
      </trkpt>
      <trkpt lat="54.087825966998935" lon="9.068826036527753">
        <ele>-7.55</ele>
        <time>2019-05-05T14:39:17Z</time>
      </trkpt>
      <trkpt lat="54.089057017117739" lon="9.068698966875672">
        <ele>-3.71</ele>
        <time>2019-05-05T14:39:27Z</time>
      </trkpt>
      <trkpt lat="54.090669024735689" lon="9.068837016820908">
        <ele>-3.23</ele>
        <time>2019-05-05T14:39:40Z</time>
      </trkpt>
      <trkpt lat="54.091278975829482" lon="9.069002978503704">
        <ele>-2.75</ele>
        <time>2019-05-05T14:39:45Z</time>
      </trkpt>
      <trkpt lat="54.092014990746975" lon="9.069202970713377">
        <ele>-0.34</ele>
        <time>2019-05-05T14:39:51Z</time>
      </trkpt>
      <trkpt lat="54.092128984630108" lon="9.06916500069201">
        <ele>0.14</ele>
        <time>2019-05-05T14:39:52Z</time>
      </trkpt>
      <trkpt lat="54.092225963249803" lon="9.069108003750444">
        <ele>0.14</ele>
        <time>2019-05-05T14:39:53Z</time>
      </trkpt>
      <trkpt lat="54.092443976551294" lon="9.06892997212708">
        <ele>0.14</ele>
        <time>2019-05-05T14:39:56Z</time>
      </trkpt>
      <trkpt lat="54.09249602816999" lon="9.068887978792191">
        <ele>-0.34</ele>
        <time>2019-05-05T14:39:57Z</time>
      </trkpt>
      <trkpt lat="54.092504996806383" lon="9.068810027092695">
        <ele>-0.34</ele>
        <time>2019-05-05T14:39:58Z</time>
      </trkpt>
      <trkpt lat="54.092478007078171" lon="9.068683963268995">
        <ele>-0.34</ele>
        <time>2019-05-05T14:39:59Z</time>
      </trkpt>
      <trkpt lat="54.092445988208055" lon="9.068537028506398">
        <ele>-0.34</ele>
        <time>2019-05-05T14:40:00Z</time>
      </trkpt>
      <trkpt lat="54.09241002984345" lon="9.06837098300457">
        <ele>-0.34</ele>
        <time>2019-05-05T14:40:01Z</time>
      </trkpt>
      <trkpt lat="54.092384967952967" lon="9.068170990794897">
        <ele>-0.82</ele>
        <time>2019-05-05T14:40:02Z</time>
      </trkpt>
      <trkpt lat="54.092378010973334" lon="9.067969992756844">
        <ele>-0.82</ele>
        <time>2019-05-05T14:40:03Z</time>
      </trkpt>
      <trkpt lat="54.09237097017467" lon="9.067760026082397">
        <ele>-0.34</ele>
        <time>2019-05-05T14:40:04Z</time>
      </trkpt>
      <trkpt lat="54.092363007366657" lon="9.067545030266047">
        <ele>-0.34</ele>
        <time>2019-05-05T14:40:05Z</time>
      </trkpt>
      <trkpt lat="54.092354960739613" lon="9.067328022792935">
        <ele>0.14</ele>
        <time>2019-05-05T14:40:06Z</time>
      </trkpt>
      <trkpt lat="54.092311039566994" lon="9.06456702388823">
        <ele>-0.34</ele>
        <time>2019-05-05T14:40:19Z</time>
      </trkpt>
      <trkpt lat="54.092291006818414" lon="9.061826979741454">
        <ele>-0.82</ele>
        <time>2019-05-05T14:40:32Z</time>
      </trkpt>
      <trkpt lat="54.092375999316573" lon="9.059728989377618">
        <ele>-0.82</ele>
        <time>2019-05-05T14:40:41Z</time>
      </trkpt>
      <trkpt lat="54.092899030074477" lon="9.057409968227148">
        <ele>0.14</ele>
        <time>2019-05-05T14:40:48Z</time>
      </trkpt>
      <trkpt lat="54.093885999172926" lon="9.053182974457741">
        <ele>0.14</ele>
        <time>2019-05-05T14:40:59Z</time>
      </trkpt>
      <trkpt lat="54.093923969194293" lon="9.052806962281466">
        <ele>0.14</ele>
        <time>2019-05-05T14:41:00Z</time>
      </trkpt>
      <trkpt lat="54.093921035528183" lon="9.052415024489164">
        <ele>0.14</ele>
        <time>2019-05-05T14:41:01Z</time>
      </trkpt>
      <trkpt lat="54.093903014436364" lon="9.051212975755334">
        <ele>0.14</ele>
        <time>2019-05-05T14:41:04Z</time>
      </trkpt>
      <trkpt lat="54.093922963365912" lon="9.050792958587408">
        <ele>0.14</ele>
        <time>2019-05-05T14:41:05Z</time>
      </trkpt>
      <trkpt lat="54.094377011060715" lon="9.047574978321791">
        <ele>-0.34</ele>
        <time>2019-05-05T14:41:13Z</time>
      </trkpt>
      <trkpt lat="54.094639029353857" lon="9.045478999614716">
        <ele>-0.82</ele>
        <time>2019-05-05T14:41:20Z</time>
      </trkpt>
      <trkpt lat="54.094501985237002" lon="9.043504977598786">
        <ele>-1.79</ele>
        <time>2019-05-05T14:41:27Z</time>
      </trkpt>
      <trkpt lat="54.094048021361232" lon="9.04159901663661">
        <ele>-2.75</ele>
        <time>2019-05-05T14:41:34Z</time>
      </trkpt>
      <trkpt lat="54.094040980562568" lon="9.041300034150481">
        <ele>-2.75</ele>
        <time>2019-05-05T14:41:35Z</time>
      </trkpt>
      <trkpt lat="54.094040980562568" lon="9.041011026129127">
        <ele>-3.23</ele>
        <time>2019-05-05T14:41:36Z</time>
      </trkpt>
      <trkpt lat="54.094054978340864" lon="9.04071799479425">
        <ele>-3.23</ele>
        <time>2019-05-05T14:41:37Z</time>
      </trkpt>
      <trkpt lat="54.094117004424334" lon="9.040446002036333">
        <ele>-3.23</ele>
        <time>2019-05-05T14:41:38Z</time>
      </trkpt>
      <trkpt lat="54.094179030507803" lon="9.040167974308133">
        <ele>-3.23</ele>
        <time>2019-05-05T14:41:39Z</time>
      </trkpt>
      <trkpt lat="54.094535009935498" lon="9.03874397277832">
        <ele>-3.71</ele>
        <time>2019-05-05T14:41:44Z</time>
      </trkpt>
      <trkpt lat="54.094628971070051" lon="9.038472985848784">
        <ele>-3.71</ele>
        <time>2019-05-05T14:41:45Z</time>
      </trkpt>
      <trkpt lat="54.094766015186906" lon="9.038262013345957">
        <ele>-4.19</ele>
        <time>2019-05-05T14:41:46Z</time>
      </trkpt>
      <trkpt lat="54.094905992969871" lon="9.038064032793045">
        <ele>-4.67</ele>
        <time>2019-05-05T14:41:47Z</time>
      </trkpt>
      <trkpt lat="54.095059968531132" lon="9.037884995341301">
        <ele>-4.67</ele>
        <time>2019-05-05T14:41:48Z</time>
      </trkpt>
      <trkpt lat="54.095230037346482" lon="9.037768989801407">
        <ele>-5.15</ele>
        <time>2019-05-05T14:41:49Z</time>
      </trkpt>
      <trkpt lat="54.095408990979195" lon="9.03768902644515">
        <ele>-5.15</ele>
        <time>2019-05-05T14:41:50Z</time>
      </trkpt>
      <trkpt lat="54.095589034259319" lon="9.037623982876539">
        <ele>-4.67</ele>
        <time>2019-05-05T14:41:51Z</time>
      </trkpt>
      <trkpt lat="54.095780979841948" lon="9.037605039775372">
        <ele>-4.67</ele>
        <time>2019-05-05T14:41:52Z</time>
      </trkpt>
      <trkpt lat="54.09759197384119" lon="9.037441005930305">
        <ele>-4.19</ele>
        <time>2019-05-05T14:42:00Z</time>
      </trkpt>
      <trkpt lat="54.098764015361667" lon="9.037299016490579">
        <ele>-4.19</ele>
        <time>2019-05-05T14:42:05Z</time>
      </trkpt>
      <trkpt lat="54.098956966772676" lon="9.037177981808782">
        <ele>-4.19</ele>
        <time>2019-05-05T14:42:06Z</time>
      </trkpt>
      <trkpt lat="54.099147990345955" lon="9.037048984318972">
        <ele>-3.71</ele>
        <time>2019-05-05T14:42:07Z</time>
      </trkpt>
      <trkpt lat="54.09933197312057" lon="9.036865001544356">
        <ele>-3.71</ele>
        <time>2019-05-05T14:42:08Z</time>
      </trkpt>
      <trkpt lat="54.099526014178991" lon="9.036670960485935">
        <ele>-3.71</ele>
        <time>2019-05-05T14:42:09Z</time>
      </trkpt>
      <trkpt lat="54.101391993463039" lon="9.03444598428905">
        <ele>-1.79</ele>
        <time>2019-05-05T14:42:18Z</time>
      </trkpt>
      <trkpt lat="54.103582017123699" lon="9.031858993694186">
        <ele>-1.3</ele>
        <time>2019-05-05T14:42:29Z</time>
      </trkpt>
      <trkpt lat="54.104790017008781" lon="9.030659962445498">
        <ele>-0.82</ele>
        <time>2019-05-05T14:42:37Z</time>
      </trkpt>
      <trkpt lat="54.10590598359704" lon="9.029794028028846">
        <ele>-0.34</ele>
        <time>2019-05-05T14:42:46Z</time>
      </trkpt>
      <trkpt lat="54.107340965420008" lon="9.028838993981481">
        <ele>-0.34</ele>
        <time>2019-05-05T14:42:57Z</time>
      </trkpt>
      <trkpt lat="54.108599005267024" lon="9.027566034346819">
        <ele>0.14</ele>
        <time>2019-05-05T14:43:07Z</time>
      </trkpt>
      <trkpt lat="54.109658980742097" lon="9.025930976495147">
        <ele>-1.3</ele>
        <time>2019-05-05T14:43:17Z</time>
      </trkpt>
      <trkpt lat="54.110283013433218" lon="9.024743009358645">
        <ele>-1.3</ele>
        <time>2019-05-05T14:43:22Z</time>
      </trkpt>
      <trkpt lat="54.111391017213464" lon="9.022342013195157">
        <ele>0.62</ele>
        <time>2019-05-05T14:43:34Z</time>
      </trkpt>
      <trkpt lat="54.111793013289571" lon="9.020699998363853">
        <ele>0.62</ele>
        <time>2019-05-05T14:43:40Z</time>
      </trkpt>
      <trkpt lat="54.112227028235793" lon="9.018491031602025">
        <ele>-0.34</ele>
        <time>2019-05-05T14:43:47Z</time>
      </trkpt>
      <trkpt lat="54.112782999873161" lon="9.016667967662215">
        <ele>-0.82</ele>
        <time>2019-05-05T14:43:55Z</time>
      </trkpt>
      <trkpt lat="54.113301001489162" lon="9.015777977183461">
        <ele>-0.82</ele>
        <time>2019-05-05T14:44:01Z</time>
      </trkpt>
      <trkpt lat="54.114335998892784" lon="9.014661004766822">
        <ele>-1.79</ele>
        <time>2019-05-05T14:44:11Z</time>
      </trkpt>
      <trkpt lat="54.115115012973547" lon="9.013980980962515">
        <ele>-2.27</ele>
        <time>2019-05-05T14:44:18Z</time>
      </trkpt>
      <trkpt lat="54.115248033776879" lon="9.013936975970864">
        <ele>-2.75</ele>
        <time>2019-05-05T14:44:19Z</time>
      </trkpt>
      <trkpt lat="54.115389017388225" lon="9.013914009556174">
        <ele>-2.75</ele>
        <time>2019-05-05T14:44:20Z</time>
      </trkpt>
      <trkpt lat="54.115534024313092" lon="9.01390696875751">
        <ele>-2.75</ele>
        <time>2019-05-05T14:44:21Z</time>
      </trkpt>
      <trkpt lat="54.115683976560831" lon="9.013900011777878">
        <ele>-2.75</ele>
        <time>2019-05-05T14:44:22Z</time>
      </trkpt>
      <trkpt lat="54.115838035941124" lon="9.013920966535807">
        <ele>-2.75</ele>
        <time>2019-05-05T14:44:23Z</time>
      </trkpt>
      <trkpt lat="54.115992011502385" lon="9.01396899484098">
        <ele>-2.27</ele>
        <time>2019-05-05T14:44:24Z</time>
      </trkpt>
      <trkpt lat="54.117722036316991" lon="9.014509040862322">
        <ele>0.14</ele>
        <time>2019-05-05T14:44:34Z</time>
      </trkpt>
      <trkpt lat="54.119127010926604" lon="9.01515000499785">
        <ele>-0.34</ele>
        <time>2019-05-05T14:44:40Z</time>
      </trkpt>
      <trkpt lat="54.121034983545542" lon="9.016806017607451">
        <ele>-0.82</ele>
        <time>2019-05-05T14:44:48Z</time>
      </trkpt>
      <trkpt lat="54.122124966233969" lon="9.017660971730948">
        <ele>-1.3</ele>
        <time>2019-05-05T14:44:53Z</time>
      </trkpt>
      <trkpt lat="54.122334010899067" lon="9.017739007249475">
        <ele>-1.3</ele>
        <time>2019-05-05T14:44:54Z</time>
      </trkpt>
      <trkpt lat="54.122561998665333" lon="9.017785023897886">
        <ele>-1.3</ele>
        <time>2019-05-05T14:44:55Z</time>
      </trkpt>
      <trkpt lat="54.122801972553134" lon="9.01777496561408">
        <ele>-1.3</ele>
        <time>2019-05-05T14:44:56Z</time>
      </trkpt>
      <trkpt lat="54.123056028038263" lon="9.017732972279191">
        <ele>-1.3</ele>
        <time>2019-05-05T14:44:57Z</time>
      </trkpt>
      <trkpt lat="54.126352965831757" lon="9.017155040055513">
        <ele>-0.82</ele>
        <time>2019-05-05T14:45:09Z</time>
      </trkpt>
      <trkpt lat="54.130076039582491" lon="9.016722030937672">
        <ele>0.14</ele>
        <time>2019-05-05T14:45:22Z</time>
      </trkpt>
      <trkpt lat="54.132119966670871" lon="9.016695963218808">
        <ele>-0.34</ele>
        <time>2019-05-05T14:45:30Z</time>
      </trkpt>
      <trkpt lat="54.136490961536765" lon="9.016638966277242">
        <ele>0.62</ele>
        <time>2019-05-05T14:45:46Z</time>
      </trkpt>
      <trkpt lat="54.140856005251408" lon="9.016593033447862">
        <ele>-3.23</ele>
        <time>2019-05-05T14:46:02Z</time>
      </trkpt>
      <trkpt lat="54.142175987362862" lon="9.016579035669565">
        <ele>-3.71</ele>
        <time>2019-05-05T14:46:08Z</time>
      </trkpt>
      <trkpt lat="54.143200004473329" lon="9.016557997092605">
        <ele>-4.19</ele>
        <time>2019-05-05T14:46:15Z</time>
      </trkpt>
      <trkpt lat="54.144295016303658" lon="9.016575012356043">
        <ele>-4.67</ele>
        <time>2019-05-05T14:46:24Z</time>
      </trkpt>
      <trkpt lat="54.144802037626505" lon="9.016562020406127">
        <ele>-3.71</ele>
        <time>2019-05-05T14:46:28Z</time>
      </trkpt>
      <trkpt lat="54.146399041637778" lon="9.016555985435844">
        <ele>-0.82</ele>
        <time>2019-05-05T14:46:41Z</time>
      </trkpt>
      <trkpt lat="54.14760896936059" lon="9.016660004854202">
        <ele>-0.82</ele>
        <time>2019-05-05T14:46:49Z</time>
      </trkpt>
      <trkpt lat="54.1494320333004" lon="9.01684801094234">
        <ele>-2.27</ele>
        <time>2019-05-05T14:46:58Z</time>
      </trkpt>
      <trkpt lat="54.149631019681692" lon="9.016841975972056">
        <ele>-2.27</ele>
        <time>2019-05-05T14:46:59Z</time>
      </trkpt>
      <trkpt lat="54.149827994406223" lon="9.016825966536999">
        <ele>-1.79</ele>
        <time>2019-05-05T14:47:00Z</time>
      </trkpt>
      <trkpt lat="54.150027986615896" lon="9.016724964603782">
        <ele>-2.27</ele>
        <time>2019-05-05T14:47:01Z</time>
      </trkpt>
      <trkpt lat="54.151663966476917" lon="9.015888031572104">
        <ele>-2.27</ele>
        <time>2019-05-05T14:47:08Z</time>
      </trkpt>
      <trkpt lat="54.153951974585652" lon="9.014671985059977">
        <ele>-0.82</ele>
        <time>2019-05-05T14:47:17Z</time>
      </trkpt>
      <trkpt lat="54.155602036044002" lon="9.013729020953178">
        <ele>0.14</ele>
        <time>2019-05-05T14:47:25Z</time>
      </trkpt>
      <trkpt lat="54.155913004651666" lon="9.01345300488174">
        <ele>-0.34</ele>
        <time>2019-05-05T14:47:27Z</time>
      </trkpt>
      <trkpt lat="54.156046025454998" lon="9.013247983530164">
        <ele>-0.34</ele>
        <time>2019-05-05T14:47:28Z</time>
      </trkpt>
      <trkpt lat="54.156182985752821" lon="9.013038016855717">
        <ele>-0.34</ele>
        <time>2019-05-05T14:47:29Z</time>
      </trkpt>
      <trkpt lat="54.156305026262999" lon="9.012797037139535">
        <ele>-0.34</ele>
        <time>2019-05-05T14:47:30Z</time>
      </trkpt>
      <trkpt lat="54.156418014317751" lon="9.012543987482786">
        <ele>-0.34</ele>
        <time>2019-05-05T14:47:31Z</time>
      </trkpt>
      <trkpt lat="54.15652303956449" lon="9.012218015268445">
        <ele>-0.82</ele>
        <time>2019-05-05T14:47:32Z</time>
      </trkpt>
      <trkpt lat="54.156626975163817" lon="9.011891959235072">
        <ele>-0.82</ele>
        <time>2019-05-05T14:47:33Z</time>
      </trkpt>
      <trkpt lat="54.157615033909678" lon="9.009787011891604">
        <ele>-1.79</ele>
        <time>2019-05-05T14:47:40Z</time>
      </trkpt>
      <trkpt lat="54.159226035699248" lon="9.007892031222582">
        <ele>-1.3</ele>
        <time>2019-05-05T14:47:48Z</time>
      </trkpt>
      <trkpt lat="54.162375032901764" lon="9.004485039040446">
        <ele>-0.34</ele>
        <time>2019-05-05T14:48:03Z</time>
      </trkpt>
      <trkpt lat="54.163283966481686" lon="9.003576021641493">
        <ele>1.1</ele>
        <time>2019-05-05T14:48:09Z</time>
      </trkpt>
      <trkpt lat="54.164159959182143" lon="9.002742022275925">
        <ele>1.1</ele>
        <time>2019-05-05T14:48:17Z</time>
      </trkpt>
      <trkpt lat="54.164823973551393" lon="9.001868963241577">
        <ele>1.1</ele>
        <time>2019-05-05T14:48:25Z</time>
      </trkpt>
      <trkpt lat="54.164927992969751" lon="9.001607028767467">
        <ele>1.1</ele>
        <time>2019-05-05T14:48:27Z</time>
      </trkpt>
      <trkpt lat="54.164981972426176" lon="9.001468978822231">
        <ele>1.1</ele>
        <time>2019-05-05T14:48:28Z</time>
      </trkpt>
      <trkpt lat="54.165033018216491" lon="9.001331012696028">
        <ele>1.1</ele>
        <time>2019-05-05T14:48:29Z</time>
      </trkpt>
      <trkpt lat="54.165078029036522" lon="9.001178964972496">
        <ele>1.1</ele>
        <time>2019-05-05T14:48:30Z</time>
      </trkpt>
      <trkpt lat="54.165123961865902" lon="9.001024989411235">
        <ele>1.58</ele>
        <time>2019-05-05T14:48:31Z</time>
      </trkpt>
      <trkpt lat="54.165301993489265" lon="9.000420989468694">
        <ele>1.1</ele>
        <time>2019-05-05T14:48:35Z</time>
      </trkpt>
      <trkpt lat="54.165356978774071" lon="9.000290986150503">
        <ele>1.1</ele>
        <time>2019-05-05T14:48:36Z</time>
      </trkpt>
      <trkpt lat="54.165579015389085" lon="8.999777007848024">
        <ele>1.58</ele>
        <time>2019-05-05T14:48:40Z</time>
      </trkpt>
      <trkpt lat="54.16569602675736" lon="8.99953099898994">
        <ele>1.58</ele>
        <time>2019-05-05T14:48:42Z</time>
      </trkpt>
      <trkpt lat="54.166073966771364" lon="8.999047027900815">
        <ele>-0.82</ele>
        <time>2019-05-05T14:48:47Z</time>
      </trkpt>
      <trkpt lat="54.166128030046821" lon="8.998913001269102">
        <ele>-0.82</ele>
        <time>2019-05-05T14:48:48Z</time>
      </trkpt>
      <trkpt lat="54.166164994239807" lon="8.998776962980628">
        <ele>-0.82</ele>
        <time>2019-05-05T14:48:49Z</time>
      </trkpt>
      <trkpt lat="54.166176980361342" lon="8.998611001297832">
        <ele>-1.3</ele>
        <time>2019-05-05T14:48:50Z</time>
      </trkpt>
      <trkpt lat="54.166190978139639" lon="8.99843699298799">
        <ele>-1.3</ele>
        <time>2019-05-05T14:48:51Z</time>
      </trkpt>
      <trkpt lat="54.166203970089555" lon="8.998260973021388">
        <ele>-1.3</ele>
        <time>2019-05-05T14:48:52Z</time>
      </trkpt>
      <trkpt lat="54.166216962039471" lon="8.998089982196689">
        <ele>-1.3</ele>
        <time>2019-05-05T14:48:53Z</time>
      </trkpt>
      <trkpt lat="54.166230037808418" lon="8.997927037999034">
        <ele>-1.79</ele>
        <time>2019-05-05T14:48:54Z</time>
      </trkpt>
      <trkpt lat="54.16629902087152" lon="8.996757008135319">
        <ele>-2.27</ele>
        <time>2019-05-05T14:49:01Z</time>
      </trkpt>
      <trkpt lat="54.166284017264843" lon="8.996586017310619">
        <ele>-2.75</ele>
        <time>2019-05-05T14:49:02Z</time>
      </trkpt>
      <trkpt lat="54.166269013658166" lon="8.996418965980411">
        <ele>-2.75</ele>
        <time>2019-05-05T14:49:03Z</time>
      </trkpt>
      <trkpt lat="54.166253004223108" lon="8.996253004297614">
        <ele>-2.75</ele>
        <time>2019-05-05T14:49:04Z</time>
      </trkpt>
      <trkpt lat="54.166221991181374" lon="8.996095005422831">
        <ele>-2.75</ele>
        <time>2019-05-05T14:49:05Z</time>
      </trkpt>
      <trkpt lat="54.166121995076537" lon="8.995783030986786">
        <ele>-3.23</ele>
        <time>2019-05-05T14:49:07Z</time>
      </trkpt>
      <trkpt lat="54.166068015620112" lon="8.995649004355073">
        <ele>-3.23</ele>
        <time>2019-05-05T14:49:08Z</time>
      </trkpt>
      <trkpt lat="54.165996015071869" lon="8.995520006865263">
        <ele>-3.23</ele>
        <time>2019-05-05T14:49:09Z</time>
      </trkpt>
      <trkpt lat="54.165669959038496" lon="8.994928998872638">
        <ele>-2.75</ele>
        <time>2019-05-05T14:49:14Z</time>
      </trkpt>
      <trkpt lat="54.165638023987412" lon="8.994790026918054">
        <ele>-2.75</ele>
        <time>2019-05-05T14:49:15Z</time>
      </trkpt>
      <trkpt lat="54.165626959875226" lon="8.994636973366141">
        <ele>-2.75</ele>
        <time>2019-05-05T14:49:16Z</time>
      </trkpt>
      <trkpt lat="54.165614973753691" lon="8.994477968662977">
        <ele>-2.75</ele>
        <time>2019-05-05T14:49:17Z</time>
      </trkpt>
      <trkpt lat="54.165602987632155" lon="8.994319969788194">
        <ele>-3.23</ele>
        <time>2019-05-05T14:49:18Z</time>
      </trkpt>
      <trkpt lat="54.165630983188748" lon="8.994001960381866">
        <ele>-4.19</ele>
        <time>2019-05-05T14:49:20Z</time>
      </trkpt>
      <trkpt lat="54.165645986795425" lon="8.993843961507082">
        <ele>-4.67</ele>
        <time>2019-05-05T14:49:21Z</time>
      </trkpt>
      <trkpt lat="54.165660990402102" lon="8.993683028966188">
        <ele>-5.15</ele>
        <time>2019-05-05T14:49:22Z</time>
      </trkpt>
      <trkpt lat="54.16569703258574" lon="8.99353601038456">
        <ele>-5.63</ele>
        <time>2019-05-05T14:49:23Z</time>
      </trkpt>
      <trkpt lat="54.165750006213784" lon="8.993389997631311">
        <ele>-5.63</ele>
        <time>2019-05-05T14:49:24Z</time>
      </trkpt>
      <trkpt lat="54.165803985670209" lon="8.993241973221302">
        <ele>-5.63</ele>
        <time>2019-05-05T14:49:25Z</time>
      </trkpt>
      <trkpt lat="54.165862994268537" lon="8.993103001266718">
        <ele>-5.63</ele>
        <time>2019-05-05T14:49:26Z</time>
      </trkpt>
      <trkpt lat="54.165931977331638" lon="8.992979032918811">
        <ele>-5.63</ele>
        <time>2019-05-05T14:49:27Z</time>
      </trkpt>
      <trkpt lat="54.166888017207384" lon="8.991738008335233">
        <ele>-5.15</ele>
        <time>2019-05-05T14:49:38Z</time>
      </trkpt>
      <trkpt lat="54.168215040117502" lon="8.990089036524296">
        <ele>-3.71</ele>
        <time>2019-05-05T14:49:51Z</time>
      </trkpt>
      <trkpt lat="54.169410970062017" lon="8.98876897059381">
        <ele>-2.75</ele>
        <time>2019-05-05T14:50:02Z</time>
      </trkpt>
      <trkpt lat="54.170669009909034" lon="8.98754102177918">
        <ele>-1.79</ele>
        <time>2019-05-05T14:50:12Z</time>
      </trkpt>
      <trkpt lat="54.171771984547377" lon="8.986202012747526">
        <ele>-1.79</ele>
        <time>2019-05-05T14:50:21Z</time>
      </trkpt>
      <trkpt lat="54.171930989250541" lon="8.985990034416318">
        <ele>-1.79</ele>
        <time>2019-05-05T14:50:23Z</time>
      </trkpt>
      <trkpt lat="54.172005001455545" lon="8.98589096032083">
        <ele>-1.3</ele>
        <time>2019-05-05T14:50:24Z</time>
      </trkpt>
      <trkpt lat="54.172126036137342" lon="8.985958015546203">
        <ele>-1.3</ele>
        <time>2019-05-05T14:50:25Z</time>
      </trkpt>
      <trkpt lat="54.17220700532198" lon="8.985945023596287">
        <ele>-1.3</ele>
        <time>2019-05-05T14:50:26Z</time>
      </trkpt>
      <trkpt lat="54.172276994213462" lon="8.985798005014658">
        <ele>-0.82</ele>
        <time>2019-05-05T14:50:27Z</time>
      </trkpt>
      <trkpt lat="54.172297026962042" lon="8.985678981989622">
        <ele>-0.82</ele>
        <time>2019-05-05T14:50:28Z</time>
      </trkpt>
      <trkpt lat="54.172297026962042" lon="8.985678981989622">
        <ele>-0.34</ele>
        <time>2019-05-05T14:50:29Z</time>
      </trkpt>
      <trkpt lat="54.172328040003777" lon="8.985342029482126">
        <ele>-0.34</ele>
        <time>2019-05-05T14:50:30Z</time>
      </trkpt>
      <trkpt lat="54.172400962561369" lon="8.985177995637059">
        <ele>-0.34</ele>
        <time>2019-05-05T14:50:31Z</time>
      </trkpt>
      <trkpt lat="54.172486960887909" lon="8.984985966235399">
        <ele>-0.34</ele>
        <time>2019-05-05T14:50:32Z</time>
      </trkpt>
      <trkpt lat="54.172583017498255" lon="8.98477197624743">
        <ele>-0.34</ele>
        <time>2019-05-05T14:50:33Z</time>
      </trkpt>
      <trkpt lat="54.173470996320248" lon="8.983430033549666">
        <ele>-0.82</ele>
        <time>2019-05-05T14:50:39Z</time>
      </trkpt>
      <trkpt lat="54.173953961580992" lon="8.982802983373404">
        <ele>-1.3</ele>
        <time>2019-05-05T14:50:42Z</time>
      </trkpt>
      <trkpt lat="54.174078013747931" lon="8.982568038627505">
        <ele>-1.3</ele>
        <time>2019-05-05T14:50:43Z</time>
      </trkpt>
      <trkpt lat="54.174156971275806" lon="8.982282970100641">
        <ele>-1.3</ele>
        <time>2019-05-05T14:50:44Z</time>
      </trkpt>
      <trkpt lat="54.174240035936236" lon="8.98197895847261">
        <ele>-1.79</ele>
        <time>2019-05-05T14:50:45Z</time>
      </trkpt>
      <trkpt lat="54.174328967928886" lon="8.981657009571791">
        <ele>-1.3</ele>
        <time>2019-05-05T14:50:46Z</time>
      </trkpt>
      <trkpt lat="54.175228010863066" lon="8.978328974917531">
        <ele>-1.3</ele>
        <time>2019-05-05T14:50:55Z</time>
      </trkpt>
      <trkpt lat="54.175730003044009" lon="8.975387010723352">
        <ele>-1.3</ele>
        <time>2019-05-05T14:51:02Z</time>
      </trkpt>
      <trkpt lat="54.176320005208254" lon="8.971347017213702">
        <ele>-2.75</ele>
        <time>2019-05-05T14:51:12Z</time>
      </trkpt>
      <trkpt lat="54.176585040986538" lon="8.969262018799782">
        <ele>-2.75</ele>
        <time>2019-05-05T14:51:18Z</time>
      </trkpt>
      <trkpt lat="54.176497031003237" lon="8.966030962765217">
        <ele>-3.23</ele>
        <time>2019-05-05T14:51:26Z</time>
      </trkpt>
      <trkpt lat="54.176521003246307" lon="8.964398000389338">
        <ele>-3.23</ele>
        <time>2019-05-05T14:51:30Z</time>
      </trkpt>
      <trkpt lat="54.176557967439294" lon="8.963991980999708">
        <ele>-3.71</ele>
        <time>2019-05-05T14:51:31Z</time>
      </trkpt>
      <trkpt lat="54.176602978259325" lon="8.963597025722265">
        <ele>-3.71</ele>
        <time>2019-05-05T14:51:32Z</time>
      </trkpt>
      <trkpt lat="54.176687970757484" lon="8.963211039081216">
        <ele>-3.71</ele>
        <time>2019-05-05T14:51:33Z</time>
      </trkpt>
      <trkpt lat="54.176785033196211" lon="8.962839972227812">
        <ele>-3.71</ele>
        <time>2019-05-05T14:51:34Z</time>
      </trkpt>
      <trkpt lat="54.176903972402215" lon="8.962480975314975">
        <ele>-4.19</ele>
        <time>2019-05-05T14:51:35Z</time>
      </trkpt>
      <trkpt lat="54.177047973498702" lon="8.962153997272253">
        <ele>-4.19</ele>
        <time>2019-05-05T14:51:36Z</time>
      </trkpt>
      <trkpt lat="54.177209995687008" lon="8.96184403449297">
        <ele>-4.67</ele>
        <time>2019-05-05T14:51:37Z</time>
      </trkpt>
      <trkpt lat="54.177376041188836" lon="8.961527030915022">
        <ele>-4.67</ele>
        <time>2019-05-05T14:51:38Z</time>
      </trkpt>
      <trkpt lat="54.177568992599845" lon="8.961249003186822">
        <ele>-4.67</ele>
        <time>2019-05-05T14:51:39Z</time>
      </trkpt>
      <trkpt lat="54.177776025608182" lon="8.960983967408538">
        <ele>-4.67</ele>
        <time>2019-05-05T14:51:40Z</time>
      </trkpt>
      <trkpt lat="54.181008003652096" lon="8.956858981400728">
        <ele>-4.19</ele>
        <time>2019-05-05T14:51:55Z</time>
      </trkpt>
      <trkpt lat="54.18370102532208" lon="8.953591967001557">
        <ele>-3.23</ele>
        <time>2019-05-05T14:52:08Z</time>
      </trkpt>
      <trkpt lat="54.186048964038491" lon="8.950973963364959">
        <ele>-2.75</ele>
        <time>2019-05-05T14:52:20Z</time>
      </trkpt>
      <trkpt lat="54.187264004722238" lon="8.949713995680213">
        <ele>-3.23</ele>
        <time>2019-05-05T14:52:26Z</time>
      </trkpt>
      <trkpt lat="54.187502972781658" lon="8.9495799690485">
        <ele>-3.23</ele>
        <time>2019-05-05T14:52:27Z</time>
      </trkpt>
      <trkpt lat="54.187749987468123" lon="8.949454994872212">
        <ele>-3.71</ele>
        <time>2019-05-05T14:52:28Z</time>
      </trkpt>
      <trkpt lat="54.189055971801281" lon="8.94895400851965">
        <ele>-4.19</ele>
        <time>2019-05-05T14:52:34Z</time>
      </trkpt>
      <trkpt lat="54.189613033086061" lon="8.948680004104972">
        <ele>-4.19</ele>
        <time>2019-05-05T14:52:37Z</time>
      </trkpt>
      <trkpt lat="54.189787963405252" lon="8.948534997180104">
        <ele>-4.19</ele>
        <time>2019-05-05T14:52:38Z</time>
      </trkpt>
      <trkpt lat="54.191137030720711" lon="8.947184002026916">
        <ele>-4.67</ele>
        <time>2019-05-05T14:52:47Z</time>
      </trkpt>
      <trkpt lat="54.192219972610474" lon="8.945670984685421">
        <ele>-4.19</ele>
        <time>2019-05-05T14:52:55Z</time>
      </trkpt>
      <trkpt lat="54.193596029654145" lon="8.944026036188006">
        <ele>-4.19</ele>
        <time>2019-05-05T14:53:03Z</time>
      </trkpt>
      <trkpt lat="54.195084990933537" lon="8.942281007766724">
        <ele>-5.15</ele>
        <time>2019-05-05T14:53:10Z</time>
      </trkpt>
      <trkpt lat="54.197590006515384" lon="8.939185990020633">
        <ele>-4.67</ele>
        <time>2019-05-05T14:53:21Z</time>
      </trkpt>
      <trkpt lat="54.198332978412509" lon="8.938207989558578">
        <ele>-5.15</ele>
        <time>2019-05-05T14:53:25Z</time>
      </trkpt>
      <trkpt lat="54.198532970622182" lon="8.938033981248736">
        <ele>-5.15</ele>
        <time>2019-05-05T14:53:26Z</time>
      </trkpt>
      <trkpt lat="54.200596008449793" lon="8.936695978045464">
        <ele>-5.15</ele>
        <time>2019-05-05T14:53:35Z</time>
      </trkpt>
      <trkpt lat="54.202206004410982" lon="8.935650000348687">
        <ele>-5.63</ele>
        <time>2019-05-05T14:53:43Z</time>
      </trkpt>
      <trkpt lat="54.203113010153174" lon="8.935056980699301">
        <ele>-6.11</ele>
        <time>2019-05-05T14:53:50Z</time>
      </trkpt>
      <trkpt lat="54.204098973423243" lon="8.934422973543406">
        <ele>-6.11</ele>
        <time>2019-05-05T14:53:59Z</time>
      </trkpt>
      <trkpt lat="54.205085020512342" lon="8.933697016909719">
        <ele>-4.67</ele>
        <time>2019-05-05T14:54:10Z</time>
      </trkpt>
      <trkpt lat="54.206043994054198" lon="8.932812977582216">
        <ele>-1.79</ele>
        <time>2019-05-05T14:54:21Z</time>
      </trkpt>
      <trkpt lat="54.207036998122931" lon="8.931885017082095">
        <ele>1.58</ele>
        <time>2019-05-05T14:54:32Z</time>
      </trkpt>
      <trkpt lat="54.207854988053441" lon="8.931145984679461">
        <ele>2.06</ele>
        <time>2019-05-05T14:54:42Z</time>
      </trkpt>
      <trkpt lat="54.208843968808651" lon="8.930195979773998">
        <ele>2.06</ele>
        <time>2019-05-05T14:54:53Z</time>
      </trkpt>
      <trkpt lat="54.209553999826312" lon="8.929281011223793">
        <ele>2.54</ele>
        <time>2019-05-05T14:55:02Z</time>
      </trkpt>
      <trkpt lat="54.210269981995225" lon="8.928517000749707">
        <ele>2.54</ele>
        <time>2019-05-05T14:55:11Z</time>
      </trkpt>
      <trkpt lat="54.211077997460961" lon="8.92779397778213">
        <ele>1.58</ele>
        <time>2019-05-05T14:55:20Z</time>
      </trkpt>
      <trkpt lat="54.212094973772764" lon="8.926885966211557">
        <ele>1.1</ele>
        <time>2019-05-05T14:55:31Z</time>
      </trkpt>
      <trkpt lat="54.212458999827504" lon="8.926539039239287">
        <ele>-0.34</ele>
        <time>2019-05-05T14:55:35Z</time>
      </trkpt>
      <trkpt lat="54.213294005021453" lon="8.925832025706768">
        <ele>-0.82</ele>
        <time>2019-05-05T14:55:44Z</time>
      </trkpt>
      <trkpt lat="54.213456027209759" lon="8.925702022388578">
        <ele>-0.82</ele>
        <time>2019-05-05T14:55:46Z</time>
      </trkpt>
      <trkpt lat="54.213531967252493" lon="8.925609989091754">
        <ele>-0.82</ele>
        <time>2019-05-05T14:55:47Z</time>
      </trkpt>
      <trkpt lat="54.213601034134626" lon="8.925501024350524">
        <ele>-0.82</ele>
        <time>2019-05-05T14:55:48Z</time>
      </trkpt>
      <trkpt lat="54.213670017197728" lon="8.925374960526824">
        <ele>-0.82</ele>
        <time>2019-05-05T14:55:49Z</time>
      </trkpt>
      <trkpt lat="54.213733971118927" lon="8.925239006057382">
        <ele>-0.82</ele>
        <time>2019-05-05T14:55:50Z</time>
      </trkpt>
      <trkpt lat="54.214313998818398" lon="8.923947019502521">
        <ele>3.02</ele>
        <time>2019-05-05T14:56:00Z</time>
      </trkpt>
      <trkpt lat="54.214502004906535" lon="8.923527002334595">
        <ele>5.91</ele>
        <time>2019-05-05T14:56:07Z</time>
      </trkpt>
      <trkpt lat="54.214691016823053" lon="8.923111008480191">
        <ele>6.87</ele>
        <time>2019-05-05T14:56:12Z</time>
      </trkpt>
      <trkpt lat="54.21472898684442" lon="8.923026015982032">
        <ele>6.87</ele>
        <time>2019-05-05T14:56:13Z</time>
      </trkpt>
      <trkpt lat="54.214819008484483" lon="8.92282803542912">
        <ele>6.87</ele>
        <time>2019-05-05T14:56:15Z</time>
      </trkpt>
      <trkpt lat="54.215213041752577" lon="8.922207020223141">
        <ele>6.39</ele>
        <time>2019-05-05T14:56:23Z</time>
      </trkpt>
      <trkpt lat="54.215216981247067" lon="8.922204002737999">
        <ele>6.39</ele>
        <time>2019-05-05T14:56:24Z</time>
      </trkpt>
      <trkpt lat="54.215254029259086" lon="8.922172989696264">
        <ele>5.91</ele>
        <time>2019-05-05T14:56:25Z</time>
      </trkpt>
      <trkpt lat="54.215341033414006" lon="8.9220330119133">
        <ele>4.94</ele>
        <time>2019-05-05T14:56:29Z</time>
      </trkpt>
      <trkpt lat="54.215341033414006" lon="8.921993030235171">
        <ele>4.46</ele>
        <time>2019-05-05T14:56:30Z</time>
      </trkpt>
      <trkpt lat="54.215341033414006" lon="8.921993030235171">
        <ele>4.46</ele>
        <time>2019-05-05T14:56:31Z</time>
      </trkpt>
      <trkpt lat="54.215328963473439" lon="8.921726988628507">
        <ele>4.46</ele>
        <time>2019-05-05T14:56:32Z</time>
      </trkpt>
      <trkpt lat="54.215380009263754" lon="8.921611988916993">
        <ele>4.46</ele>
        <time>2019-05-05T14:56:33Z</time>
      </trkpt>
      <trkpt lat="54.215440023690462" lon="8.921478968113661">
        <ele>4.94</ele>
        <time>2019-05-05T14:56:34Z</time>
      </trkpt>
      <trkpt lat="54.215509006753564" lon="8.9213249925524">
        <ele>5.42</ele>
        <time>2019-05-05T14:56:35Z</time>
      </trkpt>
      <trkpt lat="54.21558603644371" lon="8.9211540017277">
        <ele>5.42</ele>
        <time>2019-05-05T14:56:36Z</time>
      </trkpt>
      <trkpt lat="54.216286009177566" lon="8.91960795968771">
        <ele>4.94</ele>
        <time>2019-05-05T14:56:43Z</time>
      </trkpt>
      <trkpt lat="54.217542037367821" lon="8.916867999359965">
        <ele>2.54</ele>
        <time>2019-05-05T14:56:53Z</time>
      </trkpt>
      <trkpt lat="54.219489991664886" lon="8.912741001695395">
        <ele>2.06</ele>
        <time>2019-05-05T14:57:06Z</time>
      </trkpt>
      <trkpt lat="54.221939016133547" lon="8.908097008243203">
        <ele>0.62</ele>
        <time>2019-05-05T14:57:20Z</time>
      </trkpt>
      <trkpt lat="54.224465992301702" lon="8.903671028092504">
        <ele>-0.82</ele>
        <time>2019-05-05T14:57:35Z</time>
      </trkpt>
      <trkpt lat="54.226706977933645" lon="8.900207038968802">
        <ele>-0.82</ele>
        <time>2019-05-05T14:57:47Z</time>
      </trkpt>
      <trkpt lat="54.229334034025669" lon="8.896759981289506">
        <ele>-0.82</ele>
        <time>2019-05-05T14:57:59Z</time>
      </trkpt>
      <trkpt lat="54.232101989910007" lon="8.893069010227919">
        <ele>-1.3</ele>
        <time>2019-05-05T14:58:12Z</time>
      </trkpt>
      <trkpt lat="54.234560988843441" lon="8.888900019228458">
        <ele>-0.34</ele>
        <time>2019-05-05T14:58:25Z</time>
      </trkpt>
      <trkpt lat="54.236333006992936" lon="8.885057000443339">
        <ele>-0.82</ele>
        <time>2019-05-05T14:58:36Z</time>
      </trkpt>
      <trkpt lat="54.238045010715723" lon="8.880489030852914">
        <ele>-1.3</ele>
        <time>2019-05-05T14:58:48Z</time>
      </trkpt>
      <trkpt lat="54.239330962300301" lon="8.877061000093818">
        <ele>-1.79</ele>
        <time>2019-05-05T14:58:58Z</time>
      </trkpt>
      <trkpt lat="54.240404013544321" lon="8.874191958457232">
        <ele>-1.3</ele>
        <time>2019-05-05T14:59:08Z</time>
      </trkpt>
      <trkpt lat="54.24151998013258" lon="8.871334986761212">
        <ele>-0.82</ele>
        <time>2019-05-05T14:59:19Z</time>
      </trkpt>
      <trkpt lat="54.242773996666074" lon="8.868251033127308">
        <ele>-1.3</ele>
        <time>2019-05-05T14:59:30Z</time>
      </trkpt>
      <trkpt lat="54.243767000734806" lon="8.865788010880351">
        <ele>-1.79</ele>
        <time>2019-05-05T14:59:40Z</time>
      </trkpt>
      <trkpt lat="54.244927978143096" lon="8.862270964309573">
        <ele>-1.79</ele>
        <time>2019-05-05T14:59:52Z</time>
      </trkpt>
      <trkpt lat="54.245801959186792" lon="8.859044015407562">
        <ele>-2.75</ele>
        <time>2019-05-05T15:00:01Z</time>
      </trkpt>
      <trkpt lat="54.247065028175712" lon="8.855295963585377">
        <ele>-2.27</ele>
        <time>2019-05-05T15:00:10Z</time>
      </trkpt>
      <trkpt lat="54.248174959793687" lon="8.852973002940416">
        <ele>-2.75</ele>
        <time>2019-05-05T15:00:17Z</time>
      </trkpt>
      <trkpt lat="54.249471975490451" lon="8.850929997861385">
        <ele>-2.75</ele>
        <time>2019-05-05T15:00:24Z</time>
      </trkpt>
      <trkpt lat="54.251624029129744" lon="8.848484996706247">
        <ele>-1.79</ele>
        <time>2019-05-05T15:00:33Z</time>
      </trkpt>
      <trkpt lat="54.253578018397093" lon="8.846974996849895">
        <ele>-0.82</ele>
        <time>2019-05-05T15:00:41Z</time>
      </trkpt>
      <trkpt lat="54.25501199439168" lon="8.846273012459278">
        <ele>0.62</ele>
        <time>2019-05-05T15:00:49Z</time>
      </trkpt>
      <trkpt lat="54.256826005876064" lon="8.845771020278335">
        <ele>0.14</ele>
        <time>2019-05-05T15:01:01Z</time>
      </trkpt>
      <trkpt lat="54.2590949870646" lon="8.845612015575171">
        <ele>-1.79</ele>
        <time>2019-05-05T15:01:16Z</time>
      </trkpt>
      <trkpt lat="54.261319041252136" lon="8.845603968948126">
        <ele>-2.75</ele>
        <time>2019-05-05T15:01:31Z</time>
      </trkpt>
      <trkpt lat="54.261995041742921" lon="8.845603968948126">
        <ele>-2.75</ele>
        <time>2019-05-05T15:01:37Z</time>
      </trkpt>
      <trkpt lat="54.262095037847757" lon="8.845603968948126">
        <ele>-2.75</ele>
        <time>2019-05-05T15:01:38Z</time>
      </trkpt>
      <trkpt lat="54.26218799315393" lon="8.845603968948126">
        <ele>-3.23</ele>
        <time>2019-05-05T15:01:39Z</time>
      </trkpt>
      <trkpt lat="54.262370970100164" lon="8.845923990011215">
        <ele>-2.75</ele>
        <time>2019-05-05T15:01:41Z</time>
      </trkpt>
      <trkpt lat="54.262444982305169" lon="8.846011999994516">
        <ele>-2.75</ele>
        <time>2019-05-05T15:01:42Z</time>
      </trkpt>
      <trkpt lat="54.262535003945231" lon="8.846021974459291">
        <ele>-2.75</ele>
        <time>2019-05-05T15:01:43Z</time>
      </trkpt>
      <trkpt lat="54.262935994192958" lon="8.846071008592844">
        <ele>-2.27</ele>
        <time>2019-05-05T15:01:48Z</time>
      </trkpt>
      <trkpt lat="54.262976981699467" lon="8.846076037734747">
        <ele>-2.27</ele>
        <time>2019-05-05T15:01:49Z</time>
      </trkpt>
      <trkpt lat="54.262976981699467" lon="8.846076037734747">
        <ele>-2.75</ele>
        <time>2019-05-05T15:01:50Z</time>
      </trkpt>
      <trkpt lat="54.263044958934188" lon="8.846466969698668">
        <ele>-2.75</ele>
        <time>2019-05-05T15:01:52Z</time>
      </trkpt>
      <trkpt lat="54.263030039146543" lon="8.846877012401819">
        <ele>-2.75</ele>
        <time>2019-05-05T15:01:55Z</time>
      </trkpt>
      <trkpt lat="54.263217961415648" lon="8.847190998494625">
        <ele>-2.27</ele>
        <time>2019-05-05T15:02:02Z</time>
      </trkpt>
      <trkpt lat="54.263337990269065" lon="8.847036017104983">
        <ele>-2.27</ele>
        <time>2019-05-05T15:02:07Z</time>
      </trkpt>
      <trkpt lat="54.26339297555387" lon="8.846822027117014">
        <ele>-2.27</ele>
        <time>2019-05-05T15:02:12Z</time>
      </trkpt>
      <trkpt lat="54.263387024402618" lon="8.846766036003828">
        <ele>-1.79</ele>
        <time>2019-05-05T15:02:26Z</time>
      </trkpt>
      <trkpt lat="54.263386018574238" lon="8.846757989376783">
        <ele>-1.79</ele>
        <time>2019-05-05T15:02:57Z</time>
      </trkpt>
      <trkpt lat="54.263384006917477" lon="8.846756983548403">
        <ele>-2.27</ele>
        <time>2019-05-05T15:03:43Z</time>
      </trkpt>
      <trkpt lat="54.263383001089096" lon="8.846751032397151">
        <ele>-1.79</ele>
        <time>2019-05-05T15:04:34Z</time>
      </trkpt>
      <trkpt lat="54.263381995260715" lon="8.846751032397151">
        <ele>-2.27</ele>
        <time>2019-05-05T15:05:21Z</time>
      </trkpt>
      <trkpt lat="54.2633690033108" lon="8.846669979393482">
        <ele>-2.27</ele>
        <time>2019-05-05T15:05:27Z</time>
      </trkpt>
      <trkpt lat="54.263357017189264" lon="8.846282986924052">
        <ele>-1.3</ele>
        <time>2019-05-05T15:05:31Z</time>
      </trkpt>
      <trkpt lat="54.262976981699467" lon="8.846076037734747">
        <ele>-1.3</ele>
        <time>2019-05-05T15:05:36Z</time>
      </trkpt>
      <trkpt lat="54.262976981699467" lon="8.846076037734747">
        <ele>-1.3</ele>
        <time>2019-05-05T15:05:37Z</time>
      </trkpt>
      <trkpt lat="54.262485969811678" lon="8.846017029136419">
        <ele>-2.75</ele>
        <time>2019-05-05T15:05:43Z</time>
      </trkpt>
      <trkpt lat="54.26242302171886" lon="8.845989033579826">
        <ele>-2.75</ele>
        <time>2019-05-05T15:05:44Z</time>
      </trkpt>
      <trkpt lat="54.262382034212351" lon="8.845937987789512">
        <ele>-2.75</ele>
        <time>2019-05-05T15:05:45Z</time>
      </trkpt>
      <trkpt lat="54.262352026998997" lon="8.845856012776494">
        <ele>-2.75</ele>
        <time>2019-05-05T15:05:46Z</time>
      </trkpt>
      <trkpt lat="54.262345992028713" lon="8.845780994743109">
        <ele>-2.75</ele>
        <time>2019-05-05T15:05:47Z</time>
      </trkpt>
      <trkpt lat="54.262416986748576" lon="8.845603968948126">
        <ele>-3.23</ele>
        <time>2019-05-05T15:05:48Z</time>
      </trkpt>
      <trkpt lat="54.262473983690143" lon="8.845603968948126">
        <ele>-3.23</ele>
        <time>2019-05-05T15:05:49Z</time>
      </trkpt>
      <trkpt lat="54.26255595870316" lon="8.845603968948126">
        <ele>-3.71</ele>
        <time>2019-05-05T15:05:50Z</time>
      </trkpt>
      <trkpt lat="54.2626609839499" lon="8.845603968948126">
        <ele>-4.19</ele>
        <time>2019-05-05T15:05:51Z</time>
      </trkpt>
      <trkpt lat="54.26356203854084" lon="8.845592988654971">
        <ele>-3.71</ele>
        <time>2019-05-05T15:05:58Z</time>
      </trkpt>
      <trkpt lat="54.2637989949435" lon="8.845589971169829">
        <ele>-2.27</ele>
        <time>2019-05-05T15:06:00Z</time>
      </trkpt>
      <trkpt lat="54.267143961042166" lon="8.845596006140113">
        <ele>1.1</ele>
        <time>2019-05-05T15:06:26Z</time>
      </trkpt>
      <trkpt lat="54.267861032858491" lon="8.845707988366485">
        <ele>1.1</ele>
        <time>2019-05-05T15:06:31Z</time>
      </trkpt>
      <trkpt lat="54.267958011478186" lon="8.845775965601206">
        <ele>1.1</ele>
        <time>2019-05-05T15:06:32Z</time>
      </trkpt>
      <trkpt lat="54.268044009804726" lon="8.845877973362804">
        <ele>0.62</ele>
        <time>2019-05-05T15:06:33Z</time>
      </trkpt>
      <trkpt lat="54.268079968169332" lon="8.846046030521393">
        <ele>0.62</ele>
        <time>2019-05-05T15:06:34Z</time>
      </trkpt>
      <trkpt lat="54.268107041716576" lon="8.846234958618879">
        <ele>0.62</ele>
        <time>2019-05-05T15:06:35Z</time>
      </trkpt>
      <trkpt lat="54.268135959282517" lon="8.846440985798836">
        <ele>0.14</ele>
        <time>2019-05-05T15:06:36Z</time>
      </trkpt>
      <trkpt lat="54.268145011737943" lon="8.84668598882854">
        <ele>-0.34</ele>
        <time>2019-05-05T15:06:37Z</time>
      </trkpt>
      <trkpt lat="54.268158003687859" lon="8.8488760124892">
        <ele>-1.79</ele>
        <time>2019-05-05T15:06:44Z</time>
      </trkpt>
      <trkpt lat="54.268341986462474" lon="8.851403994485736">
        <ele>-2.75</ele>
        <time>2019-05-05T15:06:51Z</time>
      </trkpt>
      <trkpt lat="54.268984040245414" lon="8.854237999767065">
        <ele>-3.71</ele>
        <time>2019-05-05T15:07:00Z</time>
      </trkpt>
      <trkpt lat="54.269936978816986" lon="8.856950970366597">
        <ele>-3.23</ele>
        <time>2019-05-05T15:07:09Z</time>
      </trkpt>
      <trkpt lat="54.271395010873675" lon="8.860936984419823">
        <ele>-0.82</ele>
        <time>2019-05-05T15:07:22Z</time>
      </trkpt>
      <trkpt lat="54.272832004353404" lon="8.864821996539831">
        <ele>1.1</ele>
        <time>2019-05-05T15:07:34Z</time>
      </trkpt>
      <trkpt lat="54.274255000054836" lon="8.868667026981711">
        <ele>0.62</ele>
        <time>2019-05-05T15:07:45Z</time>
      </trkpt>
      <trkpt lat="54.27576600573957" lon="8.872062033042312">
        <ele>-0.34</ele>
        <time>2019-05-05T15:07:54Z</time>
      </trkpt>
      <trkpt lat="54.277756959199905" lon="8.875443963333964">
        <ele>-0.82</ele>
        <time>2019-05-05T15:08:04Z</time>
      </trkpt>
      <trkpt lat="54.280679980292916" lon="8.880456006154418">
        <ele>-1.3</ele>
        <time>2019-05-05T15:08:19Z</time>
      </trkpt>
      <trkpt lat="54.282890958711505" lon="8.884967984631658">
        <ele>-1.3</ele>
        <time>2019-05-05T15:08:32Z</time>
      </trkpt>
      <trkpt lat="54.284388972446322" lon="8.886958016082645">
        <ele>-1.3</ele>
        <time>2019-05-05T15:08:39Z</time>
      </trkpt>
      <trkpt lat="54.286184962838888" lon="8.88817498460412">
        <ele>-0.82</ele>
        <time>2019-05-05T15:08:46Z</time>
      </trkpt>
      <trkpt lat="54.288883013650775" lon="8.88898903504014">
        <ele>-0.82</ele>
        <time>2019-05-05T15:08:56Z</time>
      </trkpt>
      <trkpt lat="54.291563965380192" lon="8.889944991096854">
        <ele>-1.3</ele>
        <time>2019-05-05T15:09:06Z</time>
      </trkpt>
      <trkpt lat="54.29441699758172" lon="8.891835026443005">
        <ele>-2.75</ele>
        <time>2019-05-05T15:09:17Z</time>
      </trkpt>
      <trkpt lat="54.297094009816647" lon="8.893658006563783">
        <ele>-2.27</ele>
        <time>2019-05-05T15:09:28Z</time>
      </trkpt>
      <trkpt lat="54.298252975568175" lon="8.8944480009377">
        <ele>-2.27</ele>
        <time>2019-05-05T15:09:35Z</time>
      </trkpt>
      <trkpt lat="54.298450034111738" lon="8.894583033397794">
        <ele>-2.27</ele>
        <time>2019-05-05T15:09:36Z</time>
      </trkpt>
      <trkpt lat="54.299704972654581" lon="8.895437987521291">
        <ele>-0.82</ele>
        <time>2019-05-05T15:09:41Z</time>
      </trkpt>
      <trkpt lat="54.302523974329233" lon="8.897359035909176">
        <ele>0.62</ele>
        <time>2019-05-05T15:09:52Z</time>
      </trkpt>
      <trkpt lat="54.303234005346894" lon="8.897988013923168">
        <ele>3.02</ele>
        <time>2019-05-05T15:09:57Z</time>
      </trkpt>
      <trkpt lat="54.303896008059382" lon="8.898965008556843">
        <ele>2.06</ele>
        <time>2019-05-05T15:10:05Z</time>
      </trkpt>
      <trkpt lat="54.303960967808962" lon="8.899063998833299">
        <ele>2.06</ele>
        <time>2019-05-05T15:10:07Z</time>
      </trkpt>
      <trkpt lat="54.303987035527825" lon="8.89921797439456">
        <ele>1.58</ele>
        <time>2019-05-05T15:10:08Z</time>
      </trkpt>
      <trkpt lat="54.303953005000949" lon="8.899268014356494">
        <ele>1.1</ele>
        <time>2019-05-05T15:10:09Z</time>
      </trkpt>
      <trkpt lat="54.303901037201285" lon="8.89934403821826">
        <ele>1.1</ele>
        <time>2019-05-05T15:10:10Z</time>
      </trkpt>
      <trkpt lat="54.303830964490771" lon="8.899445962160826">
        <ele>0.62</ele>
        <time>2019-05-05T15:10:11Z</time>
      </trkpt>
      <trkpt lat="54.303746977820992" lon="8.899568002671003">
        <ele>0.62</ele>
        <time>2019-05-05T15:10:12Z</time>
      </trkpt>
      <trkpt lat="54.303648993372917" lon="8.89971200376749">
        <ele>0.62</ele>
        <time>2019-05-05T15:10:13Z</time>
      </trkpt>
      <trkpt lat="54.30303099565208" lon="8.900894019752741">
        <ele>0.14</ele>
        <time>2019-05-05T15:10:18Z</time>
      </trkpt>
      <trkpt lat="54.302176041528583" lon="8.90338595956564">
        <ele>-1.3</ele>
        <time>2019-05-05T15:10:26Z</time>
      </trkpt>
      <trkpt lat="54.301582016050816" lon="8.905239030718803">
        <ele>-1.79</ele>
        <time>2019-05-05T15:10:34Z</time>
      </trkpt>
      <trkpt lat="54.300852958112955" lon="8.907607002183795">
        <ele>-3.23</ele>
        <time>2019-05-05T15:10:46Z</time>
      </trkpt>
      <trkpt lat="54.300809958949685" lon="8.907813029363751">
        <ele>-3.23</ele>
        <time>2019-05-05T15:10:47Z</time>
      </trkpt>
      <trkpt lat="54.300767965614796" lon="8.908016961067915">
        <ele>-3.71</ele>
        <time>2019-05-05T15:10:48Z</time>
      </trkpt>
      <trkpt lat="54.300721026957035" lon="8.908238997682929">
        <ele>-4.19</ele>
        <time>2019-05-05T15:10:49Z</time>
      </trkpt>
      <trkpt lat="54.300727983936667" lon="8.908447036519647">
        <ele>-4.19</ele>
        <time>2019-05-05T15:10:50Z</time>
      </trkpt>
      <trkpt lat="54.300736030563712" lon="8.908663960173726">
        <ele>-4.67</ele>
        <time>2019-05-05T15:10:51Z</time>
      </trkpt>
      <trkpt lat="54.300742987543344" lon="8.90888599678874">
        <ele>-4.67</ele>
        <time>2019-05-05T15:10:52Z</time>
      </trkpt>
      <trkpt lat="54.300834015011787" lon="8.910998990759254">
        <ele>-5.63</ele>
        <time>2019-05-05T15:10:59Z</time>
      </trkpt>
      <trkpt lat="54.301038030534983" lon="8.914602035656571">
        <ele>-5.15</ele>
        <time>2019-05-05T15:11:08Z</time>
      </trkpt>
      <trkpt lat="54.301424017176032" lon="8.918976970016956">
        <ele>-4.67</ele>
        <time>2019-05-05T15:11:19Z</time>
      </trkpt>
      <trkpt lat="54.301862977445126" lon="8.92186101526022">
        <ele>-3.23</ele>
        <time>2019-05-05T15:11:27Z</time>
      </trkpt>
      <trkpt lat="54.302185010164976" lon="8.923300020396709">
        <ele>-4.19</ele>
        <time>2019-05-05T15:11:32Z</time>
      </trkpt>
      <trkpt lat="54.302276959642768" lon="8.923548962920904">
        <ele>-4.67</ele>
        <time>2019-05-05T15:11:33Z</time>
      </trkpt>
      <trkpt lat="54.302369998767972" lon="8.923797989264131">
        <ele>-5.15</ele>
        <time>2019-05-05T15:11:34Z</time>
      </trkpt>
      <trkpt lat="54.302469994872808" lon="8.924014996737242">
        <ele>-5.63</ele>
        <time>2019-05-05T15:11:35Z</time>
      </trkpt>
      <trkpt lat="54.302582982927561" lon="8.924208031967282">
        <ele>-6.11</ele>
        <time>2019-05-05T15:11:36Z</time>
      </trkpt>
      <trkpt lat="54.302692031487823" lon="8.924393020570278">
        <ele>-6.59</ele>
        <time>2019-05-05T15:11:37Z</time>
      </trkpt>
      <trkpt lat="54.30279403924942" lon="8.924567028880119">
        <ele>-6.59</ele>
        <time>2019-05-05T15:11:38Z</time>
      </trkpt>
      <trkpt lat="54.303874969482422" lon="8.925997987389565">
        <ele>-8.51</ele>
        <time>2019-05-05T15:11:48Z</time>
      </trkpt>
      <trkpt lat="54.30479203350842" lon="8.927379995584488">
        <ele>-7.55</ele>
        <time>2019-05-05T15:11:58Z</time>
      </trkpt>
      <trkpt lat="54.30552301928401" lon="8.928273003548384">
        <ele>-6.59</ele>
        <time>2019-05-05T15:12:06Z</time>
      </trkpt>
      <trkpt lat="54.305585967376828" lon="8.928399989381433">
        <ele>-6.59</ele>
        <time>2019-05-05T15:12:07Z</time>
      </trkpt>
      <trkpt lat="54.305630978196859" lon="8.928567040711641">
        <ele>-6.11</ele>
        <time>2019-05-05T15:12:08Z</time>
      </trkpt>
      <trkpt lat="54.306001961231232" lon="8.929931027814746">
        <ele>-1.79</ele>
        <time>2019-05-05T15:12:17Z</time>
      </trkpt>
      <trkpt lat="54.306097012013197" lon="8.930091038346291">
        <ele>-0.82</ele>
        <time>2019-05-05T15:12:22Z</time>
      </trkpt>
      <trkpt lat="54.30616901256144" lon="8.930102018639445">
        <ele>-0.34</ele>
        <time>2019-05-05T15:12:23Z</time>
      </trkpt>
      <trkpt lat="54.30625501088798" lon="8.930115010589361">
        <ele>-0.34</ele>
        <time>2019-05-05T15:12:24Z</time>
      </trkpt>
      <trkpt lat="54.307062020525336" lon="8.930225986987352">
        <ele>-0.34</ele>
        <time>2019-05-05T15:12:31Z</time>
      </trkpt>
      <trkpt lat="54.307308029383421" lon="8.930249959230423">
        <ele>0.62</ele>
        <time>2019-05-05T15:12:34Z</time>
      </trkpt>
      <trkpt lat="54.307369971647859" lon="8.930346015840769">
        <ele>0.62</ele>
        <time>2019-05-05T15:12:35Z</time>
      </trkpt>
      <trkpt lat="54.307387992739677" lon="8.930438971146941">
        <ele>1.1</ele>
        <time>2019-05-05T15:12:36Z</time>
      </trkpt>
      <trkpt lat="54.307411964982748" lon="8.930566962808371">
        <ele>1.1</ele>
        <time>2019-05-05T15:12:37Z</time>
      </trkpt>
      <trkpt lat="54.307441972196102" lon="8.930721022188664">
        <ele>1.1</ele>
        <time>2019-05-05T15:12:38Z</time>
      </trkpt>
      <trkpt lat="54.307600976899266" lon="8.931541023775935">
        <ele>1.58</ele>
        <time>2019-05-05T15:12:42Z</time>
      </trkpt>
      <trkpt lat="54.307669959962368" lon="8.931745961308479">
        <ele>1.58</ele>
        <time>2019-05-05T15:12:43Z</time>
      </trkpt>
      <trkpt lat="54.307746989652514" lon="8.931952994316816">
        <ele>1.58</ele>
        <time>2019-05-05T15:12:44Z</time>
      </trkpt>
      <trkpt lat="54.307827036827803" lon="8.932164972648025">
        <ele>2.06</ele>
        <time>2019-05-05T15:12:45Z</time>
      </trkpt>
      <trkpt lat="54.307904988527298" lon="8.932360019534826">
        <ele>2.54</ele>
        <time>2019-05-05T15:12:46Z</time>
      </trkpt>
      <trkpt lat="54.307992998510599" lon="8.93251801840961">
        <ele>2.54</ele>
        <time>2019-05-05T15:12:47Z</time>
      </trkpt>
      <trkpt lat="54.3080810084939" lon="8.932655984535813">
        <ele>2.06</ele>
        <time>2019-05-05T15:12:48Z</time>
      </trkpt>
      <trkpt lat="54.308164995163679" lon="8.932789005339146">
        <ele>2.06</ele>
        <time>2019-05-05T15:12:49Z</time>
      </trkpt>
      <trkpt lat="54.308458026498556" lon="8.933265013620257">
        <ele>1.58</ele>
        <time>2019-05-05T15:12:53Z</time>
      </trkpt>
      <trkpt lat="54.308505970984697" lon="8.933376995846629">
        <ele>1.58</ele>
        <time>2019-05-05T15:12:54Z</time>
      </trkpt>
      <trkpt lat="54.30859599262476" lon="8.933429969474673">
        <ele>1.58</ele>
        <time>2019-05-05T15:12:55Z</time>
      </trkpt>
      <trkpt lat="54.308716021478176" lon="8.933329973369837">
        <ele>1.58</ele>
        <time>2019-05-05T15:12:56Z</time>
      </trkpt>
      <trkpt lat="54.308803025633097" lon="8.933402979746461">
        <ele>1.1</ele>
        <time>2019-05-05T15:12:57Z</time>
      </trkpt>
      <trkpt lat="54.308901010081172" lon="8.933485960587859">
        <ele>1.1</ele>
        <time>2019-05-05T15:12:58Z</time>
      </trkpt>
      <trkpt lat="54.309009974822402" lon="8.933575982227922">
        <ele>0.62</ele>
        <time>2019-05-05T15:12:59Z</time>
      </trkpt>
      <trkpt lat="54.310355018824339" lon="8.934654984623194">
        <ele>-0.34</ele>
        <time>2019-05-05T15:13:10Z</time>
      </trkpt>
      <trkpt lat="54.311450030654669" lon="8.935511028394103">
        <ele>-0.82</ele>
        <time>2019-05-05T15:13:20Z</time>
      </trkpt>
      <trkpt lat="54.312737993896008" lon="8.936284007504582">
        <ele>-1.3</ele>
        <time>2019-05-05T15:13:31Z</time>
      </trkpt>
      <trkpt lat="54.313851026818156" lon="8.937033014371991">
        <ele>-1.79</ele>
        <time>2019-05-05T15:13:41Z</time>
      </trkpt>
      <trkpt lat="54.314486039802432" lon="8.937584962695837">
        <ele>-1.3</ele>
        <time>2019-05-05T15:13:48Z</time>
      </trkpt>
      <trkpt lat="54.31456902064383" lon="8.937578005716205">
        <ele>-1.3</ele>
        <time>2019-05-05T15:13:49Z</time>
      </trkpt>
      <trkpt lat="54.31465401314199" lon="8.937555039301515">
        <ele>-0.82</ele>
        <time>2019-05-05T15:13:50Z</time>
      </trkpt>
      <trkpt lat="54.314994988963008" lon="8.937340965494514">
        <ele>1.1</ele>
        <time>2019-05-05T15:13:54Z</time>
      </trkpt>
      <trkpt lat="54.316039960831404" lon="8.936982974410057">
        <ele>-0.34</ele>
        <time>2019-05-05T15:14:04Z</time>
      </trkpt>
      <trkpt lat="54.316857028752565" lon="8.936777031049132">
        <ele>-1.3</ele>
        <time>2019-05-05T15:14:11Z</time>
      </trkpt>
      <trkpt lat="54.318081038072705" lon="8.93716000020504">
        <ele>-1.79</ele>
        <time>2019-05-05T15:14:22Z</time>
      </trkpt>
      <trkpt lat="54.318357976153493" lon="8.937262007966638">
        <ele>-1.79</ele>
        <time>2019-05-05T15:14:25Z</time>
      </trkpt>
      <trkpt lat="54.318441962823272" lon="8.937293021008372">
        <ele>-1.79</ele>
        <time>2019-05-05T15:14:26Z</time>
      </trkpt>
      <trkpt lat="54.318515975028276" lon="8.937320010736585">
        <ele>-2.27</ele>
        <time>2019-05-05T15:14:27Z</time>
      </trkpt>
      <trkpt lat="54.318586969748139" lon="8.937344988808036">
        <ele>-1.79</ele>
        <time>2019-05-05T15:14:28Z</time>
      </trkpt>
      <trkpt lat="54.318616976961493" lon="8.937356974929571">
        <ele>-1.79</ele>
        <time>2019-05-05T15:14:29Z</time>
      </trkpt>
      <trkpt lat="54.318788973614573" lon="8.937593009322882">
        <ele>-1.79</ele>
        <time>2019-05-05T15:14:30Z</time>
      </trkpt>
      <trkpt lat="54.319513002410531" lon="8.938690032809973">
        <ele>-1.79</ele>
        <time>2019-05-05T15:14:40Z</time>
      </trkpt>
      <trkpt lat="54.319879962131381" lon="8.93924399279058">
        <ele>-1.3</ele>
        <time>2019-05-05T15:14:46Z</time>
      </trkpt>
      <trkpt lat="54.32049703784287" lon="8.94014404155314">
        <ele>-1.79</ele>
        <time>2019-05-05T15:14:57Z</time>
      </trkpt>
      <trkpt lat="54.320598039776087" lon="8.94029600545764">
        <ele>-1.79</ele>
        <time>2019-05-05T15:14:59Z</time>
      </trkpt>
      <trkpt lat="54.320695018395782" lon="8.940441012382507">
        <ele>-2.27</ele>
        <time>2019-05-05T15:15:01Z</time>
      </trkpt>
      <trkpt lat="54.320741035044193" lon="8.940509995445609">
        <ele>-2.75</ele>
        <time>2019-05-05T15:15:02Z</time>
      </trkpt>
      <trkpt lat="54.320838013663888" lon="8.940655002370477">
        <ele>-2.75</ele>
        <time>2019-05-05T15:15:04Z</time>
      </trkpt>
      <trkpt lat="54.320934992283583" lon="8.940802020952106">
        <ele>-3.23</ele>
        <time>2019-05-05T15:15:06Z</time>
      </trkpt>
      <trkpt lat="54.320984026417136" lon="8.940874021500349">
        <ele>-3.23</ele>
        <time>2019-05-05T15:15:07Z</time>
      </trkpt>
      <trkpt lat="54.321093996986747" lon="8.941101003438234">
        <ele>-3.23</ele>
        <time>2019-05-05T15:15:10Z</time>
      </trkpt>
      <trkpt lat="54.321110006421804" lon="8.941196976229549">
        <ele>-3.23</ele>
        <time>2019-05-05T15:15:11Z</time>
      </trkpt>
      <trkpt lat="54.321114029735327" lon="8.941452959552407">
        <ele>-3.71</ele>
        <time>2019-05-05T15:15:13Z</time>
      </trkpt>
      <trkpt lat="54.32110296562314" lon="8.941571982577443">
        <ele>-3.71</ele>
        <time>2019-05-05T15:15:14Z</time>
      </trkpt>
      <trkpt lat="54.321091985329986" lon="8.941697040572763">
        <ele>-3.71</ele>
        <time>2019-05-05T15:15:15Z</time>
      </trkpt>
      <trkpt lat="54.32107999920845" lon="8.941823020577431">
        <ele>-4.19</ele>
        <time>2019-05-05T15:15:16Z</time>
      </trkpt>
      <trkpt lat="54.321069018915296" lon="8.941949000582099">
        <ele>-4.19</ele>
        <time>2019-05-05T15:15:17Z</time>
      </trkpt>
      <trkpt lat="54.321058038622141" lon="8.942073974758387">
        <ele>-4.67</ele>
        <time>2019-05-05T15:15:18Z</time>
      </trkpt>
      <trkpt lat="54.320989977568388" lon="8.943017022684217">
        <ele>-5.15</ele>
        <time>2019-05-05T15:15:26Z</time>
      </trkpt>
      <trkpt lat="54.32097103446722" lon="8.943292032927275">
        <ele>-5.15</ele>
        <time>2019-05-05T15:15:29Z</time>
      </trkpt>
      <trkpt lat="54.320964999496937" lon="8.943377025425434">
        <ele>-5.15</ele>
        <time>2019-05-05T15:15:30Z</time>
      </trkpt>
      <trkpt lat="54.320960976183414" lon="8.943447014316917">
        <ele>-5.15</ele>
        <time>2019-05-05T15:15:31Z</time>
      </trkpt>
      <trkpt lat="54.320916971191764" lon="8.943511974066496">
        <ele>-5.15</ele>
        <time>2019-05-05T15:15:32Z</time>
      </trkpt>
      <trkpt lat="54.320876989513636" lon="8.943509040400386">
        <ele>-5.15</ele>
        <time>2019-05-05T15:15:33Z</time>
      </trkpt>
      <trkpt lat="54.320827033370733" lon="8.943505017086864">
        <ele>-5.15</ele>
        <time>2019-05-05T15:15:34Z</time>
      </trkpt>
      <trkpt lat="54.320769030600786" lon="8.943500993773341">
        <ele>-5.15</ele>
        <time>2019-05-05T15:15:35Z</time>
      </trkpt>
      <trkpt lat="54.320704992860556" lon="8.943495964631438">
        <ele>-5.63</ele>
        <time>2019-05-05T15:15:36Z</time>
      </trkpt>
      <trkpt lat="54.320641960948706" lon="8.943492025136948">
        <ele>-5.63</ele>
        <time>2019-05-05T15:15:37Z</time>
      </trkpt>
      <trkpt lat="54.320579012855887" lon="8.943486995995045">
        <ele>-5.63</ele>
        <time>2019-05-05T15:15:38Z</time>
      </trkpt>
      <trkpt lat="54.320518998429179" lon="8.943482972681522">
        <ele>-5.63</ele>
        <time>2019-05-05T15:15:39Z</time>
      </trkpt>
      <trkpt lat="54.320467030629516" lon="8.943479033187032">
        <ele>-5.15</ele>
        <time>2019-05-05T15:15:40Z</time>
      </trkpt>
      <trkpt lat="54.320420008152723" lon="8.943475009873509">
        <ele>-5.15</ele>
        <time>2019-05-05T15:15:41Z</time>
      </trkpt>
      <trkpt lat="54.320382038131356" lon="8.943471992388368">
        <ele>-4.67</ele>
        <time>2019-05-05T15:15:42Z</time>
      </trkpt>
      <trkpt lat="54.320368962362409" lon="8.943512979894877">
        <ele>-4.19</ele>
        <time>2019-05-05T15:15:43Z</time>
      </trkpt>
      <trkpt lat="54.320353036746383" lon="8.943595960736275">
        <ele>-4.19</ele>
        <time>2019-05-05T15:15:44Z</time>
      </trkpt>
      <trkpt lat="54.320331998169422" lon="8.943704003468156">
        <ele>-4.19</ele>
        <time>2019-05-05T15:15:45Z</time>
      </trkpt>
      <trkpt lat="54.32030601426959" lon="8.943836018443108">
        <ele>-4.19</ele>
        <time>2019-05-05T15:15:46Z</time>
      </trkpt>
      <trkpt lat="54.320182967931032" lon="8.944476982578635">
        <ele>-3.71</ele>
        <time>2019-05-05T15:15:50Z</time>
      </trkpt>
      <trkpt lat="54.320149021223187" lon="8.944651996716857">
        <ele>-3.71</ele>
        <time>2019-05-05T15:15:51Z</time>
      </trkpt>
      <trkpt lat="54.319982975721359" lon="8.945528995245695">
        <ele>-5.15</ele>
        <time>2019-05-05T15:15:56Z</time>
      </trkpt>
      <trkpt lat="54.31987602263689" lon="8.945814985781908">
        <ele>-5.15</ele>
        <time>2019-05-05T15:15:58Z</time>
      </trkpt>
      <trkpt lat="54.319536974653602" lon="8.946534991264343">
        <ele>-6.11</ele>
        <time>2019-05-05T15:16:04Z</time>
      </trkpt>
      <trkpt lat="54.319159034639597" lon="8.946985015645623">
        <ele>-4.19</ele>
        <time>2019-05-05T15:16:09Z</time>
      </trkpt>
      <trkpt lat="54.319034982472658" lon="8.947104960680008">
        <ele>-3.23</ele>
        <time>2019-05-05T15:16:11Z</time>
      </trkpt>
      <trkpt lat="54.318987959995866" lon="8.947145026177168">
        <ele>-2.75</ele>
        <time>2019-05-05T15:16:12Z</time>
      </trkpt>
      <trkpt lat="54.318953007459641" lon="8.947175033390522">
        <ele>-2.27</ele>
        <time>2019-05-05T15:16:13Z</time>
      </trkpt>
      <trkpt lat="54.318944960832596" lon="8.947268994525075">
        <ele>-1.79</ele>
        <time>2019-05-05T15:16:14Z</time>
      </trkpt>
      <trkpt lat="54.318964993581176" lon="8.947316017001867">
        <ele>-1.79</ele>
        <time>2019-05-05T15:16:15Z</time>
      </trkpt>
      <trkpt lat="54.318993994966149" lon="8.947382988408208">
        <ele>-1.79</ele>
        <time>2019-05-05T15:16:16Z</time>
      </trkpt>
      <trkpt lat="54.319025008007884" lon="8.947455994784832">
        <ele>-1.79</ele>
        <time>2019-05-05T15:16:17Z</time>
      </trkpt>
      <trkpt lat="54.31905903853476" lon="8.947535958141089">
        <ele>-1.79</ele>
        <time>2019-05-05T15:16:18Z</time>
      </trkpt>
      <trkpt lat="54.319092985242605" lon="8.947613993659616">
        <ele>-2.27</ele>
        <time>2019-05-05T15:16:19Z</time>
      </trkpt>
      <trkpt lat="54.31912500411272" lon="8.947669984772801">
        <ele>-2.27</ele>
        <time>2019-05-05T15:16:20Z</time>
      </trkpt>
      <trkpt lat="54.319177977740765" lon="8.947718013077974">
        <ele>-2.27</ele>
        <time>2019-05-05T15:16:21Z</time>
      </trkpt>
      <trkpt lat="54.319237992167473" lon="8.947775010019541">
        <ele>-2.27</ele>
        <time>2019-05-05T15:16:22Z</time>
      </trkpt>
      <trkpt lat="54.319879040122032" lon="8.948192009702325">
        <ele>-1.79</ele>
        <time>2019-05-05T15:16:28Z</time>
      </trkpt>
      <trkpt lat="54.319988004863262" lon="8.948251018300653">
        <ele>-1.79</ele>
        <time>2019-05-05T15:16:29Z</time>
      </trkpt>
      <trkpt lat="54.320095041766763" lon="8.94831002689898">
        <ele>-1.79</ele>
        <time>2019-05-05T15:16:30Z</time>
      </trkpt>
      <trkpt lat="54.32125199586153" lon="8.94891201518476">
        <ele>-1.79</ele>
        <time>2019-05-05T15:16:41Z</time>
      </trkpt>
      <trkpt lat="54.322825027629733" lon="8.9497060328722">
        <ele>0.14</ele>
        <time>2019-05-05T15:16:56Z</time>
      </trkpt>
      <trkpt lat="54.323675036430359" lon="8.950087996199727">
        <ele>-0.34</ele>
        <time>2019-05-05T15:17:05Z</time>
      </trkpt>
      <trkpt lat="54.323854995891452" lon="8.950293017551303">
        <ele>-1.3</ele>
        <time>2019-05-05T15:17:08Z</time>
      </trkpt>
      <trkpt lat="54.323891038075089" lon="8.950256975367665">
        <ele>-1.3</ele>
        <time>2019-05-05T15:17:09Z</time>
      </trkpt>
      <trkpt lat="54.323933031409979" lon="8.950214982032776">
        <ele>-1.3</ele>
        <time>2019-05-05T15:17:10Z</time>
      </trkpt>
      <trkpt lat="54.323960021138191" lon="8.950159996747971">
        <ele>-1.3</ele>
        <time>2019-05-05T15:17:11Z</time>
      </trkpt>
      <trkpt lat="54.323960021138191" lon="8.950060000643134">
        <ele>-1.79</ele>
        <time>2019-05-05T15:17:12Z</time>
      </trkpt>
      <trkpt lat="54.323960021138191" lon="8.949995040893555">
        <ele>-1.79</ele>
        <time>2019-05-05T15:17:13Z</time>
      </trkpt>
      <trkpt lat="54.323885003104806" lon="8.949767975136638">
        <ele>-1.79</ele>
        <time>2019-05-05T15:17:14Z</time>
      </trkpt>
      <trkpt lat="54.323901012539864" lon="8.949592038989067">
        <ele>-2.27</ele>
        <time>2019-05-05T15:17:15Z</time>
      </trkpt>
      <trkpt lat="54.323919033631682" lon="8.949393974617124">
        <ele>-2.27</ele>
        <time>2019-05-05T15:17:16Z</time>
      </trkpt>
      <trkpt lat="54.323938982561231" lon="8.949177972972393">
        <ele>-2.27</ele>
        <time>2019-05-05T15:17:17Z</time>
      </trkpt>
      <trkpt lat="54.323994973674417" lon="8.948735995218158">
        <ele>-1.3</ele>
        <time>2019-05-05T15:17:19Z</time>
      </trkpt>
      <trkpt lat="54.324027998372912" lon="8.948533991351724">
        <ele>-0.82</ele>
        <time>2019-05-05T15:17:20Z</time>
      </trkpt>
      <trkpt lat="54.324059011414647" lon="8.948351014405489">
        <ele>-0.82</ele>
        <time>2019-05-05T15:17:21Z</time>
      </trkpt>
      <trkpt lat="54.324116008356214" lon="8.948201984167099">
        <ele>-0.82</ele>
        <time>2019-05-05T15:17:22Z</time>
      </trkpt>
      <trkpt lat="54.324178034439683" lon="8.948079021647573">
        <ele>-0.34</ele>
        <time>2019-05-05T15:17:23Z</time>
      </trkpt>
      <trkpt lat="54.324267972260714" lon="8.947999980300665">
        <ele>-0.34</ele>
        <time>2019-05-05T15:17:24Z</time>
      </trkpt>
      <trkpt lat="54.324351958930492" lon="8.947999980300665">
        <ele>-0.34</ele>
        <time>2019-05-05T15:17:25Z</time>
      </trkpt>
      <trkpt lat="54.324426976963878" lon="8.947999980300665">
        <ele>-0.34</ele>
        <time>2019-05-05T15:17:26Z</time>
      </trkpt>
      <trkpt lat="54.324493026360869" lon="8.948063012212515">
        <ele>-0.34</ele>
        <time>2019-05-05T15:17:27Z</time>
      </trkpt>
      <trkpt lat="54.324552034959197" lon="8.948156973347068">
        <ele>-0.34</ele>
        <time>2019-05-05T15:17:28Z</time>
      </trkpt>
      <trkpt lat="54.32458003051579" lon="8.948304997757077">
        <ele>-0.82</ele>
        <time>2019-05-05T15:17:29Z</time>
      </trkpt>
      <trkpt lat="54.324604002758861" lon="8.948473976925015">
        <ele>-0.82</ele>
        <time>2019-05-05T15:17:30Z</time>
      </trkpt>
      <trkpt lat="54.324631998315454" lon="8.948667012155056">
        <ele>-0.82</ele>
        <time>2019-05-05T15:17:31Z</time>
      </trkpt>
      <trkpt lat="54.324662005528808" lon="8.948882007971406">
        <ele>-0.82</ele>
        <time>2019-05-05T15:17:32Z</time>
      </trkpt>
      <trkpt lat="54.324668040499091" lon="8.951182002201676">
        <ele>-0.82</ele>
        <time>2019-05-05T15:17:40Z</time>
      </trkpt>
      <trkpt lat="54.324527978897095" lon="8.95301504060626">
        <ele>-0.82</ele>
        <time>2019-05-05T15:17:48Z</time>
      </trkpt>
      <trkpt lat="54.324495038017631" lon="8.953220983967185">
        <ele>-0.82</ele>
        <time>2019-05-05T15:17:49Z</time>
      </trkpt>
      <trkpt lat="54.324372997507453" lon="8.953604036942124">
        <ele>-0.82</ele>
        <time>2019-05-05T15:17:51Z</time>
      </trkpt>
      <trkpt lat="54.324291022494435" lon="8.953777961432934">
        <ele>-0.34</ele>
        <time>2019-05-05T15:17:52Z</time>
      </trkpt>
      <trkpt lat="54.324190020561218" lon="8.953925985842943">
        <ele>-0.34</ele>
        <time>2019-05-05T15:17:53Z</time>
      </trkpt>
      <trkpt lat="54.324083989486098" lon="8.954081973060966">
        <ele>-0.82</ele>
        <time>2019-05-05T15:17:54Z</time>
      </trkpt>
      <trkpt lat="54.323967983946204" lon="8.954225974157453">
        <ele>-0.82</ele>
        <time>2019-05-05T15:17:55Z</time>
      </trkpt>
      <trkpt lat="54.323828006163239" lon="8.95432697609067">
        <ele>-1.3</ele>
        <time>2019-05-05T15:17:56Z</time>
      </trkpt>
      <trkpt lat="54.323680987581611" lon="8.95443401299417">
        <ele>-1.3</ele>
        <time>2019-05-05T15:17:57Z</time>
      </trkpt>
      <trkpt lat="54.323529023677111" lon="8.9545429777354">
        <ele>-1.79</ele>
        <time>2019-05-05T15:17:58Z</time>
      </trkpt>
      <trkpt lat="54.322164030745625" lon="8.95510096102953">
        <ele>-3.23</ele>
        <time>2019-05-05T15:18:06Z</time>
      </trkpt>
      <trkpt lat="54.32045797817409" lon="8.955470016226172">
        <ele>0.14</ele>
        <time>2019-05-05T15:18:16Z</time>
      </trkpt>
      <trkpt lat="54.319140007719398" lon="8.955782996490598">
        <ele>2.54</ele>
        <time>2019-05-05T15:18:26Z</time>
      </trkpt>
      <trkpt lat="54.317310992628336" lon="8.956198990345001">
        <ele>3.98</ele>
        <time>2019-05-05T15:18:40Z</time>
      </trkpt>
      <trkpt lat="54.315377036109567" lon="8.956639040261507">
        <ele>4.46</ele>
        <time>2019-05-05T15:18:53Z</time>
      </trkpt>
      <trkpt lat="54.313165973871946" lon="8.957138014957309">
        <ele>3.98</ele>
        <time>2019-05-05T15:19:09Z</time>
      </trkpt>
      <trkpt lat="54.311406025663018" lon="8.957589967176318">
        <ele>3.98</ele>
        <time>2019-05-05T15:19:20Z</time>
      </trkpt>
      <trkpt lat="54.309368971735239" lon="8.958324976265431">
        <ele>3.5</ele>
        <time>2019-05-05T15:19:33Z</time>
      </trkpt>
      <trkpt lat="54.307955028489232" lon="8.959121005609632">
        <ele>3.98</ele>
        <time>2019-05-05T15:19:44Z</time>
      </trkpt>
      <trkpt lat="54.307507015764713" lon="8.959266012534499">
        <ele>2.06</ele>
        <time>2019-05-05T15:19:48Z</time>
      </trkpt>
      <trkpt lat="54.30741598829627" lon="8.959226030856371">
        <ele>1.58</ele>
        <time>2019-05-05T15:19:49Z</time>
      </trkpt>
      <trkpt lat="54.307332001626492" lon="8.959188982844353">
        <ele>1.1</ele>
        <time>2019-05-05T15:19:50Z</time>
      </trkpt>
      <trkpt lat="54.307255977764726" lon="8.959099967032671">
        <ele>0.62</ele>
        <time>2019-05-05T15:19:51Z</time>
      </trkpt>
      <trkpt lat="54.307195963338017" lon="8.95901002921164">
        <ele>0.14</ele>
        <time>2019-05-05T15:19:52Z</time>
      </trkpt>
      <trkpt lat="54.307141983881593" lon="8.958927970379591">
        <ele>-0.82</ele>
        <time>2019-05-05T15:19:53Z</time>
      </trkpt>
      <trkpt lat="54.307099990546703" lon="8.95875496789813">
        <ele>-1.3</ele>
        <time>2019-05-05T15:19:54Z</time>
      </trkpt>
      <trkpt lat="54.307108037173748" lon="8.958617001771927">
        <ele>-1.79</ele>
        <time>2019-05-05T15:19:55Z</time>
      </trkpt>
      <trkpt lat="54.307132009416819" lon="8.958438970148563">
        <ele>-2.75</ele>
        <time>2019-05-05T15:19:56Z</time>
      </trkpt>
      <trkpt lat="54.30719998665154" lon="8.958324976265431">
        <ele>-3.23</ele>
        <time>2019-05-05T15:19:57Z</time>
      </trkpt>
      <trkpt lat="54.307268969714642" lon="8.958264961838722">
        <ele>-3.71</ele>
        <time>2019-05-05T15:19:58Z</time>
      </trkpt>
      <trkpt lat="54.307338958606124" lon="8.958203019574285">
        <ele>-4.19</ele>
        <time>2019-05-05T15:19:59Z</time>
      </trkpt>
      <trkpt lat="54.307447001338005" lon="8.958210982382298">
        <ele>-4.67</ele>
        <time>2019-05-05T15:20:00Z</time>
      </trkpt>
      <trkpt lat="54.307537022978067" lon="8.958229003474116">
        <ele>-4.67</ele>
        <time>2019-05-05T15:20:01Z</time>
      </trkpt>
      <trkpt lat="54.307636013254523" lon="8.958249036222696">
        <ele>-5.15</ele>
        <time>2019-05-05T15:20:02Z</time>
      </trkpt>
      <trkpt lat="54.307745983824134" lon="8.958270996809006">
        <ele>-5.63</ele>
        <time>2019-05-05T15:20:03Z</time>
      </trkpt>
      <trkpt lat="54.308601021766663" lon="8.958866028115153">
        <ele>-7.07</ele>
        <time>2019-05-05T15:20:10Z</time>
      </trkpt>
      <trkpt lat="54.308713003993034" lon="8.958983039483428">
        <ele>-7.07</ele>
        <time>2019-05-05T15:20:11Z</time>
      </trkpt>
      <trkpt lat="54.308873014524579" lon="8.959151012822986">
        <ele>-6.59</ele>
        <time>2019-05-05T15:20:13Z</time>
      </trkpt>
      <trkpt lat="54.30896102450788" lon="8.959242962300777">
        <ele>-6.59</ele>
        <time>2019-05-05T15:20:14Z</time>
      </trkpt>
      <trkpt lat="54.30896102450788" lon="8.959242962300777">
        <ele>-6.59</ele>
        <time>2019-05-05T15:20:15Z</time>
      </trkpt>
      <trkpt lat="54.308908972889185" lon="8.959352010861039">
        <ele>-6.59</ele>
        <time>2019-05-05T15:20:16Z</time>
      </trkpt>
      <trkpt lat="54.308867985382676" lon="8.95943901501596">
        <ele>-6.59</ele>
        <time>2019-05-05T15:20:17Z</time>
      </trkpt>
      <trkpt lat="54.308816017583013" lon="8.959546973928809">
        <ele>-6.59</ele>
        <time>2019-05-05T15:20:18Z</time>
      </trkpt>
      <trkpt lat="54.30874602869153" lon="8.959693992510438">
        <ele>-6.11</ele>
        <time>2019-05-05T15:20:19Z</time>
      </trkpt>
      <trkpt lat="54.308670004829764" lon="8.959778985008597">
        <ele>-6.11</ele>
        <time>2019-05-05T15:20:20Z</time>
      </trkpt>
      <trkpt lat="54.308475963771343" lon="8.959993980824947">
        <ele>-6.11</ele>
        <time>2019-05-05T15:20:22Z</time>
      </trkpt>
      <trkpt lat="54.308359958231449" lon="8.960122978314757">
        <ele>-5.63</ele>
        <time>2019-05-05T15:20:23Z</time>
      </trkpt>
      <trkpt lat="54.308262979611754" lon="8.960160026326776">
        <ele>-5.15</ele>
        <time>2019-05-05T15:20:24Z</time>
      </trkpt>
      <trkpt lat="54.308148985728621" lon="8.960204031318426">
        <ele>-4.67</ele>
        <time>2019-05-05T15:20:25Z</time>
      </trkpt>
      <trkpt lat="54.308023005723953" lon="8.960207970812917">
        <ele>-4.67</ele>
        <time>2019-05-05T15:20:26Z</time>
      </trkpt>
      <trkpt lat="54.307918986305594" lon="8.960166983306408">
        <ele>-4.19</ele>
        <time>2019-05-05T15:20:27Z</time>
      </trkpt>
      <trkpt lat="54.307827958837152" lon="8.960132030770183">
        <ele>-4.19</ele>
        <time>2019-05-05T15:20:28Z</time>
      </trkpt>
      <trkpt lat="54.307749001309276" lon="8.960101017728448">
        <ele>-4.19</ele>
        <time>2019-05-05T15:20:29Z</time>
      </trkpt>
      <trkpt lat="54.307683035731316" lon="8.959924997761846">
        <ele>-3.71</ele>
        <time>2019-05-05T15:20:30Z</time>
      </trkpt>
      <trkpt lat="54.307671971619129" lon="8.959792982786894">
        <ele>-3.71</ele>
        <time>2019-05-05T15:20:31Z</time>
      </trkpt>
      <trkpt lat="54.307661997154355" lon="8.959664991125464">
        <ele>-3.23</ele>
        <time>2019-05-05T15:20:32Z</time>
      </trkpt>
      <trkpt lat="54.307668032124639" lon="8.959498023614287">
        <ele>-2.75</ele>
        <time>2019-05-05T15:20:33Z</time>
      </trkpt>
      <trkpt lat="54.307711031287909" lon="8.959380006417632">
        <ele>-2.27</ele>
        <time>2019-05-05T15:20:34Z</time>
      </trkpt>
      <trkpt lat="54.307796023786068" lon="8.959221001714468">
        <ele>-1.79</ele>
        <time>2019-05-05T15:20:35Z</time>
      </trkpt>
      <trkpt lat="54.30788797326386" lon="8.959162998944521">
        <ele>-1.79</ele>
        <time>2019-05-05T15:20:36Z</time>
      </trkpt>
      <trkpt lat="54.307997021824121" lon="8.9590950217098">
        <ele>-1.79</ele>
        <time>2019-05-05T15:20:37Z</time>
      </trkpt>
      <trkpt lat="54.309122040867805" lon="8.958437964320183">
        <ele>-0.34</ele>
        <time>2019-05-05T15:20:44Z</time>
      </trkpt>
      <trkpt lat="54.310977961868048" lon="8.957705972716212">
        <ele>1.1</ele>
        <time>2019-05-05T15:20:53Z</time>
      </trkpt>
      <trkpt lat="54.312683008611202" lon="8.957252008840442">
        <ele>1.1</ele>
        <time>2019-05-05T15:21:02Z</time>
      </trkpt>
      <trkpt lat="54.315421041101217" lon="8.95662697032094">
        <ele>1.1</ele>
        <time>2019-05-05T15:21:18Z</time>
      </trkpt>
      <trkpt lat="54.31775095872581" lon="8.956098994240165">
        <ele>1.58</ele>
        <time>2019-05-05T15:21:28Z</time>
      </trkpt>
      <trkpt lat="54.320224961265922" lon="8.955526007339358">
        <ele>1.1</ele>
        <time>2019-05-05T15:21:39Z</time>
      </trkpt>
      <trkpt lat="54.32266803458333" lon="8.954988978803158">
        <ele>-0.34</ele>
        <time>2019-05-05T15:21:51Z</time>
      </trkpt>
      <trkpt lat="54.325016979128122" lon="8.954472988843918">
        <ele>-0.82</ele>
        <time>2019-05-05T15:22:02Z</time>
      </trkpt>
      <trkpt lat="54.327714024111629" lon="8.954148022457957">
        <ele>1.1</ele>
        <time>2019-05-05T15:22:14Z</time>
      </trkpt>
      <trkpt lat="54.32986699976027" lon="8.95409001968801">
        <ele>0.14</ele>
        <time>2019-05-05T15:22:24Z</time>
      </trkpt>
      <trkpt lat="54.33145796880126" lon="8.954640040174127">
        <ele>0.14</ele>
        <time>2019-05-05T15:22:32Z</time>
      </trkpt>
      <trkpt lat="54.332784991711378" lon="8.955792970955372">
        <ele>-0.34</ele>
        <time>2019-05-05T15:22:39Z</time>
      </trkpt>
      <trkpt lat="54.335285983979702" lon="8.95858297124505">
        <ele>0.62</ele>
        <time>2019-05-05T15:22:52Z</time>
      </trkpt>
      <trkpt lat="54.337439965456724" lon="8.961005005985498">
        <ele>0.14</ele>
        <time>2019-05-05T15:23:03Z</time>
      </trkpt>
      <trkpt lat="54.339098995551467" lon="8.962858999148011">
        <ele>-0.34</ele>
        <time>2019-05-05T15:23:12Z</time>
      </trkpt>
      <trkpt lat="54.341639969497919" lon="8.965740026906133">
        <ele>0.14</ele>
        <time>2019-05-05T15:23:24Z</time>
      </trkpt>
      <trkpt lat="54.344870019704103" lon="8.969352962449193">
        <ele>-0.82</ele>
        <time>2019-05-05T15:23:39Z</time>
      </trkpt>
      <trkpt lat="54.346455037593842" lon="8.970645032823086">
        <ele>-0.34</ele>
        <time>2019-05-05T15:23:46Z</time>
      </trkpt>
      <trkpt lat="54.347939975559711" lon="8.970893975347281">
        <ele>-0.34</ele>
        <time>2019-05-05T15:23:52Z</time>
      </trkpt>
      <trkpt lat="54.350958969444036" lon="8.970714015886188">
        <ele>-0.34</ele>
        <time>2019-05-05T15:24:03Z</time>
      </trkpt>
      <trkpt lat="54.353593988344073" lon="8.970636986196041">
        <ele>-1.3</ele>
        <time>2019-05-05T15:24:14Z</time>
      </trkpt>
      <trkpt lat="54.355101976543665" lon="8.971330001950264">
        <ele>-3.23</ele>
        <time>2019-05-05T15:24:21Z</time>
      </trkpt>
      <trkpt lat="54.357455028221011" lon="8.97269700653851">
        <ele>-4.19</ele>
        <time>2019-05-05T15:24:31Z</time>
      </trkpt>
      <trkpt lat="54.361210959032178" lon="8.974900022149086">
        <ele>-3.71</ele>
        <time>2019-05-05T15:24:45Z</time>
      </trkpt>
      <trkpt lat="54.364619962871075" lon="8.976912014186382">
        <ele>-3.23</ele>
        <time>2019-05-05T15:24:58Z</time>
      </trkpt>
      <trkpt lat="54.366213027387857" lon="8.977842992171645">
        <ele>-4.19</ele>
        <time>2019-05-05T15:25:06Z</time>
      </trkpt>
      <trkpt lat="54.368290985003114" lon="8.979070018976927">
        <ele>-3.23</ele>
        <time>2019-05-05T15:25:18Z</time>
      </trkpt>
      <trkpt lat="54.368623998016119" lon="8.979363972321153">
        <ele>-3.23</ele>
        <time>2019-05-05T15:25:20Z</time>
      </trkpt>
      <trkpt lat="54.368771016597748" lon="8.979564970359206">
        <ele>-2.75</ele>
        <time>2019-05-05T15:25:21Z</time>
      </trkpt>
      <trkpt lat="54.368916023522615" lon="8.979780972003937">
        <ele>-2.75</ele>
        <time>2019-05-05T15:25:22Z</time>
      </trkpt>
      <trkpt lat="54.36905600130558" lon="8.98000200279057">
        <ele>-2.75</ele>
        <time>2019-05-05T15:25:23Z</time>
      </trkpt>
      <trkpt lat="54.369175024330616" lon="8.980263015255332">
        <ele>-3.23</ele>
        <time>2019-05-05T15:25:24Z</time>
      </trkpt>
      <trkpt lat="54.36929396353662" lon="8.980526961386204">
        <ele>-3.23</ele>
        <time>2019-05-05T15:25:25Z</time>
      </trkpt>
      <trkpt lat="54.369414998218417" lon="8.98079501464963">
        <ele>-3.23</ele>
        <time>2019-05-05T15:25:26Z</time>
      </trkpt>
      <trkpt lat="54.370558960363269" lon="8.983609993010759">
        <ele>-3.23</ele>
        <time>2019-05-05T15:25:35Z</time>
      </trkpt>
      <trkpt lat="54.371881037950516" lon="8.986879019066691">
        <ele>-4.19</ele>
        <time>2019-05-05T15:25:43Z</time>
      </trkpt>
      <trkpt lat="54.37277102842927" lon="8.989078011363745">
        <ele>-4.67</ele>
        <time>2019-05-05T15:25:50Z</time>
      </trkpt>
      <trkpt lat="54.37361097894609" lon="8.991156974807382">
        <ele>-5.63</ele>
        <time>2019-05-05T15:25:56Z</time>
      </trkpt>
      <trkpt lat="54.374802969396114" lon="8.994103968143463">
        <ele>-5.15</ele>
        <time>2019-05-05T15:26:05Z</time>
      </trkpt>
      <trkpt lat="54.376455964520574" lon="8.997966013848782">
        <ele>-5.15</ele>
        <time>2019-05-05T15:26:18Z</time>
      </trkpt>
      <trkpt lat="54.377738982439041" lon="8.999678017571569">
        <ele>-3.71</ele>
        <time>2019-05-05T15:26:26Z</time>
      </trkpt>
      <trkpt lat="54.378846986219287" lon="9.000539006665349">
        <ele>-3.71</ele>
        <time>2019-05-05T15:26:31Z</time>
      </trkpt>
      <trkpt lat="54.380562007427216" lon="9.001513989642263">
        <ele>-3.23</ele>
        <time>2019-05-05T15:26:37Z</time>
      </trkpt>
      <trkpt lat="54.384019961580634" lon="9.003481976687908">
        <ele>-2.27</ele>
        <time>2019-05-05T15:26:51Z</time>
      </trkpt>
      <trkpt lat="54.387281024828553" lon="9.00531099177897">
        <ele>-0.82</ele>
        <time>2019-05-05T15:27:04Z</time>
      </trkpt>
      <trkpt lat="54.389426037669182" lon="9.0069430321455">
        <ele>-0.34</ele>
        <time>2019-05-05T15:27:13Z</time>
      </trkpt>
      <trkpt lat="54.390673013404012" lon="9.009095001965761">
        <ele>-0.34</ele>
        <time>2019-05-05T15:27:20Z</time>
      </trkpt>
      <trkpt lat="54.391431994736195" lon="9.011511001735926">
        <ele>1.1</ele>
        <time>2019-05-05T15:27:26Z</time>
      </trkpt>
      <trkpt lat="54.392621973529458" lon="9.016930991783738">
        <ele>0.62</ele>
        <time>2019-05-05T15:27:38Z</time>
      </trkpt>
      <trkpt lat="54.394086040556431" lon="9.023306015878916">
        <ele>-2.27</ele>
        <time>2019-05-05T15:27:52Z</time>
      </trkpt>
      <trkpt lat="54.395033027976751" lon="9.025536021217704">
        <ele>-1.79</ele>
        <time>2019-05-05T15:27:58Z</time>
      </trkpt>
      <trkpt lat="54.396029971539974" lon="9.026793977245688">
        <ele>-1.79</ele>
        <time>2019-05-05T15:28:03Z</time>
      </trkpt>
      <trkpt lat="54.397539971396327" lon="9.027980016544461">
        <ele>-2.75</ele>
        <time>2019-05-05T15:28:11Z</time>
      </trkpt>
      <trkpt lat="54.399464037269354" lon="9.029206037521362">
        <ele>-2.75</ele>
        <time>2019-05-05T15:28:22Z</time>
      </trkpt>
      <trkpt lat="54.401270002126694" lon="9.030371038243175">
        <ele>-3.23</ele>
        <time>2019-05-05T15:28:33Z</time>
      </trkpt>
      <trkpt lat="54.402398960664868" lon="9.031433025375009">
        <ele>-3.23</ele>
        <time>2019-05-05T15:28:40Z</time>
      </trkpt>
      <trkpt lat="54.403384001925588" lon="9.032466011121869">
        <ele>-3.71</ele>
        <time>2019-05-05T15:28:45Z</time>
      </trkpt>
      <trkpt lat="54.404094032943249" lon="9.033246031031013">
        <ele>-4.19</ele>
        <time>2019-05-05T15:28:50Z</time>
      </trkpt>
      <trkpt lat="54.405026016756892" lon="9.034270970150828">
        <ele>-4.19</ele>
        <time>2019-05-05T15:28:56Z</time>
      </trkpt>
      <trkpt lat="54.40588298253715" lon="9.035212006419897">
        <ele>-3.71</ele>
        <time>2019-05-05T15:29:02Z</time>
      </trkpt>
      <trkpt lat="54.406928038224578" lon="9.036359991878271">
        <ele>-4.19</ele>
        <time>2019-05-05T15:29:07Z</time>
      </trkpt>
      <trkpt lat="54.409350994974375" lon="9.03902200050652">
        <ele>-4.19</ele>
        <time>2019-05-05T15:29:17Z</time>
      </trkpt>
      <trkpt lat="54.411015976220369" lon="9.040851015597582">
        <ele>-6.59</ele>
        <time>2019-05-05T15:29:25Z</time>
      </trkpt>
      <trkpt lat="54.412650028243661" lon="9.042668966576457">
        <ele>-7.07</ele>
        <time>2019-05-05T15:29:35Z</time>
      </trkpt>
      <trkpt lat="54.414115017279983" lon="9.044287009164691">
        <ele>-6.59</ele>
        <time>2019-05-05T15:29:44Z</time>
      </trkpt>
      <trkpt lat="54.415951995179057" lon="9.04628399759531">
        <ele>-6.11</ele>
        <time>2019-05-05T15:29:52Z</time>
      </trkpt>
      <trkpt lat="54.41851400770247" lon="9.049061005935073">
        <ele>-6.11</ele>
        <time>2019-05-05T15:30:03Z</time>
      </trkpt>
      <trkpt lat="54.420933024957776" lon="9.051095964387059">
        <ele>-6.11</ele>
        <time>2019-05-05T15:30:13Z</time>
      </trkpt>
      <trkpt lat="54.424940999597311" lon="9.054163992404938">
        <ele>-5.15</ele>
        <time>2019-05-05T15:30:28Z</time>
      </trkpt>
      <trkpt lat="54.426905969157815" lon="9.055206030607224">
        <ele>-5.15</ele>
        <time>2019-05-05T15:30:35Z</time>
      </trkpt>
      <trkpt lat="54.428136013448238" lon="9.055223967880011">
        <ele>-4.67</ele>
        <time>2019-05-05T15:30:40Z</time>
      </trkpt>
      <trkpt lat="54.429562026634812" lon="9.054629020392895">
        <ele>-4.19</ele>
        <time>2019-05-05T15:30:47Z</time>
      </trkpt>
      <trkpt lat="54.430899024009705" lon="9.053336028009653">
        <ele>-3.71</ele>
        <time>2019-05-05T15:30:55Z</time>
      </trkpt>
      <trkpt lat="54.432255970314145" lon="9.0511370357126">
        <ele>-2.27</ele>
        <time>2019-05-05T15:31:05Z</time>
      </trkpt>
      <trkpt lat="54.433613000437617" lon="9.048760011792183">
        <ele>-2.75</ele>
        <time>2019-05-05T15:31:14Z</time>
      </trkpt>
      <trkpt lat="54.435570007190108" lon="9.045482017099857">
        <ele>-4.67</ele>
        <time>2019-05-05T15:31:25Z</time>
      </trkpt>
      <trkpt lat="54.436162021011114" lon="9.044773997738957">
        <ele>-4.19</ele>
        <time>2019-05-05T15:31:28Z</time>
      </trkpt>
      <trkpt lat="54.436381040140986" lon="9.044623961672187">
        <ele>-3.71</ele>
        <time>2019-05-05T15:31:29Z</time>
      </trkpt>
      <trkpt lat="54.436598969623446" lon="9.044481972232461">
        <ele>-3.71</ele>
        <time>2019-05-05T15:31:30Z</time>
      </trkpt>
      <trkpt lat="54.436829974874854" lon="9.044379964470863">
        <ele>-4.19</ele>
        <time>2019-05-05T15:31:31Z</time>
      </trkpt>
      <trkpt lat="54.437063997611403" lon="9.044277034699917">
        <ele>-4.19</ele>
        <time>2019-05-05T15:31:32Z</time>
      </trkpt>
      <trkpt lat="54.437302965670824" lon="9.044232023879886">
        <ele>-4.19</ele>
        <time>2019-05-05T15:31:33Z</time>
      </trkpt>
      <trkpt lat="54.437547968700528" lon="9.044197993353009">
        <ele>-4.19</ele>
        <time>2019-05-05T15:31:34Z</time>
      </trkpt>
      <trkpt lat="54.437794983386993" lon="9.044186007231474">
        <ele>-4.19</ele>
        <time>2019-05-05T15:31:35Z</time>
      </trkpt>
      <trkpt lat="54.438043003901839" lon="9.044236969202757">
        <ele>-4.19</ele>
        <time>2019-05-05T15:31:36Z</time>
      </trkpt>
      <trkpt lat="54.438288006931543" lon="9.044287009164691">
        <ele>-4.19</ele>
        <time>2019-05-05T15:31:37Z</time>
      </trkpt>
      <trkpt lat="54.439498018473387" lon="9.044681964442134">
        <ele>-4.19</ele>
        <time>2019-05-05T15:31:43Z</time>
      </trkpt>
      <trkpt lat="54.44070702418685" lon="9.045112961903215">
        <ele>-2.75</ele>
        <time>2019-05-05T15:31:50Z</time>
      </trkpt>
      <trkpt lat="54.44227603264153" lon="9.045663988217711">
        <ele>-2.75</ele>
        <time>2019-05-05T15:31:57Z</time>
      </trkpt>
      <trkpt lat="54.444276038557291" lon="9.046367984265089">
        <ele>-3.23</ele>
        <time>2019-05-05T15:32:08Z</time>
      </trkpt>
      <trkpt lat="54.446390038356185" lon="9.047110034152865">
        <ele>-2.75</ele>
        <time>2019-05-05T15:32:20Z</time>
      </trkpt>
      <trkpt lat="54.448414016515017" lon="9.047691989690065">
        <ele>-2.75</ele>
        <time>2019-05-05T15:32:32Z</time>
      </trkpt>
      <trkpt lat="54.449852015823126" lon="9.047338021919131">
        <ele>-3.23</ele>
        <time>2019-05-05T15:32:40Z</time>
      </trkpt>
      <trkpt lat="54.45093403570354" lon="9.046925967559218">
        <ele>-3.71</ele>
        <time>2019-05-05T15:32:47Z</time>
      </trkpt>
      <trkpt lat="54.451338965445757" lon="9.046770986169577">
        <ele>-3.71</ele>
        <time>2019-05-05T15:32:54Z</time>
      </trkpt>
      <trkpt lat="54.451462011784315" lon="9.046714995056391">
        <ele>-3.23</ele>
        <time>2019-05-05T15:33:03Z</time>
      </trkpt>
      <trkpt lat="54.451464023441076" lon="9.046655986458063">
        <ele>-3.23</ele>
        <time>2019-05-05T15:33:04Z</time>
      </trkpt>
      <trkpt lat="54.451468968763947" lon="9.046547021716833">
        <ele>-2.75</ele>
        <time>2019-05-05T15:33:05Z</time>
      </trkpt>
      <trkpt lat="54.451476009562612" lon="9.046401008963585">
        <ele>-2.75</ele>
        <time>2019-05-05T15:33:06Z</time>
      </trkpt>
      <trkpt lat="54.451482966542244" lon="9.046233035624027">
        <ele>-2.75</ele>
        <time>2019-05-05T15:33:07Z</time>
      </trkpt>
      <trkpt lat="54.451572988182306" lon="9.046043017879129">
        <ele>-3.23</ele>
        <time>2019-05-05T15:33:08Z</time>
      </trkpt>
      <trkpt lat="54.451653035357594" lon="9.04587303288281">
        <ele>-3.71</ele>
        <time>2019-05-05T15:33:09Z</time>
      </trkpt>
      <trkpt lat="54.451767029240727" lon="9.04574797488749">
        <ele>-3.71</ele>
        <time>2019-05-05T15:33:10Z</time>
      </trkpt>
      <trkpt lat="54.451898960396647" lon="9.045636998489499">
        <ele>-4.19</ele>
        <time>2019-05-05T15:33:11Z</time>
      </trkpt>
      <trkpt lat="54.45205201394856" lon="9.045508000999689">
        <ele>-4.67</ele>
        <time>2019-05-05T15:33:12Z</time>
      </trkpt>
      <trkpt lat="54.452219987288117" lon="9.045367017388344">
        <ele>-4.67</ele>
        <time>2019-05-05T15:33:13Z</time>
      </trkpt>
      <trkpt lat="54.45344801992178" lon="9.044333025813103">
        <ele>-5.63</ele>
        <time>2019-05-05T15:33:19Z</time>
      </trkpt>
    </trkseg>
  </trk>

  <trk>
    <name>Track vom: 2019-05-05 17:33</name>
    <extensions>
      <gpxx:TrackExtension>
        <gpxx:DisplayColor>DarkGray</gpxx:DisplayColor>
      </gpxx:TrackExtension>
    </extensions>
    <trkseg>
      <trkpt lat="54.454605979844928" lon="9.043386960402131">
        <ele>-5.15</ele>
        <time>2019-05-05T15:33:25Z</time>
      </trkpt>
      <trkpt lat="54.454800020903349" lon="9.043298028409481">
        <ele>-5.15</ele>
        <time>2019-05-05T15:33:26Z</time>
      </trkpt>
      <trkpt lat="54.454994983971119" lon="9.043209012597799">
        <ele>-5.63</ele>
        <time>2019-05-05T15:33:27Z</time>
      </trkpt>
      <trkpt lat="54.455191036686301" lon="9.043119996786118">
        <ele>-6.11</ele>
        <time>2019-05-05T15:33:28Z</time>
      </trkpt>
      <trkpt lat="54.455393040552735" lon="9.043082026764751">
        <ele>-6.11</ele>
        <time>2019-05-05T15:33:29Z</time>
      </trkpt>
      <trkpt lat="54.455596972256899" lon="9.043087977916002">
        <ele>-6.59</ele>
        <time>2019-05-05T15:33:30Z</time>
      </trkpt>
      <trkpt lat="54.455801993608475" lon="9.043094012886286">
        <ele>-7.07</ele>
        <time>2019-05-05T15:33:31Z</time>
      </trkpt>
      <trkpt lat="54.456011038273573" lon="9.043109016492963">
        <ele>-7.07</ele>
        <time>2019-05-05T15:33:32Z</time>
      </trkpt>
      <trkpt lat="54.456212958320975" lon="9.043191997334361">
        <ele>-7.07</ele>
        <time>2019-05-05T15:33:33Z</time>
      </trkpt>
      <trkpt lat="54.45641596801579" lon="9.043273972347379">
        <ele>-7.07</ele>
        <time>2019-05-05T15:33:34Z</time>
      </trkpt>
      <trkpt lat="54.456612020730972" lon="9.043415961787105">
        <ele>-7.07</ele>
        <time>2019-05-05T15:33:35Z</time>
      </trkpt>
      <trkpt lat="54.456808995455503" lon="9.04357697814703">
        <ele>-7.07</ele>
        <time>2019-05-05T15:33:36Z</time>
      </trkpt>
      <trkpt lat="54.457013010978699" lon="9.043743023648858">
        <ele>-7.07</ele>
        <time>2019-05-05T15:33:37Z</time>
      </trkpt>
      <trkpt lat="54.45721099153161" lon="9.043952990323305">
        <ele>-7.07</ele>
        <time>2019-05-05T15:33:38Z</time>
      </trkpt>
      <trkpt lat="54.459531018510461" lon="9.046509973704815">
        <ele>-5.63</ele>
        <time>2019-05-05T15:33:49Z</time>
      </trkpt>
      <trkpt lat="54.462726032361388" lon="9.049944039434195">
        <ele>-4.67</ele>
        <time>2019-05-05T15:34:04Z</time>
      </trkpt>
      <trkpt lat="54.465244961902499" lon="9.052445031702519">
        <ele>-4.67</ele>
        <time>2019-05-05T15:34:17Z</time>
      </trkpt>
      <trkpt lat="54.466261016204953" lon="9.053433006629348">
        <ele>-4.19</ele>
        <time>2019-05-05T15:34:25Z</time>
      </trkpt>
      <trkpt lat="54.466785974800587" lon="9.053859980776906">
        <ele>-3.23</ele>
        <time>2019-05-05T15:34:30Z</time>
      </trkpt>
      <trkpt lat="54.466887982562184" lon="9.05388998799026">
        <ele>-3.23</ele>
        <time>2019-05-05T15:34:31Z</time>
      </trkpt>
      <trkpt lat="54.467157041653991" lon="9.053914966061711">
        <ele>-3.23</ele>
        <time>2019-05-05T15:34:34Z</time>
      </trkpt>
      <trkpt lat="54.467340018600225" lon="9.053914966061711">
        <ele>-3.71</ele>
        <time>2019-05-05T15:34:36Z</time>
      </trkpt>
      <trkpt lat="54.46741403080523" lon="9.053878001868725">
        <ele>-3.71</ele>
        <time>2019-05-05T15:34:37Z</time>
      </trkpt>
      <trkpt lat="54.467512015253305" lon="9.053828967735171">
        <ele>-3.71</ele>
        <time>2019-05-05T15:34:38Z</time>
      </trkpt>
      <trkpt lat="54.468556987121701" lon="9.052763963118196">
        <ele>-0.82</ele>
        <time>2019-05-05T15:34:49Z</time>
      </trkpt>
      <trkpt lat="54.469519983977079" lon="9.052184019237757">
        <ele>-0.34</ele>
        <time>2019-05-05T15:34:58Z</time>
      </trkpt>
      <trkpt lat="54.470086013898253" lon="9.051882019266486">
        <ele>0.14</ele>
        <time>2019-05-05T15:35:04Z</time>
      </trkpt>
      <trkpt lat="54.470173018053174" lon="9.051816975697875">
        <ele>0.14</ele>
        <time>2019-05-05T15:35:05Z</time>
      </trkpt>
      <trkpt lat="54.470505025237799" lon="9.05156803317368">
        <ele>0.14</ele>
        <time>2019-05-05T15:35:09Z</time>
      </trkpt>
      <trkpt lat="54.470588006079197" lon="9.051506007090211">
        <ele>0.14</ele>
        <time>2019-05-05T15:35:10Z</time>
      </trkpt>
      <trkpt lat="54.470668975263834" lon="9.051446998491883">
        <ele>0.62</ele>
        <time>2019-05-05T15:35:11Z</time>
      </trkpt>
      <trkpt lat="54.470752961933613" lon="9.051445992663503">
        <ele>1.1</ele>
        <time>2019-05-05T15:35:12Z</time>
      </trkpt>
      <trkpt lat="54.470829991623759" lon="9.051444986835122">
        <ele>1.1</ele>
        <time>2019-05-05T15:35:13Z</time>
      </trkpt>
      <trkpt lat="54.471187982708216" lon="9.05143903568387">
        <ele>2.54</ele>
        <time>2019-05-05T15:35:18Z</time>
      </trkpt>
      <trkpt lat="54.471249002963305" lon="9.05143802985549">
        <ele>2.54</ele>
        <time>2019-05-05T15:35:19Z</time>
      </trkpt>
      <trkpt lat="54.471828024834394" lon="9.051428977400065">
        <ele>4.46</ele>
        <time>2019-05-05T15:35:28Z</time>
      </trkpt>
      <trkpt lat="54.472016030922532" lon="9.051425959914923">
        <ele>5.42</ele>
        <time>2019-05-05T15:35:34Z</time>
      </trkpt>
      <trkpt lat="54.472024999558926" lon="9.051373992115259">
        <ele>5.91</ele>
        <time>2019-05-05T15:35:35Z</time>
      </trkpt>
      <trkpt lat="54.472036985680461" lon="9.051281036809087">
        <ele>5.91</ele>
        <time>2019-05-05T15:35:36Z</time>
      </trkpt>
      <trkpt lat="54.472051989287138" lon="9.051166959106922">
        <ele>5.91</ele>
        <time>2019-05-05T15:35:37Z</time>
      </trkpt>
      <trkpt lat="54.472058024257421" lon="9.051081966608763">
        <ele>5.91</ele>
        <time>2019-05-05T15:35:38Z</time>
      </trkpt>
      <trkpt lat="54.472041008993983" lon="9.050936037674546">
        <ele>5.91</ele>
        <time>2019-05-05T15:35:39Z</time>
      </trkpt>
      <trkpt lat="54.472017958760262" lon="9.050738979130983">
        <ele>5.42</ele>
        <time>2019-05-05T15:35:40Z</time>
      </trkpt>
      <trkpt lat="54.471974037587643" lon="9.050596989691258">
        <ele>4.94</ele>
        <time>2019-05-05T15:35:41Z</time>
      </trkpt>
      <trkpt lat="54.471916034817696" lon="9.050406971946359">
        <ele>4.46</ele>
        <time>2019-05-05T15:35:42Z</time>
      </trkpt>
      <trkpt lat="54.471563994884491" lon="9.049195032566786">
        <ele>1.1</ele>
        <time>2019-05-05T15:35:48Z</time>
      </trkpt>
      <trkpt lat="54.471529964357615" lon="9.04899001121521">
        <ele>0.62</ele>
        <time>2019-05-05T15:35:49Z</time>
      </trkpt>
      <trkpt lat="54.471495011821389" lon="9.048780966550112">
        <ele>0.14</ele>
        <time>2019-05-05T15:35:50Z</time>
      </trkpt>
      <trkpt lat="54.47147598490119" lon="9.048570999875665">
        <ele>-0.82</ele>
        <time>2019-05-05T15:35:51Z</time>
      </trkpt>
      <trkpt lat="54.471468022093177" lon="9.048380982130766">
        <ele>-0.82</ele>
        <time>2019-05-05T15:35:52Z</time>
      </trkpt>
      <trkpt lat="54.471459975466132" lon="9.048206973820925">
        <ele>-1.3</ele>
        <time>2019-05-05T15:35:53Z</time>
      </trkpt>
      <trkpt lat="54.471471961587667" lon="9.048073031008244">
        <ele>-1.79</ele>
        <time>2019-05-05T15:35:54Z</time>
      </trkpt>
      <trkpt lat="54.471483025699854" lon="9.047951996326447">
        <ele>-1.3</ele>
        <time>2019-05-05T15:35:55Z</time>
      </trkpt>
      <trkpt lat="54.471493000164628" lon="9.047844037413597">
        <ele>-0.82</ele>
        <time>2019-05-05T15:35:56Z</time>
      </trkpt>
      <trkpt lat="54.471631972119212" lon="9.047734988853335">
        <ele>-0.34</ele>
        <time>2019-05-05T15:35:57Z</time>
      </trkpt>
      <trkpt lat="54.471646975725889" lon="9.0477230027318">
        <ele>0.14</ele>
        <time>2019-05-05T15:35:58Z</time>
      </trkpt>
      <trkpt lat="54.471714030951262" lon="9.047669023275375">
        <ele>0.62</ele>
        <time>2019-05-05T15:35:59Z</time>
      </trkpt>
      <trkpt lat="54.471931960433722" lon="9.047069968655706">
        <ele>2.06</ele>
        <time>2019-05-05T15:36:04Z</time>
      </trkpt>
      <trkpt lat="54.472526991739869" lon="9.045820981264114">
        <ele>3.02</ele>
        <time>2019-05-05T15:36:15Z</time>
      </trkpt>
      <trkpt lat="54.473048010841012" lon="9.044666038826108">
        <ele>3.02</ele>
        <time>2019-05-05T15:36:26Z</time>
      </trkpt>
      <trkpt lat="54.473076006397605" lon="9.044485995545983">
        <ele>3.02</ele>
        <time>2019-05-05T15:36:27Z</time>
      </trkpt>
      <trkpt lat="54.473085980862379" lon="9.044419024139643">
        <ele>3.5</ele>
        <time>2019-05-05T15:36:28Z</time>
      </trkpt>
      <trkpt lat="54.473320003598928" lon="9.044343000277877">
        <ele>3.98</ele>
        <time>2019-05-05T15:36:33Z</time>
      </trkpt>
      <trkpt lat="54.473424023017287" lon="9.0447389613837">
        <ele>3.02</ele>
        <time>2019-05-05T15:36:44Z</time>
      </trkpt>
      <trkpt lat="54.473502980545163" lon="9.044769974425435">
        <ele>1.58</ele>
        <time>2019-05-05T15:36:56Z</time>
      </trkpt>
      <trkpt lat="54.47349401190877" lon="9.044709037989378">
        <ele>2.06</ele>
        <time>2019-05-05T15:37:12Z</time>
      </trkpt>
      <trkpt lat="54.473486971110106" lon="9.044703003019095">
        <ele>2.06</ele>
        <time>2019-05-05T15:37:54Z</time>
      </trkpt>
      <trkpt lat="54.473492000252008" lon="9.044690011069179">
        <ele>1.58</ele>
        <time>2019-05-05T15:38:32Z</time>
      </trkpt>
      <trkpt lat="54.473347999155521" lon="9.044431010261178">
        <ele>-0.34</ele>
        <time>2019-05-05T15:38:38Z</time>
      </trkpt>
      <trkpt lat="54.473091010004282" lon="9.044387005269527">
        <ele>-2.75</ele>
        <time>2019-05-05T15:38:41Z</time>
      </trkpt>
      <trkpt lat="54.473082041367888" lon="9.044448025524616">
        <ele>-3.71</ele>
        <time>2019-05-05T15:38:42Z</time>
      </trkpt>
      <trkpt lat="54.473048010841012" lon="9.044666038826108">
        <ele>-4.67</ele>
        <time>2019-05-05T15:38:43Z</time>
      </trkpt>
      <trkpt lat="54.473048010841012" lon="9.044666038826108">
        <ele>-5.63</ele>
        <time>2019-05-05T15:38:44Z</time>
      </trkpt>
      <trkpt lat="54.473015991970897" lon="9.044737033545971">
        <ele>-6.59</ele>
        <time>2019-05-05T15:38:45Z</time>
      </trkpt>
      <trkpt lat="54.472761014476418" lon="9.045300967991352">
        <ele>-11.880000000000001</ele>
        <time>2019-05-05T15:38:54Z</time>
      </trkpt>
      <trkpt lat="54.472489021718502" lon="9.045904967933893">
        <ele>-11.4</ele>
        <time>2019-05-05T15:39:04Z</time>
      </trkpt>
      <trkpt lat="54.47248600423336" lon="9.045911002904177">
        <ele>-11.4</ele>
        <time>2019-05-05T15:39:16Z</time>
      </trkpt>
      <trkpt lat="54.472477035596967" lon="9.045931035652757">
        <ele>-10.92</ele>
        <time>2019-05-05T15:39:17Z</time>
      </trkpt>
      <trkpt lat="54.472192972898483" lon="9.046559007838368">
        <ele>-9.48</ele>
        <time>2019-05-05T15:39:23Z</time>
      </trkpt>
      <trkpt lat="54.471872029826045" lon="9.047138029709458">
        <ele>-8.51</ele>
        <time>2019-05-05T15:39:29Z</time>
      </trkpt>
      <trkpt lat="54.471815032884479" lon="9.047200977802277">
        <ele>-8.51</ele>
        <time>2019-05-05T15:39:30Z</time>
      </trkpt>
      <trkpt lat="54.471767004579306" lon="9.047255041077733">
        <ele>-8.51</ele>
        <time>2019-05-05T15:39:31Z</time>
      </trkpt>
      <trkpt lat="54.471674971282482" lon="9.047112967818975">
        <ele>-8.51</ele>
        <time>2019-05-05T15:39:32Z</time>
      </trkpt>
      <trkpt lat="54.471620991826057" lon="9.047106010839343">
        <ele>-8.51</ele>
        <time>2019-05-05T15:39:33Z</time>
      </trkpt>
      <trkpt lat="54.471553014591336" lon="9.047096958383918">
        <ele>-8.51</ele>
        <time>2019-05-05T15:39:34Z</time>
      </trkpt>
      <trkpt lat="54.471445977687836" lon="9.047191003337503">
        <ele>-8.51</ele>
        <time>2019-05-05T15:39:35Z</time>
      </trkpt>
      <trkpt lat="54.471399961039424" lon="9.047327963635325">
        <ele>-8.029999999999999</ele>
        <time>2019-05-05T15:39:36Z</time>
      </trkpt>
      <trkpt lat="54.471407001838088" lon="9.047472970560193">
        <ele>-8.51</ele>
        <time>2019-05-05T15:39:37Z</time>
      </trkpt>
      <trkpt lat="54.471416976302862" lon="9.047585036605597">
        <ele>-8.029999999999999</ele>
        <time>2019-05-05T15:39:38Z</time>
      </trkpt>
      <trkpt lat="54.471500962972641" lon="9.047758961096406">
        <ele>-7.55</ele>
        <time>2019-05-05T15:39:39Z</time>
      </trkpt>
      <trkpt lat="54.471486965194345" lon="9.047912014648318">
        <ele>-7.07</ele>
        <time>2019-05-05T15:39:40Z</time>
      </trkpt>
      <trkpt lat="54.471471961587667" lon="9.048078982159495">
        <ele>-7.07</ele>
        <time>2019-05-05T15:39:41Z</time>
      </trkpt>
      <trkpt lat="54.471600037068129" lon="9.049380021169782">
        <ele>-6.11</ele>
        <time>2019-05-05T15:39:48Z</time>
      </trkpt>
      <trkpt lat="54.472003960981965" lon="9.050692040473223">
        <ele>-4.19</ele>
        <time>2019-05-05T15:39:58Z</time>
      </trkpt>
      <trkpt lat="54.472030028700829" lon="9.050844004377723">
        <ele>-4.19</ele>
        <time>2019-05-05T15:40:05Z</time>
      </trkpt>
      <trkpt lat="54.472058024257421" lon="9.051083978265524">
        <ele>-3.71</ele>
        <time>2019-05-05T15:40:08Z</time>
      </trkpt>
      <trkpt lat="54.472050983458757" lon="9.051176011562347">
        <ele>-3.71</ele>
        <time>2019-05-05T15:40:09Z</time>
      </trkpt>
      <trkpt lat="54.472040003165603" lon="9.051258992403746">
        <ele>-3.71</ele>
        <time>2019-05-05T15:40:10Z</time>
      </trkpt>
      <trkpt lat="54.472017958760262" lon="9.051425959914923">
        <ele>-3.71</ele>
        <time>2019-05-05T15:40:11Z</time>
      </trkpt>
      <trkpt lat="54.472085013985634" lon="9.051458984613419">
        <ele>-3.71</ele>
        <time>2019-05-05T15:40:12Z</time>
      </trkpt>
      <trkpt lat="54.472130024805665" lon="9.05148102901876">
        <ele>-3.23</ele>
        <time>2019-05-05T15:40:13Z</time>
      </trkpt>
      <trkpt lat="54.472181992605329" lon="9.05150500126183">
        <ele>-3.23</ele>
        <time>2019-05-05T15:40:14Z</time>
      </trkpt>
      <trkpt lat="54.472235972061753" lon="9.05152796767652">
        <ele>-3.23</ele>
        <time>2019-05-05T15:40:15Z</time>
      </trkpt>
      <trkpt lat="54.472289029508829" lon="9.051551017910242">
        <ele>-3.71</ele>
        <time>2019-05-05T15:40:16Z</time>
      </trkpt>
      <trkpt lat="54.472340997308493" lon="9.051580019295216">
        <ele>-3.71</ele>
        <time>2019-05-05T15:40:17Z</time>
      </trkpt>
      <trkpt lat="54.472473012283444" lon="9.051655037328601">
        <ele>-3.23</ele>
        <time>2019-05-05T15:40:25Z</time>
      </trkpt>
      <trkpt lat="54.472633022814989" lon="9.051745980978012">
        <ele>-1.3</ele>
        <time>2019-05-05T15:40:48Z</time>
      </trkpt>
      <trkpt lat="54.472679039463401" lon="9.051772970706224">
        <ele>-0.82</ele>
        <time>2019-05-05T15:40:49Z</time>
      </trkpt>
      <trkpt lat="54.472727989777923" lon="9.051800966262817">
        <ele>-0.34</ele>
        <time>2019-05-05T15:40:50Z</time>
      </trkpt>
      <trkpt lat="54.472977016121149" lon="9.051757967099547">
        <ele>-1.79</ele>
        <time>2019-05-05T15:40:54Z</time>
      </trkpt>
      <trkpt lat="54.473121017217636" lon="9.051725026220083">
        <ele>-2.75</ele>
        <time>2019-05-05T15:40:56Z</time>
      </trkpt>
      <trkpt lat="54.473850997164845" lon="9.051559986546636">
        <ele>-5.15</ele>
        <time>2019-05-05T15:41:06Z</time>
      </trkpt>
      <trkpt lat="54.474380984902382" lon="9.051453033462167">
        <ele>-4.67</ele>
        <time>2019-05-05T15:41:13Z</time>
      </trkpt>
      <trkpt lat="54.474687008187175" lon="9.051279025152326">
        <ele>-3.23</ele>
        <time>2019-05-05T15:41:17Z</time>
      </trkpt>
      <trkpt lat="54.475211966782808" lon="9.050868982449174">
        <ele>-0.34</ele>
        <time>2019-05-05T15:41:26Z</time>
      </trkpt>
      <trkpt lat="54.475256977602839" lon="9.050835035741329">
        <ele>-0.34</ele>
        <time>2019-05-05T15:41:27Z</time>
      </trkpt>
      <trkpt lat="54.47560197673738" lon="9.050573017448187">
        <ele>1.1</ele>
        <time>2019-05-05T15:41:38Z</time>
      </trkpt>
      <trkpt lat="54.475883021950722" lon="9.050222989171743">
        <ele>2.06</ele>
        <time>2019-05-05T15:41:50Z</time>
      </trkpt>
      <trkpt lat="54.476017970591784" lon="9.050130033865571">
        <ele>3.98</ele>
        <time>2019-05-05T15:42:01Z</time>
      </trkpt>
      <trkpt lat="54.476017970591784" lon="9.050130033865571">
        <ele>3.98</ele>
        <time>2019-05-05T15:42:22Z</time>
      </trkpt>
      <trkpt lat="54.476017970591784" lon="9.050130033865571">
        <ele>4.46</ele>
        <time>2019-05-05T15:43:10Z</time>
      </trkpt>
      <trkpt lat="54.476017970591784" lon="9.050130033865571">
        <ele>4.94</ele>
        <time>2019-05-05T15:43:38Z</time>
      </trkpt>
      <trkpt lat="54.476017970591784" lon="9.050130033865571">
        <ele>4.94</ele>
        <time>2019-05-05T15:43:42Z</time>
      </trkpt>
      <trkpt lat="54.475944964215159" lon="9.050137996673584">
        <ele>4.46</ele>
        <time>2019-05-05T15:43:43Z</time>
      </trkpt>
      <trkpt lat="54.476032974198461" lon="9.050234975293279">
        <ele>4.46</ele>
        <time>2019-05-05T15:43:44Z</time>
      </trkpt>
      <trkpt lat="54.476016964763403" lon="9.050217960029841">
        <ele>3.98</ele>
        <time>2019-05-05T15:43:45Z</time>
      </trkpt>
      <trkpt lat="54.47598896920681" lon="9.050132967531681">
        <ele>3.98</ele>
        <time>2019-05-05T15:43:46Z</time>
      </trkpt>
      <trkpt lat="54.475926021113992" lon="9.050163980573416">
        <ele>3.98</ele>
        <time>2019-05-05T15:43:47Z</time>
      </trkpt>
      <trkpt lat="54.475618992000818" lon="9.050560025498271">
        <ele>-1.3</ele>
        <time>2019-05-05T15:43:58Z</time>
      </trkpt>
      <trkpt lat="54.47514901868999" lon="9.050916004925966">
        <ele>-5.15</ele>
        <time>2019-05-05T15:44:14Z</time>
      </trkpt>
      <trkpt lat="54.474567985162139" lon="9.051372986286879">
        <ele>-6.59</ele>
        <time>2019-05-05T15:44:28Z</time>
      </trkpt>
      <trkpt lat="54.474246958270669" lon="9.051494020968676">
        <ele>-6.59</ele>
        <time>2019-05-05T15:44:36Z</time>
      </trkpt>
    </trkseg>
  </trk>

  <trk>
    <name>Track vom: 2019-05-05 17:44</name>
    <extensions>
      <gpxx:TrackExtension>
        <gpxx:DisplayColor>DarkGray</gpxx:DisplayColor>
      </gpxx:TrackExtension>
    </extensions>
    <trkseg>
      <trkpt lat="54.474184010177851" lon="9.05150399543345">
        <ele>-6.59</ele>
        <time>2019-05-05T15:44:37Z</time>
      </trkpt>
      <trkpt lat="54.473324026912451" lon="9.05167699791491">
        <ele>-4.19</ele>
        <time>2019-05-05T15:44:49Z</time>
      </trkpt>
      <trkpt lat="54.472952038049698" lon="9.051764002069831">
        <ele>-2.75</ele>
        <time>2019-05-05T15:44:58Z</time>
      </trkpt>
      <trkpt lat="54.472952038049698" lon="9.051764002069831">
        <ele>-2.27</ele>
        <time>2019-05-05T15:45:40Z</time>
      </trkpt>
      <trkpt lat="54.472952038049698" lon="9.051764002069831">
        <ele>-2.27</ele>
        <time>2019-05-05T15:46:06Z</time>
      </trkpt>
      <trkpt lat="54.472747016698122" lon="9.051812030375004">
        <ele>-2.27</ele>
        <time>2019-05-05T15:46:12Z</time>
      </trkpt>
      <trkpt lat="54.472739975899458" lon="9.051629975438118">
        <ele>-2.27</ele>
        <time>2019-05-05T15:46:13Z</time>
      </trkpt>
      <trkpt lat="54.472731007263064" lon="9.051399976015091">
        <ele>-2.27</ele>
        <time>2019-05-05T15:46:14Z</time>
      </trkpt>
      <trkpt lat="54.472738970071077" lon="9.050436979159713">
        <ele>-3.23</ele>
        <time>2019-05-05T15:46:20Z</time>
      </trkpt>
      <trkpt lat="54.472757996991277" lon="9.050255008041859">
        <ele>-3.23</ele>
        <time>2019-05-05T15:46:21Z</time>
      </trkpt>
      <trkpt lat="54.472777023911476" lon="9.050068007782102">
        <ele>-3.71</ele>
        <time>2019-05-05T15:46:22Z</time>
      </trkpt>
      <trkpt lat="54.472797978669405" lon="9.049871033057571">
        <ele>-3.71</ele>
        <time>2019-05-05T15:46:23Z</time>
      </trkpt>
      <trkpt lat="54.472820023074746" lon="9.049667017534375">
        <ele>-3.71</ele>
        <time>2019-05-05T15:46:24Z</time>
      </trkpt>
      <trkpt lat="54.473316986113787" lon="9.04761303216219">
        <ele>-4.19</ele>
        <time>2019-05-05T15:46:34Z</time>
      </trkpt>
      <trkpt lat="54.474231032654643" lon="9.045742023736239">
        <ele>-1.79</ele>
        <time>2019-05-05T15:46:45Z</time>
      </trkpt>
      <trkpt lat="54.475046005100012" lon="9.044508039951325">
        <ele>1.1</ele>
        <time>2019-05-05T15:46:55Z</time>
      </trkpt>
      <trkpt lat="54.475814960896969" lon="9.043668005615473">
        <ele>1.1</ele>
        <time>2019-05-05T15:47:03Z</time>
      </trkpt>
      <trkpt lat="54.47592300362885" lon="9.043570021167398">
        <ele>0.62</ele>
        <time>2019-05-05T15:47:04Z</time>
      </trkpt>
      <trkpt lat="54.477059002965689" lon="9.042791007086635">
        <ele>-0.82</ele>
        <time>2019-05-05T15:47:14Z</time>
      </trkpt>
      <trkpt lat="54.478043960407376" lon="9.041925994679332">
        <ele>-0.34</ele>
        <time>2019-05-05T15:47:23Z</time>
      </trkpt>
      <trkpt lat="54.479138972237706" lon="9.040925027802587">
        <ele>-0.82</ele>
        <time>2019-05-05T15:47:32Z</time>
      </trkpt>
      <trkpt lat="54.48092901147902" lon="9.039660030975938">
        <ele>-0.82</ele>
        <time>2019-05-05T15:47:45Z</time>
      </trkpt>
      <trkpt lat="54.482099963352084" lon="9.039350990206003">
        <ele>1.1</ele>
        <time>2019-05-05T15:47:53Z</time>
      </trkpt>
      <trkpt lat="54.483441989868879" lon="9.039553999900818">
        <ele>3.98</ele>
        <time>2019-05-05T15:48:02Z</time>
      </trkpt>
      <trkpt lat="54.48359303176403" lon="9.039634969085455">
        <ele>3.98</ele>
        <time>2019-05-05T15:48:03Z</time>
      </trkpt>
      <trkpt lat="54.484630040824413" lon="9.041005996987224">
        <ele>4.94</ele>
        <time>2019-05-05T15:48:11Z</time>
      </trkpt>
      <trkpt lat="54.485459011048079" lon="9.042476015165448">
        <ele>6.39</ele>
        <time>2019-05-05T15:48:19Z</time>
      </trkpt>
      <trkpt lat="54.485532017424703" lon="9.042710959911346">
        <ele>5.91</ele>
        <time>2019-05-05T15:48:20Z</time>
      </trkpt>
      <trkpt lat="54.48556998744607" lon="9.042939031496644">
        <ele>5.91</ele>
        <time>2019-05-05T15:48:21Z</time>
      </trkpt>
      <trkpt lat="54.485608041286469" lon="9.04316701926291">
        <ele>5.91</ele>
        <time>2019-05-05T15:48:22Z</time>
      </trkpt>
      <trkpt lat="54.485622039064765" lon="9.043651996180415">
        <ele>6.39</ele>
        <time>2019-05-05T15:48:24Z</time>
      </trkpt>
      <trkpt lat="54.485622039064765" lon="9.045310020446777">
        <ele>7.83</ele>
        <time>2019-05-05T15:48:32Z</time>
      </trkpt>
      <trkpt lat="54.485622039064765" lon="9.045635992661119">
        <ele>8.310000000000001</ele>
        <time>2019-05-05T15:48:36Z</time>
      </trkpt>
      <trkpt lat="54.485622039064765" lon="9.045635992661119">
        <ele>8.310000000000001</ele>
        <time>2019-05-05T15:48:48Z</time>
      </trkpt>
      <trkpt lat="54.485622039064765" lon="9.045870015397668">
        <ele>9.75</ele>
        <time>2019-05-05T15:49:14Z</time>
      </trkpt>
      <trkpt lat="54.485622039064765" lon="9.046106971800327">
        <ele>9.75</ele>
        <time>2019-05-05T15:49:22Z</time>
      </trkpt>
      <trkpt lat="54.485666966065764" lon="9.046143013983965">
        <ele>9.75</ele>
        <time>2019-05-05T15:49:23Z</time>
      </trkpt>
      <trkpt lat="54.485718011856079" lon="9.046138990670443">
        <ele>9.75</ele>
        <time>2019-05-05T15:49:24Z</time>
      </trkpt>
      <trkpt lat="54.485781965777278" lon="9.04613396152854">
        <ele>9.75</ele>
        <time>2019-05-05T15:49:25Z</time>
      </trkpt>
      <trkpt lat="54.485864024609327" lon="9.046127004548907">
        <ele>9.27</ele>
        <time>2019-05-05T15:49:26Z</time>
      </trkpt>
      <trkpt lat="54.485955974087119" lon="9.046119041740894">
        <ele>9.27</ele>
        <time>2019-05-05T15:49:27Z</time>
      </trkpt>
      <trkpt lat="54.487117035314441" lon="9.04600596986711">
        <ele>9.75</ele>
        <time>2019-05-05T15:49:38Z</time>
      </trkpt>
      <trkpt lat="54.488167958334088" lon="9.045900022611022">
        <ele>9.27</ele>
        <time>2019-05-05T15:49:48Z</time>
      </trkpt>
      <trkpt lat="54.488273989409208" lon="9.045890970155597">
        <ele>8.789999999999999</ele>
        <time>2019-05-05T15:49:49Z</time>
      </trkpt>
      <trkpt lat="54.489864036440849" lon="9.045710004866123">
        <ele>7.35</ele>
        <time>2019-05-05T15:50:02Z</time>
      </trkpt>
      <trkpt lat="54.491555001586676" lon="9.045568015426397">
        <ele>5.42</ele>
        <time>2019-05-05T15:50:13Z</time>
      </trkpt>
      <trkpt lat="54.49304698035121" lon="9.045428037643433">
        <ele>3.02</ele>
        <time>2019-05-05T15:50:22Z</time>
      </trkpt>
      <trkpt lat="54.494465030729771" lon="9.045310020446777">
        <ele>2.54</ele>
        <time>2019-05-05T15:50:31Z</time>
      </trkpt>
      <trkpt lat="54.494844982400537" lon="9.04531798325479">
        <ele>3.02</ele>
        <time>2019-05-05T15:50:34Z</time>
      </trkpt>
      <trkpt lat="54.494966017082334" lon="9.045369029045105">
        <ele>3.02</ele>
        <time>2019-05-05T15:50:35Z</time>
      </trkpt>
      <trkpt lat="54.495081016793847" lon="9.045418985188007">
        <ele>3.5</ele>
        <time>2019-05-05T15:50:36Z</time>
      </trkpt>
      <trkpt lat="54.495588960126042" lon="9.045711010694504">
        <ele>5.91</ele>
        <time>2019-05-05T15:50:43Z</time>
      </trkpt>
      <trkpt lat="54.495770009234548" lon="9.045739006251097">
        <ele>7.35</ele>
        <time>2019-05-05T15:50:48Z</time>
      </trkpt>
      <trkpt lat="54.495857013389468" lon="9.045997001230717">
        <ele>7.83</ele>
        <time>2019-05-05T15:50:49Z</time>
      </trkpt>
      <trkpt lat="54.495889032259583" lon="9.046012004837394">
        <ele>7.83</ele>
        <time>2019-05-05T15:50:50Z</time>
      </trkpt>
      <trkpt lat="54.495986010879278" lon="9.046018039807677">
        <ele>8.310000000000001</ele>
        <time>2019-05-05T15:50:51Z</time>
      </trkpt>
      <trkpt lat="54.496029010042548" lon="9.045997001230717">
        <ele>8.310000000000001</ele>
        <time>2019-05-05T15:50:52Z</time>
      </trkpt>
      <trkpt lat="54.496132023632526" lon="9.045733977109194">
        <ele>8.789999999999999</ele>
        <time>2019-05-05T15:50:53Z</time>
      </trkpt>
      <trkpt lat="54.496241994202137" lon="9.045697012916207">
        <ele>8.789999999999999</ele>
        <time>2019-05-05T15:50:54Z</time>
      </trkpt>
      <trkpt lat="54.496364034712315" lon="9.045656025409699">
        <ele>8.789999999999999</ele>
        <time>2019-05-05T15:50:55Z</time>
      </trkpt>
      <trkpt lat="54.496490014716983" lon="9.045577989891172">
        <ele>8.310000000000001</ele>
        <time>2019-05-05T15:50:56Z</time>
      </trkpt>
      <trkpt lat="54.496625969186425" lon="9.045491991564632">
        <ele>8.310000000000001</ele>
        <time>2019-05-05T15:50:57Z</time>
      </trkpt>
      <trkpt lat="54.496769970282912" lon="9.045400964096189">
        <ele>8.310000000000001</ele>
        <time>2019-05-05T15:50:58Z</time>
      </trkpt>
      <trkpt lat="54.497068030759692" lon="9.045158978551626">
        <ele>7.83</ele>
        <time>2019-05-05T15:51:00Z</time>
      </trkpt>
      <trkpt lat="54.497242039069533" lon="9.045067029073834">
        <ele>7.83</ele>
        <time>2019-05-05T15:51:01Z</time>
      </trkpt>
      <trkpt lat="54.497424010187387" lon="9.045049007982016">
        <ele>7.35</ele>
        <time>2019-05-05T15:51:02Z</time>
      </trkpt>
      <trkpt lat="54.497615033760667" lon="9.045029981061816">
        <ele>7.35</ele>
        <time>2019-05-05T15:51:03Z</time>
      </trkpt>
      <trkpt lat="54.497812008485198" lon="9.045010032132268">
        <ele>6.87</ele>
        <time>2019-05-05T15:51:04Z</time>
      </trkpt>
      <trkpt lat="54.500053999945521" lon="9.044753964990377">
        <ele>3.98</ele>
        <time>2019-05-05T15:51:15Z</time>
      </trkpt>
      <trkpt lat="54.502074038609862" lon="9.044030020013452">
        <ele>3.5</ele>
        <time>2019-05-05T15:51:26Z</time>
      </trkpt>
      <trkpt lat="54.503482030704618" lon="9.043095018714666">
        <ele>5.42</ele>
        <time>2019-05-05T15:51:33Z</time>
      </trkpt>
      <trkpt lat="54.504749961197376" lon="9.042169991880655">
        <ele>6.87</ele>
        <time>2019-05-05T15:51:39Z</time>
      </trkpt>
      <trkpt lat="54.506318969652057" lon="9.041014965623617">
        <ele>7.83</ele>
        <time>2019-05-05T15:51:48Z</time>
      </trkpt>
      <trkpt lat="54.508315036073327" lon="9.039556011557579">
        <ele>6.39</ele>
        <time>2019-05-05T15:51:58Z</time>
      </trkpt>
      <trkpt lat="54.510348988696933" lon="9.038055986166">
        <ele>5.91</ele>
        <time>2019-05-05T15:52:07Z</time>
      </trkpt>
      <trkpt lat="54.51197599992156" lon="9.036845974624157">
        <ele>6.87</ele>
        <time>2019-05-05T15:52:13Z</time>
      </trkpt>
      <trkpt lat="54.51378095895052" lon="9.035534961149097">
        <ele>7.83</ele>
        <time>2019-05-05T15:52:20Z</time>
      </trkpt>
      <trkpt lat="54.516889974474907" lon="9.03324200771749">
        <ele>8.310000000000001</ele>
        <time>2019-05-05T15:52:33Z</time>
      </trkpt>
      <trkpt lat="54.520151959732175" lon="9.030838999897242">
        <ele>7.83</ele>
        <time>2019-05-05T15:52:47Z</time>
      </trkpt>
      <trkpt lat="54.521860023960471" lon="9.029614990577102">
        <ele>9.27</ele>
        <time>2019-05-05T15:52:55Z</time>
      </trkpt>
      <trkpt lat="54.522165041416883" lon="9.029416004195809">
        <ele>9.75</ele>
        <time>2019-05-05T15:52:57Z</time>
      </trkpt>
      <trkpt lat="54.522290015593171" lon="9.029347021132708">
        <ele>9.75</ele>
        <time>2019-05-05T15:52:58Z</time>
      </trkpt>
      <trkpt lat="54.522407026961446" lon="9.029370993375778">
        <ele>10.23</ele>
        <time>2019-05-05T15:52:59Z</time>
      </trkpt>
      <trkpt lat="54.522505011409521" lon="9.029393037781119">
        <ele>10.710000000000001</ele>
        <time>2019-05-05T15:53:00Z</time>
      </trkpt>
      <trkpt lat="54.522587992250919" lon="9.029411980882287">
        <ele>11.19</ele>
        <time>2019-05-05T15:53:01Z</time>
      </trkpt>
      <trkpt lat="54.522654041647911" lon="9.029426984488964">
        <ele>11.67</ele>
        <time>2019-05-05T15:53:02Z</time>
      </trkpt>
      <trkpt lat="54.522710032761097" lon="9.02943997643888">
        <ele>12.15</ele>
        <time>2019-05-05T15:53:03Z</time>
      </trkpt>
      <trkpt lat="54.522887980565429" lon="9.029479958117008">
        <ele>15.039999999999999</ele>
        <time>2019-05-05T15:53:07Z</time>
      </trkpt>
      <trkpt lat="54.522957969456911" lon="9.029495967552066">
        <ele>15.52</ele>
        <time>2019-05-05T15:53:08Z</time>
      </trkpt>
      <trkpt lat="54.522965010255575" lon="9.02943997643888">
        <ele>16</ele>
        <time>2019-05-05T15:53:09Z</time>
      </trkpt>
      <trkpt lat="54.522978002205491" lon="9.029339980334044">
        <ele>16.960000000000001</ele>
        <time>2019-05-05T15:53:10Z</time>
      </trkpt>
      <trkpt lat="54.522993005812168" lon="9.029219029471278">
        <ele>17.440000000000001</ele>
        <time>2019-05-05T15:53:11Z</time>
      </trkpt>
      <trkpt lat="54.523030975833535" lon="9.029078967869282">
        <ele>17.920000000000002</ele>
        <time>2019-05-05T15:53:12Z</time>
      </trkpt>
      <trkpt lat="54.52308202162385" lon="9.028950976207852">
        <ele>17.920000000000002</ele>
        <time>2019-05-05T15:53:13Z</time>
      </trkpt>
      <trkpt lat="54.52314899303019" lon="9.028832037001848">
        <ele>17.920000000000002</ele>
        <time>2019-05-05T15:53:14Z</time>
      </trkpt>
      <trkpt lat="54.523214036598802" lon="9.028721982613206">
        <ele>18.399999999999999</ele>
        <time>2019-05-05T15:53:15Z</time>
      </trkpt>
      <trkpt lat="54.52327799052" lon="9.028614023700357">
        <ele>18.879999999999999</ele>
        <time>2019-05-05T15:53:16Z</time>
      </trkpt>
      <trkpt lat="54.523358037695289" lon="9.02851696126163">
        <ele>18.879999999999999</ele>
        <time>2019-05-05T15:53:17Z</time>
      </trkpt>
      <trkpt lat="54.523445963859558" lon="9.028447978198528">
        <ele>18.879999999999999</ele>
        <time>2019-05-05T15:53:18Z</time>
      </trkpt>
      <trkpt lat="54.523531962186098" lon="9.028382012620568">
        <ele>19.359999999999999</ele>
        <time>2019-05-05T15:53:19Z</time>
      </trkpt>
      <trkpt lat="54.52362198382616" lon="9.028314035385847">
        <ele>19.359999999999999</ele>
        <time>2019-05-05T15:53:20Z</time>
      </trkpt>
      <trkpt lat="54.524816991761327" lon="9.027417004108429">
        <ele>21.289999999999999</ele>
        <time>2019-05-05T15:53:32Z</time>
      </trkpt>
      <trkpt lat="54.526162035763264" lon="9.026342025026679">
        <ele>18.879999999999999</ele>
        <time>2019-05-05T15:53:45Z</time>
      </trkpt>
      <trkpt lat="54.527296023443341" lon="9.025294035673142">
        <ele>16</ele>
        <time>2019-05-05T15:53:56Z</time>
      </trkpt>
      <trkpt lat="54.528640983626246" lon="9.024071032181382">
        <ele>9.27</ele>
        <time>2019-05-05T15:54:08Z</time>
      </trkpt>
      <trkpt lat="54.52978896908462" lon="9.023007033392787">
        <ele>3.5</ele>
        <time>2019-05-05T15:54:18Z</time>
      </trkpt>
      <trkpt lat="54.530962016433477" lon="9.021944962441921">
        <ele>-1.3</ele>
        <time>2019-05-05T15:54:29Z</time>
      </trkpt>
      <trkpt lat="54.532203041017056" lon="9.02080200612545">
        <ele>0.62</ele>
        <time>2019-05-05T15:54:40Z</time>
      </trkpt>
      <trkpt lat="54.533591000363231" lon="9.019562993198633">
        <ele>-2.27</ele>
        <time>2019-05-05T15:54:50Z</time>
      </trkpt>
      <trkpt lat="54.534782990813255" lon="9.018469993025065">
        <ele>-1.79</ele>
        <time>2019-05-05T15:54:56Z</time>
      </trkpt>
      <trkpt lat="54.536701021715999" lon="9.016709960997105">
        <ele>-0.82</ele>
        <time>2019-05-05T15:55:03Z</time>
      </trkpt>
      <trkpt lat="54.539965018630028" lon="9.01373396627605">
        <ele>2.06</ele>
        <time>2019-05-05T15:55:15Z</time>
      </trkpt>
      <trkpt lat="54.540995992720127" lon="9.012798964977264">
        <ele>2.54</ele>
        <time>2019-05-05T15:55:20Z</time>
      </trkpt>
      <trkpt lat="54.542026966810226" lon="9.011852983385325">
        <ele>2.54</ele>
        <time>2019-05-05T15:55:26Z</time>
      </trkpt>
      <trkpt lat="54.542733980342746" lon="9.011202966794372">
        <ele>2.06</ele>
        <time>2019-05-05T15:55:32Z</time>
      </trkpt>
      <trkpt lat="54.543755985796452" lon="9.010266037657857">
        <ele>1.58</ele>
        <time>2019-05-05T15:55:39Z</time>
      </trkpt>
      <trkpt lat="54.545301022008061" lon="9.008847987279296">
        <ele>1.58</ele>
        <time>2019-05-05T15:55:46Z</time>
      </trkpt>
      <trkpt lat="54.546513967216015" lon="9.007732020691037">
        <ele>1.58</ele>
        <time>2019-05-05T15:55:52Z</time>
      </trkpt>
      <trkpt lat="54.54725400544703" lon="9.007047973573208">
        <ele>-0.34</ele>
        <time>2019-05-05T15:55:58Z</time>
      </trkpt>
      <trkpt lat="54.548209961503744" lon="9.006164018064737">
        <ele>-1.3</ele>
        <time>2019-05-05T15:56:05Z</time>
      </trkpt>
      <trkpt lat="54.549376973882318" lon="9.005086021497846">
        <ele>-1.79</ele>
        <time>2019-05-05T15:56:10Z</time>
      </trkpt>
      <trkpt lat="54.551922976970673" lon="9.002773035317659">
        <ele>-1.3</ele>
        <time>2019-05-05T15:56:19Z</time>
      </trkpt>
      <trkpt lat="54.554367978125811" lon="9.001074023544788">
        <ele>-1.79</ele>
        <time>2019-05-05T15:56:28Z</time>
      </trkpt>
      <trkpt lat="54.556363960728049" lon="9.000565996393561">
        <ele>-2.75</ele>
        <time>2019-05-05T15:56:35Z</time>
      </trkpt>
      <trkpt lat="54.559921994805336" lon="9.000425012782216">
        <ele>-2.27</ele>
        <time>2019-05-05T15:56:48Z</time>
      </trkpt>
      <trkpt lat="54.56373299472034" lon="9.000279000028968">
        <ele>-2.75</ele>
        <time>2019-05-05T15:57:03Z</time>
      </trkpt>
      <trkpt lat="54.56697603687644" lon="9.00017598643899">
        <ele>-1.79</ele>
        <time>2019-05-05T15:57:15Z</time>
      </trkpt>
      <trkpt lat="54.571307972073555" lon="9.000023016706109">
        <ele>-1.3</ele>
        <time>2019-05-05T15:57:30Z</time>
      </trkpt>
      <trkpt lat="54.575423989444971" lon="8.999869041144848">
        <ele>-1.79</ele>
        <time>2019-05-05T15:57:44Z</time>
      </trkpt>
      <trkpt lat="54.579186039045453" lon="8.999734008684754">
        <ele>-2.27</ele>
        <time>2019-05-05T15:57:57Z</time>
      </trkpt>
      <trkpt lat="54.580222964286804" lon="8.999712970107794">
        <ele>-1.79</ele>
        <time>2019-05-05T15:58:02Z</time>
      </trkpt>
      <trkpt lat="54.581575971096754" lon="8.999585984274745">
        <ele>0.14</ele>
        <time>2019-05-05T15:58:11Z</time>
      </trkpt>
      <trkpt lat="54.58315503783524" lon="8.998718960210681">
        <ele>1.58</ele>
        <time>2019-05-05T15:58:23Z</time>
      </trkpt>
      <trkpt lat="54.584592031314969" lon="8.997729979455471">
        <ele>4.46</ele>
        <time>2019-05-05T15:58:35Z</time>
      </trkpt>
      <trkpt lat="54.584645004943013" lon="8.997693015262485">
        <ele>4.46</ele>
        <time>2019-05-05T15:58:36Z</time>
      </trkpt>
      <trkpt lat="54.584684986621141" lon="8.997666025534272">
        <ele>4.94</ele>
        <time>2019-05-05T15:58:37Z</time>
      </trkpt>
      <trkpt lat="54.584684986621141" lon="8.997481036931276">
        <ele>4.94</ele>
        <time>2019-05-05T15:58:38Z</time>
      </trkpt>
      <trkpt lat="54.584654979407787" lon="8.997392021119595">
        <ele>4.94</ele>
        <time>2019-05-05T15:58:39Z</time>
      </trkpt>
      <trkpt lat="54.584602005779743" lon="8.997332006692886">
        <ele>4.94</ele>
        <time>2019-05-05T15:58:40Z</time>
      </trkpt>
      <trkpt lat="54.584522964432836" lon="8.997263023629785">
        <ele>4.94</ele>
        <time>2019-05-05T15:58:41Z</time>
      </trkpt>
      <trkpt lat="54.584429003298283" lon="8.997180964797735">
        <ele>4.46</ele>
        <time>2019-05-05T15:58:42Z</time>
      </trkpt>
      <trkpt lat="54.583402974531054" lon="8.996285023167729">
        <ele>0.14</ele>
        <time>2019-05-05T15:58:50Z</time>
      </trkpt>
      <trkpt lat="54.581792978569865" lon="8.994530020281673">
        <ele>-1.79</ele>
        <time>2019-05-05T15:59:00Z</time>
      </trkpt>
      <trkpt lat="54.579641008749604" lon="8.991767009720206">
        <ele>-4.19</ele>
        <time>2019-05-05T15:59:11Z</time>
      </trkpt>
      <trkpt lat="54.578089015558362" lon="8.990008989349008">
        <ele>-4.67</ele>
        <time>2019-05-05T15:59:19Z</time>
      </trkpt>
      <trkpt lat="54.575519962236285" lon="8.987655015662313">
        <ele>-4.19</ele>
        <time>2019-05-05T15:59:31Z</time>
      </trkpt>
      <trkpt lat="54.573854980990291" lon="8.985972013324499">
        <ele>-3.71</ele>
        <time>2019-05-05T15:59:40Z</time>
      </trkpt>
      <trkpt lat="54.57305601797998" lon="8.984567960724235">
        <ele>-3.71</ele>
        <time>2019-05-05T15:59:45Z</time>
      </trkpt>
      <trkpt lat="54.572934983298182" lon="8.984292028471828">
        <ele>-4.19</ele>
        <time>2019-05-05T15:59:46Z</time>
      </trkpt>
      <trkpt lat="54.572858037427068" lon="8.983980976045132">
        <ele>-4.19</ele>
        <time>2019-05-05T15:59:47Z</time>
      </trkpt>
      <trkpt lat="54.572813026607037" lon="8.983647963032126">
        <ele>-4.19</ele>
        <time>2019-05-05T15:59:48Z</time>
      </trkpt>
      <trkpt lat="54.572772039100528" lon="8.983292989432812">
        <ele>-4.19</ele>
        <time>2019-05-05T15:59:49Z</time>
      </trkpt>
      <trkpt lat="54.57271495833993" lon="8.982921000570059">
        <ele>-4.19</ele>
        <time>2019-05-05T15:59:50Z</time>
      </trkpt>
      <trkpt lat="54.572619991376996" lon="8.982562003657222">
        <ele>-4.19</ele>
        <time>2019-05-05T15:59:51Z</time>
      </trkpt>
      <trkpt lat="54.5720050111413" lon="8.979779966175556">
        <ele>-5.15</ele>
        <time>2019-05-05T15:59:58Z</time>
      </trkpt>
      <trkpt lat="54.571473011747003" lon="8.975688004866242">
        <ele>-5.63</ele>
        <time>2019-05-05T16:00:07Z</time>
      </trkpt>
      <trkpt lat="54.571235971525311" lon="8.973810961470008">
        <ele>-4.67</ele>
        <time>2019-05-05T16:00:12Z</time>
      </trkpt>
      <trkpt lat="54.571162965148687" lon="8.973229005932808">
        <ele>-4.67</ele>
        <time>2019-05-05T16:00:14Z</time>
      </trkpt>
      <trkpt lat="54.57116698846221" lon="8.972958019003272">
        <ele>-4.67</ele>
        <time>2019-05-05T16:00:15Z</time>
      </trkpt>
      <trkpt lat="54.571190038695931" lon="8.972664987668395">
        <ele>-4.67</ele>
        <time>2019-05-05T16:00:16Z</time>
      </trkpt>
      <trkpt lat="54.571248041465878" lon="8.972366005182266">
        <ele>-5.15</ele>
        <time>2019-05-05T16:00:17Z</time>
      </trkpt>
      <trkpt lat="54.571323981508613" lon="8.972050007432699">
        <ele>-5.15</ele>
        <time>2019-05-05T16:00:18Z</time>
      </trkpt>
      <trkpt lat="54.571547023952007" lon="8.971210978925228">
        <ele>-4.67</ele>
        <time>2019-05-05T16:00:21Z</time>
      </trkpt>
      <trkpt lat="54.571645008400083" lon="8.970991959795356">
        <ele>-4.67</ele>
        <time>2019-05-05T16:00:22Z</time>
      </trkpt>
      <trkpt lat="54.571756990626454" lon="8.970798002555966">
        <ele>-4.67</ele>
        <time>2019-05-05T16:00:23Z</time>
      </trkpt>
      <trkpt lat="54.571896968409419" lon="8.970643021166325">
        <ele>-4.67</ele>
        <time>2019-05-05T16:00:24Z</time>
      </trkpt>
      <trkpt lat="54.572062008082867" lon="8.970535984262824">
        <ele>-4.19</ele>
        <time>2019-05-05T16:00:25Z</time>
      </trkpt>
      <trkpt lat="54.572235010564327" lon="8.970435988157988">
        <ele>-4.67</ele>
        <time>2019-05-05T16:00:26Z</time>
      </trkpt>
      <trkpt lat="54.572424022480845" lon="8.970382008701563">
        <ele>-4.67</ele>
        <time>2019-05-05T16:00:27Z</time>
      </trkpt>
      <trkpt lat="54.572615968063474" lon="8.970327023416758">
        <ele>-4.67</ele>
        <time>2019-05-05T16:00:28Z</time>
      </trkpt>
      <trkpt lat="54.573880964890122" lon="8.969923015683889">
        <ele>-3.23</ele>
        <time>2019-05-05T16:00:36Z</time>
      </trkpt>
      <trkpt lat="54.573937961831689" lon="8.969816984608769">
        <ele>-2.75</ele>
        <time>2019-05-05T16:00:37Z</time>
      </trkpt>
      <trkpt lat="54.573966963216662" lon="8.969689998775721">
        <ele>-2.75</ele>
        <time>2019-05-05T16:00:38Z</time>
      </trkpt>
      <trkpt lat="54.573977021500468" lon="8.969507021829486">
        <ele>-2.75</ele>
        <time>2019-05-05T16:00:39Z</time>
      </trkpt>
      <trkpt lat="54.573978027328849" lon="8.969288002699614">
        <ele>-2.75</ele>
        <time>2019-05-05T16:00:40Z</time>
      </trkpt>
      <trkpt lat="54.573813993483782" lon="8.967332001775503">
        <ele>-2.75</ele>
        <time>2019-05-05T16:00:46Z</time>
      </trkpt>
      <trkpt lat="54.573507970198989" lon="8.963790982961655">
        <ele>-3.71</ele>
        <time>2019-05-05T16:00:54Z</time>
      </trkpt>
      <trkpt lat="54.572877986356616" lon="8.956558993086219">
        <ele>-3.71</ele>
        <time>2019-05-05T16:01:09Z</time>
      </trkpt>
      <trkpt lat="54.572332995012403" lon="8.950319001451135">
        <ele>-2.75</ele>
        <time>2019-05-05T16:01:22Z</time>
      </trkpt>
      <trkpt lat="54.571732012555003" lon="8.943470986559987">
        <ele>-3.23</ele>
        <time>2019-05-05T16:01:37Z</time>
      </trkpt>
      <trkpt lat="54.5710379909724" lon="8.935551010072231">
        <ele>-2.27</ele>
        <time>2019-05-05T16:01:54Z</time>
      </trkpt>
      <trkpt lat="54.570662984624505" lon="8.93127397634089">
        <ele>-1.79</ele>
        <time>2019-05-05T16:02:04Z</time>
      </trkpt>
      <trkpt lat="54.570529963821173" lon="8.929471028968692">
        <ele>-1.79</ele>
        <time>2019-05-05T16:02:11Z</time>
      </trkpt>
      <trkpt lat="54.57054303959012" lon="8.929343037307262">
        <ele>-1.79</ele>
        <time>2019-05-05T16:02:12Z</time>
      </trkpt>
      <trkpt lat="54.570572040975094" lon="8.929226025938988">
        <ele>-1.79</ele>
        <time>2019-05-05T16:02:13Z</time>
      </trkpt>
      <trkpt lat="54.570649992674589" lon="8.929181015118957">
        <ele>-1.79</ele>
        <time>2019-05-05T16:02:14Z</time>
      </trkpt>
      <trkpt lat="54.570742025971413" lon="8.929128963500261">
        <ele>-1.3</ele>
        <time>2019-05-05T16:02:15Z</time>
      </trkpt>
      <trkpt lat="54.570853002369404" lon="8.929067021235824">
        <ele>-1.3</ele>
        <time>2019-05-05T16:02:16Z</time>
      </trkpt>
      <trkpt lat="54.570984011515975" lon="8.929008012637496">
        <ele>-1.3</ele>
        <time>2019-05-05T16:02:17Z</time>
      </trkpt>
      <trkpt lat="54.572129985317588" lon="8.928620014339685">
        <ele>-1.3</ele>
        <time>2019-05-05T16:02:23Z</time>
      </trkpt>
      <trkpt lat="54.574193023145199" lon="8.927920963615179">
        <ele>-1.79</ele>
        <time>2019-05-05T16:02:31Z</time>
      </trkpt>
      <trkpt lat="54.578169984742999" lon="8.926572985947132">
        <ele>-1.79</ele>
        <time>2019-05-05T16:02:46Z</time>
      </trkpt>
      <trkpt lat="54.581871014088392" lon="8.925318969413638">
        <ele>-2.27</ele>
        <time>2019-05-05T16:03:00Z</time>
      </trkpt>
      <trkpt lat="54.584549032151699" lon="8.924408024176955">
        <ele>-2.27</ele>
        <time>2019-05-05T16:03:11Z</time>
      </trkpt>
      <trkpt lat="54.585358975455165" lon="8.924091020599008">
        <ele>-2.27</ele>
        <time>2019-05-05T16:03:17Z</time>
      </trkpt>
      <trkpt lat="54.585471963509917" lon="8.923955988138914">
        <ele>-2.27</ele>
        <time>2019-05-05T16:03:18Z</time>
      </trkpt>
      <trkpt lat="54.585584029555321" lon="8.923770999535918">
        <ele>-2.27</ele>
        <time>2019-05-05T16:03:19Z</time>
      </trkpt>
      <trkpt lat="54.585710009559989" lon="8.923563966527581">
        <ele>-2.27</ele>
        <time>2019-05-05T16:03:20Z</time>
      </trkpt>
      <trkpt lat="54.585843030363321" lon="8.923331033438444">
        <ele>-2.27</ele>
        <time>2019-05-05T16:03:21Z</time>
      </trkpt>
      <trkpt lat="54.586987998336554" lon="8.921247040852904">
        <ele>-1.79</ele>
        <time>2019-05-05T16:03:28Z</time>
      </trkpt>
      <trkpt lat="54.589299978688359" lon="8.917051982134581">
        <ele>-0.82</ele>
        <time>2019-05-05T16:03:40Z</time>
      </trkpt>
      <trkpt lat="54.591294033452868" lon="8.913421025499702">
        <ele>-1.79</ele>
        <time>2019-05-05T16:03:51Z</time>
      </trkpt>
      <trkpt lat="54.592547966167331" lon="8.911190014332533">
        <ele>-1.3</ele>
        <time>2019-05-05T16:03:59Z</time>
      </trkpt>
      <trkpt lat="54.5927809830755" lon="8.910819031298161">
        <ele>-0.82</ele>
        <time>2019-05-05T16:04:01Z</time>
      </trkpt>
      <trkpt lat="54.592891037464142" lon="8.910681987181306">
        <ele>-0.34</ele>
        <time>2019-05-05T16:04:02Z</time>
      </trkpt>
      <trkpt lat="54.592993967235088" lon="8.910561036318541">
        <ele>0.14</ele>
        <time>2019-05-05T16:04:03Z</time>
      </trkpt>
      <trkpt lat="54.593884963542223" lon="8.909815968945622">
        <ele>-0.34</ele>
        <time>2019-05-05T16:04:09Z</time>
      </trkpt>
      <trkpt lat="54.595611970871687" lon="8.908375035971403">
        <ele>-0.82</ele>
        <time>2019-05-05T16:04:17Z</time>
      </trkpt>
      <trkpt lat="54.599238988012075" lon="8.905351012945175">
        <ele>-1.3</ele>
        <time>2019-05-05T16:04:33Z</time>
      </trkpt>
      <trkpt lat="54.60133396089077" lon="8.903605984523892">
        <ele>-1.79</ele>
        <time>2019-05-05T16:04:43Z</time>
      </trkpt>
      <trkpt lat="54.60404098033905" lon="8.901334991678596">
        <ele>-2.75</ele>
        <time>2019-05-05T16:04:58Z</time>
      </trkpt>
      <trkpt lat="54.606823017820716" lon="8.898998033255339">
        <ele>-6.59</ele>
        <time>2019-05-05T16:05:13Z</time>
      </trkpt>
      <trkpt lat="54.609740003943443" lon="8.896563006564975">
        <ele>-5.63</ele>
        <time>2019-05-05T16:05:29Z</time>
      </trkpt>
      <trkpt lat="54.612657995894551" lon="8.894119011238217">
        <ele>-3.23</ele>
        <time>2019-05-05T16:05:45Z</time>
      </trkpt>
      <trkpt lat="54.615181032568216" lon="8.89199897646904">
        <ele>-1.79</ele>
        <time>2019-05-05T16:05:59Z</time>
      </trkpt>
      <trkpt lat="54.616603022441268" lon="8.890808997675777">
        <ele>-2.75</ele>
        <time>2019-05-05T16:06:07Z</time>
      </trkpt>
      <trkpt lat="54.616769989952445" lon="8.890590984374285">
        <ele>-2.75</ele>
        <time>2019-05-05T16:06:08Z</time>
      </trkpt>
      <trkpt lat="54.616939974948764" lon="8.890347993001342">
        <ele>-2.75</ele>
        <time>2019-05-05T16:06:09Z</time>
      </trkpt>
      <trkpt lat="54.61708196438849" lon="8.890054039657116">
        <ele>-2.75</ele>
        <time>2019-05-05T16:06:10Z</time>
      </trkpt>
      <trkpt lat="54.617226971313357" lon="8.889752961695194">
        <ele>-2.75</ele>
        <time>2019-05-05T16:06:11Z</time>
      </trkpt>
      <trkpt lat="54.619479021057487" lon="8.885088013485074">
        <ele>-3.71</ele>
        <time>2019-05-05T16:06:26Z</time>
      </trkpt>
      <trkpt lat="54.620706969872117" lon="8.882600013166666">
        <ele>-5.63</ele>
        <time>2019-05-05T16:06:35Z</time>
      </trkpt>
      <trkpt lat="54.62204497307539" lon="8.879831973463297">
        <ele>-5.15</ele>
        <time>2019-05-05T16:06:46Z</time>
      </trkpt>
      <trkpt lat="54.623679025098681" lon="8.876461023464799">
        <ele>-4.67</ele>
        <time>2019-05-05T16:06:57Z</time>
      </trkpt>
      <trkpt lat="54.625711971893907" lon="8.872265964746475">
        <ele>-4.67</ele>
        <time>2019-05-05T16:07:11Z</time>
      </trkpt>
      <trkpt lat="54.627104038372636" lon="8.86939499527216">
        <ele>-3.23</ele>
        <time>2019-05-05T16:07:21Z</time>
      </trkpt>
      <trkpt lat="54.629086023196578" lon="8.865304961800575">
        <ele>-4.67</ele>
        <time>2019-05-05T16:07:34Z</time>
      </trkpt>
      <trkpt lat="54.63061798363924" lon="8.862808998674154">
        <ele>-4.19</ele>
        <time>2019-05-05T16:07:43Z</time>
      </trkpt>
      <trkpt lat="54.633631026372313" lon="8.858329961076379">
        <ele>-3.23</ele>
        <time>2019-05-05T16:07:59Z</time>
      </trkpt>
      <trkpt lat="54.636966018006206" lon="8.853370975703001">
        <ele>-3.71</ele>
        <time>2019-05-05T16:08:16Z</time>
      </trkpt>
      <trkpt lat="54.640639973804355" lon="8.847908992320299">
        <ele>-3.71</ele>
        <time>2019-05-05T16:08:35Z</time>
      </trkpt>
      <trkpt lat="54.641945958137512" lon="8.845967995002866">
        <ele>-3.71</ele>
        <time>2019-05-05T16:08:43Z</time>
      </trkpt>
      <trkpt lat="54.642393970862031" lon="8.845372041687369">
        <ele>-3.71</ele>
        <time>2019-05-05T16:08:48Z</time>
      </trkpt>
      <trkpt lat="54.643326960504055" lon="8.844483979046345">
        <ele>-3.71</ele>
        <time>2019-05-05T16:08:54Z</time>
      </trkpt>
      <trkpt lat="54.64518497698009" lon="8.842713972553611">
        <ele>-3.23</ele>
        <time>2019-05-05T16:09:03Z</time>
      </trkpt>
      <trkpt lat="54.64853597804904" lon="8.839522982016206">
        <ele>-2.75</ele>
        <time>2019-05-05T16:09:18Z</time>
      </trkpt>
      <trkpt lat="54.650579988956451" lon="8.837576033547521">
        <ele>-2.75</ele>
        <time>2019-05-05T16:09:28Z</time>
      </trkpt>
      <trkpt lat="54.651749012991786" lon="8.83648001588881">
        <ele>-2.75</ele>
        <time>2019-05-05T16:09:35Z</time>
      </trkpt>
      <trkpt lat="54.651893014088273" lon="8.836398040875793">
        <ele>-2.75</ele>
        <time>2019-05-05T16:09:36Z</time>
      </trkpt>
      <trkpt lat="54.652042966336012" lon="8.836331991478801">
        <ele>-2.75</ele>
        <time>2019-05-05T16:09:37Z</time>
      </trkpt>
      <trkpt lat="54.65220901183784" lon="8.836326040327549">
        <ele>-2.27</ele>
        <time>2019-05-05T16:09:38Z</time>
      </trkpt>
      <trkpt lat="54.652383020147681" lon="8.836318999528885">
        <ele>-2.27</ele>
        <time>2019-05-05T16:09:39Z</time>
      </trkpt>
      <trkpt lat="54.654381014406681" lon="8.836423018947244">
        <ele>-2.27</ele>
        <time>2019-05-05T16:09:49Z</time>
      </trkpt>
      <trkpt lat="54.657072024419904" lon="8.83660800755024">
        <ele>-2.75</ele>
        <time>2019-05-05T16:10:01Z</time>
      </trkpt>
      <trkpt lat="54.660182967782021" lon="8.836795007809997">
        <ele>-2.27</ele>
        <time>2019-05-05T16:10:15Z</time>
      </trkpt>
      <trkpt lat="54.66213796287775" lon="8.836859967559576">
        <ele>-1.79</ele>
        <time>2019-05-05T16:10:24Z</time>
      </trkpt>
      <trkpt lat="54.662318006157875" lon="8.836796013638377">
        <ele>-1.79</ele>
        <time>2019-05-05T16:10:25Z</time>
      </trkpt>
      <trkpt lat="54.662497965618968" lon="8.83669400587678">
        <ele>-1.79</ele>
        <time>2019-05-05T16:10:26Z</time>
      </trkpt>
      <trkpt lat="54.663214031606913" lon="8.836144991219044">
        <ele>-1.79</ele>
        <time>2019-05-05T16:10:30Z</time>
      </trkpt>
      <trkpt lat="54.663410000503063" lon="8.836081037297845">
        <ele>-1.79</ele>
        <time>2019-05-05T16:10:31Z</time>
      </trkpt>
      <trkpt lat="54.663610998541117" lon="8.836034014821053">
        <ele>-1.79</ele>
        <time>2019-05-05T16:10:32Z</time>
      </trkpt>
      <trkpt lat="54.663818031549454" lon="8.836056981235743">
        <ele>-1.79</ele>
        <time>2019-05-05T16:10:33Z</time>
      </trkpt>
      <trkpt lat="54.664030009880662" lon="8.836081959307194">
        <ele>-1.79</ele>
        <time>2019-05-05T16:10:34Z</time>
      </trkpt>
      <trkpt lat="54.665005998685956" lon="8.836196959018707">
        <ele>-2.27</ele>
        <time>2019-05-05T16:10:40Z</time>
      </trkpt>
      <trkpt lat="54.66514497064054" lon="8.836212968453765">
        <ele>-2.75</ele>
        <time>2019-05-05T16:10:42Z</time>
      </trkpt>
      <trkpt lat="54.665184030309319" lon="8.836216991767287">
        <ele>-2.27</ele>
        <time>2019-05-05T16:10:43Z</time>
      </trkpt>
      <trkpt lat="54.665263993665576" lon="8.836120013147593">
        <ele>-2.27</ele>
        <time>2019-05-05T16:10:44Z</time>
      </trkpt>
      <trkpt lat="54.665262987837195" lon="8.835992021486163">
        <ele>-2.27</ele>
        <time>2019-05-05T16:10:45Z</time>
      </trkpt>
      <trkpt lat="54.665260976180434" lon="8.835826981812716">
        <ele>-2.27</ele>
        <time>2019-05-05T16:10:46Z</time>
      </trkpt>
      <trkpt lat="54.665258964523673" lon="8.835635036230087">
        <ele>-2.75</ele>
        <time>2019-05-05T16:10:47Z</time>
      </trkpt>
      <trkpt lat="54.665256030857563" lon="8.83540797047317">
        <ele>-2.27</ele>
        <time>2019-05-05T16:10:48Z</time>
      </trkpt>
      <trkpt lat="54.665233986452222" lon="8.833533022552729">
        <ele>-3.23</ele>
        <time>2019-05-05T16:10:54Z</time>
      </trkpt>
      <trkpt lat="54.665189981460571" lon="8.830557027831674">
        <ele>-3.71</ele>
        <time>2019-05-05T16:11:02Z</time>
      </trkpt>
      <trkpt lat="54.665042040869594" lon="8.82807900197804">
        <ele>-3.23</ele>
        <time>2019-05-05T16:11:11Z</time>
      </trkpt>
      <trkpt lat="54.665109012275934" lon="8.825722010806203">
        <ele>-4.19</ele>
        <time>2019-05-05T16:11:21Z</time>
      </trkpt>
      <trkpt lat="54.665124015882611" lon="8.823494017124176">
        <ele>-6.11</ele>
        <time>2019-05-05T16:11:30Z</time>
      </trkpt>
      <trkpt lat="54.665050003677607" lon="8.819765998050571">
        <ele>-5.63</ele>
        <time>2019-05-05T16:11:43Z</time>
      </trkpt>
      <trkpt lat="54.665024019777775" lon="8.818493960425258">
        <ele>-5.63</ele>
        <time>2019-05-05T16:11:50Z</time>
      </trkpt>
      <trkpt lat="54.665016978979111" lon="8.818372003734112">
        <ele>-5.63</ele>
        <time>2019-05-05T16:11:51Z</time>
      </trkpt>
      <trkpt lat="54.66501203365624" lon="8.818272007629275">
        <ele>-5.63</ele>
        <time>2019-05-05T16:11:52Z</time>
      </trkpt>
      <trkpt lat="54.665104988962412" lon="8.818175029009581">
        <ele>-5.63</ele>
        <time>2019-05-05T16:11:53Z</time>
      </trkpt>
      <trkpt lat="54.665183024480939" lon="8.81815298460424">
        <ele>-5.15</ele>
        <time>2019-05-05T16:11:54Z</time>
      </trkpt>
      <trkpt lat="54.665280003100634" lon="8.818125994876027">
        <ele>-5.15</ele>
        <time>2019-05-05T16:11:55Z</time>
      </trkpt>
      <trkpt lat="54.665393996983767" lon="8.818092970177531">
        <ele>-5.15</ele>
        <time>2019-05-05T16:11:56Z</time>
      </trkpt>
      <trkpt lat="54.665761040523648" lon="8.817990040406585">
        <ele>-5.15</ele>
        <time>2019-05-05T16:11:59Z</time>
      </trkpt>
      <trkpt lat="54.665860030800104" lon="8.817935977131128">
        <ele>-5.63</ele>
        <time>2019-05-05T16:12:00Z</time>
      </trkpt>
      <trkpt lat="54.665928008034825" lon="8.817800022661686">
        <ele>-6.11</ele>
        <time>2019-05-05T16:12:01Z</time>
      </trkpt>
      <trkpt lat="54.665992967784405" lon="8.817640012130141">
        <ele>-6.59</ele>
        <time>2019-05-05T16:12:02Z</time>
      </trkpt>
      <trkpt lat="54.666044013574719" lon="8.817454017698765">
        <ele>-6.59</ele>
        <time>2019-05-05T16:12:03Z</time>
      </trkpt>
      <trkpt lat="54.666136968880892" lon="8.817116981372237">
        <ele>-7.07</ele>
        <time>2019-05-05T16:12:05Z</time>
      </trkpt>
      <trkpt lat="54.666208969429135" lon="8.817013967782259">
        <ele>-7.07</ele>
        <time>2019-05-05T16:12:06Z</time>
      </trkpt>
      <trkpt lat="54.666296979412436" lon="8.816913971677423">
        <ele>-7.07</ele>
        <time>2019-05-05T16:12:07Z</time>
      </trkpt>
      <trkpt lat="54.666416002437472" lon="8.816867033019662">
        <ele>-7.07</ele>
        <time>2019-05-05T16:12:08Z</time>
      </trkpt>
      <trkpt lat="54.666542988270521" lon="8.816815987229347">
        <ele>-7.07</ele>
        <time>2019-05-05T16:12:09Z</time>
      </trkpt>
      <trkpt lat="54.667495004832745" lon="8.816465036943555">
        <ele>-6.11</ele>
        <time>2019-05-05T16:12:16Z</time>
      </trkpt>
      <trkpt lat="54.667605981230736" lon="8.816471993923187">
        <ele>-6.11</ele>
        <time>2019-05-05T16:12:17Z</time>
      </trkpt>
      <trkpt lat="54.667704971507192" lon="8.816537959501147">
        <ele>-6.11</ele>
        <time>2019-05-05T16:12:18Z</time>
      </trkpt>
      <trkpt lat="54.667818965390325" lon="8.816613983362913">
        <ele>-6.59</ele>
        <time>2019-05-05T16:12:19Z</time>
      </trkpt>
      <trkpt lat="54.667922984808683" lon="8.816718002781272">
        <ele>-7.07</ele>
        <time>2019-05-05T16:12:20Z</time>
      </trkpt>
      <trkpt lat="54.668035972863436" lon="8.816830990836024">
        <ele>-7.07</ele>
        <time>2019-05-05T16:12:21Z</time>
      </trkpt>
      <trkpt lat="54.668148038908839" lon="8.816942973062396">
        <ele>-7.55</ele>
        <time>2019-05-05T16:12:22Z</time>
      </trkpt>
      <trkpt lat="54.668272007256746" lon="8.817010028287768">
        <ele>-8.029999999999999</ele>
        <time>2019-05-05T16:12:23Z</time>
      </trkpt>
      <trkpt lat="54.668408967554569" lon="8.817028971388936">
        <ele>-9</ele>
        <time>2019-05-05T16:12:24Z</time>
      </trkpt>
      <trkpt lat="54.668549029156566" lon="8.817026037722826">
        <ele>-9.960000000000001</ele>
        <time>2019-05-05T16:12:25Z</time>
      </trkpt>
      <trkpt lat="54.668691018596292" lon="8.81696904078126">
        <ele>-10.44</ele>
        <time>2019-05-05T16:12:26Z</time>
      </trkpt>
      <trkpt lat="54.668842982500792" lon="8.816920006647706">
        <ele>-10.92</ele>
        <time>2019-05-05T16:12:27Z</time>
      </trkpt>
      <trkpt lat="54.670000020414591" lon="8.81667098030448">
        <ele>-10.92</ele>
        <time>2019-05-05T16:12:34Z</time>
      </trkpt>
      <trkpt lat="54.670239994302392" lon="8.816621024161577">
        <ele>-10.44</ele>
        <time>2019-05-05T16:12:36Z</time>
      </trkpt>
      <trkpt lat="54.670334039255977" lon="8.81654298864305">
        <ele>-10.44</ele>
        <time>2019-05-05T16:12:37Z</time>
      </trkpt>
      <trkpt lat="54.670419031754136" lon="8.816471993923187">
        <ele>-10.44</ele>
        <time>2019-05-05T16:12:38Z</time>
      </trkpt>
      <trkpt lat="54.670498995110393" lon="8.816354982554913">
        <ele>-10.44</ele>
        <time>2019-05-05T16:12:39Z</time>
      </trkpt>
      <trkpt lat="54.670550040900707" lon="8.816168988123536">
        <ele>-9.960000000000001</ele>
        <time>2019-05-05T16:12:40Z</time>
      </trkpt>
      <trkpt lat="54.670668980106711" lon="8.815816026180983">
        <ele>-9.960000000000001</ele>
        <time>2019-05-05T16:12:42Z</time>
      </trkpt>
      <trkpt lat="54.670716002583504" lon="8.815733967348933">
        <ele>-9.960000000000001</ele>
        <time>2019-05-05T16:12:43Z</time>
      </trkpt>
      <trkpt lat="54.670846005901694" lon="8.815647969022393">
        <ele>-9.960000000000001</ele>
        <time>2019-05-05T16:12:44Z</time>
      </trkpt>
      <trkpt lat="54.670962011441588" lon="8.815609999001026">
        <ele>-9.960000000000001</ele>
        <time>2019-05-05T16:12:45Z</time>
      </trkpt>
      <trkpt lat="54.671112969517708" lon="8.815622990950942">
        <ele>-9.960000000000001</ele>
        <time>2019-05-05T16:12:46Z</time>
      </trkpt>
      <trkpt lat="54.672308983281255" lon="8.815727010369301">
        <ele>-9.48</ele>
        <time>2019-05-05T16:12:53Z</time>
      </trkpt>
      <trkpt lat="54.6724499668926" lon="8.815801022574306">
        <ele>-9.48</ele>
        <time>2019-05-05T16:12:54Z</time>
      </trkpt>
      <trkpt lat="54.67255599796772" lon="8.81591996178031">
        <ele>-9.48</ele>
        <time>2019-05-05T16:12:55Z</time>
      </trkpt>
      <trkpt lat="54.672648031264544" lon="8.816108973696828">
        <ele>-9</ele>
        <time>2019-05-05T16:12:56Z</time>
      </trkpt>
      <trkpt lat="54.672724977135658" lon="8.816297985613346">
        <ele>-9</ele>
        <time>2019-05-05T16:12:57Z</time>
      </trkpt>
      <trkpt lat="54.672797983512282" lon="8.816460007801652">
        <ele>-8.51</ele>
        <time>2019-05-05T16:12:58Z</time>
      </trkpt>
      <trkpt lat="54.672873001545668" lon="8.816578024998307">
        <ele>-8.51</ele>
        <time>2019-05-05T16:12:59Z</time>
      </trkpt>
      <trkpt lat="54.672977020964026" lon="8.816635021939874">
        <ele>-9</ele>
        <time>2019-05-05T16:13:00Z</time>
      </trkpt>
      <trkpt lat="54.673090009018779" lon="8.816669974476099">
        <ele>-9</ele>
        <time>2019-05-05T16:13:01Z</time>
      </trkpt>
      <trkpt lat="54.67322101816535" lon="8.816637033596635">
        <ele>-9</ele>
        <time>2019-05-05T16:13:02Z</time>
      </trkpt>
      <trkpt lat="54.673355966806412" lon="8.816591016948223">
        <ele>-9</ele>
        <time>2019-05-05T16:13:03Z</time>
      </trkpt>
      <trkpt lat="54.673597030341625" lon="8.816464031115174">
        <ele>-9.48</ele>
        <time>2019-05-05T16:13:05Z</time>
      </trkpt>
      <trkpt lat="54.673709012567997" lon="8.816361017525196">
        <ele>-9.48</ele>
        <time>2019-05-05T16:13:06Z</time>
      </trkpt>
      <trkpt lat="54.673796016722918" lon="8.81619798950851">
        <ele>-9.48</ele>
        <time>2019-05-05T16:13:07Z</time>
      </trkpt>
      <trkpt lat="54.673873968422413" lon="8.81598399952054">
        <ele>-9.960000000000001</ele>
        <time>2019-05-05T16:13:08Z</time>
      </trkpt>
      <trkpt lat="54.673934988677502" lon="8.815713012591004">
        <ele>-9.960000000000001</ele>
        <time>2019-05-05T16:13:09Z</time>
      </trkpt>
      <trkpt lat="54.674264984205365" lon="8.814664017409086">
        <ele>-9.48</ele>
        <time>2019-05-05T16:13:13Z</time>
      </trkpt>
      <trkpt lat="54.674314018338919" lon="8.8143490254879">
        <ele>-9.48</ele>
        <time>2019-05-05T16:13:14Z</time>
      </trkpt>
      <trkpt lat="54.674337990581989" lon="8.814020035788417">
        <ele>-9</ele>
        <time>2019-05-05T16:13:15Z</time>
      </trkpt>
      <trkpt lat="54.67436196282506" lon="8.813682999461889">
        <ele>-9</ele>
        <time>2019-05-05T16:13:16Z</time>
      </trkpt>
      <trkpt lat="54.67435902915895" lon="8.813332971185446">
        <ele>-9</ele>
        <time>2019-05-05T16:13:17Z</time>
      </trkpt>
      <trkpt lat="54.674302032217383" lon="8.809649962931871">
        <ele>-7.55</ele>
        <time>2019-05-05T16:13:28Z</time>
      </trkpt>
      <trkpt lat="54.674299014732242" lon="8.809422980993986">
        <ele>-7.55</ele>
        <time>2019-05-05T16:13:29Z</time>
      </trkpt>
      <trkpt lat="54.674299014732242" lon="8.809232963249087">
        <ele>-7.07</ele>
        <time>2019-05-05T16:13:30Z</time>
      </trkpt>
      <trkpt lat="54.674355005845428" lon="8.80904302932322">
        <ele>-7.07</ele>
        <time>2019-05-05T16:13:31Z</time>
      </trkpt>
      <trkpt lat="54.674406973645091" lon="8.808868015184999">
        <ele>-7.55</ele>
        <time>2019-05-05T16:13:32Z</time>
      </trkpt>
      <trkpt lat="54.674501018598676" lon="8.808757038787007">
        <ele>-7.55</ele>
        <time>2019-05-05T16:13:33Z</time>
      </trkpt>
      <trkpt lat="54.674602020531893" lon="8.808639021590352">
        <ele>-7.55</ele>
        <time>2019-05-05T16:13:34Z</time>
      </trkpt>
      <trkpt lat="54.6747069619596" lon="8.808515975251794">
        <ele>-7.07</ele>
        <time>2019-05-05T16:13:35Z</time>
      </trkpt>
      <trkpt lat="54.675043998286128" lon="8.80818597972393">
        <ele>-7.07</ele>
        <time>2019-05-05T16:13:38Z</time>
      </trkpt>
      <trkpt lat="54.675168972462416" lon="8.808172987774015">
        <ele>-7.07</ele>
        <time>2019-05-05T16:13:39Z</time>
      </trkpt>
      <trkpt lat="54.675296964123845" lon="8.808165024966002">
        <ele>-6.59</ele>
        <time>2019-05-05T16:13:40Z</time>
      </trkpt>
      <trkpt lat="54.675558982416987" lon="8.808240965008736">
        <ele>-5.63</ele>
        <time>2019-05-05T16:13:42Z</time>
      </trkpt>
      <trkpt lat="54.675698038190603" lon="8.808300979435444">
        <ele>-5.15</ele>
        <time>2019-05-05T16:13:43Z</time>
      </trkpt>
      <trkpt lat="54.677103012800217" lon="8.808903973549604">
        <ele>-3.23</ele>
        <time>2019-05-05T16:13:52Z</time>
      </trkpt>
      <trkpt lat="54.678747961297631" lon="8.809418035671115">
        <ele>-3.23</ele>
        <time>2019-05-05T16:14:01Z</time>
      </trkpt>
      <trkpt lat="54.680201970040798" lon="8.810500977560878">
        <ele>-2.27</ele>
        <time>2019-05-05T16:14:09Z</time>
      </trkpt>
      <trkpt lat="54.682884011417627" lon="8.812740035355091">
        <ele>-0.82</ele>
        <time>2019-05-05T16:14:23Z</time>
      </trkpt>
      <trkpt lat="54.684666004031897" lon="8.813458029180765">
        <ele>0.14</ele>
        <time>2019-05-05T16:14:31Z</time>
      </trkpt>
      <trkpt lat="54.685662025585771" lon="8.813918028026819">
        <ele>1.1</ele>
        <time>2019-05-05T16:14:36Z</time>
      </trkpt>
      <trkpt lat="54.685847014188766" lon="8.814036967232823">
        <ele>1.58</ele>
        <time>2019-05-05T16:14:37Z</time>
      </trkpt>
      <trkpt lat="54.686025967821479" lon="8.81420100107789">
        <ele>1.58</ele>
        <time>2019-05-05T16:14:38Z</time>
      </trkpt>
      <trkpt lat="54.686194024980068" lon="8.814420020207763">
        <ele>1.58</ele>
        <time>2019-05-05T16:14:39Z</time>
      </trkpt>
      <trkpt lat="54.686380019411445" lon="8.814662005752325">
        <ele>1.58</ele>
        <time>2019-05-05T16:14:40Z</time>
      </trkpt>
      <trkpt lat="54.686527960002422" lon="8.81490902043879">
        <ele>1.58</ele>
        <time>2019-05-05T16:14:41Z</time>
      </trkpt>
      <trkpt lat="54.68845697119832" lon="8.818122977390885">
        <ele>0.14</ele>
        <time>2019-05-05T16:14:53Z</time>
      </trkpt>
      <trkpt lat="54.690227983519435" lon="8.82116200402379">
        <ele>0.14</ele>
        <time>2019-05-05T16:15:04Z</time>
      </trkpt>
      <trkpt lat="54.691508989781141" lon="8.8235670235008">
        <ele>-0.82</ele>
        <time>2019-05-05T16:15:13Z</time>
      </trkpt>
      <trkpt lat="54.692175015807152" lon="8.824652982875705">
        <ele>-1.3</ele>
        <time>2019-05-05T16:15:20Z</time>
      </trkpt>
      <trkpt lat="54.692361010238528" lon="8.824907038360834">
        <ele>-2.27</ele>
        <time>2019-05-05T16:15:23Z</time>
      </trkpt>
      <trkpt lat="54.692430999130011" lon="8.825004016980529">
        <ele>-2.27</ele>
        <time>2019-05-05T16:15:24Z</time>
      </trkpt>
      <trkpt lat="54.692411972209811" lon="8.825165033340454">
        <ele>-2.75</ele>
        <time>2019-05-05T16:15:25Z</time>
      </trkpt>
      <trkpt lat="54.692394034937024" lon="8.825318003073335">
        <ele>-2.75</ele>
        <time>2019-05-05T16:15:26Z</time>
      </trkpt>
      <trkpt lat="54.692371990531683" lon="8.825508020818234">
        <ele>-2.75</ele>
        <time>2019-05-05T16:15:27Z</time>
      </trkpt>
      <trkpt lat="54.692176021635532" lon="8.827163027599454">
        <ele>-3.71</ele>
        <time>2019-05-05T16:15:33Z</time>
      </trkpt>
      <trkpt lat="54.691734965890646" lon="8.829607022926211">
        <ele>-2.27</ele>
        <time>2019-05-05T16:15:40Z</time>
      </trkpt>
      <trkpt lat="54.690883029252291" lon="8.831825964152813">
        <ele>-1.3</ele>
        <time>2019-05-05T16:15:47Z</time>
      </trkpt>
      <trkpt lat="54.69047399237752" lon="8.832756020128727">
        <ele>-1.3</ele>
        <time>2019-05-05T16:15:51Z</time>
      </trkpt>
      <trkpt lat="54.690352035686374" lon="8.832893986254931">
        <ele>-1.3</ele>
        <time>2019-05-05T16:15:52Z</time>
      </trkpt>
      <trkpt lat="54.690219014883041" lon="8.833044022321701">
        <ele>-0.82</ele>
        <time>2019-05-05T16:15:53Z</time>
      </trkpt>
      <trkpt lat="54.688961980864406" lon="8.834125036373735">
        <ele>-0.34</ele>
        <time>2019-05-05T16:16:00Z</time>
      </trkpt>
      <trkpt lat="54.688012981787324" lon="8.834943026304245">
        <ele>-0.34</ele>
        <time>2019-05-05T16:16:06Z</time>
      </trkpt>
      <trkpt lat="54.687894964590669" lon="8.835090966895223">
        <ele>0.14</ele>
        <time>2019-05-05T16:16:07Z</time>
      </trkpt>
      <trkpt lat="54.687778959050775" lon="8.835265981033444">
        <ele>0.14</ele>
        <time>2019-05-05T16:16:08Z</time>
      </trkpt>
      <trkpt lat="54.687655996531248" lon="8.83544996380806">
        <ele>0.14</ele>
        <time>2019-05-05T16:16:09Z</time>
      </trkpt>
      <trkpt lat="54.687176970764995" lon="8.836297038942576">
        <ele>0.14</ele>
        <time>2019-05-05T16:16:13Z</time>
      </trkpt>
      <trkpt lat="54.687054008245468" lon="8.836558973416686">
        <ele>-0.34</ele>
        <time>2019-05-05T16:16:14Z</time>
      </trkpt>
      <trkpt lat="54.686301983892918" lon="8.838696023449302">
        <ele>-0.82</ele>
        <time>2019-05-05T16:16:20Z</time>
      </trkpt>
      <trkpt lat="54.685430014505982" lon="8.841286031529307">
        <ele>-1.79</ele>
        <time>2019-05-05T16:16:27Z</time>
      </trkpt>
      <trkpt lat="54.685361031442881" lon="8.841651985421777">
        <ele>-1.79</ele>
        <time>2019-05-05T16:16:28Z</time>
      </trkpt>
      <trkpt lat="54.685319038107991" lon="8.842049958184362">
        <ele>-1.79</ele>
        <time>2019-05-05T16:16:29Z</time>
      </trkpt>
      <trkpt lat="54.685159027576447" lon="8.845630958676338">
        <ele>-1.3</ele>
        <time>2019-05-05T16:16:37Z</time>
      </trkpt>
      <trkpt lat="54.685186017304659" lon="8.846453977748752">
        <ele>-1.3</ele>
        <time>2019-05-05T16:16:39Z</time>
      </trkpt>
      <trkpt lat="54.685202026739717" lon="8.846867959946394">
        <ele>-1.3</ele>
        <time>2019-05-05T16:16:40Z</time>
      </trkpt>
      <trkpt lat="54.685739977285266" lon="8.850721037015319">
        <ele>-1.3</ele>
        <time>2019-05-05T16:16:50Z</time>
      </trkpt>
      <trkpt lat="54.686226965859532" lon="8.852622974663973">
        <ele>-0.82</ele>
        <time>2019-05-05T16:16:58Z</time>
      </trkpt>
      <trkpt lat="54.686311036348343" lon="8.852950958535075">
        <ele>-1.3</ele>
        <time>2019-05-05T16:17:00Z</time>
      </trkpt>
      <trkpt lat="54.686340037733316" lon="8.853062018752098">
        <ele>-1.3</ele>
        <time>2019-05-05T16:17:01Z</time>
      </trkpt>
      <trkpt lat="54.686404997482896" lon="8.853211970999837">
        <ele>-1.3</ele>
        <time>2019-05-05T16:17:02Z</time>
      </trkpt>
      <trkpt lat="54.686473980545998" lon="8.853187998756766">
        <ele>-1.3</ele>
        <time>2019-05-05T16:17:03Z</time>
      </trkpt>
      <trkpt lat="54.686556961387396" lon="8.853158997371793">
        <ele>-1.3</ele>
        <time>2019-05-05T16:17:04Z</time>
      </trkpt>
      <trkpt lat="54.686659974977374" lon="8.853123039007187">
        <ele>-1.79</ele>
        <time>2019-05-05T16:17:05Z</time>
      </trkpt>
      <trkpt lat="54.686781009659171" lon="8.853080961853266">
        <ele>-1.79</ele>
        <time>2019-05-05T16:17:06Z</time>
      </trkpt>
      <trkpt lat="54.687721962109208" lon="8.852577963843942">
        <ele>-1.3</ele>
        <time>2019-05-05T16:17:12Z</time>
      </trkpt>
      <trkpt lat="54.687878033146262" lon="8.852380989119411">
        <ele>-0.82</ele>
        <time>2019-05-05T16:17:13Z</time>
      </trkpt>
      <trkpt lat="54.688037959858775" lon="8.852177979424596">
        <ele>-0.82</ele>
        <time>2019-05-05T16:17:14Z</time>
      </trkpt>
      <trkpt lat="54.689202960580587" lon="8.850805023685098">
        <ele>-1.3</ele>
        <time>2019-05-05T16:17:21Z</time>
      </trkpt>
      <trkpt lat="54.689380992203951" lon="8.85068298317492">
        <ele>-1.3</ele>
        <time>2019-05-05T16:17:22Z</time>
      </trkpt>
      <trkpt lat="54.689556006342173" lon="8.850603019818664">
        <ele>-1.3</ele>
        <time>2019-05-05T16:17:23Z</time>
      </trkpt>
      <trkpt lat="54.689763961359859" lon="8.850603019818664">
        <ele>-1.3</ele>
        <time>2019-05-05T16:17:24Z</time>
      </trkpt>
      <trkpt lat="54.689952973276377" lon="8.850603019818664">
        <ele>-1.3</ele>
        <time>2019-05-05T16:17:25Z</time>
      </trkpt>
      <trkpt lat="54.690123964101076" lon="8.850683989003301">
        <ele>-1.3</ele>
        <time>2019-05-05T16:17:26Z</time>
      </trkpt>
      <trkpt lat="54.690295038744807" lon="8.85076898150146">
        <ele>-1.3</ele>
        <time>2019-05-05T16:17:27Z</time>
      </trkpt>
      <trkpt lat="54.690468963235617" lon="8.850855985656381">
        <ele>-1.3</ele>
        <time>2019-05-05T16:17:28Z</time>
      </trkpt>
      <trkpt lat="54.692236036062241" lon="8.852011011913419">
        <ele>-0.34</ele>
        <time>2019-05-05T16:17:37Z</time>
      </trkpt>
      <trkpt lat="54.694164041429758" lon="8.853523023426533">
        <ele>-0.82</ele>
        <time>2019-05-05T16:17:46Z</time>
      </trkpt>
      <trkpt lat="54.695108011364937" lon="8.854910982772708">
        <ele>-0.34</ele>
        <time>2019-05-05T16:17:52Z</time>
      </trkpt>
      <trkpt lat="54.695190992206335" lon="8.855091026052833">
        <ele>-0.34</ele>
        <time>2019-05-05T16:17:53Z</time>
      </trkpt>
      <trkpt lat="54.695272967219353" lon="8.85551699437201">
        <ele>-0.82</ele>
        <time>2019-05-05T16:17:55Z</time>
      </trkpt>
      <trkpt lat="54.695267016068101" lon="8.855759985744953">
        <ele>-0.82</ele>
        <time>2019-05-05T16:17:56Z</time>
      </trkpt>
      <trkpt lat="54.695239020511508" lon="8.856029966846108">
        <ele>-0.82</ele>
        <time>2019-05-05T16:17:57Z</time>
      </trkpt>
      <trkpt lat="54.695208007469773" lon="8.856329033151269">
        <ele>-0.82</ele>
        <time>2019-05-05T16:17:58Z</time>
      </trkpt>
      <trkpt lat="54.695170037448406" lon="8.856650982052088">
        <ele>-0.82</ele>
        <time>2019-05-05T16:17:59Z</time>
      </trkpt>
      <trkpt lat="54.695092001929879" lon="8.857566034421325">
        <ele>-1.3</ele>
        <time>2019-05-05T16:18:02Z</time>
      </trkpt>
      <trkpt lat="54.695092001929879" lon="8.857874991372228">
        <ele>-1.79</ele>
        <time>2019-05-05T16:18:03Z</time>
      </trkpt>
      <trkpt lat="54.695118991658092" lon="8.858186965808272">
        <ele>-2.27</ele>
        <time>2019-05-05T16:18:04Z</time>
      </trkpt>
      <trkpt lat="54.695168025791645" lon="8.858512016013265">
        <ele>-2.27</ele>
        <time>2019-05-05T16:18:05Z</time>
      </trkpt>
      <trkpt lat="54.695219993591309" lon="8.858850980177522">
        <ele>-2.27</ele>
        <time>2019-05-05T16:18:06Z</time>
      </trkpt>
      <trkpt lat="54.695318983867764" lon="8.859550030902028">
        <ele>-1.79</ele>
        <time>2019-05-05T16:18:08Z</time>
      </trkpt>
      <trkpt lat="54.695676974952221" lon="8.862086981534958">
        <ele>-0.34</ele>
        <time>2019-05-05T16:18:15Z</time>
      </trkpt>
      <trkpt lat="54.696398992091417" lon="8.863918008282781">
        <ele>-0.34</ele>
        <time>2019-05-05T16:18:21Z</time>
      </trkpt>
      <trkpt lat="54.697871021926403" lon="8.867163984104991">
        <ele>-1.3</ele>
        <time>2019-05-05T16:18:31Z</time>
      </trkpt>
      <trkpt lat="54.698577029630542" lon="8.869583001360297">
        <ele>-2.75</ele>
        <time>2019-05-05T16:18:38Z</time>
      </trkpt>
      <trkpt lat="54.699539020657539" lon="8.871954996138811">
        <ele>-3.71</ele>
        <time>2019-05-05T16:18:46Z</time>
      </trkpt>
      <trkpt lat="54.699757033959031" lon="8.872436033561826">
        <ele>-3.71</ele>
        <time>2019-05-05T16:18:48Z</time>
      </trkpt>
      <trkpt lat="54.699895000085235" lon="8.872635019943118">
        <ele>-3.71</ele>
        <time>2019-05-05T16:18:49Z</time>
      </trkpt>
      <trkpt lat="54.70005601644516" lon="8.872797964140773">
        <ele>-4.19</ele>
        <time>2019-05-05T16:18:50Z</time>
      </trkpt>
      <trkpt lat="54.700232036411762" lon="8.872972978278995">
        <ele>-4.19</ele>
        <time>2019-05-05T16:18:51Z</time>
      </trkpt>
      <trkpt lat="54.700430016964674" lon="8.873122008517385">
        <ele>-4.19</ele>
        <time>2019-05-05T16:18:52Z</time>
      </trkpt>
      <trkpt lat="54.701901040971279" lon="8.874159017577767">
        <ele>-2.75</ele>
        <time>2019-05-05T16:18:59Z</time>
      </trkpt>
      <trkpt lat="54.703176012262702" lon="8.875040961429477">
        <ele>-2.75</ele>
        <time>2019-05-05T16:19:06Z</time>
      </trkpt>
      <trkpt lat="54.704284016042948" lon="8.875544965267181">
        <ele>-2.75</ele>
        <time>2019-05-05T16:19:12Z</time>
      </trkpt>
      <trkpt lat="54.706314029172063" lon="8.876285003498197">
        <ele>-3.23</ele>
        <time>2019-05-05T16:19:20Z</time>
      </trkpt>
      <trkpt lat="54.709350038319826" lon="8.877557041123509">
        <ele>-3.23</ele>
        <time>2019-05-05T16:19:32Z</time>
      </trkpt>
      <trkpt lat="54.711310984566808" lon="8.878241004422307">
        <ele>-3.23</ele>
        <time>2019-05-05T16:19:41Z</time>
      </trkpt>
      <trkpt lat="54.7115099709481" lon="8.878241004422307">
        <ele>-3.23</ele>
        <time>2019-05-05T16:19:42Z</time>
      </trkpt>
      <trkpt lat="54.713674010708928" lon="8.878047969192267">
        <ele>-3.23</ele>
        <time>2019-05-05T16:19:52Z</time>
      </trkpt>
      <trkpt lat="54.716207021847367" lon="8.877771031111479">
        <ele>-3.23</ele>
        <time>2019-05-05T16:20:02Z</time>
      </trkpt>
      <trkpt lat="54.719337997958064" lon="8.877427959814668">
        <ele>-4.19</ele>
        <time>2019-05-05T16:20:14Z</time>
      </trkpt>
      <trkpt lat="54.721206994727254" lon="8.87721598148346">
        <ele>-3.71</ele>
        <time>2019-05-05T16:20:22Z</time>
      </trkpt>
      <trkpt lat="54.722250960767269" lon="8.877100981771946">
        <ele>-3.71</ele>
        <time>2019-05-05T16:20:29Z</time>
      </trkpt>
      <trkpt lat="54.722532005980611" lon="8.877069968730211">
        <ele>-3.71</ele>
        <time>2019-05-05T16:20:32Z</time>
      </trkpt>
      <trkpt lat="54.722577016800642" lon="8.87706502340734">
        <ele>-3.71</ele>
        <time>2019-05-05T16:20:33Z</time>
      </trkpt>
      <trkpt lat="54.722606018185616" lon="8.876918004825711">
        <ele>-4.19</ele>
        <time>2019-05-05T16:20:34Z</time>
      </trkpt>
      <trkpt lat="54.722592020407319" lon="8.876794036477804">
        <ele>-4.19</ele>
        <time>2019-05-05T16:20:35Z</time>
      </trkpt>
      <trkpt lat="54.72257299348712" lon="8.876628996804357">
        <ele>-4.67</ele>
        <time>2019-05-05T16:20:36Z</time>
      </trkpt>
      <trkpt lat="54.72255002707243" lon="8.876425987109542">
        <ele>-4.67</ele>
        <time>2019-05-05T16:20:37Z</time>
      </trkpt>
      <trkpt lat="54.722351962700486" lon="8.874690011143684">
        <ele>-6.11</ele>
        <time>2019-05-05T16:20:43Z</time>
      </trkpt>
      <trkpt lat="54.722325978800654" lon="8.874095985665917">
        <ele>-6.11</ele>
        <time>2019-05-05T16:20:45Z</time>
      </trkpt>
      <trkpt lat="54.722346011549234" lon="8.873803038150072">
        <ele>-6.59</ele>
        <time>2019-05-05T16:20:46Z</time>
      </trkpt>
      <trkpt lat="54.722396973520517" lon="8.873500032350421">
        <ele>-6.59</ele>
        <time>2019-05-05T16:20:47Z</time>
      </trkpt>
      <trkpt lat="54.722875999286771" lon="8.870639037340879">
        <ele>-6.59</ele>
        <time>2019-05-05T16:20:55Z</time>
      </trkpt>
      <trkpt lat="54.723055036738515" lon="8.869099030271173">
        <ele>-5.63</ele>
        <time>2019-05-05T16:21:01Z</time>
      </trkpt>
      <trkpt lat="54.723069034516811" lon="8.868614975363016">
        <ele>-6.11</ele>
        <time>2019-05-05T16:21:03Z</time>
      </trkpt>
      <trkpt lat="54.723037015646696" lon="8.868339965119958">
        <ele>-6.11</ele>
        <time>2019-05-05T16:21:04Z</time>
      </trkpt>
      <trkpt lat="54.72300298511982" lon="8.868038970977068">
        <ele>-6.11</ele>
        <time>2019-05-05T16:21:05Z</time>
      </trkpt>
      <trkpt lat="54.72248699516058" lon="8.865581983700395">
        <ele>-6.11</ele>
        <time>2019-05-05T16:21:12Z</time>
      </trkpt>
      <trkpt lat="54.722248027101159" lon="8.864655029028654">
        <ele>-5.63</ele>
        <time>2019-05-05T16:21:15Z</time>
      </trkpt>
      <trkpt lat="54.722155993804336" lon="8.864399967715144">
        <ele>-5.63</ele>
        <time>2019-05-05T16:21:16Z</time>
      </trkpt>
      <trkpt lat="54.722048034891486" lon="8.864148007705808">
        <ele>-5.63</ele>
        <time>2019-05-05T16:21:17Z</time>
      </trkpt>
      <trkpt lat="54.721905961632729" lon="8.863921025767922">
        <ele>-5.15</ele>
        <time>2019-05-05T16:21:18Z</time>
      </trkpt>
      <trkpt lat="54.721759026870131" lon="8.863687003031373">
        <ele>-5.63</ele>
        <time>2019-05-05T16:21:19Z</time>
      </trkpt>
      <trkpt lat="54.720573993399739" lon="8.861454986035824">
        <ele>-5.63</ele>
        <time>2019-05-05T16:21:27Z</time>
      </trkpt>
      <trkpt lat="54.718731986358762" lon="8.857741970568895">
        <ele>-6.11</ele>
        <time>2019-05-05T16:21:40Z</time>
      </trkpt>
      <trkpt lat="54.718249021098018" lon="8.856678977608681">
        <ele>-5.15</ele>
        <time>2019-05-05T16:21:45Z</time>
      </trkpt>
      <trkpt lat="54.718171991407871" lon="8.856455013155937">
        <ele>-5.15</ele>
        <time>2019-05-05T16:21:46Z</time>
      </trkpt>
      <trkpt lat="54.718118011951447" lon="8.856202969327569">
        <ele>-5.15</ele>
        <time>2019-05-05T16:21:47Z</time>
      </trkpt>
      <trkpt lat="54.718012986704707" lon="8.855654960498214">
        <ele>-5.15</ele>
        <time>2019-05-05T16:21:49Z</time>
      </trkpt>
      <trkpt lat="54.717940986156464" lon="8.855357989668846">
        <ele>-4.67</ele>
        <time>2019-05-05T16:21:50Z</time>
      </trkpt>
      <trkpt lat="54.717820035293698" lon="8.855101000517607">
        <ele>-4.67</ele>
        <time>2019-05-05T16:21:51Z</time>
      </trkpt>
      <trkpt lat="54.716555960476398" lon="8.852421976625919">
        <ele>-4.67</ele>
        <time>2019-05-05T16:22:00Z</time>
      </trkpt>
      <trkpt lat="54.715046966448426" lon="8.849179018288851">
        <ele>-4.67</ele>
        <time>2019-05-05T16:22:10Z</time>
      </trkpt>
      <trkpt lat="54.714283961802721" lon="8.847716962918639">
        <ele>-5.63</ele>
        <time>2019-05-05T16:22:16Z</time>
      </trkpt>
      <trkpt lat="54.714125040918589" lon="8.847491992637515">
        <ele>-5.63</ele>
        <time>2019-05-05T16:22:17Z</time>
      </trkpt>
      <trkpt lat="54.712560977786779" lon="8.845884008333087">
        <ele>-4.67</ele>
        <time>2019-05-05T16:22:25Z</time>
      </trkpt>
      <trkpt lat="54.712451007217169" lon="8.845731960609555">
        <ele>-5.15</ele>
        <time>2019-05-05T16:22:26Z</time>
      </trkpt>
      <trkpt lat="54.712354028597474" lon="8.845448987558484">
        <ele>-5.15</ele>
        <time>2019-05-05T16:22:27Z</time>
      </trkpt>
      <trkpt lat="54.712269036099315" lon="8.845200967043638">
        <ele>-5.15</ele>
        <time>2019-05-05T16:22:28Z</time>
      </trkpt>
      <trkpt lat="54.712188988924026" lon="8.844932997599244">
        <ele>-5.15</ele>
        <time>2019-05-05T16:22:29Z</time>
      </trkpt>
      <trkpt lat="54.712154036387801" lon="8.844607025384903">
        <ele>-5.15</ele>
        <time>2019-05-05T16:22:30Z</time>
      </trkpt>
      <trkpt lat="54.712117994204164" lon="8.84425699710846">
        <ele>-4.67</ele>
        <time>2019-05-05T16:22:31Z</time>
      </trkpt>
      <trkpt lat="54.711735025048256" lon="8.840609025210142">
        <ele>-5.15</ele>
        <time>2019-05-05T16:22:40Z</time>
      </trkpt>
      <trkpt lat="54.711429001763463" lon="8.837691033259034">
        <ele>-4.19</ele>
        <time>2019-05-05T16:22:48Z</time>
      </trkpt>
      <trkpt lat="54.711338980123401" lon="8.83718803524971">
        <ele>-3.71</ele>
        <time>2019-05-05T16:22:50Z</time>
      </trkpt>
      <trkpt lat="54.711263962090015" lon="8.83699600584805">
        <ele>-3.71</ele>
        <time>2019-05-05T16:22:51Z</time>
      </trkpt>
      <trkpt lat="54.71118601039052" lon="8.836804982274771">
        <ele>-3.71</ele>
        <time>2019-05-05T16:22:52Z</time>
      </trkpt>
      <trkpt lat="54.7110990062356" lon="8.836590992286801">
        <ele>-3.71</ele>
        <time>2019-05-05T16:22:53Z</time>
      </trkpt>
      <trkpt lat="54.711003033444285" lon="8.836453026160598">
        <ele>-3.71</ele>
        <time>2019-05-05T16:22:54Z</time>
      </trkpt>
      <trkpt lat="54.710572035983205" lon="8.835833016782999">
        <ele>-2.75</ele>
        <time>2019-05-05T16:23:00Z</time>
      </trkpt>
      <trkpt lat="54.710529958829284" lon="8.835773002356291">
        <ele>-2.75</ele>
        <time>2019-05-05T16:23:01Z</time>
      </trkpt>
      <trkpt lat="54.710495006293058" lon="8.835722962394357">
        <ele>-2.27</ele>
        <time>2019-05-05T16:23:02Z</time>
      </trkpt>
      <trkpt lat="54.710468016564846" lon="8.835683986544609">
        <ele>-2.27</ele>
        <time>2019-05-05T16:23:03Z</time>
      </trkpt>
      <trkpt lat="54.710447983816266" lon="8.835654985159636">
        <ele>-2.27</ele>
        <time>2019-05-05T16:23:04Z</time>
      </trkpt>
      <trkpt lat="54.710473967716098" lon="8.835541997104883">
        <ele>-2.27</ele>
        <time>2019-05-05T16:23:05Z</time>
      </trkpt>
      <trkpt lat="54.710512021556497" lon="8.835502015426755">
        <ele>-2.27</ele>
        <time>2019-05-05T16:23:06Z</time>
      </trkpt>
      <trkpt lat="54.710567006841302" lon="8.835445018485189">
        <ele>-2.27</ele>
        <time>2019-05-05T16:23:07Z</time>
      </trkpt>
      <trkpt lat="54.710636995732784" lon="8.835374023765326">
        <ele>-2.27</ele>
        <time>2019-05-05T16:23:08Z</time>
      </trkpt>
      <trkpt lat="54.710726011544466" lon="8.835282996296883">
        <ele>-1.79</ele>
        <time>2019-05-05T16:23:09Z</time>
      </trkpt>
      <trkpt lat="54.710830030962825" lon="8.835175959393382">
        <ele>-1.79</ele>
        <time>2019-05-05T16:23:10Z</time>
      </trkpt>
      <trkpt lat="54.711718009784818" lon="8.834422007203102">
        <ele>-4.19</ele>
        <time>2019-05-05T16:23:16Z</time>
      </trkpt>
      <trkpt lat="54.711902998387814" lon="8.834335003048182">
        <ele>-4.67</ele>
        <time>2019-05-05T16:23:17Z</time>
      </trkpt>
      <trkpt lat="54.712096033617854" lon="8.834256967529655">
        <ele>-4.67</ele>
        <time>2019-05-05T16:23:18Z</time>
      </trkpt>
      <trkpt lat="54.713903004303575" lon="8.834005007520318">
        <ele>-5.15</ele>
        <time>2019-05-05T16:23:26Z</time>
      </trkpt>
      <trkpt lat="54.717073040083051" lon="8.833565041422844">
        <ele>-2.75</ele>
        <time>2019-05-05T16:23:38Z</time>
      </trkpt>
      <trkpt lat="54.720682958140969" lon="8.833074029535055">
        <ele>-5.15</ele>
        <time>2019-05-05T16:23:52Z</time>
      </trkpt>
      <trkpt lat="54.724682969972491" lon="8.832513028755784">
        <ele>-7.55</ele>
        <time>2019-05-05T16:24:08Z</time>
      </trkpt>
      <trkpt lat="54.726943988353014" lon="8.832115978002548">
        <ele>-6.59</ele>
        <time>2019-05-05T16:24:18Z</time>
      </trkpt>
      <trkpt lat="54.727163007482886" lon="8.832016987726092">
        <ele>-6.59</ele>
        <time>2019-05-05T16:24:19Z</time>
      </trkpt>
      <trkpt lat="54.729435006156564" lon="8.83033599704504">
        <ele>-5.63</ele>
        <time>2019-05-05T16:24:29Z</time>
      </trkpt>
      <trkpt lat="54.731293022632599" lon="8.828942002728581">
        <ele>-4.67</ele>
        <time>2019-05-05T16:24:38Z</time>
      </trkpt>
      <trkpt lat="54.732030965387821" lon="8.828491978347302">
        <ele>-5.63</ele>
        <time>2019-05-05T16:24:42Z</time>
      </trkpt>
      <trkpt lat="54.732214026153088" lon="8.828416038304567">
        <ele>-5.63</ele>
        <time>2019-05-05T16:24:43Z</time>
      </trkpt>
      <trkpt lat="54.732403038069606" lon="8.828426012769342">
        <ele>-5.15</ele>
        <time>2019-05-05T16:24:44Z</time>
      </trkpt>
      <trkpt lat="54.732600012794137" lon="8.828436993062496">
        <ele>-4.67</ele>
        <time>2019-05-05T16:24:45Z</time>
      </trkpt>
      <trkpt lat="54.732788018882275" lon="8.828542018309236">
        <ele>-4.67</ele>
        <time>2019-05-05T16:24:46Z</time>
      </trkpt>
      <trkpt lat="54.732982981950045" lon="8.828649977222085">
        <ele>-4.19</ele>
        <time>2019-05-05T16:24:47Z</time>
      </trkpt>
      <trkpt lat="54.73316403105855" lon="8.828861033543944">
        <ele>-4.19</ele>
        <time>2019-05-05T16:24:48Z</time>
      </trkpt>
      <trkpt lat="54.733350025489926" lon="8.829079968854785">
        <ele>-4.19</ele>
        <time>2019-05-05T16:24:49Z</time>
      </trkpt>
      <trkpt lat="54.733545994386077" lon="8.829309968277812">
        <ele>-3.71</ele>
        <time>2019-05-05T16:24:50Z</time>
      </trkpt>
      <trkpt lat="54.73527199588716" lon="8.831432014703751">
        <ele>-0.82</ele>
        <time>2019-05-05T16:24:58Z</time>
      </trkpt>
      <trkpt lat="54.738457035273314" lon="8.835382992401719">
        <ele>4.46</ele>
        <time>2019-05-05T16:25:12Z</time>
      </trkpt>
      <trkpt lat="54.740526024252176" lon="8.837933018803597">
        <ele>5.91</ele>
        <time>2019-05-05T16:25:22Z</time>
      </trkpt>
      <trkpt lat="54.741624975576997" lon="8.839273033663631">
        <ele>4.94</ele>
        <time>2019-05-05T16:25:29Z</time>
      </trkpt>
      <trkpt lat="54.742945963516831" lon="8.840675996616483">
        <ele>4.94</ele>
        <time>2019-05-05T16:25:36Z</time>
      </trkpt>
      <trkpt lat="54.744755029678345" lon="8.84206403978169">
        <ele>3.5</ele>
        <time>2019-05-05T16:25:47Z</time>
      </trkpt>
      <trkpt lat="54.745335979387164" lon="8.842668039724231">
        <ele>3.02</ele>
        <time>2019-05-05T16:25:51Z</time>
      </trkpt>
      <trkpt lat="54.745467994362116" lon="8.842854034155607">
        <ele>3.02</ele>
        <time>2019-05-05T16:25:52Z</time>
      </trkpt>
      <trkpt lat="54.745600009337068" lon="8.843042962253094">
        <ele>3.02</ele>
        <time>2019-05-05T16:25:53Z</time>
      </trkpt>
      <trkpt lat="54.746622014790773" lon="8.845184035599232">
        <ele>2.06</ele>
        <time>2019-05-05T16:26:02Z</time>
      </trkpt>
      <trkpt lat="54.748524958267808" lon="8.849258981645107">
        <ele>2.06</ele>
        <time>2019-05-05T16:26:17Z</time>
      </trkpt>
      <trkpt lat="54.749045977368951" lon="8.850343013182282">
        <ele>1.1</ele>
        <time>2019-05-05T16:26:21Z</time>
      </trkpt>
      <trkpt lat="54.749196013435721" lon="8.850520038977265">
        <ele>0.62</ele>
        <time>2019-05-05T16:26:22Z</time>
      </trkpt>
      <trkpt lat="54.749355018138885" lon="8.850663034245372">
        <ele>0.62</ele>
        <time>2019-05-05T16:26:23Z</time>
      </trkpt>
      <trkpt lat="54.749518968164921" lon="8.850798988714814">
        <ele>1.1</ele>
        <time>2019-05-05T16:26:24Z</time>
      </trkpt>
      <trkpt lat="54.749695993959904" lon="8.850880963727832">
        <ele>1.1</ele>
        <time>2019-05-05T16:26:25Z</time>
      </trkpt>
      <trkpt lat="54.749879976734519" lon="8.85091801173985">
        <ele>0.62</ele>
        <time>2019-05-05T16:26:26Z</time>
      </trkpt>
      <trkpt lat="54.750058008357882" lon="8.850952964276075">
        <ele>0.62</ele>
        <time>2019-05-05T16:26:27Z</time>
      </trkpt>
      <trkpt lat="54.750230005010962" lon="8.850967967882752">
        <ele>0.62</ele>
        <time>2019-05-05T16:26:28Z</time>
      </trkpt>
      <trkpt lat="54.751209011301398" lon="8.85100300423801">
        <ele>0.14</ele>
        <time>2019-05-05T16:26:35Z</time>
      </trkpt>
      <trkpt lat="54.751318981871009" lon="8.85104700922966">
        <ele>0.14</ele>
        <time>2019-05-05T16:26:36Z</time>
      </trkpt>
      <trkpt lat="54.751421995460987" lon="8.851118003949523">
        <ele>0.14</ele>
        <time>2019-05-05T16:26:37Z</time>
      </trkpt>
      <trkpt lat="54.75151302292943" lon="8.851206013932824">
        <ele>0.14</ele>
        <time>2019-05-05T16:26:38Z</time>
      </trkpt>
      <trkpt lat="54.751592986285686" lon="8.851326964795589">
        <ele>0.14</ele>
        <time>2019-05-05T16:26:39Z</time>
      </trkpt>
      <trkpt lat="54.751654006540775" lon="8.851418998092413">
        <ele>0.14</ele>
        <time>2019-05-05T16:26:40Z</time>
      </trkpt>
      <trkpt lat="54.751741010695696" lon="8.851592000573874">
        <ele>0.14</ele>
        <time>2019-05-05T16:26:41Z</time>
      </trkpt>
      <trkpt lat="54.751812005415559" lon="8.85173499584198">
        <ele>-0.34</ele>
        <time>2019-05-05T16:26:42Z</time>
      </trkpt>
      <trkpt lat="54.752546008676291" lon="8.853468960151076">
        <ele>-0.82</ele>
        <time>2019-05-05T16:26:53Z</time>
      </trkpt>
      <trkpt lat="54.753307001665235" lon="8.85573199018836">
        <ele>-0.82</ele>
        <time>2019-05-05T16:27:06Z</time>
      </trkpt>
      <trkpt lat="54.754067994654179" lon="8.857368975877762">
        <ele>1.1</ele>
        <time>2019-05-05T16:27:16Z</time>
      </trkpt>
      <trkpt lat="54.754618015140295" lon="8.858648976311088">
        <ele>0.62</ele>
        <time>2019-05-05T16:27:24Z</time>
      </trkpt>
      <trkpt lat="54.754734020680189" lon="8.85899699293077">
        <ele>0.14</ele>
        <time>2019-05-05T16:27:27Z</time>
      </trkpt>
      <trkpt lat="54.75475799292326" lon="8.859073016792536">
        <ele>-0.34</ele>
        <time>2019-05-05T16:27:28Z</time>
      </trkpt>
      <trkpt lat="54.75482102483511" lon="8.85910302400589">
        <ele>-0.34</ele>
        <time>2019-05-05T16:27:29Z</time>
      </trkpt>
      <trkpt lat="54.754857989028096" lon="8.859034040942788">
        <ele>-0.82</ele>
        <time>2019-05-05T16:27:30Z</time>
      </trkpt>
      <trkpt lat="54.754909034818411" lon="8.858939995989204">
        <ele>-0.82</ele>
        <time>2019-05-05T16:27:31Z</time>
      </trkpt>
      <trkpt lat="54.75497399456799" lon="8.858820972964168">
        <ele>-0.82</ele>
        <time>2019-05-05T16:27:32Z</time>
      </trkpt>
      <trkpt lat="54.755050018429756" lon="8.858679989352822">
        <ele>-1.3</ele>
        <time>2019-05-05T16:27:33Z</time>
      </trkpt>
      <trkpt lat="54.755755020305514" lon="8.857388002797961">
        <ele>-1.79</ele>
        <time>2019-05-05T16:27:40Z</time>
      </trkpt>
      <trkpt lat="54.756946004927158" lon="8.85502296499908">
        <ele>-1.3</ele>
        <time>2019-05-05T16:27:50Z</time>
      </trkpt>
      <trkpt lat="54.758231034502387" lon="8.852234976366162">
        <ele>-0.34</ele>
        <time>2019-05-05T16:27:59Z</time>
      </trkpt>
      <trkpt lat="54.760168008506298" lon="8.848022986203432">
        <ele>-1.79</ele>
        <time>2019-05-05T16:28:12Z</time>
      </trkpt>
      <trkpt lat="54.760734960436821" lon="8.846765030175448">
        <ele>-3.23</ele>
        <time>2019-05-05T16:28:18Z</time>
      </trkpt>
      <trkpt lat="54.760801009833813" lon="8.846618011593819">
        <ele>-3.23</ele>
        <time>2019-05-05T16:28:20Z</time>
      </trkpt>
      <trkpt lat="54.760821964591742" lon="8.846571994945407">
        <ele>-3.23</ele>
        <time>2019-05-05T16:28:21Z</time>
      </trkpt>
      <trkpt lat="54.760917015373707" lon="8.846489014104009">
        <ele>-3.23</ele>
        <time>2019-05-05T16:28:22Z</time>
      </trkpt>
      <trkpt lat="54.760950962081552" lon="8.846533019095659">
        <ele>-3.23</ele>
        <time>2019-05-05T16:28:23Z</time>
      </trkpt>
      <trkpt lat="54.760998990386724" lon="8.846596973016858">
        <ele>-3.23</ele>
        <time>2019-05-05T16:28:24Z</time>
      </trkpt>
      <trkpt lat="54.761060010641813" lon="8.846678026020527">
        <ele>-3.23</ele>
        <time>2019-05-05T16:28:25Z</time>
      </trkpt>
      <trkpt lat="54.761134022846818" lon="8.846778022125363">
        <ele>-3.23</ele>
        <time>2019-05-05T16:28:26Z</time>
      </trkpt>
      <trkpt lat="54.761864002794027" lon="8.847751999273896">
        <ele>-3.71</ele>
        <time>2019-05-05T16:28:33Z</time>
      </trkpt>
      <trkpt lat="54.7632210329175" lon="8.849559975787997">
        <ele>-2.75</ele>
        <time>2019-05-05T16:28:44Z</time>
      </trkpt>
      <trkpt lat="54.764760034158826" lon="8.85128396563232">
        <ele>-2.75</ele>
        <time>2019-05-05T16:28:55Z</time>
      </trkpt>
      <trkpt lat="54.765455983579159" lon="8.851984022185206">
        <ele>-1.3</ele>
        <time>2019-05-05T16:29:00Z</time>
      </trkpt>
      <trkpt lat="54.766785018146038" lon="8.854008000344038">
        <ele>0.14</ele>
        <time>2019-05-05T16:29:10Z</time>
      </trkpt>
      <trkpt lat="54.76758599281311" lon="8.855227986350656">
        <ele>-1.3</ele>
        <time>2019-05-05T16:29:18Z</time>
      </trkpt>
      <trkpt lat="54.768069963902235" lon="8.855965007096529">
        <ele>-1.3</ele>
        <time>2019-05-05T16:29:26Z</time>
      </trkpt>
      <trkpt lat="54.76814397610724" lon="8.856077995151281">
        <ele>-1.3</ele>
        <time>2019-05-05T16:29:28Z</time>
      </trkpt>
      <trkpt lat="54.768174989148974" lon="8.856125017628074">
        <ele>-1.3</ele>
        <time>2019-05-05T16:29:29Z</time>
      </trkpt>
      <trkpt lat="54.768241038545966" lon="8.856103979051113">
        <ele>-0.82</ele>
        <time>2019-05-05T16:29:30Z</time>
      </trkpt>
      <trkpt lat="54.768338017165661" lon="8.855975987389684">
        <ele>-1.3</ele>
        <time>2019-05-05T16:29:32Z</time>
      </trkpt>
      <trkpt lat="54.76840197108686" lon="8.855892000719905">
        <ele>-0.82</ele>
        <time>2019-05-05T16:29:33Z</time>
      </trkpt>
      <trkpt lat="54.769051987677813" lon="8.855036040768027">
        <ele>0.14</ele>
        <time>2019-05-05T16:29:40Z</time>
      </trkpt>
      <trkpt lat="54.770555030554533" lon="8.853057995438576">
        <ele>0.62</ele>
        <time>2019-05-05T16:29:52Z</time>
      </trkpt>
      <trkpt lat="54.772214982658625" lon="8.850873000919819">
        <ele>-0.34</ele>
        <time>2019-05-05T16:30:04Z</time>
      </trkpt>
      <trkpt lat="54.773863032460213" lon="8.848703010007739">
        <ele>-2.75</ele>
        <time>2019-05-05T16:30:16Z</time>
      </trkpt>
      <trkpt lat="54.774943962693214" lon="8.847279008477926">
        <ele>-0.82</ele>
        <time>2019-05-05T16:30:27Z</time>
      </trkpt>
      <trkpt lat="54.775342019274831" lon="8.846754971891642">
        <ele>-0.82</ele>
        <time>2019-05-05T16:30:36Z</time>
      </trkpt>
      <trkpt lat="54.775360962375998" lon="8.84672999382019">
        <ele>-0.82</ele>
        <time>2019-05-05T16:30:42Z</time>
      </trkpt>
      <trkpt lat="54.775429023429751" lon="8.846783973276615">
        <ele>-0.82</ele>
        <time>2019-05-05T16:30:43Z</time>
      </trkpt>
      <trkpt lat="54.775414019823074" lon="8.846884975209832">
        <ele>-0.82</ele>
        <time>2019-05-05T16:30:44Z</time>
      </trkpt>
      <trkpt lat="54.775399016216397" lon="8.846981031820178">
        <ele>-0.82</ele>
        <time>2019-05-05T16:30:45Z</time>
      </trkpt>
      <trkpt lat="54.775380995124578" lon="8.847097959369421">
        <ele>-0.82</ele>
        <time>2019-05-05T16:30:46Z</time>
      </trkpt>
      <trkpt lat="54.775360962375998" lon="8.847231986001134">
        <ele>-1.3</ele>
        <time>2019-05-05T16:30:47Z</time>
      </trkpt>
      <trkpt lat="54.775202041491866" lon="8.848488014191389">
        <ele>1.1</ele>
        <time>2019-05-05T16:30:53Z</time>
      </trkpt>
      <trkpt lat="54.774909010156989" lon="8.85093997232616">
        <ele>4.46</ele>
        <time>2019-05-05T16:31:01Z</time>
      </trkpt>
      <trkpt lat="54.774633999913931" lon="8.853128990158439">
        <ele>4.94</ele>
        <time>2019-05-05T16:31:09Z</time>
      </trkpt>
      <trkpt lat="54.774197973310947" lon="8.855305016040802">
        <ele>4.94</ele>
        <time>2019-05-05T16:31:18Z</time>
      </trkpt>
      <trkpt lat="54.774108035489917" lon="8.855507019907236">
        <ele>4.94</ele>
        <time>2019-05-05T16:31:19Z</time>
      </trkpt>
      <trkpt lat="54.773993035778403" lon="8.85568798519671">
        <ele>4.94</ele>
        <time>2019-05-05T16:31:20Z</time>
      </trkpt>
      <trkpt lat="54.773883987218142" lon="8.85585998184979">
        <ele>4.94</ele>
        <time>2019-05-05T16:31:21Z</time>
      </trkpt>
      <trkpt lat="54.773731017485261" lon="8.856014041230083">
        <ele>4.46</ele>
        <time>2019-05-05T16:31:22Z</time>
      </trkpt>
      <trkpt lat="54.773583998903632" lon="8.856159970164299">
        <ele>4.46</ele>
        <time>2019-05-05T16:31:23Z</time>
      </trkpt>
      <trkpt lat="54.773432034999132" lon="8.856313023716211">
        <ele>4.46</ele>
        <time>2019-05-05T16:31:24Z</time>
      </trkpt>
      <trkpt lat="54.772316990420222" lon="8.857639040797949">
        <ele>3.5</ele>
        <time>2019-05-05T16:31:32Z</time>
      </trkpt>
      <trkpt lat="54.772112974897027" lon="8.857925031334162">
        <ele>3.5</ele>
        <time>2019-05-05T16:31:34Z</time>
      </trkpt>
      <trkpt lat="54.772019013762474" lon="8.858041036874056">
        <ele>3.5</ele>
        <time>2019-05-05T16:31:35Z</time>
      </trkpt>
      <trkpt lat="54.771927986294031" lon="8.858100967481732">
        <ele>3.5</ele>
        <time>2019-05-05T16:31:36Z</time>
      </trkpt>
      <trkpt lat="54.771785996854305" lon="8.858196018263698">
        <ele>3.5</ele>
        <time>2019-05-05T16:31:38Z</time>
      </trkpt>
      <trkpt lat="54.771740986034274" lon="8.858259972184897">
        <ele>3.98</ele>
        <time>2019-05-05T16:31:39Z</time>
      </trkpt>
      <trkpt lat="54.771690024062991" lon="8.858337001875043">
        <ele>3.98</ele>
        <time>2019-05-05T16:31:40Z</time>
      </trkpt>
      <trkpt lat="54.771634032949805" lon="8.858420988544822">
        <ele>4.46</ele>
        <time>2019-05-05T16:31:41Z</time>
      </trkpt>
      <trkpt lat="54.771592039614916" lon="8.858512016013265">
        <ele>4.46</ele>
        <time>2019-05-05T16:31:42Z</time>
      </trkpt>
      <trkpt lat="54.771552979946136" lon="8.858626009896398">
        <ele>4.94</ele>
        <time>2019-05-05T16:31:43Z</time>
      </trkpt>
      <trkpt lat="54.771546022966504" lon="8.858741009607911">
        <ele>4.94</ele>
        <time>2019-05-05T16:31:44Z</time>
      </trkpt>
      <trkpt lat="54.771546022966504" lon="8.858880987390876">
        <ele>4.94</ele>
        <time>2019-05-05T16:31:45Z</time>
      </trkpt>
      <trkpt lat="54.771546022966504" lon="8.859020965173841">
        <ele>4.46</ele>
        <time>2019-05-05T16:31:46Z</time>
      </trkpt>
      <trkpt lat="54.771546022966504" lon="8.859058013185859">
        <ele>4.46</ele>
        <time>2019-05-05T16:31:47Z</time>
      </trkpt>
      <trkpt lat="54.771579969674349" lon="8.859180975705385">
        <ele>3.98</ele>
        <time>2019-05-05T16:31:48Z</time>
      </trkpt>
      <trkpt lat="54.771594973281026" lon="8.859236966818571">
        <ele>3.5</ele>
        <time>2019-05-05T16:31:49Z</time>
      </trkpt>
      <trkpt lat="54.771618023514748" lon="8.859317013993859">
        <ele>3.02</ele>
        <time>2019-05-05T16:31:57Z</time>
      </trkpt>
      <trkpt lat="54.771632021293044" lon="8.859368981793523">
        <ele>3.02</ele>
        <time>2019-05-05T16:31:58Z</time>
      </trkpt>
      <trkpt lat="54.771686000749469" lon="8.859407035633922">
        <ele>2.54</ele>
        <time>2019-05-05T16:31:59Z</time>
      </trkpt>
      <trkpt lat="54.771745009347796" lon="8.859341992065311">
        <ele>2.54</ele>
        <time>2019-05-05T16:32:00Z</time>
      </trkpt>
      <trkpt lat="54.771824972704053" lon="8.859253982082009">
        <ele>2.06</ele>
        <time>2019-05-05T16:32:01Z</time>
      </trkpt>
      <trkpt lat="54.77192304097116" lon="8.85914602316916">
        <ele>2.06</ele>
        <time>2019-05-05T16:32:02Z</time>
      </trkpt>
      <trkpt lat="54.772037034854293" lon="8.85901995934546">
        <ele>1.58</ele>
        <time>2019-05-05T16:32:03Z</time>
      </trkpt>
      <trkpt lat="54.773140009492636" lon="8.857870968058705">
        <ele>1.58</ele>
        <time>2019-05-05T16:32:10Z</time>
      </trkpt>
      <trkpt lat="54.774770960211754" lon="8.856686018407345">
        <ele>0.14</ele>
        <time>2019-05-05T16:32:17Z</time>
      </trkpt>
      <trkpt lat="54.776968024671078" lon="8.855842966586351">
        <ele>-1.3</ele>
        <time>2019-05-05T16:32:25Z</time>
      </trkpt>
      <trkpt lat="54.778776001185179" lon="8.855662001296878">
        <ele>-1.3</ele>
        <time>2019-05-05T16:32:32Z</time>
      </trkpt>
      <trkpt lat="54.78125000372529" lon="8.855679016560316">
        <ele>-1.79</ele>
        <time>2019-05-05T16:32:44Z</time>
      </trkpt>
      <trkpt lat="54.784089960157871" lon="8.85568899102509">
        <ele>-1.3</ele>
        <time>2019-05-05T16:32:57Z</time>
      </trkpt>
      <trkpt lat="54.787521008402109" lon="8.855760991573334">
        <ele>-1.79</ele>
        <time>2019-05-05T16:33:11Z</time>
      </trkpt>
      <trkpt lat="54.790313020348549" lon="8.855900969356298">
        <ele>-3.23</ele>
        <time>2019-05-05T16:33:23Z</time>
      </trkpt>
      <trkpt lat="54.791151965036988" lon="8.856184026226401">
        <ele>-2.75</ele>
        <time>2019-05-05T16:33:29Z</time>
      </trkpt>
      <trkpt lat="54.791327985003591" lon="8.856281004846096">
        <ele>-2.27</ele>
        <time>2019-05-05T16:33:31Z</time>
      </trkpt>
      <trkpt lat="54.791393028572202" lon="8.856320986524224">
        <ele>-2.27</ele>
        <time>2019-05-05T16:33:32Z</time>
      </trkpt>
      <trkpt lat="54.791457988321781" lon="8.856546962633729">
        <ele>-2.27</ele>
        <time>2019-05-05T16:33:33Z</time>
      </trkpt>
      <trkpt lat="54.791457988321781" lon="8.856546962633729">
        <ele>-2.27</ele>
        <time>2019-05-05T16:33:34Z</time>
      </trkpt>
      <trkpt lat="54.791495036333799" lon="8.856619969010353">
        <ele>-2.75</ele>
        <time>2019-05-05T16:33:35Z</time>
      </trkpt>
      <trkpt lat="54.791528983041644" lon="8.856689035892487">
        <ele>-2.75</ele>
        <time>2019-05-05T16:33:36Z</time>
      </trkpt>
      <trkpt lat="54.791587991639972" lon="8.856718959286809">
        <ele>-2.75</ele>
        <time>2019-05-05T16:33:37Z</time>
      </trkpt>
      <trkpt lat="54.791649011895061" lon="8.856718959286809">
        <ele>-2.27</ele>
        <time>2019-05-05T16:33:38Z</time>
      </trkpt>
      <trkpt lat="54.791707014665008" lon="8.856651987880468">
        <ele>-2.27</ele>
        <time>2019-05-05T16:33:39Z</time>
      </trkpt>
      <trkpt lat="54.791758982464671" lon="8.856589961796999">
        <ele>-2.27</ele>
        <time>2019-05-05T16:33:40Z</time>
      </trkpt>
      <trkpt lat="54.791758982464671" lon="8.85646197013557">
        <ele>-2.27</ele>
        <time>2019-05-05T16:33:41Z</time>
      </trkpt>
      <trkpt lat="54.791758982464671" lon="8.856374965980649">
        <ele>-2.27</ele>
        <time>2019-05-05T16:33:42Z</time>
      </trkpt>
      <trkpt lat="54.791687987744808" lon="8.856157958507538">
        <ele>-2.27</ele>
        <time>2019-05-05T16:33:43Z</time>
      </trkpt>
      <trkpt lat="54.791719000786543" lon="8.856014963239431">
        <ele>-2.27</ele>
        <time>2019-05-05T16:33:44Z</time>
      </trkpt>
      <trkpt lat="54.79175697080791" lon="8.855846989899874">
        <ele>-2.27</ele>
        <time>2019-05-05T16:33:45Z</time>
      </trkpt>
      <trkpt lat="54.79227002710104" lon="8.854039013385773">
        <ele>-2.75</ele>
        <time>2019-05-05T16:33:55Z</time>
      </trkpt>
      <trkpt lat="54.792346972972155" lon="8.853824017569423">
        <ele>-3.23</ele>
        <time>2019-05-05T16:33:57Z</time>
      </trkpt>
      <trkpt lat="54.79237899184227" lon="8.85373399592936">
        <ele>-3.71</ele>
        <time>2019-05-05T16:33:58Z</time>
      </trkpt>
      <trkpt lat="54.792408999055624" lon="8.853649003431201">
        <ele>-4.19</ele>
        <time>2019-05-05T16:33:59Z</time>
      </trkpt>
      <trkpt lat="54.792367005720735" lon="8.853507013991475">
        <ele>-4.19</ele>
        <time>2019-05-05T16:34:00Z</time>
      </trkpt>
      <trkpt lat="54.792320989072323" lon="8.853425038978458">
        <ele>-4.67</ele>
        <time>2019-05-05T16:34:01Z</time>
      </trkpt>
      <trkpt lat="54.792268015444279" lon="8.853329988196492">
        <ele>-5.15</ele>
        <time>2019-05-05T16:34:02Z</time>
      </trkpt>
      <trkpt lat="54.792221998795867" lon="8.853190010413528">
        <ele>-5.15</ele>
        <time>2019-05-05T16:34:03Z</time>
      </trkpt>
      <trkpt lat="54.792202971875668" lon="8.853032011538744">
        <ele>-5.63</ele>
        <time>2019-05-05T16:34:04Z</time>
      </trkpt>
      <trkpt lat="54.792187968268991" lon="8.852856997400522">
        <ele>-5.63</ele>
        <time>2019-05-05T16:34:05Z</time>
      </trkpt>
      <trkpt lat="54.792189979925752" lon="8.852663040161133">
        <ele>-6.11</ele>
        <time>2019-05-05T16:34:06Z</time>
      </trkpt>
      <trkpt lat="54.792190985754132" lon="8.852457012981176">
        <ele>-6.59</ele>
        <time>2019-05-05T16:34:07Z</time>
      </trkpt>
      <trkpt lat="54.792211018502712" lon="8.85010002180934">
        <ele>-4.67</ele>
        <time>2019-05-05T16:34:17Z</time>
      </trkpt>
      <trkpt lat="54.792230967432261" lon="8.847634987905622">
        <ele>-2.75</ele>
        <time>2019-05-05T16:34:28Z</time>
      </trkpt>
      <trkpt lat="54.792129965499043" lon="8.844934003427625">
        <ele>-3.71</ele>
        <time>2019-05-05T16:34:41Z</time>
      </trkpt>
      <trkpt lat="54.791908012703061" lon="8.84254097007215">
        <ele>-4.67</ele>
        <time>2019-05-05T16:34:52Z</time>
      </trkpt>
      <trkpt lat="54.791803993284702" lon="8.841415029019117">
        <ele>-6.11</ele>
        <time>2019-05-05T16:34:59Z</time>
      </trkpt>
      <trkpt lat="54.791795024648309" lon="8.841319978237152">
        <ele>-6.59</ele>
        <time>2019-05-05T16:35:00Z</time>
      </trkpt>
      <trkpt lat="54.791786978021264" lon="8.841230040416122">
        <ele>-6.11</ele>
        <time>2019-05-05T16:35:01Z</time>
      </trkpt>
      <trkpt lat="54.791841041296721" lon="8.841143036261201">
        <ele>-6.59</ele>
        <time>2019-05-05T16:35:02Z</time>
      </trkpt>
      <trkpt lat="54.791894014924765" lon="8.841126020997763">
        <ele>-6.59</ele>
        <time>2019-05-05T16:35:03Z</time>
      </trkpt>
      <trkpt lat="54.791955035179853" lon="8.841107999905944">
        <ele>-6.59</ele>
        <time>2019-05-05T16:35:04Z</time>
      </trkpt>
      <trkpt lat="54.792017983272672" lon="8.841087967157364">
        <ele>-6.59</ele>
        <time>2019-05-05T16:35:05Z</time>
      </trkpt>
      <trkpt lat="54.792083026841283" lon="8.841068018227816">
        <ele>-7.07</ele>
        <time>2019-05-05T16:35:06Z</time>
      </trkpt>
      <trkpt lat="54.792220992967486" lon="8.841025019064546">
        <ele>-7.55</ele>
        <time>2019-05-05T16:35:08Z</time>
      </trkpt>
      <trkpt lat="54.792360970750451" lon="8.840982019901276">
        <ele>-7.55</ele>
        <time>2019-05-05T16:35:10Z</time>
      </trkpt>
      <trkpt lat="54.792432971298695" lon="8.840982019901276">
        <ele>-8.029999999999999</ele>
        <time>2019-05-05T16:35:11Z</time>
      </trkpt>
      <trkpt lat="54.792688032612205" lon="8.841092996299267">
        <ele>-7.55</ele>
        <time>2019-05-05T16:35:15Z</time>
      </trkpt>
      <trkpt lat="54.792746035382152" lon="8.841118980199099">
        <ele>-7.55</ele>
        <time>2019-05-05T16:35:16Z</time>
      </trkpt>
      <trkpt lat="54.792794985696673" lon="8.841106994077563">
        <ele>-7.07</ele>
        <time>2019-05-05T16:35:17Z</time>
      </trkpt>
      <trkpt lat="54.792859023436904" lon="8.841090984642506">
        <ele>-7.07</ele>
        <time>2019-05-05T16:35:18Z</time>
      </trkpt>
      <trkpt lat="54.792922977358103" lon="8.841074975207448">
        <ele>-7.07</ele>
        <time>2019-05-05T16:35:19Z</time>
      </trkpt>
      <trkpt lat="54.793003024533391" lon="8.8410550262779">
        <ele>-6.59</ele>
        <time>2019-05-05T16:35:20Z</time>
      </trkpt>
      <trkpt lat="54.793034037575126" lon="8.840980008244515">
        <ele>-6.59</ele>
        <time>2019-05-05T16:35:21Z</time>
      </trkpt>
      <trkpt lat="54.793068990111351" lon="8.840897027403116">
        <ele>-6.59</ele>
        <time>2019-05-05T16:35:22Z</time>
      </trkpt>
      <trkpt lat="54.79311098344624" lon="8.84079703129828">
        <ele>-6.59</ele>
        <time>2019-05-05T16:35:23Z</time>
      </trkpt>
      <trkpt lat="54.793121041730046" lon="8.840710027143359">
        <ele>-6.11</ele>
        <time>2019-05-05T16:35:24Z</time>
      </trkpt>
      <trkpt lat="54.793146019801497" lon="8.840511040762067">
        <ele>-5.63</ele>
        <time>2019-05-05T16:35:26Z</time>
      </trkpt>
      <trkpt lat="54.793157000094652" lon="8.840418001636863">
        <ele>-5.15</ele>
        <time>2019-05-05T16:35:27Z</time>
      </trkpt>
      <trkpt lat="54.793167980387807" lon="8.84032697416842">
        <ele>-5.15</ele>
        <time>2019-05-05T16:35:28Z</time>
      </trkpt>
      <trkpt lat="54.793223971500993" lon="8.839869992807508">
        <ele>-3.71</ele>
        <time>2019-05-05T16:35:36Z</time>
      </trkpt>
      <trkpt lat="54.793440978974104" lon="8.839663965627551">
        <ele>-3.23</ele>
        <time>2019-05-05T16:35:40Z</time>
      </trkpt>
      <trkpt lat="54.793468974530697" lon="8.839677963405848">
        <ele>-3.23</ele>
        <time>2019-05-05T16:35:41Z</time>
      </trkpt>
      <trkpt lat="54.793501999229193" lon="8.839693972840905">
        <ele>-3.23</ele>
        <time>2019-05-05T16:35:42Z</time>
      </trkpt>
      <trkpt lat="54.793541980907321" lon="8.839715011417866">
        <ele>-3.23</ele>
        <time>2019-05-05T16:35:43Z</time>
      </trkpt>
      <trkpt lat="54.793585985898972" lon="8.839736972004175">
        <ele>-3.23</ele>
        <time>2019-05-05T16:35:44Z</time>
      </trkpt>
      <trkpt lat="54.793633008375764" lon="8.839760022237897">
        <ele>-3.23</ele>
        <time>2019-05-05T16:35:45Z</time>
      </trkpt>
      <trkpt lat="54.793885974213481" lon="8.839887008070946">
        <ele>-2.75</ele>
        <time>2019-05-05T16:35:50Z</time>
      </trkpt>
      <trkpt lat="54.793940037488937" lon="8.839912991970778">
        <ele>-2.75</ele>
        <time>2019-05-05T16:35:51Z</time>
      </trkpt>
      <trkpt lat="54.794040033593774" lon="8.839963031932712">
        <ele>-2.75</ele>
        <time>2019-05-05T16:35:53Z</time>
      </trkpt>
      <trkpt lat="54.794298028573394" lon="8.840092029422522">
        <ele>-1.79</ele>
        <time>2019-05-05T16:35:58Z</time>
      </trkpt>
      <trkpt lat="54.794346978887916" lon="8.840117007493973">
        <ele>-1.79</ele>
        <time>2019-05-05T16:35:59Z</time>
      </trkpt>
      <trkpt lat="54.794418979436159" lon="8.840152965858579">
        <ele>-1.79</ele>
        <time>2019-05-05T16:36:00Z</time>
      </trkpt>
      <trkpt lat="54.7944410238415" lon="8.840137040242553">
        <ele>-1.79</ele>
        <time>2019-05-05T16:36:01Z</time>
      </trkpt>
      <trkpt lat="54.794497014954686" lon="8.840094963088632">
        <ele>-1.79</ele>
        <time>2019-05-05T16:36:02Z</time>
      </trkpt>
      <trkpt lat="54.794590976089239" lon="8.840024974197149">
        <ele>-1.79</ele>
        <time>2019-05-05T16:36:04Z</time>
      </trkpt>
      <trkpt lat="54.794654008001089" lon="8.840057998895645">
        <ele>-2.27</ele>
        <time>2019-05-05T16:36:05Z</time>
      </trkpt>
      <trkpt lat="54.794700024649501" lon="8.840081971138716">
        <ele>-2.27</ele>
        <time>2019-05-05T16:36:06Z</time>
      </trkpt>
      <trkpt lat="54.794743023812771" lon="8.840105021372438">
        <ele>-2.27</ele>
        <time>2019-05-05T16:36:07Z</time>
      </trkpt>
      <trkpt lat="54.794786022976041" lon="8.840127987787128">
        <ele>-2.27</ele>
        <time>2019-05-05T16:36:08Z</time>
      </trkpt>
      <trkpt lat="54.794874032959342" lon="8.840174004435539">
        <ele>-1.79</ele>
        <time>2019-05-05T16:36:10Z</time>
      </trkpt>
      <trkpt lat="54.79495600797236" lon="8.84021800942719">
        <ele>-1.79</ele>
        <time>2019-05-05T16:36:11Z</time>
      </trkpt>
      <trkpt lat="54.794974029064178" lon="8.840257991105318">
        <ele>-1.79</ele>
        <time>2019-05-05T16:36:12Z</time>
      </trkpt>
      <trkpt lat="54.795004036277533" lon="8.840325968340039">
        <ele>-1.79</ele>
        <time>2019-05-05T16:36:13Z</time>
      </trkpt>
      <trkpt lat="54.7950420062989" lon="8.840410960838199">
        <ele>-2.27</ele>
        <time>2019-05-05T16:36:14Z</time>
      </trkpt>
      <trkpt lat="54.795083999633789" lon="8.84043401107192">
        <ele>-2.27</ele>
        <time>2019-05-05T16:36:15Z</time>
      </trkpt>
      <trkpt lat="54.795383987948298" lon="8.840598966926336">
        <ele>-2.27</ele>
        <time>2019-05-05T16:36:25Z</time>
      </trkpt>
    </trkseg>
  </trk>

  <trk>
    <name>Track vom: 2019-05-05 18:45</name>
    <extensions>
      <gpxx:TrackExtension>
        <gpxx:DisplayColor>DarkGray</gpxx:DisplayColor>
      </gpxx:TrackExtension>
    </extensions>
    <trkseg>
      <trkpt lat="54.795498987659812" lon="8.84043300524354">
        <ele>5.42</ele>
        <time>2019-05-05T16:45:23Z</time>
      </trkpt>
      <trkpt lat="54.795488007366657" lon="8.840556973591447">
        <ele>4.46</ele>
        <time>2019-05-05T16:45:48Z</time>
      </trkpt>
      <trkpt lat="54.795426987111568" lon="8.840507017448545">
        <ele>2.06</ele>
        <time>2019-05-05T16:45:58Z</time>
      </trkpt>
      <trkpt lat="54.795358004048467" lon="8.84058496914804">
        <ele>1.58</ele>
        <time>2019-05-05T16:46:01Z</time>
      </trkpt>
      <trkpt lat="54.795324979349971" lon="8.840567031875253">
        <ele>1.58</ele>
        <time>2019-05-05T16:46:02Z</time>
      </trkpt>
      <trkpt lat="54.795281980186701" lon="8.84054297581315">
        <ele>1.1</ele>
        <time>2019-05-05T16:46:03Z</time>
      </trkpt>
      <trkpt lat="54.795068996027112" lon="8.840425964444876">
        <ele>0.14</ele>
        <time>2019-05-05T16:46:07Z</time>
      </trkpt>
      <trkpt lat="54.795017028227448" lon="8.840354969725013">
        <ele>0.14</ele>
        <time>2019-05-05T16:46:08Z</time>
      </trkpt>
      <trkpt lat="54.794980986043811" lon="8.840275006368756">
        <ele>-0.34</ele>
        <time>2019-05-05T16:46:09Z</time>
      </trkpt>
      <trkpt lat="54.794933963567019" lon="8.840206023305655">
        <ele>-0.82</ele>
        <time>2019-05-05T16:46:10Z</time>
      </trkpt>
      <trkpt lat="54.794864980503917" lon="8.840168975293636">
        <ele>-0.82</ele>
        <time>2019-05-05T16:46:11Z</time>
      </trkpt>
      <trkpt lat="54.794798009097576" lon="8.840134022757411">
        <ele>-0.82</ele>
        <time>2019-05-05T16:46:12Z</time>
      </trkpt>
      <trkpt lat="54.794680997729301" lon="8.840071996673942">
        <ele>-1.3</ele>
        <time>2019-05-05T16:46:14Z</time>
      </trkpt>
      <trkpt lat="54.794622994959354" lon="8.840041989460588">
        <ele>-1.3</ele>
        <time>2019-05-05T16:46:15Z</time>
      </trkpt>
      <trkpt lat="54.794571027159691" lon="8.840038971975446">
        <ele>-1.79</ele>
        <time>2019-05-05T16:46:16Z</time>
      </trkpt>
      <trkpt lat="54.794517969712615" lon="8.840079037472606">
        <ele>-1.79</ele>
        <time>2019-05-05T16:46:17Z</time>
      </trkpt>
      <trkpt lat="54.794472036883235" lon="8.840113990008831">
        <ele>-2.27</ele>
        <time>2019-05-05T16:46:18Z</time>
      </trkpt>
      <trkpt lat="54.794427026063204" lon="8.840148020535708">
        <ele>-2.27</ele>
        <time>2019-05-05T16:46:19Z</time>
      </trkpt>
      <trkpt lat="54.794418979436159" lon="8.840152965858579">
        <ele>-2.27</ele>
        <time>2019-05-05T16:46:20Z</time>
      </trkpt>
      <trkpt lat="54.794313032180071" lon="8.840099992230535">
        <ele>-2.27</ele>
        <time>2019-05-05T16:46:21Z</time>
      </trkpt>
      <trkpt lat="54.794250000268221" lon="8.8400689791888">
        <ele>-2.75</ele>
        <time>2019-05-05T16:46:22Z</time>
      </trkpt>
      <trkpt lat="54.794175988063216" lon="8.840032014995813">
        <ele>-2.75</ele>
        <time>2019-05-05T16:46:23Z</time>
      </trkpt>
      <trkpt lat="54.793915981426835" lon="8.839902011677623">
        <ele>-3.71</ele>
        <time>2019-05-05T16:46:26Z</time>
      </trkpt>
      <trkpt lat="54.793836018070579" lon="8.839862029999495">
        <ele>-4.19</ele>
        <time>2019-05-05T16:46:27Z</time>
      </trkpt>
      <trkpt lat="54.793361015617847" lon="8.839623983949423">
        <ele>-4.67</ele>
        <time>2019-05-05T16:46:34Z</time>
      </trkpt>
      <trkpt lat="54.793249033391476" lon="8.839671006426215">
        <ele>-4.19</ele>
        <time>2019-05-05T16:46:35Z</time>
      </trkpt>
      <trkpt lat="54.793236963450909" lon="8.839765973389149">
        <ele>-4.19</ele>
        <time>2019-05-05T16:46:36Z</time>
      </trkpt>
      <trkpt lat="54.793220032006502" lon="8.839907962828875">
        <ele>-4.19</ele>
        <time>2019-05-05T16:46:37Z</time>
      </trkpt>
      <trkpt lat="54.793197987601161" lon="8.840081971138716">
        <ele>-3.71</ele>
        <time>2019-05-05T16:46:38Z</time>
      </trkpt>
      <trkpt lat="54.793175021186471" lon="8.840274000540376">
        <ele>-3.71</ele>
        <time>2019-05-05T16:46:39Z</time>
      </trkpt>
      <trkpt lat="54.793150965124369" lon="8.840467035770416">
        <ele>-3.71</ele>
        <time>2019-05-05T16:46:40Z</time>
      </trkpt>
      <trkpt lat="54.793049963191152" lon="8.840942960232496">
        <ele>-3.23</ele>
        <time>2019-05-05T16:46:43Z</time>
      </trkpt>
      <trkpt lat="54.793006964027882" lon="8.841044967994094">
        <ele>-2.75</ele>
        <time>2019-05-05T16:46:44Z</time>
      </trkpt>
      <trkpt lat="54.792936975136399" lon="8.841071035712957">
        <ele>-2.75</ele>
        <time>2019-05-05T16:46:45Z</time>
      </trkpt>
      <trkpt lat="54.792866986244917" lon="8.841087967157364">
        <ele>-2.27</ele>
        <time>2019-05-05T16:46:46Z</time>
      </trkpt>
      <trkpt lat="54.792792974039912" lon="8.841106994077563">
        <ele>-2.75</ele>
        <time>2019-05-05T16:46:47Z</time>
      </trkpt>
      <trkpt lat="54.79272298514843" lon="8.841109005734325">
        <ele>-3.23</ele>
        <time>2019-05-05T16:46:48Z</time>
      </trkpt>
      <trkpt lat="54.792638998478651" lon="8.841072041541338">
        <ele>-3.23</ele>
        <time>2019-05-05T16:46:49Z</time>
      </trkpt>
      <trkpt lat="54.792546965181828" lon="8.841031976044178">
        <ele>-3.23</ele>
        <time>2019-05-05T16:46:50Z</time>
      </trkpt>
      <trkpt lat="54.792450992390513" lon="8.840989982709289">
        <ele>-2.75</ele>
        <time>2019-05-05T16:46:51Z</time>
      </trkpt>
      <trkpt lat="54.792342027649283" lon="8.840986965224147">
        <ele>-2.75</ele>
        <time>2019-05-05T16:46:52Z</time>
      </trkpt>
      <trkpt lat="54.792233984917402" lon="8.841020995751023">
        <ele>-2.27</ele>
        <time>2019-05-05T16:46:53Z</time>
      </trkpt>
      <trkpt lat="54.792122002691031" lon="8.8410550262779">
        <ele>-2.27</ele>
        <time>2019-05-05T16:46:54Z</time>
      </trkpt>
      <trkpt lat="54.791826959699392" lon="8.841146975755692">
        <ele>-2.27</ele>
        <time>2019-05-05T16:46:59Z</time>
      </trkpt>
      <trkpt lat="54.791807010769844" lon="8.841153010725975">
        <ele>-2.75</ele>
        <time>2019-05-05T16:47:00Z</time>
      </trkpt>
      <trkpt lat="54.791783960536122" lon="8.84120799601078">
        <ele>-2.75</ele>
        <time>2019-05-05T16:47:01Z</time>
      </trkpt>
      <trkpt lat="54.791793012991548" lon="8.841302962973714">
        <ele>-2.75</ele>
        <time>2019-05-05T16:47:02Z</time>
      </trkpt>
      <trkpt lat="54.791803993284702" lon="8.84142198599875">
        <ele>-2.75</ele>
        <time>2019-05-05T16:47:03Z</time>
      </trkpt>
      <trkpt lat="54.791816985234618" lon="8.841561041772366">
        <ele>-3.23</ele>
        <time>2019-05-05T16:47:04Z</time>
      </trkpt>
      <trkpt lat="54.791941037401557" lon="8.842897033318877">
        <ele>-5.15</ele>
        <time>2019-05-05T16:47:10Z</time>
      </trkpt>
      <trkpt lat="54.792139017954469" lon="8.845039028674364">
        <ele>-5.15</ele>
        <time>2019-05-05T16:47:19Z</time>
      </trkpt>
      <trkpt lat="54.792178999632597" lon="8.845469020307064">
        <ele>-4.67</ele>
        <time>2019-05-05T16:47:25Z</time>
      </trkpt>
      <trkpt lat="54.792183022946119" lon="8.845514031127095">
        <ele>-4.67</ele>
        <time>2019-05-05T16:47:26Z</time>
      </trkpt>
      <trkpt lat="54.792203977704048" lon="8.84556801058352">
        <ele>-4.67</ele>
        <time>2019-05-05T16:47:27Z</time>
      </trkpt>
      <trkpt lat="54.792252006009221" lon="8.845591982826591">
        <ele>-4.19</ele>
        <time>2019-05-05T16:47:28Z</time>
      </trkpt>
      <trkpt lat="54.79289498180151" lon="8.845914015546441">
        <ele>-4.19</ele>
        <time>2019-05-05T16:47:35Z</time>
      </trkpt>
      <trkpt lat="54.794029975309968" lon="8.846624968573451">
        <ele>-4.67</ele>
        <time>2019-05-05T16:47:45Z</time>
      </trkpt>
      <trkpt lat="54.794256035238504" lon="8.846751032397151">
        <ele>-4.67</ele>
        <time>2019-05-05T16:47:51Z</time>
      </trkpt>
      <trkpt lat="54.794276989996433" lon="8.846763018518686">
        <ele>-4.67</ele>
        <time>2019-05-05T16:47:54Z</time>
      </trkpt>
      <trkpt lat="54.794314038008451" lon="8.846955969929695">
        <ele>-4.19</ele>
        <time>2019-05-05T16:47:55Z</time>
      </trkpt>
      <trkpt lat="54.794295011088252" lon="8.847024030983448">
        <ele>-4.19</ele>
        <time>2019-05-05T16:47:56Z</time>
      </trkpt>
      <trkpt lat="54.794266009703279" lon="8.847129978239536">
        <ele>-4.19</ele>
        <time>2019-05-05T16:47:57Z</time>
      </trkpt>
      <trkpt lat="54.794229967519641" lon="8.84726501069963">
        <ele>-4.19</ele>
        <time>2019-05-05T16:47:58Z</time>
      </trkpt>
      <trkpt lat="54.794186968356371" lon="8.847420997917652">
        <ele>-4.67</ele>
        <time>2019-05-05T16:47:59Z</time>
      </trkpt>
      <trkpt lat="54.793748008087277" lon="8.84902898222208">
        <ele>-5.15</ele>
        <time>2019-05-05T16:48:06Z</time>
      </trkpt>
      <trkpt lat="54.792963964864612" lon="8.851898023858666">
        <ele>-3.71</ele>
        <time>2019-05-05T16:48:15Z</time>
      </trkpt>
      <trkpt lat="54.792325012385845" lon="8.853884031996131">
        <ele>-3.23</ele>
        <time>2019-05-05T16:48:22Z</time>
      </trkpt>
      <trkpt lat="54.791791001334786" lon="8.855691002681851">
        <ele>-2.75</ele>
        <time>2019-05-05T16:48:30Z</time>
      </trkpt>
      <trkpt lat="54.791715983301401" lon="8.856029966846108">
        <ele>-2.27</ele>
        <time>2019-05-05T16:48:32Z</time>
      </trkpt>
      <trkpt lat="54.791692011058331" lon="8.856141027063131">
        <ele>-1.79</ele>
        <time>2019-05-05T16:48:33Z</time>
      </trkpt>
      <trkpt lat="54.791593020781875" lon="8.856209004297853">
        <ele>-1.79</ele>
        <time>2019-05-05T16:48:34Z</time>
      </trkpt>
      <trkpt lat="54.791566031053662" lon="8.85620397515595">
        <ele>-2.27</ele>
        <time>2019-05-05T16:48:35Z</time>
      </trkpt>
      <trkpt lat="54.791399985551834" lon="8.856326015666127">
        <ele>-2.27</ele>
        <time>2019-05-05T16:48:36Z</time>
      </trkpt>
      <trkpt lat="54.791297977790236" lon="8.856262983754277">
        <ele>-2.75</ele>
        <time>2019-05-05T16:48:37Z</time>
      </trkpt>
      <trkpt lat="54.791178032755852" lon="8.856199029833078">
        <ele>-2.75</ele>
        <time>2019-05-05T16:48:38Z</time>
      </trkpt>
      <trkpt lat="54.790198020637035" lon="8.855868028476834">
        <ele>-6.11</ele>
        <time>2019-05-05T16:48:44Z</time>
      </trkpt>
      <trkpt lat="54.788217041641474" lon="8.855779012665153">
        <ele>-9.48</ele>
        <time>2019-05-05T16:48:54Z</time>
      </trkpt>
      <trkpt lat="54.785758964717388" lon="8.855717992410064">
        <ele>-7.55</ele>
        <time>2019-05-05T16:49:05Z</time>
      </trkpt>
      <trkpt lat="54.782979022711515" lon="8.855681028217077">
        <ele>-6.11</ele>
        <time>2019-05-05T16:49:17Z</time>
      </trkpt>
      <trkpt lat="54.781944025307894" lon="8.855600981041789">
        <ele>-4.67</ele>
        <time>2019-05-05T16:49:23Z</time>
      </trkpt>
      <trkpt lat="54.781830031424761" lon="8.855521017685533">
        <ele>-4.67</ele>
        <time>2019-05-05T16:49:24Z</time>
      </trkpt>
      <trkpt lat="54.781730035319924" lon="8.85545102879405">
        <ele>-4.67</ele>
        <time>2019-05-05T16:49:25Z</time>
      </trkpt>
      <trkpt lat="54.781643031165004" lon="8.855391014367342">
        <ele>-4.67</ele>
        <time>2019-05-05T16:49:26Z</time>
      </trkpt>
      <trkpt lat="54.781586034223437" lon="8.85530199855566">
        <ele>-4.67</ele>
        <time>2019-05-05T16:49:27Z</time>
      </trkpt>
      <trkpt lat="54.781544962897897" lon="8.855188004672527">
        <ele>-4.67</ele>
        <time>2019-05-05T16:49:28Z</time>
      </trkpt>
      <trkpt lat="54.781500035896897" lon="8.855053978040814">
        <ele>-4.67</ele>
        <time>2019-05-05T16:49:29Z</time>
      </trkpt>
      <trkpt lat="54.781480003148317" lon="8.854888016358018">
        <ele>-4.19</ele>
        <time>2019-05-05T16:49:30Z</time>
      </trkpt>
      <trkpt lat="54.781457036733627" lon="8.854704033583403">
        <ele>-4.19</ele>
        <time>2019-05-05T16:49:31Z</time>
      </trkpt>
      <trkpt lat="54.781406996771693" lon="8.852535970509052">
        <ele>-3.23</ele>
        <time>2019-05-05T16:49:40Z</time>
      </trkpt>
      <trkpt lat="54.78122896514833" lon="8.85012399405241">
        <ele>-2.75</ele>
        <time>2019-05-05T16:49:49Z</time>
      </trkpt>
      <trkpt lat="54.780866028741002" lon="8.847831962630153">
        <ele>-2.27</ele>
        <time>2019-05-05T16:49:58Z</time>
      </trkpt>
      <trkpt lat="54.780807020142674" lon="8.847455028444529">
        <ele>-1.79</ele>
        <time>2019-05-05T16:50:00Z</time>
      </trkpt>
      <trkpt lat="54.780786987394094" lon="8.847314966842532">
        <ele>-1.79</ele>
        <time>2019-05-05T16:50:01Z</time>
      </trkpt>
      <trkpt lat="54.780880026519299" lon="8.847063006833196">
        <ele>-1.3</ele>
        <time>2019-05-05T16:50:02Z</time>
      </trkpt>
      <trkpt lat="54.780882960185409" lon="8.847025036811829">
        <ele>-1.3</ele>
        <time>2019-05-05T16:50:03Z</time>
      </trkpt>
      <trkpt lat="54.780899975448847" lon="8.84685899131">
        <ele>-0.82</ele>
        <time>2019-05-05T16:50:04Z</time>
      </trkpt>
      <trkpt lat="54.780900981277227" lon="8.846848011016846">
        <ele>-0.82</ele>
        <time>2019-05-05T16:50:05Z</time>
      </trkpt>
      <trkpt lat="54.780898969620466" lon="8.846465963870287">
        <ele>-0.34</ele>
        <time>2019-05-05T16:50:06Z</time>
      </trkpt>
      <trkpt lat="54.78097197599709" lon="8.84632003493607">
        <ele>-0.34</ele>
        <time>2019-05-05T16:50:07Z</time>
      </trkpt>
      <trkpt lat="54.781029978767037" lon="8.846139991655946">
        <ele>-0.34</ele>
        <time>2019-05-05T16:50:08Z</time>
      </trkpt>
      <trkpt lat="54.781069960445166" lon="8.845937987789512">
        <ele>-0.82</ele>
        <time>2019-05-05T16:50:09Z</time>
      </trkpt>
      <trkpt lat="54.781058980152011" lon="8.845725003629923">
        <ele>-0.82</ele>
        <time>2019-05-05T16:50:10Z</time>
      </trkpt>
      <trkpt lat="54.781028972938657" lon="8.84552501142025">
        <ele>-1.3</ele>
        <time>2019-05-05T16:50:11Z</time>
      </trkpt>
      <trkpt lat="54.780983040109277" lon="8.845323007553816">
        <ele>-1.3</ele>
        <time>2019-05-05T16:50:12Z</time>
      </trkpt>
      <trkpt lat="54.780936017632484" lon="8.845129972323775">
        <ele>-1.79</ele>
        <time>2019-05-05T16:50:13Z</time>
      </trkpt>
      <trkpt lat="54.780879020690918" lon="8.844956969842315">
        <ele>-1.79</ele>
        <time>2019-05-05T16:50:14Z</time>
      </trkpt>
      <trkpt lat="54.780714986845851" lon="8.844492025673389">
        <ele>-2.75</ele>
        <time>2019-05-05T16:50:18Z</time>
      </trkpt>
      <trkpt lat="54.780598981305957" lon="8.844231013208628">
        <ele>-5.63</ele>
        <time>2019-05-05T16:50:23Z</time>
      </trkpt>
      <trkpt lat="54.780579032376409" lon="8.844187008216977">
        <ele>-5.63</ele>
        <time>2019-05-05T16:50:24Z</time>
      </trkpt>
      <trkpt lat="54.780577020719647" lon="8.844138979911804">
        <ele>-6.11</ele>
        <time>2019-05-05T16:50:25Z</time>
      </trkpt>
      <trkpt lat="54.780575009062886" lon="8.844080977141857">
        <ele>-7.07</ele>
        <time>2019-05-05T16:50:26Z</time>
      </trkpt>
      <trkpt lat="54.780571991577744" lon="8.84402297437191">
        <ele>-7.07</ele>
        <time>2019-05-05T16:50:27Z</time>
      </trkpt>
      <trkpt lat="54.780568974092603" lon="8.843960026279092">
        <ele>-7.55</ele>
        <time>2019-05-05T16:50:28Z</time>
      </trkpt>
      <trkpt lat="54.780566962435842" lon="8.843898000195622">
        <ele>-8.029999999999999</ele>
        <time>2019-05-05T16:50:29Z</time>
      </trkpt>
      <trkpt lat="54.780548019334674" lon="8.843474965542555">
        <ele>-8.51</ele>
        <time>2019-05-05T16:50:37Z</time>
      </trkpt>
      <trkpt lat="54.780543996021152" lon="8.843387961387634">
        <ele>-8.51</ele>
        <time>2019-05-05T16:50:38Z</time>
      </trkpt>
      <trkpt lat="54.780539972707629" lon="8.843289976939559">
        <ele>-8.51</ele>
        <time>2019-05-05T16:50:39Z</time>
      </trkpt>
      <trkpt lat="54.780535027384758" lon="8.843191992491484">
        <ele>-8.51</ele>
        <time>2019-05-05T16:50:40Z</time>
      </trkpt>
      <trkpt lat="54.780531004071236" lon="8.843103982508183">
        <ele>-8.51</ele>
        <time>2019-05-05T16:50:41Z</time>
      </trkpt>
      <trkpt lat="54.780482975766063" lon="8.842011988162994">
        <ele>-7.55</ele>
        <time>2019-05-05T16:50:53Z</time>
      </trkpt>
      <trkpt lat="54.780477024614811" lon="8.841865975409746">
        <ele>-7.07</ele>
        <time>2019-05-05T16:51:01Z</time>
      </trkpt>
      <trkpt lat="54.780367976054549" lon="8.841903023421764">
        <ele>-4.19</ele>
        <time>2019-05-05T16:57:10Z</time>
      </trkpt>
      <trkpt lat="54.780416004359722" lon="8.841819958761334">
        <ele>-1.3</ele>
        <time>2019-05-05T16:57:18Z</time>
      </trkpt>
      <trkpt lat="54.780471995472908" lon="8.841762961819768">
        <ele>-0.82</ele>
        <time>2019-05-05T16:57:20Z</time>
      </trkpt>
      <trkpt lat="54.780471995472908" lon="8.841762961819768">
        <ele>-0.82</ele>
        <time>2019-05-05T16:57:21Z</time>
      </trkpt>
      <trkpt lat="54.780471995472908" lon="8.841762961819768">
        <ele>-0.82</ele>
        <time>2019-05-05T16:57:22Z</time>
      </trkpt>
      <trkpt lat="54.780471995472908" lon="8.841762961819768">
        <ele>-1.3</ele>
        <time>2019-05-05T16:57:23Z</time>
      </trkpt>
      <trkpt lat="54.780471995472908" lon="8.841762961819768">
        <ele>-1.3</ele>
        <time>2019-05-05T16:57:24Z</time>
      </trkpt>
      <trkpt lat="54.780299998819828" lon="8.841604040935636">
        <ele>-2.27</ele>
        <time>2019-05-05T16:57:26Z</time>
      </trkpt>
      <trkpt lat="54.780112998560071" lon="8.841575039550662">
        <ele>-3.23</ele>
        <time>2019-05-05T16:57:32Z</time>
      </trkpt>
      <trkpt lat="54.780101012438536" lon="8.84152801707387">
        <ele>-3.71</ele>
        <time>2019-05-05T16:57:33Z</time>
      </trkpt>
      <trkpt lat="54.780083997175097" lon="8.841460961848497">
        <ele>-3.71</ele>
        <time>2019-05-05T16:57:34Z</time>
      </trkpt>
      <trkpt lat="54.780062958598137" lon="8.841383010149002">
        <ele>-3.71</ele>
        <time>2019-05-05T16:57:35Z</time>
      </trkpt>
      <trkpt lat="54.780043009668589" lon="8.841306986287236">
        <ele>-4.19</ele>
        <time>2019-05-05T16:57:36Z</time>
      </trkpt>
      <trkpt lat="54.780027000233531" lon="8.841244038194418">
        <ele>-4.19</ele>
        <time>2019-05-05T16:57:37Z</time>
      </trkpt>
      <trkpt lat="54.77993999607861" lon="8.841222999617457">
        <ele>-4.67</ele>
        <time>2019-05-05T16:57:38Z</time>
      </trkpt>
      <trkpt lat="54.779910994693637" lon="8.841263987123966">
        <ele>-5.15</ele>
        <time>2019-05-05T16:57:39Z</time>
      </trkpt>
      <trkpt lat="54.779869001358747" lon="8.841321989893913">
        <ele>-5.15</ele>
        <time>2019-05-05T16:57:40Z</time>
      </trkpt>
      <trkpt lat="54.779815021902323" lon="8.841397007927299">
        <ele>-5.63</ele>
        <time>2019-05-05T16:57:41Z</time>
      </trkpt>
      <trkpt lat="54.779752995818853" lon="8.841483006253839">
        <ele>-5.63</ele>
        <time>2019-05-05T16:57:42Z</time>
      </trkpt>
      <trkpt lat="54.779300037771463" lon="8.842112990096211">
        <ele>-4.19</ele>
        <time>2019-05-05T16:57:51Z</time>
      </trkpt>
      <trkpt lat="54.779263995587826" lon="8.842162024229765">
        <ele>-3.71</ele>
        <time>2019-05-05T16:57:52Z</time>
      </trkpt>
      <trkpt lat="54.779227031394839" lon="8.842212986201048">
        <ele>-3.71</ele>
        <time>2019-05-05T16:57:53Z</time>
      </trkpt>
      <trkpt lat="54.779215967282653" lon="8.842265037819743">
        <ele>-3.71</ele>
        <time>2019-05-05T16:57:54Z</time>
      </trkpt>
      <trkpt lat="54.779201969504356" lon="8.842334020882845">
        <ele>-3.71</ele>
        <time>2019-05-05T16:57:55Z</time>
      </trkpt>
    </trkseg>
  </trk>

  <trk>
    <name>Track vom: 2019-05-05 18:57</name>
    <extensions>
      <gpxx:TrackExtension>
        <gpxx:DisplayColor>DarkGray</gpxx:DisplayColor>
      </gpxx:TrackExtension>
    </extensions>
    <trkseg>
      <trkpt lat="54.779186965897679" lon="8.842399986460805">
        <ele>-3.23</ele>
        <time>2019-05-05T16:57:56Z</time>
      </trkpt>
      <trkpt lat="54.779172968119383" lon="8.842468969523907">
        <ele>-3.23</ele>
        <time>2019-05-05T16:57:57Z</time>
      </trkpt>
      <trkpt lat="54.779171962291002" lon="8.842553962022066">
        <ele>-2.75</ele>
        <time>2019-05-05T16:57:58Z</time>
      </trkpt>
      <trkpt lat="54.77918897755444" lon="8.842631997540593">
        <ele>-2.75</ele>
        <time>2019-05-05T16:57:59Z</time>
      </trkpt>
      <trkpt lat="54.779211021959782" lon="8.842734005302191">
        <ele>-2.75</ele>
        <time>2019-05-05T16:58:00Z</time>
      </trkpt>
      <trkpt lat="54.779433980584145" lon="8.84374100714922">
        <ele>-2.27</ele>
        <time>2019-05-05T16:58:06Z</time>
      </trkpt>
      <trkpt lat="54.779901020228863" lon="8.845871016383171">
        <ele>-4.19</ele>
        <time>2019-05-05T16:58:17Z</time>
      </trkpt>
      <trkpt lat="54.780013002455235" lon="8.846379965543747">
        <ele>-4.19</ele>
        <time>2019-05-05T16:58:20Z</time>
      </trkpt>
      <trkpt lat="54.780080979689956" lon="8.846499994397163">
        <ele>-4.19</ele>
        <time>2019-05-05T16:58:21Z</time>
      </trkpt>
      <trkpt lat="54.780157003551722" lon="8.846606025472283">
        <ele>-4.19</ele>
        <time>2019-05-05T16:58:22Z</time>
      </trkpt>
      <trkpt lat="54.78023998439312" lon="8.846680037677288">
        <ele>-3.71</ele>
        <time>2019-05-05T16:58:23Z</time>
      </trkpt>
      <trkpt lat="54.780322965234518" lon="8.846723958849907">
        <ele>-3.71</ele>
        <time>2019-05-05T16:58:24Z</time>
      </trkpt>
      <trkpt lat="54.78038901463151" lon="8.846760001033545">
        <ele>-3.71</ele>
        <time>2019-05-05T16:58:25Z</time>
      </trkpt>
      <trkpt lat="54.780528992414474" lon="8.846891010180116">
        <ele>-3.71</ele>
        <time>2019-05-05T16:58:29Z</time>
      </trkpt>
      <trkpt lat="54.780548019334674" lon="8.846982037648559">
        <ele>-3.71</ele>
        <time>2019-05-05T16:58:30Z</time>
      </trkpt>
      <trkpt lat="54.780569979920983" lon="8.847084967419505">
        <ele>-3.71</ele>
        <time>2019-05-05T16:58:31Z</time>
      </trkpt>
      <trkpt lat="54.780641980469227" lon="8.847155040130019">
        <ele>-3.71</ele>
        <time>2019-05-05T16:58:32Z</time>
      </trkpt>
      <trkpt lat="54.780700989067554" lon="8.847181024029851">
        <ele>-3.71</ele>
        <time>2019-05-05T16:58:33Z</time>
      </trkpt>
      <trkpt lat="54.78075698018074" lon="8.847206002101302">
        <ele>-3.71</ele>
        <time>2019-05-05T16:58:34Z</time>
      </trkpt>
      <trkpt lat="54.780811965465546" lon="8.847157973796129">
        <ele>-3.71</ele>
        <time>2019-05-05T16:58:35Z</time>
      </trkpt>
      <trkpt lat="54.780859993770719" lon="8.847089996561408">
        <ele>-3.23</ele>
        <time>2019-05-05T16:58:36Z</time>
      </trkpt>
      <trkpt lat="54.78088597767055" lon="8.846995029598475">
        <ele>-3.23</ele>
        <time>2019-05-05T16:58:37Z</time>
      </trkpt>
      <trkpt lat="54.780897963792086" lon="8.846881035715342">
        <ele>-3.23</ele>
        <time>2019-05-05T16:58:38Z</time>
      </trkpt>
      <trkpt lat="54.780883966013789" lon="8.846780033782125">
        <ele>-3.23</ele>
        <time>2019-05-05T16:58:39Z</time>
      </trkpt>
      <trkpt lat="54.780856976285577" lon="8.846669979393482">
        <ele>-3.23</ele>
        <time>2019-05-05T16:58:40Z</time>
      </trkpt>
      <trkpt lat="54.780800985172391" lon="8.846582975238562">
        <ele>-3.23</ele>
        <time>2019-05-05T16:58:41Z</time>
      </trkpt>
      <trkpt lat="54.780727978795767" lon="8.846565959975123">
        <ele>-3.71</ele>
        <time>2019-05-05T16:58:42Z</time>
      </trkpt>
      <trkpt lat="54.780620019882917" lon="8.846435034647584">
        <ele>-3.71</ele>
        <time>2019-05-05T16:58:43Z</time>
      </trkpt>
      <trkpt lat="54.780585989356041" lon="8.84627602994442">
        <ele>-3.71</ele>
        <time>2019-05-05T16:58:44Z</time>
      </trkpt>
      <trkpt lat="54.780549025163054" lon="8.846095986664295">
        <ele>-3.71</ele>
        <time>2019-05-05T16:58:45Z</time>
      </trkpt>
      <trkpt lat="54.780168989673257" lon="8.844388006255031">
        <ele>-2.75</ele>
        <time>2019-05-05T16:58:52Z</time>
      </trkpt>
      <trkpt lat="54.779333984479308" lon="8.841060977429152">
        <ele>-0.34</ele>
        <time>2019-05-05T16:59:03Z</time>
      </trkpt>
      <trkpt lat="54.778895024210215" lon="8.839176977053285">
        <ele>-1.3</ele>
        <time>2019-05-05T16:59:09Z</time>
      </trkpt>
      <trkpt lat="54.778844984248281" lon="8.838847987353802">
        <ele>-1.79</ele>
        <time>2019-05-05T16:59:10Z</time>
      </trkpt>
      <trkpt lat="54.778830986469984" lon="8.838531989604235">
        <ele>-2.75</ele>
        <time>2019-05-05T16:59:11Z</time>
      </trkpt>
      <trkpt lat="54.778820006176829" lon="8.838229989632964">
        <ele>-3.23</ele>
        <time>2019-05-05T16:59:12Z</time>
      </trkpt>
      <trkpt lat="54.778810031712055" lon="8.837939975783229">
        <ele>-4.19</ele>
        <time>2019-05-05T16:59:13Z</time>
      </trkpt>
      <trkpt lat="54.77880097925663" lon="8.837663037702441">
        <ele>-4.67</ele>
        <time>2019-05-05T16:59:14Z</time>
      </trkpt>
      <trkpt lat="54.778823023661971" lon="8.837401019409299">
        <ele>-5.15</ele>
        <time>2019-05-05T16:59:15Z</time>
      </trkpt>
      <trkpt lat="54.778854958713055" lon="8.837148975580931">
        <ele>-5.63</ele>
        <time>2019-05-05T16:59:16Z</time>
      </trkpt>
      <trkpt lat="54.778884965926409" lon="8.836901960894465">
        <ele>-5.63</ele>
        <time>2019-05-05T16:59:17Z</time>
      </trkpt>
      <trkpt lat="54.778920002281666" lon="8.836663998663425">
        <ele>-6.11</ele>
        <time>2019-05-05T16:59:18Z</time>
      </trkpt>
      <trkpt lat="54.779415037482977" lon="8.834858033806086">
        <ele>-6.11</ele>
        <time>2019-05-05T16:59:27Z</time>
      </trkpt>
      <trkpt lat="54.779691975563765" lon="8.834016993641853">
        <ele>-6.11</ele>
        <time>2019-05-05T16:59:33Z</time>
      </trkpt>
      <trkpt lat="54.779849974438548" lon="8.833973994478583">
        <ele>-6.11</ele>
        <time>2019-05-05T16:59:34Z</time>
      </trkpt>
      <trkpt lat="54.779849974438548" lon="8.833973994478583">
        <ele>-6.59</ele>
        <time>2019-05-05T16:59:35Z</time>
      </trkpt>
      <trkpt lat="54.779888028278947" lon="8.8339230325073">
        <ele>-6.59</ele>
        <time>2019-05-05T16:59:36Z</time>
      </trkpt>
      <trkpt lat="54.779933039098978" lon="8.833863018080592">
        <ele>-6.59</ele>
        <time>2019-05-05T16:59:37Z</time>
      </trkpt>
      <trkpt lat="54.779977966099977" lon="8.833740977570415">
        <ele>-6.59</ele>
        <time>2019-05-05T16:59:38Z</time>
      </trkpt>
      <trkpt lat="54.779977966099977" lon="8.833631007000804">
        <ele>-6.59</ele>
        <time>2019-05-05T16:59:39Z</time>
      </trkpt>
      <trkpt lat="54.779977966099977" lon="8.833630001172423">
        <ele>-6.11</ele>
        <time>2019-05-05T16:59:40Z</time>
      </trkpt>
      <trkpt lat="54.779935972765088" lon="8.833349961787462">
        <ele>-6.11</ele>
        <time>2019-05-05T16:59:41Z</time>
      </trkpt>
      <trkpt lat="54.779976960271597" lon="8.833230016753078">
        <ele>-6.11</ele>
        <time>2019-05-05T16:59:42Z</time>
      </trkpt>
      <trkpt lat="54.780023982748389" lon="8.833091966807842">
        <ele>-6.11</ele>
        <time>2019-05-05T16:59:43Z</time>
      </trkpt>
      <trkpt lat="54.78060501627624" lon="8.831391027197242">
        <ele>-5.63</ele>
        <time>2019-05-05T16:59:52Z</time>
      </trkpt>
      <trkpt lat="54.78116400539875" lon="8.829797962680459">
        <ele>-5.15</ele>
        <time>2019-05-05T17:00:01Z</time>
      </trkpt>
      <trkpt lat="54.781264001503587" lon="8.829512977972627">
        <ele>-4.19</ele>
        <time>2019-05-05T17:00:04Z</time>
      </trkpt>
      <trkpt lat="54.781286967918277" lon="8.829446006566286">
        <ele>-4.19</ele>
        <time>2019-05-05T17:00:05Z</time>
      </trkpt>
      <trkpt lat="54.781357040628791" lon="8.829343998804689">
        <ele>-3.71</ele>
        <time>2019-05-05T17:00:06Z</time>
      </trkpt>
      <trkpt lat="54.781438009813428" lon="8.829360008239746">
        <ele>-3.23</ele>
        <time>2019-05-05T17:00:08Z</time>
      </trkpt>
      <trkpt lat="54.781438009813428" lon="8.829360008239746">
        <ele>-2.75</ele>
        <time>2019-05-05T17:00:09Z</time>
      </trkpt>
      <trkpt lat="54.781588967889547" lon="8.829322038218379">
        <ele>-2.27</ele>
        <time>2019-05-05T17:00:10Z</time>
      </trkpt>
      <trkpt lat="54.781648982316256" lon="8.829385992139578">
        <ele>-2.27</ele>
        <time>2019-05-05T17:00:11Z</time>
      </trkpt>
      <trkpt lat="54.781714025884867" lon="8.82945598103106">
        <ele>-1.79</ele>
        <time>2019-05-05T17:00:12Z</time>
      </trkpt>
      <trkpt lat="54.782651960849762" lon="8.830359969288111">
        <ele>0.62</ele>
        <time>2019-05-05T17:00:25Z</time>
      </trkpt>
      <trkpt lat="54.783643037080765" lon="8.831399995833635">
        <ele>3.02</ele>
        <time>2019-05-05T17:00:39Z</time>
      </trkpt>
      <trkpt lat="54.783709002658725" lon="8.831519018858671">
        <ele>2.54</ele>
        <time>2019-05-05T17:00:40Z</time>
      </trkpt>
      <trkpt lat="54.783797012642026" lon="8.831788999959827">
        <ele>1.58</ele>
        <time>2019-05-05T17:00:42Z</time>
      </trkpt>
      <trkpt lat="54.784434037283063" lon="8.83364399895072">
        <ele>-1.79</ele>
        <time>2019-05-05T17:00:54Z</time>
      </trkpt>
      <trkpt lat="54.784845001995564" lon="8.834344977512956">
        <ele>-3.23</ele>
        <time>2019-05-05T17:01:00Z</time>
      </trkpt>
      <trkpt lat="54.784894036129117" lon="8.834414966404438">
        <ele>-3.23</ele>
        <time>2019-05-05T17:01:01Z</time>
      </trkpt>
      <trkpt lat="54.784928988665342" lon="8.834465006366372">
        <ele>-3.71</ele>
        <time>2019-05-05T17:01:02Z</time>
      </trkpt>
      <trkpt lat="54.784951033070683" lon="8.834496019408107">
        <ele>-3.71</ele>
        <time>2019-05-05T17:01:03Z</time>
      </trkpt>
      <trkpt lat="54.785021021962166" lon="8.834596015512943">
        <ele>-3.71</ele>
        <time>2019-05-05T17:01:04Z</time>
      </trkpt>
      <trkpt lat="54.785021021962166" lon="8.834596015512943">
        <ele>-4.19</ele>
        <time>2019-05-05T17:01:05Z</time>
      </trkpt>
      <trkpt lat="54.785068966448307" lon="8.834450002759695">
        <ele>-4.19</ele>
        <time>2019-05-05T17:01:06Z</time>
      </trkpt>
      <trkpt lat="54.785086987540126" lon="8.834394011646509">
        <ele>-4.19</ele>
        <time>2019-05-05T17:01:07Z</time>
      </trkpt>
      <trkpt lat="54.785112971439958" lon="8.834315976127982">
        <ele>-4.67</ele>
        <time>2019-05-05T17:01:08Z</time>
      </trkpt>
      <trkpt lat="54.78543902747333" lon="8.833325989544392">
        <ele>-4.67</ele>
        <time>2019-05-05T17:01:16Z</time>
      </trkpt>
      <trkpt lat="54.785658968612552" lon="8.832745961844921">
        <ele>-5.63</ele>
        <time>2019-05-05T17:01:21Z</time>
      </trkpt>
      <trkpt lat="54.785982007160783" lon="8.832084964960814">
        <ele>-4.67</ele>
        <time>2019-05-05T17:01:27Z</time>
      </trkpt>
      <trkpt lat="54.786229021847248" lon="8.831311985850334">
        <ele>-4.67</ele>
        <time>2019-05-05T17:01:33Z</time>
      </trkpt>
      <trkpt lat="54.78625500574708" lon="8.831177037209272">
        <ele>-4.67</ele>
        <time>2019-05-05T17:01:34Z</time>
      </trkpt>
      <trkpt lat="54.786489028483629" lon="8.829956967383623">
        <ele>-4.19</ele>
        <time>2019-05-05T17:01:44Z</time>
      </trkpt>
      <trkpt lat="54.786510989069939" lon="8.829855965450406">
        <ele>-3.71</ele>
        <time>2019-05-05T17:01:45Z</time>
      </trkpt>
      <trkpt lat="54.786670999601483" lon="8.829739959910512">
        <ele>-3.23</ele>
        <time>2019-05-05T17:01:50Z</time>
      </trkpt>
      <trkpt lat="54.786720033735037" lon="8.829754963517189">
        <ele>-3.23</ele>
        <time>2019-05-05T17:01:51Z</time>
      </trkpt>
      <trkpt lat="54.786783987656236" lon="8.829773990437388">
        <ele>-3.23</ele>
        <time>2019-05-05T17:01:52Z</time>
      </trkpt>
      <trkpt lat="54.786859005689621" lon="8.82979603484273">
        <ele>-2.75</ele>
        <time>2019-05-05T17:01:53Z</time>
      </trkpt>
      <trkpt lat="54.7869429923594" lon="8.8298200070858">
        <ele>-2.75</ele>
        <time>2019-05-05T17:01:54Z</time>
      </trkpt>
      <trkpt lat="54.787127980962396" lon="8.829873986542225">
        <ele>-1.79</ele>
        <time>2019-05-05T17:01:56Z</time>
      </trkpt>
      <trkpt lat="54.787216996774077" lon="8.829899970442057">
        <ele>-1.79</ele>
        <time>2019-05-05T17:01:57Z</time>
      </trkpt>
      <trkpt lat="54.787705997005105" lon="8.830043971538544">
        <ele>-0.34</ele>
        <time>2019-05-05T17:02:03Z</time>
      </trkpt>
      <trkpt lat="54.787777997553349" lon="8.830065010115504">
        <ele>0.14</ele>
        <time>2019-05-05T17:02:04Z</time>
      </trkpt>
      <trkpt lat="54.787840023636818" lon="8.830016981810331">
        <ele>0.14</ele>
        <time>2019-05-05T17:02:05Z</time>
      </trkpt>
      <trkpt lat="54.787906995043159" lon="8.829950010403991">
        <ele>0.14</ele>
        <time>2019-05-05T17:02:06Z</time>
      </trkpt>
      <trkpt lat="54.787961980327964" lon="8.829857977107167">
        <ele>-0.34</ele>
        <time>2019-05-05T17:02:07Z</time>
      </trkpt>
      <trkpt lat="54.788004979491234" lon="8.829747000709176">
        <ele>-0.34</ele>
        <time>2019-05-05T17:02:08Z</time>
      </trkpt>
      <trkpt lat="54.788043033331633" lon="8.829649016261101">
        <ele>-0.34</ele>
        <time>2019-05-05T17:02:09Z</time>
      </trkpt>
      <trkpt lat="54.78810497559607" lon="8.829649016261101">
        <ele>-0.34</ele>
        <time>2019-05-05T17:02:10Z</time>
      </trkpt>
      <trkpt lat="54.788154009729624" lon="8.829611968249083">
        <ele>-0.34</ele>
        <time>2019-05-05T17:02:11Z</time>
      </trkpt>
      <trkpt lat="54.788184016942978" lon="8.82960501126945">
        <ele>-0.34</ele>
        <time>2019-05-05T17:02:12Z</time>
      </trkpt>
      <trkpt lat="54.788243025541306" lon="8.829661002382636">
        <ele>-0.34</ele>
        <time>2019-05-05T17:02:13Z</time>
      </trkpt>
      <trkpt lat="54.788312008604407" lon="8.829726967960596">
        <ele>-0.34</ele>
        <time>2019-05-05T17:02:14Z</time>
      </trkpt>
      <trkpt lat="54.788385014981031" lon="8.82979704067111">
        <ele>-0.34</ele>
        <time>2019-05-05T17:02:15Z</time>
      </trkpt>
      <trkpt lat="54.789145002141595" lon="8.830525008961558">
        <ele>-0.82</ele>
        <time>2019-05-05T17:02:27Z</time>
      </trkpt>
      <trkpt lat="54.789191018790007" lon="8.830575970932841">
        <ele>-1.3</ele>
        <time>2019-05-05T17:02:28Z</time>
      </trkpt>
      <trkpt lat="54.789309035986662" lon="8.830800019204617">
        <ele>-1.3</ele>
        <time>2019-05-05T17:02:31Z</time>
      </trkpt>
      <trkpt lat="54.789353962987661" lon="8.830887023359537">
        <ele>-1.79</ele>
        <time>2019-05-05T17:02:32Z</time>
      </trkpt>
      <trkpt lat="54.789722012355924" lon="8.83170903660357">
        <ele>-0.82</ele>
        <time>2019-05-05T17:02:40Z</time>
      </trkpt>
      <trkpt lat="54.789934996515512" lon="8.832406997680664">
        <ele>-1.79</ele>
        <time>2019-05-05T17:02:48Z</time>
      </trkpt>
      <trkpt lat="54.79001403786242" lon="8.832502970471978">
        <ele>-1.79</ele>
        <time>2019-05-05T17:02:50Z</time>
      </trkpt>
      <trkpt lat="54.790094001218677" lon="8.833017032593489">
        <ele>-3.23</ele>
        <time>2019-05-05T17:02:59Z</time>
      </trkpt>
      <trkpt lat="54.790104981511831" lon="8.833184000104666">
        <ele>-3.71</ele>
        <time>2019-05-05T17:03:02Z</time>
      </trkpt>
      <trkpt lat="54.79012199677527" lon="8.833244014531374">
        <ele>-3.71</ele>
        <time>2019-05-05T17:03:03Z</time>
      </trkpt>
      <trkpt lat="54.790140017867088" lon="8.833306040614843">
        <ele>-4.19</ele>
        <time>2019-05-05T17:03:04Z</time>
      </trkpt>
      <trkpt lat="54.790171030908823" lon="8.833416011184454">
        <ele>-4.67</ele>
        <time>2019-05-05T17:03:05Z</time>
      </trkpt>
      <trkpt lat="54.790183017030358" lon="8.833441995084286">
        <ele>-5.15</ele>
        <time>2019-05-05T17:03:06Z</time>
      </trkpt>
      <trkpt lat="54.790210006758571" lon="8.833503015339375">
        <ele>-5.15</ele>
        <time>2019-05-05T17:03:07Z</time>
      </trkpt>
      <trkpt lat="54.790235990658402" lon="8.833561018109322">
        <ele>-5.63</ele>
        <time>2019-05-05T17:03:08Z</time>
      </trkpt>
      <trkpt lat="54.790260968729854" lon="8.833616003394127">
        <ele>-5.63</ele>
        <time>2019-05-05T17:03:09Z</time>
      </trkpt>
      <trkpt lat="54.790285024791956" lon="8.833668977022171">
        <ele>-6.11</ele>
        <time>2019-05-05T17:03:10Z</time>
      </trkpt>
      <trkpt lat="54.790305979549885" lon="8.833717005327344">
        <ele>-6.11</ele>
        <time>2019-05-05T17:03:11Z</time>
      </trkpt>
      <trkpt lat="54.790322994813323" lon="8.83375296369195">
        <ele>-6.59</ele>
        <time>2019-05-05T17:03:12Z</time>
      </trkpt>
      <trkpt lat="54.790335986763239" lon="8.833782970905304">
        <ele>-7.07</ele>
        <time>2019-05-05T17:03:13Z</time>
      </trkpt>
      <trkpt lat="54.790359036996961" lon="8.83385899476707">
        <ele>-7.07</ele>
        <time>2019-05-05T17:03:14Z</time>
      </trkpt>
      <trkpt lat="54.790345961228013" lon="8.833898976445198">
        <ele>-7.55</ele>
        <time>2019-05-05T17:03:15Z</time>
      </trkpt>
      <trkpt lat="54.790308997035027" lon="8.833928983658552">
        <ele>-7.55</ele>
        <time>2019-05-05T17:03:16Z</time>
      </trkpt>
      <trkpt lat="54.790284018963575" lon="8.833943987265229">
        <ele>-8.029999999999999</ele>
        <time>2019-05-05T17:03:17Z</time>
      </trkpt>
      <trkpt lat="54.790234984830022" lon="8.833973994478583">
        <ele>-8.51</ele>
        <time>2019-05-05T17:03:18Z</time>
      </trkpt>
      <trkpt lat="54.790221992880106" lon="8.833971982821822">
        <ele>-9</ele>
        <time>2019-05-05T17:03:19Z</time>
      </trkpt>
      <trkpt lat="54.790000040084124" lon="8.833941975608468">
        <ele>-12.84</ele>
        <time>2019-05-05T17:03:28Z</time>
      </trkpt>
      <trkpt lat="54.789717989042401" lon="8.833956979215145">
        <ele>-15.24</ele>
        <time>2019-05-05T17:03:39Z</time>
      </trkpt>
      <trkpt lat="54.789472986012697" lon="8.833990003913641">
        <ele>-14.279999999999999</ele>
        <time>2019-05-05T17:03:48Z</time>
      </trkpt>
      <trkpt lat="54.789472986012697" lon="8.833990003913641">
        <ele>-14.279999999999999</ele>
        <time>2019-05-05T17:03:59Z</time>
      </trkpt>
      <trkpt lat="54.789472986012697" lon="8.833990003913641">
        <ele>-13.800000000000001</ele>
        <time>2019-05-05T17:04:43Z</time>
      </trkpt>
      <trkpt lat="54.789472986012697" lon="8.833990003913641">
        <ele>-13.800000000000001</ele>
        <time>2019-05-05T17:05:29Z</time>
      </trkpt>
      <trkpt lat="54.789472986012697" lon="8.833990003913641">
        <ele>-13.800000000000001</ele>
        <time>2019-05-05T17:06:14Z</time>
      </trkpt>
      <trkpt lat="54.789472986012697" lon="8.833990003913641">
        <ele>-13.32</ele>
        <time>2019-05-05T17:06:15Z</time>
      </trkpt>
      <trkpt lat="54.789472986012697" lon="8.833990003913641">
        <ele>-9</ele>
        <time>2019-05-05T17:06:20Z</time>
      </trkpt>
      <trkpt lat="54.789471980184317" lon="8.833990003913641">
        <ele>-8.51</ele>
        <time>2019-05-05T17:06:21Z</time>
      </trkpt>
      <trkpt lat="54.789484972134233" lon="8.83398899808526">
        <ele>-8.029999999999999</ele>
        <time>2019-05-05T17:06:22Z</time>
      </trkpt>
      <trkpt lat="54.789502993226051" lon="8.833985980600119">
        <ele>-8.029999999999999</ele>
        <time>2019-05-05T17:06:23Z</time>
      </trkpt>
      <trkpt lat="54.789526965469122" lon="8.833982963114977">
        <ele>-7.55</ele>
        <time>2019-05-05T17:06:24Z</time>
      </trkpt>
      <trkpt lat="54.789557978510857" lon="8.833979023620486">
        <ele>-7.55</ele>
        <time>2019-05-05T17:06:25Z</time>
      </trkpt>
      <trkpt lat="54.789764005690813" lon="8.833951028063893">
        <ele>-6.59</ele>
        <time>2019-05-05T17:06:30Z</time>
      </trkpt>
      <trkpt lat="54.789885962381959" lon="8.833934012800455">
        <ele>-6.59</ele>
        <time>2019-05-05T17:06:33Z</time>
      </trkpt>
      <trkpt lat="54.789913035929203" lon="8.833930995315313">
        <ele>-6.59</ele>
        <time>2019-05-05T17:06:34Z</time>
      </trkpt>
      <trkpt lat="54.79010196402669" lon="8.833955973386765">
        <ele>-6.59</ele>
        <time>2019-05-05T17:06:38Z</time>
      </trkpt>
      <trkpt lat="54.790139012038708" lon="8.833961002528667">
        <ele>-6.11</ele>
        <time>2019-05-05T17:06:39Z</time>
      </trkpt>
      <trkpt lat="54.790170025080442" lon="8.83396502584219">
        <ele>-6.11</ele>
        <time>2019-05-05T17:06:40Z</time>
      </trkpt>
      <trkpt lat="54.790196008980274" lon="8.8339679595083">
        <ele>-6.59</ele>
        <time>2019-05-05T17:06:41Z</time>
      </trkpt>
      <trkpt lat="54.790216963738203" lon="8.833970976993442">
        <ele>-6.59</ele>
        <time>2019-05-05T17:06:42Z</time>
      </trkpt>
      <trkpt lat="54.790234984830022" lon="8.833973994478583">
        <ele>-6.11</ele>
        <time>2019-05-05T17:06:43Z</time>
      </trkpt>
      <trkpt lat="54.790234984830022" lon="8.833973994478583">
        <ele>-6.11</ele>
        <time>2019-05-05T17:06:44Z</time>
      </trkpt>
      <trkpt lat="54.790234984830022" lon="8.833973994478583">
        <ele>-5.63</ele>
        <time>2019-05-05T17:06:53Z</time>
      </trkpt>
      <trkpt lat="54.790342021733522" lon="8.833909034729004">
        <ele>-3.71</ele>
        <time>2019-05-05T17:07:20Z</time>
      </trkpt>
      <trkpt lat="54.790342021733522" lon="8.833909034729004">
        <ele>-3.23</ele>
        <time>2019-05-05T17:07:21Z</time>
      </trkpt>
      <trkpt lat="54.790363982319832" lon="8.833844996988773">
        <ele>-3.23</ele>
        <time>2019-05-05T17:07:22Z</time>
      </trkpt>
      <trkpt lat="54.790363982319832" lon="8.833844996988773">
        <ele>-3.23</ele>
        <time>2019-05-05T17:07:23Z</time>
      </trkpt>
      <trkpt lat="54.790342021733522" lon="8.833909034729004">
        <ele>-2.75</ele>
        <time>2019-05-05T17:07:24Z</time>
      </trkpt>
      <trkpt lat="54.790322994813323" lon="8.833921020850539">
        <ele>-3.23</ele>
        <time>2019-05-05T17:07:25Z</time>
      </trkpt>
      <trkpt lat="54.790285024791956" lon="8.833942981436849">
        <ele>-3.71</ele>
        <time>2019-05-05T17:07:26Z</time>
      </trkpt>
      <trkpt lat="54.790211012586951" lon="8.833969971165061">
        <ele>-3.71</ele>
        <time>2019-05-05T17:07:27Z</time>
      </trkpt>
      <trkpt lat="54.789731986820698" lon="8.833954967558384">
        <ele>-7.07</ele>
        <time>2019-05-05T17:07:34Z</time>
      </trkpt>
      <trkpt lat="54.789161011576653" lon="8.83403199724853">
        <ele>-10.92</ele>
        <time>2019-05-05T17:07:43Z</time>
      </trkpt>
      <trkpt lat="54.789080964401364" lon="8.833998972550035">
        <ele>-10.92</ele>
        <time>2019-05-05T17:07:44Z</time>
      </trkpt>
      <trkpt lat="54.789028996601701" lon="8.833947004750371">
        <ele>-11.4</ele>
        <time>2019-05-05T17:07:45Z</time>
      </trkpt>
      <trkpt lat="54.788980968296528" lon="8.83383703418076">
        <ele>-11.4</ele>
        <time>2019-05-05T17:07:46Z</time>
      </trkpt>
      <trkpt lat="54.788930006325245" lon="8.833727985620499">
        <ele>-11.4</ele>
        <time>2019-05-05T17:07:47Z</time>
      </trkpt>
      <trkpt lat="54.78885599412024" lon="8.833683980628848">
        <ele>-11.4</ele>
        <time>2019-05-05T17:07:48Z</time>
      </trkpt>
      <trkpt lat="54.788777958601713" lon="8.833638969808817">
        <ele>-11.4</ele>
        <time>2019-05-05T17:07:49Z</time>
      </trkpt>
      <trkpt lat="54.788692966103554" lon="8.833589013665915">
        <ele>-11.880000000000001</ele>
        <time>2019-05-05T17:07:50Z</time>
      </trkpt>
      <trkpt lat="54.788603028282523" lon="8.833536962047219">
        <ele>-11.880000000000001</ele>
        <time>2019-05-05T17:07:51Z</time>
      </trkpt>
      <trkpt lat="54.7885109949857" lon="8.833482982590795">
        <ele>-11.880000000000001</ele>
        <time>2019-05-05T17:07:52Z</time>
      </trkpt>
      <trkpt lat="54.788408987224102" lon="8.833436965942383">
        <ele>-12.359999999999999</ele>
        <time>2019-05-05T17:07:53Z</time>
      </trkpt>
      <trkpt lat="54.787338031455874" lon="8.833454987034202">
        <ele>-11.4</ele>
        <time>2019-05-05T17:08:03Z</time>
      </trkpt>
      <trkpt lat="54.786951038986444" lon="8.833540985360742">
        <ele>-10.92</ele>
        <time>2019-05-05T17:08:10Z</time>
      </trkpt>
      <trkpt lat="54.78687996044755" lon="8.833575015887618">
        <ele>-9.960000000000001</ele>
        <time>2019-05-05T17:08:20Z</time>
      </trkpt>
      <trkpt lat="54.786630012094975" lon="8.833694960922003">
        <ele>-9.960000000000001</ele>
        <time>2019-05-05T17:08:27Z</time>
      </trkpt>
      <trkpt lat="54.786538984626532" lon="8.833757992833853">
        <ele>-10.44</ele>
        <time>2019-05-05T17:08:30Z</time>
      </trkpt>
      <trkpt lat="54.786518029868603" lon="8.833771990612149">
        <ele>-10.92</ele>
        <time>2019-05-05T17:08:31Z</time>
      </trkpt>
      <trkpt lat="54.786501014605165" lon="8.833783976733685">
        <ele>-10.92</ele>
        <time>2019-05-05T17:08:32Z</time>
      </trkpt>
      <trkpt lat="54.786463966593146" lon="8.833606028929353">
        <ele>-10.92</ele>
        <time>2019-05-05T17:08:35Z</time>
      </trkpt>
      <trkpt lat="54.786475030705333" lon="8.833534028381109">
        <ele>-10.92</ele>
        <time>2019-05-05T17:08:47Z</time>
      </trkpt>
      <trkpt lat="54.786564968526363" lon="8.833738965913653">
        <ele>-10.44</ele>
        <time>2019-05-05T17:08:49Z</time>
      </trkpt>
      <trkpt lat="54.786520963534713" lon="8.833298999816179">
        <ele>-9</ele>
        <time>2019-05-05T17:08:58Z</time>
      </trkpt>
      <trkpt lat="54.786520963534713" lon="8.833298999816179">
        <ele>-9</ele>
        <time>2019-05-05T17:09:03Z</time>
      </trkpt>
    </trkseg>
  </trk>

  <trk>
    <name>Track vom: 2019-05-05 20:04</name>
    <extensions>
      <gpxx:TrackExtension>
        <gpxx:DisplayColor>DarkGray</gpxx:DisplayColor>
      </gpxx:TrackExtension>
    </extensions>
    <trkseg>
      <trkpt lat="54.786549964919686" lon="8.833320960402489">
        <ele>-1.79</ele>
        <time>2019-05-05T18:04:48Z</time>
      </trkpt>
      <trkpt lat="54.78651400655508" lon="8.833358008414507">
        <ele>1.58</ele>
        <time>2019-05-05T18:05:32Z</time>
      </trkpt>
      <trkpt lat="54.786548037081957" lon="8.833314003422856">
        <ele>2.06</ele>
        <time>2019-05-05T18:05:49Z</time>
      </trkpt>
      <trkpt lat="54.786540996283293" lon="8.833470996469259">
        <ele>1.1</ele>
        <time>2019-05-05T18:05:54Z</time>
      </trkpt>
      <trkpt lat="54.786485005170107" lon="8.833723040297627">
        <ele>0.62</ele>
        <time>2019-05-05T18:05:59Z</time>
      </trkpt>
      <trkpt lat="54.786531021818519" lon="8.833763021975756">
        <ele>0.14</ele>
        <time>2019-05-05T18:06:04Z</time>
      </trkpt>
      <trkpt lat="54.786567986011505" lon="8.833737960085273">
        <ele>-0.34</ele>
        <time>2019-05-05T18:06:05Z</time>
      </trkpt>
      <trkpt lat="54.78662297129631" lon="8.833698984235525">
        <ele>-0.34</ele>
        <time>2019-05-05T18:06:06Z</time>
      </trkpt>
      <trkpt lat="54.787067966535687" lon="8.833484994247556">
        <ele>-0.82</ele>
        <time>2019-05-05T18:06:12Z</time>
      </trkpt>
      <trkpt lat="54.787156982347369" lon="8.833458004519343">
        <ele>-0.82</ele>
        <time>2019-05-05T18:06:13Z</time>
      </trkpt>
      <trkpt lat="54.788261968642473" lon="8.833439983427525">
        <ele>-1.3</ele>
        <time>2019-05-05T18:06:25Z</time>
      </trkpt>
      <trkpt lat="54.788893964141607" lon="8.833706025034189">
        <ele>-1.3</ele>
        <time>2019-05-05T18:06:32Z</time>
      </trkpt>
      <trkpt lat="54.788966970518231" lon="8.833795040845871">
        <ele>-1.3</ele>
        <time>2019-05-05T18:06:33Z</time>
      </trkpt>
      <trkpt lat="54.789011981338263" lon="8.833930995315313">
        <ele>-1.3</ele>
        <time>2019-05-05T18:06:34Z</time>
      </trkpt>
      <trkpt lat="54.789060009643435" lon="8.833979023620486">
        <ele>-1.3</ele>
        <time>2019-05-05T18:06:35Z</time>
      </trkpt>
      <trkpt lat="54.789118012413383" lon="8.834037026390433">
        <ele>-1.3</ele>
        <time>2019-05-05T18:06:36Z</time>
      </trkpt>
      <trkpt lat="54.789207028225064" lon="8.834025962278247">
        <ele>-1.3</ele>
        <time>2019-05-05T18:06:37Z</time>
      </trkpt>
      <trkpt lat="54.789289003238082" lon="8.834014981985092">
        <ele>-0.82</ele>
        <time>2019-05-05T18:06:38Z</time>
      </trkpt>
      <trkpt lat="54.789359997957945" lon="8.834006013348699">
        <ele>-0.82</ele>
        <time>2019-05-05T18:06:39Z</time>
      </trkpt>
      <trkpt lat="54.789569964632392" lon="8.833977011963725">
        <ele>-0.82</ele>
        <time>2019-05-05T18:06:42Z</time>
      </trkpt>
      <trkpt lat="54.789641965180635" lon="8.833967037498951">
        <ele>-0.82</ele>
        <time>2019-05-05T18:06:43Z</time>
      </trkpt>
      <trkpt lat="54.79027396067977" lon="8.833950022235513">
        <ele>1.1</ele>
        <time>2019-05-05T18:06:54Z</time>
      </trkpt>
      <trkpt lat="54.790342021733522" lon="8.833909034729004">
        <ele>1.58</ele>
        <time>2019-05-05T18:06:56Z</time>
      </trkpt>
      <trkpt lat="54.790353002026677" lon="8.833878021687269">
        <ele>1.58</ele>
        <time>2019-05-05T18:06:57Z</time>
      </trkpt>
      <trkpt lat="54.790357025340199" lon="8.833828987553716">
        <ele>2.06</ele>
        <time>2019-05-05T18:06:58Z</time>
      </trkpt>
      <trkpt lat="54.790331963449717" lon="8.83377299644053">
        <ele>2.06</ele>
        <time>2019-05-05T18:06:59Z</time>
      </trkpt>
      <trkpt lat="54.790302962064743" lon="8.83370803669095">
        <ele>2.54</ele>
        <time>2019-05-05T18:07:00Z</time>
      </trkpt>
      <trkpt lat="54.790271027013659" lon="8.833638969808817">
        <ele>2.54</ele>
        <time>2019-05-05T18:07:01Z</time>
      </trkpt>
      <trkpt lat="54.790236996486783" lon="8.833563029766083">
        <ele>2.54</ele>
        <time>2019-05-05T18:07:02Z</time>
      </trkpt>
      <trkpt lat="54.790201960131526" lon="8.833484994247556">
        <ele>3.02</ele>
        <time>2019-05-05T18:07:03Z</time>
      </trkpt>
      <trkpt lat="54.790115039795637" lon="8.833219036459923">
        <ele>3.02</ele>
        <time>2019-05-05T18:07:06Z</time>
      </trkpt>
      <trkpt lat="54.790100958198309" lon="8.832934973761439">
        <ele>3.98</ele>
        <time>2019-05-05T18:07:14Z</time>
      </trkpt>
      <trkpt lat="54.790103975683451" lon="8.832906978204846">
        <ele>3.98</ele>
        <time>2019-05-05T18:07:19Z</time>
      </trkpt>
      <trkpt lat="54.790107998996973" lon="8.832862973213196">
        <ele>3.98</ele>
        <time>2019-05-05T18:07:20Z</time>
      </trkpt>
      <trkpt lat="54.790114033967257" lon="8.832790972664952">
        <ele>3.98</ele>
        <time>2019-05-05T18:07:21Z</time>
      </trkpt>
      <trkpt lat="54.79012199677527" lon="8.832712015137076">
        <ele>3.98</ele>
        <time>2019-05-05T18:07:22Z</time>
      </trkpt>
      <trkpt lat="54.790197014808655" lon="8.832648983225226">
        <ele>3.98</ele>
        <time>2019-05-05T18:07:23Z</time>
      </trkpt>
      <trkpt lat="54.790244037285447" lon="8.832653006538749">
        <ele>3.98</ele>
        <time>2019-05-05T18:07:24Z</time>
      </trkpt>
      <trkpt lat="54.790296005085111" lon="8.832658035680652">
        <ele>3.98</ele>
        <time>2019-05-05T18:07:25Z</time>
      </trkpt>
      <trkpt lat="54.790359036996961" lon="8.832662981003523">
        <ele>3.98</ele>
        <time>2019-05-05T18:07:26Z</time>
      </trkpt>
      <trkpt lat="54.790431037545204" lon="8.832670021802187">
        <ele>3.98</ele>
        <time>2019-05-05T18:07:27Z</time>
      </trkpt>
      <trkpt lat="54.790849965065718" lon="8.832706985995174">
        <ele>3.98</ele>
        <time>2019-05-05T18:07:32Z</time>
      </trkpt>
      <trkpt lat="54.790906962007284" lon="8.83276398293674">
        <ele>3.98</ele>
        <time>2019-05-05T18:07:33Z</time>
      </trkpt>
      <trkpt lat="54.790955996140838" lon="8.832819974049926">
        <ele>3.5</ele>
        <time>2019-05-05T18:07:34Z</time>
      </trkpt>
      <trkpt lat="54.791011987254024" lon="8.832905972376466">
        <ele>3.5</ele>
        <time>2019-05-05T18:07:35Z</time>
      </trkpt>
      <trkpt lat="54.791031014174223" lon="8.833028012886643">
        <ele>3.02</ele>
        <time>2019-05-05T18:07:36Z</time>
      </trkpt>
      <trkpt lat="54.791050963103771" lon="8.833165979012847">
        <ele>3.02</ele>
        <time>2019-05-05T18:07:37Z</time>
      </trkpt>
      <trkpt lat="54.791062027215958" lon="8.833306040614843">
        <ele>2.54</ele>
        <time>2019-05-05T18:07:38Z</time>
      </trkpt>
      <trkpt lat="54.791081976145506" lon="8.833554983139038">
        <ele>2.06</ele>
        <time>2019-05-05T18:07:40Z</time>
      </trkpt>
      <trkpt lat="54.791090022772551" lon="8.833660008385778">
        <ele>2.06</ele>
        <time>2019-05-05T18:07:41Z</time>
      </trkpt>
      <trkpt lat="54.791097985580564" lon="8.833761010318995">
        <ele>1.58</ele>
        <time>2019-05-05T18:07:42Z</time>
      </trkpt>
      <trkpt lat="54.791106032207608" lon="8.833856983110309">
        <ele>1.58</ele>
        <time>2019-05-05T18:07:43Z</time>
      </trkpt>
      <trkpt lat="54.79111198335886" lon="8.833938958123326">
        <ele>1.58</ele>
        <time>2019-05-05T18:07:44Z</time>
      </trkpt>
      <trkpt lat="54.791118018329144" lon="8.834004001691937">
        <ele>1.58</ele>
        <time>2019-05-05T18:07:45Z</time>
      </trkpt>
      <trkpt lat="54.791125981137156" lon="8.834091005846858">
        <ele>2.54</ele>
        <time>2019-05-05T18:07:53Z</time>
      </trkpt>
      <trkpt lat="54.791125981137156" lon="8.834091005846858">
        <ele>3.02</ele>
        <time>2019-05-05T18:08:34Z</time>
      </trkpt>
      <trkpt lat="54.791125981137156" lon="8.834091005846858">
        <ele>2.54</ele>
        <time>2019-05-05T18:09:23Z</time>
      </trkpt>
      <trkpt lat="54.791125981137156" lon="8.834091005846858">
        <ele>2.54</ele>
        <time>2019-05-05T18:10:18Z</time>
      </trkpt>
      <trkpt lat="54.791125981137156" lon="8.834091005846858">
        <ele>2.54</ele>
        <time>2019-05-05T18:10:41Z</time>
      </trkpt>
      <trkpt lat="54.791174009442329" lon="8.834661981090903">
        <ele>2.06</ele>
        <time>2019-05-05T18:10:48Z</time>
      </trkpt>
      <trkpt lat="54.791302001103759" lon="8.83611498400569">
        <ele>0.62</ele>
        <time>2019-05-05T18:10:58Z</time>
      </trkpt>
      <trkpt lat="54.791471986100078" lon="8.837942993268371">
        <ele>1.58</ele>
        <time>2019-05-05T18:11:08Z</time>
      </trkpt>
      <trkpt lat="54.791676001623273" lon="8.840055987238884">
        <ele>1.58</ele>
        <time>2019-05-05T18:11:19Z</time>
      </trkpt>
      <trkpt lat="54.791735010221601" lon="8.840680019930005">
        <ele>0.14</ele>
        <time>2019-05-05T18:11:23Z</time>
      </trkpt>
      <trkpt lat="54.791765017434955" lon="8.841002974659205">
        <ele>-0.82</ele>
        <time>2019-05-05T18:11:26Z</time>
      </trkpt>
      <trkpt lat="54.791771974414587" lon="8.841072963550687">
        <ele>-1.3</ele>
        <time>2019-05-05T18:11:27Z</time>
      </trkpt>
      <trkpt lat="54.79177700355649" lon="8.841127026826143">
        <ele>-1.79</ele>
        <time>2019-05-05T18:11:28Z</time>
      </trkpt>
      <trkpt lat="54.791823020204902" lon="8.841148987412453">
        <ele>-2.27</ele>
        <time>2019-05-05T18:11:29Z</time>
      </trkpt>
      <trkpt lat="54.791861996054649" lon="8.841137001290917">
        <ele>-2.75</ele>
        <time>2019-05-05T18:11:30Z</time>
      </trkpt>
      <trkpt lat="54.791909018531442" lon="8.84112199768424">
        <ele>-3.71</ele>
        <time>2019-05-05T18:11:31Z</time>
      </trkpt>
      <trkpt lat="54.791957968845963" lon="8.841106994077563">
        <ele>-4.19</ele>
        <time>2019-05-05T18:11:32Z</time>
      </trkpt>
      <trkpt lat="54.792016977444291" lon="8.841087967157364">
        <ele>-4.67</ele>
        <time>2019-05-05T18:11:33Z</time>
      </trkpt>
      <trkpt lat="54.792084032669663" lon="8.841068018227816">
        <ele>-5.15</ele>
        <time>2019-05-05T18:11:34Z</time>
      </trkpt>
      <trkpt lat="54.792368011549115" lon="8.840979002416134">
        <ele>-5.15</ele>
        <time>2019-05-05T18:11:38Z</time>
      </trkpt>
      <trkpt lat="54.792445041239262" lon="8.840986965224147">
        <ele>-5.15</ele>
        <time>2019-05-05T18:11:39Z</time>
      </trkpt>
      <trkpt lat="54.792516035959125" lon="8.841017978265882">
        <ele>-4.67</ele>
        <time>2019-05-05T18:11:40Z</time>
      </trkpt>
      <trkpt lat="54.792746035382152" lon="8.841118980199099">
        <ele>-4.19</ele>
        <time>2019-05-05T18:11:43Z</time>
      </trkpt>
      <trkpt lat="54.792802026495337" lon="8.841104982420802">
        <ele>-3.71</ele>
        <time>2019-05-05T18:11:44Z</time>
      </trkpt>
      <trkpt lat="54.792936975136399" lon="8.841071035712957">
        <ele>-2.75</ele>
        <time>2019-05-05T18:11:46Z</time>
      </trkpt>
      <trkpt lat="54.793009981513023" lon="8.841038011014462">
        <ele>-2.75</ele>
        <time>2019-05-05T18:11:47Z</time>
      </trkpt>
      <trkpt lat="54.793054992333055" lon="8.84092996828258">
        <ele>-2.27</ele>
        <time>2019-05-05T18:11:48Z</time>
      </trkpt>
      <trkpt lat="54.79311098344624" lon="8.84079703129828">
        <ele>-1.79</ele>
        <time>2019-05-05T18:11:49Z</time>
      </trkpt>
      <trkpt lat="54.793125987052917" lon="8.84066903963685">
        <ele>-1.3</ele>
        <time>2019-05-05T18:11:50Z</time>
      </trkpt>
      <trkpt lat="54.793189018964767" lon="8.84015497751534">
        <ele>-1.79</ele>
        <time>2019-05-05T18:11:54Z</time>
      </trkpt>
      <trkpt lat="54.793203016743064" lon="8.84004701860249">
        <ele>-2.27</ele>
        <time>2019-05-05T18:11:55Z</time>
      </trkpt>
      <trkpt lat="54.793213997036219" lon="8.839951967820525">
        <ele>-2.27</ele>
        <time>2019-05-05T18:11:56Z</time>
      </trkpt>
      <trkpt lat="54.793223971500993" lon="8.839869992807508">
        <ele>-2.75</ele>
        <time>2019-05-05T18:11:57Z</time>
      </trkpt>
      <trkpt lat="54.793234029784799" lon="8.83978801779449">
        <ele>-2.75</ele>
        <time>2019-05-05T18:11:58Z</time>
      </trkpt>
      <trkpt lat="54.793244004249573" lon="8.839708976447582">
        <ele>-2.75</ele>
        <time>2019-05-05T18:11:59Z</time>
      </trkpt>
      <trkpt lat="54.793452965095639" lon="8.839670000597835">
        <ele>-2.75</ele>
        <time>2019-05-05T18:12:00Z</time>
      </trkpt>
      <trkpt lat="54.793484983965755" lon="8.839686010032892">
        <ele>-3.23</ele>
        <time>2019-05-05T18:12:01Z</time>
      </trkpt>
      <trkpt lat="54.793519014492631" lon="8.839703025296331">
        <ele>-3.23</ele>
        <time>2019-05-05T18:12:02Z</time>
      </trkpt>
      <trkpt lat="54.793564025312662" lon="8.839725991711021">
        <ele>-3.71</ele>
        <time>2019-05-05T18:12:03Z</time>
      </trkpt>
      <trkpt lat="54.79362403973937" lon="8.839754993095994">
        <ele>-3.71</ele>
        <time>2019-05-05T18:12:04Z</time>
      </trkpt>
      <trkpt lat="54.793692016974092" lon="8.83978902362287">
        <ele>-3.71</ele>
        <time>2019-05-05T18:12:05Z</time>
      </trkpt>
      <trkpt lat="54.794208006933331" lon="8.84004701860249">
        <ele>-4.67</ele>
        <time>2019-05-05T18:12:12Z</time>
      </trkpt>
      <trkpt lat="54.794267015531659" lon="8.840077025815845">
        <ele>-4.67</ele>
        <time>2019-05-05T18:12:13Z</time>
      </trkpt>
      <trkpt lat="54.794316971674562" lon="8.840102003887296">
        <ele>-4.19</ele>
        <time>2019-05-05T18:12:14Z</time>
      </trkpt>
      <trkpt lat="54.794409004971385" lon="8.840148020535708">
        <ele>-4.67</ele>
        <time>2019-05-05T18:12:16Z</time>
      </trkpt>
      <trkpt lat="54.794448986649513" lon="8.840131005272269">
        <ele>-4.67</ele>
        <time>2019-05-05T18:12:17Z</time>
      </trkpt>
      <trkpt lat="54.794499026611447" lon="8.840094041079283">
        <ele>-4.67</ele>
        <time>2019-05-05T18:12:18Z</time>
      </trkpt>
      <trkpt lat="54.794555017724633" lon="8.840050958096981">
        <ele>-5.15</ele>
        <time>2019-05-05T18:12:19Z</time>
      </trkpt>
      <trkpt lat="54.794590976089239" lon="8.840024974197149">
        <ele>-5.15</ele>
        <time>2019-05-05T18:12:20Z</time>
      </trkpt>
      <trkpt lat="54.79467798024416" lon="8.84006998501718">
        <ele>-5.15</ele>
        <time>2019-05-05T18:12:21Z</time>
      </trkpt>
      <trkpt lat="54.794739000499249" lon="8.840103009715676">
        <ele>-5.63</ele>
        <time>2019-05-05T18:12:22Z</time>
      </trkpt>
      <trkpt lat="54.794800020754337" lon="8.840135028585792">
        <ele>-5.63</ele>
        <time>2019-05-05T18:12:23Z</time>
      </trkpt>
      <trkpt lat="54.794861963018775" lon="8.840167969465256">
        <ele>-5.63</ele>
        <time>2019-05-05T18:12:24Z</time>
      </trkpt>
      <trkpt lat="54.79495600797236" lon="8.84021800942719">
        <ele>-5.63</ele>
        <time>2019-05-05T18:12:25Z</time>
      </trkpt>
      <trkpt lat="54.794970005750656" lon="8.840249022468925">
        <ele>-6.11</ele>
        <time>2019-05-05T18:12:26Z</time>
      </trkpt>
      <trkpt lat="54.795002024620771" lon="8.840321023017168">
        <ele>-6.11</ele>
        <time>2019-05-05T18:12:27Z</time>
      </trkpt>
      <trkpt lat="54.7950420062989" lon="8.840410960838199">
        <ele>-6.11</ele>
        <time>2019-05-05T18:12:28Z</time>
      </trkpt>
      <trkpt lat="54.795095985755324" lon="8.840439962223172">
        <ele>-6.11</ele>
        <time>2019-05-05T18:12:29Z</time>
      </trkpt>
      <trkpt lat="54.795161029323936" lon="8.84047600440681">
        <ele>-6.11</ele>
        <time>2019-05-05T18:12:30Z</time>
      </trkpt>
      <trkpt lat="54.795228000730276" lon="8.840512968599796">
        <ele>-6.11</ele>
        <time>2019-05-05T18:12:31Z</time>
      </trkpt>
      <trkpt lat="54.795281980186701" lon="8.84054297581315">
        <ele>-6.11</ele>
        <time>2019-05-05T18:12:32Z</time>
      </trkpt>
      <trkpt lat="54.795321961864829" lon="8.840565020218492">
        <ele>-6.11</ele>
        <time>2019-05-05T18:12:33Z</time>
      </trkpt>
      <trkpt lat="54.795358004048467" lon="8.84058496914804">
        <ele>-6.11</ele>
        <time>2019-05-05T18:12:34Z</time>
      </trkpt>
      <trkpt lat="54.795384993776679" lon="8.840599972754717">
        <ele>-6.59</ele>
        <time>2019-05-05T18:12:35Z</time>
      </trkpt>
      <trkpt lat="54.795410977676511" lon="8.840612964704633">
        <ele>-6.59</ele>
        <time>2019-05-05T18:12:36Z</time>
      </trkpt>
      <trkpt lat="54.795470992103219" lon="8.840646995231509">
        <ele>-6.59</ele>
        <time>2019-05-05T18:12:37Z</time>
      </trkpt>
      <trkpt lat="54.795470992103219" lon="8.840646995231509">
        <ele>-6.59</ele>
        <time>2019-05-05T18:12:38Z</time>
      </trkpt>
      <trkpt lat="54.795480966567993" lon="8.840646995231509">
        <ele>-6.59</ele>
        <time>2019-05-05T18:12:39Z</time>
      </trkpt>
      <trkpt lat="54.795480966567993" lon="8.840646995231509">
        <ele>-7.07</ele>
        <time>2019-05-05T18:12:40Z</time>
      </trkpt>
    </trkseg>
  </trk>

</gpx>